<?xml version="1.0" encoding="UTF-8" standalone="no" ?>
<gpx xmlns="http://www.topografix.com/GPX/1/1" xmlns:xsi="http://www.w3.org/2001/XMLSchema-instance" xsi:schemaLocation="http://www.topografix.com/GPX/1/1 http://www.topografix.com/GPX/1/1/gpx.xsd" version="1.1" creator="VisuGPX - https://www.visugpx.com">
  <metadata>
    <name>Sortie gravel en vu du 100kil</name>
    <desc><![CDATA[

]]></desc>
  </metadata>
  <trk>
    <name><![CDATA[Sortie gravel en vu du 100kil]]></name>
    <extensions>
      <line xmlns="http://www.topografix.com/GPX/gpx_style/0/2">
        <color>0000FF</color>
        <width>4</width>
      </line>
    </extensions>
    <trkseg>
      <trkpt lat="47.44508" lon="-0.5694">
        <ele>42.2</ele>
        <time>2021-07-04T05:04:05Z</time>
      </trkpt>
      <trkpt lat="47.44508" lon="-0.5694">
        <ele>42.2</ele>
        <time>2021-07-04T05:04:05Z</time>
      </trkpt>
      <trkpt lat="47.44503" lon="-0.56941">
        <ele>41.8</ele>
        <time>2021-07-04T05:05:04Z</time>
      </trkpt>
      <trkpt lat="47.44501" lon="-0.56938">
        <ele>41.6</ele>
        <time>2021-07-04T05:05:05Z</time>
      </trkpt>
      <trkpt lat="47.445" lon="-0.56934">
        <ele>41.6</ele>
        <time>2021-07-04T05:05:06Z</time>
      </trkpt>
      <trkpt lat="47.44496" lon="-0.56925">
        <ele>41.4</ele>
        <time>2021-07-04T05:05:08Z</time>
      </trkpt>
      <trkpt lat="47.44494" lon="-0.5692">
        <ele>41</ele>
        <time>2021-07-04T05:05:09Z</time>
      </trkpt>
      <trkpt lat="47.44492" lon="-0.56915">
        <ele>40.8</ele>
        <time>2021-07-04T05:05:10Z</time>
      </trkpt>
      <trkpt lat="47.44489" lon="-0.56906">
        <ele>40.8</ele>
        <time>2021-07-04T05:05:12Z</time>
      </trkpt>
      <trkpt lat="47.44489" lon="-0.56898">
        <ele>41.2</ele>
        <time>2021-07-04T05:05:14Z</time>
      </trkpt>
      <trkpt lat="47.44492" lon="-0.56889">
        <ele>41.2</ele>
        <time>2021-07-04T05:05:16Z</time>
      </trkpt>
      <trkpt lat="47.44495" lon="-0.56884">
        <ele>40.8</ele>
        <time>2021-07-04T05:05:17Z</time>
      </trkpt>
      <trkpt lat="47.44499" lon="-0.5688">
        <ele>40.6</ele>
        <time>2021-07-04T05:05:18Z</time>
      </trkpt>
      <trkpt lat="47.44506" lon="-0.56872">
        <ele>40.4</ele>
        <time>2021-07-04T05:05:20Z</time>
      </trkpt>
      <trkpt lat="47.44513" lon="-0.56864">
        <ele>40.4</ele>
        <time>2021-07-04T05:05:22Z</time>
      </trkpt>
      <trkpt lat="47.4452" lon="-0.56858">
        <ele>40.2</ele>
        <time>2021-07-04T05:05:24Z</time>
      </trkpt>
      <trkpt lat="47.44524" lon="-0.56856">
        <ele>40</ele>
        <time>2021-07-04T05:05:25Z</time>
      </trkpt>
      <trkpt lat="47.44528" lon="-0.56855">
        <ele>40</ele>
        <time>2021-07-04T05:05:26Z</time>
      </trkpt>
      <trkpt lat="47.44536" lon="-0.5686">
        <ele>40.2</ele>
        <time>2021-07-04T05:05:28Z</time>
      </trkpt>
      <trkpt lat="47.44541" lon="-0.56872">
        <ele>40.2</ele>
        <time>2021-07-04T05:05:30Z</time>
      </trkpt>
      <trkpt lat="47.44546" lon="-0.56885">
        <ele>39.8</ele>
        <time>2021-07-04T05:05:32Z</time>
      </trkpt>
      <trkpt lat="47.4455" lon="-0.56897">
        <ele>39.8</ele>
        <time>2021-07-04T05:05:34Z</time>
      </trkpt>
      <trkpt lat="47.44553" lon="-0.5691">
        <ele>40</ele>
        <time>2021-07-04T05:05:36Z</time>
      </trkpt>
      <trkpt lat="47.44557" lon="-0.56924">
        <ele>40</ele>
        <time>2021-07-04T05:05:38Z</time>
      </trkpt>
      <trkpt lat="47.44559" lon="-0.56938">
        <ele>40.2</ele>
        <time>2021-07-04T05:05:40Z</time>
      </trkpt>
      <trkpt lat="47.44561" lon="-0.56952">
        <ele>40.6</ele>
        <time>2021-07-04T05:05:42Z</time>
      </trkpt>
      <trkpt lat="47.44564" lon="-0.56966">
        <ele>40.6</ele>
        <time>2021-07-04T05:05:44Z</time>
      </trkpt>
      <trkpt lat="47.44566" lon="-0.56979">
        <ele>40.4</ele>
        <time>2021-07-04T05:05:46Z</time>
      </trkpt>
      <trkpt lat="47.44567" lon="-0.56985">
        <ele>40.8</ele>
        <time>2021-07-04T05:05:47Z</time>
      </trkpt>
      <trkpt lat="47.44568" lon="-0.5699">
        <ele>41</ele>
        <time>2021-07-04T05:05:48Z</time>
      </trkpt>
      <trkpt lat="47.44569" lon="-0.56995">
        <ele>41.2</ele>
        <time>2021-07-04T05:05:49Z</time>
      </trkpt>
      <trkpt lat="47.4457" lon="-0.56999">
        <ele>41.2</ele>
        <time>2021-07-04T05:05:50Z</time>
      </trkpt>
      <trkpt lat="47.4457" lon="-0.57002">
        <ele>41.4</ele>
        <time>2021-07-04T05:05:51Z</time>
      </trkpt>
      <trkpt lat="47.44568" lon="-0.57005">
        <ele>41.4</ele>
        <time>2021-07-04T05:05:52Z</time>
      </trkpt>
      <trkpt lat="47.44564" lon="-0.5701">
        <ele>41.6</ele>
        <time>2021-07-04T05:05:54Z</time>
      </trkpt>
      <trkpt lat="47.4456" lon="-0.57012">
        <ele>41.4</ele>
        <time>2021-07-04T05:05:55Z</time>
      </trkpt>
      <trkpt lat="47.44556" lon="-0.57014">
        <ele>41</ele>
        <time>2021-07-04T05:05:56Z</time>
      </trkpt>
      <trkpt lat="47.44549" lon="-0.57018">
        <ele>41</ele>
        <time>2021-07-04T05:05:58Z</time>
      </trkpt>
      <trkpt lat="47.44545" lon="-0.57021">
        <ele>41</ele>
        <time>2021-07-04T05:05:59Z</time>
      </trkpt>
      <trkpt lat="47.44541" lon="-0.57025">
        <ele>41</ele>
        <time>2021-07-04T05:06:00Z</time>
      </trkpt>
      <trkpt lat="47.44539" lon="-0.57031">
        <ele>41.2</ele>
        <time>2021-07-04T05:06:01Z</time>
      </trkpt>
      <trkpt lat="47.44539" lon="-0.57037">
        <ele>41.4</ele>
        <time>2021-07-04T05:06:02Z</time>
      </trkpt>
      <trkpt lat="47.44542" lon="-0.57051">
        <ele>41.4</ele>
        <time>2021-07-04T05:06:04Z</time>
      </trkpt>
      <trkpt lat="47.44547" lon="-0.57062">
        <ele>41.6</ele>
        <time>2021-07-04T05:06:06Z</time>
      </trkpt>
      <trkpt lat="47.44552" lon="-0.57074">
        <ele>41.8</ele>
        <time>2021-07-04T05:06:08Z</time>
      </trkpt>
      <trkpt lat="47.44557" lon="-0.57087">
        <ele>41.6</ele>
        <time>2021-07-04T05:06:10Z</time>
      </trkpt>
      <trkpt lat="47.44562" lon="-0.571">
        <ele>41.8</ele>
        <time>2021-07-04T05:06:12Z</time>
      </trkpt>
      <trkpt lat="47.44567" lon="-0.57113">
        <ele>41.8</ele>
        <time>2021-07-04T05:06:14Z</time>
      </trkpt>
      <trkpt lat="47.44571" lon="-0.57126">
        <ele>41.8</ele>
        <time>2021-07-04T05:06:16Z</time>
      </trkpt>
      <trkpt lat="47.44575" lon="-0.57139">
        <ele>41.8</ele>
        <time>2021-07-04T05:06:18Z</time>
      </trkpt>
      <trkpt lat="47.44578" lon="-0.57151">
        <ele>42</ele>
        <time>2021-07-04T05:06:20Z</time>
      </trkpt>
      <trkpt lat="47.4458" lon="-0.57158">
        <ele>42.2</ele>
        <time>2021-07-04T05:06:21Z</time>
      </trkpt>
      <trkpt lat="47.44582" lon="-0.57165">
        <ele>42.4</ele>
        <time>2021-07-04T05:06:22Z</time>
      </trkpt>
      <trkpt lat="47.44586" lon="-0.57178">
        <ele>42.6</ele>
        <time>2021-07-04T05:06:24Z</time>
      </trkpt>
      <trkpt lat="47.44588" lon="-0.57184">
        <ele>42.8</ele>
        <time>2021-07-04T05:06:25Z</time>
      </trkpt>
      <trkpt lat="47.44591" lon="-0.57189">
        <ele>42.8</ele>
        <time>2021-07-04T05:06:26Z</time>
      </trkpt>
      <trkpt lat="47.44599" lon="-0.57196">
        <ele>43</ele>
        <time>2021-07-04T05:06:28Z</time>
      </trkpt>
      <trkpt lat="47.44608" lon="-0.57196">
        <ele>43</ele>
        <time>2021-07-04T05:06:30Z</time>
      </trkpt>
      <trkpt lat="47.44613" lon="-0.57193">
        <ele>43</ele>
        <time>2021-07-04T05:06:31Z</time>
      </trkpt>
      <trkpt lat="47.44618" lon="-0.5719">
        <ele>43</ele>
        <time>2021-07-04T05:06:32Z</time>
      </trkpt>
      <trkpt lat="47.44627" lon="-0.57184">
        <ele>42.4</ele>
        <time>2021-07-04T05:06:34Z</time>
      </trkpt>
      <trkpt lat="47.44636" lon="-0.57179">
        <ele>42.4</ele>
        <time>2021-07-04T05:06:36Z</time>
      </trkpt>
      <trkpt lat="47.44644" lon="-0.57174">
        <ele>42.6</ele>
        <time>2021-07-04T05:06:38Z</time>
      </trkpt>
      <trkpt lat="47.44653" lon="-0.57175">
        <ele>42.4</ele>
        <time>2021-07-04T05:06:40Z</time>
      </trkpt>
      <trkpt lat="47.44658" lon="-0.57178">
        <ele>42.6</ele>
        <time>2021-07-04T05:06:41Z</time>
      </trkpt>
      <trkpt lat="47.44661" lon="-0.57182">
        <ele>42.6</ele>
        <time>2021-07-04T05:06:42Z</time>
      </trkpt>
      <trkpt lat="47.44668" lon="-0.57192">
        <ele>42.6</ele>
        <time>2021-07-04T05:06:44Z</time>
      </trkpt>
      <trkpt lat="47.44671" lon="-0.57198">
        <ele>42.6</ele>
        <time>2021-07-04T05:06:45Z</time>
      </trkpt>
      <trkpt lat="47.44673" lon="-0.57205">
        <ele>42.6</ele>
        <time>2021-07-04T05:06:46Z</time>
      </trkpt>
      <trkpt lat="47.44674" lon="-0.57213">
        <ele>42.6</ele>
        <time>2021-07-04T05:06:47Z</time>
      </trkpt>
      <trkpt lat="47.44676" lon="-0.5722">
        <ele>42.6</ele>
        <time>2021-07-04T05:06:48Z</time>
      </trkpt>
      <trkpt lat="47.4468" lon="-0.57233">
        <ele>43</ele>
        <time>2021-07-04T05:06:50Z</time>
      </trkpt>
      <trkpt lat="47.44682" lon="-0.5724">
        <ele>43</ele>
        <time>2021-07-04T05:06:51Z</time>
      </trkpt>
      <trkpt lat="47.44684" lon="-0.57246">
        <ele>43</ele>
        <time>2021-07-04T05:06:52Z</time>
      </trkpt>
      <trkpt lat="47.44688" lon="-0.57259">
        <ele>43.2</ele>
        <time>2021-07-04T05:06:54Z</time>
      </trkpt>
      <trkpt lat="47.4469" lon="-0.57266">
        <ele>43.4</ele>
        <time>2021-07-04T05:06:55Z</time>
      </trkpt>
      <trkpt lat="47.44692" lon="-0.57272">
        <ele>43.6</ele>
        <time>2021-07-04T05:06:56Z</time>
      </trkpt>
      <trkpt lat="47.44696" lon="-0.57285">
        <ele>43.6</ele>
        <time>2021-07-04T05:06:58Z</time>
      </trkpt>
      <trkpt lat="47.44698" lon="-0.57292">
        <ele>43.8</ele>
        <time>2021-07-04T05:06:59Z</time>
      </trkpt>
      <trkpt lat="47.447" lon="-0.57298">
        <ele>43.8</ele>
        <time>2021-07-04T05:07:00Z</time>
      </trkpt>
      <trkpt lat="47.44704" lon="-0.57311">
        <ele>44.2</ele>
        <time>2021-07-04T05:07:02Z</time>
      </trkpt>
      <trkpt lat="47.44706" lon="-0.57316">
        <ele>44.2</ele>
        <time>2021-07-04T05:07:03Z</time>
      </trkpt>
      <trkpt lat="47.44709" lon="-0.57322">
        <ele>44.4</ele>
        <time>2021-07-04T05:07:04Z</time>
      </trkpt>
      <trkpt lat="47.44711" lon="-0.57329">
        <ele>44.4</ele>
        <time>2021-07-04T05:07:05Z</time>
      </trkpt>
      <trkpt lat="47.44713" lon="-0.57334">
        <ele>44.6</ele>
        <time>2021-07-04T05:07:06Z</time>
      </trkpt>
      <trkpt lat="47.44718" lon="-0.57347">
        <ele>44.6</ele>
        <time>2021-07-04T05:07:08Z</time>
      </trkpt>
      <trkpt lat="47.44723" lon="-0.57358">
        <ele>44.6</ele>
        <time>2021-07-04T05:07:10Z</time>
      </trkpt>
      <trkpt lat="47.44729" lon="-0.5737">
        <ele>45</ele>
        <time>2021-07-04T05:07:12Z</time>
      </trkpt>
      <trkpt lat="47.44733" lon="-0.57382">
        <ele>45</ele>
        <time>2021-07-04T05:07:14Z</time>
      </trkpt>
      <trkpt lat="47.44735" lon="-0.57387">
        <ele>45</ele>
        <time>2021-07-04T05:07:15Z</time>
      </trkpt>
      <trkpt lat="47.44737" lon="-0.57393">
        <ele>45.4</ele>
        <time>2021-07-04T05:07:16Z</time>
      </trkpt>
      <trkpt lat="47.44739" lon="-0.57398">
        <ele>45.6</ele>
        <time>2021-07-04T05:07:17Z</time>
      </trkpt>
      <trkpt lat="47.44741" lon="-0.57404">
        <ele>46</ele>
        <time>2021-07-04T05:07:18Z</time>
      </trkpt>
      <trkpt lat="47.44744" lon="-0.57414">
        <ele>46.6</ele>
        <time>2021-07-04T05:07:20Z</time>
      </trkpt>
      <trkpt lat="47.44745" lon="-0.57419">
        <ele>46.8</ele>
        <time>2021-07-04T05:07:21Z</time>
      </trkpt>
      <trkpt lat="47.44747" lon="-0.57423">
        <ele>47</ele>
        <time>2021-07-04T05:07:22Z</time>
      </trkpt>
      <trkpt lat="47.44749" lon="-0.57427">
        <ele>47.4</ele>
        <time>2021-07-04T05:07:24Z</time>
      </trkpt>
      <trkpt lat="47.4475" lon="-0.5743">
        <ele>47.4</ele>
        <time>2021-07-04T05:07:25Z</time>
      </trkpt>
      <trkpt lat="47.4475" lon="-0.57434">
        <ele>47.6</ele>
        <time>2021-07-04T05:07:26Z</time>
      </trkpt>
      <trkpt lat="47.44748" lon="-0.57439">
        <ele>47.6</ele>
        <time>2021-07-04T05:07:27Z</time>
      </trkpt>
      <trkpt lat="47.44746" lon="-0.57443">
        <ele>47.4</ele>
        <time>2021-07-04T05:07:28Z</time>
      </trkpt>
      <trkpt lat="47.44739" lon="-0.57452">
        <ele>47.2</ele>
        <time>2021-07-04T05:07:30Z</time>
      </trkpt>
      <trkpt lat="47.44736" lon="-0.57456">
        <ele>47</ele>
        <time>2021-07-04T05:07:31Z</time>
      </trkpt>
      <trkpt lat="47.44732" lon="-0.5746">
        <ele>46.8</ele>
        <time>2021-07-04T05:07:32Z</time>
      </trkpt>
      <trkpt lat="47.44723" lon="-0.57467">
        <ele>46.6</ele>
        <time>2021-07-04T05:07:34Z</time>
      </trkpt>
      <trkpt lat="47.44715" lon="-0.57474">
        <ele>46.6</ele>
        <time>2021-07-04T05:07:36Z</time>
      </trkpt>
      <trkpt lat="47.44706" lon="-0.57482">
        <ele>46.6</ele>
        <time>2021-07-04T05:07:38Z</time>
      </trkpt>
      <trkpt lat="47.44697" lon="-0.57489">
        <ele>46.6</ele>
        <time>2021-07-04T05:07:40Z</time>
      </trkpt>
      <trkpt lat="47.44688" lon="-0.57498">
        <ele>46.4</ele>
        <time>2021-07-04T05:07:42Z</time>
      </trkpt>
      <trkpt lat="47.44679" lon="-0.57507">
        <ele>46.2</ele>
        <time>2021-07-04T05:07:44Z</time>
      </trkpt>
      <trkpt lat="47.4467" lon="-0.57515">
        <ele>46.6</ele>
        <time>2021-07-04T05:07:46Z</time>
      </trkpt>
      <trkpt lat="47.4466" lon="-0.57523">
        <ele>46.8</ele>
        <time>2021-07-04T05:07:48Z</time>
      </trkpt>
      <trkpt lat="47.44655" lon="-0.57527">
        <ele>46.8</ele>
        <time>2021-07-04T05:07:49Z</time>
      </trkpt>
      <trkpt lat="47.44651" lon="-0.57531">
        <ele>46.6</ele>
        <time>2021-07-04T05:07:50Z</time>
      </trkpt>
      <trkpt lat="47.44641" lon="-0.57539">
        <ele>46.6</ele>
        <time>2021-07-04T05:07:52Z</time>
      </trkpt>
      <trkpt lat="47.44632" lon="-0.57547">
        <ele>46.8</ele>
        <time>2021-07-04T05:07:54Z</time>
      </trkpt>
      <trkpt lat="47.44623" lon="-0.57554">
        <ele>47.2</ele>
        <time>2021-07-04T05:07:56Z</time>
      </trkpt>
      <trkpt lat="47.44614" lon="-0.57562">
        <ele>47.4</ele>
        <time>2021-07-04T05:07:58Z</time>
      </trkpt>
      <trkpt lat="47.44605" lon="-0.57569">
        <ele>47.4</ele>
        <time>2021-07-04T05:08:00Z</time>
      </trkpt>
      <trkpt lat="47.44596" lon="-0.57577">
        <ele>47.6</ele>
        <time>2021-07-04T05:08:02Z</time>
      </trkpt>
      <trkpt lat="47.44587" lon="-0.57585">
        <ele>47.6</ele>
        <time>2021-07-04T05:08:04Z</time>
      </trkpt>
      <trkpt lat="47.44579" lon="-0.57593">
        <ele>47.8</ele>
        <time>2021-07-04T05:08:06Z</time>
      </trkpt>
      <trkpt lat="47.4457" lon="-0.576">
        <ele>48</ele>
        <time>2021-07-04T05:08:08Z</time>
      </trkpt>
      <trkpt lat="47.44561" lon="-0.57607">
        <ele>48.2</ele>
        <time>2021-07-04T05:08:10Z</time>
      </trkpt>
      <trkpt lat="47.44552" lon="-0.57615">
        <ele>48.4</ele>
        <time>2021-07-04T05:08:12Z</time>
      </trkpt>
      <trkpt lat="47.44544" lon="-0.57622">
        <ele>48.6</ele>
        <time>2021-07-04T05:08:14Z</time>
      </trkpt>
      <trkpt lat="47.44535" lon="-0.57629">
        <ele>48.6</ele>
        <time>2021-07-04T05:08:16Z</time>
      </trkpt>
      <trkpt lat="47.44526" lon="-0.57636">
        <ele>48.8</ele>
        <time>2021-07-04T05:08:18Z</time>
      </trkpt>
      <trkpt lat="47.44518" lon="-0.57643">
        <ele>49</ele>
        <time>2021-07-04T05:08:20Z</time>
      </trkpt>
      <trkpt lat="47.44511" lon="-0.5765">
        <ele>49</ele>
        <time>2021-07-04T05:08:22Z</time>
      </trkpt>
      <trkpt lat="47.44509" lon="-0.57656">
        <ele>48.8</ele>
        <time>2021-07-04T05:08:23Z</time>
      </trkpt>
      <trkpt lat="47.4451" lon="-0.57662">
        <ele>49</ele>
        <time>2021-07-04T05:08:24Z</time>
      </trkpt>
      <trkpt lat="47.44514" lon="-0.57674">
        <ele>49.6</ele>
        <time>2021-07-04T05:08:26Z</time>
      </trkpt>
      <trkpt lat="47.44519" lon="-0.57685">
        <ele>50</ele>
        <time>2021-07-04T05:08:28Z</time>
      </trkpt>
      <trkpt lat="47.44522" lon="-0.5769">
        <ele>50.2</ele>
        <time>2021-07-04T05:08:29Z</time>
      </trkpt>
      <trkpt lat="47.44524" lon="-0.57696">
        <ele>50.2</ele>
        <time>2021-07-04T05:08:30Z</time>
      </trkpt>
      <trkpt lat="47.44529" lon="-0.57708">
        <ele>50.4</ele>
        <time>2021-07-04T05:08:32Z</time>
      </trkpt>
      <trkpt lat="47.44532" lon="-0.57713">
        <ele>50.4</ele>
        <time>2021-07-04T05:08:33Z</time>
      </trkpt>
      <trkpt lat="47.44534" lon="-0.57719">
        <ele>50.6</ele>
        <time>2021-07-04T05:08:34Z</time>
      </trkpt>
      <trkpt lat="47.44538" lon="-0.57731">
        <ele>50.6</ele>
        <time>2021-07-04T05:08:36Z</time>
      </trkpt>
      <trkpt lat="47.44543" lon="-0.57742">
        <ele>50.6</ele>
        <time>2021-07-04T05:08:38Z</time>
      </trkpt>
      <trkpt lat="47.44548" lon="-0.57752">
        <ele>50.8</ele>
        <time>2021-07-04T05:08:40Z</time>
      </trkpt>
      <trkpt lat="47.4455" lon="-0.57758">
        <ele>50.8</ele>
        <time>2021-07-04T05:08:41Z</time>
      </trkpt>
      <trkpt lat="47.4455" lon="-0.57764">
        <ele>50.6</ele>
        <time>2021-07-04T05:08:42Z</time>
      </trkpt>
      <trkpt lat="47.44549" lon="-0.57769">
        <ele>50.6</ele>
        <time>2021-07-04T05:08:43Z</time>
      </trkpt>
      <trkpt lat="47.44546" lon="-0.57774">
        <ele>50.4</ele>
        <time>2021-07-04T05:08:44Z</time>
      </trkpt>
      <trkpt lat="47.44539" lon="-0.57781">
        <ele>50.4</ele>
        <time>2021-07-04T05:08:46Z</time>
      </trkpt>
      <trkpt lat="47.44534" lon="-0.57787">
        <ele>50.4</ele>
        <time>2021-07-04T05:08:48Z</time>
      </trkpt>
      <trkpt lat="47.44529" lon="-0.57791">
        <ele>50.6</ele>
        <time>2021-07-04T05:08:50Z</time>
      </trkpt>
      <trkpt lat="47.44528" lon="-0.57794">
        <ele>50.8</ele>
        <time>2021-07-04T05:08:51Z</time>
      </trkpt>
      <trkpt lat="47.44528" lon="-0.57798">
        <ele>50.8</ele>
        <time>2021-07-04T05:08:52Z</time>
      </trkpt>
      <trkpt lat="47.44531" lon="-0.57807">
        <ele>50.6</ele>
        <time>2021-07-04T05:08:54Z</time>
      </trkpt>
      <trkpt lat="47.44535" lon="-0.57818">
        <ele>50.4</ele>
        <time>2021-07-04T05:08:56Z</time>
      </trkpt>
      <trkpt lat="47.4454" lon="-0.5783">
        <ele>50.4</ele>
        <time>2021-07-04T05:08:58Z</time>
      </trkpt>
      <trkpt lat="47.44544" lon="-0.57845">
        <ele>49.8</ele>
        <time>2021-07-04T05:09:00Z</time>
      </trkpt>
      <trkpt lat="47.4455" lon="-0.5786">
        <ele>49.6</ele>
        <time>2021-07-04T05:09:02Z</time>
      </trkpt>
      <trkpt lat="47.44555" lon="-0.57874">
        <ele>49.2</ele>
        <time>2021-07-04T05:09:04Z</time>
      </trkpt>
      <trkpt lat="47.4456" lon="-0.57888">
        <ele>49.2</ele>
        <time>2021-07-04T05:09:06Z</time>
      </trkpt>
      <trkpt lat="47.44566" lon="-0.579">
        <ele>49.2</ele>
        <time>2021-07-04T05:09:08Z</time>
      </trkpt>
      <trkpt lat="47.44568" lon="-0.57906">
        <ele>49</ele>
        <time>2021-07-04T05:09:09Z</time>
      </trkpt>
      <trkpt lat="47.44571" lon="-0.57912">
        <ele>49.2</ele>
        <time>2021-07-04T05:09:10Z</time>
      </trkpt>
      <trkpt lat="47.44574" lon="-0.57917">
        <ele>49.4</ele>
        <time>2021-07-04T05:09:11Z</time>
      </trkpt>
      <trkpt lat="47.44576" lon="-0.57921">
        <ele>49.6</ele>
        <time>2021-07-04T05:09:12Z</time>
      </trkpt>
      <trkpt lat="47.44581" lon="-0.5793">
        <ele>50</ele>
        <time>2021-07-04T05:09:14Z</time>
      </trkpt>
      <trkpt lat="47.44582" lon="-0.57935">
        <ele>49.8</ele>
        <time>2021-07-04T05:09:15Z</time>
      </trkpt>
      <trkpt lat="47.4458" lon="-0.57941">
        <ele>49.4</ele>
        <time>2021-07-04T05:09:16Z</time>
      </trkpt>
      <trkpt lat="47.44573" lon="-0.57951">
        <ele>48.6</ele>
        <time>2021-07-04T05:09:18Z</time>
      </trkpt>
      <trkpt lat="47.44568" lon="-0.57954">
        <ele>48.4</ele>
        <time>2021-07-04T05:09:19Z</time>
      </trkpt>
      <trkpt lat="47.44564" lon="-0.57958">
        <ele>48</ele>
        <time>2021-07-04T05:09:20Z</time>
      </trkpt>
      <trkpt lat="47.44559" lon="-0.57962">
        <ele>48</ele>
        <time>2021-07-04T05:09:21Z</time>
      </trkpt>
      <trkpt lat="47.44554" lon="-0.57966">
        <ele>48</ele>
        <time>2021-07-04T05:09:22Z</time>
      </trkpt>
      <trkpt lat="47.44545" lon="-0.57977">
        <ele>47.6</ele>
        <time>2021-07-04T05:09:24Z</time>
      </trkpt>
      <trkpt lat="47.44536" lon="-0.57991">
        <ele>47.6</ele>
        <time>2021-07-04T05:09:26Z</time>
      </trkpt>
      <trkpt lat="47.44527" lon="-0.58004">
        <ele>47.4</ele>
        <time>2021-07-04T05:09:28Z</time>
      </trkpt>
      <trkpt lat="47.44518" lon="-0.58017">
        <ele>47.4</ele>
        <time>2021-07-04T05:09:30Z</time>
      </trkpt>
      <trkpt lat="47.44514" lon="-0.58024">
        <ele>47.4</ele>
        <time>2021-07-04T05:09:31Z</time>
      </trkpt>
      <trkpt lat="47.4451" lon="-0.58031">
        <ele>47.2</ele>
        <time>2021-07-04T05:09:32Z</time>
      </trkpt>
      <trkpt lat="47.44501" lon="-0.58044">
        <ele>47</ele>
        <time>2021-07-04T05:09:34Z</time>
      </trkpt>
      <trkpt lat="47.44492" lon="-0.58058">
        <ele>47</ele>
        <time>2021-07-04T05:09:36Z</time>
      </trkpt>
      <trkpt lat="47.44484" lon="-0.58071">
        <ele>47.4</ele>
        <time>2021-07-04T05:09:38Z</time>
      </trkpt>
      <trkpt lat="47.44475" lon="-0.58083">
        <ele>47.2</ele>
        <time>2021-07-04T05:09:40Z</time>
      </trkpt>
      <trkpt lat="47.4447" lon="-0.58089">
        <ele>47.2</ele>
        <time>2021-07-04T05:09:41Z</time>
      </trkpt>
      <trkpt lat="47.44465" lon="-0.58095">
        <ele>47</ele>
        <time>2021-07-04T05:09:42Z</time>
      </trkpt>
      <trkpt lat="47.4446" lon="-0.581">
        <ele>47</ele>
        <time>2021-07-04T05:09:43Z</time>
      </trkpt>
      <trkpt lat="47.44456" lon="-0.58105">
        <ele>47</ele>
        <time>2021-07-04T05:09:44Z</time>
      </trkpt>
      <trkpt lat="47.44446" lon="-0.58114">
        <ele>47</ele>
        <time>2021-07-04T05:09:46Z</time>
      </trkpt>
      <trkpt lat="47.44441" lon="-0.5812">
        <ele>47.4</ele>
        <time>2021-07-04T05:09:47Z</time>
      </trkpt>
      <trkpt lat="47.44436" lon="-0.58125">
        <ele>47.4</ele>
        <time>2021-07-04T05:09:48Z</time>
      </trkpt>
      <trkpt lat="47.44425" lon="-0.58138">
        <ele>47.2</ele>
        <time>2021-07-04T05:09:50Z</time>
      </trkpt>
      <trkpt lat="47.44416" lon="-0.58151">
        <ele>46.6</ele>
        <time>2021-07-04T05:09:52Z</time>
      </trkpt>
      <trkpt lat="47.44411" lon="-0.58159">
        <ele>46.4</ele>
        <time>2021-07-04T05:09:53Z</time>
      </trkpt>
      <trkpt lat="47.44407" lon="-0.58167">
        <ele>46.2</ele>
        <time>2021-07-04T05:09:54Z</time>
      </trkpt>
      <trkpt lat="47.44398" lon="-0.58183">
        <ele>45.8</ele>
        <time>2021-07-04T05:09:56Z</time>
      </trkpt>
      <trkpt lat="47.44389" lon="-0.58199">
        <ele>45.2</ele>
        <time>2021-07-04T05:09:58Z</time>
      </trkpt>
      <trkpt lat="47.44384" lon="-0.58207">
        <ele>45</ele>
        <time>2021-07-04T05:09:59Z</time>
      </trkpt>
      <trkpt lat="47.4438" lon="-0.58215">
        <ele>44.6</ele>
        <time>2021-07-04T05:10:00Z</time>
      </trkpt>
      <trkpt lat="47.44375" lon="-0.58223">
        <ele>44.4</ele>
        <time>2021-07-04T05:10:01Z</time>
      </trkpt>
      <trkpt lat="47.44371" lon="-0.58232">
        <ele>44.4</ele>
        <time>2021-07-04T05:10:02Z</time>
      </trkpt>
      <trkpt lat="47.44361" lon="-0.58248">
        <ele>44.2</ele>
        <time>2021-07-04T05:10:04Z</time>
      </trkpt>
      <trkpt lat="47.44352" lon="-0.58263">
        <ele>44.8</ele>
        <time>2021-07-04T05:10:06Z</time>
      </trkpt>
      <trkpt lat="47.44342" lon="-0.58278">
        <ele>43.4</ele>
        <time>2021-07-04T05:10:08Z</time>
      </trkpt>
      <trkpt lat="47.44337" lon="-0.58284">
        <ele>43.2</ele>
        <time>2021-07-04T05:10:09Z</time>
      </trkpt>
      <trkpt lat="47.44331" lon="-0.58291">
        <ele>42.8</ele>
        <time>2021-07-04T05:10:10Z</time>
      </trkpt>
      <trkpt lat="47.44319" lon="-0.58303">
        <ele>42.4</ele>
        <time>2021-07-04T05:10:12Z</time>
      </trkpt>
      <trkpt lat="47.44307" lon="-0.58314">
        <ele>42</ele>
        <time>2021-07-04T05:10:14Z</time>
      </trkpt>
      <trkpt lat="47.44301" lon="-0.58318">
        <ele>42.2</ele>
        <time>2021-07-04T05:10:15Z</time>
      </trkpt>
      <trkpt lat="47.44295" lon="-0.58323">
        <ele>42.2</ele>
        <time>2021-07-04T05:10:16Z</time>
      </trkpt>
      <trkpt lat="47.44283" lon="-0.58333">
        <ele>42.4</ele>
        <time>2021-07-04T05:10:18Z</time>
      </trkpt>
      <trkpt lat="47.44272" lon="-0.58341">
        <ele>42.2</ele>
        <time>2021-07-04T05:10:20Z</time>
      </trkpt>
      <trkpt lat="47.44261" lon="-0.58348">
        <ele>42</ele>
        <time>2021-07-04T05:10:22Z</time>
      </trkpt>
      <trkpt lat="47.44257" lon="-0.58354">
        <ele>42.2</ele>
        <time>2021-07-04T05:10:23Z</time>
      </trkpt>
      <trkpt lat="47.44256" lon="-0.58363">
        <ele>42.2</ele>
        <time>2021-07-04T05:10:24Z</time>
      </trkpt>
      <trkpt lat="47.44258" lon="-0.5838">
        <ele>42.4</ele>
        <time>2021-07-04T05:10:26Z</time>
      </trkpt>
      <trkpt lat="47.4426" lon="-0.58388">
        <ele>42.4</ele>
        <time>2021-07-04T05:10:27Z</time>
      </trkpt>
      <trkpt lat="47.44262" lon="-0.58396">
        <ele>42.4</ele>
        <time>2021-07-04T05:10:28Z</time>
      </trkpt>
      <trkpt lat="47.44266" lon="-0.58412">
        <ele>42.4</ele>
        <time>2021-07-04T05:10:30Z</time>
      </trkpt>
      <trkpt lat="47.44269" lon="-0.58428">
        <ele>42.6</ele>
        <time>2021-07-04T05:10:32Z</time>
      </trkpt>
      <trkpt lat="47.44272" lon="-0.58445">
        <ele>42.8</ele>
        <time>2021-07-04T05:10:34Z</time>
      </trkpt>
      <trkpt lat="47.44275" lon="-0.58461">
        <ele>42.8</ele>
        <time>2021-07-04T05:10:36Z</time>
      </trkpt>
      <trkpt lat="47.44278" lon="-0.58477">
        <ele>42.4</ele>
        <time>2021-07-04T05:10:38Z</time>
      </trkpt>
      <trkpt lat="47.44282" lon="-0.58493">
        <ele>42.4</ele>
        <time>2021-07-04T05:10:40Z</time>
      </trkpt>
      <trkpt lat="47.44284" lon="-0.585">
        <ele>42.6</ele>
        <time>2021-07-04T05:10:41Z</time>
      </trkpt>
      <trkpt lat="47.44286" lon="-0.58507">
        <ele>42.6</ele>
        <time>2021-07-04T05:10:42Z</time>
      </trkpt>
      <trkpt lat="47.4429" lon="-0.5852">
        <ele>42.6</ele>
        <time>2021-07-04T05:10:44Z</time>
      </trkpt>
      <trkpt lat="47.44294" lon="-0.58534">
        <ele>42.6</ele>
        <time>2021-07-04T05:10:46Z</time>
      </trkpt>
      <trkpt lat="47.44298" lon="-0.58548">
        <ele>42</ele>
        <time>2021-07-04T05:10:48Z</time>
      </trkpt>
      <trkpt lat="47.44301" lon="-0.58555">
        <ele>41.2</ele>
        <time>2021-07-04T05:10:49Z</time>
      </trkpt>
      <trkpt lat="47.44304" lon="-0.58563">
        <ele>41</ele>
        <time>2021-07-04T05:10:50Z</time>
      </trkpt>
      <trkpt lat="47.4431" lon="-0.58582">
        <ele>40.4</ele>
        <time>2021-07-04T05:10:52Z</time>
      </trkpt>
      <trkpt lat="47.44313" lon="-0.58593">
        <ele>40</ele>
        <time>2021-07-04T05:10:53Z</time>
      </trkpt>
      <trkpt lat="47.44316" lon="-0.58604">
        <ele>39.4</ele>
        <time>2021-07-04T05:10:54Z</time>
      </trkpt>
      <trkpt lat="47.44318" lon="-0.58616">
        <ele>38.8</ele>
        <time>2021-07-04T05:10:55Z</time>
      </trkpt>
      <trkpt lat="47.4432" lon="-0.58629">
        <ele>38</ele>
        <time>2021-07-04T05:10:56Z</time>
      </trkpt>
      <trkpt lat="47.44323" lon="-0.58642">
        <ele>37.2</ele>
        <time>2021-07-04T05:10:57Z</time>
      </trkpt>
      <trkpt lat="47.44324" lon="-0.58655">
        <ele>36.8</ele>
        <time>2021-07-04T05:10:58Z</time>
      </trkpt>
      <trkpt lat="47.44327" lon="-0.58681">
        <ele>36</ele>
        <time>2021-07-04T05:11:00Z</time>
      </trkpt>
      <trkpt lat="47.4433" lon="-0.58707">
        <ele>34.4</ele>
        <time>2021-07-04T05:11:02Z</time>
      </trkpt>
      <trkpt lat="47.44333" lon="-0.58734">
        <ele>33.4</ele>
        <time>2021-07-04T05:11:04Z</time>
      </trkpt>
      <trkpt lat="47.44336" lon="-0.58762">
        <ele>32.4</ele>
        <time>2021-07-04T05:11:06Z</time>
      </trkpt>
      <trkpt lat="47.44338" lon="-0.58776">
        <ele>31.8</ele>
        <time>2021-07-04T05:11:07Z</time>
      </trkpt>
      <trkpt lat="47.4434" lon="-0.5879">
        <ele>31</ele>
        <time>2021-07-04T05:11:08Z</time>
      </trkpt>
      <trkpt lat="47.44346" lon="-0.58816">
        <ele>30.2</ele>
        <time>2021-07-04T05:11:10Z</time>
      </trkpt>
      <trkpt lat="47.4435" lon="-0.58843">
        <ele>30</ele>
        <time>2021-07-04T05:11:12Z</time>
      </trkpt>
      <trkpt lat="47.44352" lon="-0.58856">
        <ele>29.6</ele>
        <time>2021-07-04T05:11:13Z</time>
      </trkpt>
      <trkpt lat="47.44352" lon="-0.58868">
        <ele>29.8</ele>
        <time>2021-07-04T05:11:14Z</time>
      </trkpt>
      <trkpt lat="47.44354" lon="-0.58893">
        <ele>29.6</ele>
        <time>2021-07-04T05:11:16Z</time>
      </trkpt>
      <trkpt lat="47.44355" lon="-0.58917">
        <ele>29</ele>
        <time>2021-07-04T05:11:18Z</time>
      </trkpt>
      <trkpt lat="47.44356" lon="-0.5894">
        <ele>29.2</ele>
        <time>2021-07-04T05:11:20Z</time>
      </trkpt>
      <trkpt lat="47.44357" lon="-0.58964">
        <ele>29</ele>
        <time>2021-07-04T05:11:22Z</time>
      </trkpt>
      <trkpt lat="47.44358" lon="-0.58975">
        <ele>28.8</ele>
        <time>2021-07-04T05:11:23Z</time>
      </trkpt>
      <trkpt lat="47.44358" lon="-0.58986">
        <ele>28.6</ele>
        <time>2021-07-04T05:11:24Z</time>
      </trkpt>
      <trkpt lat="47.44358" lon="-0.59008">
        <ele>28.4</ele>
        <time>2021-07-04T05:11:26Z</time>
      </trkpt>
      <trkpt lat="47.44357" lon="-0.59028">
        <ele>28.2</ele>
        <time>2021-07-04T05:11:28Z</time>
      </trkpt>
      <trkpt lat="47.44357" lon="-0.59039">
        <ele>28</ele>
        <time>2021-07-04T05:11:29Z</time>
      </trkpt>
      <trkpt lat="47.44357" lon="-0.59049">
        <ele>28</ele>
        <time>2021-07-04T05:11:30Z</time>
      </trkpt>
      <trkpt lat="47.44357" lon="-0.5906">
        <ele>27.8</ele>
        <time>2021-07-04T05:11:31Z</time>
      </trkpt>
      <trkpt lat="47.44357" lon="-0.5907">
        <ele>27.6</ele>
        <time>2021-07-04T05:11:32Z</time>
      </trkpt>
      <trkpt lat="47.44356" lon="-0.59091">
        <ele>27.4</ele>
        <time>2021-07-04T05:11:34Z</time>
      </trkpt>
      <trkpt lat="47.44356" lon="-0.59101">
        <ele>27.4</ele>
        <time>2021-07-04T05:11:35Z</time>
      </trkpt>
      <trkpt lat="47.44356" lon="-0.59111">
        <ele>27.2</ele>
        <time>2021-07-04T05:11:36Z</time>
      </trkpt>
      <trkpt lat="47.44355" lon="-0.59132">
        <ele>26.8</ele>
        <time>2021-07-04T05:11:38Z</time>
      </trkpt>
      <trkpt lat="47.44355" lon="-0.59142">
        <ele>26.6</ele>
        <time>2021-07-04T05:11:39Z</time>
      </trkpt>
      <trkpt lat="47.44354" lon="-0.59153">
        <ele>26.4</ele>
        <time>2021-07-04T05:11:40Z</time>
      </trkpt>
      <trkpt lat="47.44354" lon="-0.59174">
        <ele>26.4</ele>
        <time>2021-07-04T05:11:42Z</time>
      </trkpt>
      <trkpt lat="47.44353" lon="-0.59195">
        <ele>26.4</ele>
        <time>2021-07-04T05:11:44Z</time>
      </trkpt>
      <trkpt lat="47.44353" lon="-0.59215">
        <ele>26.6</ele>
        <time>2021-07-04T05:11:46Z</time>
      </trkpt>
      <trkpt lat="47.44352" lon="-0.59235">
        <ele>26.4</ele>
        <time>2021-07-04T05:11:48Z</time>
      </trkpt>
      <trkpt lat="47.44352" lon="-0.59254">
        <ele>26.4</ele>
        <time>2021-07-04T05:11:50Z</time>
      </trkpt>
      <trkpt lat="47.44351" lon="-0.59274">
        <ele>26.6</ele>
        <time>2021-07-04T05:11:52Z</time>
      </trkpt>
      <trkpt lat="47.44351" lon="-0.59292">
        <ele>26.8</ele>
        <time>2021-07-04T05:11:54Z</time>
      </trkpt>
      <trkpt lat="47.44351" lon="-0.59311">
        <ele>27</ele>
        <time>2021-07-04T05:11:56Z</time>
      </trkpt>
      <trkpt lat="47.44352" lon="-0.5932">
        <ele>27</ele>
        <time>2021-07-04T05:11:57Z</time>
      </trkpt>
      <trkpt lat="47.44353" lon="-0.59328">
        <ele>27</ele>
        <time>2021-07-04T05:11:58Z</time>
      </trkpt>
      <trkpt lat="47.44354" lon="-0.59345">
        <ele>27.2</ele>
        <time>2021-07-04T05:12:00Z</time>
      </trkpt>
      <trkpt lat="47.44356" lon="-0.59361">
        <ele>27.6</ele>
        <time>2021-07-04T05:12:02Z</time>
      </trkpt>
      <trkpt lat="47.44358" lon="-0.59369">
        <ele>27.8</ele>
        <time>2021-07-04T05:12:03Z</time>
      </trkpt>
      <trkpt lat="47.44359" lon="-0.59377">
        <ele>28</ele>
        <time>2021-07-04T05:12:04Z</time>
      </trkpt>
      <trkpt lat="47.44361" lon="-0.59393">
        <ele>28.2</ele>
        <time>2021-07-04T05:12:06Z</time>
      </trkpt>
      <trkpt lat="47.44364" lon="-0.59408">
        <ele>28.2</ele>
        <time>2021-07-04T05:12:08Z</time>
      </trkpt>
      <trkpt lat="47.44368" lon="-0.59423">
        <ele>28.6</ele>
        <time>2021-07-04T05:12:10Z</time>
      </trkpt>
      <trkpt lat="47.44369" lon="-0.59431">
        <ele>28.6</ele>
        <time>2021-07-04T05:12:11Z</time>
      </trkpt>
      <trkpt lat="47.44371" lon="-0.59438">
        <ele>28.6</ele>
        <time>2021-07-04T05:12:12Z</time>
      </trkpt>
      <trkpt lat="47.44376" lon="-0.59453">
        <ele>28.8</ele>
        <time>2021-07-04T05:12:14Z</time>
      </trkpt>
      <trkpt lat="47.44381" lon="-0.59468">
        <ele>29.2</ele>
        <time>2021-07-04T05:12:16Z</time>
      </trkpt>
      <trkpt lat="47.44386" lon="-0.59482">
        <ele>29.4</ele>
        <time>2021-07-04T05:12:18Z</time>
      </trkpt>
      <trkpt lat="47.44389" lon="-0.59489">
        <ele>29.6</ele>
        <time>2021-07-04T05:12:19Z</time>
      </trkpt>
      <trkpt lat="47.44391" lon="-0.59496">
        <ele>29.8</ele>
        <time>2021-07-04T05:12:20Z</time>
      </trkpt>
      <trkpt lat="47.44396" lon="-0.5951">
        <ele>30.2</ele>
        <time>2021-07-04T05:12:22Z</time>
      </trkpt>
      <trkpt lat="47.44398" lon="-0.59517">
        <ele>30.4</ele>
        <time>2021-07-04T05:12:23Z</time>
      </trkpt>
      <trkpt lat="47.44401" lon="-0.59524">
        <ele>30.6</ele>
        <time>2021-07-04T05:12:24Z</time>
      </trkpt>
      <trkpt lat="47.44403" lon="-0.5953">
        <ele>31.4</ele>
        <time>2021-07-04T05:12:25Z</time>
      </trkpt>
      <trkpt lat="47.44405" lon="-0.59536">
        <ele>31.6</ele>
        <time>2021-07-04T05:12:26Z</time>
      </trkpt>
      <trkpt lat="47.44408" lon="-0.59542">
        <ele>31.8</ele>
        <time>2021-07-04T05:12:27Z</time>
      </trkpt>
      <trkpt lat="47.4441" lon="-0.59549">
        <ele>31.6</ele>
        <time>2021-07-04T05:12:28Z</time>
      </trkpt>
      <trkpt lat="47.44414" lon="-0.59563">
        <ele>31.8</ele>
        <time>2021-07-04T05:12:30Z</time>
      </trkpt>
      <trkpt lat="47.44419" lon="-0.59577">
        <ele>31.8</ele>
        <time>2021-07-04T05:12:32Z</time>
      </trkpt>
      <trkpt lat="47.44423" lon="-0.5959">
        <ele>31.8</ele>
        <time>2021-07-04T05:12:34Z</time>
      </trkpt>
      <trkpt lat="47.44427" lon="-0.59604">
        <ele>32.2</ele>
        <time>2021-07-04T05:12:36Z</time>
      </trkpt>
      <trkpt lat="47.44431" lon="-0.59618">
        <ele>32.4</ele>
        <time>2021-07-04T05:12:38Z</time>
      </trkpt>
      <trkpt lat="47.44433" lon="-0.59623">
        <ele>32.4</ele>
        <time>2021-07-04T05:12:39Z</time>
      </trkpt>
      <trkpt lat="47.44434" lon="-0.59631">
        <ele>32.4</ele>
        <time>2021-07-04T05:12:40Z</time>
      </trkpt>
      <trkpt lat="47.44438" lon="-0.59644">
        <ele>32.4</ele>
        <time>2021-07-04T05:12:42Z</time>
      </trkpt>
      <trkpt lat="47.44442" lon="-0.59657">
        <ele>32.8</ele>
        <time>2021-07-04T05:12:44Z</time>
      </trkpt>
      <trkpt lat="47.44446" lon="-0.59671">
        <ele>32.6</ele>
        <time>2021-07-04T05:12:46Z</time>
      </trkpt>
      <trkpt lat="47.4445" lon="-0.59685">
        <ele>33</ele>
        <time>2021-07-04T05:12:48Z</time>
      </trkpt>
      <trkpt lat="47.44454" lon="-0.59699">
        <ele>33</ele>
        <time>2021-07-04T05:12:50Z</time>
      </trkpt>
      <trkpt lat="47.44457" lon="-0.5971">
        <ele>33.2</ele>
        <time>2021-07-04T05:12:52Z</time>
      </trkpt>
      <trkpt lat="47.44459" lon="-0.59722">
        <ele>33.2</ele>
        <time>2021-07-04T05:12:54Z</time>
      </trkpt>
      <trkpt lat="47.44462" lon="-0.59731">
        <ele>33.4</ele>
        <time>2021-07-04T05:12:56Z</time>
      </trkpt>
      <trkpt lat="47.44469" lon="-0.59727">
        <ele>34</ele>
        <time>2021-07-04T05:12:58Z</time>
      </trkpt>
      <trkpt lat="47.44473" lon="-0.5972">
        <ele>25.2</ele>
        <time>2021-07-04T05:13:38Z</time>
      </trkpt>
      <trkpt lat="47.44478" lon="-0.59712">
        <ele>25</ele>
        <time>2021-07-04T05:13:39Z</time>
      </trkpt>
      <trkpt lat="47.44482" lon="-0.59708">
        <ele>24.8</ele>
        <time>2021-07-04T05:13:40Z</time>
      </trkpt>
      <trkpt lat="47.44486" lon="-0.59704">
        <ele>24.6</ele>
        <time>2021-07-04T05:13:41Z</time>
      </trkpt>
      <trkpt lat="47.4449" lon="-0.59699">
        <ele>24.4</ele>
        <time>2021-07-04T05:13:42Z</time>
      </trkpt>
      <trkpt lat="47.44494" lon="-0.59694">
        <ele>24.2</ele>
        <time>2021-07-04T05:13:43Z</time>
      </trkpt>
      <trkpt lat="47.44498" lon="-0.59691">
        <ele>24.2</ele>
        <time>2021-07-04T05:13:44Z</time>
      </trkpt>
      <trkpt lat="47.44507" lon="-0.59685">
        <ele>24.4</ele>
        <time>2021-07-04T05:13:46Z</time>
      </trkpt>
      <trkpt lat="47.44516" lon="-0.59681">
        <ele>24.2</ele>
        <time>2021-07-04T05:13:48Z</time>
      </trkpt>
      <trkpt lat="47.4452" lon="-0.59678">
        <ele>24.2</ele>
        <time>2021-07-04T05:13:49Z</time>
      </trkpt>
      <trkpt lat="47.44525" lon="-0.59675">
        <ele>24.2</ele>
        <time>2021-07-04T05:13:50Z</time>
      </trkpt>
      <trkpt lat="47.44534" lon="-0.59663">
        <ele>24</ele>
        <time>2021-07-04T05:13:52Z</time>
      </trkpt>
      <trkpt lat="47.44545" lon="-0.59652">
        <ele>24.2</ele>
        <time>2021-07-04T05:13:54Z</time>
      </trkpt>
      <trkpt lat="47.44556" lon="-0.59642">
        <ele>24.2</ele>
        <time>2021-07-04T05:13:56Z</time>
      </trkpt>
      <trkpt lat="47.44568" lon="-0.59636">
        <ele>24.4</ele>
        <time>2021-07-04T05:13:58Z</time>
      </trkpt>
      <trkpt lat="47.44579" lon="-0.59628">
        <ele>23.8</ele>
        <time>2021-07-04T05:14:00Z</time>
      </trkpt>
      <trkpt lat="47.44589" lon="-0.5962">
        <ele>23.4</ele>
        <time>2021-07-04T05:14:02Z</time>
      </trkpt>
      <trkpt lat="47.44599" lon="-0.59612">
        <ele>23.2</ele>
        <time>2021-07-04T05:14:04Z</time>
      </trkpt>
      <trkpt lat="47.44604" lon="-0.59608">
        <ele>23.2</ele>
        <time>2021-07-04T05:14:05Z</time>
      </trkpt>
      <trkpt lat="47.44609" lon="-0.59605">
        <ele>23.2</ele>
        <time>2021-07-04T05:14:06Z</time>
      </trkpt>
      <trkpt lat="47.44619" lon="-0.596">
        <ele>23.8</ele>
        <time>2021-07-04T05:14:08Z</time>
      </trkpt>
      <trkpt lat="47.44627" lon="-0.59594">
        <ele>24.2</ele>
        <time>2021-07-04T05:14:10Z</time>
      </trkpt>
      <trkpt lat="47.44631" lon="-0.59592">
        <ele>24.2</ele>
        <time>2021-07-04T05:14:11Z</time>
      </trkpt>
      <trkpt lat="47.44637" lon="-0.5959">
        <ele>24.2</ele>
        <time>2021-07-04T05:14:12Z</time>
      </trkpt>
      <trkpt lat="47.44647" lon="-0.59586">
        <ele>24</ele>
        <time>2021-07-04T05:14:14Z</time>
      </trkpt>
      <trkpt lat="47.44653" lon="-0.59584">
        <ele>24</ele>
        <time>2021-07-04T05:14:15Z</time>
      </trkpt>
      <trkpt lat="47.44658" lon="-0.59582">
        <ele>24</ele>
        <time>2021-07-04T05:14:16Z</time>
      </trkpt>
      <trkpt lat="47.44669" lon="-0.59577">
        <ele>23.8</ele>
        <time>2021-07-04T05:14:18Z</time>
      </trkpt>
      <trkpt lat="47.44676" lon="-0.59575">
        <ele>24</ele>
        <time>2021-07-04T05:14:19Z</time>
      </trkpt>
      <trkpt lat="47.44681" lon="-0.59573">
        <ele>24.2</ele>
        <time>2021-07-04T05:14:20Z</time>
      </trkpt>
      <trkpt lat="47.44694" lon="-0.59568">
        <ele>24.2</ele>
        <time>2021-07-04T05:14:22Z</time>
      </trkpt>
      <trkpt lat="47.44706" lon="-0.59563">
        <ele>24</ele>
        <time>2021-07-04T05:14:24Z</time>
      </trkpt>
      <trkpt lat="47.44717" lon="-0.59558">
        <ele>24</ele>
        <time>2021-07-04T05:14:26Z</time>
      </trkpt>
      <trkpt lat="47.44728" lon="-0.59554">
        <ele>24</ele>
        <time>2021-07-04T05:14:28Z</time>
      </trkpt>
      <trkpt lat="47.44739" lon="-0.5955">
        <ele>24</ele>
        <time>2021-07-04T05:14:30Z</time>
      </trkpt>
      <trkpt lat="47.44752" lon="-0.59545">
        <ele>24</ele>
        <time>2021-07-04T05:14:32Z</time>
      </trkpt>
      <trkpt lat="47.44764" lon="-0.59541">
        <ele>24.2</ele>
        <time>2021-07-04T05:14:34Z</time>
      </trkpt>
      <trkpt lat="47.44777" lon="-0.59536">
        <ele>24.4</ele>
        <time>2021-07-04T05:14:36Z</time>
      </trkpt>
      <trkpt lat="47.44788" lon="-0.59532">
        <ele>24</ele>
        <time>2021-07-04T05:14:38Z</time>
      </trkpt>
      <trkpt lat="47.44794" lon="-0.59529">
        <ele>24</ele>
        <time>2021-07-04T05:14:39Z</time>
      </trkpt>
      <trkpt lat="47.44799" lon="-0.59526">
        <ele>23.8</ele>
        <time>2021-07-04T05:14:40Z</time>
      </trkpt>
      <trkpt lat="47.4481" lon="-0.59522">
        <ele>23.8</ele>
        <time>2021-07-04T05:14:42Z</time>
      </trkpt>
      <trkpt lat="47.44815" lon="-0.5952">
        <ele>23.8</ele>
        <time>2021-07-04T05:14:43Z</time>
      </trkpt>
      <trkpt lat="47.4482" lon="-0.59518">
        <ele>24</ele>
        <time>2021-07-04T05:14:44Z</time>
      </trkpt>
      <trkpt lat="47.44828" lon="-0.59514">
        <ele>24</ele>
        <time>2021-07-04T05:14:46Z</time>
      </trkpt>
      <trkpt lat="47.44836" lon="-0.59509">
        <ele>24</ele>
        <time>2021-07-04T05:14:48Z</time>
      </trkpt>
      <trkpt lat="47.44844" lon="-0.59506">
        <ele>24</ele>
        <time>2021-07-04T05:14:50Z</time>
      </trkpt>
      <trkpt lat="47.44848" lon="-0.59503">
        <ele>23.8</ele>
        <time>2021-07-04T05:14:51Z</time>
      </trkpt>
      <trkpt lat="47.44852" lon="-0.595">
        <ele>23.8</ele>
        <time>2021-07-04T05:14:52Z</time>
      </trkpt>
      <trkpt lat="47.44856" lon="-0.59497">
        <ele>24</ele>
        <time>2021-07-04T05:14:53Z</time>
      </trkpt>
      <trkpt lat="47.44861" lon="-0.59494">
        <ele>24.2</ele>
        <time>2021-07-04T05:14:54Z</time>
      </trkpt>
      <trkpt lat="47.44868" lon="-0.59487">
        <ele>24.2</ele>
        <time>2021-07-04T05:14:56Z</time>
      </trkpt>
      <trkpt lat="47.44876" lon="-0.59479">
        <ele>24.2</ele>
        <time>2021-07-04T05:14:58Z</time>
      </trkpt>
      <trkpt lat="47.44886" lon="-0.59472">
        <ele>24.2</ele>
        <time>2021-07-04T05:15:00Z</time>
      </trkpt>
      <trkpt lat="47.44896" lon="-0.59464">
        <ele>24</ele>
        <time>2021-07-04T05:15:02Z</time>
      </trkpt>
      <trkpt lat="47.44907" lon="-0.59456">
        <ele>23.8</ele>
        <time>2021-07-04T05:15:04Z</time>
      </trkpt>
      <trkpt lat="47.44912" lon="-0.5945">
        <ele>23.6</ele>
        <time>2021-07-04T05:15:05Z</time>
      </trkpt>
      <trkpt lat="47.44918" lon="-0.59445">
        <ele>23.4</ele>
        <time>2021-07-04T05:15:06Z</time>
      </trkpt>
      <trkpt lat="47.44931" lon="-0.59435">
        <ele>23.2</ele>
        <time>2021-07-04T05:15:08Z</time>
      </trkpt>
      <trkpt lat="47.44936" lon="-0.5943">
        <ele>23</ele>
        <time>2021-07-04T05:15:09Z</time>
      </trkpt>
      <trkpt lat="47.44941" lon="-0.59424">
        <ele>23</ele>
        <time>2021-07-04T05:15:10Z</time>
      </trkpt>
      <trkpt lat="47.4495" lon="-0.59413">
        <ele>23</ele>
        <time>2021-07-04T05:15:12Z</time>
      </trkpt>
      <trkpt lat="47.44958" lon="-0.59399">
        <ele>23.2</ele>
        <time>2021-07-04T05:15:14Z</time>
      </trkpt>
      <trkpt lat="47.44963" lon="-0.59392">
        <ele>23.4</ele>
        <time>2021-07-04T05:15:15Z</time>
      </trkpt>
      <trkpt lat="47.44967" lon="-0.59384">
        <ele>23.4</ele>
        <time>2021-07-04T05:15:16Z</time>
      </trkpt>
      <trkpt lat="47.44975" lon="-0.5937">
        <ele>23.4</ele>
        <time>2021-07-04T05:15:18Z</time>
      </trkpt>
      <trkpt lat="47.44983" lon="-0.59356">
        <ele>23.4</ele>
        <time>2021-07-04T05:15:20Z</time>
      </trkpt>
      <trkpt lat="47.44991" lon="-0.59343">
        <ele>24</ele>
        <time>2021-07-04T05:15:22Z</time>
      </trkpt>
      <trkpt lat="47.44998" lon="-0.59329">
        <ele>24.6</ele>
        <time>2021-07-04T05:15:24Z</time>
      </trkpt>
      <trkpt lat="47.45006" lon="-0.59313">
        <ele>24.8</ele>
        <time>2021-07-04T05:15:26Z</time>
      </trkpt>
      <trkpt lat="47.45015" lon="-0.59296">
        <ele>25</ele>
        <time>2021-07-04T05:15:28Z</time>
      </trkpt>
      <trkpt lat="47.45018" lon="-0.59288">
        <ele>24.8</ele>
        <time>2021-07-04T05:15:29Z</time>
      </trkpt>
      <trkpt lat="47.45022" lon="-0.59279">
        <ele>24.4</ele>
        <time>2021-07-04T05:15:30Z</time>
      </trkpt>
      <trkpt lat="47.45031" lon="-0.59264">
        <ele>23.8</ele>
        <time>2021-07-04T05:15:32Z</time>
      </trkpt>
      <trkpt lat="47.45039" lon="-0.59247">
        <ele>23.2</ele>
        <time>2021-07-04T05:15:34Z</time>
      </trkpt>
      <trkpt lat="47.45043" lon="-0.59239">
        <ele>23</ele>
        <time>2021-07-04T05:15:35Z</time>
      </trkpt>
      <trkpt lat="47.45048" lon="-0.5923">
        <ele>22.8</ele>
        <time>2021-07-04T05:15:36Z</time>
      </trkpt>
      <trkpt lat="47.45057" lon="-0.59211">
        <ele>22.8</ele>
        <time>2021-07-04T05:15:38Z</time>
      </trkpt>
      <trkpt lat="47.45065" lon="-0.59194">
        <ele>22.6</ele>
        <time>2021-07-04T05:15:40Z</time>
      </trkpt>
      <trkpt lat="47.45073" lon="-0.59178">
        <ele>23</ele>
        <time>2021-07-04T05:15:42Z</time>
      </trkpt>
      <trkpt lat="47.45081" lon="-0.59162">
        <ele>22.8</ele>
        <time>2021-07-04T05:15:44Z</time>
      </trkpt>
      <trkpt lat="47.45089" lon="-0.59146">
        <ele>22.8</ele>
        <time>2021-07-04T05:15:46Z</time>
      </trkpt>
      <trkpt lat="47.45096" lon="-0.5913">
        <ele>23.4</ele>
        <time>2021-07-04T05:15:48Z</time>
      </trkpt>
      <trkpt lat="47.45099" lon="-0.59122">
        <ele>23.4</ele>
        <time>2021-07-04T05:15:49Z</time>
      </trkpt>
      <trkpt lat="47.45103" lon="-0.59113">
        <ele>23.2</ele>
        <time>2021-07-04T05:15:50Z</time>
      </trkpt>
      <trkpt lat="47.4511" lon="-0.59097">
        <ele>23</ele>
        <time>2021-07-04T05:15:52Z</time>
      </trkpt>
      <trkpt lat="47.45117" lon="-0.59081">
        <ele>23</ele>
        <time>2021-07-04T05:15:54Z</time>
      </trkpt>
      <trkpt lat="47.4512" lon="-0.59073">
        <ele>23</ele>
        <time>2021-07-04T05:15:55Z</time>
      </trkpt>
      <trkpt lat="47.45124" lon="-0.59065">
        <ele>23.2</ele>
        <time>2021-07-04T05:15:56Z</time>
      </trkpt>
      <trkpt lat="47.4513" lon="-0.59049">
        <ele>23</ele>
        <time>2021-07-04T05:15:58Z</time>
      </trkpt>
      <trkpt lat="47.45137" lon="-0.59032">
        <ele>23</ele>
        <time>2021-07-04T05:16:00Z</time>
      </trkpt>
      <trkpt lat="47.45144" lon="-0.59015">
        <ele>23.2</ele>
        <time>2021-07-04T05:16:02Z</time>
      </trkpt>
      <trkpt lat="47.45147" lon="-0.59006">
        <ele>23.2</ele>
        <time>2021-07-04T05:16:03Z</time>
      </trkpt>
      <trkpt lat="47.4515" lon="-0.58997">
        <ele>23.2</ele>
        <time>2021-07-04T05:16:04Z</time>
      </trkpt>
      <trkpt lat="47.45156" lon="-0.58979">
        <ele>23.2</ele>
        <time>2021-07-04T05:16:06Z</time>
      </trkpt>
      <trkpt lat="47.45162" lon="-0.58962">
        <ele>23.2</ele>
        <time>2021-07-04T05:16:08Z</time>
      </trkpt>
      <trkpt lat="47.45168" lon="-0.58944">
        <ele>23.4</ele>
        <time>2021-07-04T05:16:10Z</time>
      </trkpt>
      <trkpt lat="47.45174" lon="-0.58927">
        <ele>23.2</ele>
        <time>2021-07-04T05:16:12Z</time>
      </trkpt>
      <trkpt lat="47.45179" lon="-0.58911">
        <ele>23.2</ele>
        <time>2021-07-04T05:16:14Z</time>
      </trkpt>
      <trkpt lat="47.45185" lon="-0.58895">
        <ele>23.2</ele>
        <time>2021-07-04T05:16:16Z</time>
      </trkpt>
      <trkpt lat="47.45188" lon="-0.58887">
        <ele>23.2</ele>
        <time>2021-07-04T05:16:17Z</time>
      </trkpt>
      <trkpt lat="47.45191" lon="-0.58879">
        <ele>23</ele>
        <time>2021-07-04T05:16:18Z</time>
      </trkpt>
      <trkpt lat="47.45198" lon="-0.58864">
        <ele>23</ele>
        <time>2021-07-04T05:16:20Z</time>
      </trkpt>
      <trkpt lat="47.45204" lon="-0.58848">
        <ele>23.2</ele>
        <time>2021-07-04T05:16:22Z</time>
      </trkpt>
      <trkpt lat="47.45211" lon="-0.58833">
        <ele>23.2</ele>
        <time>2021-07-04T05:16:24Z</time>
      </trkpt>
      <trkpt lat="47.45218" lon="-0.58817">
        <ele>23.2</ele>
        <time>2021-07-04T05:16:26Z</time>
      </trkpt>
      <trkpt lat="47.45224" lon="-0.588">
        <ele>23.4</ele>
        <time>2021-07-04T05:16:28Z</time>
      </trkpt>
      <trkpt lat="47.4523" lon="-0.58784">
        <ele>23.4</ele>
        <time>2021-07-04T05:16:30Z</time>
      </trkpt>
      <trkpt lat="47.45236" lon="-0.58768">
        <ele>23.2</ele>
        <time>2021-07-04T05:16:32Z</time>
      </trkpt>
      <trkpt lat="47.45241" lon="-0.58751">
        <ele>23.4</ele>
        <time>2021-07-04T05:16:34Z</time>
      </trkpt>
      <trkpt lat="47.45247" lon="-0.58735">
        <ele>23.4</ele>
        <time>2021-07-04T05:16:36Z</time>
      </trkpt>
      <trkpt lat="47.4525" lon="-0.58727">
        <ele>23.4</ele>
        <time>2021-07-04T05:16:37Z</time>
      </trkpt>
      <trkpt lat="47.45252" lon="-0.58719">
        <ele>23.4</ele>
        <time>2021-07-04T05:16:38Z</time>
      </trkpt>
      <trkpt lat="47.45258" lon="-0.58703">
        <ele>23.2</ele>
        <time>2021-07-04T05:16:40Z</time>
      </trkpt>
      <trkpt lat="47.45264" lon="-0.58687">
        <ele>23</ele>
        <time>2021-07-04T05:16:42Z</time>
      </trkpt>
      <trkpt lat="47.4527" lon="-0.5867">
        <ele>23</ele>
        <time>2021-07-04T05:16:44Z</time>
      </trkpt>
      <trkpt lat="47.45275" lon="-0.58654">
        <ele>23</ele>
        <time>2021-07-04T05:16:46Z</time>
      </trkpt>
      <trkpt lat="47.4528" lon="-0.58639">
        <ele>23.2</ele>
        <time>2021-07-04T05:16:48Z</time>
      </trkpt>
      <trkpt lat="47.45286" lon="-0.58624">
        <ele>23</ele>
        <time>2021-07-04T05:16:50Z</time>
      </trkpt>
      <trkpt lat="47.45292" lon="-0.58608">
        <ele>23.2</ele>
        <time>2021-07-04T05:16:52Z</time>
      </trkpt>
      <trkpt lat="47.45298" lon="-0.58593">
        <ele>23.2</ele>
        <time>2021-07-04T05:16:54Z</time>
      </trkpt>
      <trkpt lat="47.45305" lon="-0.58578">
        <ele>23.2</ele>
        <time>2021-07-04T05:16:56Z</time>
      </trkpt>
      <trkpt lat="47.45312" lon="-0.58563">
        <ele>23</ele>
        <time>2021-07-04T05:16:58Z</time>
      </trkpt>
      <trkpt lat="47.4532" lon="-0.58548">
        <ele>23.2</ele>
        <time>2021-07-04T05:17:00Z</time>
      </trkpt>
      <trkpt lat="47.45324" lon="-0.58542">
        <ele>23.2</ele>
        <time>2021-07-04T05:17:01Z</time>
      </trkpt>
      <trkpt lat="47.45328" lon="-0.58534">
        <ele>23.2</ele>
        <time>2021-07-04T05:17:02Z</time>
      </trkpt>
      <trkpt lat="47.45336" lon="-0.5852">
        <ele>23.4</ele>
        <time>2021-07-04T05:17:04Z</time>
      </trkpt>
      <trkpt lat="47.45344" lon="-0.58505">
        <ele>23.6</ele>
        <time>2021-07-04T05:17:06Z</time>
      </trkpt>
      <trkpt lat="47.45351" lon="-0.58491">
        <ele>23.2</ele>
        <time>2021-07-04T05:17:08Z</time>
      </trkpt>
      <trkpt lat="47.45355" lon="-0.58484">
        <ele>23</ele>
        <time>2021-07-04T05:17:09Z</time>
      </trkpt>
      <trkpt lat="47.45359" lon="-0.58476">
        <ele>22.8</ele>
        <time>2021-07-04T05:17:10Z</time>
      </trkpt>
      <trkpt lat="47.45367" lon="-0.58461">
        <ele>23</ele>
        <time>2021-07-04T05:17:12Z</time>
      </trkpt>
      <trkpt lat="47.45375" lon="-0.58448">
        <ele>23.4</ele>
        <time>2021-07-04T05:17:14Z</time>
      </trkpt>
      <trkpt lat="47.45382" lon="-0.58434">
        <ele>23.2</ele>
        <time>2021-07-04T05:17:16Z</time>
      </trkpt>
      <trkpt lat="47.4539" lon="-0.58419">
        <ele>23</ele>
        <time>2021-07-04T05:17:18Z</time>
      </trkpt>
      <trkpt lat="47.45397" lon="-0.58404">
        <ele>23.2</ele>
        <time>2021-07-04T05:17:20Z</time>
      </trkpt>
      <trkpt lat="47.45405" lon="-0.5839">
        <ele>23.2</ele>
        <time>2021-07-04T05:17:22Z</time>
      </trkpt>
      <trkpt lat="47.45409" lon="-0.58382">
        <ele>23.2</ele>
        <time>2021-07-04T05:17:23Z</time>
      </trkpt>
      <trkpt lat="47.45412" lon="-0.58375">
        <ele>23.2</ele>
        <time>2021-07-04T05:17:24Z</time>
      </trkpt>
      <trkpt lat="47.45419" lon="-0.58362">
        <ele>23.2</ele>
        <time>2021-07-04T05:17:26Z</time>
      </trkpt>
      <trkpt lat="47.45427" lon="-0.58349">
        <ele>23</ele>
        <time>2021-07-04T05:17:28Z</time>
      </trkpt>
      <trkpt lat="47.45435" lon="-0.58336">
        <ele>23.4</ele>
        <time>2021-07-04T05:17:30Z</time>
      </trkpt>
      <trkpt lat="47.45442" lon="-0.58324">
        <ele>23.8</ele>
        <time>2021-07-04T05:17:32Z</time>
      </trkpt>
      <trkpt lat="47.45451" lon="-0.58311">
        <ele>24</ele>
        <time>2021-07-04T05:17:34Z</time>
      </trkpt>
      <trkpt lat="47.45458" lon="-0.58297">
        <ele>23.6</ele>
        <time>2021-07-04T05:17:36Z</time>
      </trkpt>
      <trkpt lat="47.45467" lon="-0.58283">
        <ele>23</ele>
        <time>2021-07-04T05:17:38Z</time>
      </trkpt>
      <trkpt lat="47.45476" lon="-0.58269">
        <ele>23.4</ele>
        <time>2021-07-04T05:17:40Z</time>
      </trkpt>
      <trkpt lat="47.45484" lon="-0.58255">
        <ele>23.2</ele>
        <time>2021-07-04T05:17:42Z</time>
      </trkpt>
      <trkpt lat="47.45494" lon="-0.58243">
        <ele>23</ele>
        <time>2021-07-04T05:17:44Z</time>
      </trkpt>
      <trkpt lat="47.45499" lon="-0.58237">
        <ele>22.8</ele>
        <time>2021-07-04T05:17:45Z</time>
      </trkpt>
      <trkpt lat="47.45504" lon="-0.5823">
        <ele>22.8</ele>
        <time>2021-07-04T05:17:46Z</time>
      </trkpt>
      <trkpt lat="47.45513" lon="-0.58218">
        <ele>22.6</ele>
        <time>2021-07-04T05:17:48Z</time>
      </trkpt>
      <trkpt lat="47.45522" lon="-0.58206">
        <ele>22.6</ele>
        <time>2021-07-04T05:17:50Z</time>
      </trkpt>
      <trkpt lat="47.45527" lon="-0.582">
        <ele>22.8</ele>
        <time>2021-07-04T05:17:51Z</time>
      </trkpt>
      <trkpt lat="47.45532" lon="-0.58194">
        <ele>22.8</ele>
        <time>2021-07-04T05:17:52Z</time>
      </trkpt>
      <trkpt lat="47.45542" lon="-0.58182">
        <ele>22.6</ele>
        <time>2021-07-04T05:17:54Z</time>
      </trkpt>
      <trkpt lat="47.45552" lon="-0.5817">
        <ele>22.6</ele>
        <time>2021-07-04T05:17:56Z</time>
      </trkpt>
      <trkpt lat="47.45562" lon="-0.58158">
        <ele>22.8</ele>
        <time>2021-07-04T05:17:58Z</time>
      </trkpt>
      <trkpt lat="47.45572" lon="-0.58146">
        <ele>23.2</ele>
        <time>2021-07-04T05:18:00Z</time>
      </trkpt>
      <trkpt lat="47.45583" lon="-0.58136">
        <ele>22.8</ele>
        <time>2021-07-04T05:18:02Z</time>
      </trkpt>
      <trkpt lat="47.45593" lon="-0.58127">
        <ele>23.2</ele>
        <time>2021-07-04T05:18:04Z</time>
      </trkpt>
      <trkpt lat="47.45603" lon="-0.58117">
        <ele>23.2</ele>
        <time>2021-07-04T05:18:06Z</time>
      </trkpt>
      <trkpt lat="47.45613" lon="-0.58107">
        <ele>23.2</ele>
        <time>2021-07-04T05:18:08Z</time>
      </trkpt>
      <trkpt lat="47.45623" lon="-0.58096">
        <ele>23.2</ele>
        <time>2021-07-04T05:18:10Z</time>
      </trkpt>
      <trkpt lat="47.45628" lon="-0.58091">
        <ele>23</ele>
        <time>2021-07-04T05:18:11Z</time>
      </trkpt>
      <trkpt lat="47.45634" lon="-0.58086">
        <ele>22.8</ele>
        <time>2021-07-04T05:18:12Z</time>
      </trkpt>
      <trkpt lat="47.45645" lon="-0.58078">
        <ele>22.8</ele>
        <time>2021-07-04T05:18:14Z</time>
      </trkpt>
      <trkpt lat="47.45655" lon="-0.58071">
        <ele>23.2</ele>
        <time>2021-07-04T05:18:16Z</time>
      </trkpt>
      <trkpt lat="47.45659" lon="-0.58067">
        <ele>23.2</ele>
        <time>2021-07-04T05:18:17Z</time>
      </trkpt>
      <trkpt lat="47.45664" lon="-0.58063">
        <ele>23.2</ele>
        <time>2021-07-04T05:18:18Z</time>
      </trkpt>
      <trkpt lat="47.45673" lon="-0.58056">
        <ele>23.4</ele>
        <time>2021-07-04T05:18:20Z</time>
      </trkpt>
      <trkpt lat="47.45681" lon="-0.58048">
        <ele>23.2</ele>
        <time>2021-07-04T05:18:22Z</time>
      </trkpt>
      <trkpt lat="47.4569" lon="-0.5804">
        <ele>23.2</ele>
        <time>2021-07-04T05:18:24Z</time>
      </trkpt>
      <trkpt lat="47.45701" lon="-0.58032">
        <ele>23.2</ele>
        <time>2021-07-04T05:18:26Z</time>
      </trkpt>
      <trkpt lat="47.45707" lon="-0.58028">
        <ele>23.2</ele>
        <time>2021-07-04T05:18:27Z</time>
      </trkpt>
      <trkpt lat="47.45713" lon="-0.58024">
        <ele>23</ele>
        <time>2021-07-04T05:18:28Z</time>
      </trkpt>
      <trkpt lat="47.45724" lon="-0.58016">
        <ele>23.2</ele>
        <time>2021-07-04T05:18:30Z</time>
      </trkpt>
      <trkpt lat="47.45736" lon="-0.58008">
        <ele>23.4</ele>
        <time>2021-07-04T05:18:32Z</time>
      </trkpt>
      <trkpt lat="47.45748" lon="-0.58001">
        <ele>23.6</ele>
        <time>2021-07-04T05:18:34Z</time>
      </trkpt>
      <trkpt lat="47.45759" lon="-0.57994">
        <ele>23.8</ele>
        <time>2021-07-04T05:18:36Z</time>
      </trkpt>
      <trkpt lat="47.45771" lon="-0.57987">
        <ele>23.4</ele>
        <time>2021-07-04T05:18:38Z</time>
      </trkpt>
      <trkpt lat="47.45784" lon="-0.5798">
        <ele>23.4</ele>
        <time>2021-07-04T05:18:40Z</time>
      </trkpt>
      <trkpt lat="47.45796" lon="-0.57972">
        <ele>23.2</ele>
        <time>2021-07-04T05:18:42Z</time>
      </trkpt>
      <trkpt lat="47.45808" lon="-0.57965">
        <ele>23.2</ele>
        <time>2021-07-04T05:18:44Z</time>
      </trkpt>
      <trkpt lat="47.4582" lon="-0.57958">
        <ele>23.8</ele>
        <time>2021-07-04T05:18:46Z</time>
      </trkpt>
      <trkpt lat="47.45831" lon="-0.57951">
        <ele>23.8</ele>
        <time>2021-07-04T05:18:48Z</time>
      </trkpt>
      <trkpt lat="47.45842" lon="-0.57943">
        <ele>23.2</ele>
        <time>2021-07-04T05:18:50Z</time>
      </trkpt>
      <trkpt lat="47.45853" lon="-0.57936">
        <ele>23.4</ele>
        <time>2021-07-04T05:18:52Z</time>
      </trkpt>
      <trkpt lat="47.45859" lon="-0.57933">
        <ele>23.6</ele>
        <time>2021-07-04T05:18:53Z</time>
      </trkpt>
      <trkpt lat="47.45863" lon="-0.5793">
        <ele>23.8</ele>
        <time>2021-07-04T05:18:54Z</time>
      </trkpt>
      <trkpt lat="47.45875" lon="-0.57923">
        <ele>23.8</ele>
        <time>2021-07-04T05:18:56Z</time>
      </trkpt>
      <trkpt lat="47.45885" lon="-0.57915">
        <ele>23.8</ele>
        <time>2021-07-04T05:18:58Z</time>
      </trkpt>
      <trkpt lat="47.45891" lon="-0.57911">
        <ele>23.8</ele>
        <time>2021-07-04T05:18:59Z</time>
      </trkpt>
      <trkpt lat="47.45897" lon="-0.57907">
        <ele>23.8</ele>
        <time>2021-07-04T05:19:00Z</time>
      </trkpt>
      <trkpt lat="47.45908" lon="-0.579">
        <ele>23.8</ele>
        <time>2021-07-04T05:19:02Z</time>
      </trkpt>
      <trkpt lat="47.45918" lon="-0.57893">
        <ele>23.8</ele>
        <time>2021-07-04T05:19:04Z</time>
      </trkpt>
      <trkpt lat="47.45923" lon="-0.5789">
        <ele>24</ele>
        <time>2021-07-04T05:19:05Z</time>
      </trkpt>
      <trkpt lat="47.4593" lon="-0.57886">
        <ele>23.8</ele>
        <time>2021-07-04T05:19:06Z</time>
      </trkpt>
      <trkpt lat="47.45936" lon="-0.57881">
        <ele>23.8</ele>
        <time>2021-07-04T05:19:07Z</time>
      </trkpt>
      <trkpt lat="47.45942" lon="-0.57876">
        <ele>23.8</ele>
        <time>2021-07-04T05:19:08Z</time>
      </trkpt>
      <trkpt lat="47.45948" lon="-0.57872">
        <ele>23.8</ele>
        <time>2021-07-04T05:19:09Z</time>
      </trkpt>
      <trkpt lat="47.45954" lon="-0.57869">
        <ele>24</ele>
        <time>2021-07-04T05:19:10Z</time>
      </trkpt>
      <trkpt lat="47.45963" lon="-0.57861">
        <ele>24.2</ele>
        <time>2021-07-04T05:19:12Z</time>
      </trkpt>
      <trkpt lat="47.45969" lon="-0.57857">
        <ele>24.2</ele>
        <time>2021-07-04T05:19:13Z</time>
      </trkpt>
      <trkpt lat="47.45974" lon="-0.57853">
        <ele>24</ele>
        <time>2021-07-04T05:19:14Z</time>
      </trkpt>
      <trkpt lat="47.45985" lon="-0.57844">
        <ele>24</ele>
        <time>2021-07-04T05:19:16Z</time>
      </trkpt>
      <trkpt lat="47.45996" lon="-0.57837">
        <ele>23.8</ele>
        <time>2021-07-04T05:19:18Z</time>
      </trkpt>
      <trkpt lat="47.46001" lon="-0.57834">
        <ele>23.8</ele>
        <time>2021-07-04T05:19:19Z</time>
      </trkpt>
      <trkpt lat="47.46006" lon="-0.5783">
        <ele>23.8</ele>
        <time>2021-07-04T05:19:20Z</time>
      </trkpt>
      <trkpt lat="47.46017" lon="-0.57823">
        <ele>24</ele>
        <time>2021-07-04T05:19:22Z</time>
      </trkpt>
      <trkpt lat="47.4603" lon="-0.57815">
        <ele>23.8</ele>
        <time>2021-07-04T05:19:24Z</time>
      </trkpt>
      <trkpt lat="47.46037" lon="-0.57812">
        <ele>23.8</ele>
        <time>2021-07-04T05:19:25Z</time>
      </trkpt>
      <trkpt lat="47.46043" lon="-0.57809">
        <ele>23.8</ele>
        <time>2021-07-04T05:19:26Z</time>
      </trkpt>
      <trkpt lat="47.46055" lon="-0.57802">
        <ele>23.8</ele>
        <time>2021-07-04T05:19:28Z</time>
      </trkpt>
      <trkpt lat="47.46068" lon="-0.57797">
        <ele>23.8</ele>
        <time>2021-07-04T05:19:30Z</time>
      </trkpt>
      <trkpt lat="47.46079" lon="-0.57791">
        <ele>23.8</ele>
        <time>2021-07-04T05:19:32Z</time>
      </trkpt>
      <trkpt lat="47.46092" lon="-0.57785">
        <ele>23.8</ele>
        <time>2021-07-04T05:19:34Z</time>
      </trkpt>
      <trkpt lat="47.46097" lon="-0.57782">
        <ele>23.8</ele>
        <time>2021-07-04T05:19:35Z</time>
      </trkpt>
      <trkpt lat="47.46103" lon="-0.57779">
        <ele>23.8</ele>
        <time>2021-07-04T05:19:36Z</time>
      </trkpt>
      <trkpt lat="47.46115" lon="-0.57774">
        <ele>23.8</ele>
        <time>2021-07-04T05:19:38Z</time>
      </trkpt>
      <trkpt lat="47.46127" lon="-0.57768">
        <ele>23.8</ele>
        <time>2021-07-04T05:19:40Z</time>
      </trkpt>
      <trkpt lat="47.46139" lon="-0.57763">
        <ele>23.8</ele>
        <time>2021-07-04T05:19:42Z</time>
      </trkpt>
      <trkpt lat="47.4615" lon="-0.57758">
        <ele>23.6</ele>
        <time>2021-07-04T05:19:44Z</time>
      </trkpt>
      <trkpt lat="47.46162" lon="-0.57753">
        <ele>23.6</ele>
        <time>2021-07-04T05:19:46Z</time>
      </trkpt>
      <trkpt lat="47.46174" lon="-0.57748">
        <ele>23.8</ele>
        <time>2021-07-04T05:19:48Z</time>
      </trkpt>
      <trkpt lat="47.46186" lon="-0.57742">
        <ele>23.8</ele>
        <time>2021-07-04T05:19:50Z</time>
      </trkpt>
      <trkpt lat="47.46199" lon="-0.57736">
        <ele>23.6</ele>
        <time>2021-07-04T05:19:52Z</time>
      </trkpt>
      <trkpt lat="47.4621" lon="-0.57731">
        <ele>23.8</ele>
        <time>2021-07-04T05:19:54Z</time>
      </trkpt>
      <trkpt lat="47.46221" lon="-0.57725">
        <ele>23.8</ele>
        <time>2021-07-04T05:19:56Z</time>
      </trkpt>
      <trkpt lat="47.46234" lon="-0.57718">
        <ele>24</ele>
        <time>2021-07-04T05:19:58Z</time>
      </trkpt>
      <trkpt lat="47.46247" lon="-0.57712">
        <ele>24</ele>
        <time>2021-07-04T05:20:00Z</time>
      </trkpt>
      <trkpt lat="47.46253" lon="-0.57709">
        <ele>24.2</ele>
        <time>2021-07-04T05:20:01Z</time>
      </trkpt>
      <trkpt lat="47.46259" lon="-0.57706">
        <ele>24.2</ele>
        <time>2021-07-04T05:20:02Z</time>
      </trkpt>
      <trkpt lat="47.46272" lon="-0.57699">
        <ele>23.8</ele>
        <time>2021-07-04T05:20:04Z</time>
      </trkpt>
      <trkpt lat="47.46284" lon="-0.57692">
        <ele>24</ele>
        <time>2021-07-04T05:20:06Z</time>
      </trkpt>
      <trkpt lat="47.46296" lon="-0.57686">
        <ele>24</ele>
        <time>2021-07-04T05:20:08Z</time>
      </trkpt>
      <trkpt lat="47.46303" lon="-0.57681">
        <ele>23.8</ele>
        <time>2021-07-04T05:20:09Z</time>
      </trkpt>
      <trkpt lat="47.46309" lon="-0.57677">
        <ele>23.8</ele>
        <time>2021-07-04T05:20:10Z</time>
      </trkpt>
      <trkpt lat="47.4632" lon="-0.57669">
        <ele>23.8</ele>
        <time>2021-07-04T05:20:12Z</time>
      </trkpt>
      <trkpt lat="47.46331" lon="-0.57661">
        <ele>23.6</ele>
        <time>2021-07-04T05:20:14Z</time>
      </trkpt>
      <trkpt lat="47.46343" lon="-0.57653">
        <ele>23.6</ele>
        <time>2021-07-04T05:20:16Z</time>
      </trkpt>
      <trkpt lat="47.46355" lon="-0.57645">
        <ele>23.4</ele>
        <time>2021-07-04T05:20:18Z</time>
      </trkpt>
      <trkpt lat="47.46367" lon="-0.57636">
        <ele>23.8</ele>
        <time>2021-07-04T05:20:20Z</time>
      </trkpt>
      <trkpt lat="47.46378" lon="-0.57627">
        <ele>23.6</ele>
        <time>2021-07-04T05:20:22Z</time>
      </trkpt>
      <trkpt lat="47.4639" lon="-0.57617">
        <ele>23.8</ele>
        <time>2021-07-04T05:20:24Z</time>
      </trkpt>
      <trkpt lat="47.464" lon="-0.57609">
        <ele>24</ele>
        <time>2021-07-04T05:20:26Z</time>
      </trkpt>
      <trkpt lat="47.46406" lon="-0.57603">
        <ele>24.2</ele>
        <time>2021-07-04T05:20:27Z</time>
      </trkpt>
      <trkpt lat="47.46411" lon="-0.57599">
        <ele>24.4</ele>
        <time>2021-07-04T05:20:28Z</time>
      </trkpt>
      <trkpt lat="47.46421" lon="-0.5759">
        <ele>24.2</ele>
        <time>2021-07-04T05:20:30Z</time>
      </trkpt>
      <trkpt lat="47.46431" lon="-0.57583">
        <ele>24</ele>
        <time>2021-07-04T05:20:32Z</time>
      </trkpt>
      <trkpt lat="47.46436" lon="-0.57578">
        <ele>23.8</ele>
        <time>2021-07-04T05:20:33Z</time>
      </trkpt>
      <trkpt lat="47.46442" lon="-0.57572">
        <ele>23.8</ele>
        <time>2021-07-04T05:20:34Z</time>
      </trkpt>
      <trkpt lat="47.46452" lon="-0.57561">
        <ele>23.6</ele>
        <time>2021-07-04T05:20:36Z</time>
      </trkpt>
      <trkpt lat="47.46462" lon="-0.57551">
        <ele>23.4</ele>
        <time>2021-07-04T05:20:38Z</time>
      </trkpt>
      <trkpt lat="47.46472" lon="-0.57542">
        <ele>23.4</ele>
        <time>2021-07-04T05:20:40Z</time>
      </trkpt>
      <trkpt lat="47.46484" lon="-0.57533">
        <ele>23.6</ele>
        <time>2021-07-04T05:20:42Z</time>
      </trkpt>
      <trkpt lat="47.46495" lon="-0.57524">
        <ele>23.6</ele>
        <time>2021-07-04T05:20:44Z</time>
      </trkpt>
      <trkpt lat="47.46504" lon="-0.57514">
        <ele>23.4</ele>
        <time>2021-07-04T05:20:46Z</time>
      </trkpt>
      <trkpt lat="47.46514" lon="-0.57502">
        <ele>23.4</ele>
        <time>2021-07-04T05:20:48Z</time>
      </trkpt>
      <trkpt lat="47.46524" lon="-0.57492">
        <ele>23.4</ele>
        <time>2021-07-04T05:20:50Z</time>
      </trkpt>
      <trkpt lat="47.46528" lon="-0.57487">
        <ele>23.4</ele>
        <time>2021-07-04T05:20:51Z</time>
      </trkpt>
      <trkpt lat="47.46532" lon="-0.57482">
        <ele>23.4</ele>
        <time>2021-07-04T05:20:52Z</time>
      </trkpt>
      <trkpt lat="47.46543" lon="-0.5747">
        <ele>23.4</ele>
        <time>2021-07-04T05:20:54Z</time>
      </trkpt>
      <trkpt lat="47.46548" lon="-0.57463">
        <ele>23.2</ele>
        <time>2021-07-04T05:20:55Z</time>
      </trkpt>
      <trkpt lat="47.46553" lon="-0.57456">
        <ele>23.2</ele>
        <time>2021-07-04T05:20:56Z</time>
      </trkpt>
      <trkpt lat="47.46563" lon="-0.57444">
        <ele>23.4</ele>
        <time>2021-07-04T05:20:58Z</time>
      </trkpt>
      <trkpt lat="47.46572" lon="-0.57434">
        <ele>23.4</ele>
        <time>2021-07-04T05:21:00Z</time>
      </trkpt>
      <trkpt lat="47.46582" lon="-0.57422">
        <ele>23.6</ele>
        <time>2021-07-04T05:21:02Z</time>
      </trkpt>
      <trkpt lat="47.46591" lon="-0.57412">
        <ele>23.4</ele>
        <time>2021-07-04T05:21:04Z</time>
      </trkpt>
      <trkpt lat="47.466" lon="-0.57399">
        <ele>23.2</ele>
        <time>2021-07-04T05:21:06Z</time>
      </trkpt>
      <trkpt lat="47.46609" lon="-0.57388">
        <ele>23.2</ele>
        <time>2021-07-04T05:21:08Z</time>
      </trkpt>
      <trkpt lat="47.46619" lon="-0.57377">
        <ele>23</ele>
        <time>2021-07-04T05:21:10Z</time>
      </trkpt>
      <trkpt lat="47.46623" lon="-0.57371">
        <ele>23.2</ele>
        <time>2021-07-04T05:21:11Z</time>
      </trkpt>
      <trkpt lat="47.46628" lon="-0.57365">
        <ele>23.2</ele>
        <time>2021-07-04T05:21:12Z</time>
      </trkpt>
      <trkpt lat="47.46638" lon="-0.57353">
        <ele>23</ele>
        <time>2021-07-04T05:21:14Z</time>
      </trkpt>
      <trkpt lat="47.46648" lon="-0.5734">
        <ele>23.2</ele>
        <time>2021-07-04T05:21:16Z</time>
      </trkpt>
      <trkpt lat="47.46655" lon="-0.57329">
        <ele>23.6</ele>
        <time>2021-07-04T05:21:18Z</time>
      </trkpt>
      <trkpt lat="47.46664" lon="-0.57319">
        <ele>23.8</ele>
        <time>2021-07-04T05:21:20Z</time>
      </trkpt>
      <trkpt lat="47.46671" lon="-0.5731">
        <ele>23.8</ele>
        <time>2021-07-04T05:21:22Z</time>
      </trkpt>
      <trkpt lat="47.46675" lon="-0.57305">
        <ele>23.6</ele>
        <time>2021-07-04T05:21:23Z</time>
      </trkpt>
      <trkpt lat="47.4668" lon="-0.57299">
        <ele>23.2</ele>
        <time>2021-07-04T05:21:24Z</time>
      </trkpt>
      <trkpt lat="47.46689" lon="-0.57286">
        <ele>23.2</ele>
        <time>2021-07-04T05:21:26Z</time>
      </trkpt>
      <trkpt lat="47.46698" lon="-0.57272">
        <ele>23.4</ele>
        <time>2021-07-04T05:21:28Z</time>
      </trkpt>
      <trkpt lat="47.46703" lon="-0.57266">
        <ele>23.4</ele>
        <time>2021-07-04T05:21:29Z</time>
      </trkpt>
      <trkpt lat="47.46708" lon="-0.57258">
        <ele>23.6</ele>
        <time>2021-07-04T05:21:30Z</time>
      </trkpt>
      <trkpt lat="47.46718" lon="-0.57244">
        <ele>23.6</ele>
        <time>2021-07-04T05:21:32Z</time>
      </trkpt>
      <trkpt lat="47.4673" lon="-0.57228">
        <ele>23.8</ele>
        <time>2021-07-04T05:21:34Z</time>
      </trkpt>
      <trkpt lat="47.46741" lon="-0.57213">
        <ele>23.2</ele>
        <time>2021-07-04T05:21:36Z</time>
      </trkpt>
      <trkpt lat="47.46752" lon="-0.572">
        <ele>24</ele>
        <time>2021-07-04T05:21:38Z</time>
      </trkpt>
      <trkpt lat="47.46757" lon="-0.57193">
        <ele>24.4</ele>
        <time>2021-07-04T05:21:39Z</time>
      </trkpt>
      <trkpt lat="47.46762" lon="-0.57186">
        <ele>24.4</ele>
        <time>2021-07-04T05:21:40Z</time>
      </trkpt>
      <trkpt lat="47.46767" lon="-0.57169">
        <ele>24</ele>
        <time>2021-07-04T05:21:42Z</time>
      </trkpt>
      <trkpt lat="47.4677" lon="-0.5716">
        <ele>24</ele>
        <time>2021-07-04T05:21:43Z</time>
      </trkpt>
      <trkpt lat="47.46774" lon="-0.57151">
        <ele>23.8</ele>
        <time>2021-07-04T05:21:44Z</time>
      </trkpt>
      <trkpt lat="47.46778" lon="-0.57142">
        <ele>23.2</ele>
        <time>2021-07-04T05:21:45Z</time>
      </trkpt>
      <trkpt lat="47.46784" lon="-0.57133">
        <ele>22.4</ele>
        <time>2021-07-04T05:21:46Z</time>
      </trkpt>
      <trkpt lat="47.46791" lon="-0.57125">
        <ele>21.4</ele>
        <time>2021-07-04T05:21:47Z</time>
      </trkpt>
      <trkpt lat="47.46797" lon="-0.57118">
        <ele>21</ele>
        <time>2021-07-04T05:21:48Z</time>
      </trkpt>
      <trkpt lat="47.46803" lon="-0.57111">
        <ele>20.6</ele>
        <time>2021-07-04T05:21:49Z</time>
      </trkpt>
      <trkpt lat="47.46808" lon="-0.57104">
        <ele>20.6</ele>
        <time>2021-07-04T05:21:50Z</time>
      </trkpt>
      <trkpt lat="47.46819" lon="-0.5709">
        <ele>21.4</ele>
        <time>2021-07-04T05:21:52Z</time>
      </trkpt>
      <trkpt lat="47.46824" lon="-0.57083">
        <ele>21.8</ele>
        <time>2021-07-04T05:21:53Z</time>
      </trkpt>
      <trkpt lat="47.46829" lon="-0.57076">
        <ele>22</ele>
        <time>2021-07-04T05:21:54Z</time>
      </trkpt>
      <trkpt lat="47.46839" lon="-0.57062">
        <ele>21.8</ele>
        <time>2021-07-04T05:21:56Z</time>
      </trkpt>
      <trkpt lat="47.46849" lon="-0.57048">
        <ele>21.6</ele>
        <time>2021-07-04T05:21:58Z</time>
      </trkpt>
      <trkpt lat="47.46859" lon="-0.57036">
        <ele>21.6</ele>
        <time>2021-07-04T05:22:00Z</time>
      </trkpt>
      <trkpt lat="47.46869" lon="-0.57023">
        <ele>22</ele>
        <time>2021-07-04T05:22:02Z</time>
      </trkpt>
      <trkpt lat="47.46879" lon="-0.5701">
        <ele>21.8</ele>
        <time>2021-07-04T05:22:04Z</time>
      </trkpt>
      <trkpt lat="47.46888" lon="-0.56995">
        <ele>21.6</ele>
        <time>2021-07-04T05:22:06Z</time>
      </trkpt>
      <trkpt lat="47.46897" lon="-0.56981">
        <ele>21.6</ele>
        <time>2021-07-04T05:22:08Z</time>
      </trkpt>
      <trkpt lat="47.46907" lon="-0.56967">
        <ele>21.6</ele>
        <time>2021-07-04T05:22:10Z</time>
      </trkpt>
      <trkpt lat="47.46918" lon="-0.56955">
        <ele>21.6</ele>
        <time>2021-07-04T05:22:12Z</time>
      </trkpt>
      <trkpt lat="47.46928" lon="-0.56942">
        <ele>21.4</ele>
        <time>2021-07-04T05:22:14Z</time>
      </trkpt>
      <trkpt lat="47.46938" lon="-0.56929">
        <ele>20.8</ele>
        <time>2021-07-04T05:22:16Z</time>
      </trkpt>
      <trkpt lat="47.46948" lon="-0.56916">
        <ele>21.4</ele>
        <time>2021-07-04T05:22:18Z</time>
      </trkpt>
      <trkpt lat="47.46957" lon="-0.56904">
        <ele>22</ele>
        <time>2021-07-04T05:22:20Z</time>
      </trkpt>
      <trkpt lat="47.46967" lon="-0.56893">
        <ele>22</ele>
        <time>2021-07-04T05:22:22Z</time>
      </trkpt>
      <trkpt lat="47.4697" lon="-0.56887">
        <ele>22.2</ele>
        <time>2021-07-04T05:22:23Z</time>
      </trkpt>
      <trkpt lat="47.46972" lon="-0.56879">
        <ele>21.8</ele>
        <time>2021-07-04T05:22:24Z</time>
      </trkpt>
      <trkpt lat="47.46972" lon="-0.56872">
        <ele>21.6</ele>
        <time>2021-07-04T05:22:25Z</time>
      </trkpt>
      <trkpt lat="47.4697" lon="-0.56864">
        <ele>21.6</ele>
        <time>2021-07-04T05:22:26Z</time>
      </trkpt>
      <trkpt lat="47.46966" lon="-0.56848">
        <ele>21.4</ele>
        <time>2021-07-04T05:22:28Z</time>
      </trkpt>
      <trkpt lat="47.46962" lon="-0.56831">
        <ele>21.2</ele>
        <time>2021-07-04T05:22:30Z</time>
      </trkpt>
      <trkpt lat="47.4696" lon="-0.56814">
        <ele>21</ele>
        <time>2021-07-04T05:22:32Z</time>
      </trkpt>
      <trkpt lat="47.46958" lon="-0.56797">
        <ele>21</ele>
        <time>2021-07-04T05:22:34Z</time>
      </trkpt>
      <trkpt lat="47.46957" lon="-0.56779">
        <ele>21.4</ele>
        <time>2021-07-04T05:22:36Z</time>
      </trkpt>
      <trkpt lat="47.46957" lon="-0.56761">
        <ele>21.4</ele>
        <time>2021-07-04T05:22:38Z</time>
      </trkpt>
      <trkpt lat="47.46957" lon="-0.56743">
        <ele>21.4</ele>
        <time>2021-07-04T05:22:40Z</time>
      </trkpt>
      <trkpt lat="47.46958" lon="-0.56734">
        <ele>21.4</ele>
        <time>2021-07-04T05:22:41Z</time>
      </trkpt>
      <trkpt lat="47.46958" lon="-0.56725">
        <ele>21.6</ele>
        <time>2021-07-04T05:22:42Z</time>
      </trkpt>
      <trkpt lat="47.46961" lon="-0.56708">
        <ele>21.6</ele>
        <time>2021-07-04T05:22:44Z</time>
      </trkpt>
      <trkpt lat="47.46965" lon="-0.56691">
        <ele>21.8</ele>
        <time>2021-07-04T05:22:46Z</time>
      </trkpt>
      <trkpt lat="47.4697" lon="-0.56674">
        <ele>22</ele>
        <time>2021-07-04T05:22:48Z</time>
      </trkpt>
      <trkpt lat="47.46974" lon="-0.56657">
        <ele>21.6</ele>
        <time>2021-07-04T05:22:50Z</time>
      </trkpt>
      <trkpt lat="47.4698" lon="-0.56641">
        <ele>21.8</ele>
        <time>2021-07-04T05:22:52Z</time>
      </trkpt>
      <trkpt lat="47.46987" lon="-0.56626">
        <ele>21.8</ele>
        <time>2021-07-04T05:22:54Z</time>
      </trkpt>
      <trkpt lat="47.46994" lon="-0.56612">
        <ele>21.8</ele>
        <time>2021-07-04T05:22:56Z</time>
      </trkpt>
      <trkpt lat="47.47002" lon="-0.56598">
        <ele>22</ele>
        <time>2021-07-04T05:22:58Z</time>
      </trkpt>
      <trkpt lat="47.4701" lon="-0.56585">
        <ele>22</ele>
        <time>2021-07-04T05:23:00Z</time>
      </trkpt>
      <trkpt lat="47.47019" lon="-0.56571">
        <ele>21.8</ele>
        <time>2021-07-04T05:23:02Z</time>
      </trkpt>
      <trkpt lat="47.47027" lon="-0.56558">
        <ele>22</ele>
        <time>2021-07-04T05:23:04Z</time>
      </trkpt>
      <trkpt lat="47.47036" lon="-0.56545">
        <ele>22.2</ele>
        <time>2021-07-04T05:23:06Z</time>
      </trkpt>
      <trkpt lat="47.47044" lon="-0.56532">
        <ele>22</ele>
        <time>2021-07-04T05:23:08Z</time>
      </trkpt>
      <trkpt lat="47.47052" lon="-0.5652">
        <ele>22.2</ele>
        <time>2021-07-04T05:23:10Z</time>
      </trkpt>
      <trkpt lat="47.4706" lon="-0.56508">
        <ele>22</ele>
        <time>2021-07-04T05:23:12Z</time>
      </trkpt>
      <trkpt lat="47.47063" lon="-0.56502">
        <ele>22</ele>
        <time>2021-07-04T05:23:13Z</time>
      </trkpt>
      <trkpt lat="47.47066" lon="-0.56494">
        <ele>22</ele>
        <time>2021-07-04T05:23:14Z</time>
      </trkpt>
      <trkpt lat="47.47064" lon="-0.56479">
        <ele>22</ele>
        <time>2021-07-04T05:23:16Z</time>
      </trkpt>
      <trkpt lat="47.47063" lon="-0.56464">
        <ele>22.2</ele>
        <time>2021-07-04T05:23:18Z</time>
      </trkpt>
      <trkpt lat="47.47067" lon="-0.56449">
        <ele>22</ele>
        <time>2021-07-04T05:23:20Z</time>
      </trkpt>
      <trkpt lat="47.47071" lon="-0.56434">
        <ele>22</ele>
        <time>2021-07-04T05:23:22Z</time>
      </trkpt>
      <trkpt lat="47.47077" lon="-0.56421">
        <ele>22.2</ele>
        <time>2021-07-04T05:23:24Z</time>
      </trkpt>
      <trkpt lat="47.47081" lon="-0.56415">
        <ele>22.4</ele>
        <time>2021-07-04T05:23:25Z</time>
      </trkpt>
      <trkpt lat="47.47086" lon="-0.5641">
        <ele>22.6</ele>
        <time>2021-07-04T05:23:26Z</time>
      </trkpt>
      <trkpt lat="47.47096" lon="-0.56403">
        <ele>22.6</ele>
        <time>2021-07-04T05:23:28Z</time>
      </trkpt>
      <trkpt lat="47.47101" lon="-0.564">
        <ele>22.6</ele>
        <time>2021-07-04T05:23:29Z</time>
      </trkpt>
      <trkpt lat="47.47105" lon="-0.56397">
        <ele>23</ele>
        <time>2021-07-04T05:23:30Z</time>
      </trkpt>
      <trkpt lat="47.47114" lon="-0.5639">
        <ele>23.8</ele>
        <time>2021-07-04T05:23:32Z</time>
      </trkpt>
      <trkpt lat="47.4712" lon="-0.56381">
        <ele>24.2</ele>
        <time>2021-07-04T05:23:34Z</time>
      </trkpt>
      <trkpt lat="47.47127" lon="-0.56374">
        <ele>24.8</ele>
        <time>2021-07-04T05:23:36Z</time>
      </trkpt>
      <trkpt lat="47.47134" lon="-0.56376">
        <ele>24.2</ele>
        <time>2021-07-04T05:23:38Z</time>
      </trkpt>
      <trkpt lat="47.47142" lon="-0.56384">
        <ele>24</ele>
        <time>2021-07-04T05:23:40Z</time>
      </trkpt>
      <trkpt lat="47.47145" lon="-0.56385">
        <ele>24</ele>
        <time>2021-07-04T05:23:41Z</time>
      </trkpt>
      <trkpt lat="47.47148" lon="-0.56383">
        <ele>24.6</ele>
        <time>2021-07-04T05:23:42Z</time>
      </trkpt>
      <trkpt lat="47.47155" lon="-0.56373">
        <ele>25.2</ele>
        <time>2021-07-04T05:23:44Z</time>
      </trkpt>
      <trkpt lat="47.47159" lon="-0.56368">
        <ele>24.8</ele>
        <time>2021-07-04T05:23:45Z</time>
      </trkpt>
      <trkpt lat="47.47163" lon="-0.56362">
        <ele>24.8</ele>
        <time>2021-07-04T05:23:46Z</time>
      </trkpt>
      <trkpt lat="47.47172" lon="-0.56351">
        <ele>24.8</ele>
        <time>2021-07-04T05:23:48Z</time>
      </trkpt>
      <trkpt lat="47.47177" lon="-0.56346">
        <ele>24.8</ele>
        <time>2021-07-04T05:23:49Z</time>
      </trkpt>
      <trkpt lat="47.47181" lon="-0.56341">
        <ele>25</ele>
        <time>2021-07-04T05:23:50Z</time>
      </trkpt>
      <trkpt lat="47.4719" lon="-0.56329">
        <ele>25.4</ele>
        <time>2021-07-04T05:23:52Z</time>
      </trkpt>
      <trkpt lat="47.47199" lon="-0.56317">
        <ele>25.4</ele>
        <time>2021-07-04T05:23:54Z</time>
      </trkpt>
      <trkpt lat="47.47203" lon="-0.56312">
        <ele>25.4</ele>
        <time>2021-07-04T05:23:55Z</time>
      </trkpt>
      <trkpt lat="47.47208" lon="-0.56306">
        <ele>25.4</ele>
        <time>2021-07-04T05:23:56Z</time>
      </trkpt>
      <trkpt lat="47.47216" lon="-0.56294">
        <ele>25.4</ele>
        <time>2021-07-04T05:23:58Z</time>
      </trkpt>
      <trkpt lat="47.47225" lon="-0.56281">
        <ele>25</ele>
        <time>2021-07-04T05:24:00Z</time>
      </trkpt>
      <trkpt lat="47.47229" lon="-0.56275">
        <ele>25.2</ele>
        <time>2021-07-04T05:24:01Z</time>
      </trkpt>
      <trkpt lat="47.47234" lon="-0.56269">
        <ele>25.2</ele>
        <time>2021-07-04T05:24:02Z</time>
      </trkpt>
      <trkpt lat="47.47242" lon="-0.56258">
        <ele>25.4</ele>
        <time>2021-07-04T05:24:04Z</time>
      </trkpt>
      <trkpt lat="47.47251" lon="-0.56246">
        <ele>25.2</ele>
        <time>2021-07-04T05:24:06Z</time>
      </trkpt>
      <trkpt lat="47.47259" lon="-0.56235">
        <ele>25</ele>
        <time>2021-07-04T05:24:08Z</time>
      </trkpt>
      <trkpt lat="47.47267" lon="-0.56222">
        <ele>25</ele>
        <time>2021-07-04T05:24:10Z</time>
      </trkpt>
      <trkpt lat="47.47275" lon="-0.56209">
        <ele>24.8</ele>
        <time>2021-07-04T05:24:12Z</time>
      </trkpt>
      <trkpt lat="47.47281" lon="-0.56199">
        <ele>25.6</ele>
        <time>2021-07-04T05:24:14Z</time>
      </trkpt>
      <trkpt lat="47.47282" lon="-0.56193">
        <ele>26.2</ele>
        <time>2021-07-04T05:24:15Z</time>
      </trkpt>
      <trkpt lat="47.4728" lon="-0.56189">
        <ele>26.8</ele>
        <time>2021-07-04T05:24:16Z</time>
      </trkpt>
      <trkpt lat="47.47274" lon="-0.5618">
        <ele>27</ele>
        <time>2021-07-04T05:24:18Z</time>
      </trkpt>
      <trkpt lat="47.4727" lon="-0.56176">
        <ele>26.8</ele>
        <time>2021-07-04T05:24:19Z</time>
      </trkpt>
      <trkpt lat="47.47267" lon="-0.56172">
        <ele>26.6</ele>
        <time>2021-07-04T05:24:20Z</time>
      </trkpt>
      <trkpt lat="47.47259" lon="-0.56162">
        <ele>26.2</ele>
        <time>2021-07-04T05:24:22Z</time>
      </trkpt>
      <trkpt lat="47.47251" lon="-0.56151">
        <ele>26</ele>
        <time>2021-07-04T05:24:24Z</time>
      </trkpt>
      <trkpt lat="47.47244" lon="-0.5614">
        <ele>26</ele>
        <time>2021-07-04T05:24:26Z</time>
      </trkpt>
      <trkpt lat="47.47238" lon="-0.56129">
        <ele>26.2</ele>
        <time>2021-07-04T05:24:28Z</time>
      </trkpt>
      <trkpt lat="47.47236" lon="-0.56124">
        <ele>26.6</ele>
        <time>2021-07-04T05:24:29Z</time>
      </trkpt>
      <trkpt lat="47.47236" lon="-0.56118">
        <ele>26.8</ele>
        <time>2021-07-04T05:24:30Z</time>
      </trkpt>
      <trkpt lat="47.47239" lon="-0.56106">
        <ele>27.2</ele>
        <time>2021-07-04T05:24:32Z</time>
      </trkpt>
      <trkpt lat="47.47246" lon="-0.56094">
        <ele>27.2</ele>
        <time>2021-07-04T05:24:34Z</time>
      </trkpt>
      <trkpt lat="47.47253" lon="-0.56082">
        <ele>27.4</ele>
        <time>2021-07-04T05:24:36Z</time>
      </trkpt>
      <trkpt lat="47.4726" lon="-0.56069">
        <ele>27.6</ele>
        <time>2021-07-04T05:24:38Z</time>
      </trkpt>
      <trkpt lat="47.47267" lon="-0.56057">
        <ele>27.2</ele>
        <time>2021-07-04T05:24:40Z</time>
      </trkpt>
      <trkpt lat="47.47275" lon="-0.56045">
        <ele>27.2</ele>
        <time>2021-07-04T05:24:42Z</time>
      </trkpt>
      <trkpt lat="47.47283" lon="-0.56032">
        <ele>27.4</ele>
        <time>2021-07-04T05:24:44Z</time>
      </trkpt>
      <trkpt lat="47.47291" lon="-0.5602">
        <ele>27.6</ele>
        <time>2021-07-04T05:24:46Z</time>
      </trkpt>
      <trkpt lat="47.47298" lon="-0.56007">
        <ele>27.6</ele>
        <time>2021-07-04T05:24:48Z</time>
      </trkpt>
      <trkpt lat="47.47306" lon="-0.55994">
        <ele>27.6</ele>
        <time>2021-07-04T05:24:50Z</time>
      </trkpt>
      <trkpt lat="47.47313" lon="-0.55982">
        <ele>27.4</ele>
        <time>2021-07-04T05:24:52Z</time>
      </trkpt>
      <trkpt lat="47.47321" lon="-0.55968">
        <ele>27.4</ele>
        <time>2021-07-04T05:24:54Z</time>
      </trkpt>
      <trkpt lat="47.47328" lon="-0.55956">
        <ele>27.4</ele>
        <time>2021-07-04T05:24:56Z</time>
      </trkpt>
      <trkpt lat="47.47336" lon="-0.55944">
        <ele>27.4</ele>
        <time>2021-07-04T05:24:58Z</time>
      </trkpt>
      <trkpt lat="47.47339" lon="-0.55938">
        <ele>27.6</ele>
        <time>2021-07-04T05:24:59Z</time>
      </trkpt>
      <trkpt lat="47.47343" lon="-0.55933">
        <ele>27.6</ele>
        <time>2021-07-04T05:25:00Z</time>
      </trkpt>
      <trkpt lat="47.4735" lon="-0.55921">
        <ele>27.8</ele>
        <time>2021-07-04T05:25:02Z</time>
      </trkpt>
      <trkpt lat="47.47355" lon="-0.55911">
        <ele>28.2</ele>
        <time>2021-07-04T05:25:04Z</time>
      </trkpt>
      <trkpt lat="47.47358" lon="-0.55906">
        <ele>28.2</ele>
        <time>2021-07-04T05:25:05Z</time>
      </trkpt>
      <trkpt lat="47.4736" lon="-0.55903">
        <ele>28.6</ele>
        <time>2021-07-04T05:25:06Z</time>
      </trkpt>
      <trkpt lat="47.47362" lon="-0.55898">
        <ele>29.2</ele>
        <time>2021-07-04T05:25:08Z</time>
      </trkpt>
      <trkpt lat="47.47368" lon="-0.5589">
        <ele>29.2</ele>
        <time>2021-07-04T05:25:10Z</time>
      </trkpt>
      <trkpt lat="47.47374" lon="-0.55882">
        <ele>29</ele>
        <time>2021-07-04T05:25:12Z</time>
      </trkpt>
      <trkpt lat="47.47382" lon="-0.55874">
        <ele>28.6</ele>
        <time>2021-07-04T05:25:14Z</time>
      </trkpt>
      <trkpt lat="47.47388" lon="-0.55867">
        <ele>28.2</ele>
        <time>2021-07-04T05:25:16Z</time>
      </trkpt>
      <trkpt lat="47.47393" lon="-0.55859">
        <ele>28.2</ele>
        <time>2021-07-04T05:25:18Z</time>
      </trkpt>
      <trkpt lat="47.47394" lon="-0.55854">
        <ele>28.4</ele>
        <time>2021-07-04T05:25:19Z</time>
      </trkpt>
      <trkpt lat="47.47395" lon="-0.55851">
        <ele>28.6</ele>
        <time>2021-07-04T05:25:20Z</time>
      </trkpt>
      <trkpt lat="47.47396" lon="-0.55847">
        <ele>28.4</ele>
        <time>2021-07-04T05:25:21Z</time>
      </trkpt>
      <trkpt lat="47.47399" lon="-0.55844">
        <ele>28.4</ele>
        <time>2021-07-04T05:25:22Z</time>
      </trkpt>
      <trkpt lat="47.47407" lon="-0.55836">
        <ele>28</ele>
        <time>2021-07-04T05:25:24Z</time>
      </trkpt>
      <trkpt lat="47.4741" lon="-0.55832">
        <ele>28</ele>
        <time>2021-07-04T05:25:25Z</time>
      </trkpt>
      <trkpt lat="47.47413" lon="-0.55829">
        <ele>27.6</ele>
        <time>2021-07-04T05:25:26Z</time>
      </trkpt>
      <trkpt lat="47.47417" lon="-0.55825">
        <ele>27</ele>
        <time>2021-07-04T05:25:27Z</time>
      </trkpt>
      <trkpt lat="47.47422" lon="-0.55821">
        <ele>26.6</ele>
        <time>2021-07-04T05:25:28Z</time>
      </trkpt>
      <trkpt lat="47.47431" lon="-0.55811">
        <ele>26.4</ele>
        <time>2021-07-04T05:25:30Z</time>
      </trkpt>
      <trkpt lat="47.47436" lon="-0.55808">
        <ele>25.6</ele>
        <time>2021-07-04T05:25:31Z</time>
      </trkpt>
      <trkpt lat="47.47441" lon="-0.55804">
        <ele>25</ele>
        <time>2021-07-04T05:25:32Z</time>
      </trkpt>
      <trkpt lat="47.47451" lon="-0.55798">
        <ele>25</ele>
        <time>2021-07-04T05:25:34Z</time>
      </trkpt>
      <trkpt lat="47.47456" lon="-0.55795">
        <ele>24.8</ele>
        <time>2021-07-04T05:25:35Z</time>
      </trkpt>
      <trkpt lat="47.4746" lon="-0.55791">
        <ele>24.6</ele>
        <time>2021-07-04T05:25:36Z</time>
      </trkpt>
      <trkpt lat="47.47465" lon="-0.55788">
        <ele>24.2</ele>
        <time>2021-07-04T05:25:37Z</time>
      </trkpt>
      <trkpt lat="47.4747" lon="-0.55784">
        <ele>23.8</ele>
        <time>2021-07-04T05:25:38Z</time>
      </trkpt>
      <trkpt lat="47.47474" lon="-0.55779">
        <ele>24</ele>
        <time>2021-07-04T05:25:39Z</time>
      </trkpt>
      <trkpt lat="47.47478" lon="-0.55772">
        <ele>23.8</ele>
        <time>2021-07-04T05:25:40Z</time>
      </trkpt>
      <trkpt lat="47.47482" lon="-0.55765">
        <ele>23.6</ele>
        <time>2021-07-04T05:25:41Z</time>
      </trkpt>
      <trkpt lat="47.47487" lon="-0.55759">
        <ele>23.4</ele>
        <time>2021-07-04T05:25:42Z</time>
      </trkpt>
      <trkpt lat="47.47492" lon="-0.55755">
        <ele>23.2</ele>
        <time>2021-07-04T05:25:43Z</time>
      </trkpt>
      <trkpt lat="47.47497" lon="-0.55751">
        <ele>23.2</ele>
        <time>2021-07-04T05:25:44Z</time>
      </trkpt>
      <trkpt lat="47.47503" lon="-0.55747">
        <ele>23.2</ele>
        <time>2021-07-04T05:25:45Z</time>
      </trkpt>
      <trkpt lat="47.47509" lon="-0.55743">
        <ele>23.4</ele>
        <time>2021-07-04T05:25:46Z</time>
      </trkpt>
      <trkpt lat="47.47521" lon="-0.55736">
        <ele>23.4</ele>
        <time>2021-07-04T05:25:48Z</time>
      </trkpt>
      <trkpt lat="47.47533" lon="-0.55727">
        <ele>23.2</ele>
        <time>2021-07-04T05:25:50Z</time>
      </trkpt>
      <trkpt lat="47.47545" lon="-0.55718">
        <ele>23.2</ele>
        <time>2021-07-04T05:25:52Z</time>
      </trkpt>
      <trkpt lat="47.47558" lon="-0.5571">
        <ele>23.2</ele>
        <time>2021-07-04T05:25:54Z</time>
      </trkpt>
      <trkpt lat="47.4757" lon="-0.55702">
        <ele>22.8</ele>
        <time>2021-07-04T05:25:56Z</time>
      </trkpt>
      <trkpt lat="47.47583" lon="-0.55694">
        <ele>22.8</ele>
        <time>2021-07-04T05:25:58Z</time>
      </trkpt>
      <trkpt lat="47.47589" lon="-0.5569">
        <ele>23.4</ele>
        <time>2021-07-04T05:25:59Z</time>
      </trkpt>
      <trkpt lat="47.47594" lon="-0.55686">
        <ele>23.6</ele>
        <time>2021-07-04T05:26:00Z</time>
      </trkpt>
      <trkpt lat="47.47607" lon="-0.55677">
        <ele>23.4</ele>
        <time>2021-07-04T05:26:02Z</time>
      </trkpt>
      <trkpt lat="47.47619" lon="-0.55669">
        <ele>23.4</ele>
        <time>2021-07-04T05:26:04Z</time>
      </trkpt>
      <trkpt lat="47.47631" lon="-0.5566">
        <ele>23.4</ele>
        <time>2021-07-04T05:26:06Z</time>
      </trkpt>
      <trkpt lat="47.47643" lon="-0.55652">
        <ele>23.6</ele>
        <time>2021-07-04T05:26:08Z</time>
      </trkpt>
      <trkpt lat="47.47655" lon="-0.55644">
        <ele>23.4</ele>
        <time>2021-07-04T05:26:10Z</time>
      </trkpt>
      <trkpt lat="47.47668" lon="-0.55635">
        <ele>23.2</ele>
        <time>2021-07-04T05:26:12Z</time>
      </trkpt>
      <trkpt lat="47.4768" lon="-0.55627">
        <ele>23.2</ele>
        <time>2021-07-04T05:26:14Z</time>
      </trkpt>
      <trkpt lat="47.47686" lon="-0.55622">
        <ele>23.4</ele>
        <time>2021-07-04T05:26:15Z</time>
      </trkpt>
      <trkpt lat="47.47692" lon="-0.55618">
        <ele>23.6</ele>
        <time>2021-07-04T05:26:16Z</time>
      </trkpt>
      <trkpt lat="47.47703" lon="-0.55612">
        <ele>23.8</ele>
        <time>2021-07-04T05:26:18Z</time>
      </trkpt>
      <trkpt lat="47.47715" lon="-0.55604">
        <ele>24</ele>
        <time>2021-07-04T05:26:20Z</time>
      </trkpt>
      <trkpt lat="47.4772" lon="-0.556">
        <ele>24.2</ele>
        <time>2021-07-04T05:26:21Z</time>
      </trkpt>
      <trkpt lat="47.47726" lon="-0.55595">
        <ele>23.8</ele>
        <time>2021-07-04T05:26:22Z</time>
      </trkpt>
      <trkpt lat="47.47737" lon="-0.55586">
        <ele>23.6</ele>
        <time>2021-07-04T05:26:24Z</time>
      </trkpt>
      <trkpt lat="47.47749" lon="-0.55577">
        <ele>23.6</ele>
        <time>2021-07-04T05:26:26Z</time>
      </trkpt>
      <trkpt lat="47.47761" lon="-0.55568">
        <ele>23.4</ele>
        <time>2021-07-04T05:26:28Z</time>
      </trkpt>
      <trkpt lat="47.47772" lon="-0.5556">
        <ele>23.4</ele>
        <time>2021-07-04T05:26:30Z</time>
      </trkpt>
      <trkpt lat="47.47783" lon="-0.55552">
        <ele>23.8</ele>
        <time>2021-07-04T05:26:32Z</time>
      </trkpt>
      <trkpt lat="47.47792" lon="-0.55545">
        <ele>23.6</ele>
        <time>2021-07-04T05:26:34Z</time>
      </trkpt>
      <trkpt lat="47.47796" lon="-0.55542">
        <ele>23.6</ele>
        <time>2021-07-04T05:26:35Z</time>
      </trkpt>
      <trkpt lat="47.47799" lon="-0.5554">
        <ele>23.6</ele>
        <time>2021-07-04T05:26:36Z</time>
      </trkpt>
      <trkpt lat="47.47802" lon="-0.55534">
        <ele>23.6</ele>
        <time>2021-07-04T05:26:37Z</time>
      </trkpt>
      <trkpt lat="47.47803" lon="-0.55528">
        <ele>23.6</ele>
        <time>2021-07-04T05:26:38Z</time>
      </trkpt>
      <trkpt lat="47.4781" lon="-0.55519">
        <ele>23.2</ele>
        <time>2021-07-04T05:26:40Z</time>
      </trkpt>
      <trkpt lat="47.47813" lon="-0.55516">
        <ele>23.4</ele>
        <time>2021-07-04T05:26:41Z</time>
      </trkpt>
      <trkpt lat="47.47817" lon="-0.55513">
        <ele>23.6</ele>
        <time>2021-07-04T05:26:42Z</time>
      </trkpt>
      <trkpt lat="47.47826" lon="-0.55513">
        <ele>23.4</ele>
        <time>2021-07-04T05:26:44Z</time>
      </trkpt>
      <trkpt lat="47.47831" lon="-0.55514">
        <ele>23.2</ele>
        <time>2021-07-04T05:26:45Z</time>
      </trkpt>
      <trkpt lat="47.47836" lon="-0.55514">
        <ele>23</ele>
        <time>2021-07-04T05:26:46Z</time>
      </trkpt>
      <trkpt lat="47.47848" lon="-0.55515">
        <ele>22.4</ele>
        <time>2021-07-04T05:26:48Z</time>
      </trkpt>
      <trkpt lat="47.47854" lon="-0.55514">
        <ele>22.2</ele>
        <time>2021-07-04T05:26:49Z</time>
      </trkpt>
      <trkpt lat="47.4786" lon="-0.55513">
        <ele>22</ele>
        <time>2021-07-04T05:26:50Z</time>
      </trkpt>
      <trkpt lat="47.47866" lon="-0.55511">
        <ele>22.2</ele>
        <time>2021-07-04T05:26:51Z</time>
      </trkpt>
      <trkpt lat="47.47871" lon="-0.55508">
        <ele>22.4</ele>
        <time>2021-07-04T05:26:52Z</time>
      </trkpt>
      <trkpt lat="47.47882" lon="-0.55501">
        <ele>22.4</ele>
        <time>2021-07-04T05:26:54Z</time>
      </trkpt>
      <trkpt lat="47.47893" lon="-0.55495">
        <ele>23</ele>
        <time>2021-07-04T05:26:56Z</time>
      </trkpt>
      <trkpt lat="47.47904" lon="-0.55487">
        <ele>23</ele>
        <time>2021-07-04T05:26:58Z</time>
      </trkpt>
      <trkpt lat="47.47913" lon="-0.55477">
        <ele>22.8</ele>
        <time>2021-07-04T05:27:00Z</time>
      </trkpt>
      <trkpt lat="47.47922" lon="-0.55466">
        <ele>22.2</ele>
        <time>2021-07-04T05:27:02Z</time>
      </trkpt>
      <trkpt lat="47.47928" lon="-0.55462">
        <ele>22.2</ele>
        <time>2021-07-04T05:27:03Z</time>
      </trkpt>
      <trkpt lat="47.47933" lon="-0.55459">
        <ele>22.2</ele>
        <time>2021-07-04T05:27:04Z</time>
      </trkpt>
      <trkpt lat="47.47946" lon="-0.55454">
        <ele>22</ele>
        <time>2021-07-04T05:27:06Z</time>
      </trkpt>
      <trkpt lat="47.47958" lon="-0.55447">
        <ele>22.4</ele>
        <time>2021-07-04T05:27:08Z</time>
      </trkpt>
      <trkpt lat="47.4797" lon="-0.55441">
        <ele>22</ele>
        <time>2021-07-04T05:27:10Z</time>
      </trkpt>
      <trkpt lat="47.47981" lon="-0.55436">
        <ele>22.2</ele>
        <time>2021-07-04T05:27:12Z</time>
      </trkpt>
      <trkpt lat="47.47992" lon="-0.55429">
        <ele>22.2</ele>
        <time>2021-07-04T05:27:14Z</time>
      </trkpt>
      <trkpt lat="47.48003" lon="-0.55422">
        <ele>22.4</ele>
        <time>2021-07-04T05:27:16Z</time>
      </trkpt>
      <trkpt lat="47.48009" lon="-0.55418">
        <ele>22.4</ele>
        <time>2021-07-04T05:27:17Z</time>
      </trkpt>
      <trkpt lat="47.48016" lon="-0.55415">
        <ele>22</ele>
        <time>2021-07-04T05:27:18Z</time>
      </trkpt>
      <trkpt lat="47.48027" lon="-0.55408">
        <ele>21.8</ele>
        <time>2021-07-04T05:27:20Z</time>
      </trkpt>
      <trkpt lat="47.48039" lon="-0.55402">
        <ele>22</ele>
        <time>2021-07-04T05:27:22Z</time>
      </trkpt>
      <trkpt lat="47.4805" lon="-0.55395">
        <ele>22</ele>
        <time>2021-07-04T05:27:24Z</time>
      </trkpt>
      <trkpt lat="47.48062" lon="-0.5539">
        <ele>21.6</ele>
        <time>2021-07-04T05:27:26Z</time>
      </trkpt>
      <trkpt lat="47.48073" lon="-0.55383">
        <ele>21.8</ele>
        <time>2021-07-04T05:27:28Z</time>
      </trkpt>
      <trkpt lat="47.48079" lon="-0.55381">
        <ele>22.2</ele>
        <time>2021-07-04T05:27:29Z</time>
      </trkpt>
      <trkpt lat="47.48082" lon="-0.55378">
        <ele>22.6</ele>
        <time>2021-07-04T05:27:30Z</time>
      </trkpt>
      <trkpt lat="47.48092" lon="-0.55369">
        <ele>21.6</ele>
        <time>2021-07-04T05:27:32Z</time>
      </trkpt>
      <trkpt lat="47.48104" lon="-0.55361">
        <ele>21.6</ele>
        <time>2021-07-04T05:27:34Z</time>
      </trkpt>
      <trkpt lat="47.48117" lon="-0.55353">
        <ele>21.8</ele>
        <time>2021-07-04T05:27:36Z</time>
      </trkpt>
      <trkpt lat="47.48123" lon="-0.55349">
        <ele>21.8</ele>
        <time>2021-07-04T05:27:37Z</time>
      </trkpt>
      <trkpt lat="47.48129" lon="-0.55345">
        <ele>22.2</ele>
        <time>2021-07-04T05:27:38Z</time>
      </trkpt>
      <trkpt lat="47.48141" lon="-0.55337">
        <ele>22.8</ele>
        <time>2021-07-04T05:27:40Z</time>
      </trkpt>
      <trkpt lat="47.48152" lon="-0.5533">
        <ele>23.2</ele>
        <time>2021-07-04T05:27:42Z</time>
      </trkpt>
      <trkpt lat="47.48162" lon="-0.55323">
        <ele>23.6</ele>
        <time>2021-07-04T05:27:44Z</time>
      </trkpt>
      <trkpt lat="47.48173" lon="-0.55315">
        <ele>23.8</ele>
        <time>2021-07-04T05:27:46Z</time>
      </trkpt>
      <trkpt lat="47.48184" lon="-0.55308">
        <ele>23.8</ele>
        <time>2021-07-04T05:27:48Z</time>
      </trkpt>
      <trkpt lat="47.48194" lon="-0.55301">
        <ele>23.6</ele>
        <time>2021-07-04T05:27:50Z</time>
      </trkpt>
      <trkpt lat="47.48205" lon="-0.55294">
        <ele>23.8</ele>
        <time>2021-07-04T05:27:52Z</time>
      </trkpt>
      <trkpt lat="47.48216" lon="-0.55286">
        <ele>23.6</ele>
        <time>2021-07-04T05:27:54Z</time>
      </trkpt>
      <trkpt lat="47.4823" lon="-0.55278">
        <ele>22.8</ele>
        <time>2021-07-04T05:27:56Z</time>
      </trkpt>
      <trkpt lat="47.48237" lon="-0.55274">
        <ele>22.6</ele>
        <time>2021-07-04T05:27:57Z</time>
      </trkpt>
      <trkpt lat="47.48243" lon="-0.5527">
        <ele>22.2</ele>
        <time>2021-07-04T05:27:58Z</time>
      </trkpt>
      <trkpt lat="47.4825" lon="-0.55266">
        <ele>22</ele>
        <time>2021-07-04T05:27:59Z</time>
      </trkpt>
      <trkpt lat="47.48256" lon="-0.55262">
        <ele>21.8</ele>
        <time>2021-07-04T05:28:00Z</time>
      </trkpt>
      <trkpt lat="47.4827" lon="-0.55255">
        <ele>21.2</ele>
        <time>2021-07-04T05:28:02Z</time>
      </trkpt>
      <trkpt lat="47.48283" lon="-0.55248">
        <ele>21.4</ele>
        <time>2021-07-04T05:28:04Z</time>
      </trkpt>
      <trkpt lat="47.48289" lon="-0.55245">
        <ele>21.6</ele>
        <time>2021-07-04T05:28:05Z</time>
      </trkpt>
      <trkpt lat="47.48296" lon="-0.55241">
        <ele>21.6</ele>
        <time>2021-07-04T05:28:06Z</time>
      </trkpt>
      <trkpt lat="47.48308" lon="-0.55233">
        <ele>21.6</ele>
        <time>2021-07-04T05:28:08Z</time>
      </trkpt>
      <trkpt lat="47.4832" lon="-0.55225">
        <ele>21.4</ele>
        <time>2021-07-04T05:28:10Z</time>
      </trkpt>
      <trkpt lat="47.48333" lon="-0.55217">
        <ele>21.2</ele>
        <time>2021-07-04T05:28:12Z</time>
      </trkpt>
      <trkpt lat="47.48339" lon="-0.55213">
        <ele>21.4</ele>
        <time>2021-07-04T05:28:13Z</time>
      </trkpt>
      <trkpt lat="47.48345" lon="-0.55209">
        <ele>21.4</ele>
        <time>2021-07-04T05:28:14Z</time>
      </trkpt>
      <trkpt lat="47.48358" lon="-0.55202">
        <ele>21</ele>
        <time>2021-07-04T05:28:16Z</time>
      </trkpt>
      <trkpt lat="47.48371" lon="-0.55194">
        <ele>21.4</ele>
        <time>2021-07-04T05:28:18Z</time>
      </trkpt>
      <trkpt lat="47.48383" lon="-0.55186">
        <ele>21.4</ele>
        <time>2021-07-04T05:28:20Z</time>
      </trkpt>
      <trkpt lat="47.48389" lon="-0.55182">
        <ele>21.4</ele>
        <time>2021-07-04T05:28:21Z</time>
      </trkpt>
      <trkpt lat="47.48395" lon="-0.55177">
        <ele>21.6</ele>
        <time>2021-07-04T05:28:22Z</time>
      </trkpt>
      <trkpt lat="47.48407" lon="-0.55168">
        <ele>21.6</ele>
        <time>2021-07-04T05:28:24Z</time>
      </trkpt>
      <trkpt lat="47.48419" lon="-0.55158">
        <ele>21.8</ele>
        <time>2021-07-04T05:28:26Z</time>
      </trkpt>
      <trkpt lat="47.48431" lon="-0.55149">
        <ele>21.2</ele>
        <time>2021-07-04T05:28:28Z</time>
      </trkpt>
      <trkpt lat="47.48443" lon="-0.55141">
        <ele>21.6</ele>
        <time>2021-07-04T05:28:30Z</time>
      </trkpt>
      <trkpt lat="47.48455" lon="-0.55133">
        <ele>21.6</ele>
        <time>2021-07-04T05:28:32Z</time>
      </trkpt>
      <trkpt lat="47.48468" lon="-0.55126">
        <ele>21.4</ele>
        <time>2021-07-04T05:28:34Z</time>
      </trkpt>
      <trkpt lat="47.48481" lon="-0.5512">
        <ele>21.6</ele>
        <time>2021-07-04T05:28:36Z</time>
      </trkpt>
      <trkpt lat="47.48487" lon="-0.55117">
        <ele>21.8</ele>
        <time>2021-07-04T05:28:37Z</time>
      </trkpt>
      <trkpt lat="47.48494" lon="-0.55115">
        <ele>21.6</ele>
        <time>2021-07-04T05:28:38Z</time>
      </trkpt>
      <trkpt lat="47.48507" lon="-0.55108">
        <ele>21.2</ele>
        <time>2021-07-04T05:28:40Z</time>
      </trkpt>
      <trkpt lat="47.48514" lon="-0.55105">
        <ele>21</ele>
        <time>2021-07-04T05:28:41Z</time>
      </trkpt>
      <trkpt lat="47.4852" lon="-0.55101">
        <ele>21.2</ele>
        <time>2021-07-04T05:28:42Z</time>
      </trkpt>
      <trkpt lat="47.48526" lon="-0.55098">
        <ele>21.8</ele>
        <time>2021-07-04T05:28:43Z</time>
      </trkpt>
      <trkpt lat="47.48531" lon="-0.55095">
        <ele>22.4</ele>
        <time>2021-07-04T05:28:44Z</time>
      </trkpt>
      <trkpt lat="47.48541" lon="-0.55088">
        <ele>23</ele>
        <time>2021-07-04T05:28:46Z</time>
      </trkpt>
      <trkpt lat="47.48546" lon="-0.55084">
        <ele>23.6</ele>
        <time>2021-07-04T05:28:47Z</time>
      </trkpt>
      <trkpt lat="47.48551" lon="-0.55079">
        <ele>23.8</ele>
        <time>2021-07-04T05:28:48Z</time>
      </trkpt>
      <trkpt lat="47.48555" lon="-0.55075">
        <ele>24</ele>
        <time>2021-07-04T05:28:49Z</time>
      </trkpt>
      <trkpt lat="47.4856" lon="-0.5507">
        <ele>23.6</ele>
        <time>2021-07-04T05:28:50Z</time>
      </trkpt>
      <trkpt lat="47.48571" lon="-0.5506">
        <ele>22.8</ele>
        <time>2021-07-04T05:28:52Z</time>
      </trkpt>
      <trkpt lat="47.48577" lon="-0.55054">
        <ele>22.6</ele>
        <time>2021-07-04T05:28:53Z</time>
      </trkpt>
      <trkpt lat="47.48583" lon="-0.55049">
        <ele>22.2</ele>
        <time>2021-07-04T05:28:54Z</time>
      </trkpt>
      <trkpt lat="47.48594" lon="-0.55039">
        <ele>21.8</ele>
        <time>2021-07-04T05:28:56Z</time>
      </trkpt>
      <trkpt lat="47.48605" lon="-0.55028">
        <ele>21.6</ele>
        <time>2021-07-04T05:28:58Z</time>
      </trkpt>
      <trkpt lat="47.48617" lon="-0.55017">
        <ele>21.4</ele>
        <time>2021-07-04T05:29:00Z</time>
      </trkpt>
      <trkpt lat="47.48629" lon="-0.55006">
        <ele>21.4</ele>
        <time>2021-07-04T05:29:02Z</time>
      </trkpt>
      <trkpt lat="47.48635" lon="-0.55">
        <ele>21</ele>
        <time>2021-07-04T05:29:03Z</time>
      </trkpt>
      <trkpt lat="47.48641" lon="-0.54994">
        <ele>20.8</ele>
        <time>2021-07-04T05:29:04Z</time>
      </trkpt>
      <trkpt lat="47.48653" lon="-0.54982">
        <ele>21</ele>
        <time>2021-07-04T05:29:06Z</time>
      </trkpt>
      <trkpt lat="47.48666" lon="-0.54972">
        <ele>21.4</ele>
        <time>2021-07-04T05:29:08Z</time>
      </trkpt>
      <trkpt lat="47.48678" lon="-0.54961">
        <ele>21.6</ele>
        <time>2021-07-04T05:29:10Z</time>
      </trkpt>
      <trkpt lat="47.4869" lon="-0.5495">
        <ele>21.6</ele>
        <time>2021-07-04T05:29:12Z</time>
      </trkpt>
      <trkpt lat="47.48702" lon="-0.54939">
        <ele>21</ele>
        <time>2021-07-04T05:29:14Z</time>
      </trkpt>
      <trkpt lat="47.48714" lon="-0.54928">
        <ele>21.4</ele>
        <time>2021-07-04T05:29:16Z</time>
      </trkpt>
      <trkpt lat="47.4872" lon="-0.54922">
        <ele>21.4</ele>
        <time>2021-07-04T05:29:17Z</time>
      </trkpt>
      <trkpt lat="47.48726" lon="-0.54917">
        <ele>21.4</ele>
        <time>2021-07-04T05:29:18Z</time>
      </trkpt>
      <trkpt lat="47.48738" lon="-0.54906">
        <ele>21.4</ele>
        <time>2021-07-04T05:29:20Z</time>
      </trkpt>
      <trkpt lat="47.4875" lon="-0.54896">
        <ele>22</ele>
        <time>2021-07-04T05:29:22Z</time>
      </trkpt>
      <trkpt lat="47.48756" lon="-0.54891">
        <ele>22.2</ele>
        <time>2021-07-04T05:29:23Z</time>
      </trkpt>
      <trkpt lat="47.48762" lon="-0.54887">
        <ele>21.8</ele>
        <time>2021-07-04T05:29:24Z</time>
      </trkpt>
      <trkpt lat="47.48769" lon="-0.54883">
        <ele>21.6</ele>
        <time>2021-07-04T05:29:25Z</time>
      </trkpt>
      <trkpt lat="47.48775" lon="-0.54878">
        <ele>21.6</ele>
        <time>2021-07-04T05:29:26Z</time>
      </trkpt>
      <trkpt lat="47.48786" lon="-0.54868">
        <ele>21.8</ele>
        <time>2021-07-04T05:29:28Z</time>
      </trkpt>
      <trkpt lat="47.48797" lon="-0.54859">
        <ele>21.6</ele>
        <time>2021-07-04T05:29:30Z</time>
      </trkpt>
      <trkpt lat="47.48809" lon="-0.5485">
        <ele>21.6</ele>
        <time>2021-07-04T05:29:32Z</time>
      </trkpt>
      <trkpt lat="47.48821" lon="-0.54842">
        <ele>21.6</ele>
        <time>2021-07-04T05:29:34Z</time>
      </trkpt>
      <trkpt lat="47.48832" lon="-0.54838">
        <ele>22.6</ele>
        <time>2021-07-04T05:29:36Z</time>
      </trkpt>
      <trkpt lat="47.48836" lon="-0.54837">
        <ele>23.4</ele>
        <time>2021-07-04T05:29:37Z</time>
      </trkpt>
      <trkpt lat="47.48841" lon="-0.54834">
        <ele>24.6</ele>
        <time>2021-07-04T05:29:38Z</time>
      </trkpt>
      <trkpt lat="47.48851" lon="-0.54829">
        <ele>24.8</ele>
        <time>2021-07-04T05:29:40Z</time>
      </trkpt>
      <trkpt lat="47.48861" lon="-0.54822">
        <ele>24.4</ele>
        <time>2021-07-04T05:29:42Z</time>
      </trkpt>
      <trkpt lat="47.48872" lon="-0.54816">
        <ele>24.6</ele>
        <time>2021-07-04T05:29:44Z</time>
      </trkpt>
      <trkpt lat="47.48883" lon="-0.5481">
        <ele>24.8</ele>
        <time>2021-07-04T05:29:46Z</time>
      </trkpt>
      <trkpt lat="47.48894" lon="-0.54802">
        <ele>24.4</ele>
        <time>2021-07-04T05:29:48Z</time>
      </trkpt>
      <trkpt lat="47.48904" lon="-0.54795">
        <ele>23.8</ele>
        <time>2021-07-04T05:29:50Z</time>
      </trkpt>
      <trkpt lat="47.48916" lon="-0.54788">
        <ele>23.8</ele>
        <time>2021-07-04T05:29:52Z</time>
      </trkpt>
      <trkpt lat="47.48927" lon="-0.54779">
        <ele>24.2</ele>
        <time>2021-07-04T05:29:54Z</time>
      </trkpt>
      <trkpt lat="47.48939" lon="-0.54771">
        <ele>24</ele>
        <time>2021-07-04T05:29:56Z</time>
      </trkpt>
      <trkpt lat="47.4895" lon="-0.54763">
        <ele>23.8</ele>
        <time>2021-07-04T05:29:58Z</time>
      </trkpt>
      <trkpt lat="47.48961" lon="-0.54755">
        <ele>23.8</ele>
        <time>2021-07-04T05:30:00Z</time>
      </trkpt>
      <trkpt lat="47.48966" lon="-0.54751">
        <ele>24</ele>
        <time>2021-07-04T05:30:01Z</time>
      </trkpt>
      <trkpt lat="47.48971" lon="-0.54747">
        <ele>24</ele>
        <time>2021-07-04T05:30:02Z</time>
      </trkpt>
      <trkpt lat="47.48981" lon="-0.54738">
        <ele>23</ele>
        <time>2021-07-04T05:30:04Z</time>
      </trkpt>
      <trkpt lat="47.48992" lon="-0.54731">
        <ele>23.2</ele>
        <time>2021-07-04T05:30:06Z</time>
      </trkpt>
      <trkpt lat="47.48997" lon="-0.54726">
        <ele>23.4</ele>
        <time>2021-07-04T05:30:07Z</time>
      </trkpt>
      <trkpt lat="47.49003" lon="-0.54723">
        <ele>23.8</ele>
        <time>2021-07-04T05:30:08Z</time>
      </trkpt>
      <trkpt lat="47.49014" lon="-0.54714">
        <ele>23.8</ele>
        <time>2021-07-04T05:30:10Z</time>
      </trkpt>
      <trkpt lat="47.49025" lon="-0.54705">
        <ele>23.2</ele>
        <time>2021-07-04T05:30:12Z</time>
      </trkpt>
      <trkpt lat="47.4903" lon="-0.547">
        <ele>23.2</ele>
        <time>2021-07-04T05:30:13Z</time>
      </trkpt>
      <trkpt lat="47.49035" lon="-0.54695">
        <ele>23.4</ele>
        <time>2021-07-04T05:30:14Z</time>
      </trkpt>
      <trkpt lat="47.49044" lon="-0.54683">
        <ele>23.2</ele>
        <time>2021-07-04T05:30:16Z</time>
      </trkpt>
      <trkpt lat="47.49049" lon="-0.54676">
        <ele>23</ele>
        <time>2021-07-04T05:30:17Z</time>
      </trkpt>
      <trkpt lat="47.49053" lon="-0.54669">
        <ele>23.2</ele>
        <time>2021-07-04T05:30:18Z</time>
      </trkpt>
      <trkpt lat="47.49062" lon="-0.54655">
        <ele>23.2</ele>
        <time>2021-07-04T05:30:20Z</time>
      </trkpt>
      <trkpt lat="47.49071" lon="-0.54642">
        <ele>22.6</ele>
        <time>2021-07-04T05:30:22Z</time>
      </trkpt>
      <trkpt lat="47.49076" lon="-0.54636">
        <ele>22.2</ele>
        <time>2021-07-04T05:30:23Z</time>
      </trkpt>
      <trkpt lat="47.4908" lon="-0.54629">
        <ele>22</ele>
        <time>2021-07-04T05:30:24Z</time>
      </trkpt>
      <trkpt lat="47.49091" lon="-0.54616">
        <ele>22.2</ele>
        <time>2021-07-04T05:30:26Z</time>
      </trkpt>
      <trkpt lat="47.49101" lon="-0.54602">
        <ele>21.8</ele>
        <time>2021-07-04T05:30:28Z</time>
      </trkpt>
      <trkpt lat="47.4911" lon="-0.54588">
        <ele>22</ele>
        <time>2021-07-04T05:30:30Z</time>
      </trkpt>
      <trkpt lat="47.4912" lon="-0.54574">
        <ele>21.8</ele>
        <time>2021-07-04T05:30:32Z</time>
      </trkpt>
      <trkpt lat="47.49129" lon="-0.54561">
        <ele>22.2</ele>
        <time>2021-07-04T05:30:34Z</time>
      </trkpt>
      <trkpt lat="47.49138" lon="-0.54548">
        <ele>22.2</ele>
        <time>2021-07-04T05:30:36Z</time>
      </trkpt>
      <trkpt lat="47.49143" lon="-0.54541">
        <ele>22</ele>
        <time>2021-07-04T05:30:37Z</time>
      </trkpt>
      <trkpt lat="47.49147" lon="-0.54535">
        <ele>22</ele>
        <time>2021-07-04T05:30:38Z</time>
      </trkpt>
      <trkpt lat="47.49157" lon="-0.54523">
        <ele>22.4</ele>
        <time>2021-07-04T05:30:40Z</time>
      </trkpt>
      <trkpt lat="47.49167" lon="-0.54509">
        <ele>22.4</ele>
        <time>2021-07-04T05:30:42Z</time>
      </trkpt>
      <trkpt lat="47.49172" lon="-0.54503">
        <ele>22.2</ele>
        <time>2021-07-04T05:30:43Z</time>
      </trkpt>
      <trkpt lat="47.49176" lon="-0.54497">
        <ele>22</ele>
        <time>2021-07-04T05:30:44Z</time>
      </trkpt>
      <trkpt lat="47.49186" lon="-0.54484">
        <ele>22.2</ele>
        <time>2021-07-04T05:30:46Z</time>
      </trkpt>
      <trkpt lat="47.49196" lon="-0.54473">
        <ele>22.4</ele>
        <time>2021-07-04T05:30:48Z</time>
      </trkpt>
      <trkpt lat="47.49204" lon="-0.54462">
        <ele>22.6</ele>
        <time>2021-07-04T05:30:50Z</time>
      </trkpt>
      <trkpt lat="47.49214" lon="-0.54449">
        <ele>22.6</ele>
        <time>2021-07-04T05:30:52Z</time>
      </trkpt>
      <trkpt lat="47.49225" lon="-0.54437">
        <ele>22.6</ele>
        <time>2021-07-04T05:30:54Z</time>
      </trkpt>
      <trkpt lat="47.49235" lon="-0.54425">
        <ele>23</ele>
        <time>2021-07-04T05:30:56Z</time>
      </trkpt>
      <trkpt lat="47.4924" lon="-0.54419">
        <ele>23</ele>
        <time>2021-07-04T05:30:57Z</time>
      </trkpt>
      <trkpt lat="47.49245" lon="-0.54414">
        <ele>23.2</ele>
        <time>2021-07-04T05:30:58Z</time>
      </trkpt>
      <trkpt lat="47.49254" lon="-0.54406">
        <ele>23.4</ele>
        <time>2021-07-04T05:31:00Z</time>
      </trkpt>
      <trkpt lat="47.49259" lon="-0.54402">
        <ele>23.4</ele>
        <time>2021-07-04T05:31:02Z</time>
      </trkpt>
      <trkpt lat="47.49259" lon="-0.54402">
        <ele>24</ele>
        <time>2021-07-04T05:31:04Z</time>
      </trkpt>
      <trkpt lat="47.49278" lon="-0.54392">
        <ele>30.6</ele>
        <time>2021-07-04T05:31:43Z</time>
      </trkpt>
      <trkpt lat="47.49284" lon="-0.54397">
        <ele>30.4</ele>
        <time>2021-07-04T05:31:45Z</time>
      </trkpt>
      <trkpt lat="47.49291" lon="-0.54406">
        <ele>30</ele>
        <time>2021-07-04T05:31:47Z</time>
      </trkpt>
      <trkpt lat="47.49298" lon="-0.54415">
        <ele>29.8</ele>
        <time>2021-07-04T05:31:49Z</time>
      </trkpt>
      <trkpt lat="47.49301" lon="-0.54421">
        <ele>29.8</ele>
        <time>2021-07-04T05:31:50Z</time>
      </trkpt>
      <trkpt lat="47.49305" lon="-0.54425">
        <ele>29.6</ele>
        <time>2021-07-04T05:31:51Z</time>
      </trkpt>
      <trkpt lat="47.49309" lon="-0.5443">
        <ele>29.6</ele>
        <time>2021-07-04T05:31:52Z</time>
      </trkpt>
      <trkpt lat="47.49312" lon="-0.54435">
        <ele>29.6</ele>
        <time>2021-07-04T05:31:53Z</time>
      </trkpt>
      <trkpt lat="47.49319" lon="-0.54446">
        <ele>29.4</ele>
        <time>2021-07-04T05:31:55Z</time>
      </trkpt>
      <trkpt lat="47.49323" lon="-0.54452">
        <ele>29.2</ele>
        <time>2021-07-04T05:31:56Z</time>
      </trkpt>
      <trkpt lat="47.49326" lon="-0.54458">
        <ele>29.4</ele>
        <time>2021-07-04T05:31:57Z</time>
      </trkpt>
      <trkpt lat="47.49334" lon="-0.54467">
        <ele>29.2</ele>
        <time>2021-07-04T05:31:59Z</time>
      </trkpt>
      <trkpt lat="47.49342" lon="-0.54479">
        <ele>29.2</ele>
        <time>2021-07-04T05:32:01Z</time>
      </trkpt>
      <trkpt lat="47.49347" lon="-0.54485">
        <ele>29.2</ele>
        <time>2021-07-04T05:32:02Z</time>
      </trkpt>
      <trkpt lat="47.49351" lon="-0.54491">
        <ele>29</ele>
        <time>2021-07-04T05:32:03Z</time>
      </trkpt>
      <trkpt lat="47.49361" lon="-0.54504">
        <ele>29</ele>
        <time>2021-07-04T05:32:05Z</time>
      </trkpt>
      <trkpt lat="47.4937" lon="-0.54517">
        <ele>28.8</ele>
        <time>2021-07-04T05:32:07Z</time>
      </trkpt>
      <trkpt lat="47.49374" lon="-0.54523">
        <ele>28.8</ele>
        <time>2021-07-04T05:32:08Z</time>
      </trkpt>
      <trkpt lat="47.49378" lon="-0.54528">
        <ele>28.8</ele>
        <time>2021-07-04T05:32:09Z</time>
      </trkpt>
      <trkpt lat="47.49386" lon="-0.5454">
        <ele>29</ele>
        <time>2021-07-04T05:32:11Z</time>
      </trkpt>
      <trkpt lat="47.49395" lon="-0.54552">
        <ele>29</ele>
        <time>2021-07-04T05:32:13Z</time>
      </trkpt>
      <trkpt lat="47.49403" lon="-0.54563">
        <ele>29</ele>
        <time>2021-07-04T05:32:15Z</time>
      </trkpt>
      <trkpt lat="47.49411" lon="-0.54576">
        <ele>29.2</ele>
        <time>2021-07-04T05:32:17Z</time>
      </trkpt>
      <trkpt lat="47.49419" lon="-0.54588">
        <ele>29.2</ele>
        <time>2021-07-04T05:32:19Z</time>
      </trkpt>
      <trkpt lat="47.49428" lon="-0.546">
        <ele>29</ele>
        <time>2021-07-04T05:32:21Z</time>
      </trkpt>
      <trkpt lat="47.49437" lon="-0.54614">
        <ele>29</ele>
        <time>2021-07-04T05:32:23Z</time>
      </trkpt>
      <trkpt lat="47.49446" lon="-0.54628">
        <ele>29</ele>
        <time>2021-07-04T05:32:25Z</time>
      </trkpt>
      <trkpt lat="47.49455" lon="-0.54641">
        <ele>29</ele>
        <time>2021-07-04T05:32:27Z</time>
      </trkpt>
      <trkpt lat="47.49464" lon="-0.54654">
        <ele>29.2</ele>
        <time>2021-07-04T05:32:29Z</time>
      </trkpt>
      <trkpt lat="47.49474" lon="-0.54667">
        <ele>29.4</ele>
        <time>2021-07-04T05:32:31Z</time>
      </trkpt>
      <trkpt lat="47.49483" lon="-0.54681">
        <ele>29.4</ele>
        <time>2021-07-04T05:32:33Z</time>
      </trkpt>
      <trkpt lat="47.49493" lon="-0.54693">
        <ele>29.6</ele>
        <time>2021-07-04T05:32:35Z</time>
      </trkpt>
      <trkpt lat="47.49502" lon="-0.54706">
        <ele>29.8</ele>
        <time>2021-07-04T05:32:37Z</time>
      </trkpt>
      <trkpt lat="47.49511" lon="-0.54718">
        <ele>29.8</ele>
        <time>2021-07-04T05:32:39Z</time>
      </trkpt>
      <trkpt lat="47.4952" lon="-0.54731">
        <ele>30</ele>
        <time>2021-07-04T05:32:41Z</time>
      </trkpt>
      <trkpt lat="47.49529" lon="-0.54743">
        <ele>30.4</ele>
        <time>2021-07-04T05:32:43Z</time>
      </trkpt>
      <trkpt lat="47.49533" lon="-0.54749">
        <ele>30.4</ele>
        <time>2021-07-04T05:32:44Z</time>
      </trkpt>
      <trkpt lat="47.49538" lon="-0.54755">
        <ele>30.2</ele>
        <time>2021-07-04T05:32:45Z</time>
      </trkpt>
      <trkpt lat="47.49547" lon="-0.54767">
        <ele>30.4</ele>
        <time>2021-07-04T05:32:47Z</time>
      </trkpt>
      <trkpt lat="47.49552" lon="-0.54773">
        <ele>30.6</ele>
        <time>2021-07-04T05:32:48Z</time>
      </trkpt>
      <trkpt lat="47.49556" lon="-0.54779">
        <ele>30.8</ele>
        <time>2021-07-04T05:32:49Z</time>
      </trkpt>
      <trkpt lat="47.49565" lon="-0.54791">
        <ele>31.6</ele>
        <time>2021-07-04T05:32:51Z</time>
      </trkpt>
      <trkpt lat="47.49569" lon="-0.54797">
        <ele>31.8</ele>
        <time>2021-07-04T05:32:52Z</time>
      </trkpt>
      <trkpt lat="47.49574" lon="-0.54803">
        <ele>32</ele>
        <time>2021-07-04T05:32:53Z</time>
      </trkpt>
      <trkpt lat="47.49583" lon="-0.54815">
        <ele>32</ele>
        <time>2021-07-04T05:32:55Z</time>
      </trkpt>
      <trkpt lat="47.49592" lon="-0.54828">
        <ele>31.6</ele>
        <time>2021-07-04T05:32:57Z</time>
      </trkpt>
      <trkpt lat="47.49601" lon="-0.54842">
        <ele>31.6</ele>
        <time>2021-07-04T05:32:59Z</time>
      </trkpt>
      <trkpt lat="47.49609" lon="-0.54854">
        <ele>31.8</ele>
        <time>2021-07-04T05:33:01Z</time>
      </trkpt>
      <trkpt lat="47.49617" lon="-0.54867">
        <ele>32</ele>
        <time>2021-07-04T05:33:03Z</time>
      </trkpt>
      <trkpt lat="47.49625" lon="-0.54881">
        <ele>32.2</ele>
        <time>2021-07-04T05:33:05Z</time>
      </trkpt>
      <trkpt lat="47.49633" lon="-0.54894">
        <ele>32.2</ele>
        <time>2021-07-04T05:33:07Z</time>
      </trkpt>
      <trkpt lat="47.49641" lon="-0.54907">
        <ele>32.4</ele>
        <time>2021-07-04T05:33:09Z</time>
      </trkpt>
      <trkpt lat="47.49649" lon="-0.5492">
        <ele>32.6</ele>
        <time>2021-07-04T05:33:11Z</time>
      </trkpt>
      <trkpt lat="47.49652" lon="-0.54927">
        <ele>33</ele>
        <time>2021-07-04T05:33:12Z</time>
      </trkpt>
      <trkpt lat="47.49657" lon="-0.54933">
        <ele>33</ele>
        <time>2021-07-04T05:33:13Z</time>
      </trkpt>
      <trkpt lat="47.49664" lon="-0.54946">
        <ele>33.2</ele>
        <time>2021-07-04T05:33:15Z</time>
      </trkpt>
      <trkpt lat="47.49668" lon="-0.54952">
        <ele>33.4</ele>
        <time>2021-07-04T05:33:16Z</time>
      </trkpt>
      <trkpt lat="47.49672" lon="-0.54959">
        <ele>33.6</ele>
        <time>2021-07-04T05:33:17Z</time>
      </trkpt>
      <trkpt lat="47.49679" lon="-0.54972">
        <ele>33.8</ele>
        <time>2021-07-04T05:33:19Z</time>
      </trkpt>
      <trkpt lat="47.49687" lon="-0.54986">
        <ele>33.8</ele>
        <time>2021-07-04T05:33:21Z</time>
      </trkpt>
      <trkpt lat="47.49693" lon="-0.54998">
        <ele>33.8</ele>
        <time>2021-07-04T05:33:23Z</time>
      </trkpt>
      <trkpt lat="47.49697" lon="-0.55004">
        <ele>34</ele>
        <time>2021-07-04T05:33:24Z</time>
      </trkpt>
      <trkpt lat="47.497" lon="-0.55011">
        <ele>34</ele>
        <time>2021-07-04T05:33:25Z</time>
      </trkpt>
      <trkpt lat="47.49707" lon="-0.55025">
        <ele>34.2</ele>
        <time>2021-07-04T05:33:27Z</time>
      </trkpt>
      <trkpt lat="47.4971" lon="-0.55031">
        <ele>34.2</ele>
        <time>2021-07-04T05:33:28Z</time>
      </trkpt>
      <trkpt lat="47.49713" lon="-0.55036">
        <ele>34.2</ele>
        <time>2021-07-04T05:33:29Z</time>
      </trkpt>
      <trkpt lat="47.49719" lon="-0.5505">
        <ele>34.4</ele>
        <time>2021-07-04T05:33:31Z</time>
      </trkpt>
      <trkpt lat="47.49724" lon="-0.55064">
        <ele>34.4</ele>
        <time>2021-07-04T05:33:33Z</time>
      </trkpt>
      <trkpt lat="47.49727" lon="-0.55072">
        <ele>34.6</ele>
        <time>2021-07-04T05:33:34Z</time>
      </trkpt>
      <trkpt lat="47.49729" lon="-0.55079">
        <ele>34.6</ele>
        <time>2021-07-04T05:33:35Z</time>
      </trkpt>
      <trkpt lat="47.49733" lon="-0.55094">
        <ele>34.8</ele>
        <time>2021-07-04T05:33:37Z</time>
      </trkpt>
      <trkpt lat="47.49737" lon="-0.55108">
        <ele>35</ele>
        <time>2021-07-04T05:33:39Z</time>
      </trkpt>
      <trkpt lat="47.49738" lon="-0.55114">
        <ele>35</ele>
        <time>2021-07-04T05:33:40Z</time>
      </trkpt>
      <trkpt lat="47.4974" lon="-0.55122">
        <ele>35</ele>
        <time>2021-07-04T05:33:41Z</time>
      </trkpt>
      <trkpt lat="47.49745" lon="-0.55137">
        <ele>35.2</ele>
        <time>2021-07-04T05:33:43Z</time>
      </trkpt>
      <trkpt lat="47.49749" lon="-0.55153">
        <ele>35.2</ele>
        <time>2021-07-04T05:33:45Z</time>
      </trkpt>
      <trkpt lat="47.49753" lon="-0.55168">
        <ele>35.4</ele>
        <time>2021-07-04T05:33:47Z</time>
      </trkpt>
      <trkpt lat="47.49757" lon="-0.55181">
        <ele>35.8</ele>
        <time>2021-07-04T05:33:49Z</time>
      </trkpt>
      <trkpt lat="47.49759" lon="-0.55188">
        <ele>35.8</ele>
        <time>2021-07-04T05:33:50Z</time>
      </trkpt>
      <trkpt lat="47.49761" lon="-0.55195">
        <ele>36</ele>
        <time>2021-07-04T05:33:51Z</time>
      </trkpt>
      <trkpt lat="47.49765" lon="-0.55208">
        <ele>36.2</ele>
        <time>2021-07-04T05:33:53Z</time>
      </trkpt>
      <trkpt lat="47.49769" lon="-0.55221">
        <ele>36.2</ele>
        <time>2021-07-04T05:33:55Z</time>
      </trkpt>
      <trkpt lat="47.49772" lon="-0.55234">
        <ele>36.4</ele>
        <time>2021-07-04T05:33:57Z</time>
      </trkpt>
      <trkpt lat="47.49776" lon="-0.55246">
        <ele>36.6</ele>
        <time>2021-07-04T05:33:59Z</time>
      </trkpt>
      <trkpt lat="47.49777" lon="-0.55253">
        <ele>36.6</ele>
        <time>2021-07-04T05:34:00Z</time>
      </trkpt>
      <trkpt lat="47.4978" lon="-0.55262">
        <ele>36.6</ele>
        <time>2021-07-04T05:34:01Z</time>
      </trkpt>
      <trkpt lat="47.49784" lon="-0.55279">
        <ele>36.8</ele>
        <time>2021-07-04T05:34:03Z</time>
      </trkpt>
      <trkpt lat="47.49789" lon="-0.55296">
        <ele>37</ele>
        <time>2021-07-04T05:34:05Z</time>
      </trkpt>
      <trkpt lat="47.4979" lon="-0.55304">
        <ele>37.2</ele>
        <time>2021-07-04T05:34:06Z</time>
      </trkpt>
      <trkpt lat="47.49793" lon="-0.55312">
        <ele>37.2</ele>
        <time>2021-07-04T05:34:07Z</time>
      </trkpt>
      <trkpt lat="47.49794" lon="-0.5532">
        <ele>37.4</ele>
        <time>2021-07-04T05:34:08Z</time>
      </trkpt>
      <trkpt lat="47.49797" lon="-0.5533">
        <ele>37.2</ele>
        <time>2021-07-04T05:34:09Z</time>
      </trkpt>
      <trkpt lat="47.49801" lon="-0.55344">
        <ele>37.4</ele>
        <time>2021-07-04T05:34:11Z</time>
      </trkpt>
      <trkpt lat="47.49805" lon="-0.5536">
        <ele>37.6</ele>
        <time>2021-07-04T05:34:13Z</time>
      </trkpt>
      <trkpt lat="47.49809" lon="-0.55376">
        <ele>37.6</ele>
        <time>2021-07-04T05:34:15Z</time>
      </trkpt>
      <trkpt lat="47.49812" lon="-0.55391">
        <ele>37.8</ele>
        <time>2021-07-04T05:34:17Z</time>
      </trkpt>
      <trkpt lat="47.49817" lon="-0.55406">
        <ele>38.2</ele>
        <time>2021-07-04T05:34:19Z</time>
      </trkpt>
      <trkpt lat="47.49818" lon="-0.55421">
        <ele>38.6</ele>
        <time>2021-07-04T05:34:21Z</time>
      </trkpt>
      <trkpt lat="47.49817" lon="-0.55426">
        <ele>38.8</ele>
        <time>2021-07-04T05:34:22Z</time>
      </trkpt>
      <trkpt lat="47.49817" lon="-0.55433">
        <ele>39</ele>
        <time>2021-07-04T05:34:23Z</time>
      </trkpt>
      <trkpt lat="47.49822" lon="-0.55441">
        <ele>39.2</ele>
        <time>2021-07-04T05:34:25Z</time>
      </trkpt>
      <trkpt lat="47.49827" lon="-0.55455">
        <ele>39.2</ele>
        <time>2021-07-04T05:34:27Z</time>
      </trkpt>
      <trkpt lat="47.49831" lon="-0.55471">
        <ele>38.8</ele>
        <time>2021-07-04T05:34:29Z</time>
      </trkpt>
      <trkpt lat="47.49835" lon="-0.55487">
        <ele>38.8</ele>
        <time>2021-07-04T05:34:31Z</time>
      </trkpt>
      <trkpt lat="47.49837" lon="-0.555">
        <ele>38.8</ele>
        <time>2021-07-04T05:34:33Z</time>
      </trkpt>
      <trkpt lat="47.4984" lon="-0.55507">
        <ele>38.6</ele>
        <time>2021-07-04T05:34:34Z</time>
      </trkpt>
      <trkpt lat="47.49842" lon="-0.55515">
        <ele>38.8</ele>
        <time>2021-07-04T05:34:35Z</time>
      </trkpt>
      <trkpt lat="47.49845" lon="-0.55522">
        <ele>39</ele>
        <time>2021-07-04T05:34:36Z</time>
      </trkpt>
      <trkpt lat="47.49847" lon="-0.55529">
        <ele>39</ele>
        <time>2021-07-04T05:34:37Z</time>
      </trkpt>
      <trkpt lat="47.4985" lon="-0.55542">
        <ele>39.2</ele>
        <time>2021-07-04T05:34:39Z</time>
      </trkpt>
      <trkpt lat="47.49855" lon="-0.55557">
        <ele>39.2</ele>
        <time>2021-07-04T05:34:41Z</time>
      </trkpt>
      <trkpt lat="47.49859" lon="-0.55572">
        <ele>39.6</ele>
        <time>2021-07-04T05:34:43Z</time>
      </trkpt>
      <trkpt lat="47.49862" lon="-0.5558">
        <ele>39.6</ele>
        <time>2021-07-04T05:34:44Z</time>
      </trkpt>
      <trkpt lat="47.49864" lon="-0.55588">
        <ele>39.6</ele>
        <time>2021-07-04T05:34:45Z</time>
      </trkpt>
      <trkpt lat="47.49869" lon="-0.55603">
        <ele>39.8</ele>
        <time>2021-07-04T05:34:47Z</time>
      </trkpt>
      <trkpt lat="47.4987" lon="-0.5561">
        <ele>39.8</ele>
        <time>2021-07-04T05:34:48Z</time>
      </trkpt>
      <trkpt lat="47.49872" lon="-0.55617">
        <ele>40</ele>
        <time>2021-07-04T05:34:49Z</time>
      </trkpt>
      <trkpt lat="47.49874" lon="-0.55626">
        <ele>40.2</ele>
        <time>2021-07-04T05:34:50Z</time>
      </trkpt>
      <trkpt lat="47.49876" lon="-0.55635">
        <ele>40.2</ele>
        <time>2021-07-04T05:34:51Z</time>
      </trkpt>
      <trkpt lat="47.49878" lon="-0.55642">
        <ele>40.2</ele>
        <time>2021-07-04T05:34:52Z</time>
      </trkpt>
      <trkpt lat="47.49879" lon="-0.5565">
        <ele>40.4</ele>
        <time>2021-07-04T05:34:53Z</time>
      </trkpt>
      <trkpt lat="47.49883" lon="-0.55668">
        <ele>40.6</ele>
        <time>2021-07-04T05:34:55Z</time>
      </trkpt>
      <trkpt lat="47.49887" lon="-0.55685">
        <ele>40.6</ele>
        <time>2021-07-04T05:34:57Z</time>
      </trkpt>
      <trkpt lat="47.49889" lon="-0.557">
        <ele>40.6</ele>
        <time>2021-07-04T05:34:59Z</time>
      </trkpt>
      <trkpt lat="47.49892" lon="-0.55718">
        <ele>40.8</ele>
        <time>2021-07-04T05:35:01Z</time>
      </trkpt>
      <trkpt lat="47.49895" lon="-0.55735">
        <ele>40.8</ele>
        <time>2021-07-04T05:35:03Z</time>
      </trkpt>
      <trkpt lat="47.49896" lon="-0.55744">
        <ele>40.8</ele>
        <time>2021-07-04T05:35:04Z</time>
      </trkpt>
      <trkpt lat="47.49897" lon="-0.55754">
        <ele>41</ele>
        <time>2021-07-04T05:35:05Z</time>
      </trkpt>
      <trkpt lat="47.499" lon="-0.55773">
        <ele>41.2</ele>
        <time>2021-07-04T05:35:07Z</time>
      </trkpt>
      <trkpt lat="47.49901" lon="-0.55782">
        <ele>41.2</ele>
        <time>2021-07-04T05:35:08Z</time>
      </trkpt>
      <trkpt lat="47.49901" lon="-0.55791">
        <ele>41.2</ele>
        <time>2021-07-04T05:35:09Z</time>
      </trkpt>
      <trkpt lat="47.49902" lon="-0.55808">
        <ele>41.6</ele>
        <time>2021-07-04T05:35:11Z</time>
      </trkpt>
      <trkpt lat="47.49902" lon="-0.55826">
        <ele>41.8</ele>
        <time>2021-07-04T05:35:13Z</time>
      </trkpt>
      <trkpt lat="47.49903" lon="-0.55843">
        <ele>42</ele>
        <time>2021-07-04T05:35:15Z</time>
      </trkpt>
      <trkpt lat="47.49904" lon="-0.5586">
        <ele>42.2</ele>
        <time>2021-07-04T05:35:17Z</time>
      </trkpt>
      <trkpt lat="47.49905" lon="-0.55878">
        <ele>42.4</ele>
        <time>2021-07-04T05:35:19Z</time>
      </trkpt>
      <trkpt lat="47.49905" lon="-0.55887">
        <ele>42.6</ele>
        <time>2021-07-04T05:35:20Z</time>
      </trkpt>
      <trkpt lat="47.49905" lon="-0.55897">
        <ele>42.6</ele>
        <time>2021-07-04T05:35:21Z</time>
      </trkpt>
      <trkpt lat="47.49905" lon="-0.55907">
        <ele>42.6</ele>
        <time>2021-07-04T05:35:22Z</time>
      </trkpt>
      <trkpt lat="47.49905" lon="-0.55917">
        <ele>42.6</ele>
        <time>2021-07-04T05:35:23Z</time>
      </trkpt>
      <trkpt lat="47.49904" lon="-0.55935">
        <ele>42.6</ele>
        <time>2021-07-04T05:35:25Z</time>
      </trkpt>
      <trkpt lat="47.49904" lon="-0.55944">
        <ele>42.6</ele>
        <time>2021-07-04T05:35:26Z</time>
      </trkpt>
      <trkpt lat="47.49904" lon="-0.55954">
        <ele>42.8</ele>
        <time>2021-07-04T05:35:27Z</time>
      </trkpt>
      <trkpt lat="47.49904" lon="-0.55973">
        <ele>43.2</ele>
        <time>2021-07-04T05:35:29Z</time>
      </trkpt>
      <trkpt lat="47.49902" lon="-0.5599">
        <ele>43.4</ele>
        <time>2021-07-04T05:35:31Z</time>
      </trkpt>
      <trkpt lat="47.49902" lon="-0.55997">
        <ele>43.4</ele>
        <time>2021-07-04T05:35:32Z</time>
      </trkpt>
      <trkpt lat="47.499" lon="-0.56005">
        <ele>43.4</ele>
        <time>2021-07-04T05:35:33Z</time>
      </trkpt>
      <trkpt lat="47.499" lon="-0.56024">
        <ele>43.6</ele>
        <time>2021-07-04T05:35:35Z</time>
      </trkpt>
      <trkpt lat="47.499" lon="-0.56033">
        <ele>43.6</ele>
        <time>2021-07-04T05:35:36Z</time>
      </trkpt>
      <trkpt lat="47.49899" lon="-0.56042">
        <ele>43.6</ele>
        <time>2021-07-04T05:35:37Z</time>
      </trkpt>
      <trkpt lat="47.49898" lon="-0.56059">
        <ele>43.6</ele>
        <time>2021-07-04T05:35:39Z</time>
      </trkpt>
      <trkpt lat="47.49897" lon="-0.56076">
        <ele>44</ele>
        <time>2021-07-04T05:35:41Z</time>
      </trkpt>
      <trkpt lat="47.49896" lon="-0.56093">
        <ele>44</ele>
        <time>2021-07-04T05:35:43Z</time>
      </trkpt>
      <trkpt lat="47.49896" lon="-0.56102">
        <ele>44</ele>
        <time>2021-07-04T05:35:44Z</time>
      </trkpt>
      <trkpt lat="47.49895" lon="-0.5611">
        <ele>44.2</ele>
        <time>2021-07-04T05:35:45Z</time>
      </trkpt>
      <trkpt lat="47.49895" lon="-0.56128">
        <ele>44.4</ele>
        <time>2021-07-04T05:35:47Z</time>
      </trkpt>
      <trkpt lat="47.49893" lon="-0.56136">
        <ele>44.4</ele>
        <time>2021-07-04T05:35:48Z</time>
      </trkpt>
      <trkpt lat="47.49892" lon="-0.56144">
        <ele>44.4</ele>
        <time>2021-07-04T05:35:49Z</time>
      </trkpt>
      <trkpt lat="47.49891" lon="-0.56162">
        <ele>44.6</ele>
        <time>2021-07-04T05:35:51Z</time>
      </trkpt>
      <trkpt lat="47.49891" lon="-0.5618">
        <ele>44.6</ele>
        <time>2021-07-04T05:35:53Z</time>
      </trkpt>
      <trkpt lat="47.4989" lon="-0.56199">
        <ele>45</ele>
        <time>2021-07-04T05:35:55Z</time>
      </trkpt>
      <trkpt lat="47.49889" lon="-0.56217">
        <ele>45.2</ele>
        <time>2021-07-04T05:35:57Z</time>
      </trkpt>
      <trkpt lat="47.49888" lon="-0.56236">
        <ele>45.4</ele>
        <time>2021-07-04T05:35:59Z</time>
      </trkpt>
      <trkpt lat="47.49887" lon="-0.56256">
        <ele>45.4</ele>
        <time>2021-07-04T05:36:01Z</time>
      </trkpt>
      <trkpt lat="47.49888" lon="-0.56266">
        <ele>45.6</ele>
        <time>2021-07-04T05:36:02Z</time>
      </trkpt>
      <trkpt lat="47.49887" lon="-0.56276">
        <ele>46.2</ele>
        <time>2021-07-04T05:36:03Z</time>
      </trkpt>
      <trkpt lat="47.49887" lon="-0.56294">
        <ele>46.2</ele>
        <time>2021-07-04T05:36:05Z</time>
      </trkpt>
      <trkpt lat="47.49886" lon="-0.56313">
        <ele>46.4</ele>
        <time>2021-07-04T05:36:07Z</time>
      </trkpt>
      <trkpt lat="47.49885" lon="-0.56331">
        <ele>46.6</ele>
        <time>2021-07-04T05:36:09Z</time>
      </trkpt>
      <trkpt lat="47.49884" lon="-0.56349">
        <ele>46.6</ele>
        <time>2021-07-04T05:36:11Z</time>
      </trkpt>
      <trkpt lat="47.49884" lon="-0.56358">
        <ele>46.6</ele>
        <time>2021-07-04T05:36:12Z</time>
      </trkpt>
      <trkpt lat="47.49883" lon="-0.56367">
        <ele>46.8</ele>
        <time>2021-07-04T05:36:13Z</time>
      </trkpt>
      <trkpt lat="47.49882" lon="-0.56386">
        <ele>46.8</ele>
        <time>2021-07-04T05:36:15Z</time>
      </trkpt>
      <trkpt lat="47.49881" lon="-0.56395">
        <ele>46.8</ele>
        <time>2021-07-04T05:36:16Z</time>
      </trkpt>
      <trkpt lat="47.49881" lon="-0.56405">
        <ele>47</ele>
        <time>2021-07-04T05:36:17Z</time>
      </trkpt>
      <trkpt lat="47.4988" lon="-0.56425">
        <ele>47.4</ele>
        <time>2021-07-04T05:36:19Z</time>
      </trkpt>
      <trkpt lat="47.49879" lon="-0.56444">
        <ele>47.6</ele>
        <time>2021-07-04T05:36:21Z</time>
      </trkpt>
      <trkpt lat="47.49879" lon="-0.56453">
        <ele>47.8</ele>
        <time>2021-07-04T05:36:22Z</time>
      </trkpt>
      <trkpt lat="47.49878" lon="-0.56462">
        <ele>47.6</ele>
        <time>2021-07-04T05:36:23Z</time>
      </trkpt>
      <trkpt lat="47.49877" lon="-0.5648">
        <ele>47.8</ele>
        <time>2021-07-04T05:36:25Z</time>
      </trkpt>
      <trkpt lat="47.49875" lon="-0.56496">
        <ele>48</ele>
        <time>2021-07-04T05:36:27Z</time>
      </trkpt>
      <trkpt lat="47.49874" lon="-0.56513">
        <ele>48.2</ele>
        <time>2021-07-04T05:36:29Z</time>
      </trkpt>
      <trkpt lat="47.49874" lon="-0.56532">
        <ele>48.4</ele>
        <time>2021-07-04T05:36:31Z</time>
      </trkpt>
      <trkpt lat="47.49874" lon="-0.56542">
        <ele>48.4</ele>
        <time>2021-07-04T05:36:32Z</time>
      </trkpt>
      <trkpt lat="47.49875" lon="-0.56552">
        <ele>48.6</ele>
        <time>2021-07-04T05:36:33Z</time>
      </trkpt>
      <trkpt lat="47.49876" lon="-0.5656">
        <ele>48.8</ele>
        <time>2021-07-04T05:36:34Z</time>
      </trkpt>
      <trkpt lat="47.49876" lon="-0.56569">
        <ele>48.8</ele>
        <time>2021-07-04T05:36:35Z</time>
      </trkpt>
      <trkpt lat="47.49877" lon="-0.56588">
        <ele>48.8</ele>
        <time>2021-07-04T05:36:37Z</time>
      </trkpt>
      <trkpt lat="47.49877" lon="-0.56606">
        <ele>49</ele>
        <time>2021-07-04T05:36:39Z</time>
      </trkpt>
      <trkpt lat="47.49878" lon="-0.56625">
        <ele>49.2</ele>
        <time>2021-07-04T05:36:41Z</time>
      </trkpt>
      <trkpt lat="47.49879" lon="-0.56643">
        <ele>49.4</ele>
        <time>2021-07-04T05:36:43Z</time>
      </trkpt>
      <trkpt lat="47.4988" lon="-0.56659">
        <ele>49.8</ele>
        <time>2021-07-04T05:36:45Z</time>
      </trkpt>
      <trkpt lat="47.49881" lon="-0.56676">
        <ele>49.6</ele>
        <time>2021-07-04T05:36:47Z</time>
      </trkpt>
      <trkpt lat="47.49882" lon="-0.56694">
        <ele>49.8</ele>
        <time>2021-07-04T05:36:49Z</time>
      </trkpt>
      <trkpt lat="47.49885" lon="-0.5671">
        <ele>50</ele>
        <time>2021-07-04T05:36:51Z</time>
      </trkpt>
      <trkpt lat="47.49888" lon="-0.56725">
        <ele>50.2</ele>
        <time>2021-07-04T05:36:53Z</time>
      </trkpt>
      <trkpt lat="47.4989" lon="-0.56739">
        <ele>50.4</ele>
        <time>2021-07-04T05:36:55Z</time>
      </trkpt>
      <trkpt lat="47.49892" lon="-0.56754">
        <ele>50.6</ele>
        <time>2021-07-04T05:36:57Z</time>
      </trkpt>
      <trkpt lat="47.49893" lon="-0.56769">
        <ele>50.8</ele>
        <time>2021-07-04T05:36:59Z</time>
      </trkpt>
      <trkpt lat="47.49895" lon="-0.56784">
        <ele>50.8</ele>
        <time>2021-07-04T05:37:01Z</time>
      </trkpt>
      <trkpt lat="47.49897" lon="-0.56791">
        <ele>50.8</ele>
        <time>2021-07-04T05:37:02Z</time>
      </trkpt>
      <trkpt lat="47.49898" lon="-0.56799">
        <ele>51</ele>
        <time>2021-07-04T05:37:03Z</time>
      </trkpt>
      <trkpt lat="47.49902" lon="-0.56817">
        <ele>50.8</ele>
        <time>2021-07-04T05:37:05Z</time>
      </trkpt>
      <trkpt lat="47.49905" lon="-0.56833">
        <ele>51.2</ele>
        <time>2021-07-04T05:37:07Z</time>
      </trkpt>
      <trkpt lat="47.49907" lon="-0.56841">
        <ele>51.4</ele>
        <time>2021-07-04T05:37:08Z</time>
      </trkpt>
      <trkpt lat="47.49909" lon="-0.56849">
        <ele>51.4</ele>
        <time>2021-07-04T05:37:09Z</time>
      </trkpt>
      <trkpt lat="47.49912" lon="-0.56866">
        <ele>51.8</ele>
        <time>2021-07-04T05:37:11Z</time>
      </trkpt>
      <trkpt lat="47.49916" lon="-0.56882">
        <ele>51.6</ele>
        <time>2021-07-04T05:37:13Z</time>
      </trkpt>
      <trkpt lat="47.4992" lon="-0.56897">
        <ele>51.8</ele>
        <time>2021-07-04T05:37:15Z</time>
      </trkpt>
      <trkpt lat="47.49922" lon="-0.56906">
        <ele>51.8</ele>
        <time>2021-07-04T05:37:16Z</time>
      </trkpt>
      <trkpt lat="47.49924" lon="-0.56914">
        <ele>51.8</ele>
        <time>2021-07-04T05:37:17Z</time>
      </trkpt>
      <trkpt lat="47.49926" lon="-0.56922">
        <ele>51.8</ele>
        <time>2021-07-04T05:37:18Z</time>
      </trkpt>
      <trkpt lat="47.49928" lon="-0.56931">
        <ele>52</ele>
        <time>2021-07-04T05:37:19Z</time>
      </trkpt>
      <trkpt lat="47.49933" lon="-0.56948">
        <ele>52.2</ele>
        <time>2021-07-04T05:37:21Z</time>
      </trkpt>
      <trkpt lat="47.49938" lon="-0.56964">
        <ele>52.4</ele>
        <time>2021-07-04T05:37:23Z</time>
      </trkpt>
      <trkpt lat="47.49942" lon="-0.5698">
        <ele>52.6</ele>
        <time>2021-07-04T05:37:25Z</time>
      </trkpt>
      <trkpt lat="47.49944" lon="-0.56988">
        <ele>52.8</ele>
        <time>2021-07-04T05:37:26Z</time>
      </trkpt>
      <trkpt lat="47.49947" lon="-0.56995">
        <ele>53</ele>
        <time>2021-07-04T05:37:27Z</time>
      </trkpt>
      <trkpt lat="47.49952" lon="-0.5701">
        <ele>53</ele>
        <time>2021-07-04T05:37:29Z</time>
      </trkpt>
      <trkpt lat="47.49955" lon="-0.57017">
        <ele>53</ele>
        <time>2021-07-04T05:37:30Z</time>
      </trkpt>
      <trkpt lat="47.49957" lon="-0.57026">
        <ele>53</ele>
        <time>2021-07-04T05:37:31Z</time>
      </trkpt>
      <trkpt lat="47.49963" lon="-0.57042">
        <ele>53.2</ele>
        <time>2021-07-04T05:37:33Z</time>
      </trkpt>
      <trkpt lat="47.49969" lon="-0.57057">
        <ele>53.2</ele>
        <time>2021-07-04T05:37:35Z</time>
      </trkpt>
      <trkpt lat="47.49972" lon="-0.57064">
        <ele>53.2</ele>
        <time>2021-07-04T05:37:36Z</time>
      </trkpt>
      <trkpt lat="47.49974" lon="-0.57072">
        <ele>53.2</ele>
        <time>2021-07-04T05:37:37Z</time>
      </trkpt>
      <trkpt lat="47.4998" lon="-0.57087">
        <ele>54</ele>
        <time>2021-07-04T05:37:39Z</time>
      </trkpt>
      <trkpt lat="47.49986" lon="-0.57102">
        <ele>54.2</ele>
        <time>2021-07-04T05:37:41Z</time>
      </trkpt>
      <trkpt lat="47.49989" lon="-0.57109">
        <ele>54.2</ele>
        <time>2021-07-04T05:37:42Z</time>
      </trkpt>
      <trkpt lat="47.49991" lon="-0.57116">
        <ele>54.2</ele>
        <time>2021-07-04T05:37:43Z</time>
      </trkpt>
      <trkpt lat="47.49997" lon="-0.5713">
        <ele>54.2</ele>
        <time>2021-07-04T05:37:45Z</time>
      </trkpt>
      <trkpt lat="47.50001" lon="-0.57143">
        <ele>54.4</ele>
        <time>2021-07-04T05:37:47Z</time>
      </trkpt>
      <trkpt lat="47.50004" lon="-0.57149">
        <ele>54.4</ele>
        <time>2021-07-04T05:37:48Z</time>
      </trkpt>
      <trkpt lat="47.50006" lon="-0.57156">
        <ele>54.6</ele>
        <time>2021-07-04T05:37:49Z</time>
      </trkpt>
      <trkpt lat="47.50012" lon="-0.5717">
        <ele>54.6</ele>
        <time>2021-07-04T05:37:51Z</time>
      </trkpt>
      <trkpt lat="47.50017" lon="-0.57185">
        <ele>55</ele>
        <time>2021-07-04T05:37:53Z</time>
      </trkpt>
      <trkpt lat="47.5002" lon="-0.57192">
        <ele>55</ele>
        <time>2021-07-04T05:37:54Z</time>
      </trkpt>
      <trkpt lat="47.50023" lon="-0.57199">
        <ele>55</ele>
        <time>2021-07-04T05:37:55Z</time>
      </trkpt>
      <trkpt lat="47.50028" lon="-0.57213">
        <ele>55</ele>
        <time>2021-07-04T05:37:57Z</time>
      </trkpt>
      <trkpt lat="47.50032" lon="-0.57226">
        <ele>55.4</ele>
        <time>2021-07-04T05:37:59Z</time>
      </trkpt>
      <trkpt lat="47.50037" lon="-0.5724">
        <ele>55.6</ele>
        <time>2021-07-04T05:38:01Z</time>
      </trkpt>
      <trkpt lat="47.50041" lon="-0.57254">
        <ele>55.8</ele>
        <time>2021-07-04T05:38:03Z</time>
      </trkpt>
      <trkpt lat="47.50044" lon="-0.5726">
        <ele>55.8</ele>
        <time>2021-07-04T05:38:04Z</time>
      </trkpt>
      <trkpt lat="47.50046" lon="-0.57266">
        <ele>55.8</ele>
        <time>2021-07-04T05:38:05Z</time>
      </trkpt>
      <trkpt lat="47.50052" lon="-0.57278">
        <ele>56</ele>
        <time>2021-07-04T05:38:07Z</time>
      </trkpt>
      <trkpt lat="47.50058" lon="-0.57292">
        <ele>56</ele>
        <time>2021-07-04T05:38:09Z</time>
      </trkpt>
      <trkpt lat="47.50061" lon="-0.57299">
        <ele>56</ele>
        <time>2021-07-04T05:38:10Z</time>
      </trkpt>
      <trkpt lat="47.50064" lon="-0.57306">
        <ele>56.2</ele>
        <time>2021-07-04T05:38:11Z</time>
      </trkpt>
      <trkpt lat="47.50068" lon="-0.57313">
        <ele>56.4</ele>
        <time>2021-07-04T05:38:12Z</time>
      </trkpt>
      <trkpt lat="47.50071" lon="-0.57319">
        <ele>56.6</ele>
        <time>2021-07-04T05:38:13Z</time>
      </trkpt>
      <trkpt lat="47.50077" lon="-0.57334">
        <ele>56.6</ele>
        <time>2021-07-04T05:38:15Z</time>
      </trkpt>
      <trkpt lat="47.50084" lon="-0.57349">
        <ele>56.8</ele>
        <time>2021-07-04T05:38:17Z</time>
      </trkpt>
      <trkpt lat="47.50091" lon="-0.57364">
        <ele>57</ele>
        <time>2021-07-04T05:38:19Z</time>
      </trkpt>
      <trkpt lat="47.50098" lon="-0.57381">
        <ele>57.2</ele>
        <time>2021-07-04T05:38:21Z</time>
      </trkpt>
      <trkpt lat="47.50101" lon="-0.5739">
        <ele>57.2</ele>
        <time>2021-07-04T05:38:22Z</time>
      </trkpt>
      <trkpt lat="47.50104" lon="-0.57398">
        <ele>57.4</ele>
        <time>2021-07-04T05:38:23Z</time>
      </trkpt>
      <trkpt lat="47.50109" lon="-0.57414">
        <ele>57.4</ele>
        <time>2021-07-04T05:38:25Z</time>
      </trkpt>
      <trkpt lat="47.50115" lon="-0.5743">
        <ele>57.4</ele>
        <time>2021-07-04T05:38:27Z</time>
      </trkpt>
      <trkpt lat="47.50118" lon="-0.57438">
        <ele>57.4</ele>
        <time>2021-07-04T05:38:28Z</time>
      </trkpt>
      <trkpt lat="47.50121" lon="-0.57446">
        <ele>57.4</ele>
        <time>2021-07-04T05:38:29Z</time>
      </trkpt>
      <trkpt lat="47.50127" lon="-0.57462">
        <ele>57.6</ele>
        <time>2021-07-04T05:38:31Z</time>
      </trkpt>
      <trkpt lat="47.50133" lon="-0.57476">
        <ele>57.8</ele>
        <time>2021-07-04T05:38:33Z</time>
      </trkpt>
      <trkpt lat="47.50138" lon="-0.57491">
        <ele>58</ele>
        <time>2021-07-04T05:38:35Z</time>
      </trkpt>
      <trkpt lat="47.50141" lon="-0.57498">
        <ele>58.2</ele>
        <time>2021-07-04T05:38:36Z</time>
      </trkpt>
      <trkpt lat="47.50144" lon="-0.57505">
        <ele>58.4</ele>
        <time>2021-07-04T05:38:37Z</time>
      </trkpt>
      <trkpt lat="47.50147" lon="-0.57512">
        <ele>58.4</ele>
        <time>2021-07-04T05:38:38Z</time>
      </trkpt>
      <trkpt lat="47.5015" lon="-0.57519">
        <ele>58.4</ele>
        <time>2021-07-04T05:38:39Z</time>
      </trkpt>
      <trkpt lat="47.50152" lon="-0.57525">
        <ele>58.6</ele>
        <time>2021-07-04T05:38:40Z</time>
      </trkpt>
      <trkpt lat="47.50155" lon="-0.5753">
        <ele>58.6</ele>
        <time>2021-07-04T05:38:41Z</time>
      </trkpt>
      <trkpt lat="47.50158" lon="-0.57537">
        <ele>58.6</ele>
        <time>2021-07-04T05:38:42Z</time>
      </trkpt>
      <trkpt lat="47.5016" lon="-0.57544">
        <ele>58.6</ele>
        <time>2021-07-04T05:38:43Z</time>
      </trkpt>
      <trkpt lat="47.50163" lon="-0.57551">
        <ele>58.8</ele>
        <time>2021-07-04T05:38:44Z</time>
      </trkpt>
      <trkpt lat="47.50165" lon="-0.57558">
        <ele>58.8</ele>
        <time>2021-07-04T05:38:45Z</time>
      </trkpt>
      <trkpt lat="47.50171" lon="-0.57574">
        <ele>59</ele>
        <time>2021-07-04T05:38:47Z</time>
      </trkpt>
      <trkpt lat="47.50177" lon="-0.57589">
        <ele>59.2</ele>
        <time>2021-07-04T05:38:49Z</time>
      </trkpt>
      <trkpt lat="47.5018" lon="-0.57597">
        <ele>59.2</ele>
        <time>2021-07-04T05:38:50Z</time>
      </trkpt>
      <trkpt lat="47.50183" lon="-0.57605">
        <ele>59.6</ele>
        <time>2021-07-04T05:38:51Z</time>
      </trkpt>
      <trkpt lat="47.50186" lon="-0.57613">
        <ele>59.6</ele>
        <time>2021-07-04T05:38:52Z</time>
      </trkpt>
      <trkpt lat="47.50189" lon="-0.57621">
        <ele>59.6</ele>
        <time>2021-07-04T05:38:53Z</time>
      </trkpt>
      <trkpt lat="47.50195" lon="-0.57638">
        <ele>59.6</ele>
        <time>2021-07-04T05:38:55Z</time>
      </trkpt>
      <trkpt lat="47.50198" lon="-0.57646">
        <ele>59.6</ele>
        <time>2021-07-04T05:38:56Z</time>
      </trkpt>
      <trkpt lat="47.50201" lon="-0.57654">
        <ele>59.6</ele>
        <time>2021-07-04T05:38:57Z</time>
      </trkpt>
      <trkpt lat="47.50207" lon="-0.57671">
        <ele>60</ele>
        <time>2021-07-04T05:38:59Z</time>
      </trkpt>
      <trkpt lat="47.50213" lon="-0.57686">
        <ele>60</ele>
        <time>2021-07-04T05:39:01Z</time>
      </trkpt>
      <trkpt lat="47.50216" lon="-0.57693">
        <ele>60</ele>
        <time>2021-07-04T05:39:02Z</time>
      </trkpt>
      <trkpt lat="47.50219" lon="-0.57701">
        <ele>60.2</ele>
        <time>2021-07-04T05:39:03Z</time>
      </trkpt>
      <trkpt lat="47.50221" lon="-0.57708">
        <ele>60.2</ele>
        <time>2021-07-04T05:39:04Z</time>
      </trkpt>
      <trkpt lat="47.50224" lon="-0.57716">
        <ele>60.4</ele>
        <time>2021-07-04T05:39:05Z</time>
      </trkpt>
      <trkpt lat="47.5023" lon="-0.57732">
        <ele>60.6</ele>
        <time>2021-07-04T05:39:07Z</time>
      </trkpt>
      <trkpt lat="47.50236" lon="-0.57748">
        <ele>60.8</ele>
        <time>2021-07-04T05:39:09Z</time>
      </trkpt>
      <trkpt lat="47.50242" lon="-0.57764">
        <ele>60.8</ele>
        <time>2021-07-04T05:39:11Z</time>
      </trkpt>
      <trkpt lat="47.50248" lon="-0.57779">
        <ele>61</ele>
        <time>2021-07-04T05:39:13Z</time>
      </trkpt>
      <trkpt lat="47.50254" lon="-0.57793">
        <ele>61.6</ele>
        <time>2021-07-04T05:39:15Z</time>
      </trkpt>
      <trkpt lat="47.50261" lon="-0.57808">
        <ele>61.4</ele>
        <time>2021-07-04T05:39:17Z</time>
      </trkpt>
      <trkpt lat="47.50267" lon="-0.57824">
        <ele>61.8</ele>
        <time>2021-07-04T05:39:19Z</time>
      </trkpt>
      <trkpt lat="47.50273" lon="-0.57839">
        <ele>61.8</ele>
        <time>2021-07-04T05:39:21Z</time>
      </trkpt>
      <trkpt lat="47.50279" lon="-0.57853">
        <ele>61.8</ele>
        <time>2021-07-04T05:39:23Z</time>
      </trkpt>
      <trkpt lat="47.50286" lon="-0.57868">
        <ele>62.2</ele>
        <time>2021-07-04T05:39:25Z</time>
      </trkpt>
      <trkpt lat="47.50292" lon="-0.57883">
        <ele>62.4</ele>
        <time>2021-07-04T05:39:27Z</time>
      </trkpt>
      <trkpt lat="47.50299" lon="-0.57897">
        <ele>62.6</ele>
        <time>2021-07-04T05:39:29Z</time>
      </trkpt>
      <trkpt lat="47.50307" lon="-0.57912">
        <ele>62.6</ele>
        <time>2021-07-04T05:39:31Z</time>
      </trkpt>
      <trkpt lat="47.50315" lon="-0.57927">
        <ele>62.6</ele>
        <time>2021-07-04T05:39:33Z</time>
      </trkpt>
      <trkpt lat="47.50323" lon="-0.57942">
        <ele>62.8</ele>
        <time>2021-07-04T05:39:35Z</time>
      </trkpt>
      <trkpt lat="47.50331" lon="-0.57958">
        <ele>63</ele>
        <time>2021-07-04T05:39:37Z</time>
      </trkpt>
      <trkpt lat="47.50338" lon="-0.57973">
        <ele>63.2</ele>
        <time>2021-07-04T05:39:39Z</time>
      </trkpt>
      <trkpt lat="47.50345" lon="-0.57988">
        <ele>63.4</ele>
        <time>2021-07-04T05:39:41Z</time>
      </trkpt>
      <trkpt lat="47.50349" lon="-0.57995">
        <ele>63.6</ele>
        <time>2021-07-04T05:39:42Z</time>
      </trkpt>
      <trkpt lat="47.50352" lon="-0.58001">
        <ele>63.6</ele>
        <time>2021-07-04T05:39:43Z</time>
      </trkpt>
      <trkpt lat="47.50356" lon="-0.58008">
        <ele>63.6</ele>
        <time>2021-07-04T05:39:44Z</time>
      </trkpt>
      <trkpt lat="47.50359" lon="-0.58015">
        <ele>63.8</ele>
        <time>2021-07-04T05:39:45Z</time>
      </trkpt>
      <trkpt lat="47.50361" lon="-0.58022">
        <ele>63.8</ele>
        <time>2021-07-04T05:39:46Z</time>
      </trkpt>
      <trkpt lat="47.50362" lon="-0.58029">
        <ele>63.8</ele>
        <time>2021-07-04T05:39:47Z</time>
      </trkpt>
      <trkpt lat="47.50364" lon="-0.5804">
        <ele>64.2</ele>
        <time>2021-07-04T05:39:49Z</time>
      </trkpt>
      <trkpt lat="47.50365" lon="-0.58046">
        <ele>64.4</ele>
        <time>2021-07-04T05:39:50Z</time>
      </trkpt>
      <trkpt lat="47.50367" lon="-0.5805">
        <ele>64.8</ele>
        <time>2021-07-04T05:39:51Z</time>
      </trkpt>
      <trkpt lat="47.50373" lon="-0.58054">
        <ele>65</ele>
        <time>2021-07-04T05:39:53Z</time>
      </trkpt>
      <trkpt lat="47.50376" lon="-0.58056">
        <ele>65</ele>
        <time>2021-07-04T05:39:54Z</time>
      </trkpt>
      <trkpt lat="47.5038" lon="-0.58057">
        <ele>65</ele>
        <time>2021-07-04T05:39:55Z</time>
      </trkpt>
      <trkpt lat="47.50387" lon="-0.58062">
        <ele>64.2</ele>
        <time>2021-07-04T05:39:57Z</time>
      </trkpt>
      <trkpt lat="47.50392" lon="-0.58068">
        <ele>63.8</ele>
        <time>2021-07-04T05:39:58Z</time>
      </trkpt>
      <trkpt lat="47.50396" lon="-0.58074">
        <ele>63.6</ele>
        <time>2021-07-04T05:39:59Z</time>
      </trkpt>
      <trkpt lat="47.50405" lon="-0.58086">
        <ele>63.2</ele>
        <time>2021-07-04T05:40:01Z</time>
      </trkpt>
      <trkpt lat="47.50414" lon="-0.58099">
        <ele>63</ele>
        <time>2021-07-04T05:40:03Z</time>
      </trkpt>
      <trkpt lat="47.50424" lon="-0.58113">
        <ele>63</ele>
        <time>2021-07-04T05:40:05Z</time>
      </trkpt>
      <trkpt lat="47.50434" lon="-0.58126">
        <ele>63</ele>
        <time>2021-07-04T05:40:07Z</time>
      </trkpt>
      <trkpt lat="47.50444" lon="-0.58139">
        <ele>62.8</ele>
        <time>2021-07-04T05:40:09Z</time>
      </trkpt>
      <trkpt lat="47.50453" lon="-0.58153">
        <ele>62.6</ele>
        <time>2021-07-04T05:40:11Z</time>
      </trkpt>
      <trkpt lat="47.50463" lon="-0.58166">
        <ele>62.6</ele>
        <time>2021-07-04T05:40:13Z</time>
      </trkpt>
      <trkpt lat="47.50474" lon="-0.5818">
        <ele>62.6</ele>
        <time>2021-07-04T05:40:15Z</time>
      </trkpt>
      <trkpt lat="47.50484" lon="-0.58194">
        <ele>62.2</ele>
        <time>2021-07-04T05:40:17Z</time>
      </trkpt>
      <trkpt lat="47.50493" lon="-0.58209">
        <ele>62.2</ele>
        <time>2021-07-04T05:40:19Z</time>
      </trkpt>
      <trkpt lat="47.50498" lon="-0.58216">
        <ele>62</ele>
        <time>2021-07-04T05:40:20Z</time>
      </trkpt>
      <trkpt lat="47.50504" lon="-0.58222">
        <ele>61.6</ele>
        <time>2021-07-04T05:40:21Z</time>
      </trkpt>
      <trkpt lat="47.50514" lon="-0.58237">
        <ele>61.4</ele>
        <time>2021-07-04T05:40:23Z</time>
      </trkpt>
      <trkpt lat="47.50524" lon="-0.5825">
        <ele>61.6</ele>
        <time>2021-07-04T05:40:25Z</time>
      </trkpt>
      <trkpt lat="47.50534" lon="-0.58264">
        <ele>61.6</ele>
        <time>2021-07-04T05:40:27Z</time>
      </trkpt>
      <trkpt lat="47.50545" lon="-0.58278">
        <ele>61.4</ele>
        <time>2021-07-04T05:40:29Z</time>
      </trkpt>
      <trkpt lat="47.50556" lon="-0.58292">
        <ele>61</ele>
        <time>2021-07-04T05:40:31Z</time>
      </trkpt>
      <trkpt lat="47.50566" lon="-0.58306">
        <ele>61.2</ele>
        <time>2021-07-04T05:40:33Z</time>
      </trkpt>
      <trkpt lat="47.50576" lon="-0.58321">
        <ele>61</ele>
        <time>2021-07-04T05:40:35Z</time>
      </trkpt>
      <trkpt lat="47.50586" lon="-0.58334">
        <ele>61</ele>
        <time>2021-07-04T05:40:37Z</time>
      </trkpt>
      <trkpt lat="47.50596" lon="-0.58348">
        <ele>61</ele>
        <time>2021-07-04T05:40:39Z</time>
      </trkpt>
      <trkpt lat="47.50606" lon="-0.58361">
        <ele>61</ele>
        <time>2021-07-04T05:40:41Z</time>
      </trkpt>
      <trkpt lat="47.50616" lon="-0.58375">
        <ele>60.8</ele>
        <time>2021-07-04T05:40:43Z</time>
      </trkpt>
      <trkpt lat="47.50621" lon="-0.58381">
        <ele>61</ele>
        <time>2021-07-04T05:40:44Z</time>
      </trkpt>
      <trkpt lat="47.50625" lon="-0.58388">
        <ele>61.2</ele>
        <time>2021-07-04T05:40:45Z</time>
      </trkpt>
      <trkpt lat="47.50634" lon="-0.584">
        <ele>61</ele>
        <time>2021-07-04T05:40:47Z</time>
      </trkpt>
      <trkpt lat="47.50643" lon="-0.58412">
        <ele>61.2</ele>
        <time>2021-07-04T05:40:49Z</time>
      </trkpt>
      <trkpt lat="47.50651" lon="-0.58423">
        <ele>61.8</ele>
        <time>2021-07-04T05:40:51Z</time>
      </trkpt>
      <trkpt lat="47.50654" lon="-0.58429">
        <ele>62</ele>
        <time>2021-07-04T05:40:52Z</time>
      </trkpt>
      <trkpt lat="47.50656" lon="-0.58434">
        <ele>62</ele>
        <time>2021-07-04T05:40:53Z</time>
      </trkpt>
      <trkpt lat="47.5066" lon="-0.58443">
        <ele>62.4</ele>
        <time>2021-07-04T05:40:55Z</time>
      </trkpt>
      <trkpt lat="47.50666" lon="-0.58448">
        <ele>62.8</ele>
        <time>2021-07-04T05:40:57Z</time>
      </trkpt>
      <trkpt lat="47.50669" lon="-0.58452">
        <ele>63</ele>
        <time>2021-07-04T05:40:59Z</time>
      </trkpt>
      <trkpt lat="47.50674" lon="-0.58456">
        <ele>63.2</ele>
        <time>2021-07-04T05:41:01Z</time>
      </trkpt>
      <trkpt lat="47.50677" lon="-0.58458">
        <ele>63.2</ele>
        <time>2021-07-04T05:41:02Z</time>
      </trkpt>
      <trkpt lat="47.50681" lon="-0.5846">
        <ele>62.8</ele>
        <time>2021-07-04T05:41:03Z</time>
      </trkpt>
      <trkpt lat="47.50685" lon="-0.58464">
        <ele>62.4</ele>
        <time>2021-07-04T05:41:04Z</time>
      </trkpt>
      <trkpt lat="47.50689" lon="-0.58469">
        <ele>62.2</ele>
        <time>2021-07-04T05:41:05Z</time>
      </trkpt>
      <trkpt lat="47.50698" lon="-0.58479">
        <ele>62.2</ele>
        <time>2021-07-04T05:41:07Z</time>
      </trkpt>
      <trkpt lat="47.50707" lon="-0.58491">
        <ele>62.2</ele>
        <time>2021-07-04T05:41:09Z</time>
      </trkpt>
      <trkpt lat="47.50716" lon="-0.58503">
        <ele>61.8</ele>
        <time>2021-07-04T05:41:11Z</time>
      </trkpt>
      <trkpt lat="47.50725" lon="-0.58516">
        <ele>61.6</ele>
        <time>2021-07-04T05:41:13Z</time>
      </trkpt>
      <trkpt lat="47.50734" lon="-0.58528">
        <ele>62</ele>
        <time>2021-07-04T05:41:15Z</time>
      </trkpt>
      <trkpt lat="47.50739" lon="-0.58535">
        <ele>62.2</ele>
        <time>2021-07-04T05:41:16Z</time>
      </trkpt>
      <trkpt lat="47.50743" lon="-0.58541">
        <ele>62.2</ele>
        <time>2021-07-04T05:41:17Z</time>
      </trkpt>
      <trkpt lat="47.50747" lon="-0.58548">
        <ele>62.2</ele>
        <time>2021-07-04T05:41:18Z</time>
      </trkpt>
      <trkpt lat="47.50752" lon="-0.58554">
        <ele>62.2</ele>
        <time>2021-07-04T05:41:19Z</time>
      </trkpt>
      <trkpt lat="47.50762" lon="-0.58566">
        <ele>62.2</ele>
        <time>2021-07-04T05:41:21Z</time>
      </trkpt>
      <trkpt lat="47.50772" lon="-0.58579">
        <ele>62.2</ele>
        <time>2021-07-04T05:41:23Z</time>
      </trkpt>
      <trkpt lat="47.50782" lon="-0.58593">
        <ele>62.2</ele>
        <time>2021-07-04T05:41:25Z</time>
      </trkpt>
      <trkpt lat="47.50792" lon="-0.58607">
        <ele>62.4</ele>
        <time>2021-07-04T05:41:27Z</time>
      </trkpt>
      <trkpt lat="47.50801" lon="-0.58621">
        <ele>62.4</ele>
        <time>2021-07-04T05:41:29Z</time>
      </trkpt>
      <trkpt lat="47.5081" lon="-0.58635">
        <ele>62.2</ele>
        <time>2021-07-04T05:41:31Z</time>
      </trkpt>
      <trkpt lat="47.50819" lon="-0.58649">
        <ele>62.4</ele>
        <time>2021-07-04T05:41:33Z</time>
      </trkpt>
      <trkpt lat="47.50827" lon="-0.58663">
        <ele>62.2</ele>
        <time>2021-07-04T05:41:35Z</time>
      </trkpt>
      <trkpt lat="47.50835" lon="-0.58676">
        <ele>62.4</ele>
        <time>2021-07-04T05:41:37Z</time>
      </trkpt>
      <trkpt lat="47.50843" lon="-0.58689">
        <ele>63.4</ele>
        <time>2021-07-04T05:41:39Z</time>
      </trkpt>
      <trkpt lat="47.50851" lon="-0.58702">
        <ele>63.6</ele>
        <time>2021-07-04T05:41:41Z</time>
      </trkpt>
      <trkpt lat="47.50858" lon="-0.58715">
        <ele>63.8</ele>
        <time>2021-07-04T05:41:43Z</time>
      </trkpt>
      <trkpt lat="47.50865" lon="-0.58728">
        <ele>64</ele>
        <time>2021-07-04T05:41:45Z</time>
      </trkpt>
      <trkpt lat="47.50871" lon="-0.58739">
        <ele>64.2</ele>
        <time>2021-07-04T05:41:47Z</time>
      </trkpt>
      <trkpt lat="47.50875" lon="-0.58745">
        <ele>64.2</ele>
        <time>2021-07-04T05:41:49Z</time>
      </trkpt>
      <trkpt lat="47.50875" lon="-0.58747">
        <ele>64.4</ele>
        <time>2021-07-04T05:41:50Z</time>
      </trkpt>
      <trkpt lat="47.50875" lon="-0.5875">
        <ele>64.6</ele>
        <time>2021-07-04T05:41:51Z</time>
      </trkpt>
      <trkpt lat="47.50875" lon="-0.58759">
        <ele>64.6</ele>
        <time>2021-07-04T05:41:53Z</time>
      </trkpt>
      <trkpt lat="47.50876" lon="-0.58764">
        <ele>64.4</ele>
        <time>2021-07-04T05:41:54Z</time>
      </trkpt>
      <trkpt lat="47.50877" lon="-0.58768">
        <ele>64.4</ele>
        <time>2021-07-04T05:41:55Z</time>
      </trkpt>
      <trkpt lat="47.50882" lon="-0.58773">
        <ele>64.4</ele>
        <time>2021-07-04T05:41:57Z</time>
      </trkpt>
      <trkpt lat="47.50888" lon="-0.58779">
        <ele>64.4</ele>
        <time>2021-07-04T05:41:59Z</time>
      </trkpt>
      <trkpt lat="47.5089" lon="-0.58784">
        <ele>64.2</ele>
        <time>2021-07-04T05:42:00Z</time>
      </trkpt>
      <trkpt lat="47.50893" lon="-0.5879">
        <ele>64</ele>
        <time>2021-07-04T05:42:01Z</time>
      </trkpt>
      <trkpt lat="47.50899" lon="-0.58803">
        <ele>64</ele>
        <time>2021-07-04T05:42:03Z</time>
      </trkpt>
      <trkpt lat="47.50905" lon="-0.58817">
        <ele>63.8</ele>
        <time>2021-07-04T05:42:05Z</time>
      </trkpt>
      <trkpt lat="47.50911" lon="-0.58831">
        <ele>63.8</ele>
        <time>2021-07-04T05:42:07Z</time>
      </trkpt>
      <trkpt lat="47.50918" lon="-0.58845">
        <ele>63.6</ele>
        <time>2021-07-04T05:42:09Z</time>
      </trkpt>
      <trkpt lat="47.50924" lon="-0.58859">
        <ele>63.8</ele>
        <time>2021-07-04T05:42:11Z</time>
      </trkpt>
      <trkpt lat="47.5093" lon="-0.58875">
        <ele>63.8</ele>
        <time>2021-07-04T05:42:13Z</time>
      </trkpt>
      <trkpt lat="47.50937" lon="-0.58891">
        <ele>63.6</ele>
        <time>2021-07-04T05:42:15Z</time>
      </trkpt>
      <trkpt lat="47.50941" lon="-0.58899">
        <ele>63.4</ele>
        <time>2021-07-04T05:42:16Z</time>
      </trkpt>
      <trkpt lat="47.50944" lon="-0.58907">
        <ele>63.4</ele>
        <time>2021-07-04T05:42:17Z</time>
      </trkpt>
      <trkpt lat="47.50951" lon="-0.58923">
        <ele>63.4</ele>
        <time>2021-07-04T05:42:19Z</time>
      </trkpt>
      <trkpt lat="47.50958" lon="-0.58939">
        <ele>63.6</ele>
        <time>2021-07-04T05:42:21Z</time>
      </trkpt>
      <trkpt lat="47.50964" lon="-0.58955">
        <ele>63.8</ele>
        <time>2021-07-04T05:42:23Z</time>
      </trkpt>
      <trkpt lat="47.50971" lon="-0.58971">
        <ele>63.8</ele>
        <time>2021-07-04T05:42:25Z</time>
      </trkpt>
      <trkpt lat="47.50978" lon="-0.58987">
        <ele>63.8</ele>
        <time>2021-07-04T05:42:27Z</time>
      </trkpt>
      <trkpt lat="47.50985" lon="-0.59003">
        <ele>63.6</ele>
        <time>2021-07-04T05:42:29Z</time>
      </trkpt>
      <trkpt lat="47.50988" lon="-0.59011">
        <ele>63.4</ele>
        <time>2021-07-04T05:42:30Z</time>
      </trkpt>
      <trkpt lat="47.50991" lon="-0.5902">
        <ele>63.4</ele>
        <time>2021-07-04T05:42:31Z</time>
      </trkpt>
      <trkpt lat="47.50998" lon="-0.59037">
        <ele>63.6</ele>
        <time>2021-07-04T05:42:33Z</time>
      </trkpt>
      <trkpt lat="47.51005" lon="-0.59053">
        <ele>63.6</ele>
        <time>2021-07-04T05:42:35Z</time>
      </trkpt>
      <trkpt lat="47.51012" lon="-0.59068">
        <ele>63.8</ele>
        <time>2021-07-04T05:42:37Z</time>
      </trkpt>
      <trkpt lat="47.51018" lon="-0.59084">
        <ele>64</ele>
        <time>2021-07-04T05:42:39Z</time>
      </trkpt>
      <trkpt lat="47.51025" lon="-0.591">
        <ele>64</ele>
        <time>2021-07-04T05:42:41Z</time>
      </trkpt>
      <trkpt lat="47.51032" lon="-0.59115">
        <ele>64</ele>
        <time>2021-07-04T05:42:43Z</time>
      </trkpt>
      <trkpt lat="47.51039" lon="-0.59131">
        <ele>64</ele>
        <time>2021-07-04T05:42:45Z</time>
      </trkpt>
      <trkpt lat="47.51045" lon="-0.59146">
        <ele>63.8</ele>
        <time>2021-07-04T05:42:47Z</time>
      </trkpt>
      <trkpt lat="47.51052" lon="-0.59161">
        <ele>64</ele>
        <time>2021-07-04T05:42:49Z</time>
      </trkpt>
      <trkpt lat="47.51059" lon="-0.59176">
        <ele>64.4</ele>
        <time>2021-07-04T05:42:51Z</time>
      </trkpt>
      <trkpt lat="47.51062" lon="-0.59184">
        <ele>64.4</ele>
        <time>2021-07-04T05:42:52Z</time>
      </trkpt>
      <trkpt lat="47.51065" lon="-0.59191">
        <ele>64.2</ele>
        <time>2021-07-04T05:42:53Z</time>
      </trkpt>
      <trkpt lat="47.51072" lon="-0.59206">
        <ele>64.2</ele>
        <time>2021-07-04T05:42:55Z</time>
      </trkpt>
      <trkpt lat="47.51079" lon="-0.59221">
        <ele>64.4</ele>
        <time>2021-07-04T05:42:57Z</time>
      </trkpt>
      <trkpt lat="47.51086" lon="-0.59236">
        <ele>64.2</ele>
        <time>2021-07-04T05:42:59Z</time>
      </trkpt>
      <trkpt lat="47.51092" lon="-0.59252">
        <ele>64.2</ele>
        <time>2021-07-04T05:43:01Z</time>
      </trkpt>
      <trkpt lat="47.51098" lon="-0.59267">
        <ele>64.4</ele>
        <time>2021-07-04T05:43:03Z</time>
      </trkpt>
      <trkpt lat="47.51105" lon="-0.59283">
        <ele>64.4</ele>
        <time>2021-07-04T05:43:05Z</time>
      </trkpt>
      <trkpt lat="47.51111" lon="-0.59298">
        <ele>64.6</ele>
        <time>2021-07-04T05:43:07Z</time>
      </trkpt>
      <trkpt lat="47.51115" lon="-0.59306">
        <ele>64.6</ele>
        <time>2021-07-04T05:43:08Z</time>
      </trkpt>
      <trkpt lat="47.51118" lon="-0.59314">
        <ele>64.4</ele>
        <time>2021-07-04T05:43:09Z</time>
      </trkpt>
      <trkpt lat="47.51125" lon="-0.5933">
        <ele>64.2</ele>
        <time>2021-07-04T05:43:11Z</time>
      </trkpt>
      <trkpt lat="47.51132" lon="-0.59345">
        <ele>64.4</ele>
        <time>2021-07-04T05:43:13Z</time>
      </trkpt>
      <trkpt lat="47.51138" lon="-0.59361">
        <ele>64.2</ele>
        <time>2021-07-04T05:43:15Z</time>
      </trkpt>
      <trkpt lat="47.51142" lon="-0.59369">
        <ele>64.2</ele>
        <time>2021-07-04T05:43:16Z</time>
      </trkpt>
      <trkpt lat="47.51145" lon="-0.59377">
        <ele>64.4</ele>
        <time>2021-07-04T05:43:17Z</time>
      </trkpt>
      <trkpt lat="47.51152" lon="-0.59393">
        <ele>64.4</ele>
        <time>2021-07-04T05:43:19Z</time>
      </trkpt>
      <trkpt lat="47.51159" lon="-0.59409">
        <ele>64.4</ele>
        <time>2021-07-04T05:43:21Z</time>
      </trkpt>
      <trkpt lat="47.51165" lon="-0.59424">
        <ele>64.4</ele>
        <time>2021-07-04T05:43:23Z</time>
      </trkpt>
      <trkpt lat="47.51172" lon="-0.59441">
        <ele>64.4</ele>
        <time>2021-07-04T05:43:25Z</time>
      </trkpt>
      <trkpt lat="47.51176" lon="-0.59449">
        <ele>64.2</ele>
        <time>2021-07-04T05:43:26Z</time>
      </trkpt>
      <trkpt lat="47.51179" lon="-0.59457">
        <ele>64</ele>
        <time>2021-07-04T05:43:27Z</time>
      </trkpt>
      <trkpt lat="47.51186" lon="-0.59474">
        <ele>63.6</ele>
        <time>2021-07-04T05:43:29Z</time>
      </trkpt>
      <trkpt lat="47.51193" lon="-0.59491">
        <ele>63.8</ele>
        <time>2021-07-04T05:43:31Z</time>
      </trkpt>
      <trkpt lat="47.512" lon="-0.59507">
        <ele>63.6</ele>
        <time>2021-07-04T05:43:33Z</time>
      </trkpt>
      <trkpt lat="47.51207" lon="-0.59523">
        <ele>63.4</ele>
        <time>2021-07-04T05:43:35Z</time>
      </trkpt>
      <trkpt lat="47.51211" lon="-0.59531">
        <ele>63.4</ele>
        <time>2021-07-04T05:43:36Z</time>
      </trkpt>
      <trkpt lat="47.51214" lon="-0.59538">
        <ele>63.4</ele>
        <time>2021-07-04T05:43:37Z</time>
      </trkpt>
      <trkpt lat="47.5122" lon="-0.59553">
        <ele>63.2</ele>
        <time>2021-07-04T05:43:39Z</time>
      </trkpt>
      <trkpt lat="47.51225" lon="-0.59568">
        <ele>63.4</ele>
        <time>2021-07-04T05:43:41Z</time>
      </trkpt>
      <trkpt lat="47.51226" lon="-0.59576">
        <ele>63.6</ele>
        <time>2021-07-04T05:43:42Z</time>
      </trkpt>
      <trkpt lat="47.51227" lon="-0.59582">
        <ele>63.8</ele>
        <time>2021-07-04T05:43:43Z</time>
      </trkpt>
      <trkpt lat="47.5123" lon="-0.59591">
        <ele>64</ele>
        <time>2021-07-04T05:43:45Z</time>
      </trkpt>
      <trkpt lat="47.51233" lon="-0.59599">
        <ele>64.8</ele>
        <time>2021-07-04T05:43:47Z</time>
      </trkpt>
      <trkpt lat="47.51239" lon="-0.59605">
        <ele>64.8</ele>
        <time>2021-07-04T05:43:49Z</time>
      </trkpt>
      <trkpt lat="47.51246" lon="-0.59613">
        <ele>63.8</ele>
        <time>2021-07-04T05:43:51Z</time>
      </trkpt>
      <trkpt lat="47.51249" lon="-0.59619">
        <ele>63.6</ele>
        <time>2021-07-04T05:43:52Z</time>
      </trkpt>
      <trkpt lat="47.51252" lon="-0.59626">
        <ele>63.4</ele>
        <time>2021-07-04T05:43:53Z</time>
      </trkpt>
      <trkpt lat="47.51259" lon="-0.59641">
        <ele>62.8</ele>
        <time>2021-07-04T05:43:55Z</time>
      </trkpt>
      <trkpt lat="47.51267" lon="-0.59658">
        <ele>62.6</ele>
        <time>2021-07-04T05:43:57Z</time>
      </trkpt>
      <trkpt lat="47.51274" lon="-0.59676">
        <ele>62.4</ele>
        <time>2021-07-04T05:43:59Z</time>
      </trkpt>
      <trkpt lat="47.51282" lon="-0.59694">
        <ele>62</ele>
        <time>2021-07-04T05:44:01Z</time>
      </trkpt>
      <trkpt lat="47.51289" lon="-0.59712">
        <ele>61.4</ele>
        <time>2021-07-04T05:44:03Z</time>
      </trkpt>
      <trkpt lat="47.51297" lon="-0.5973">
        <ele>61.2</ele>
        <time>2021-07-04T05:44:05Z</time>
      </trkpt>
      <trkpt lat="47.51305" lon="-0.59749">
        <ele>60.6</ele>
        <time>2021-07-04T05:44:07Z</time>
      </trkpt>
      <trkpt lat="47.51313" lon="-0.59766">
        <ele>60.2</ele>
        <time>2021-07-04T05:44:09Z</time>
      </trkpt>
      <trkpt lat="47.51321" lon="-0.59784">
        <ele>60.4</ele>
        <time>2021-07-04T05:44:11Z</time>
      </trkpt>
      <trkpt lat="47.51328" lon="-0.59801">
        <ele>60.2</ele>
        <time>2021-07-04T05:44:13Z</time>
      </trkpt>
      <trkpt lat="47.51337" lon="-0.59817">
        <ele>60</ele>
        <time>2021-07-04T05:44:15Z</time>
      </trkpt>
      <trkpt lat="47.51344" lon="-0.59834">
        <ele>59.8</ele>
        <time>2021-07-04T05:44:17Z</time>
      </trkpt>
      <trkpt lat="47.51352" lon="-0.59851">
        <ele>59.8</ele>
        <time>2021-07-04T05:44:19Z</time>
      </trkpt>
      <trkpt lat="47.5136" lon="-0.59869">
        <ele>59.8</ele>
        <time>2021-07-04T05:44:21Z</time>
      </trkpt>
      <trkpt lat="47.51368" lon="-0.59886">
        <ele>59.6</ele>
        <time>2021-07-04T05:44:23Z</time>
      </trkpt>
      <trkpt lat="47.51377" lon="-0.59904">
        <ele>59.4</ele>
        <time>2021-07-04T05:44:25Z</time>
      </trkpt>
      <trkpt lat="47.51381" lon="-0.59912">
        <ele>59.2</ele>
        <time>2021-07-04T05:44:26Z</time>
      </trkpt>
      <trkpt lat="47.51385" lon="-0.59921">
        <ele>59.2</ele>
        <time>2021-07-04T05:44:27Z</time>
      </trkpt>
      <trkpt lat="47.51394" lon="-0.59937">
        <ele>59</ele>
        <time>2021-07-04T05:44:29Z</time>
      </trkpt>
      <trkpt lat="47.51399" lon="-0.59945">
        <ele>58.6</ele>
        <time>2021-07-04T05:44:30Z</time>
      </trkpt>
      <trkpt lat="47.51404" lon="-0.59954">
        <ele>58.6</ele>
        <time>2021-07-04T05:44:31Z</time>
      </trkpt>
      <trkpt lat="47.51413" lon="-0.59971">
        <ele>58.8</ele>
        <time>2021-07-04T05:44:33Z</time>
      </trkpt>
      <trkpt lat="47.51423" lon="-0.59987">
        <ele>58.4</ele>
        <time>2021-07-04T05:44:35Z</time>
      </trkpt>
      <trkpt lat="47.51428" lon="-0.59995">
        <ele>58</ele>
        <time>2021-07-04T05:44:36Z</time>
      </trkpt>
      <trkpt lat="47.51433" lon="-0.60004">
        <ele>58</ele>
        <time>2021-07-04T05:44:37Z</time>
      </trkpt>
      <trkpt lat="47.51444" lon="-0.6002">
        <ele>58.2</ele>
        <time>2021-07-04T05:44:39Z</time>
      </trkpt>
      <trkpt lat="47.51453" lon="-0.60036">
        <ele>57.8</ele>
        <time>2021-07-04T05:44:41Z</time>
      </trkpt>
      <trkpt lat="47.51463" lon="-0.60052">
        <ele>57.6</ele>
        <time>2021-07-04T05:44:43Z</time>
      </trkpt>
      <trkpt lat="47.51468" lon="-0.60059">
        <ele>57.4</ele>
        <time>2021-07-04T05:44:44Z</time>
      </trkpt>
      <trkpt lat="47.51473" lon="-0.60067">
        <ele>57.2</ele>
        <time>2021-07-04T05:44:45Z</time>
      </trkpt>
      <trkpt lat="47.51482" lon="-0.60082">
        <ele>57.2</ele>
        <time>2021-07-04T05:44:47Z</time>
      </trkpt>
      <trkpt lat="47.51492" lon="-0.60098">
        <ele>57.4</ele>
        <time>2021-07-04T05:44:49Z</time>
      </trkpt>
      <trkpt lat="47.51502" lon="-0.60113">
        <ele>57.4</ele>
        <time>2021-07-04T05:44:51Z</time>
      </trkpt>
      <trkpt lat="47.51511" lon="-0.60128">
        <ele>57.4</ele>
        <time>2021-07-04T05:44:53Z</time>
      </trkpt>
      <trkpt lat="47.51521" lon="-0.60143">
        <ele>57.4</ele>
        <time>2021-07-04T05:44:55Z</time>
      </trkpt>
      <trkpt lat="47.5153" lon="-0.60158">
        <ele>57.6</ele>
        <time>2021-07-04T05:44:57Z</time>
      </trkpt>
      <trkpt lat="47.51539" lon="-0.60172">
        <ele>57.6</ele>
        <time>2021-07-04T05:44:59Z</time>
      </trkpt>
      <trkpt lat="47.51549" lon="-0.60186">
        <ele>57.6</ele>
        <time>2021-07-04T05:45:01Z</time>
      </trkpt>
      <trkpt lat="47.51558" lon="-0.602">
        <ele>57.4</ele>
        <time>2021-07-04T05:45:03Z</time>
      </trkpt>
      <trkpt lat="47.51568" lon="-0.60214">
        <ele>57.4</ele>
        <time>2021-07-04T05:45:05Z</time>
      </trkpt>
      <trkpt lat="47.51572" lon="-0.60221">
        <ele>57.6</ele>
        <time>2021-07-04T05:45:06Z</time>
      </trkpt>
      <trkpt lat="47.51577" lon="-0.60228">
        <ele>57.4</ele>
        <time>2021-07-04T05:45:07Z</time>
      </trkpt>
      <trkpt lat="47.51584" lon="-0.60238">
        <ele>57.8</ele>
        <time>2021-07-04T05:45:09Z</time>
      </trkpt>
      <trkpt lat="47.51585" lon="-0.60242">
        <ele>58.4</ele>
        <time>2021-07-04T05:45:10Z</time>
      </trkpt>
      <trkpt lat="47.51584" lon="-0.60245">
        <ele>58.6</ele>
        <time>2021-07-04T05:45:11Z</time>
      </trkpt>
      <trkpt lat="47.51583" lon="-0.60247">
        <ele>59.2</ele>
        <time>2021-07-04T05:45:12Z</time>
      </trkpt>
      <trkpt lat="47.51582" lon="-0.60248">
        <ele>59.4</ele>
        <time>2021-07-04T05:45:13Z</time>
      </trkpt>
      <trkpt lat="47.51581" lon="-0.60249">
        <ele>59.6</ele>
        <time>2021-07-04T05:45:15Z</time>
      </trkpt>
      <trkpt lat="47.51579" lon="-0.60253">
        <ele>59.8</ele>
        <time>2021-07-04T05:45:17Z</time>
      </trkpt>
      <trkpt lat="47.51577" lon="-0.60257">
        <ele>60</ele>
        <time>2021-07-04T05:45:19Z</time>
      </trkpt>
      <trkpt lat="47.51574" lon="-0.60264">
        <ele>60.2</ele>
        <time>2021-07-04T05:45:21Z</time>
      </trkpt>
      <trkpt lat="47.51571" lon="-0.60268">
        <ele>60</ele>
        <time>2021-07-04T05:45:22Z</time>
      </trkpt>
      <trkpt lat="47.51569" lon="-0.60271">
        <ele>59.8</ele>
        <time>2021-07-04T05:45:23Z</time>
      </trkpt>
      <trkpt lat="47.51566" lon="-0.60278">
        <ele>59.8</ele>
        <time>2021-07-04T05:45:25Z</time>
      </trkpt>
      <trkpt lat="47.51564" lon="-0.60281">
        <ele>60</ele>
        <time>2021-07-04T05:45:26Z</time>
      </trkpt>
      <trkpt lat="47.51562" lon="-0.60284">
        <ele>60.4</ele>
        <time>2021-07-04T05:45:27Z</time>
      </trkpt>
      <trkpt lat="47.51558" lon="-0.6029">
        <ele>60.8</ele>
        <time>2021-07-04T05:45:29Z</time>
      </trkpt>
      <trkpt lat="47.51553" lon="-0.60295">
        <ele>60.8</ele>
        <time>2021-07-04T05:45:31Z</time>
      </trkpt>
      <trkpt lat="47.5155" lon="-0.60296">
        <ele>61</ele>
        <time>2021-07-04T05:45:32Z</time>
      </trkpt>
      <trkpt lat="47.51548" lon="-0.60298">
        <ele>61</ele>
        <time>2021-07-04T05:45:33Z</time>
      </trkpt>
      <trkpt lat="47.51543" lon="-0.60303">
        <ele>61</ele>
        <time>2021-07-04T05:45:35Z</time>
      </trkpt>
      <trkpt lat="47.5154" lon="-0.60309">
        <ele>61.8</ele>
        <time>2021-07-04T05:45:37Z</time>
      </trkpt>
      <trkpt lat="47.51541" lon="-0.60313">
        <ele>62.6</ele>
        <time>2021-07-04T05:45:38Z</time>
      </trkpt>
      <trkpt lat="47.51543" lon="-0.60317">
        <ele>62.8</ele>
        <time>2021-07-04T05:45:39Z</time>
      </trkpt>
      <trkpt lat="47.51545" lon="-0.60322">
        <ele>63</ele>
        <time>2021-07-04T05:45:40Z</time>
      </trkpt>
      <trkpt lat="47.51547" lon="-0.60327">
        <ele>62.8</ele>
        <time>2021-07-04T05:45:41Z</time>
      </trkpt>
      <trkpt lat="47.5155" lon="-0.60335">
        <ele>63</ele>
        <time>2021-07-04T05:45:43Z</time>
      </trkpt>
      <trkpt lat="47.5155" lon="-0.60339">
        <ele>63.2</ele>
        <time>2021-07-04T05:45:44Z</time>
      </trkpt>
      <trkpt lat="47.51548" lon="-0.60343">
        <ele>63.2</ele>
        <time>2021-07-04T05:45:45Z</time>
      </trkpt>
      <trkpt lat="47.51545" lon="-0.60348">
        <ele>63.2</ele>
        <time>2021-07-04T05:45:46Z</time>
      </trkpt>
      <trkpt lat="47.51541" lon="-0.60353">
        <ele>63.2</ele>
        <time>2021-07-04T05:45:47Z</time>
      </trkpt>
      <trkpt lat="47.51537" lon="-0.60359">
        <ele>63.2</ele>
        <time>2021-07-04T05:45:48Z</time>
      </trkpt>
      <trkpt lat="47.51532" lon="-0.60363">
        <ele>63</ele>
        <time>2021-07-04T05:45:49Z</time>
      </trkpt>
      <trkpt lat="47.51523" lon="-0.60372">
        <ele>62.8</ele>
        <time>2021-07-04T05:45:51Z</time>
      </trkpt>
      <trkpt lat="47.51519" lon="-0.60376">
        <ele>63</ele>
        <time>2021-07-04T05:45:52Z</time>
      </trkpt>
      <trkpt lat="47.51515" lon="-0.6038">
        <ele>63</ele>
        <time>2021-07-04T05:45:53Z</time>
      </trkpt>
      <trkpt lat="47.51507" lon="-0.60389">
        <ele>63</ele>
        <time>2021-07-04T05:45:55Z</time>
      </trkpt>
      <trkpt lat="47.51499" lon="-0.60398">
        <ele>63</ele>
        <time>2021-07-04T05:45:57Z</time>
      </trkpt>
      <trkpt lat="47.51491" lon="-0.60406">
        <ele>63</ele>
        <time>2021-07-04T05:45:59Z</time>
      </trkpt>
      <trkpt lat="47.51486" lon="-0.6041">
        <ele>63</ele>
        <time>2021-07-04T05:46:00Z</time>
      </trkpt>
      <trkpt lat="47.51482" lon="-0.60414">
        <ele>63</ele>
        <time>2021-07-04T05:46:01Z</time>
      </trkpt>
      <trkpt lat="47.51474" lon="-0.60424">
        <ele>63</ele>
        <time>2021-07-04T05:46:03Z</time>
      </trkpt>
      <trkpt lat="47.51469" lon="-0.60428">
        <ele>63.2</ele>
        <time>2021-07-04T05:46:04Z</time>
      </trkpt>
      <trkpt lat="47.51464" lon="-0.60432">
        <ele>63.2</ele>
        <time>2021-07-04T05:46:05Z</time>
      </trkpt>
      <trkpt lat="47.51455" lon="-0.60441">
        <ele>63.2</ele>
        <time>2021-07-04T05:46:07Z</time>
      </trkpt>
      <trkpt lat="47.51446" lon="-0.60451">
        <ele>63.2</ele>
        <time>2021-07-04T05:46:09Z</time>
      </trkpt>
      <trkpt lat="47.51439" lon="-0.60465">
        <ele>63.2</ele>
        <time>2021-07-04T05:46:11Z</time>
      </trkpt>
      <trkpt lat="47.51435" lon="-0.60471">
        <ele>63</ele>
        <time>2021-07-04T05:46:12Z</time>
      </trkpt>
      <trkpt lat="47.51432" lon="-0.60475">
        <ele>62.8</ele>
        <time>2021-07-04T05:46:13Z</time>
      </trkpt>
      <trkpt lat="47.51426" lon="-0.60478">
        <ele>63.2</ele>
        <time>2021-07-04T05:46:15Z</time>
      </trkpt>
      <trkpt lat="47.51421" lon="-0.60482">
        <ele>63</ele>
        <time>2021-07-04T05:46:17Z</time>
      </trkpt>
      <trkpt lat="47.51417" lon="-0.60487">
        <ele>62.6</ele>
        <time>2021-07-04T05:46:19Z</time>
      </trkpt>
      <trkpt lat="47.51414" lon="-0.60489">
        <ele>62.6</ele>
        <time>2021-07-04T05:46:20Z</time>
      </trkpt>
      <trkpt lat="47.51411" lon="-0.60491">
        <ele>62.6</ele>
        <time>2021-07-04T05:46:21Z</time>
      </trkpt>
      <trkpt lat="47.51407" lon="-0.60493">
        <ele>62.4</ele>
        <time>2021-07-04T05:46:22Z</time>
      </trkpt>
      <trkpt lat="47.51403" lon="-0.60494">
        <ele>62.4</ele>
        <time>2021-07-04T05:46:23Z</time>
      </trkpt>
      <trkpt lat="47.51395" lon="-0.60497">
        <ele>62</ele>
        <time>2021-07-04T05:46:25Z</time>
      </trkpt>
      <trkpt lat="47.5139" lon="-0.60499">
        <ele>61.4</ele>
        <time>2021-07-04T05:46:26Z</time>
      </trkpt>
      <trkpt lat="47.51385" lon="-0.605">
        <ele>60.8</ele>
        <time>2021-07-04T05:46:27Z</time>
      </trkpt>
      <trkpt lat="47.51381" lon="-0.60502">
        <ele>60.2</ele>
        <time>2021-07-04T05:46:28Z</time>
      </trkpt>
      <trkpt lat="47.51376" lon="-0.60504">
        <ele>59.6</ele>
        <time>2021-07-04T05:46:29Z</time>
      </trkpt>
      <trkpt lat="47.51365" lon="-0.60509">
        <ele>59</ele>
        <time>2021-07-04T05:46:31Z</time>
      </trkpt>
      <trkpt lat="47.51352" lon="-0.60515">
        <ele>58.4</ele>
        <time>2021-07-04T05:46:33Z</time>
      </trkpt>
      <trkpt lat="47.51338" lon="-0.6052">
        <ele>58</ele>
        <time>2021-07-04T05:46:35Z</time>
      </trkpt>
      <trkpt lat="47.51332" lon="-0.60523">
        <ele>57.4</ele>
        <time>2021-07-04T05:46:36Z</time>
      </trkpt>
      <trkpt lat="47.51325" lon="-0.60527">
        <ele>57.2</ele>
        <time>2021-07-04T05:46:37Z</time>
      </trkpt>
      <trkpt lat="47.51311" lon="-0.60533">
        <ele>57.6</ele>
        <time>2021-07-04T05:46:39Z</time>
      </trkpt>
      <trkpt lat="47.51297" lon="-0.6054">
        <ele>56.6</ele>
        <time>2021-07-04T05:46:41Z</time>
      </trkpt>
      <trkpt lat="47.51289" lon="-0.60544">
        <ele>56</ele>
        <time>2021-07-04T05:46:42Z</time>
      </trkpt>
      <trkpt lat="47.51283" lon="-0.60548">
        <ele>55.8</ele>
        <time>2021-07-04T05:46:43Z</time>
      </trkpt>
      <trkpt lat="47.51269" lon="-0.60555">
        <ele>55.4</ele>
        <time>2021-07-04T05:46:45Z</time>
      </trkpt>
      <trkpt lat="47.51263" lon="-0.60557">
        <ele>55.2</ele>
        <time>2021-07-04T05:46:46Z</time>
      </trkpt>
      <trkpt lat="47.51256" lon="-0.6056">
        <ele>55</ele>
        <time>2021-07-04T05:46:47Z</time>
      </trkpt>
      <trkpt lat="47.5125" lon="-0.60561">
        <ele>55</ele>
        <time>2021-07-04T05:46:48Z</time>
      </trkpt>
      <trkpt lat="47.51243" lon="-0.60562">
        <ele>54.8</ele>
        <time>2021-07-04T05:46:49Z</time>
      </trkpt>
      <trkpt lat="47.51231" lon="-0.60562">
        <ele>54.2</ele>
        <time>2021-07-04T05:46:51Z</time>
      </trkpt>
      <trkpt lat="47.51225" lon="-0.60563">
        <ele>54.4</ele>
        <time>2021-07-04T05:46:52Z</time>
      </trkpt>
      <trkpt lat="47.51219" lon="-0.60564">
        <ele>54.6</ele>
        <time>2021-07-04T05:46:53Z</time>
      </trkpt>
      <trkpt lat="47.51207" lon="-0.6057">
        <ele>54.8</ele>
        <time>2021-07-04T05:46:55Z</time>
      </trkpt>
      <trkpt lat="47.51203" lon="-0.60573">
        <ele>54.8</ele>
        <time>2021-07-04T05:46:56Z</time>
      </trkpt>
      <trkpt lat="47.51197" lon="-0.60571">
        <ele>54.8</ele>
        <time>2021-07-04T05:46:57Z</time>
      </trkpt>
      <trkpt lat="47.51189" lon="-0.60566">
        <ele>55.2</ele>
        <time>2021-07-04T05:46:59Z</time>
      </trkpt>
      <trkpt lat="47.51185" lon="-0.60561">
        <ele>55.4</ele>
        <time>2021-07-04T05:47:00Z</time>
      </trkpt>
      <trkpt lat="47.51179" lon="-0.60557">
        <ele>55.2</ele>
        <time>2021-07-04T05:47:01Z</time>
      </trkpt>
      <trkpt lat="47.51169" lon="-0.60546">
        <ele>55</ele>
        <time>2021-07-04T05:47:03Z</time>
      </trkpt>
      <trkpt lat="47.51165" lon="-0.6054">
        <ele>54.4</ele>
        <time>2021-07-04T05:47:04Z</time>
      </trkpt>
      <trkpt lat="47.51161" lon="-0.60533">
        <ele>54</ele>
        <time>2021-07-04T05:47:05Z</time>
      </trkpt>
      <trkpt lat="47.51157" lon="-0.60526">
        <ele>53.8</ele>
        <time>2021-07-04T05:47:06Z</time>
      </trkpt>
      <trkpt lat="47.51153" lon="-0.6052">
        <ele>53.6</ele>
        <time>2021-07-04T05:47:07Z</time>
      </trkpt>
      <trkpt lat="47.51145" lon="-0.60507">
        <ele>53.4</ele>
        <time>2021-07-04T05:47:09Z</time>
      </trkpt>
      <trkpt lat="47.51138" lon="-0.60494">
        <ele>53.4</ele>
        <time>2021-07-04T05:47:11Z</time>
      </trkpt>
      <trkpt lat="47.51134" lon="-0.60487">
        <ele>53.2</ele>
        <time>2021-07-04T05:47:12Z</time>
      </trkpt>
      <trkpt lat="47.51129" lon="-0.6048">
        <ele>53</ele>
        <time>2021-07-04T05:47:13Z</time>
      </trkpt>
      <trkpt lat="47.51121" lon="-0.60467">
        <ele>52.6</ele>
        <time>2021-07-04T05:47:15Z</time>
      </trkpt>
      <trkpt lat="47.51113" lon="-0.60453">
        <ele>52.6</ele>
        <time>2021-07-04T05:47:17Z</time>
      </trkpt>
      <trkpt lat="47.51104" lon="-0.60439">
        <ele>52.6</ele>
        <time>2021-07-04T05:47:19Z</time>
      </trkpt>
      <trkpt lat="47.51098" lon="-0.60426">
        <ele>52.8</ele>
        <time>2021-07-04T05:47:21Z</time>
      </trkpt>
      <trkpt lat="47.5109" lon="-0.60413">
        <ele>52.6</ele>
        <time>2021-07-04T05:47:23Z</time>
      </trkpt>
      <trkpt lat="47.51086" lon="-0.60408">
        <ele>52.4</ele>
        <time>2021-07-04T05:47:24Z</time>
      </trkpt>
      <trkpt lat="47.5108" lon="-0.60405">
        <ele>52.2</ele>
        <time>2021-07-04T05:47:25Z</time>
      </trkpt>
      <trkpt lat="47.51069" lon="-0.604">
        <ele>52</ele>
        <time>2021-07-04T05:47:27Z</time>
      </trkpt>
      <trkpt lat="47.51059" lon="-0.60387">
        <ele>52</ele>
        <time>2021-07-04T05:47:29Z</time>
      </trkpt>
      <trkpt lat="47.51057" lon="-0.60378">
        <ele>52</ele>
        <time>2021-07-04T05:47:30Z</time>
      </trkpt>
      <trkpt lat="47.51057" lon="-0.60368">
        <ele>52.4</ele>
        <time>2021-07-04T05:47:31Z</time>
      </trkpt>
      <trkpt lat="47.51058" lon="-0.6036">
        <ele>52.4</ele>
        <time>2021-07-04T05:47:32Z</time>
      </trkpt>
      <trkpt lat="47.51057" lon="-0.60351">
        <ele>52.6</ele>
        <time>2021-07-04T05:47:33Z</time>
      </trkpt>
      <trkpt lat="47.51051" lon="-0.60337">
        <ele>52.6</ele>
        <time>2021-07-04T05:47:35Z</time>
      </trkpt>
      <trkpt lat="47.51048" lon="-0.6033">
        <ele>52.8</ele>
        <time>2021-07-04T05:47:36Z</time>
      </trkpt>
      <trkpt lat="47.51045" lon="-0.60324">
        <ele>52.8</ele>
        <time>2021-07-04T05:47:37Z</time>
      </trkpt>
      <trkpt lat="47.51039" lon="-0.60312">
        <ele>53.2</ele>
        <time>2021-07-04T05:47:39Z</time>
      </trkpt>
      <trkpt lat="47.51036" lon="-0.60308">
        <ele>53.4</ele>
        <time>2021-07-04T05:47:40Z</time>
      </trkpt>
      <trkpt lat="47.51032" lon="-0.60307">
        <ele>53.8</ele>
        <time>2021-07-04T05:47:41Z</time>
      </trkpt>
      <trkpt lat="47.51023" lon="-0.6031">
        <ele>54.2</ele>
        <time>2021-07-04T05:47:43Z</time>
      </trkpt>
      <trkpt lat="47.51018" lon="-0.60309">
        <ele>53.6</ele>
        <time>2021-07-04T05:47:44Z</time>
      </trkpt>
      <trkpt lat="47.51013" lon="-0.60307">
        <ele>53.2</ele>
        <time>2021-07-04T05:47:45Z</time>
      </trkpt>
      <trkpt lat="47.51009" lon="-0.60303">
        <ele>52.6</ele>
        <time>2021-07-04T05:47:46Z</time>
      </trkpt>
      <trkpt lat="47.51005" lon="-0.60298">
        <ele>52.6</ele>
        <time>2021-07-04T05:47:47Z</time>
      </trkpt>
      <trkpt lat="47.50994" lon="-0.60292">
        <ele>52.6</ele>
        <time>2021-07-04T05:47:49Z</time>
      </trkpt>
      <trkpt lat="47.50988" lon="-0.60291">
        <ele>52.2</ele>
        <time>2021-07-04T05:47:50Z</time>
      </trkpt>
      <trkpt lat="47.50982" lon="-0.6029">
        <ele>51.8</ele>
        <time>2021-07-04T05:47:51Z</time>
      </trkpt>
      <trkpt lat="47.50976" lon="-0.60291">
        <ele>50.8</ele>
        <time>2021-07-04T05:47:52Z</time>
      </trkpt>
      <trkpt lat="47.5097" lon="-0.60293">
        <ele>50.4</ele>
        <time>2021-07-04T05:47:53Z</time>
      </trkpt>
      <trkpt lat="47.50965" lon="-0.60297">
        <ele>50.2</ele>
        <time>2021-07-04T05:47:54Z</time>
      </trkpt>
      <trkpt lat="47.50961" lon="-0.60302">
        <ele>50.8</ele>
        <time>2021-07-04T05:47:55Z</time>
      </trkpt>
      <trkpt lat="47.50951" lon="-0.60312">
        <ele>50.8</ele>
        <time>2021-07-04T05:47:57Z</time>
      </trkpt>
      <trkpt lat="47.50942" lon="-0.60321">
        <ele>51.2</ele>
        <time>2021-07-04T05:47:59Z</time>
      </trkpt>
      <trkpt lat="47.50933" lon="-0.6033">
        <ele>51.8</ele>
        <time>2021-07-04T05:48:01Z</time>
      </trkpt>
      <trkpt lat="47.50924" lon="-0.60336">
        <ele>51.8</ele>
        <time>2021-07-04T05:48:03Z</time>
      </trkpt>
      <trkpt lat="47.50914" lon="-0.60342">
        <ele>51.6</ele>
        <time>2021-07-04T05:48:05Z</time>
      </trkpt>
      <trkpt lat="47.50909" lon="-0.60344">
        <ele>51.6</ele>
        <time>2021-07-04T05:48:06Z</time>
      </trkpt>
      <trkpt lat="47.50904" lon="-0.60347">
        <ele>52</ele>
        <time>2021-07-04T05:48:07Z</time>
      </trkpt>
      <trkpt lat="47.50897" lon="-0.60351">
        <ele>52</ele>
        <time>2021-07-04T05:48:09Z</time>
      </trkpt>
      <trkpt lat="47.50894" lon="-0.60354">
        <ele>52.2</ele>
        <time>2021-07-04T05:48:10Z</time>
      </trkpt>
      <trkpt lat="47.50892" lon="-0.60357">
        <ele>52.4</ele>
        <time>2021-07-04T05:48:11Z</time>
      </trkpt>
      <trkpt lat="47.50887" lon="-0.60363">
        <ele>52.2</ele>
        <time>2021-07-04T05:48:13Z</time>
      </trkpt>
      <trkpt lat="47.50883" lon="-0.60366">
        <ele>52.2</ele>
        <time>2021-07-04T05:48:14Z</time>
      </trkpt>
      <trkpt lat="47.5088" lon="-0.60369">
        <ele>52</ele>
        <time>2021-07-04T05:48:15Z</time>
      </trkpt>
      <trkpt lat="47.50873" lon="-0.60374">
        <ele>51.6</ele>
        <time>2021-07-04T05:48:17Z</time>
      </trkpt>
      <trkpt lat="47.50869" lon="-0.60375">
        <ele>51.4</ele>
        <time>2021-07-04T05:48:18Z</time>
      </trkpt>
      <trkpt lat="47.50865" lon="-0.60375">
        <ele>51.4</ele>
        <time>2021-07-04T05:48:19Z</time>
      </trkpt>
      <trkpt lat="47.50858" lon="-0.6037">
        <ele>51.2</ele>
        <time>2021-07-04T05:48:21Z</time>
      </trkpt>
      <trkpt lat="47.50853" lon="-0.60369">
        <ele>51.2</ele>
        <time>2021-07-04T05:48:22Z</time>
      </trkpt>
      <trkpt lat="47.50848" lon="-0.60368">
        <ele>51.2</ele>
        <time>2021-07-04T05:48:23Z</time>
      </trkpt>
      <trkpt lat="47.50843" lon="-0.60368">
        <ele>51.2</ele>
        <time>2021-07-04T05:48:24Z</time>
      </trkpt>
      <trkpt lat="47.50837" lon="-0.6037">
        <ele>51.2</ele>
        <time>2021-07-04T05:48:25Z</time>
      </trkpt>
      <trkpt lat="47.50828" lon="-0.60373">
        <ele>50.8</ele>
        <time>2021-07-04T05:48:27Z</time>
      </trkpt>
      <trkpt lat="47.50823" lon="-0.60375">
        <ele>50.8</ele>
        <time>2021-07-04T05:48:28Z</time>
      </trkpt>
      <trkpt lat="47.50819" lon="-0.60376">
        <ele>51</ele>
        <time>2021-07-04T05:48:29Z</time>
      </trkpt>
      <trkpt lat="47.50811" lon="-0.60382">
        <ele>51.4</ele>
        <time>2021-07-04T05:48:31Z</time>
      </trkpt>
      <trkpt lat="47.50804" lon="-0.60389">
        <ele>51.4</ele>
        <time>2021-07-04T05:48:33Z</time>
      </trkpt>
      <trkpt lat="47.508" lon="-0.60393">
        <ele>51.2</ele>
        <time>2021-07-04T05:48:34Z</time>
      </trkpt>
      <trkpt lat="47.50795" lon="-0.60396">
        <ele>51.4</ele>
        <time>2021-07-04T05:48:35Z</time>
      </trkpt>
      <trkpt lat="47.50786" lon="-0.60402">
        <ele>51.4</ele>
        <time>2021-07-04T05:48:37Z</time>
      </trkpt>
      <trkpt lat="47.50777" lon="-0.60407">
        <ele>51.4</ele>
        <time>2021-07-04T05:48:39Z</time>
      </trkpt>
      <trkpt lat="47.50767" lon="-0.60412">
        <ele>51.6</ele>
        <time>2021-07-04T05:48:41Z</time>
      </trkpt>
      <trkpt lat="47.50762" lon="-0.60415">
        <ele>51.6</ele>
        <time>2021-07-04T05:48:42Z</time>
      </trkpt>
      <trkpt lat="47.50756" lon="-0.60417">
        <ele>51.8</ele>
        <time>2021-07-04T05:48:43Z</time>
      </trkpt>
      <trkpt lat="47.50745" lon="-0.60422">
        <ele>51.4</ele>
        <time>2021-07-04T05:48:45Z</time>
      </trkpt>
      <trkpt lat="47.50741" lon="-0.60424">
        <ele>51</ele>
        <time>2021-07-04T05:48:46Z</time>
      </trkpt>
      <trkpt lat="47.50738" lon="-0.6043">
        <ele>51.2</ele>
        <time>2021-07-04T05:48:47Z</time>
      </trkpt>
      <trkpt lat="47.50733" lon="-0.60442">
        <ele>51.2</ele>
        <time>2021-07-04T05:48:49Z</time>
      </trkpt>
      <trkpt lat="47.5073" lon="-0.60448">
        <ele>51.2</ele>
        <time>2021-07-04T05:48:50Z</time>
      </trkpt>
      <trkpt lat="47.50726" lon="-0.60452">
        <ele>51.2</ele>
        <time>2021-07-04T05:48:51Z</time>
      </trkpt>
      <trkpt lat="47.50722" lon="-0.60454">
        <ele>51.6</ele>
        <time>2021-07-04T05:48:52Z</time>
      </trkpt>
      <trkpt lat="47.50718" lon="-0.60456">
        <ele>51.8</ele>
        <time>2021-07-04T05:48:53Z</time>
      </trkpt>
      <trkpt lat="47.50713" lon="-0.60454">
        <ele>52.4</ele>
        <time>2021-07-04T05:48:55Z</time>
      </trkpt>
      <trkpt lat="47.50708" lon="-0.60446">
        <ele>51.8</ele>
        <time>2021-07-04T05:48:57Z</time>
      </trkpt>
      <trkpt lat="47.50703" lon="-0.60439">
        <ele>51</ele>
        <time>2021-07-04T05:48:59Z</time>
      </trkpt>
      <trkpt lat="47.50696" lon="-0.60431">
        <ele>51.2</ele>
        <time>2021-07-04T05:49:01Z</time>
      </trkpt>
      <trkpt lat="47.50693" lon="-0.60426">
        <ele>51.2</ele>
        <time>2021-07-04T05:49:02Z</time>
      </trkpt>
      <trkpt lat="47.50689" lon="-0.60421">
        <ele>51</ele>
        <time>2021-07-04T05:49:03Z</time>
      </trkpt>
      <trkpt lat="47.50686" lon="-0.60416">
        <ele>50.8</ele>
        <time>2021-07-04T05:49:04Z</time>
      </trkpt>
      <trkpt lat="47.50682" lon="-0.6041">
        <ele>51</ele>
        <time>2021-07-04T05:49:05Z</time>
      </trkpt>
      <trkpt lat="47.50679" lon="-0.60405">
        <ele>51.2</ele>
        <time>2021-07-04T05:49:06Z</time>
      </trkpt>
      <trkpt lat="47.50676" lon="-0.60399">
        <ele>51.4</ele>
        <time>2021-07-04T05:49:07Z</time>
      </trkpt>
      <trkpt lat="47.50669" lon="-0.60388">
        <ele>51.6</ele>
        <time>2021-07-04T05:49:09Z</time>
      </trkpt>
      <trkpt lat="47.50666" lon="-0.60382">
        <ele>51.4</ele>
        <time>2021-07-04T05:49:10Z</time>
      </trkpt>
      <trkpt lat="47.50662" lon="-0.60377">
        <ele>51.4</ele>
        <time>2021-07-04T05:49:11Z</time>
      </trkpt>
      <trkpt lat="47.50656" lon="-0.60369">
        <ele>51.4</ele>
        <time>2021-07-04T05:49:13Z</time>
      </trkpt>
      <trkpt lat="47.50652" lon="-0.60367">
        <ele>51.8</ele>
        <time>2021-07-04T05:49:14Z</time>
      </trkpt>
      <trkpt lat="47.50647" lon="-0.60366">
        <ele>52</ele>
        <time>2021-07-04T05:49:15Z</time>
      </trkpt>
      <trkpt lat="47.50636" lon="-0.60369">
        <ele>51.8</ele>
        <time>2021-07-04T05:49:17Z</time>
      </trkpt>
      <trkpt lat="47.50626" lon="-0.60377">
        <ele>51.2</ele>
        <time>2021-07-04T05:49:19Z</time>
      </trkpt>
      <trkpt lat="47.50622" lon="-0.60382">
        <ele>51</ele>
        <time>2021-07-04T05:49:20Z</time>
      </trkpt>
      <trkpt lat="47.50619" lon="-0.60386">
        <ele>51</ele>
        <time>2021-07-04T05:49:21Z</time>
      </trkpt>
      <trkpt lat="47.50617" lon="-0.60388">
        <ele>51</ele>
        <time>2021-07-04T05:49:22Z</time>
      </trkpt>
      <trkpt lat="47.50616" lon="-0.6039">
        <ele>51.2</ele>
        <time>2021-07-04T05:49:23Z</time>
      </trkpt>
      <trkpt lat="47.50616" lon="-0.60396">
        <ele>51.4</ele>
        <time>2021-07-04T05:49:25Z</time>
      </trkpt>
      <trkpt lat="47.50616" lon="-0.60401">
        <ele>51.2</ele>
        <time>2021-07-04T05:49:26Z</time>
      </trkpt>
      <trkpt lat="47.50617" lon="-0.60405">
        <ele>51.2</ele>
        <time>2021-07-04T05:49:27Z</time>
      </trkpt>
      <trkpt lat="47.50616" lon="-0.60411">
        <ele>50.8</ele>
        <time>2021-07-04T05:49:29Z</time>
      </trkpt>
      <trkpt lat="47.50614" lon="-0.60411">
        <ele>50.6</ele>
        <time>2021-07-04T05:49:30Z</time>
      </trkpt>
      <trkpt lat="47.50613" lon="-0.60412">
        <ele>50.2</ele>
        <time>2021-07-04T05:49:31Z</time>
      </trkpt>
      <trkpt lat="47.50611" lon="-0.60412">
        <ele>50.2</ele>
        <time>2021-07-04T05:49:33Z</time>
      </trkpt>
      <trkpt lat="47.50608" lon="-0.60413">
        <ele>50.2</ele>
        <time>2021-07-04T05:49:35Z</time>
      </trkpt>
      <trkpt lat="47.50605" lon="-0.60415">
        <ele>50.2</ele>
        <time>2021-07-04T05:49:36Z</time>
      </trkpt>
      <trkpt lat="47.50601" lon="-0.60416">
        <ele>50</ele>
        <time>2021-07-04T05:49:37Z</time>
      </trkpt>
      <trkpt lat="47.50597" lon="-0.60418">
        <ele>49.6</ele>
        <time>2021-07-04T05:49:38Z</time>
      </trkpt>
      <trkpt lat="47.50593" lon="-0.6042">
        <ele>49</ele>
        <time>2021-07-04T05:49:39Z</time>
      </trkpt>
      <trkpt lat="47.50586" lon="-0.60425">
        <ele>48</ele>
        <time>2021-07-04T05:49:41Z</time>
      </trkpt>
      <trkpt lat="47.50579" lon="-0.60432">
        <ele>48.4</ele>
        <time>2021-07-04T05:49:43Z</time>
      </trkpt>
      <trkpt lat="47.50576" lon="-0.60435">
        <ele>48.6</ele>
        <time>2021-07-04T05:49:44Z</time>
      </trkpt>
      <trkpt lat="47.50571" lon="-0.60437">
        <ele>48.6</ele>
        <time>2021-07-04T05:49:45Z</time>
      </trkpt>
      <trkpt lat="47.50559" lon="-0.60439">
        <ele>48</ele>
        <time>2021-07-04T05:49:47Z</time>
      </trkpt>
      <trkpt lat="47.50548" lon="-0.6044">
        <ele>48</ele>
        <time>2021-07-04T05:49:49Z</time>
      </trkpt>
      <trkpt lat="47.50537" lon="-0.60443">
        <ele>48.2</ele>
        <time>2021-07-04T05:49:51Z</time>
      </trkpt>
      <trkpt lat="47.50531" lon="-0.60445">
        <ele>48.2</ele>
        <time>2021-07-04T05:49:52Z</time>
      </trkpt>
      <trkpt lat="47.50526" lon="-0.60447">
        <ele>48</ele>
        <time>2021-07-04T05:49:53Z</time>
      </trkpt>
      <trkpt lat="47.50516" lon="-0.6045">
        <ele>48</ele>
        <time>2021-07-04T05:49:55Z</time>
      </trkpt>
      <trkpt lat="47.50511" lon="-0.60456">
        <ele>48.2</ele>
        <time>2021-07-04T05:49:57Z</time>
      </trkpt>
      <trkpt lat="47.50505" lon="-0.60464">
        <ele>48</ele>
        <time>2021-07-04T05:49:59Z</time>
      </trkpt>
      <trkpt lat="47.50496" lon="-0.60469">
        <ele>47.6</ele>
        <time>2021-07-04T05:50:01Z</time>
      </trkpt>
      <trkpt lat="47.50487" lon="-0.60471">
        <ele>46.8</ele>
        <time>2021-07-04T05:50:03Z</time>
      </trkpt>
      <trkpt lat="47.50479" lon="-0.60471">
        <ele>46.4</ele>
        <time>2021-07-04T05:50:05Z</time>
      </trkpt>
      <trkpt lat="47.50474" lon="-0.60471">
        <ele>46.2</ele>
        <time>2021-07-04T05:50:06Z</time>
      </trkpt>
      <trkpt lat="47.50468" lon="-0.60473">
        <ele>46.4</ele>
        <time>2021-07-04T05:50:07Z</time>
      </trkpt>
      <trkpt lat="47.50455" lon="-0.60474">
        <ele>46.2</ele>
        <time>2021-07-04T05:50:09Z</time>
      </trkpt>
      <trkpt lat="47.50441" lon="-0.60474">
        <ele>46.4</ele>
        <time>2021-07-04T05:50:11Z</time>
      </trkpt>
      <trkpt lat="47.50427" lon="-0.60473">
        <ele>46.4</ele>
        <time>2021-07-04T05:50:13Z</time>
      </trkpt>
      <trkpt lat="47.5042" lon="-0.60472">
        <ele>46.2</ele>
        <time>2021-07-04T05:50:14Z</time>
      </trkpt>
      <trkpt lat="47.50414" lon="-0.6047">
        <ele>46.2</ele>
        <time>2021-07-04T05:50:15Z</time>
      </trkpt>
      <trkpt lat="47.50403" lon="-0.60464">
        <ele>46</ele>
        <time>2021-07-04T05:50:17Z</time>
      </trkpt>
      <trkpt lat="47.50398" lon="-0.6046">
        <ele>45.6</ele>
        <time>2021-07-04T05:50:18Z</time>
      </trkpt>
      <trkpt lat="47.50393" lon="-0.60456">
        <ele>45.8</ele>
        <time>2021-07-04T05:50:19Z</time>
      </trkpt>
      <trkpt lat="47.50383" lon="-0.60448">
        <ele>46.2</ele>
        <time>2021-07-04T05:50:21Z</time>
      </trkpt>
      <trkpt lat="47.50371" lon="-0.60441">
        <ele>46.2</ele>
        <time>2021-07-04T05:50:23Z</time>
      </trkpt>
      <trkpt lat="47.50359" lon="-0.60435">
        <ele>45.6</ele>
        <time>2021-07-04T05:50:25Z</time>
      </trkpt>
      <trkpt lat="47.50347" lon="-0.60429">
        <ele>46.2</ele>
        <time>2021-07-04T05:50:27Z</time>
      </trkpt>
      <trkpt lat="47.50341" lon="-0.60426">
        <ele>46.6</ele>
        <time>2021-07-04T05:50:28Z</time>
      </trkpt>
      <trkpt lat="47.50335" lon="-0.60423">
        <ele>46.6</ele>
        <time>2021-07-04T05:50:29Z</time>
      </trkpt>
      <trkpt lat="47.50328" lon="-0.60421">
        <ele>46.6</ele>
        <time>2021-07-04T05:50:30Z</time>
      </trkpt>
      <trkpt lat="47.50322" lon="-0.60421">
        <ele>46.6</ele>
        <time>2021-07-04T05:50:31Z</time>
      </trkpt>
      <trkpt lat="47.50316" lon="-0.60422">
        <ele>46.6</ele>
        <time>2021-07-04T05:50:32Z</time>
      </trkpt>
      <trkpt lat="47.5031" lon="-0.60423">
        <ele>46.2</ele>
        <time>2021-07-04T05:50:33Z</time>
      </trkpt>
      <trkpt lat="47.50305" lon="-0.60424">
        <ele>46.2</ele>
        <time>2021-07-04T05:50:34Z</time>
      </trkpt>
      <trkpt lat="47.50301" lon="-0.60425">
        <ele>46.4</ele>
        <time>2021-07-04T05:50:35Z</time>
      </trkpt>
      <trkpt lat="47.50299" lon="-0.60425">
        <ele>46.8</ele>
        <time>2021-07-04T05:50:36Z</time>
      </trkpt>
      <trkpt lat="47.50296" lon="-0.60424">
        <ele>46.6</ele>
        <time>2021-07-04T05:50:37Z</time>
      </trkpt>
      <trkpt lat="47.50291" lon="-0.60426">
        <ele>46.4</ele>
        <time>2021-07-04T05:50:39Z</time>
      </trkpt>
      <trkpt lat="47.5029" lon="-0.60428">
        <ele>46.4</ele>
        <time>2021-07-04T05:50:40Z</time>
      </trkpt>
      <trkpt lat="47.50289" lon="-0.60431">
        <ele>46.2</ele>
        <time>2021-07-04T05:50:41Z</time>
      </trkpt>
      <trkpt lat="47.50288" lon="-0.60439">
        <ele>46</ele>
        <time>2021-07-04T05:50:43Z</time>
      </trkpt>
      <trkpt lat="47.50288" lon="-0.60443">
        <ele>45.8</ele>
        <time>2021-07-04T05:50:44Z</time>
      </trkpt>
      <trkpt lat="47.50287" lon="-0.60446">
        <ele>45.8</ele>
        <time>2021-07-04T05:50:45Z</time>
      </trkpt>
      <trkpt lat="47.50281" lon="-0.60451">
        <ele>45.6</ele>
        <time>2021-07-04T05:50:47Z</time>
      </trkpt>
      <trkpt lat="47.50273" lon="-0.60455">
        <ele>44.8</ele>
        <time>2021-07-04T05:50:49Z</time>
      </trkpt>
      <trkpt lat="47.50268" lon="-0.60457">
        <ele>44.2</ele>
        <time>2021-07-04T05:50:50Z</time>
      </trkpt>
      <trkpt lat="47.50264" lon="-0.60458">
        <ele>44.4</ele>
        <time>2021-07-04T05:50:51Z</time>
      </trkpt>
      <trkpt lat="47.50259" lon="-0.60458">
        <ele>44</ele>
        <time>2021-07-04T05:50:52Z</time>
      </trkpt>
      <trkpt lat="47.50253" lon="-0.60459">
        <ele>43.6</ele>
        <time>2021-07-04T05:50:53Z</time>
      </trkpt>
      <trkpt lat="47.50247" lon="-0.6046">
        <ele>43</ele>
        <time>2021-07-04T05:50:54Z</time>
      </trkpt>
      <trkpt lat="47.50241" lon="-0.60464">
        <ele>42.8</ele>
        <time>2021-07-04T05:50:55Z</time>
      </trkpt>
      <trkpt lat="47.50229" lon="-0.60471">
        <ele>42.6</ele>
        <time>2021-07-04T05:50:57Z</time>
      </trkpt>
      <trkpt lat="47.50217" lon="-0.60477">
        <ele>42.2</ele>
        <time>2021-07-04T05:50:59Z</time>
      </trkpt>
      <trkpt lat="47.5021" lon="-0.6048">
        <ele>42.2</ele>
        <time>2021-07-04T05:51:00Z</time>
      </trkpt>
      <trkpt lat="47.50205" lon="-0.60483">
        <ele>42.2</ele>
        <time>2021-07-04T05:51:01Z</time>
      </trkpt>
      <trkpt lat="47.50193" lon="-0.6049">
        <ele>42</ele>
        <time>2021-07-04T05:51:03Z</time>
      </trkpt>
      <trkpt lat="47.50181" lon="-0.60497">
        <ele>42.2</ele>
        <time>2021-07-04T05:51:05Z</time>
      </trkpt>
      <trkpt lat="47.50174" lon="-0.605">
        <ele>42</ele>
        <time>2021-07-04T05:51:06Z</time>
      </trkpt>
      <trkpt lat="47.50168" lon="-0.60502">
        <ele>41.8</ele>
        <time>2021-07-04T05:51:07Z</time>
      </trkpt>
      <trkpt lat="47.50157" lon="-0.60506">
        <ele>42</ele>
        <time>2021-07-04T05:51:09Z</time>
      </trkpt>
      <trkpt lat="47.50147" lon="-0.60505">
        <ele>42</ele>
        <time>2021-07-04T05:51:11Z</time>
      </trkpt>
      <trkpt lat="47.50142" lon="-0.60502">
        <ele>42</ele>
        <time>2021-07-04T05:51:12Z</time>
      </trkpt>
      <trkpt lat="47.50137" lon="-0.60499">
        <ele>42</ele>
        <time>2021-07-04T05:51:13Z</time>
      </trkpt>
      <trkpt lat="47.50132" lon="-0.60495">
        <ele>41.8</ele>
        <time>2021-07-04T05:51:14Z</time>
      </trkpt>
      <trkpt lat="47.50126" lon="-0.60492">
        <ele>41.6</ele>
        <time>2021-07-04T05:51:15Z</time>
      </trkpt>
      <trkpt lat="47.50115" lon="-0.60483">
        <ele>41.2</ele>
        <time>2021-07-04T05:51:17Z</time>
      </trkpt>
      <trkpt lat="47.50104" lon="-0.60475">
        <ele>41.4</ele>
        <time>2021-07-04T05:51:19Z</time>
      </trkpt>
      <trkpt lat="47.5009" lon="-0.60469">
        <ele>41.6</ele>
        <time>2021-07-04T05:51:21Z</time>
      </trkpt>
      <trkpt lat="47.50077" lon="-0.60465">
        <ele>41.4</ele>
        <time>2021-07-04T05:51:23Z</time>
      </trkpt>
      <trkpt lat="47.50065" lon="-0.60458">
        <ele>41.2</ele>
        <time>2021-07-04T05:51:25Z</time>
      </trkpt>
      <trkpt lat="47.50058" lon="-0.60455">
        <ele>40.8</ele>
        <time>2021-07-04T05:51:26Z</time>
      </trkpt>
      <trkpt lat="47.50051" lon="-0.60454">
        <ele>40.6</ele>
        <time>2021-07-04T05:51:27Z</time>
      </trkpt>
      <trkpt lat="47.50039" lon="-0.6045">
        <ele>39.6</ele>
        <time>2021-07-04T05:51:29Z</time>
      </trkpt>
      <trkpt lat="47.50034" lon="-0.60449">
        <ele>39.2</ele>
        <time>2021-07-04T05:51:30Z</time>
      </trkpt>
      <trkpt lat="47.5003" lon="-0.60449">
        <ele>39.2</ele>
        <time>2021-07-04T05:51:31Z</time>
      </trkpt>
      <trkpt lat="47.50024" lon="-0.60451">
        <ele>39.8</ele>
        <time>2021-07-04T05:51:33Z</time>
      </trkpt>
      <trkpt lat="47.5002" lon="-0.60452">
        <ele>40</ele>
        <time>2021-07-04T05:51:34Z</time>
      </trkpt>
      <trkpt lat="47.50017" lon="-0.60454">
        <ele>39.8</ele>
        <time>2021-07-04T05:51:35Z</time>
      </trkpt>
      <trkpt lat="47.50018" lon="-0.60461">
        <ele>39.8</ele>
        <time>2021-07-04T05:51:36Z</time>
      </trkpt>
      <trkpt lat="47.50018" lon="-0.6047">
        <ele>39.8</ele>
        <time>2021-07-04T05:51:37Z</time>
      </trkpt>
      <trkpt lat="47.50017" lon="-0.60489">
        <ele>40</ele>
        <time>2021-07-04T05:51:39Z</time>
      </trkpt>
      <trkpt lat="47.50016" lon="-0.60508">
        <ele>39.8</ele>
        <time>2021-07-04T05:51:41Z</time>
      </trkpt>
      <trkpt lat="47.50015" lon="-0.60517">
        <ele>39.6</ele>
        <time>2021-07-04T05:51:42Z</time>
      </trkpt>
      <trkpt lat="47.50014" lon="-0.60527">
        <ele>39.6</ele>
        <time>2021-07-04T05:51:43Z</time>
      </trkpt>
      <trkpt lat="47.50011" lon="-0.60547">
        <ele>39.4</ele>
        <time>2021-07-04T05:51:45Z</time>
      </trkpt>
      <trkpt lat="47.50011" lon="-0.60556">
        <ele>39.4</ele>
        <time>2021-07-04T05:51:46Z</time>
      </trkpt>
      <trkpt lat="47.5001" lon="-0.60565">
        <ele>39.4</ele>
        <time>2021-07-04T05:51:47Z</time>
      </trkpt>
      <trkpt lat="47.50008" lon="-0.60585">
        <ele>39.2</ele>
        <time>2021-07-04T05:51:49Z</time>
      </trkpt>
      <trkpt lat="47.50005" lon="-0.60605">
        <ele>39</ele>
        <time>2021-07-04T05:51:51Z</time>
      </trkpt>
      <trkpt lat="47.50002" lon="-0.60625">
        <ele>39.2</ele>
        <time>2021-07-04T05:51:53Z</time>
      </trkpt>
      <trkpt lat="47.49999" lon="-0.60644">
        <ele>39</ele>
        <time>2021-07-04T05:51:55Z</time>
      </trkpt>
      <trkpt lat="47.49994" lon="-0.60664">
        <ele>38.6</ele>
        <time>2021-07-04T05:51:57Z</time>
      </trkpt>
      <trkpt lat="47.49989" lon="-0.60684">
        <ele>38.6</ele>
        <time>2021-07-04T05:51:59Z</time>
      </trkpt>
      <trkpt lat="47.49986" lon="-0.60694">
        <ele>38.6</ele>
        <time>2021-07-04T05:52:00Z</time>
      </trkpt>
      <trkpt lat="47.49982" lon="-0.60701">
        <ele>38.4</ele>
        <time>2021-07-04T05:52:01Z</time>
      </trkpt>
      <trkpt lat="47.49971" lon="-0.60713">
        <ele>38.6</ele>
        <time>2021-07-04T05:52:03Z</time>
      </trkpt>
      <trkpt lat="47.49966" lon="-0.60719">
        <ele>38.6</ele>
        <time>2021-07-04T05:52:04Z</time>
      </trkpt>
      <trkpt lat="47.4996" lon="-0.60725">
        <ele>38.6</ele>
        <time>2021-07-04T05:52:05Z</time>
      </trkpt>
      <trkpt lat="47.49955" lon="-0.60731">
        <ele>38.8</ele>
        <time>2021-07-04T05:52:06Z</time>
      </trkpt>
      <trkpt lat="47.49949" lon="-0.60736">
        <ele>39</ele>
        <time>2021-07-04T05:52:07Z</time>
      </trkpt>
      <trkpt lat="47.49938" lon="-0.60746">
        <ele>39</ele>
        <time>2021-07-04T05:52:09Z</time>
      </trkpt>
      <trkpt lat="47.49926" lon="-0.60754">
        <ele>38.4</ele>
        <time>2021-07-04T05:52:11Z</time>
      </trkpt>
      <trkpt lat="47.49914" lon="-0.60757">
        <ele>38.2</ele>
        <time>2021-07-04T05:52:13Z</time>
      </trkpt>
      <trkpt lat="47.49907" lon="-0.60759">
        <ele>38.4</ele>
        <time>2021-07-04T05:52:14Z</time>
      </trkpt>
      <trkpt lat="47.49901" lon="-0.60762">
        <ele>38.6</ele>
        <time>2021-07-04T05:52:15Z</time>
      </trkpt>
      <trkpt lat="47.49896" lon="-0.60768">
        <ele>38.8</ele>
        <time>2021-07-04T05:52:16Z</time>
      </trkpt>
      <trkpt lat="47.49893" lon="-0.60775">
        <ele>39.4</ele>
        <time>2021-07-04T05:52:17Z</time>
      </trkpt>
      <trkpt lat="47.4989" lon="-0.60782">
        <ele>39.6</ele>
        <time>2021-07-04T05:52:18Z</time>
      </trkpt>
      <trkpt lat="47.49887" lon="-0.6079">
        <ele>40</ele>
        <time>2021-07-04T05:52:19Z</time>
      </trkpt>
      <trkpt lat="47.49885" lon="-0.60798">
        <ele>40</ele>
        <time>2021-07-04T05:52:20Z</time>
      </trkpt>
      <trkpt lat="47.49883" lon="-0.60805">
        <ele>39.8</ele>
        <time>2021-07-04T05:52:21Z</time>
      </trkpt>
      <trkpt lat="47.4988" lon="-0.60819">
        <ele>40.6</ele>
        <time>2021-07-04T05:52:23Z</time>
      </trkpt>
      <trkpt lat="47.49878" lon="-0.60825">
        <ele>41.4</ele>
        <time>2021-07-04T05:52:24Z</time>
      </trkpt>
      <trkpt lat="47.49877" lon="-0.60832">
        <ele>42.2</ele>
        <time>2021-07-04T05:52:25Z</time>
      </trkpt>
      <trkpt lat="47.49876" lon="-0.60837">
        <ele>42.8</ele>
        <time>2021-07-04T05:52:26Z</time>
      </trkpt>
      <trkpt lat="47.49874" lon="-0.60842">
        <ele>43.2</ele>
        <time>2021-07-04T05:52:27Z</time>
      </trkpt>
      <trkpt lat="47.49872" lon="-0.60845">
        <ele>44</ele>
        <time>2021-07-04T05:52:28Z</time>
      </trkpt>
      <trkpt lat="47.4987" lon="-0.60848">
        <ele>43.6</ele>
        <time>2021-07-04T05:52:29Z</time>
      </trkpt>
      <trkpt lat="47.49867" lon="-0.6085">
        <ele>42.4</ele>
        <time>2021-07-04T05:52:30Z</time>
      </trkpt>
      <trkpt lat="47.49865" lon="-0.60851">
        <ele>41.4</ele>
        <time>2021-07-04T05:52:31Z</time>
      </trkpt>
      <trkpt lat="47.49864" lon="-0.60852">
        <ele>40.4</ele>
        <time>2021-07-04T05:52:32Z</time>
      </trkpt>
      <trkpt lat="47.49861" lon="-0.60853">
        <ele>39.2</ele>
        <time>2021-07-04T05:52:33Z</time>
      </trkpt>
      <trkpt lat="47.49857" lon="-0.6085">
        <ele>37.4</ele>
        <time>2021-07-04T05:52:35Z</time>
      </trkpt>
      <trkpt lat="47.49849" lon="-0.60853">
        <ele>36.2</ele>
        <time>2021-07-04T05:52:37Z</time>
      </trkpt>
      <trkpt lat="47.49843" lon="-0.60857">
        <ele>35.6</ele>
        <time>2021-07-04T05:52:38Z</time>
      </trkpt>
      <trkpt lat="47.49838" lon="-0.60863">
        <ele>34.6</ele>
        <time>2021-07-04T05:52:39Z</time>
      </trkpt>
      <trkpt lat="47.49833" lon="-0.60869">
        <ele>34.2</ele>
        <time>2021-07-04T05:52:40Z</time>
      </trkpt>
      <trkpt lat="47.49828" lon="-0.60876">
        <ele>34</ele>
        <time>2021-07-04T05:52:41Z</time>
      </trkpt>
      <trkpt lat="47.49822" lon="-0.60884">
        <ele>33.6</ele>
        <time>2021-07-04T05:52:42Z</time>
      </trkpt>
      <trkpt lat="47.49817" lon="-0.60891">
        <ele>33.2</ele>
        <time>2021-07-04T05:52:43Z</time>
      </trkpt>
      <trkpt lat="47.49806" lon="-0.60905">
        <ele>32.8</ele>
        <time>2021-07-04T05:52:45Z</time>
      </trkpt>
      <trkpt lat="47.49796" lon="-0.60919">
        <ele>32.6</ele>
        <time>2021-07-04T05:52:47Z</time>
      </trkpt>
      <trkpt lat="47.49785" lon="-0.60934">
        <ele>32.4</ele>
        <time>2021-07-04T05:52:49Z</time>
      </trkpt>
      <trkpt lat="47.49774" lon="-0.60948">
        <ele>31.6</ele>
        <time>2021-07-04T05:52:51Z</time>
      </trkpt>
      <trkpt lat="47.49769" lon="-0.60954">
        <ele>30.8</ele>
        <time>2021-07-04T05:52:52Z</time>
      </trkpt>
      <trkpt lat="47.49764" lon="-0.60961">
        <ele>30.6</ele>
        <time>2021-07-04T05:52:53Z</time>
      </trkpt>
      <trkpt lat="47.49754" lon="-0.60974">
        <ele>30.8</ele>
        <time>2021-07-04T05:52:55Z</time>
      </trkpt>
      <trkpt lat="47.49745" lon="-0.60986">
        <ele>30.4</ele>
        <time>2021-07-04T05:52:57Z</time>
      </trkpt>
      <trkpt lat="47.49742" lon="-0.60991">
        <ele>31</ele>
        <time>2021-07-04T05:52:58Z</time>
      </trkpt>
      <trkpt lat="47.49739" lon="-0.60994">
        <ele>31.4</ele>
        <time>2021-07-04T05:52:59Z</time>
      </trkpt>
      <trkpt lat="47.49737" lon="-0.60997">
        <ele>32</ele>
        <time>2021-07-04T05:53:00Z</time>
      </trkpt>
      <trkpt lat="47.49734" lon="-0.60998">
        <ele>31.8</ele>
        <time>2021-07-04T05:53:01Z</time>
      </trkpt>
      <trkpt lat="47.49732" lon="-0.60997">
        <ele>31.8</ele>
        <time>2021-07-04T05:53:02Z</time>
      </trkpt>
      <trkpt lat="47.49729" lon="-0.60996">
        <ele>31.4</ele>
        <time>2021-07-04T05:53:03Z</time>
      </trkpt>
      <trkpt lat="47.49721" lon="-0.60989">
        <ele>31.4</ele>
        <time>2021-07-04T05:53:05Z</time>
      </trkpt>
      <trkpt lat="47.49715" lon="-0.60985">
        <ele>33.4</ele>
        <time>2021-07-04T05:53:07Z</time>
      </trkpt>
      <trkpt lat="47.49712" lon="-0.60986">
        <ele>34.4</ele>
        <time>2021-07-04T05:53:08Z</time>
      </trkpt>
      <trkpt lat="47.49709" lon="-0.60987">
        <ele>34.8</ele>
        <time>2021-07-04T05:53:09Z</time>
      </trkpt>
      <trkpt lat="47.49704" lon="-0.60992">
        <ele>34.4</ele>
        <time>2021-07-04T05:53:11Z</time>
      </trkpt>
      <trkpt lat="47.49702" lon="-0.60996">
        <ele>33.8</ele>
        <time>2021-07-04T05:53:12Z</time>
      </trkpt>
      <trkpt lat="47.49696" lon="-0.60999">
        <ele>33.4</ele>
        <time>2021-07-04T05:53:13Z</time>
      </trkpt>
      <trkpt lat="47.49686" lon="-0.60997">
        <ele>33</ele>
        <time>2021-07-04T05:53:15Z</time>
      </trkpt>
      <trkpt lat="47.49678" lon="-0.6099">
        <ele>32.2</ele>
        <time>2021-07-04T05:53:17Z</time>
      </trkpt>
      <trkpt lat="47.49674" lon="-0.60986">
        <ele>32.2</ele>
        <time>2021-07-04T05:53:18Z</time>
      </trkpt>
      <trkpt lat="47.4967" lon="-0.60981">
        <ele>32.4</ele>
        <time>2021-07-04T05:53:19Z</time>
      </trkpt>
      <trkpt lat="47.49661" lon="-0.60971">
        <ele>32.2</ele>
        <time>2021-07-04T05:53:21Z</time>
      </trkpt>
      <trkpt lat="47.49652" lon="-0.6096">
        <ele>32</ele>
        <time>2021-07-04T05:53:23Z</time>
      </trkpt>
      <trkpt lat="47.4964" lon="-0.60949">
        <ele>31.8</ele>
        <time>2021-07-04T05:53:25Z</time>
      </trkpt>
      <trkpt lat="47.49634" lon="-0.60942">
        <ele>31.6</ele>
        <time>2021-07-04T05:53:26Z</time>
      </trkpt>
      <trkpt lat="47.49629" lon="-0.60934">
        <ele>31.6</ele>
        <time>2021-07-04T05:53:27Z</time>
      </trkpt>
      <trkpt lat="47.49621" lon="-0.60918">
        <ele>31.6</ele>
        <time>2021-07-04T05:53:29Z</time>
      </trkpt>
      <trkpt lat="47.49614" lon="-0.60901">
        <ele>31.8</ele>
        <time>2021-07-04T05:53:31Z</time>
      </trkpt>
      <trkpt lat="47.49607" lon="-0.60886">
        <ele>32</ele>
        <time>2021-07-04T05:53:33Z</time>
      </trkpt>
      <trkpt lat="47.49602" lon="-0.6087">
        <ele>32.2</ele>
        <time>2021-07-04T05:53:35Z</time>
      </trkpt>
      <trkpt lat="47.49597" lon="-0.60855">
        <ele>32.6</ele>
        <time>2021-07-04T05:53:37Z</time>
      </trkpt>
      <trkpt lat="47.49593" lon="-0.6084">
        <ele>32.8</ele>
        <time>2021-07-04T05:53:39Z</time>
      </trkpt>
      <trkpt lat="47.4959" lon="-0.60824">
        <ele>33</ele>
        <time>2021-07-04T05:53:41Z</time>
      </trkpt>
      <trkpt lat="47.49586" lon="-0.60806">
        <ele>33.2</ele>
        <time>2021-07-04T05:53:43Z</time>
      </trkpt>
      <trkpt lat="47.49584" lon="-0.60798">
        <ele>33.2</ele>
        <time>2021-07-04T05:53:44Z</time>
      </trkpt>
      <trkpt lat="47.49583" lon="-0.6079">
        <ele>33.6</ele>
        <time>2021-07-04T05:53:45Z</time>
      </trkpt>
      <trkpt lat="47.4958" lon="-0.60774">
        <ele>34.2</ele>
        <time>2021-07-04T05:53:47Z</time>
      </trkpt>
      <trkpt lat="47.49578" lon="-0.60759">
        <ele>34.8</ele>
        <time>2021-07-04T05:53:49Z</time>
      </trkpt>
      <trkpt lat="47.49577" lon="-0.60751">
        <ele>35</ele>
        <time>2021-07-04T05:53:50Z</time>
      </trkpt>
      <trkpt lat="47.49577" lon="-0.60743">
        <ele>35</ele>
        <time>2021-07-04T05:53:51Z</time>
      </trkpt>
      <trkpt lat="47.49575" lon="-0.60728">
        <ele>35</ele>
        <time>2021-07-04T05:53:53Z</time>
      </trkpt>
      <trkpt lat="47.49573" lon="-0.60713">
        <ele>35.4</ele>
        <time>2021-07-04T05:53:55Z</time>
      </trkpt>
      <trkpt lat="47.49572" lon="-0.60705">
        <ele>35.6</ele>
        <time>2021-07-04T05:53:56Z</time>
      </trkpt>
      <trkpt lat="47.49571" lon="-0.60697">
        <ele>35.8</ele>
        <time>2021-07-04T05:53:57Z</time>
      </trkpt>
      <trkpt lat="47.49569" lon="-0.60681">
        <ele>36</ele>
        <time>2021-07-04T05:53:59Z</time>
      </trkpt>
      <trkpt lat="47.49567" lon="-0.60666">
        <ele>36.4</ele>
        <time>2021-07-04T05:54:01Z</time>
      </trkpt>
      <trkpt lat="47.49564" lon="-0.60651">
        <ele>36.2</ele>
        <time>2021-07-04T05:54:03Z</time>
      </trkpt>
      <trkpt lat="47.49562" lon="-0.60636">
        <ele>36.4</ele>
        <time>2021-07-04T05:54:05Z</time>
      </trkpt>
      <trkpt lat="47.49559" lon="-0.6062">
        <ele>36.4</ele>
        <time>2021-07-04T05:54:07Z</time>
      </trkpt>
      <trkpt lat="47.49555" lon="-0.60605">
        <ele>36.6</ele>
        <time>2021-07-04T05:54:09Z</time>
      </trkpt>
      <trkpt lat="47.49552" lon="-0.60589">
        <ele>36.6</ele>
        <time>2021-07-04T05:54:11Z</time>
      </trkpt>
      <trkpt lat="47.4955" lon="-0.60575">
        <ele>36.6</ele>
        <time>2021-07-04T05:54:13Z</time>
      </trkpt>
      <trkpt lat="47.49547" lon="-0.6056">
        <ele>36.6</ele>
        <time>2021-07-04T05:54:15Z</time>
      </trkpt>
      <trkpt lat="47.49545" lon="-0.60552">
        <ele>36.4</ele>
        <time>2021-07-04T05:54:16Z</time>
      </trkpt>
      <trkpt lat="47.49544" lon="-0.60544">
        <ele>36.6</ele>
        <time>2021-07-04T05:54:17Z</time>
      </trkpt>
      <trkpt lat="47.4954" lon="-0.60525">
        <ele>37</ele>
        <time>2021-07-04T05:54:19Z</time>
      </trkpt>
      <trkpt lat="47.49536" lon="-0.60507">
        <ele>37</ele>
        <time>2021-07-04T05:54:21Z</time>
      </trkpt>
      <trkpt lat="47.49533" lon="-0.60489">
        <ele>36.8</ele>
        <time>2021-07-04T05:54:23Z</time>
      </trkpt>
      <trkpt lat="47.4953" lon="-0.60472">
        <ele>36.8</ele>
        <time>2021-07-04T05:54:25Z</time>
      </trkpt>
      <trkpt lat="47.49529" lon="-0.60464">
        <ele>37.2</ele>
        <time>2021-07-04T05:54:26Z</time>
      </trkpt>
      <trkpt lat="47.49528" lon="-0.60456">
        <ele>37.4</ele>
        <time>2021-07-04T05:54:27Z</time>
      </trkpt>
      <trkpt lat="47.49527" lon="-0.60449">
        <ele>37.8</ele>
        <time>2021-07-04T05:54:28Z</time>
      </trkpt>
      <trkpt lat="47.49526" lon="-0.60441">
        <ele>38.2</ele>
        <time>2021-07-04T05:54:29Z</time>
      </trkpt>
      <trkpt lat="47.49524" lon="-0.60426">
        <ele>38.6</ele>
        <time>2021-07-04T05:54:31Z</time>
      </trkpt>
      <trkpt lat="47.49522" lon="-0.60419">
        <ele>38.6</ele>
        <time>2021-07-04T05:54:32Z</time>
      </trkpt>
      <trkpt lat="47.49521" lon="-0.60411">
        <ele>39</ele>
        <time>2021-07-04T05:54:33Z</time>
      </trkpt>
      <trkpt lat="47.49518" lon="-0.60395">
        <ele>39</ele>
        <time>2021-07-04T05:54:35Z</time>
      </trkpt>
      <trkpt lat="47.49516" lon="-0.6038">
        <ele>38.6</ele>
        <time>2021-07-04T05:54:37Z</time>
      </trkpt>
      <trkpt lat="47.49514" lon="-0.60365">
        <ele>38.8</ele>
        <time>2021-07-04T05:54:39Z</time>
      </trkpt>
      <trkpt lat="47.49511" lon="-0.60351">
        <ele>39.2</ele>
        <time>2021-07-04T05:54:41Z</time>
      </trkpt>
      <trkpt lat="47.4951" lon="-0.60337">
        <ele>39.6</ele>
        <time>2021-07-04T05:54:43Z</time>
      </trkpt>
      <trkpt lat="47.49507" lon="-0.60329">
        <ele>40</ele>
        <time>2021-07-04T05:54:45Z</time>
      </trkpt>
      <trkpt lat="47.49505" lon="-0.60327">
        <ele>40.2</ele>
        <time>2021-07-04T05:54:46Z</time>
      </trkpt>
      <trkpt lat="47.49503" lon="-0.60326">
        <ele>40.4</ele>
        <time>2021-07-04T05:54:47Z</time>
      </trkpt>
      <trkpt lat="47.495" lon="-0.60324">
        <ele>40.6</ele>
        <time>2021-07-04T05:54:49Z</time>
      </trkpt>
      <trkpt lat="47.49496" lon="-0.60323">
        <ele>41</ele>
        <time>2021-07-04T05:54:55Z</time>
      </trkpt>
      <trkpt lat="47.49489" lon="-0.60321">
        <ele>40.8</ele>
        <time>2021-07-04T05:54:57Z</time>
      </trkpt>
      <trkpt lat="47.49481" lon="-0.6032">
        <ele>40.2</ele>
        <time>2021-07-04T05:54:59Z</time>
      </trkpt>
      <trkpt lat="47.49472" lon="-0.6032">
        <ele>39.6</ele>
        <time>2021-07-04T05:55:01Z</time>
      </trkpt>
      <trkpt lat="47.49467" lon="-0.60321">
        <ele>39.4</ele>
        <time>2021-07-04T05:55:02Z</time>
      </trkpt>
      <trkpt lat="47.49462" lon="-0.60322">
        <ele>39.6</ele>
        <time>2021-07-04T05:55:03Z</time>
      </trkpt>
      <trkpt lat="47.49452" lon="-0.60325">
        <ele>39.2</ele>
        <time>2021-07-04T05:55:05Z</time>
      </trkpt>
      <trkpt lat="47.49446" lon="-0.60327">
        <ele>39</ele>
        <time>2021-07-04T05:55:06Z</time>
      </trkpt>
      <trkpt lat="47.49441" lon="-0.60328">
        <ele>38.8</ele>
        <time>2021-07-04T05:55:07Z</time>
      </trkpt>
      <trkpt lat="47.49431" lon="-0.60332">
        <ele>38.6</ele>
        <time>2021-07-04T05:55:09Z</time>
      </trkpt>
      <trkpt lat="47.49426" lon="-0.60333">
        <ele>38.6</ele>
        <time>2021-07-04T05:55:10Z</time>
      </trkpt>
      <trkpt lat="47.49421" lon="-0.60334">
        <ele>38.4</ele>
        <time>2021-07-04T05:55:11Z</time>
      </trkpt>
      <trkpt lat="47.49416" lon="-0.60336">
        <ele>38.2</ele>
        <time>2021-07-04T05:55:12Z</time>
      </trkpt>
      <trkpt lat="47.49411" lon="-0.60338">
        <ele>38.2</ele>
        <time>2021-07-04T05:55:13Z</time>
      </trkpt>
      <trkpt lat="47.49406" lon="-0.60339">
        <ele>38</ele>
        <time>2021-07-04T05:55:14Z</time>
      </trkpt>
      <trkpt lat="47.494" lon="-0.60338">
        <ele>38</ele>
        <time>2021-07-04T05:55:15Z</time>
      </trkpt>
      <trkpt lat="47.49393" lon="-0.60327">
        <ele>37.8</ele>
        <time>2021-07-04T05:55:17Z</time>
      </trkpt>
      <trkpt lat="47.49391" lon="-0.6032">
        <ele>37.6</ele>
        <time>2021-07-04T05:55:18Z</time>
      </trkpt>
      <trkpt lat="47.49389" lon="-0.60312">
        <ele>37.6</ele>
        <time>2021-07-04T05:55:19Z</time>
      </trkpt>
      <trkpt lat="47.49388" lon="-0.60305">
        <ele>37.6</ele>
        <time>2021-07-04T05:55:20Z</time>
      </trkpt>
      <trkpt lat="47.49387" lon="-0.60297">
        <ele>37.6</ele>
        <time>2021-07-04T05:55:21Z</time>
      </trkpt>
      <trkpt lat="47.49384" lon="-0.60281">
        <ele>37.4</ele>
        <time>2021-07-04T05:55:23Z</time>
      </trkpt>
      <trkpt lat="47.49382" lon="-0.60264">
        <ele>37.4</ele>
        <time>2021-07-04T05:55:25Z</time>
      </trkpt>
      <trkpt lat="47.49379" lon="-0.60247">
        <ele>37.8</ele>
        <time>2021-07-04T05:55:27Z</time>
      </trkpt>
      <trkpt lat="47.49377" lon="-0.60231">
        <ele>38</ele>
        <time>2021-07-04T05:55:29Z</time>
      </trkpt>
      <trkpt lat="47.49373" lon="-0.60215">
        <ele>38.6</ele>
        <time>2021-07-04T05:55:31Z</time>
      </trkpt>
      <trkpt lat="47.4937" lon="-0.60199">
        <ele>38.4</ele>
        <time>2021-07-04T05:55:33Z</time>
      </trkpt>
      <trkpt lat="47.49367" lon="-0.60182">
        <ele>38.2</ele>
        <time>2021-07-04T05:55:35Z</time>
      </trkpt>
      <trkpt lat="47.49363" lon="-0.60166">
        <ele>38</ele>
        <time>2021-07-04T05:55:37Z</time>
      </trkpt>
      <trkpt lat="47.49361" lon="-0.60157">
        <ele>37.8</ele>
        <time>2021-07-04T05:55:38Z</time>
      </trkpt>
      <trkpt lat="47.4936" lon="-0.60149">
        <ele>37.8</ele>
        <time>2021-07-04T05:55:39Z</time>
      </trkpt>
      <trkpt lat="47.49356" lon="-0.60132">
        <ele>38</ele>
        <time>2021-07-04T05:55:41Z</time>
      </trkpt>
      <trkpt lat="47.49352" lon="-0.60114">
        <ele>37.8</ele>
        <time>2021-07-04T05:55:43Z</time>
      </trkpt>
      <trkpt lat="47.49348" lon="-0.60097">
        <ele>37.8</ele>
        <time>2021-07-04T05:55:45Z</time>
      </trkpt>
      <trkpt lat="47.49346" lon="-0.60088">
        <ele>37.6</ele>
        <time>2021-07-04T05:55:46Z</time>
      </trkpt>
      <trkpt lat="47.49344" lon="-0.60079">
        <ele>37.8</ele>
        <time>2021-07-04T05:55:47Z</time>
      </trkpt>
      <trkpt lat="47.49339" lon="-0.60061">
        <ele>37.6</ele>
        <time>2021-07-04T05:55:49Z</time>
      </trkpt>
      <trkpt lat="47.49335" lon="-0.60043">
        <ele>37.4</ele>
        <time>2021-07-04T05:55:51Z</time>
      </trkpt>
      <trkpt lat="47.49329" lon="-0.60027">
        <ele>37.2</ele>
        <time>2021-07-04T05:55:53Z</time>
      </trkpt>
      <trkpt lat="47.49325" lon="-0.60019">
        <ele>36.8</ele>
        <time>2021-07-04T05:55:54Z</time>
      </trkpt>
      <trkpt lat="47.49319" lon="-0.60013">
        <ele>36.6</ele>
        <time>2021-07-04T05:55:55Z</time>
      </trkpt>
      <trkpt lat="47.49314" lon="-0.60007">
        <ele>36.4</ele>
        <time>2021-07-04T05:55:56Z</time>
      </trkpt>
      <trkpt lat="47.49308" lon="-0.60002">
        <ele>36.2</ele>
        <time>2021-07-04T05:55:57Z</time>
      </trkpt>
      <trkpt lat="47.49301" lon="-0.59997">
        <ele>36</ele>
        <time>2021-07-04T05:55:58Z</time>
      </trkpt>
      <trkpt lat="47.49295" lon="-0.59992">
        <ele>36</ele>
        <time>2021-07-04T05:55:59Z</time>
      </trkpt>
      <trkpt lat="47.49282" lon="-0.59982">
        <ele>35.4</ele>
        <time>2021-07-04T05:56:01Z</time>
      </trkpt>
      <trkpt lat="47.49271" lon="-0.59971">
        <ele>35.2</ele>
        <time>2021-07-04T05:56:03Z</time>
      </trkpt>
      <trkpt lat="47.4926" lon="-0.5996">
        <ele>35.6</ele>
        <time>2021-07-04T05:56:05Z</time>
      </trkpt>
      <trkpt lat="47.49255" lon="-0.59954">
        <ele>35.4</ele>
        <time>2021-07-04T05:56:06Z</time>
      </trkpt>
      <trkpt lat="47.4925" lon="-0.59948">
        <ele>35.2</ele>
        <time>2021-07-04T05:56:07Z</time>
      </trkpt>
      <trkpt lat="47.4924" lon="-0.59935">
        <ele>35</ele>
        <time>2021-07-04T05:56:09Z</time>
      </trkpt>
      <trkpt lat="47.49231" lon="-0.59925">
        <ele>35.2</ele>
        <time>2021-07-04T05:56:11Z</time>
      </trkpt>
      <trkpt lat="47.49225" lon="-0.59921">
        <ele>35.4</ele>
        <time>2021-07-04T05:56:12Z</time>
      </trkpt>
      <trkpt lat="47.49219" lon="-0.59918">
        <ele>35.4</ele>
        <time>2021-07-04T05:56:13Z</time>
      </trkpt>
      <trkpt lat="47.49206" lon="-0.59914">
        <ele>35.8</ele>
        <time>2021-07-04T05:56:15Z</time>
      </trkpt>
      <trkpt lat="47.49199" lon="-0.59911">
        <ele>36</ele>
        <time>2021-07-04T05:56:16Z</time>
      </trkpt>
      <trkpt lat="47.49192" lon="-0.59909">
        <ele>36</ele>
        <time>2021-07-04T05:56:17Z</time>
      </trkpt>
      <trkpt lat="47.49186" lon="-0.59907">
        <ele>36</ele>
        <time>2021-07-04T05:56:18Z</time>
      </trkpt>
      <trkpt lat="47.4918" lon="-0.59905">
        <ele>36.2</ele>
        <time>2021-07-04T05:56:19Z</time>
      </trkpt>
      <trkpt lat="47.49167" lon="-0.599">
        <ele>36.2</ele>
        <time>2021-07-04T05:56:21Z</time>
      </trkpt>
      <trkpt lat="47.49155" lon="-0.59896">
        <ele>36.8</ele>
        <time>2021-07-04T05:56:23Z</time>
      </trkpt>
      <trkpt lat="47.49149" lon="-0.59893">
        <ele>37</ele>
        <time>2021-07-04T05:56:24Z</time>
      </trkpt>
      <trkpt lat="47.49143" lon="-0.59892">
        <ele>37</ele>
        <time>2021-07-04T05:56:25Z</time>
      </trkpt>
      <trkpt lat="47.49131" lon="-0.5989">
        <ele>37.2</ele>
        <time>2021-07-04T05:56:27Z</time>
      </trkpt>
      <trkpt lat="47.4912" lon="-0.5989">
        <ele>37.8</ele>
        <time>2021-07-04T05:56:29Z</time>
      </trkpt>
      <trkpt lat="47.4911" lon="-0.59891">
        <ele>38.2</ele>
        <time>2021-07-04T05:56:31Z</time>
      </trkpt>
      <trkpt lat="47.49105" lon="-0.59893">
        <ele>38.6</ele>
        <time>2021-07-04T05:56:32Z</time>
      </trkpt>
      <trkpt lat="47.49102" lon="-0.59896">
        <ele>39</ele>
        <time>2021-07-04T05:56:33Z</time>
      </trkpt>
      <trkpt lat="47.49098" lon="-0.599">
        <ele>39.2</ele>
        <time>2021-07-04T05:56:34Z</time>
      </trkpt>
      <trkpt lat="47.49094" lon="-0.59903">
        <ele>39.4</ele>
        <time>2021-07-04T05:56:35Z</time>
      </trkpt>
      <trkpt lat="47.49089" lon="-0.59906">
        <ele>39.6</ele>
        <time>2021-07-04T05:56:36Z</time>
      </trkpt>
      <trkpt lat="47.49085" lon="-0.59909">
        <ele>39.6</ele>
        <time>2021-07-04T05:56:37Z</time>
      </trkpt>
      <trkpt lat="47.49077" lon="-0.59918">
        <ele>39.8</ele>
        <time>2021-07-04T05:56:39Z</time>
      </trkpt>
      <trkpt lat="47.49074" lon="-0.59925">
        <ele>39.6</ele>
        <time>2021-07-04T05:56:40Z</time>
      </trkpt>
      <trkpt lat="47.49071" lon="-0.59932">
        <ele>39.4</ele>
        <time>2021-07-04T05:56:41Z</time>
      </trkpt>
      <trkpt lat="47.49066" lon="-0.59948">
        <ele>39</ele>
        <time>2021-07-04T05:56:43Z</time>
      </trkpt>
      <trkpt lat="47.49061" lon="-0.59964">
        <ele>38.4</ele>
        <time>2021-07-04T05:56:45Z</time>
      </trkpt>
      <trkpt lat="47.49056" lon="-0.5998">
        <ele>37.8</ele>
        <time>2021-07-04T05:56:47Z</time>
      </trkpt>
      <trkpt lat="47.49051" lon="-0.59995">
        <ele>38</ele>
        <time>2021-07-04T05:56:49Z</time>
      </trkpt>
      <trkpt lat="47.49046" lon="-0.60011">
        <ele>38.4</ele>
        <time>2021-07-04T05:56:51Z</time>
      </trkpt>
      <trkpt lat="47.49044" lon="-0.60019">
        <ele>37.6</ele>
        <time>2021-07-04T05:56:52Z</time>
      </trkpt>
      <trkpt lat="47.49041" lon="-0.60027">
        <ele>37.8</ele>
        <time>2021-07-04T05:56:53Z</time>
      </trkpt>
      <trkpt lat="47.49036" lon="-0.60043">
        <ele>38</ele>
        <time>2021-07-04T05:56:55Z</time>
      </trkpt>
      <trkpt lat="47.49031" lon="-0.60058">
        <ele>38</ele>
        <time>2021-07-04T05:56:57Z</time>
      </trkpt>
      <trkpt lat="47.49026" lon="-0.60073">
        <ele>38.4</ele>
        <time>2021-07-04T05:56:59Z</time>
      </trkpt>
      <trkpt lat="47.49022" lon="-0.60087">
        <ele>38.6</ele>
        <time>2021-07-04T05:57:01Z</time>
      </trkpt>
      <trkpt lat="47.49018" lon="-0.601">
        <ele>38.8</ele>
        <time>2021-07-04T05:57:03Z</time>
      </trkpt>
      <trkpt lat="47.49014" lon="-0.60113">
        <ele>39</ele>
        <time>2021-07-04T05:57:05Z</time>
      </trkpt>
      <trkpt lat="47.49011" lon="-0.60117">
        <ele>38.8</ele>
        <time>2021-07-04T05:57:06Z</time>
      </trkpt>
      <trkpt lat="47.49007" lon="-0.6012">
        <ele>39</ele>
        <time>2021-07-04T05:57:07Z</time>
      </trkpt>
      <trkpt lat="47.48998" lon="-0.6012">
        <ele>39.2</ele>
        <time>2021-07-04T05:57:09Z</time>
      </trkpt>
      <trkpt lat="47.48992" lon="-0.60119">
        <ele>39.2</ele>
        <time>2021-07-04T05:57:10Z</time>
      </trkpt>
      <trkpt lat="47.48988" lon="-0.60119">
        <ele>39.4</ele>
        <time>2021-07-04T05:57:11Z</time>
      </trkpt>
      <trkpt lat="47.48977" lon="-0.6012">
        <ele>40</ele>
        <time>2021-07-04T05:57:13Z</time>
      </trkpt>
      <trkpt lat="47.48968" lon="-0.6012">
        <ele>40.4</ele>
        <time>2021-07-04T05:57:15Z</time>
      </trkpt>
      <trkpt lat="47.48958" lon="-0.60119">
        <ele>41.6</ele>
        <time>2021-07-04T05:57:17Z</time>
      </trkpt>
      <trkpt lat="47.48954" lon="-0.6012">
        <ele>41.8</ele>
        <time>2021-07-04T05:57:18Z</time>
      </trkpt>
      <trkpt lat="47.48949" lon="-0.6012">
        <ele>42</ele>
        <time>2021-07-04T05:57:19Z</time>
      </trkpt>
      <trkpt lat="47.4894" lon="-0.60121">
        <ele>42.8</ele>
        <time>2021-07-04T05:57:21Z</time>
      </trkpt>
      <trkpt lat="47.48931" lon="-0.60122">
        <ele>43.2</ele>
        <time>2021-07-04T05:57:23Z</time>
      </trkpt>
      <trkpt lat="47.48923" lon="-0.60124">
        <ele>43.6</ele>
        <time>2021-07-04T05:57:25Z</time>
      </trkpt>
      <trkpt lat="47.48919" lon="-0.60125">
        <ele>44</ele>
        <time>2021-07-04T05:57:26Z</time>
      </trkpt>
      <trkpt lat="47.48916" lon="-0.60126">
        <ele>44.6</ele>
        <time>2021-07-04T05:57:27Z</time>
      </trkpt>
      <trkpt lat="47.4891" lon="-0.60128">
        <ele>45.2</ele>
        <time>2021-07-04T05:57:29Z</time>
      </trkpt>
      <trkpt lat="47.48904" lon="-0.60129">
        <ele>46.4</ele>
        <time>2021-07-04T05:57:31Z</time>
      </trkpt>
      <trkpt lat="47.48901" lon="-0.60129">
        <ele>47</ele>
        <time>2021-07-04T05:57:32Z</time>
      </trkpt>
      <trkpt lat="47.48897" lon="-0.6013">
        <ele>47.6</ele>
        <time>2021-07-04T05:57:33Z</time>
      </trkpt>
      <trkpt lat="47.48893" lon="-0.60132">
        <ele>48.2</ele>
        <time>2021-07-04T05:57:35Z</time>
      </trkpt>
      <trkpt lat="47.48892" lon="-0.60134">
        <ele>48.2</ele>
        <time>2021-07-04T05:57:36Z</time>
      </trkpt>
      <trkpt lat="47.48892" lon="-0.60135">
        <ele>48.4</ele>
        <time>2021-07-04T05:57:37Z</time>
      </trkpt>
      <trkpt lat="47.48892" lon="-0.60139">
        <ele>48.6</ele>
        <time>2021-07-04T05:57:38Z</time>
      </trkpt>
      <trkpt lat="47.48893" lon="-0.60142">
        <ele>48.6</ele>
        <time>2021-07-04T05:57:39Z</time>
      </trkpt>
      <trkpt lat="47.48895" lon="-0.6015">
        <ele>48.6</ele>
        <time>2021-07-04T05:57:41Z</time>
      </trkpt>
      <trkpt lat="47.48896" lon="-0.60156">
        <ele>48.6</ele>
        <time>2021-07-04T05:57:42Z</time>
      </trkpt>
      <trkpt lat="47.48898" lon="-0.60162">
        <ele>48.2</ele>
        <time>2021-07-04T05:57:43Z</time>
      </trkpt>
      <trkpt lat="47.48899" lon="-0.60175">
        <ele>47.8</ele>
        <time>2021-07-04T05:57:45Z</time>
      </trkpt>
      <trkpt lat="47.48898" lon="-0.6018">
        <ele>47.4</ele>
        <time>2021-07-04T05:57:46Z</time>
      </trkpt>
      <trkpt lat="47.48898" lon="-0.60185">
        <ele>47.4</ele>
        <time>2021-07-04T05:57:47Z</time>
      </trkpt>
      <trkpt lat="47.48898" lon="-0.60191">
        <ele>47.4</ele>
        <time>2021-07-04T05:57:48Z</time>
      </trkpt>
      <trkpt lat="47.48899" lon="-0.60197">
        <ele>47.6</ele>
        <time>2021-07-04T05:57:49Z</time>
      </trkpt>
      <trkpt lat="47.48903" lon="-0.6021">
        <ele>47.4</ele>
        <time>2021-07-04T05:57:51Z</time>
      </trkpt>
      <trkpt lat="47.48906" lon="-0.60226">
        <ele>47</ele>
        <time>2021-07-04T05:57:53Z</time>
      </trkpt>
      <trkpt lat="47.48909" lon="-0.60243">
        <ele>46.4</ele>
        <time>2021-07-04T05:57:55Z</time>
      </trkpt>
      <trkpt lat="47.48911" lon="-0.60252">
        <ele>46.2</ele>
        <time>2021-07-04T05:57:56Z</time>
      </trkpt>
      <trkpt lat="47.48913" lon="-0.60261">
        <ele>45.8</ele>
        <time>2021-07-04T05:57:57Z</time>
      </trkpt>
      <trkpt lat="47.48917" lon="-0.6028">
        <ele>45</ele>
        <time>2021-07-04T05:57:59Z</time>
      </trkpt>
      <trkpt lat="47.4892" lon="-0.60299">
        <ele>44.2</ele>
        <time>2021-07-04T05:58:01Z</time>
      </trkpt>
      <trkpt lat="47.48922" lon="-0.60308">
        <ele>43.8</ele>
        <time>2021-07-04T05:58:02Z</time>
      </trkpt>
      <trkpt lat="47.48923" lon="-0.60317">
        <ele>43.4</ele>
        <time>2021-07-04T05:58:03Z</time>
      </trkpt>
      <trkpt lat="47.48926" lon="-0.60325">
        <ele>42.4</ele>
        <time>2021-07-04T05:58:04Z</time>
      </trkpt>
      <trkpt lat="47.48928" lon="-0.60333">
        <ele>42.4</ele>
        <time>2021-07-04T05:58:05Z</time>
      </trkpt>
      <trkpt lat="47.4893" lon="-0.60339">
        <ele>42.6</ele>
        <time>2021-07-04T05:58:06Z</time>
      </trkpt>
      <trkpt lat="47.48932" lon="-0.60345">
        <ele>42.6</ele>
        <time>2021-07-04T05:58:07Z</time>
      </trkpt>
      <trkpt lat="47.48935" lon="-0.60351">
        <ele>42.2</ele>
        <time>2021-07-04T05:58:08Z</time>
      </trkpt>
      <trkpt lat="47.48938" lon="-0.60358">
        <ele>41.6</ele>
        <time>2021-07-04T05:58:09Z</time>
      </trkpt>
      <trkpt lat="47.48941" lon="-0.60366">
        <ele>41.4</ele>
        <time>2021-07-04T05:58:10Z</time>
      </trkpt>
      <trkpt lat="47.48944" lon="-0.60373">
        <ele>40.6</ele>
        <time>2021-07-04T05:58:11Z</time>
      </trkpt>
      <trkpt lat="47.48947" lon="-0.60382">
        <ele>40.2</ele>
        <time>2021-07-04T05:58:12Z</time>
      </trkpt>
      <trkpt lat="47.48949" lon="-0.6039">
        <ele>39</ele>
        <time>2021-07-04T05:58:13Z</time>
      </trkpt>
      <trkpt lat="47.48951" lon="-0.60408">
        <ele>37.6</ele>
        <time>2021-07-04T05:58:15Z</time>
      </trkpt>
      <trkpt lat="47.48948" lon="-0.60428">
        <ele>36.4</ele>
        <time>2021-07-04T05:58:17Z</time>
      </trkpt>
      <trkpt lat="47.48946" lon="-0.60439">
        <ele>35.8</ele>
        <time>2021-07-04T05:58:18Z</time>
      </trkpt>
      <trkpt lat="47.48944" lon="-0.60449">
        <ele>35.6</ele>
        <time>2021-07-04T05:58:19Z</time>
      </trkpt>
      <trkpt lat="47.48943" lon="-0.60459">
        <ele>35.4</ele>
        <time>2021-07-04T05:58:20Z</time>
      </trkpt>
      <trkpt lat="47.48942" lon="-0.6047">
        <ele>35</ele>
        <time>2021-07-04T05:58:21Z</time>
      </trkpt>
      <trkpt lat="47.4894" lon="-0.60481">
        <ele>34</ele>
        <time>2021-07-04T05:58:22Z</time>
      </trkpt>
      <trkpt lat="47.48939" lon="-0.60492">
        <ele>33</ele>
        <time>2021-07-04T05:58:23Z</time>
      </trkpt>
      <trkpt lat="47.48937" lon="-0.60502">
        <ele>32.2</ele>
        <time>2021-07-04T05:58:24Z</time>
      </trkpt>
      <trkpt lat="47.48935" lon="-0.60511">
        <ele>31.8</ele>
        <time>2021-07-04T05:58:25Z</time>
      </trkpt>
      <trkpt lat="47.48926" lon="-0.60526">
        <ele>31.2</ele>
        <time>2021-07-04T05:58:27Z</time>
      </trkpt>
      <trkpt lat="47.48921" lon="-0.60534">
        <ele>30.4</ele>
        <time>2021-07-04T05:58:28Z</time>
      </trkpt>
      <trkpt lat="47.48918" lon="-0.60542">
        <ele>30.4</ele>
        <time>2021-07-04T05:58:29Z</time>
      </trkpt>
      <trkpt lat="47.48915" lon="-0.6055">
        <ele>30.4</ele>
        <time>2021-07-04T05:58:30Z</time>
      </trkpt>
      <trkpt lat="47.48913" lon="-0.60557">
        <ele>30.6</ele>
        <time>2021-07-04T05:58:31Z</time>
      </trkpt>
      <trkpt lat="47.48913" lon="-0.60565">
        <ele>30.8</ele>
        <time>2021-07-04T05:58:32Z</time>
      </trkpt>
      <trkpt lat="47.48913" lon="-0.60573">
        <ele>30.6</ele>
        <time>2021-07-04T05:58:33Z</time>
      </trkpt>
      <trkpt lat="47.48917" lon="-0.6059">
        <ele>29.8</ele>
        <time>2021-07-04T05:58:35Z</time>
      </trkpt>
      <trkpt lat="47.48918" lon="-0.60599">
        <ele>29.6</ele>
        <time>2021-07-04T05:58:36Z</time>
      </trkpt>
      <trkpt lat="47.4892" lon="-0.60607">
        <ele>29.2</ele>
        <time>2021-07-04T05:58:37Z</time>
      </trkpt>
      <trkpt lat="47.48922" lon="-0.60621">
        <ele>29.8</ele>
        <time>2021-07-04T05:58:39Z</time>
      </trkpt>
      <trkpt lat="47.48922" lon="-0.60628">
        <ele>30</ele>
        <time>2021-07-04T05:58:40Z</time>
      </trkpt>
      <trkpt lat="47.48923" lon="-0.60634">
        <ele>30.2</ele>
        <time>2021-07-04T05:58:41Z</time>
      </trkpt>
      <trkpt lat="47.48925" lon="-0.60646">
        <ele>30.2</ele>
        <time>2021-07-04T05:58:43Z</time>
      </trkpt>
      <trkpt lat="47.48926" lon="-0.60655">
        <ele>30.4</ele>
        <time>2021-07-04T05:58:45Z</time>
      </trkpt>
      <trkpt lat="47.48928" lon="-0.60661">
        <ele>30.8</ele>
        <time>2021-07-04T05:58:47Z</time>
      </trkpt>
      <trkpt lat="47.48929" lon="-0.60668">
        <ele>30.8</ele>
        <time>2021-07-04T05:58:49Z</time>
      </trkpt>
      <trkpt lat="47.48929" lon="-0.60674">
        <ele>30.8</ele>
        <time>2021-07-04T05:58:51Z</time>
      </trkpt>
      <trkpt lat="47.4893" lon="-0.60678">
        <ele>30.8</ele>
        <time>2021-07-04T05:58:52Z</time>
      </trkpt>
      <trkpt lat="47.4893" lon="-0.60683">
        <ele>30.6</ele>
        <time>2021-07-04T05:58:53Z</time>
      </trkpt>
      <trkpt lat="47.48928" lon="-0.60691">
        <ele>30.2</ele>
        <time>2021-07-04T05:58:55Z</time>
      </trkpt>
      <trkpt lat="47.48923" lon="-0.60698">
        <ele>30.2</ele>
        <time>2021-07-04T05:58:57Z</time>
      </trkpt>
      <trkpt lat="47.48914" lon="-0.60702">
        <ele>30.2</ele>
        <time>2021-07-04T05:58:59Z</time>
      </trkpt>
      <trkpt lat="47.48905" lon="-0.60706">
        <ele>29.8</ele>
        <time>2021-07-04T05:59:01Z</time>
      </trkpt>
      <trkpt lat="47.48893" lon="-0.60712">
        <ele>29.4</ele>
        <time>2021-07-04T05:59:03Z</time>
      </trkpt>
      <trkpt lat="47.48889" lon="-0.60714">
        <ele>29.4</ele>
        <time>2021-07-04T05:59:04Z</time>
      </trkpt>
      <trkpt lat="47.48885" lon="-0.60717">
        <ele>29.4</ele>
        <time>2021-07-04T05:59:05Z</time>
      </trkpt>
      <trkpt lat="47.48878" lon="-0.60726">
        <ele>29.8</ele>
        <time>2021-07-04T05:59:07Z</time>
      </trkpt>
      <trkpt lat="47.48875" lon="-0.6073">
        <ele>29.8</ele>
        <time>2021-07-04T05:59:08Z</time>
      </trkpt>
      <trkpt lat="47.48873" lon="-0.60734">
        <ele>29.8</ele>
        <time>2021-07-04T05:59:09Z</time>
      </trkpt>
      <trkpt lat="47.48869" lon="-0.60746">
        <ele>29.6</ele>
        <time>2021-07-04T05:59:11Z</time>
      </trkpt>
      <trkpt lat="47.48867" lon="-0.60752">
        <ele>29.4</ele>
        <time>2021-07-04T05:59:12Z</time>
      </trkpt>
      <trkpt lat="47.48866" lon="-0.60758">
        <ele>29.2</ele>
        <time>2021-07-04T05:59:13Z</time>
      </trkpt>
      <trkpt lat="47.48866" lon="-0.60772">
        <ele>29.2</ele>
        <time>2021-07-04T05:59:15Z</time>
      </trkpt>
      <trkpt lat="47.48867" lon="-0.6078">
        <ele>29</ele>
        <time>2021-07-04T05:59:16Z</time>
      </trkpt>
      <trkpt lat="47.48868" lon="-0.60788">
        <ele>28.6</ele>
        <time>2021-07-04T05:59:17Z</time>
      </trkpt>
      <trkpt lat="47.48868" lon="-0.60796">
        <ele>28.6</ele>
        <time>2021-07-04T05:59:18Z</time>
      </trkpt>
      <trkpt lat="47.48868" lon="-0.60804">
        <ele>28.6</ele>
        <time>2021-07-04T05:59:19Z</time>
      </trkpt>
      <trkpt lat="47.48869" lon="-0.6081">
        <ele>29</ele>
        <time>2021-07-04T05:59:20Z</time>
      </trkpt>
      <trkpt lat="47.48869" lon="-0.60817">
        <ele>29</ele>
        <time>2021-07-04T05:59:21Z</time>
      </trkpt>
      <trkpt lat="47.48869" lon="-0.60832">
        <ele>29.2</ele>
        <time>2021-07-04T05:59:23Z</time>
      </trkpt>
      <trkpt lat="47.48869" lon="-0.60846">
        <ele>28.8</ele>
        <time>2021-07-04T05:59:25Z</time>
      </trkpt>
      <trkpt lat="47.48871" lon="-0.60855">
        <ele>28.6</ele>
        <time>2021-07-04T05:59:26Z</time>
      </trkpt>
      <trkpt lat="47.48873" lon="-0.60863">
        <ele>28.8</ele>
        <time>2021-07-04T05:59:27Z</time>
      </trkpt>
      <trkpt lat="47.48875" lon="-0.60878">
        <ele>29</ele>
        <time>2021-07-04T05:59:29Z</time>
      </trkpt>
      <trkpt lat="47.48877" lon="-0.60896">
        <ele>28.8</ele>
        <time>2021-07-04T05:59:31Z</time>
      </trkpt>
      <trkpt lat="47.48879" lon="-0.60913">
        <ele>28.6</ele>
        <time>2021-07-04T05:59:33Z</time>
      </trkpt>
      <trkpt lat="47.4888" lon="-0.60922">
        <ele>28.6</ele>
        <time>2021-07-04T05:59:34Z</time>
      </trkpt>
      <trkpt lat="47.48881" lon="-0.6093">
        <ele>28.8</ele>
        <time>2021-07-04T05:59:35Z</time>
      </trkpt>
      <trkpt lat="47.48883" lon="-0.60948">
        <ele>29</ele>
        <time>2021-07-04T05:59:37Z</time>
      </trkpt>
      <trkpt lat="47.48885" lon="-0.60965">
        <ele>28.8</ele>
        <time>2021-07-04T05:59:39Z</time>
      </trkpt>
      <trkpt lat="47.48887" lon="-0.60973">
        <ele>29.2</ele>
        <time>2021-07-04T05:59:40Z</time>
      </trkpt>
      <trkpt lat="47.48889" lon="-0.60979">
        <ele>29.6</ele>
        <time>2021-07-04T05:59:41Z</time>
      </trkpt>
      <trkpt lat="47.48894" lon="-0.60988">
        <ele>30.2</ele>
        <time>2021-07-04T05:59:43Z</time>
      </trkpt>
      <trkpt lat="47.48896" lon="-0.60992">
        <ele>30.4</ele>
        <time>2021-07-04T05:59:44Z</time>
      </trkpt>
      <trkpt lat="47.48897" lon="-0.60994">
        <ele>30.8</ele>
        <time>2021-07-04T05:59:45Z</time>
      </trkpt>
      <trkpt lat="47.48899" lon="-0.60998">
        <ele>31.2</ele>
        <time>2021-07-04T05:59:46Z</time>
      </trkpt>
      <trkpt lat="47.489" lon="-0.61002">
        <ele>31.2</ele>
        <time>2021-07-04T05:59:47Z</time>
      </trkpt>
      <trkpt lat="47.48901" lon="-0.61007">
        <ele>31.2</ele>
        <time>2021-07-04T05:59:48Z</time>
      </trkpt>
      <trkpt lat="47.48903" lon="-0.61013">
        <ele>30.6</ele>
        <time>2021-07-04T05:59:49Z</time>
      </trkpt>
      <trkpt lat="47.48908" lon="-0.61026">
        <ele>30</ele>
        <time>2021-07-04T05:59:51Z</time>
      </trkpt>
      <trkpt lat="47.48909" lon="-0.61034">
        <ele>30.2</ele>
        <time>2021-07-04T05:59:52Z</time>
      </trkpt>
      <trkpt lat="47.4891" lon="-0.61042">
        <ele>30.4</ele>
        <time>2021-07-04T05:59:53Z</time>
      </trkpt>
      <trkpt lat="47.48913" lon="-0.61054">
        <ele>31.2</ele>
        <time>2021-07-04T05:59:55Z</time>
      </trkpt>
      <trkpt lat="47.48916" lon="-0.61065">
        <ele>32.4</ele>
        <time>2021-07-04T05:59:57Z</time>
      </trkpt>
      <trkpt lat="47.4892" lon="-0.61078">
        <ele>33.2</ele>
        <time>2021-07-04T05:59:59Z</time>
      </trkpt>
      <trkpt lat="47.48926" lon="-0.61091">
        <ele>32.8</ele>
        <time>2021-07-04T06:00:01Z</time>
      </trkpt>
      <trkpt lat="47.48933" lon="-0.61103">
        <ele>32.2</ele>
        <time>2021-07-04T06:00:03Z</time>
      </trkpt>
      <trkpt lat="47.48936" lon="-0.6111">
        <ele>32.4</ele>
        <time>2021-07-04T06:00:04Z</time>
      </trkpt>
      <trkpt lat="47.48938" lon="-0.61117">
        <ele>32.4</ele>
        <time>2021-07-04T06:00:05Z</time>
      </trkpt>
      <trkpt lat="47.48942" lon="-0.61131">
        <ele>32.4</ele>
        <time>2021-07-04T06:00:07Z</time>
      </trkpt>
      <trkpt lat="47.48945" lon="-0.61144">
        <ele>32.6</ele>
        <time>2021-07-04T06:00:09Z</time>
      </trkpt>
      <trkpt lat="47.48948" lon="-0.61157">
        <ele>32.2</ele>
        <time>2021-07-04T06:00:11Z</time>
      </trkpt>
      <trkpt lat="47.4895" lon="-0.61173">
        <ele>31.8</ele>
        <time>2021-07-04T06:00:13Z</time>
      </trkpt>
      <trkpt lat="47.48951" lon="-0.6118">
        <ele>31.4</ele>
        <time>2021-07-04T06:00:14Z</time>
      </trkpt>
      <trkpt lat="47.48953" lon="-0.61188">
        <ele>31.4</ele>
        <time>2021-07-04T06:00:15Z</time>
      </trkpt>
      <trkpt lat="47.48955" lon="-0.61196">
        <ele>31.2</ele>
        <time>2021-07-04T06:00:16Z</time>
      </trkpt>
      <trkpt lat="47.48957" lon="-0.61204">
        <ele>31.4</ele>
        <time>2021-07-04T06:00:17Z</time>
      </trkpt>
      <trkpt lat="47.48961" lon="-0.61217">
        <ele>31.6</ele>
        <time>2021-07-04T06:00:19Z</time>
      </trkpt>
      <trkpt lat="47.48962" lon="-0.61224">
        <ele>32</ele>
        <time>2021-07-04T06:00:20Z</time>
      </trkpt>
      <trkpt lat="47.48965" lon="-0.61232">
        <ele>32.2</ele>
        <time>2021-07-04T06:00:21Z</time>
      </trkpt>
      <trkpt lat="47.48967" lon="-0.61238">
        <ele>32.4</ele>
        <time>2021-07-04T06:00:22Z</time>
      </trkpt>
      <trkpt lat="47.48969" lon="-0.61245">
        <ele>32.4</ele>
        <time>2021-07-04T06:00:23Z</time>
      </trkpt>
      <trkpt lat="47.48974" lon="-0.61257">
        <ele>33</ele>
        <time>2021-07-04T06:00:25Z</time>
      </trkpt>
      <trkpt lat="47.48976" lon="-0.61263">
        <ele>33.6</ele>
        <time>2021-07-04T06:00:26Z</time>
      </trkpt>
      <trkpt lat="47.48978" lon="-0.61269">
        <ele>34.2</ele>
        <time>2021-07-04T06:00:27Z</time>
      </trkpt>
      <trkpt lat="47.4898" lon="-0.61276">
        <ele>35</ele>
        <time>2021-07-04T06:00:28Z</time>
      </trkpt>
      <trkpt lat="47.48982" lon="-0.61281">
        <ele>35.2</ele>
        <time>2021-07-04T06:00:29Z</time>
      </trkpt>
      <trkpt lat="47.48984" lon="-0.61286">
        <ele>35.6</ele>
        <time>2021-07-04T06:00:30Z</time>
      </trkpt>
      <trkpt lat="47.48987" lon="-0.61292">
        <ele>35.8</ele>
        <time>2021-07-04T06:00:31Z</time>
      </trkpt>
      <trkpt lat="47.4899" lon="-0.61299">
        <ele>36.4</ele>
        <time>2021-07-04T06:00:32Z</time>
      </trkpt>
      <trkpt lat="47.48993" lon="-0.61306">
        <ele>36.8</ele>
        <time>2021-07-04T06:00:33Z</time>
      </trkpt>
      <trkpt lat="47.48999" lon="-0.61317">
        <ele>37.4</ele>
        <time>2021-07-04T06:00:35Z</time>
      </trkpt>
      <trkpt lat="47.49002" lon="-0.61323">
        <ele>37.6</ele>
        <time>2021-07-04T06:00:36Z</time>
      </trkpt>
      <trkpt lat="47.49005" lon="-0.61328">
        <ele>37.8</ele>
        <time>2021-07-04T06:00:37Z</time>
      </trkpt>
      <trkpt lat="47.49011" lon="-0.61339">
        <ele>38.2</ele>
        <time>2021-07-04T06:00:39Z</time>
      </trkpt>
      <trkpt lat="47.49014" lon="-0.61346">
        <ele>38</ele>
        <time>2021-07-04T06:00:40Z</time>
      </trkpt>
      <trkpt lat="47.49017" lon="-0.61351">
        <ele>38</ele>
        <time>2021-07-04T06:00:41Z</time>
      </trkpt>
      <trkpt lat="47.49023" lon="-0.61362">
        <ele>37.8</ele>
        <time>2021-07-04T06:00:43Z</time>
      </trkpt>
      <trkpt lat="47.49029" lon="-0.61375">
        <ele>37.6</ele>
        <time>2021-07-04T06:00:45Z</time>
      </trkpt>
      <trkpt lat="47.49031" lon="-0.6138">
        <ele>37.8</ele>
        <time>2021-07-04T06:00:46Z</time>
      </trkpt>
      <trkpt lat="47.49034" lon="-0.61385">
        <ele>37.6</ele>
        <time>2021-07-04T06:00:47Z</time>
      </trkpt>
      <trkpt lat="47.49037" lon="-0.61387">
        <ele>37.8</ele>
        <time>2021-07-04T06:00:49Z</time>
      </trkpt>
      <trkpt lat="47.49038" lon="-0.61389">
        <ele>38.4</ele>
        <time>2021-07-04T06:00:50Z</time>
      </trkpt>
      <trkpt lat="47.4904" lon="-0.61391">
        <ele>39</ele>
        <time>2021-07-04T06:00:51Z</time>
      </trkpt>
      <trkpt lat="47.49042" lon="-0.61393">
        <ele>39.4</ele>
        <time>2021-07-04T06:00:52Z</time>
      </trkpt>
      <trkpt lat="47.49044" lon="-0.61399">
        <ele>39.2</ele>
        <time>2021-07-04T06:00:53Z</time>
      </trkpt>
      <trkpt lat="47.49048" lon="-0.61404">
        <ele>39.2</ele>
        <time>2021-07-04T06:00:54Z</time>
      </trkpt>
      <trkpt lat="47.49051" lon="-0.6141">
        <ele>38.6</ele>
        <time>2021-07-04T06:00:55Z</time>
      </trkpt>
      <trkpt lat="47.49059" lon="-0.61422">
        <ele>37.8</ele>
        <time>2021-07-04T06:00:57Z</time>
      </trkpt>
      <trkpt lat="47.49067" lon="-0.61432">
        <ele>37.6</ele>
        <time>2021-07-04T06:00:59Z</time>
      </trkpt>
      <trkpt lat="47.49075" lon="-0.61444">
        <ele>37.6</ele>
        <time>2021-07-04T06:01:01Z</time>
      </trkpt>
      <trkpt lat="47.4908" lon="-0.61457">
        <ele>37.6</ele>
        <time>2021-07-04T06:01:03Z</time>
      </trkpt>
      <trkpt lat="47.49085" lon="-0.61469">
        <ele>38.2</ele>
        <time>2021-07-04T06:01:05Z</time>
      </trkpt>
      <trkpt lat="47.49086" lon="-0.61476">
        <ele>38.6</ele>
        <time>2021-07-04T06:01:06Z</time>
      </trkpt>
      <trkpt lat="47.49087" lon="-0.61483">
        <ele>38.8</ele>
        <time>2021-07-04T06:01:07Z</time>
      </trkpt>
      <trkpt lat="47.49089" lon="-0.61489">
        <ele>39</ele>
        <time>2021-07-04T06:01:08Z</time>
      </trkpt>
      <trkpt lat="47.4909" lon="-0.61494">
        <ele>39.6</ele>
        <time>2021-07-04T06:01:09Z</time>
      </trkpt>
      <trkpt lat="47.49093" lon="-0.61498">
        <ele>40.2</ele>
        <time>2021-07-04T06:01:10Z</time>
      </trkpt>
      <trkpt lat="47.49095" lon="-0.61502">
        <ele>41</ele>
        <time>2021-07-04T06:01:11Z</time>
      </trkpt>
      <trkpt lat="47.49096" lon="-0.61507">
        <ele>41.2</ele>
        <time>2021-07-04T06:01:12Z</time>
      </trkpt>
      <trkpt lat="47.49095" lon="-0.61511">
        <ele>41.2</ele>
        <time>2021-07-04T06:01:13Z</time>
      </trkpt>
      <trkpt lat="47.49093" lon="-0.61513">
        <ele>40.8</ele>
        <time>2021-07-04T06:01:14Z</time>
      </trkpt>
      <trkpt lat="47.49091" lon="-0.61515">
        <ele>40.6</ele>
        <time>2021-07-04T06:01:15Z</time>
      </trkpt>
      <trkpt lat="47.49088" lon="-0.61517">
        <ele>40.6</ele>
        <time>2021-07-04T06:01:16Z</time>
      </trkpt>
      <trkpt lat="47.49085" lon="-0.6152">
        <ele>40.2</ele>
        <time>2021-07-04T06:01:17Z</time>
      </trkpt>
      <trkpt lat="47.49079" lon="-0.61526">
        <ele>38.6</ele>
        <time>2021-07-04T06:01:19Z</time>
      </trkpt>
      <trkpt lat="47.49078" lon="-0.61533">
        <ele>37.6</ele>
        <time>2021-07-04T06:01:21Z</time>
      </trkpt>
      <trkpt lat="47.49079" lon="-0.61538">
        <ele>37.8</ele>
        <time>2021-07-04T06:01:22Z</time>
      </trkpt>
      <trkpt lat="47.49079" lon="-0.61543">
        <ele>37.8</ele>
        <time>2021-07-04T06:01:23Z</time>
      </trkpt>
      <trkpt lat="47.49081" lon="-0.61553">
        <ele>37.8</ele>
        <time>2021-07-04T06:01:25Z</time>
      </trkpt>
      <trkpt lat="47.49084" lon="-0.61565">
        <ele>38</ele>
        <time>2021-07-04T06:01:27Z</time>
      </trkpt>
      <trkpt lat="47.49087" lon="-0.61576">
        <ele>38.2</ele>
        <time>2021-07-04T06:01:29Z</time>
      </trkpt>
      <trkpt lat="47.49089" lon="-0.61582">
        <ele>38.6</ele>
        <time>2021-07-04T06:01:30Z</time>
      </trkpt>
      <trkpt lat="47.4909" lon="-0.61589">
        <ele>38.6</ele>
        <time>2021-07-04T06:01:31Z</time>
      </trkpt>
      <trkpt lat="47.49094" lon="-0.61603">
        <ele>38.8</ele>
        <time>2021-07-04T06:01:33Z</time>
      </trkpt>
      <trkpt lat="47.49097" lon="-0.61617">
        <ele>39</ele>
        <time>2021-07-04T06:01:35Z</time>
      </trkpt>
      <trkpt lat="47.49099" lon="-0.61623">
        <ele>39.2</ele>
        <time>2021-07-04T06:01:36Z</time>
      </trkpt>
      <trkpt lat="47.49101" lon="-0.6163">
        <ele>39.2</ele>
        <time>2021-07-04T06:01:37Z</time>
      </trkpt>
      <trkpt lat="47.49104" lon="-0.61644">
        <ele>39.4</ele>
        <time>2021-07-04T06:01:39Z</time>
      </trkpt>
      <trkpt lat="47.49106" lon="-0.61659">
        <ele>39.6</ele>
        <time>2021-07-04T06:01:41Z</time>
      </trkpt>
      <trkpt lat="47.49108" lon="-0.61666">
        <ele>39.8</ele>
        <time>2021-07-04T06:01:42Z</time>
      </trkpt>
      <trkpt lat="47.49109" lon="-0.61673">
        <ele>40</ele>
        <time>2021-07-04T06:01:43Z</time>
      </trkpt>
      <trkpt lat="47.49111" lon="-0.6168">
        <ele>40.4</ele>
        <time>2021-07-04T06:01:44Z</time>
      </trkpt>
      <trkpt lat="47.49112" lon="-0.61686">
        <ele>40.6</ele>
        <time>2021-07-04T06:01:45Z</time>
      </trkpt>
      <trkpt lat="47.49115" lon="-0.61698">
        <ele>40.8</ele>
        <time>2021-07-04T06:01:47Z</time>
      </trkpt>
      <trkpt lat="47.4912" lon="-0.61712">
        <ele>41</ele>
        <time>2021-07-04T06:01:49Z</time>
      </trkpt>
      <trkpt lat="47.49121" lon="-0.61718">
        <ele>40.8</ele>
        <time>2021-07-04T06:01:50Z</time>
      </trkpt>
      <trkpt lat="47.49124" lon="-0.61726">
        <ele>40.6</ele>
        <time>2021-07-04T06:01:51Z</time>
      </trkpt>
      <trkpt lat="47.49128" lon="-0.61741">
        <ele>40.4</ele>
        <time>2021-07-04T06:01:53Z</time>
      </trkpt>
      <trkpt lat="47.49129" lon="-0.61748">
        <ele>40.2</ele>
        <time>2021-07-04T06:01:54Z</time>
      </trkpt>
      <trkpt lat="47.49132" lon="-0.61756">
        <ele>40.4</ele>
        <time>2021-07-04T06:01:55Z</time>
      </trkpt>
      <trkpt lat="47.49135" lon="-0.61771">
        <ele>40.2</ele>
        <time>2021-07-04T06:01:57Z</time>
      </trkpt>
      <trkpt lat="47.49138" lon="-0.61778">
        <ele>40</ele>
        <time>2021-07-04T06:01:58Z</time>
      </trkpt>
      <trkpt lat="47.4914" lon="-0.61787">
        <ele>39.6</ele>
        <time>2021-07-04T06:01:59Z</time>
      </trkpt>
      <trkpt lat="47.49141" lon="-0.61794">
        <ele>39.2</ele>
        <time>2021-07-04T06:02:00Z</time>
      </trkpt>
      <trkpt lat="47.49143" lon="-0.61802">
        <ele>39</ele>
        <time>2021-07-04T06:02:01Z</time>
      </trkpt>
      <trkpt lat="47.49146" lon="-0.61817">
        <ele>39</ele>
        <time>2021-07-04T06:02:03Z</time>
      </trkpt>
      <trkpt lat="47.49149" lon="-0.61834">
        <ele>39</ele>
        <time>2021-07-04T06:02:05Z</time>
      </trkpt>
      <trkpt lat="47.49149" lon="-0.61842">
        <ele>38.8</ele>
        <time>2021-07-04T06:02:06Z</time>
      </trkpt>
      <trkpt lat="47.49151" lon="-0.6185">
        <ele>38.8</ele>
        <time>2021-07-04T06:02:07Z</time>
      </trkpt>
      <trkpt lat="47.49152" lon="-0.61857">
        <ele>38.6</ele>
        <time>2021-07-04T06:02:08Z</time>
      </trkpt>
      <trkpt lat="47.49153" lon="-0.61864">
        <ele>38.6</ele>
        <time>2021-07-04T06:02:09Z</time>
      </trkpt>
      <trkpt lat="47.49155" lon="-0.6187">
        <ele>38.2</ele>
        <time>2021-07-04T06:02:10Z</time>
      </trkpt>
      <trkpt lat="47.49157" lon="-0.61879">
        <ele>38</ele>
        <time>2021-07-04T06:02:11Z</time>
      </trkpt>
      <trkpt lat="47.49158" lon="-0.61888">
        <ele>37.8</ele>
        <time>2021-07-04T06:02:12Z</time>
      </trkpt>
      <trkpt lat="47.4916" lon="-0.61896">
        <ele>37.6</ele>
        <time>2021-07-04T06:02:13Z</time>
      </trkpt>
      <trkpt lat="47.49164" lon="-0.61915">
        <ele>37.6</ele>
        <time>2021-07-04T06:02:15Z</time>
      </trkpt>
      <trkpt lat="47.49167" lon="-0.61931">
        <ele>37.8</ele>
        <time>2021-07-04T06:02:17Z</time>
      </trkpt>
      <trkpt lat="47.4917" lon="-0.61947">
        <ele>38</ele>
        <time>2021-07-04T06:02:19Z</time>
      </trkpt>
      <trkpt lat="47.49172" lon="-0.61964">
        <ele>38</ele>
        <time>2021-07-04T06:02:21Z</time>
      </trkpt>
      <trkpt lat="47.49174" lon="-0.61982">
        <ele>38</ele>
        <time>2021-07-04T06:02:23Z</time>
      </trkpt>
      <trkpt lat="47.49176" lon="-0.62001">
        <ele>38.6</ele>
        <time>2021-07-04T06:02:25Z</time>
      </trkpt>
      <trkpt lat="47.49177" lon="-0.6201">
        <ele>39</ele>
        <time>2021-07-04T06:02:26Z</time>
      </trkpt>
      <trkpt lat="47.49178" lon="-0.6202">
        <ele>39.2</ele>
        <time>2021-07-04T06:02:27Z</time>
      </trkpt>
      <trkpt lat="47.49179" lon="-0.62028">
        <ele>39.6</ele>
        <time>2021-07-04T06:02:28Z</time>
      </trkpt>
      <trkpt lat="47.4918" lon="-0.62037">
        <ele>39.6</ele>
        <time>2021-07-04T06:02:29Z</time>
      </trkpt>
      <trkpt lat="47.49182" lon="-0.62055">
        <ele>39.4</ele>
        <time>2021-07-04T06:02:31Z</time>
      </trkpt>
      <trkpt lat="47.49184" lon="-0.62064">
        <ele>39.2</ele>
        <time>2021-07-04T06:02:32Z</time>
      </trkpt>
      <trkpt lat="47.49184" lon="-0.62072">
        <ele>39</ele>
        <time>2021-07-04T06:02:33Z</time>
      </trkpt>
      <trkpt lat="47.49187" lon="-0.62091">
        <ele>38.4</ele>
        <time>2021-07-04T06:02:35Z</time>
      </trkpt>
      <trkpt lat="47.49189" lon="-0.621">
        <ele>38.4</ele>
        <time>2021-07-04T06:02:36Z</time>
      </trkpt>
      <trkpt lat="47.49191" lon="-0.62108">
        <ele>38.4</ele>
        <time>2021-07-04T06:02:37Z</time>
      </trkpt>
      <trkpt lat="47.49192" lon="-0.62117">
        <ele>38.4</ele>
        <time>2021-07-04T06:02:38Z</time>
      </trkpt>
      <trkpt lat="47.49193" lon="-0.62125">
        <ele>38.6</ele>
        <time>2021-07-04T06:02:39Z</time>
      </trkpt>
      <trkpt lat="47.49194" lon="-0.62142">
        <ele>38.8</ele>
        <time>2021-07-04T06:02:41Z</time>
      </trkpt>
      <trkpt lat="47.49194" lon="-0.6215">
        <ele>38.6</ele>
        <time>2021-07-04T06:02:42Z</time>
      </trkpt>
      <trkpt lat="47.49193" lon="-0.6216">
        <ele>38</ele>
        <time>2021-07-04T06:02:43Z</time>
      </trkpt>
      <trkpt lat="47.49192" lon="-0.62171">
        <ele>37.6</ele>
        <time>2021-07-04T06:02:44Z</time>
      </trkpt>
      <trkpt lat="47.49191" lon="-0.62181">
        <ele>37.2</ele>
        <time>2021-07-04T06:02:45Z</time>
      </trkpt>
      <trkpt lat="47.4919" lon="-0.622">
        <ele>36.8</ele>
        <time>2021-07-04T06:02:47Z</time>
      </trkpt>
      <trkpt lat="47.4919" lon="-0.62219">
        <ele>36.6</ele>
        <time>2021-07-04T06:02:49Z</time>
      </trkpt>
      <trkpt lat="47.49188" lon="-0.6223">
        <ele>36.6</ele>
        <time>2021-07-04T06:02:50Z</time>
      </trkpt>
      <trkpt lat="47.49186" lon="-0.62241">
        <ele>36.4</ele>
        <time>2021-07-04T06:02:51Z</time>
      </trkpt>
      <trkpt lat="47.49182" lon="-0.62259">
        <ele>36.4</ele>
        <time>2021-07-04T06:02:53Z</time>
      </trkpt>
      <trkpt lat="47.49174" lon="-0.62276">
        <ele>36.4</ele>
        <time>2021-07-04T06:02:55Z</time>
      </trkpt>
      <trkpt lat="47.49169" lon="-0.62284">
        <ele>36.4</ele>
        <time>2021-07-04T06:02:56Z</time>
      </trkpt>
      <trkpt lat="47.49166" lon="-0.62293">
        <ele>36.6</ele>
        <time>2021-07-04T06:02:57Z</time>
      </trkpt>
      <trkpt lat="47.49165" lon="-0.62311">
        <ele>37.6</ele>
        <time>2021-07-04T06:02:59Z</time>
      </trkpt>
      <trkpt lat="47.49167" lon="-0.62327">
        <ele>38.8</ele>
        <time>2021-07-04T06:03:01Z</time>
      </trkpt>
      <trkpt lat="47.49164" lon="-0.6234">
        <ele>39.6</ele>
        <time>2021-07-04T06:03:03Z</time>
      </trkpt>
      <trkpt lat="47.49162" lon="-0.62345">
        <ele>40</ele>
        <time>2021-07-04T06:03:04Z</time>
      </trkpt>
      <trkpt lat="47.49159" lon="-0.6235">
        <ele>40.4</ele>
        <time>2021-07-04T06:03:05Z</time>
      </trkpt>
      <trkpt lat="47.49153" lon="-0.62361">
        <ele>40.8</ele>
        <time>2021-07-04T06:03:07Z</time>
      </trkpt>
      <trkpt lat="47.4915" lon="-0.62366">
        <ele>41</ele>
        <time>2021-07-04T06:03:08Z</time>
      </trkpt>
      <trkpt lat="47.49148" lon="-0.62372">
        <ele>41.2</ele>
        <time>2021-07-04T06:03:09Z</time>
      </trkpt>
      <trkpt lat="47.49147" lon="-0.62378">
        <ele>41.6</ele>
        <time>2021-07-04T06:03:10Z</time>
      </trkpt>
      <trkpt lat="47.49146" lon="-0.62384">
        <ele>42</ele>
        <time>2021-07-04T06:03:11Z</time>
      </trkpt>
      <trkpt lat="47.49145" lon="-0.6239">
        <ele>42.4</ele>
        <time>2021-07-04T06:03:12Z</time>
      </trkpt>
      <trkpt lat="47.49144" lon="-0.62397">
        <ele>42.6</ele>
        <time>2021-07-04T06:03:13Z</time>
      </trkpt>
      <trkpt lat="47.49143" lon="-0.62403">
        <ele>43</ele>
        <time>2021-07-04T06:03:14Z</time>
      </trkpt>
      <trkpt lat="47.49142" lon="-0.62409">
        <ele>43.4</ele>
        <time>2021-07-04T06:03:15Z</time>
      </trkpt>
      <trkpt lat="47.49142" lon="-0.62415">
        <ele>43.6</ele>
        <time>2021-07-04T06:03:16Z</time>
      </trkpt>
      <trkpt lat="47.49142" lon="-0.62422">
        <ele>43.8</ele>
        <time>2021-07-04T06:03:17Z</time>
      </trkpt>
      <trkpt lat="47.49141" lon="-0.62435">
        <ele>44</ele>
        <time>2021-07-04T06:03:19Z</time>
      </trkpt>
      <trkpt lat="47.49141" lon="-0.62448">
        <ele>44.2</ele>
        <time>2021-07-04T06:03:21Z</time>
      </trkpt>
      <trkpt lat="47.49141" lon="-0.6246">
        <ele>44.6</ele>
        <time>2021-07-04T06:03:23Z</time>
      </trkpt>
      <trkpt lat="47.49142" lon="-0.62472">
        <ele>44.8</ele>
        <time>2021-07-04T06:03:25Z</time>
      </trkpt>
      <trkpt lat="47.49143" lon="-0.62478">
        <ele>45</ele>
        <time>2021-07-04T06:03:26Z</time>
      </trkpt>
      <trkpt lat="47.49143" lon="-0.62484">
        <ele>45.4</ele>
        <time>2021-07-04T06:03:27Z</time>
      </trkpt>
      <trkpt lat="47.49143" lon="-0.6249">
        <ele>45.8</ele>
        <time>2021-07-04T06:03:28Z</time>
      </trkpt>
      <trkpt lat="47.49143" lon="-0.62496">
        <ele>46</ele>
        <time>2021-07-04T06:03:29Z</time>
      </trkpt>
      <trkpt lat="47.49141" lon="-0.62501">
        <ele>46.2</ele>
        <time>2021-07-04T06:03:30Z</time>
      </trkpt>
      <trkpt lat="47.49139" lon="-0.62507">
        <ele>46.2</ele>
        <time>2021-07-04T06:03:31Z</time>
      </trkpt>
      <trkpt lat="47.49137" lon="-0.62517">
        <ele>46.6</ele>
        <time>2021-07-04T06:03:33Z</time>
      </trkpt>
      <trkpt lat="47.49136" lon="-0.62523">
        <ele>47.2</ele>
        <time>2021-07-04T06:03:34Z</time>
      </trkpt>
      <trkpt lat="47.49135" lon="-0.62528">
        <ele>47.8</ele>
        <time>2021-07-04T06:03:35Z</time>
      </trkpt>
      <trkpt lat="47.49134" lon="-0.62533">
        <ele>48.2</ele>
        <time>2021-07-04T06:03:36Z</time>
      </trkpt>
      <trkpt lat="47.49133" lon="-0.62538">
        <ele>48.6</ele>
        <time>2021-07-04T06:03:37Z</time>
      </trkpt>
      <trkpt lat="47.4913" lon="-0.62547">
        <ele>49</ele>
        <time>2021-07-04T06:03:39Z</time>
      </trkpt>
      <trkpt lat="47.49129" lon="-0.62552">
        <ele>49.4</ele>
        <time>2021-07-04T06:03:40Z</time>
      </trkpt>
      <trkpt lat="47.49128" lon="-0.62557">
        <ele>49.8</ele>
        <time>2021-07-04T06:03:41Z</time>
      </trkpt>
      <trkpt lat="47.49126" lon="-0.62569">
        <ele>49.8</ele>
        <time>2021-07-04T06:03:43Z</time>
      </trkpt>
      <trkpt lat="47.49126" lon="-0.62584">
        <ele>49.6</ele>
        <time>2021-07-04T06:03:45Z</time>
      </trkpt>
      <trkpt lat="47.49128" lon="-0.626">
        <ele>49</ele>
        <time>2021-07-04T06:03:47Z</time>
      </trkpt>
      <trkpt lat="47.49132" lon="-0.62616">
        <ele>48.4</ele>
        <time>2021-07-04T06:03:49Z</time>
      </trkpt>
      <trkpt lat="47.49136" lon="-0.62631">
        <ele>47.8</ele>
        <time>2021-07-04T06:03:51Z</time>
      </trkpt>
      <trkpt lat="47.49139" lon="-0.62647">
        <ele>48</ele>
        <time>2021-07-04T06:03:53Z</time>
      </trkpt>
      <trkpt lat="47.49142" lon="-0.62664">
        <ele>46.8</ele>
        <time>2021-07-04T06:03:55Z</time>
      </trkpt>
      <trkpt lat="47.49144" lon="-0.62674">
        <ele>45.8</ele>
        <time>2021-07-04T06:03:56Z</time>
      </trkpt>
      <trkpt lat="47.49146" lon="-0.62685">
        <ele>45</ele>
        <time>2021-07-04T06:03:57Z</time>
      </trkpt>
      <trkpt lat="47.49148" lon="-0.62696">
        <ele>44</ele>
        <time>2021-07-04T06:03:58Z</time>
      </trkpt>
      <trkpt lat="47.49149" lon="-0.62707">
        <ele>43</ele>
        <time>2021-07-04T06:03:59Z</time>
      </trkpt>
      <trkpt lat="47.49151" lon="-0.62719">
        <ele>41.8</ele>
        <time>2021-07-04T06:04:00Z</time>
      </trkpt>
      <trkpt lat="47.49153" lon="-0.6273">
        <ele>41.4</ele>
        <time>2021-07-04T06:04:01Z</time>
      </trkpt>
      <trkpt lat="47.49155" lon="-0.62751">
        <ele>41.2</ele>
        <time>2021-07-04T06:04:03Z</time>
      </trkpt>
      <trkpt lat="47.49155" lon="-0.6276">
        <ele>41.4</ele>
        <time>2021-07-04T06:04:04Z</time>
      </trkpt>
      <trkpt lat="47.49156" lon="-0.6277">
        <ele>41.4</ele>
        <time>2021-07-04T06:04:05Z</time>
      </trkpt>
      <trkpt lat="47.49157" lon="-0.6279">
        <ele>41</ele>
        <time>2021-07-04T06:04:07Z</time>
      </trkpt>
      <trkpt lat="47.49159" lon="-0.62809">
        <ele>41.6</ele>
        <time>2021-07-04T06:04:09Z</time>
      </trkpt>
      <trkpt lat="47.49158" lon="-0.62818">
        <ele>41.8</ele>
        <time>2021-07-04T06:04:10Z</time>
      </trkpt>
      <trkpt lat="47.49156" lon="-0.62827">
        <ele>41.8</ele>
        <time>2021-07-04T06:04:11Z</time>
      </trkpt>
      <trkpt lat="47.49152" lon="-0.62844">
        <ele>41.4</ele>
        <time>2021-07-04T06:04:13Z</time>
      </trkpt>
      <trkpt lat="47.49149" lon="-0.62852">
        <ele>41.2</ele>
        <time>2021-07-04T06:04:14Z</time>
      </trkpt>
      <trkpt lat="47.49146" lon="-0.6286">
        <ele>41.2</ele>
        <time>2021-07-04T06:04:15Z</time>
      </trkpt>
      <trkpt lat="47.49139" lon="-0.62876">
        <ele>41.2</ele>
        <time>2021-07-04T06:04:17Z</time>
      </trkpt>
      <trkpt lat="47.49132" lon="-0.62891">
        <ele>41.2</ele>
        <time>2021-07-04T06:04:19Z</time>
      </trkpt>
      <trkpt lat="47.49126" lon="-0.62905">
        <ele>41.4</ele>
        <time>2021-07-04T06:04:21Z</time>
      </trkpt>
      <trkpt lat="47.49121" lon="-0.62919">
        <ele>42</ele>
        <time>2021-07-04T06:04:23Z</time>
      </trkpt>
      <trkpt lat="47.4912" lon="-0.62926">
        <ele>42.2</ele>
        <time>2021-07-04T06:04:24Z</time>
      </trkpt>
      <trkpt lat="47.4912" lon="-0.62935">
        <ele>42.6</ele>
        <time>2021-07-04T06:04:25Z</time>
      </trkpt>
      <trkpt lat="47.49122" lon="-0.62952">
        <ele>43.2</ele>
        <time>2021-07-04T06:04:27Z</time>
      </trkpt>
      <trkpt lat="47.49123" lon="-0.62959">
        <ele>43.6</ele>
        <time>2021-07-04T06:04:28Z</time>
      </trkpt>
      <trkpt lat="47.49124" lon="-0.62967">
        <ele>44.4</ele>
        <time>2021-07-04T06:04:29Z</time>
      </trkpt>
      <trkpt lat="47.49122" lon="-0.62983">
        <ele>45</ele>
        <time>2021-07-04T06:04:31Z</time>
      </trkpt>
      <trkpt lat="47.4912" lon="-0.62997">
        <ele>45.2</ele>
        <time>2021-07-04T06:04:33Z</time>
      </trkpt>
      <trkpt lat="47.49119" lon="-0.63004">
        <ele>45.2</ele>
        <time>2021-07-04T06:04:34Z</time>
      </trkpt>
      <trkpt lat="47.49117" lon="-0.63011">
        <ele>45</ele>
        <time>2021-07-04T06:04:35Z</time>
      </trkpt>
      <trkpt lat="47.49114" lon="-0.63018">
        <ele>45</ele>
        <time>2021-07-04T06:04:36Z</time>
      </trkpt>
      <trkpt lat="47.49112" lon="-0.63026">
        <ele>44.6</ele>
        <time>2021-07-04T06:04:37Z</time>
      </trkpt>
      <trkpt lat="47.49108" lon="-0.6304">
        <ele>44.2</ele>
        <time>2021-07-04T06:04:39Z</time>
      </trkpt>
      <trkpt lat="47.49104" lon="-0.63054">
        <ele>44</ele>
        <time>2021-07-04T06:04:41Z</time>
      </trkpt>
      <trkpt lat="47.49101" lon="-0.6307">
        <ele>43.8</ele>
        <time>2021-07-04T06:04:43Z</time>
      </trkpt>
      <trkpt lat="47.49099" lon="-0.63088">
        <ele>44</ele>
        <time>2021-07-04T06:04:45Z</time>
      </trkpt>
      <trkpt lat="47.49099" lon="-0.63098">
        <ele>44.2</ele>
        <time>2021-07-04T06:04:46Z</time>
      </trkpt>
      <trkpt lat="47.491" lon="-0.63107">
        <ele>44.2</ele>
        <time>2021-07-04T06:04:47Z</time>
      </trkpt>
      <trkpt lat="47.491" lon="-0.63115">
        <ele>44.4</ele>
        <time>2021-07-04T06:04:48Z</time>
      </trkpt>
      <trkpt lat="47.49101" lon="-0.63123">
        <ele>44.4</ele>
        <time>2021-07-04T06:04:49Z</time>
      </trkpt>
      <trkpt lat="47.49106" lon="-0.63139">
        <ele>44.8</ele>
        <time>2021-07-04T06:04:51Z</time>
      </trkpt>
      <trkpt lat="47.49111" lon="-0.63153">
        <ele>45.4</ele>
        <time>2021-07-04T06:04:53Z</time>
      </trkpt>
      <trkpt lat="47.49113" lon="-0.6316">
        <ele>45.6</ele>
        <time>2021-07-04T06:04:54Z</time>
      </trkpt>
      <trkpt lat="47.49116" lon="-0.63166">
        <ele>46</ele>
        <time>2021-07-04T06:04:55Z</time>
      </trkpt>
      <trkpt lat="47.49121" lon="-0.63177">
        <ele>46.4</ele>
        <time>2021-07-04T06:04:57Z</time>
      </trkpt>
      <trkpt lat="47.49123" lon="-0.63183">
        <ele>47</ele>
        <time>2021-07-04T06:04:58Z</time>
      </trkpt>
      <trkpt lat="47.49123" lon="-0.63188">
        <ele>47.4</ele>
        <time>2021-07-04T06:04:59Z</time>
      </trkpt>
      <trkpt lat="47.49123" lon="-0.63193">
        <ele>47.6</ele>
        <time>2021-07-04T06:05:00Z</time>
      </trkpt>
      <trkpt lat="47.49121" lon="-0.63195">
        <ele>47.6</ele>
        <time>2021-07-04T06:05:01Z</time>
      </trkpt>
      <trkpt lat="47.49114" lon="-0.63195">
        <ele>47.2</ele>
        <time>2021-07-04T06:05:03Z</time>
      </trkpt>
      <trkpt lat="47.4911" lon="-0.63194">
        <ele>46.8</ele>
        <time>2021-07-04T06:05:04Z</time>
      </trkpt>
      <trkpt lat="47.49106" lon="-0.63192">
        <ele>46.4</ele>
        <time>2021-07-04T06:05:05Z</time>
      </trkpt>
      <trkpt lat="47.49101" lon="-0.63191">
        <ele>46</ele>
        <time>2021-07-04T06:05:06Z</time>
      </trkpt>
      <trkpt lat="47.49097" lon="-0.63189">
        <ele>45.8</ele>
        <time>2021-07-04T06:05:07Z</time>
      </trkpt>
      <trkpt lat="47.49087" lon="-0.63185">
        <ele>45.2</ele>
        <time>2021-07-04T06:05:09Z</time>
      </trkpt>
      <trkpt lat="47.49077" lon="-0.63182">
        <ele>44.8</ele>
        <time>2021-07-04T06:05:11Z</time>
      </trkpt>
      <trkpt lat="47.49066" lon="-0.63178">
        <ele>44.8</ele>
        <time>2021-07-04T06:05:13Z</time>
      </trkpt>
      <trkpt lat="47.49053" lon="-0.63175">
        <ele>44</ele>
        <time>2021-07-04T06:05:15Z</time>
      </trkpt>
      <trkpt lat="47.49046" lon="-0.63173">
        <ele>43.6</ele>
        <time>2021-07-04T06:05:16Z</time>
      </trkpt>
      <trkpt lat="47.4904" lon="-0.63172">
        <ele>43.8</ele>
        <time>2021-07-04T06:05:17Z</time>
      </trkpt>
      <trkpt lat="47.49028" lon="-0.63172">
        <ele>43.6</ele>
        <time>2021-07-04T06:05:19Z</time>
      </trkpt>
      <trkpt lat="47.49016" lon="-0.63172">
        <ele>43.6</ele>
        <time>2021-07-04T06:05:21Z</time>
      </trkpt>
      <trkpt lat="47.49004" lon="-0.63178">
        <ele>43.8</ele>
        <time>2021-07-04T06:05:23Z</time>
      </trkpt>
      <trkpt lat="47.48997" lon="-0.63181">
        <ele>43.8</ele>
        <time>2021-07-04T06:05:24Z</time>
      </trkpt>
      <trkpt lat="47.48992" lon="-0.63185">
        <ele>43.4</ele>
        <time>2021-07-04T06:05:25Z</time>
      </trkpt>
      <trkpt lat="47.4898" lon="-0.63196">
        <ele>43.2</ele>
        <time>2021-07-04T06:05:27Z</time>
      </trkpt>
      <trkpt lat="47.48975" lon="-0.63201">
        <ele>43.4</ele>
        <time>2021-07-04T06:05:28Z</time>
      </trkpt>
      <trkpt lat="47.48971" lon="-0.63207">
        <ele>43.6</ele>
        <time>2021-07-04T06:05:29Z</time>
      </trkpt>
      <trkpt lat="47.4896" lon="-0.63218">
        <ele>43.8</ele>
        <time>2021-07-04T06:05:31Z</time>
      </trkpt>
      <trkpt lat="47.48951" lon="-0.63231">
        <ele>43.6</ele>
        <time>2021-07-04T06:05:33Z</time>
      </trkpt>
      <trkpt lat="47.48941" lon="-0.63242">
        <ele>43.6</ele>
        <time>2021-07-04T06:05:35Z</time>
      </trkpt>
      <trkpt lat="47.48933" lon="-0.63252">
        <ele>43.8</ele>
        <time>2021-07-04T06:05:37Z</time>
      </trkpt>
      <trkpt lat="47.48923" lon="-0.63264">
        <ele>43.8</ele>
        <time>2021-07-04T06:05:39Z</time>
      </trkpt>
      <trkpt lat="47.48918" lon="-0.63269">
        <ele>43.8</ele>
        <time>2021-07-04T06:05:40Z</time>
      </trkpt>
      <trkpt lat="47.48912" lon="-0.63274">
        <ele>43.8</ele>
        <time>2021-07-04T06:05:41Z</time>
      </trkpt>
      <trkpt lat="47.489" lon="-0.63283">
        <ele>43.4</ele>
        <time>2021-07-04T06:05:43Z</time>
      </trkpt>
      <trkpt lat="47.48887" lon="-0.63292">
        <ele>42.8</ele>
        <time>2021-07-04T06:05:45Z</time>
      </trkpt>
      <trkpt lat="47.4888" lon="-0.63296">
        <ele>42.2</ele>
        <time>2021-07-04T06:05:46Z</time>
      </trkpt>
      <trkpt lat="47.48874" lon="-0.63301">
        <ele>41.8</ele>
        <time>2021-07-04T06:05:47Z</time>
      </trkpt>
      <trkpt lat="47.48869" lon="-0.63307">
        <ele>41.4</ele>
        <time>2021-07-04T06:05:48Z</time>
      </trkpt>
      <trkpt lat="47.48864" lon="-0.63314">
        <ele>41.2</ele>
        <time>2021-07-04T06:05:49Z</time>
      </trkpt>
      <trkpt lat="47.48854" lon="-0.63327">
        <ele>41.6</ele>
        <time>2021-07-04T06:05:51Z</time>
      </trkpt>
      <trkpt lat="47.48848" lon="-0.63334">
        <ele>42</ele>
        <time>2021-07-04T06:05:52Z</time>
      </trkpt>
      <trkpt lat="47.48842" lon="-0.6334">
        <ele>42.4</ele>
        <time>2021-07-04T06:05:53Z</time>
      </trkpt>
      <trkpt lat="47.48829" lon="-0.63351">
        <ele>42.8</ele>
        <time>2021-07-04T06:05:55Z</time>
      </trkpt>
      <trkpt lat="47.48823" lon="-0.63355">
        <ele>42.8</ele>
        <time>2021-07-04T06:05:56Z</time>
      </trkpt>
      <trkpt lat="47.48817" lon="-0.63359">
        <ele>42.6</ele>
        <time>2021-07-04T06:05:57Z</time>
      </trkpt>
      <trkpt lat="47.48804" lon="-0.63364">
        <ele>42.4</ele>
        <time>2021-07-04T06:05:59Z</time>
      </trkpt>
      <trkpt lat="47.48798" lon="-0.63365">
        <ele>42.4</ele>
        <time>2021-07-04T06:06:00Z</time>
      </trkpt>
      <trkpt lat="47.48792" lon="-0.63366">
        <ele>42.2</ele>
        <time>2021-07-04T06:06:01Z</time>
      </trkpt>
      <trkpt lat="47.48781" lon="-0.63364">
        <ele>42.2</ele>
        <time>2021-07-04T06:06:03Z</time>
      </trkpt>
      <trkpt lat="47.48768" lon="-0.63358">
        <ele>42.4</ele>
        <time>2021-07-04T06:06:05Z</time>
      </trkpt>
      <trkpt lat="47.48757" lon="-0.63348">
        <ele>42.2</ele>
        <time>2021-07-04T06:06:07Z</time>
      </trkpt>
      <trkpt lat="47.48752" lon="-0.63343">
        <ele>42.2</ele>
        <time>2021-07-04T06:06:08Z</time>
      </trkpt>
      <trkpt lat="47.48747" lon="-0.63337">
        <ele>42.2</ele>
        <time>2021-07-04T06:06:09Z</time>
      </trkpt>
      <trkpt lat="47.48738" lon="-0.63326">
        <ele>42.4</ele>
        <time>2021-07-04T06:06:11Z</time>
      </trkpt>
      <trkpt lat="47.48729" lon="-0.63316">
        <ele>42.6</ele>
        <time>2021-07-04T06:06:13Z</time>
      </trkpt>
      <trkpt lat="47.48725" lon="-0.6331">
        <ele>42.8</ele>
        <time>2021-07-04T06:06:14Z</time>
      </trkpt>
      <trkpt lat="47.4872" lon="-0.63304">
        <ele>42.8</ele>
        <time>2021-07-04T06:06:15Z</time>
      </trkpt>
      <trkpt lat="47.48711" lon="-0.63291">
        <ele>43</ele>
        <time>2021-07-04T06:06:17Z</time>
      </trkpt>
      <trkpt lat="47.48702" lon="-0.6328">
        <ele>43</ele>
        <time>2021-07-04T06:06:19Z</time>
      </trkpt>
      <trkpt lat="47.48698" lon="-0.63275">
        <ele>43.2</ele>
        <time>2021-07-04T06:06:20Z</time>
      </trkpt>
      <trkpt lat="47.48694" lon="-0.63269">
        <ele>43.2</ele>
        <time>2021-07-04T06:06:21Z</time>
      </trkpt>
      <trkpt lat="47.48686" lon="-0.63258">
        <ele>43.2</ele>
        <time>2021-07-04T06:06:23Z</time>
      </trkpt>
      <trkpt lat="47.48681" lon="-0.63253">
        <ele>43.4</ele>
        <time>2021-07-04T06:06:24Z</time>
      </trkpt>
      <trkpt lat="47.48677" lon="-0.63247">
        <ele>43.6</ele>
        <time>2021-07-04T06:06:25Z</time>
      </trkpt>
      <trkpt lat="47.48668" lon="-0.63235">
        <ele>44</ele>
        <time>2021-07-04T06:06:27Z</time>
      </trkpt>
      <trkpt lat="47.48659" lon="-0.63225">
        <ele>44.6</ele>
        <time>2021-07-04T06:06:29Z</time>
      </trkpt>
      <trkpt lat="47.4865" lon="-0.63213">
        <ele>44.6</ele>
        <time>2021-07-04T06:06:31Z</time>
      </trkpt>
      <trkpt lat="47.48642" lon="-0.63202">
        <ele>45</ele>
        <time>2021-07-04T06:06:33Z</time>
      </trkpt>
      <trkpt lat="47.48633" lon="-0.63191">
        <ele>45</ele>
        <time>2021-07-04T06:06:35Z</time>
      </trkpt>
      <trkpt lat="47.48624" lon="-0.6318">
        <ele>45.4</ele>
        <time>2021-07-04T06:06:37Z</time>
      </trkpt>
      <trkpt lat="47.48615" lon="-0.63166">
        <ele>46</ele>
        <time>2021-07-04T06:06:39Z</time>
      </trkpt>
      <trkpt lat="47.48607" lon="-0.63154">
        <ele>46.8</ele>
        <time>2021-07-04T06:06:41Z</time>
      </trkpt>
      <trkpt lat="47.48603" lon="-0.63148">
        <ele>47.2</ele>
        <time>2021-07-04T06:06:42Z</time>
      </trkpt>
      <trkpt lat="47.48599" lon="-0.63143">
        <ele>47.2</ele>
        <time>2021-07-04T06:06:43Z</time>
      </trkpt>
      <trkpt lat="47.48592" lon="-0.63134">
        <ele>47.6</ele>
        <time>2021-07-04T06:06:45Z</time>
      </trkpt>
      <trkpt lat="47.48585" lon="-0.63125">
        <ele>48.4</ele>
        <time>2021-07-04T06:06:47Z</time>
      </trkpt>
      <trkpt lat="47.48578" lon="-0.63116">
        <ele>49</ele>
        <time>2021-07-04T06:06:49Z</time>
      </trkpt>
      <trkpt lat="47.48575" lon="-0.63112">
        <ele>49.2</ele>
        <time>2021-07-04T06:06:50Z</time>
      </trkpt>
      <trkpt lat="47.48573" lon="-0.63108">
        <ele>49.6</ele>
        <time>2021-07-04T06:06:51Z</time>
      </trkpt>
      <trkpt lat="47.4857" lon="-0.63107">
        <ele>50</ele>
        <time>2021-07-04T06:06:52Z</time>
      </trkpt>
      <trkpt lat="47.48566" lon="-0.63108">
        <ele>50.6</ele>
        <time>2021-07-04T06:06:53Z</time>
      </trkpt>
      <trkpt lat="47.48558" lon="-0.63113">
        <ele>50.6</ele>
        <time>2021-07-04T06:06:55Z</time>
      </trkpt>
      <trkpt lat="47.4855" lon="-0.63119">
        <ele>50.4</ele>
        <time>2021-07-04T06:06:57Z</time>
      </trkpt>
      <trkpt lat="47.48541" lon="-0.63125">
        <ele>50.2</ele>
        <time>2021-07-04T06:06:59Z</time>
      </trkpt>
      <trkpt lat="47.48537" lon="-0.63129">
        <ele>50</ele>
        <time>2021-07-04T06:07:00Z</time>
      </trkpt>
      <trkpt lat="47.48533" lon="-0.63133">
        <ele>50</ele>
        <time>2021-07-04T06:07:01Z</time>
      </trkpt>
      <trkpt lat="47.48529" lon="-0.63137">
        <ele>49.6</ele>
        <time>2021-07-04T06:07:02Z</time>
      </trkpt>
      <trkpt lat="47.48525" lon="-0.63142">
        <ele>49.4</ele>
        <time>2021-07-04T06:07:03Z</time>
      </trkpt>
      <trkpt lat="47.4852" lon="-0.63154">
        <ele>49.8</ele>
        <time>2021-07-04T06:07:05Z</time>
      </trkpt>
      <trkpt lat="47.48515" lon="-0.63165">
        <ele>50.2</ele>
        <time>2021-07-04T06:07:07Z</time>
      </trkpt>
      <trkpt lat="47.48511" lon="-0.63177">
        <ele>51</ele>
        <time>2021-07-04T06:07:09Z</time>
      </trkpt>
      <trkpt lat="47.48506" lon="-0.63187">
        <ele>51.4</ele>
        <time>2021-07-04T06:07:11Z</time>
      </trkpt>
      <trkpt lat="47.48502" lon="-0.63188">
        <ele>51.4</ele>
        <time>2021-07-04T06:07:12Z</time>
      </trkpt>
      <trkpt lat="47.48498" lon="-0.63188">
        <ele>51.2</ele>
        <time>2021-07-04T06:07:13Z</time>
      </trkpt>
      <trkpt lat="47.4849" lon="-0.63181">
        <ele>51.2</ele>
        <time>2021-07-04T06:07:15Z</time>
      </trkpt>
      <trkpt lat="47.48484" lon="-0.63172">
        <ele>51.4</ele>
        <time>2021-07-04T06:07:17Z</time>
      </trkpt>
      <trkpt lat="47.48479" lon="-0.6317">
        <ele>51.4</ele>
        <time>2021-07-04T06:07:18Z</time>
      </trkpt>
      <trkpt lat="47.48474" lon="-0.63171">
        <ele>51.6</ele>
        <time>2021-07-04T06:07:19Z</time>
      </trkpt>
      <trkpt lat="47.48464" lon="-0.63173">
        <ele>51.8</ele>
        <time>2021-07-04T06:07:21Z</time>
      </trkpt>
      <trkpt lat="47.48459" lon="-0.63175">
        <ele>51.8</ele>
        <time>2021-07-04T06:07:22Z</time>
      </trkpt>
      <trkpt lat="47.48454" lon="-0.63176">
        <ele>51.8</ele>
        <time>2021-07-04T06:07:23Z</time>
      </trkpt>
      <trkpt lat="47.48445" lon="-0.63179">
        <ele>52</ele>
        <time>2021-07-04T06:07:25Z</time>
      </trkpt>
      <trkpt lat="47.48436" lon="-0.63182">
        <ele>52.4</ele>
        <time>2021-07-04T06:07:27Z</time>
      </trkpt>
      <trkpt lat="47.48427" lon="-0.63184">
        <ele>53</ele>
        <time>2021-07-04T06:07:29Z</time>
      </trkpt>
      <trkpt lat="47.48422" lon="-0.63185">
        <ele>53.4</ele>
        <time>2021-07-04T06:07:30Z</time>
      </trkpt>
      <trkpt lat="47.48417" lon="-0.63186">
        <ele>53.8</ele>
        <time>2021-07-04T06:07:31Z</time>
      </trkpt>
      <trkpt lat="47.48412" lon="-0.63186">
        <ele>54</ele>
        <time>2021-07-04T06:07:32Z</time>
      </trkpt>
      <trkpt lat="47.48407" lon="-0.63187">
        <ele>54.4</ele>
        <time>2021-07-04T06:07:33Z</time>
      </trkpt>
      <trkpt lat="47.48398" lon="-0.63187">
        <ele>54.6</ele>
        <time>2021-07-04T06:07:35Z</time>
      </trkpt>
      <trkpt lat="47.48388" lon="-0.63188">
        <ele>55</ele>
        <time>2021-07-04T06:07:37Z</time>
      </trkpt>
      <trkpt lat="47.48384" lon="-0.63188">
        <ele>55.2</ele>
        <time>2021-07-04T06:07:38Z</time>
      </trkpt>
      <trkpt lat="47.48379" lon="-0.63188">
        <ele>55.2</ele>
        <time>2021-07-04T06:07:39Z</time>
      </trkpt>
      <trkpt lat="47.4837" lon="-0.63188">
        <ele>55.8</ele>
        <time>2021-07-04T06:07:41Z</time>
      </trkpt>
      <trkpt lat="47.48361" lon="-0.63188">
        <ele>56.2</ele>
        <time>2021-07-04T06:07:43Z</time>
      </trkpt>
      <trkpt lat="47.48352" lon="-0.63188">
        <ele>56.6</ele>
        <time>2021-07-04T06:07:45Z</time>
      </trkpt>
      <trkpt lat="47.48343" lon="-0.63188">
        <ele>56.6</ele>
        <time>2021-07-04T06:07:47Z</time>
      </trkpt>
      <trkpt lat="47.48339" lon="-0.63188">
        <ele>56.6</ele>
        <time>2021-07-04T06:07:48Z</time>
      </trkpt>
      <trkpt lat="47.48335" lon="-0.63187">
        <ele>56.8</ele>
        <time>2021-07-04T06:07:49Z</time>
      </trkpt>
      <trkpt lat="47.48327" lon="-0.6319">
        <ele>57.4</ele>
        <time>2021-07-04T06:07:51Z</time>
      </trkpt>
      <trkpt lat="47.48324" lon="-0.63194">
        <ele>58</ele>
        <time>2021-07-04T06:07:52Z</time>
      </trkpt>
      <trkpt lat="47.48322" lon="-0.63199">
        <ele>58.4</ele>
        <time>2021-07-04T06:07:53Z</time>
      </trkpt>
      <trkpt lat="47.48321" lon="-0.63206">
        <ele>58.6</ele>
        <time>2021-07-04T06:07:54Z</time>
      </trkpt>
      <trkpt lat="47.48318" lon="-0.6321">
        <ele>58.8</ele>
        <time>2021-07-04T06:07:55Z</time>
      </trkpt>
      <trkpt lat="47.48308" lon="-0.63213">
        <ele>58.8</ele>
        <time>2021-07-04T06:07:57Z</time>
      </trkpt>
      <trkpt lat="47.48304" lon="-0.63213">
        <ele>58.6</ele>
        <time>2021-07-04T06:07:58Z</time>
      </trkpt>
      <trkpt lat="47.48299" lon="-0.63209">
        <ele>58.6</ele>
        <time>2021-07-04T06:07:59Z</time>
      </trkpt>
      <trkpt lat="47.48294" lon="-0.632">
        <ele>58.6</ele>
        <time>2021-07-04T06:08:01Z</time>
      </trkpt>
      <trkpt lat="47.48286" lon="-0.63191">
        <ele>59</ele>
        <time>2021-07-04T06:08:03Z</time>
      </trkpt>
      <trkpt lat="47.48283" lon="-0.63186">
        <ele>59.2</ele>
        <time>2021-07-04T06:08:04Z</time>
      </trkpt>
      <trkpt lat="47.48281" lon="-0.6318">
        <ele>59.4</ele>
        <time>2021-07-04T06:08:05Z</time>
      </trkpt>
      <trkpt lat="47.48278" lon="-0.63175">
        <ele>59.4</ele>
        <time>2021-07-04T06:08:06Z</time>
      </trkpt>
      <trkpt lat="47.48275" lon="-0.63169">
        <ele>59.6</ele>
        <time>2021-07-04T06:08:07Z</time>
      </trkpt>
      <trkpt lat="47.48272" lon="-0.63165">
        <ele>59.6</ele>
        <time>2021-07-04T06:08:08Z</time>
      </trkpt>
      <trkpt lat="47.48269" lon="-0.63162">
        <ele>59.6</ele>
        <time>2021-07-04T06:08:09Z</time>
      </trkpt>
      <trkpt lat="47.48262" lon="-0.63158">
        <ele>59.8</ele>
        <time>2021-07-04T06:08:11Z</time>
      </trkpt>
      <trkpt lat="47.48254" lon="-0.63158">
        <ele>60.2</ele>
        <time>2021-07-04T06:08:13Z</time>
      </trkpt>
      <trkpt lat="47.48251" lon="-0.63155">
        <ele>60.6</ele>
        <time>2021-07-04T06:08:14Z</time>
      </trkpt>
      <trkpt lat="47.48249" lon="-0.63149">
        <ele>60.8</ele>
        <time>2021-07-04T06:08:15Z</time>
      </trkpt>
      <trkpt lat="47.48246" lon="-0.63136">
        <ele>60.6</ele>
        <time>2021-07-04T06:08:17Z</time>
      </trkpt>
      <trkpt lat="47.48246" lon="-0.63122">
        <ele>60.6</ele>
        <time>2021-07-04T06:08:19Z</time>
      </trkpt>
      <trkpt lat="47.48254" lon="-0.63114">
        <ele>60.6</ele>
        <time>2021-07-04T06:08:21Z</time>
      </trkpt>
      <trkpt lat="47.48255" lon="-0.63107">
        <ele>60.4</ele>
        <time>2021-07-04T06:08:22Z</time>
      </trkpt>
      <trkpt lat="47.48255" lon="-0.63099">
        <ele>60.4</ele>
        <time>2021-07-04T06:08:23Z</time>
      </trkpt>
      <trkpt lat="47.48255" lon="-0.63092">
        <ele>60.2</ele>
        <time>2021-07-04T06:08:24Z</time>
      </trkpt>
      <trkpt lat="47.48254" lon="-0.63083">
        <ele>60.2</ele>
        <time>2021-07-04T06:08:25Z</time>
      </trkpt>
      <trkpt lat="47.48252" lon="-0.63066">
        <ele>59.8</ele>
        <time>2021-07-04T06:08:27Z</time>
      </trkpt>
      <trkpt lat="47.48251" lon="-0.63058">
        <ele>59.6</ele>
        <time>2021-07-04T06:08:28Z</time>
      </trkpt>
      <trkpt lat="47.4825" lon="-0.63049">
        <ele>59.4</ele>
        <time>2021-07-04T06:08:29Z</time>
      </trkpt>
      <trkpt lat="47.48249" lon="-0.6303">
        <ele>59.2</ele>
        <time>2021-07-04T06:08:31Z</time>
      </trkpt>
      <trkpt lat="47.48247" lon="-0.63012">
        <ele>58.8</ele>
        <time>2021-07-04T06:08:33Z</time>
      </trkpt>
      <trkpt lat="47.48247" lon="-0.63002">
        <ele>58.6</ele>
        <time>2021-07-04T06:08:34Z</time>
      </trkpt>
      <trkpt lat="47.48247" lon="-0.62993">
        <ele>58.4</ele>
        <time>2021-07-04T06:08:35Z</time>
      </trkpt>
      <trkpt lat="47.48245" lon="-0.62974">
        <ele>58</ele>
        <time>2021-07-04T06:08:37Z</time>
      </trkpt>
      <trkpt lat="47.48245" lon="-0.62964">
        <ele>57.8</ele>
        <time>2021-07-04T06:08:38Z</time>
      </trkpt>
      <trkpt lat="47.48244" lon="-0.62954">
        <ele>57.6</ele>
        <time>2021-07-04T06:08:39Z</time>
      </trkpt>
      <trkpt lat="47.48244" lon="-0.62945">
        <ele>57.4</ele>
        <time>2021-07-04T06:08:40Z</time>
      </trkpt>
      <trkpt lat="47.48244" lon="-0.62936">
        <ele>57.2</ele>
        <time>2021-07-04T06:08:41Z</time>
      </trkpt>
      <trkpt lat="47.48244" lon="-0.62918">
        <ele>57</ele>
        <time>2021-07-04T06:08:43Z</time>
      </trkpt>
      <trkpt lat="47.48243" lon="-0.62901">
        <ele>57.2</ele>
        <time>2021-07-04T06:08:45Z</time>
      </trkpt>
      <trkpt lat="47.48244" lon="-0.62892">
        <ele>57.4</ele>
        <time>2021-07-04T06:08:46Z</time>
      </trkpt>
      <trkpt lat="47.48244" lon="-0.62883">
        <ele>57.6</ele>
        <time>2021-07-04T06:08:47Z</time>
      </trkpt>
      <trkpt lat="47.48244" lon="-0.62874">
        <ele>57.8</ele>
        <time>2021-07-04T06:08:48Z</time>
      </trkpt>
      <trkpt lat="47.48243" lon="-0.62866">
        <ele>57.6</ele>
        <time>2021-07-04T06:08:49Z</time>
      </trkpt>
      <trkpt lat="47.48242" lon="-0.62849">
        <ele>57.4</ele>
        <time>2021-07-04T06:08:51Z</time>
      </trkpt>
      <trkpt lat="47.48242" lon="-0.62831">
        <ele>57.4</ele>
        <time>2021-07-04T06:08:53Z</time>
      </trkpt>
      <trkpt lat="47.48241" lon="-0.62812">
        <ele>56.8</ele>
        <time>2021-07-04T06:08:55Z</time>
      </trkpt>
      <trkpt lat="47.48241" lon="-0.62793">
        <ele>56.4</ele>
        <time>2021-07-04T06:08:57Z</time>
      </trkpt>
      <trkpt lat="47.48241" lon="-0.62783">
        <ele>56.2</ele>
        <time>2021-07-04T06:08:58Z</time>
      </trkpt>
      <trkpt lat="47.48242" lon="-0.62774">
        <ele>56</ele>
        <time>2021-07-04T06:08:59Z</time>
      </trkpt>
      <trkpt lat="47.48241" lon="-0.62755">
        <ele>55.8</ele>
        <time>2021-07-04T06:09:01Z</time>
      </trkpt>
      <trkpt lat="47.4824" lon="-0.62738">
        <ele>55.8</ele>
        <time>2021-07-04T06:09:03Z</time>
      </trkpt>
      <trkpt lat="47.4824" lon="-0.6273">
        <ele>55.8</ele>
        <time>2021-07-04T06:09:04Z</time>
      </trkpt>
      <trkpt lat="47.48239" lon="-0.62721">
        <ele>55.8</ele>
        <time>2021-07-04T06:09:05Z</time>
      </trkpt>
      <trkpt lat="47.48238" lon="-0.62702">
        <ele>55.6</ele>
        <time>2021-07-04T06:09:07Z</time>
      </trkpt>
      <trkpt lat="47.48235" lon="-0.62684">
        <ele>55.2</ele>
        <time>2021-07-04T06:09:09Z</time>
      </trkpt>
      <trkpt lat="47.48233" lon="-0.62674">
        <ele>55.2</ele>
        <time>2021-07-04T06:09:10Z</time>
      </trkpt>
      <trkpt lat="47.48232" lon="-0.62664">
        <ele>55</ele>
        <time>2021-07-04T06:09:11Z</time>
      </trkpt>
      <trkpt lat="47.48231" lon="-0.62644">
        <ele>54.4</ele>
        <time>2021-07-04T06:09:13Z</time>
      </trkpt>
      <trkpt lat="47.48231" lon="-0.62634">
        <ele>54</ele>
        <time>2021-07-04T06:09:14Z</time>
      </trkpt>
      <trkpt lat="47.48231" lon="-0.62624">
        <ele>53.6</ele>
        <time>2021-07-04T06:09:15Z</time>
      </trkpt>
      <trkpt lat="47.4823" lon="-0.62603">
        <ele>52.4</ele>
        <time>2021-07-04T06:09:17Z</time>
      </trkpt>
      <trkpt lat="47.48229" lon="-0.62583">
        <ele>52.2</ele>
        <time>2021-07-04T06:09:19Z</time>
      </trkpt>
      <trkpt lat="47.48229" lon="-0.62562">
        <ele>52</ele>
        <time>2021-07-04T06:09:21Z</time>
      </trkpt>
      <trkpt lat="47.48229" lon="-0.62542">
        <ele>52</ele>
        <time>2021-07-04T06:09:23Z</time>
      </trkpt>
      <trkpt lat="47.4823" lon="-0.62522">
        <ele>51.6</ele>
        <time>2021-07-04T06:09:25Z</time>
      </trkpt>
      <trkpt lat="47.4823" lon="-0.62512">
        <ele>51.4</ele>
        <time>2021-07-04T06:09:26Z</time>
      </trkpt>
      <trkpt lat="47.4823" lon="-0.62501">
        <ele>51.2</ele>
        <time>2021-07-04T06:09:27Z</time>
      </trkpt>
      <trkpt lat="47.48231" lon="-0.6248">
        <ele>51</ele>
        <time>2021-07-04T06:09:29Z</time>
      </trkpt>
      <trkpt lat="47.48232" lon="-0.62469">
        <ele>50.8</ele>
        <time>2021-07-04T06:09:30Z</time>
      </trkpt>
      <trkpt lat="47.48232" lon="-0.62459">
        <ele>50.8</ele>
        <time>2021-07-04T06:09:31Z</time>
      </trkpt>
      <trkpt lat="47.48234" lon="-0.62438">
        <ele>50.8</ele>
        <time>2021-07-04T06:09:33Z</time>
      </trkpt>
      <trkpt lat="47.48235" lon="-0.62419">
        <ele>51</ele>
        <time>2021-07-04T06:09:35Z</time>
      </trkpt>
      <trkpt lat="47.48234" lon="-0.6241">
        <ele>51.2</ele>
        <time>2021-07-04T06:09:36Z</time>
      </trkpt>
      <trkpt lat="47.4823" lon="-0.62402">
        <ele>51.4</ele>
        <time>2021-07-04T06:09:37Z</time>
      </trkpt>
      <trkpt lat="47.4822" lon="-0.62389">
        <ele>51.2</ele>
        <time>2021-07-04T06:09:39Z</time>
      </trkpt>
      <trkpt lat="47.48215" lon="-0.62383">
        <ele>51</ele>
        <time>2021-07-04T06:09:40Z</time>
      </trkpt>
      <trkpt lat="47.48209" lon="-0.62377">
        <ele>50.8</ele>
        <time>2021-07-04T06:09:41Z</time>
      </trkpt>
      <trkpt lat="47.48198" lon="-0.62364">
        <ele>50.2</ele>
        <time>2021-07-04T06:09:43Z</time>
      </trkpt>
      <trkpt lat="47.48187" lon="-0.6235">
        <ele>49.8</ele>
        <time>2021-07-04T06:09:45Z</time>
      </trkpt>
      <trkpt lat="47.48181" lon="-0.62344">
        <ele>49.8</ele>
        <time>2021-07-04T06:09:46Z</time>
      </trkpt>
      <trkpt lat="47.48175" lon="-0.62337">
        <ele>49.8</ele>
        <time>2021-07-04T06:09:47Z</time>
      </trkpt>
      <trkpt lat="47.48163" lon="-0.62324">
        <ele>49.4</ele>
        <time>2021-07-04T06:09:49Z</time>
      </trkpt>
      <trkpt lat="47.48157" lon="-0.62317">
        <ele>49</ele>
        <time>2021-07-04T06:09:50Z</time>
      </trkpt>
      <trkpt lat="47.48151" lon="-0.62311">
        <ele>49</ele>
        <time>2021-07-04T06:09:51Z</time>
      </trkpt>
      <trkpt lat="47.48138" lon="-0.62301">
        <ele>48.8</ele>
        <time>2021-07-04T06:09:53Z</time>
      </trkpt>
      <trkpt lat="47.48131" lon="-0.62297">
        <ele>48.6</ele>
        <time>2021-07-04T06:09:54Z</time>
      </trkpt>
      <trkpt lat="47.48123" lon="-0.62295">
        <ele>48.4</ele>
        <time>2021-07-04T06:09:55Z</time>
      </trkpt>
      <trkpt lat="47.48109" lon="-0.6229">
        <ele>48.4</ele>
        <time>2021-07-04T06:09:57Z</time>
      </trkpt>
      <trkpt lat="47.48096" lon="-0.62288">
        <ele>48.6</ele>
        <time>2021-07-04T06:09:59Z</time>
      </trkpt>
      <trkpt lat="47.48084" lon="-0.62284">
        <ele>48.6</ele>
        <time>2021-07-04T06:10:01Z</time>
      </trkpt>
      <trkpt lat="47.4808" lon="-0.62281">
        <ele>48.8</ele>
        <time>2021-07-04T06:10:02Z</time>
      </trkpt>
      <trkpt lat="47.48077" lon="-0.62278">
        <ele>49.2</ele>
        <time>2021-07-04T06:10:03Z</time>
      </trkpt>
      <trkpt lat="47.48074" lon="-0.62267">
        <ele>50</ele>
        <time>2021-07-04T06:10:05Z</time>
      </trkpt>
      <trkpt lat="47.4807" lon="-0.62262">
        <ele>50.2</ele>
        <time>2021-07-04T06:10:06Z</time>
      </trkpt>
      <trkpt lat="47.48067" lon="-0.62259">
        <ele>50.4</ele>
        <time>2021-07-04T06:10:07Z</time>
      </trkpt>
      <trkpt lat="47.48061" lon="-0.62258">
        <ele>50.4</ele>
        <time>2021-07-04T06:10:08Z</time>
      </trkpt>
      <trkpt lat="47.48055" lon="-0.62259">
        <ele>50.4</ele>
        <time>2021-07-04T06:10:09Z</time>
      </trkpt>
      <trkpt lat="47.48048" lon="-0.62259">
        <ele>50.4</ele>
        <time>2021-07-04T06:10:10Z</time>
      </trkpt>
      <trkpt lat="47.48042" lon="-0.62259">
        <ele>50.2</ele>
        <time>2021-07-04T06:10:11Z</time>
      </trkpt>
      <trkpt lat="47.48029" lon="-0.62258">
        <ele>50</ele>
        <time>2021-07-04T06:10:13Z</time>
      </trkpt>
      <trkpt lat="47.48023" lon="-0.6226">
        <ele>50</ele>
        <time>2021-07-04T06:10:14Z</time>
      </trkpt>
      <trkpt lat="47.48016" lon="-0.62264">
        <ele>50.2</ele>
        <time>2021-07-04T06:10:15Z</time>
      </trkpt>
      <trkpt lat="47.48012" lon="-0.6227">
        <ele>50.4</ele>
        <time>2021-07-04T06:10:16Z</time>
      </trkpt>
      <trkpt lat="47.4801" lon="-0.62275">
        <ele>50.6</ele>
        <time>2021-07-04T06:10:17Z</time>
      </trkpt>
      <trkpt lat="47.48004" lon="-0.62279">
        <ele>51</ele>
        <time>2021-07-04T06:10:19Z</time>
      </trkpt>
      <trkpt lat="47.48002" lon="-0.62276">
        <ele>51.2</ele>
        <time>2021-07-04T06:10:20Z</time>
      </trkpt>
      <trkpt lat="47.48" lon="-0.62272">
        <ele>51.4</ele>
        <time>2021-07-04T06:10:21Z</time>
      </trkpt>
      <trkpt lat="47.47998" lon="-0.62267">
        <ele>51.4</ele>
        <time>2021-07-04T06:10:22Z</time>
      </trkpt>
      <trkpt lat="47.47996" lon="-0.62261">
        <ele>51.2</ele>
        <time>2021-07-04T06:10:23Z</time>
      </trkpt>
      <trkpt lat="47.47991" lon="-0.62248">
        <ele>50.8</ele>
        <time>2021-07-04T06:10:25Z</time>
      </trkpt>
      <trkpt lat="47.47985" lon="-0.62238">
        <ele>50.6</ele>
        <time>2021-07-04T06:10:27Z</time>
      </trkpt>
      <trkpt lat="47.47981" lon="-0.62232">
        <ele>50.4</ele>
        <time>2021-07-04T06:10:28Z</time>
      </trkpt>
      <trkpt lat="47.47976" lon="-0.62228">
        <ele>50.2</ele>
        <time>2021-07-04T06:10:29Z</time>
      </trkpt>
      <trkpt lat="47.47966" lon="-0.62222">
        <ele>50.4</ele>
        <time>2021-07-04T06:10:31Z</time>
      </trkpt>
      <trkpt lat="47.47954" lon="-0.62217">
        <ele>50.6</ele>
        <time>2021-07-04T06:10:33Z</time>
      </trkpt>
      <trkpt lat="47.47949" lon="-0.62215">
        <ele>50.8</ele>
        <time>2021-07-04T06:10:34Z</time>
      </trkpt>
      <trkpt lat="47.47944" lon="-0.62214">
        <ele>51</ele>
        <time>2021-07-04T06:10:35Z</time>
      </trkpt>
      <trkpt lat="47.47938" lon="-0.62212">
        <ele>50.8</ele>
        <time>2021-07-04T06:10:36Z</time>
      </trkpt>
      <trkpt lat="47.47933" lon="-0.6221">
        <ele>50.8</ele>
        <time>2021-07-04T06:10:37Z</time>
      </trkpt>
      <trkpt lat="47.47922" lon="-0.62206">
        <ele>50.6</ele>
        <time>2021-07-04T06:10:39Z</time>
      </trkpt>
      <trkpt lat="47.4791" lon="-0.622">
        <ele>50.8</ele>
        <time>2021-07-04T06:10:41Z</time>
      </trkpt>
      <trkpt lat="47.47899" lon="-0.62194">
        <ele>50.8</ele>
        <time>2021-07-04T06:10:43Z</time>
      </trkpt>
      <trkpt lat="47.47894" lon="-0.62192">
        <ele>51</ele>
        <time>2021-07-04T06:10:44Z</time>
      </trkpt>
      <trkpt lat="47.47889" lon="-0.62189">
        <ele>51</ele>
        <time>2021-07-04T06:10:45Z</time>
      </trkpt>
      <trkpt lat="47.47877" lon="-0.62185">
        <ele>51.2</ele>
        <time>2021-07-04T06:10:47Z</time>
      </trkpt>
      <trkpt lat="47.47867" lon="-0.62181">
        <ele>51.4</ele>
        <time>2021-07-04T06:10:49Z</time>
      </trkpt>
      <trkpt lat="47.47855" lon="-0.62176">
        <ele>51.8</ele>
        <time>2021-07-04T06:10:51Z</time>
      </trkpt>
      <trkpt lat="47.47845" lon="-0.6217">
        <ele>52.2</ele>
        <time>2021-07-04T06:10:53Z</time>
      </trkpt>
      <trkpt lat="47.47835" lon="-0.62166">
        <ele>52</ele>
        <time>2021-07-04T06:10:55Z</time>
      </trkpt>
      <trkpt lat="47.47829" lon="-0.62163">
        <ele>52.2</ele>
        <time>2021-07-04T06:10:56Z</time>
      </trkpt>
      <trkpt lat="47.47825" lon="-0.6216">
        <ele>52.2</ele>
        <time>2021-07-04T06:10:57Z</time>
      </trkpt>
      <trkpt lat="47.47815" lon="-0.62154">
        <ele>52.2</ele>
        <time>2021-07-04T06:10:59Z</time>
      </trkpt>
      <trkpt lat="47.4781" lon="-0.62151">
        <ele>52.2</ele>
        <time>2021-07-04T06:11:00Z</time>
      </trkpt>
      <trkpt lat="47.47804" lon="-0.62148">
        <ele>52.6</ele>
        <time>2021-07-04T06:11:01Z</time>
      </trkpt>
      <trkpt lat="47.47795" lon="-0.62142">
        <ele>52.8</ele>
        <time>2021-07-04T06:11:03Z</time>
      </trkpt>
      <trkpt lat="47.47786" lon="-0.62134">
        <ele>53</ele>
        <time>2021-07-04T06:11:05Z</time>
      </trkpt>
      <trkpt lat="47.47777" lon="-0.62126">
        <ele>53</ele>
        <time>2021-07-04T06:11:07Z</time>
      </trkpt>
      <trkpt lat="47.47768" lon="-0.62119">
        <ele>53.2</ele>
        <time>2021-07-04T06:11:09Z</time>
      </trkpt>
      <trkpt lat="47.47764" lon="-0.62115">
        <ele>53.4</ele>
        <time>2021-07-04T06:11:10Z</time>
      </trkpt>
      <trkpt lat="47.47759" lon="-0.62112">
        <ele>53.4</ele>
        <time>2021-07-04T06:11:11Z</time>
      </trkpt>
      <trkpt lat="47.47754" lon="-0.62109">
        <ele>53.4</ele>
        <time>2021-07-04T06:11:12Z</time>
      </trkpt>
      <trkpt lat="47.47749" lon="-0.62105">
        <ele>53.4</ele>
        <time>2021-07-04T06:11:13Z</time>
      </trkpt>
      <trkpt lat="47.4774" lon="-0.62099">
        <ele>53.2</ele>
        <time>2021-07-04T06:11:15Z</time>
      </trkpt>
      <trkpt lat="47.4773" lon="-0.62091">
        <ele>53</ele>
        <time>2021-07-04T06:11:17Z</time>
      </trkpt>
      <trkpt lat="47.47725" lon="-0.62088">
        <ele>53.2</ele>
        <time>2021-07-04T06:11:18Z</time>
      </trkpt>
      <trkpt lat="47.4772" lon="-0.62084">
        <ele>53.4</ele>
        <time>2021-07-04T06:11:19Z</time>
      </trkpt>
      <trkpt lat="47.47711" lon="-0.62076">
        <ele>53.8</ele>
        <time>2021-07-04T06:11:21Z</time>
      </trkpt>
      <trkpt lat="47.47701" lon="-0.62068">
        <ele>54</ele>
        <time>2021-07-04T06:11:23Z</time>
      </trkpt>
      <trkpt lat="47.47691" lon="-0.6206">
        <ele>54.2</ele>
        <time>2021-07-04T06:11:25Z</time>
      </trkpt>
      <trkpt lat="47.47683" lon="-0.62051">
        <ele>54.2</ele>
        <time>2021-07-04T06:11:27Z</time>
      </trkpt>
      <trkpt lat="47.47674" lon="-0.62042">
        <ele>54.6</ele>
        <time>2021-07-04T06:11:29Z</time>
      </trkpt>
      <trkpt lat="47.47666" lon="-0.62032">
        <ele>54.8</ele>
        <time>2021-07-04T06:11:31Z</time>
      </trkpt>
      <trkpt lat="47.47657" lon="-0.62022">
        <ele>54.8</ele>
        <time>2021-07-04T06:11:33Z</time>
      </trkpt>
      <trkpt lat="47.47653" lon="-0.62017">
        <ele>54.8</ele>
        <time>2021-07-04T06:11:34Z</time>
      </trkpt>
      <trkpt lat="47.47648" lon="-0.62011">
        <ele>55</ele>
        <time>2021-07-04T06:11:35Z</time>
      </trkpt>
      <trkpt lat="47.4764" lon="-0.62001">
        <ele>55</ele>
        <time>2021-07-04T06:11:37Z</time>
      </trkpt>
      <trkpt lat="47.47631" lon="-0.61991">
        <ele>55</ele>
        <time>2021-07-04T06:11:39Z</time>
      </trkpt>
      <trkpt lat="47.47623" lon="-0.6198">
        <ele>55</ele>
        <time>2021-07-04T06:11:41Z</time>
      </trkpt>
      <trkpt lat="47.47615" lon="-0.61969">
        <ele>55.2</ele>
        <time>2021-07-04T06:11:43Z</time>
      </trkpt>
      <trkpt lat="47.47607" lon="-0.61958">
        <ele>55.4</ele>
        <time>2021-07-04T06:11:45Z</time>
      </trkpt>
      <trkpt lat="47.47599" lon="-0.61947">
        <ele>55.4</ele>
        <time>2021-07-04T06:11:47Z</time>
      </trkpt>
      <trkpt lat="47.4759" lon="-0.61936">
        <ele>55.2</ele>
        <time>2021-07-04T06:11:49Z</time>
      </trkpt>
      <trkpt lat="47.47582" lon="-0.61924">
        <ele>55.2</ele>
        <time>2021-07-04T06:11:51Z</time>
      </trkpt>
      <trkpt lat="47.47574" lon="-0.61914">
        <ele>55.2</ele>
        <time>2021-07-04T06:11:53Z</time>
      </trkpt>
      <trkpt lat="47.47565" lon="-0.61904">
        <ele>55.6</ele>
        <time>2021-07-04T06:11:55Z</time>
      </trkpt>
      <trkpt lat="47.47556" lon="-0.61894">
        <ele>55.8</ele>
        <time>2021-07-04T06:11:57Z</time>
      </trkpt>
      <trkpt lat="47.47552" lon="-0.6189">
        <ele>55.8</ele>
        <time>2021-07-04T06:11:58Z</time>
      </trkpt>
      <trkpt lat="47.47548" lon="-0.61886">
        <ele>56</ele>
        <time>2021-07-04T06:11:59Z</time>
      </trkpt>
      <trkpt lat="47.47539" lon="-0.61877">
        <ele>56.8</ele>
        <time>2021-07-04T06:12:01Z</time>
      </trkpt>
      <trkpt lat="47.47531" lon="-0.61869">
        <ele>57.4</ele>
        <time>2021-07-04T06:12:03Z</time>
      </trkpt>
      <trkpt lat="47.47523" lon="-0.61862">
        <ele>57.2</ele>
        <time>2021-07-04T06:12:05Z</time>
      </trkpt>
      <trkpt lat="47.47514" lon="-0.61854">
        <ele>57.2</ele>
        <time>2021-07-04T06:12:07Z</time>
      </trkpt>
      <trkpt lat="47.47504" lon="-0.61847">
        <ele>57.4</ele>
        <time>2021-07-04T06:12:09Z</time>
      </trkpt>
      <trkpt lat="47.47495" lon="-0.61839">
        <ele>57.4</ele>
        <time>2021-07-04T06:12:11Z</time>
      </trkpt>
      <trkpt lat="47.47486" lon="-0.61831">
        <ele>57.8</ele>
        <time>2021-07-04T06:12:13Z</time>
      </trkpt>
      <trkpt lat="47.47482" lon="-0.61827">
        <ele>57.8</ele>
        <time>2021-07-04T06:12:14Z</time>
      </trkpt>
      <trkpt lat="47.47477" lon="-0.61823">
        <ele>58</ele>
        <time>2021-07-04T06:12:15Z</time>
      </trkpt>
      <trkpt lat="47.47467" lon="-0.61815">
        <ele>57.8</ele>
        <time>2021-07-04T06:12:17Z</time>
      </trkpt>
      <trkpt lat="47.47458" lon="-0.61808">
        <ele>57.8</ele>
        <time>2021-07-04T06:12:19Z</time>
      </trkpt>
      <trkpt lat="47.47448" lon="-0.61802">
        <ele>58.4</ele>
        <time>2021-07-04T06:12:21Z</time>
      </trkpt>
      <trkpt lat="47.4744" lon="-0.61796">
        <ele>58.8</ele>
        <time>2021-07-04T06:12:23Z</time>
      </trkpt>
      <trkpt lat="47.47432" lon="-0.6179">
        <ele>59.6</ele>
        <time>2021-07-04T06:12:25Z</time>
      </trkpt>
      <trkpt lat="47.47428" lon="-0.61786">
        <ele>59.8</ele>
        <time>2021-07-04T06:12:26Z</time>
      </trkpt>
      <trkpt lat="47.47424" lon="-0.61781">
        <ele>59.6</ele>
        <time>2021-07-04T06:12:27Z</time>
      </trkpt>
      <trkpt lat="47.47419" lon="-0.61766">
        <ele>59.2</ele>
        <time>2021-07-04T06:12:29Z</time>
      </trkpt>
      <trkpt lat="47.47418" lon="-0.61759">
        <ele>59.4</ele>
        <time>2021-07-04T06:12:30Z</time>
      </trkpt>
      <trkpt lat="47.47417" lon="-0.61752">
        <ele>59.4</ele>
        <time>2021-07-04T06:12:31Z</time>
      </trkpt>
      <trkpt lat="47.47416" lon="-0.61745">
        <ele>59.4</ele>
        <time>2021-07-04T06:12:32Z</time>
      </trkpt>
      <trkpt lat="47.47416" lon="-0.61738">
        <ele>59.4</ele>
        <time>2021-07-04T06:12:33Z</time>
      </trkpt>
      <trkpt lat="47.47415" lon="-0.61724">
        <ele>59</ele>
        <time>2021-07-04T06:12:35Z</time>
      </trkpt>
      <trkpt lat="47.47414" lon="-0.61717">
        <ele>58.8</ele>
        <time>2021-07-04T06:12:36Z</time>
      </trkpt>
      <trkpt lat="47.47414" lon="-0.6171">
        <ele>58.6</ele>
        <time>2021-07-04T06:12:37Z</time>
      </trkpt>
      <trkpt lat="47.47412" lon="-0.61695">
        <ele>58.6</ele>
        <time>2021-07-04T06:12:39Z</time>
      </trkpt>
      <trkpt lat="47.47412" lon="-0.61688">
        <ele>58.8</ele>
        <time>2021-07-04T06:12:40Z</time>
      </trkpt>
      <trkpt lat="47.47411" lon="-0.61682">
        <ele>59</ele>
        <time>2021-07-04T06:12:41Z</time>
      </trkpt>
      <trkpt lat="47.47408" lon="-0.61678">
        <ele>59.2</ele>
        <time>2021-07-04T06:12:42Z</time>
      </trkpt>
      <trkpt lat="47.47404" lon="-0.61676">
        <ele>59.6</ele>
        <time>2021-07-04T06:12:43Z</time>
      </trkpt>
      <trkpt lat="47.47398" lon="-0.6167">
        <ele>59.8</ele>
        <time>2021-07-04T06:12:45Z</time>
      </trkpt>
      <trkpt lat="47.47397" lon="-0.61656">
        <ele>59.8</ele>
        <time>2021-07-04T06:12:47Z</time>
      </trkpt>
      <trkpt lat="47.47395" lon="-0.6165">
        <ele>60</ele>
        <time>2021-07-04T06:12:48Z</time>
      </trkpt>
      <trkpt lat="47.47391" lon="-0.61647">
        <ele>60</ele>
        <time>2021-07-04T06:12:49Z</time>
      </trkpt>
      <trkpt lat="47.47386" lon="-0.61646">
        <ele>59.8</ele>
        <time>2021-07-04T06:12:50Z</time>
      </trkpt>
      <trkpt lat="47.47381" lon="-0.61646">
        <ele>59.8</ele>
        <time>2021-07-04T06:12:51Z</time>
      </trkpt>
      <trkpt lat="47.47376" lon="-0.61646">
        <ele>59.8</ele>
        <time>2021-07-04T06:12:52Z</time>
      </trkpt>
      <trkpt lat="47.4737" lon="-0.61644">
        <ele>59.8</ele>
        <time>2021-07-04T06:12:53Z</time>
      </trkpt>
      <trkpt lat="47.47365" lon="-0.61642">
        <ele>59.4</ele>
        <time>2021-07-04T06:12:54Z</time>
      </trkpt>
      <trkpt lat="47.4736" lon="-0.61639">
        <ele>59.2</ele>
        <time>2021-07-04T06:12:55Z</time>
      </trkpt>
      <trkpt lat="47.47351" lon="-0.61632">
        <ele>59.2</ele>
        <time>2021-07-04T06:12:57Z</time>
      </trkpt>
      <trkpt lat="47.47346" lon="-0.61628">
        <ele>59.4</ele>
        <time>2021-07-04T06:12:58Z</time>
      </trkpt>
      <trkpt lat="47.47341" lon="-0.61622">
        <ele>59.2</ele>
        <time>2021-07-04T06:12:59Z</time>
      </trkpt>
      <trkpt lat="47.4733" lon="-0.61612">
        <ele>59</ele>
        <time>2021-07-04T06:13:01Z</time>
      </trkpt>
      <trkpt lat="47.4732" lon="-0.616">
        <ele>59</ele>
        <time>2021-07-04T06:13:03Z</time>
      </trkpt>
      <trkpt lat="47.4731" lon="-0.6159">
        <ele>59.2</ele>
        <time>2021-07-04T06:13:05Z</time>
      </trkpt>
      <trkpt lat="47.473" lon="-0.61579">
        <ele>59.2</ele>
        <time>2021-07-04T06:13:07Z</time>
      </trkpt>
      <trkpt lat="47.4729" lon="-0.61568">
        <ele>59.2</ele>
        <time>2021-07-04T06:13:09Z</time>
      </trkpt>
      <trkpt lat="47.4728" lon="-0.61557">
        <ele>59</ele>
        <time>2021-07-04T06:13:11Z</time>
      </trkpt>
      <trkpt lat="47.47271" lon="-0.61547">
        <ele>59</ele>
        <time>2021-07-04T06:13:13Z</time>
      </trkpt>
      <trkpt lat="47.47261" lon="-0.61536">
        <ele>59</ele>
        <time>2021-07-04T06:13:15Z</time>
      </trkpt>
      <trkpt lat="47.47251" lon="-0.61525">
        <ele>58.8</ele>
        <time>2021-07-04T06:13:17Z</time>
      </trkpt>
      <trkpt lat="47.47242" lon="-0.61514">
        <ele>58.8</ele>
        <time>2021-07-04T06:13:19Z</time>
      </trkpt>
      <trkpt lat="47.47232" lon="-0.61504">
        <ele>59</ele>
        <time>2021-07-04T06:13:21Z</time>
      </trkpt>
      <trkpt lat="47.47222" lon="-0.61493">
        <ele>59.2</ele>
        <time>2021-07-04T06:13:23Z</time>
      </trkpt>
      <trkpt lat="47.47212" lon="-0.61482">
        <ele>59</ele>
        <time>2021-07-04T06:13:25Z</time>
      </trkpt>
      <trkpt lat="47.47207" lon="-0.61477">
        <ele>59.2</ele>
        <time>2021-07-04T06:13:26Z</time>
      </trkpt>
      <trkpt lat="47.47202" lon="-0.61471">
        <ele>59</ele>
        <time>2021-07-04T06:13:27Z</time>
      </trkpt>
      <trkpt lat="47.47192" lon="-0.61461">
        <ele>59</ele>
        <time>2021-07-04T06:13:29Z</time>
      </trkpt>
      <trkpt lat="47.47183" lon="-0.61451">
        <ele>59</ele>
        <time>2021-07-04T06:13:31Z</time>
      </trkpt>
      <trkpt lat="47.47173" lon="-0.6144">
        <ele>58.6</ele>
        <time>2021-07-04T06:13:33Z</time>
      </trkpt>
      <trkpt lat="47.47163" lon="-0.6143">
        <ele>58.8</ele>
        <time>2021-07-04T06:13:35Z</time>
      </trkpt>
      <trkpt lat="47.47157" lon="-0.61424">
        <ele>58.6</ele>
        <time>2021-07-04T06:13:36Z</time>
      </trkpt>
      <trkpt lat="47.47152" lon="-0.6142">
        <ele>58.8</ele>
        <time>2021-07-04T06:13:37Z</time>
      </trkpt>
      <trkpt lat="47.47141" lon="-0.61413">
        <ele>58.8</ele>
        <time>2021-07-04T06:13:39Z</time>
      </trkpt>
      <trkpt lat="47.47129" lon="-0.61408">
        <ele>58.2</ele>
        <time>2021-07-04T06:13:41Z</time>
      </trkpt>
      <trkpt lat="47.47117" lon="-0.61404">
        <ele>58</ele>
        <time>2021-07-04T06:13:43Z</time>
      </trkpt>
      <trkpt lat="47.47105" lon="-0.614">
        <ele>57.6</ele>
        <time>2021-07-04T06:13:45Z</time>
      </trkpt>
      <trkpt lat="47.47099" lon="-0.614">
        <ele>57.4</ele>
        <time>2021-07-04T06:13:46Z</time>
      </trkpt>
      <trkpt lat="47.47093" lon="-0.61401">
        <ele>57.4</ele>
        <time>2021-07-04T06:13:47Z</time>
      </trkpt>
      <trkpt lat="47.47081" lon="-0.61403">
        <ele>57.2</ele>
        <time>2021-07-04T06:13:49Z</time>
      </trkpt>
      <trkpt lat="47.47069" lon="-0.61407">
        <ele>57.6</ele>
        <time>2021-07-04T06:13:51Z</time>
      </trkpt>
      <trkpt lat="47.47063" lon="-0.6141">
        <ele>57.4</ele>
        <time>2021-07-04T06:13:52Z</time>
      </trkpt>
      <trkpt lat="47.47056" lon="-0.61412">
        <ele>57.4</ele>
        <time>2021-07-04T06:13:53Z</time>
      </trkpt>
      <trkpt lat="47.47042" lon="-0.61416">
        <ele>57.6</ele>
        <time>2021-07-04T06:13:55Z</time>
      </trkpt>
      <trkpt lat="47.47031" lon="-0.61419">
        <ele>58</ele>
        <time>2021-07-04T06:13:57Z</time>
      </trkpt>
      <trkpt lat="47.47019" lon="-0.61422">
        <ele>58.6</ele>
        <time>2021-07-04T06:13:59Z</time>
      </trkpt>
      <trkpt lat="47.47013" lon="-0.61423">
        <ele>58.8</ele>
        <time>2021-07-04T06:14:00Z</time>
      </trkpt>
      <trkpt lat="47.47007" lon="-0.61425">
        <ele>59.2</ele>
        <time>2021-07-04T06:14:01Z</time>
      </trkpt>
      <trkpt lat="47.47003" lon="-0.61428">
        <ele>59.4</ele>
        <time>2021-07-04T06:14:02Z</time>
      </trkpt>
      <trkpt lat="47.46999" lon="-0.61431">
        <ele>60</ele>
        <time>2021-07-04T06:14:03Z</time>
      </trkpt>
      <trkpt lat="47.46991" lon="-0.61435">
        <ele>61</ele>
        <time>2021-07-04T06:14:05Z</time>
      </trkpt>
      <trkpt lat="47.46983" lon="-0.61436">
        <ele>61.6</ele>
        <time>2021-07-04T06:14:07Z</time>
      </trkpt>
      <trkpt lat="47.46978" lon="-0.61436">
        <ele>61.8</ele>
        <time>2021-07-04T06:14:08Z</time>
      </trkpt>
      <trkpt lat="47.46974" lon="-0.61436">
        <ele>62</ele>
        <time>2021-07-04T06:14:09Z</time>
      </trkpt>
      <trkpt lat="47.46971" lon="-0.61436">
        <ele>62.4</ele>
        <time>2021-07-04T06:14:10Z</time>
      </trkpt>
      <trkpt lat="47.46968" lon="-0.61438">
        <ele>62.6</ele>
        <time>2021-07-04T06:14:11Z</time>
      </trkpt>
      <trkpt lat="47.46967" lon="-0.61442">
        <ele>62.8</ele>
        <time>2021-07-04T06:14:12Z</time>
      </trkpt>
      <trkpt lat="47.46964" lon="-0.61444">
        <ele>62.8</ele>
        <time>2021-07-04T06:14:13Z</time>
      </trkpt>
      <trkpt lat="47.4696" lon="-0.61452">
        <ele>62.8</ele>
        <time>2021-07-04T06:14:15Z</time>
      </trkpt>
      <trkpt lat="47.46961" lon="-0.61459">
        <ele>62.8</ele>
        <time>2021-07-04T06:14:16Z</time>
      </trkpt>
      <trkpt lat="47.4696" lon="-0.61466">
        <ele>62.8</ele>
        <time>2021-07-04T06:14:17Z</time>
      </trkpt>
      <trkpt lat="47.46958" lon="-0.61479">
        <ele>63</ele>
        <time>2021-07-04T06:14:19Z</time>
      </trkpt>
      <trkpt lat="47.46955" lon="-0.61493">
        <ele>63</ele>
        <time>2021-07-04T06:14:21Z</time>
      </trkpt>
      <trkpt lat="47.4695" lon="-0.61507">
        <ele>63</ele>
        <time>2021-07-04T06:14:23Z</time>
      </trkpt>
      <trkpt lat="47.46945" lon="-0.6152">
        <ele>63</ele>
        <time>2021-07-04T06:14:25Z</time>
      </trkpt>
      <trkpt lat="47.46939" lon="-0.61534">
        <ele>63.2</ele>
        <time>2021-07-04T06:14:27Z</time>
      </trkpt>
      <trkpt lat="47.46934" lon="-0.61547">
        <ele>63.4</ele>
        <time>2021-07-04T06:14:29Z</time>
      </trkpt>
      <trkpt lat="47.46929" lon="-0.61561">
        <ele>63.8</ele>
        <time>2021-07-04T06:14:31Z</time>
      </trkpt>
      <trkpt lat="47.46924" lon="-0.61574">
        <ele>64.4</ele>
        <time>2021-07-04T06:14:33Z</time>
      </trkpt>
      <trkpt lat="47.46918" lon="-0.61586">
        <ele>64.6</ele>
        <time>2021-07-04T06:14:35Z</time>
      </trkpt>
      <trkpt lat="47.46914" lon="-0.61598">
        <ele>64.8</ele>
        <time>2021-07-04T06:14:37Z</time>
      </trkpt>
      <trkpt lat="47.46909" lon="-0.61609">
        <ele>65.2</ele>
        <time>2021-07-04T06:14:39Z</time>
      </trkpt>
      <trkpt lat="47.46904" lon="-0.61621">
        <ele>65.6</ele>
        <time>2021-07-04T06:14:41Z</time>
      </trkpt>
      <trkpt lat="47.46901" lon="-0.61627">
        <ele>65.8</ele>
        <time>2021-07-04T06:14:42Z</time>
      </trkpt>
      <trkpt lat="47.46899" lon="-0.61633">
        <ele>66</ele>
        <time>2021-07-04T06:14:43Z</time>
      </trkpt>
      <trkpt lat="47.46894" lon="-0.61645">
        <ele>65.8</ele>
        <time>2021-07-04T06:14:45Z</time>
      </trkpt>
      <trkpt lat="47.46889" lon="-0.61658">
        <ele>66.4</ele>
        <time>2021-07-04T06:14:47Z</time>
      </trkpt>
      <trkpt lat="47.46883" lon="-0.6167">
        <ele>67</ele>
        <time>2021-07-04T06:14:49Z</time>
      </trkpt>
      <trkpt lat="47.46878" lon="-0.61682">
        <ele>67</ele>
        <time>2021-07-04T06:14:51Z</time>
      </trkpt>
      <trkpt lat="47.46876" lon="-0.61686">
        <ele>67</ele>
        <time>2021-07-04T06:14:52Z</time>
      </trkpt>
      <trkpt lat="47.46874" lon="-0.61691">
        <ele>67.4</ele>
        <time>2021-07-04T06:14:53Z</time>
      </trkpt>
      <trkpt lat="47.46869" lon="-0.61702">
        <ele>67.8</ele>
        <time>2021-07-04T06:14:55Z</time>
      </trkpt>
      <trkpt lat="47.46864" lon="-0.61713">
        <ele>68</ele>
        <time>2021-07-04T06:14:57Z</time>
      </trkpt>
      <trkpt lat="47.4686" lon="-0.61725">
        <ele>68.2</ele>
        <time>2021-07-04T06:14:59Z</time>
      </trkpt>
      <trkpt lat="47.46857" lon="-0.6173">
        <ele>68.4</ele>
        <time>2021-07-04T06:15:00Z</time>
      </trkpt>
      <trkpt lat="47.46855" lon="-0.61737">
        <ele>68.6</ele>
        <time>2021-07-04T06:15:01Z</time>
      </trkpt>
      <trkpt lat="47.4685" lon="-0.61749">
        <ele>69.2</ele>
        <time>2021-07-04T06:15:03Z</time>
      </trkpt>
      <trkpt lat="47.46845" lon="-0.61761">
        <ele>69.4</ele>
        <time>2021-07-04T06:15:05Z</time>
      </trkpt>
      <trkpt lat="47.46842" lon="-0.61766">
        <ele>69.4</ele>
        <time>2021-07-04T06:15:06Z</time>
      </trkpt>
      <trkpt lat="47.46839" lon="-0.61771">
        <ele>69.6</ele>
        <time>2021-07-04T06:15:07Z</time>
      </trkpt>
      <trkpt lat="47.46836" lon="-0.61777">
        <ele>69.6</ele>
        <time>2021-07-04T06:15:08Z</time>
      </trkpt>
      <trkpt lat="47.46833" lon="-0.61782">
        <ele>69.8</ele>
        <time>2021-07-04T06:15:09Z</time>
      </trkpt>
      <trkpt lat="47.46826" lon="-0.61791">
        <ele>70</ele>
        <time>2021-07-04T06:15:11Z</time>
      </trkpt>
      <trkpt lat="47.46818" lon="-0.61798">
        <ele>69.8</ele>
        <time>2021-07-04T06:15:13Z</time>
      </trkpt>
      <trkpt lat="47.46814" lon="-0.61801">
        <ele>69.8</ele>
        <time>2021-07-04T06:15:14Z</time>
      </trkpt>
      <trkpt lat="47.4681" lon="-0.61805">
        <ele>69.8</ele>
        <time>2021-07-04T06:15:15Z</time>
      </trkpt>
      <trkpt lat="47.46806" lon="-0.61808">
        <ele>70</ele>
        <time>2021-07-04T06:15:16Z</time>
      </trkpt>
      <trkpt lat="47.46801" lon="-0.61809">
        <ele>70.4</ele>
        <time>2021-07-04T06:15:17Z</time>
      </trkpt>
      <trkpt lat="47.46792" lon="-0.61812">
        <ele>70.8</ele>
        <time>2021-07-04T06:15:19Z</time>
      </trkpt>
      <trkpt lat="47.46787" lon="-0.61812">
        <ele>70.8</ele>
        <time>2021-07-04T06:15:20Z</time>
      </trkpt>
      <trkpt lat="47.46783" lon="-0.61812">
        <ele>70.8</ele>
        <time>2021-07-04T06:15:21Z</time>
      </trkpt>
      <trkpt lat="47.46778" lon="-0.61813">
        <ele>71</ele>
        <time>2021-07-04T06:15:22Z</time>
      </trkpt>
      <trkpt lat="47.46774" lon="-0.61817">
        <ele>71</ele>
        <time>2021-07-04T06:15:23Z</time>
      </trkpt>
      <trkpt lat="47.46771" lon="-0.61823">
        <ele>71.6</ele>
        <time>2021-07-04T06:15:24Z</time>
      </trkpt>
      <trkpt lat="47.46766" lon="-0.61826">
        <ele>71.8</ele>
        <time>2021-07-04T06:15:25Z</time>
      </trkpt>
      <trkpt lat="47.46757" lon="-0.61823">
        <ele>72</ele>
        <time>2021-07-04T06:15:27Z</time>
      </trkpt>
      <trkpt lat="47.46748" lon="-0.61819">
        <ele>72</ele>
        <time>2021-07-04T06:15:29Z</time>
      </trkpt>
      <trkpt lat="47.46744" lon="-0.61816">
        <ele>72.2</ele>
        <time>2021-07-04T06:15:30Z</time>
      </trkpt>
      <trkpt lat="47.46739" lon="-0.61814">
        <ele>72.2</ele>
        <time>2021-07-04T06:15:31Z</time>
      </trkpt>
      <trkpt lat="47.46734" lon="-0.61815">
        <ele>72.4</ele>
        <time>2021-07-04T06:15:32Z</time>
      </trkpt>
      <trkpt lat="47.4673" lon="-0.61819">
        <ele>72.8</ele>
        <time>2021-07-04T06:15:33Z</time>
      </trkpt>
      <trkpt lat="47.46725" lon="-0.6183">
        <ele>73.6</ele>
        <time>2021-07-04T06:15:35Z</time>
      </trkpt>
      <trkpt lat="47.46722" lon="-0.61835">
        <ele>74</ele>
        <time>2021-07-04T06:15:36Z</time>
      </trkpt>
      <trkpt lat="47.46719" lon="-0.6184">
        <ele>74.2</ele>
        <time>2021-07-04T06:15:37Z</time>
      </trkpt>
      <trkpt lat="47.46714" lon="-0.6185">
        <ele>74.4</ele>
        <time>2021-07-04T06:15:39Z</time>
      </trkpt>
      <trkpt lat="47.46708" lon="-0.61861">
        <ele>74.6</ele>
        <time>2021-07-04T06:15:41Z</time>
      </trkpt>
      <trkpt lat="47.46705" lon="-0.61867">
        <ele>74.8</ele>
        <time>2021-07-04T06:15:42Z</time>
      </trkpt>
      <trkpt lat="47.46702" lon="-0.61872">
        <ele>75</ele>
        <time>2021-07-04T06:15:43Z</time>
      </trkpt>
      <trkpt lat="47.46696" lon="-0.61883">
        <ele>75.6</ele>
        <time>2021-07-04T06:15:45Z</time>
      </trkpt>
      <trkpt lat="47.4669" lon="-0.61894">
        <ele>76.2</ele>
        <time>2021-07-04T06:15:47Z</time>
      </trkpt>
      <trkpt lat="47.46685" lon="-0.61904">
        <ele>77</ele>
        <time>2021-07-04T06:15:49Z</time>
      </trkpt>
      <trkpt lat="47.4668" lon="-0.61915">
        <ele>77.2</ele>
        <time>2021-07-04T06:15:51Z</time>
      </trkpt>
      <trkpt lat="47.46678" lon="-0.6192">
        <ele>77.2</ele>
        <time>2021-07-04T06:15:52Z</time>
      </trkpt>
      <trkpt lat="47.46676" lon="-0.61925">
        <ele>74.4</ele>
        <time>2021-07-04T06:15:53Z</time>
      </trkpt>
      <trkpt lat="47.46673" lon="-0.6193">
        <ele>76</ele>
        <time>2021-07-04T06:15:54Z</time>
      </trkpt>
      <trkpt lat="47.46671" lon="-0.61935">
        <ele>76.6</ele>
        <time>2021-07-04T06:15:55Z</time>
      </trkpt>
      <trkpt lat="47.46669" lon="-0.61941">
        <ele>79.6</ele>
        <time>2021-07-04T06:15:56Z</time>
      </trkpt>
      <trkpt lat="47.46667" lon="-0.61946">
        <ele>78.6</ele>
        <time>2021-07-04T06:15:57Z</time>
      </trkpt>
      <trkpt lat="47.46667" lon="-0.61952">
        <ele>78.4</ele>
        <time>2021-07-04T06:15:58Z</time>
      </trkpt>
      <trkpt lat="47.46667" lon="-0.61959">
        <ele>78.4</ele>
        <time>2021-07-04T06:15:59Z</time>
      </trkpt>
      <trkpt lat="47.46664" lon="-0.61972">
        <ele>78.6</ele>
        <time>2021-07-04T06:16:01Z</time>
      </trkpt>
      <trkpt lat="47.46657" lon="-0.61983">
        <ele>78.4</ele>
        <time>2021-07-04T06:16:03Z</time>
      </trkpt>
      <trkpt lat="47.46649" lon="-0.61992">
        <ele>77.4</ele>
        <time>2021-07-04T06:16:05Z</time>
      </trkpt>
      <trkpt lat="47.46645" lon="-0.61997">
        <ele>76.8</ele>
        <time>2021-07-04T06:16:06Z</time>
      </trkpt>
      <trkpt lat="47.46641" lon="-0.62002">
        <ele>76.6</ele>
        <time>2021-07-04T06:16:07Z</time>
      </trkpt>
      <trkpt lat="47.46638" lon="-0.62008">
        <ele>76.6</ele>
        <time>2021-07-04T06:16:08Z</time>
      </trkpt>
      <trkpt lat="47.46635" lon="-0.62015">
        <ele>76.2</ele>
        <time>2021-07-04T06:16:09Z</time>
      </trkpt>
      <trkpt lat="47.46628" lon="-0.62029">
        <ele>75.6</ele>
        <time>2021-07-04T06:16:11Z</time>
      </trkpt>
      <trkpt lat="47.4662" lon="-0.62044">
        <ele>75.8</ele>
        <time>2021-07-04T06:16:13Z</time>
      </trkpt>
      <trkpt lat="47.46613" lon="-0.62059">
        <ele>75.8</ele>
        <time>2021-07-04T06:16:15Z</time>
      </trkpt>
      <trkpt lat="47.46605" lon="-0.62074">
        <ele>75.6</ele>
        <time>2021-07-04T06:16:17Z</time>
      </trkpt>
      <trkpt lat="47.46598" lon="-0.62088">
        <ele>75</ele>
        <time>2021-07-04T06:16:19Z</time>
      </trkpt>
      <trkpt lat="47.46594" lon="-0.62095">
        <ele>74.4</ele>
        <time>2021-07-04T06:16:20Z</time>
      </trkpt>
      <trkpt lat="47.46591" lon="-0.62103">
        <ele>74</ele>
        <time>2021-07-04T06:16:21Z</time>
      </trkpt>
      <trkpt lat="47.46587" lon="-0.6211">
        <ele>74</ele>
        <time>2021-07-04T06:16:22Z</time>
      </trkpt>
      <trkpt lat="47.46584" lon="-0.62117">
        <ele>74</ele>
        <time>2021-07-04T06:16:23Z</time>
      </trkpt>
      <trkpt lat="47.46577" lon="-0.62132">
        <ele>74</ele>
        <time>2021-07-04T06:16:25Z</time>
      </trkpt>
      <trkpt lat="47.46569" lon="-0.62147">
        <ele>73.8</ele>
        <time>2021-07-04T06:16:27Z</time>
      </trkpt>
      <trkpt lat="47.46562" lon="-0.62162">
        <ele>73.2</ele>
        <time>2021-07-04T06:16:29Z</time>
      </trkpt>
      <trkpt lat="47.46558" lon="-0.62171">
        <ele>72.8</ele>
        <time>2021-07-04T06:16:30Z</time>
      </trkpt>
      <trkpt lat="47.46554" lon="-0.62179">
        <ele>72.6</ele>
        <time>2021-07-04T06:16:31Z</time>
      </trkpt>
      <trkpt lat="47.46547" lon="-0.62196">
        <ele>72.2</ele>
        <time>2021-07-04T06:16:33Z</time>
      </trkpt>
      <trkpt lat="47.46539" lon="-0.62213">
        <ele>72.2</ele>
        <time>2021-07-04T06:16:35Z</time>
      </trkpt>
      <trkpt lat="47.46535" lon="-0.62221">
        <ele>72.4</ele>
        <time>2021-07-04T06:16:36Z</time>
      </trkpt>
      <trkpt lat="47.46532" lon="-0.6223">
        <ele>72.2</ele>
        <time>2021-07-04T06:16:37Z</time>
      </trkpt>
      <trkpt lat="47.46524" lon="-0.62247">
        <ele>71.8</ele>
        <time>2021-07-04T06:16:39Z</time>
      </trkpt>
      <trkpt lat="47.46517" lon="-0.62264">
        <ele>71.6</ele>
        <time>2021-07-04T06:16:41Z</time>
      </trkpt>
      <trkpt lat="47.4651" lon="-0.62281">
        <ele>71.4</ele>
        <time>2021-07-04T06:16:43Z</time>
      </trkpt>
      <trkpt lat="47.46503" lon="-0.62299">
        <ele>71.4</ele>
        <time>2021-07-04T06:16:45Z</time>
      </trkpt>
      <trkpt lat="47.46497" lon="-0.62315">
        <ele>71.4</ele>
        <time>2021-07-04T06:16:47Z</time>
      </trkpt>
      <trkpt lat="47.46491" lon="-0.62332">
        <ele>71.6</ele>
        <time>2021-07-04T06:16:49Z</time>
      </trkpt>
      <trkpt lat="47.46486" lon="-0.62349">
        <ele>71.8</ele>
        <time>2021-07-04T06:16:51Z</time>
      </trkpt>
      <trkpt lat="47.4648" lon="-0.62364">
        <ele>71.6</ele>
        <time>2021-07-04T06:16:53Z</time>
      </trkpt>
      <trkpt lat="47.46474" lon="-0.6238">
        <ele>72</ele>
        <time>2021-07-04T06:16:55Z</time>
      </trkpt>
      <trkpt lat="47.46468" lon="-0.62395">
        <ele>72.2</ele>
        <time>2021-07-04T06:16:57Z</time>
      </trkpt>
      <trkpt lat="47.46464" lon="-0.62411">
        <ele>72.4</ele>
        <time>2021-07-04T06:16:59Z</time>
      </trkpt>
      <trkpt lat="47.4646" lon="-0.62427">
        <ele>72.8</ele>
        <time>2021-07-04T06:17:01Z</time>
      </trkpt>
      <trkpt lat="47.46455" lon="-0.62442">
        <ele>73</ele>
        <time>2021-07-04T06:17:03Z</time>
      </trkpt>
      <trkpt lat="47.4645" lon="-0.62458">
        <ele>73.2</ele>
        <time>2021-07-04T06:17:05Z</time>
      </trkpt>
      <trkpt lat="47.46448" lon="-0.62465">
        <ele>73.4</ele>
        <time>2021-07-04T06:17:06Z</time>
      </trkpt>
      <trkpt lat="47.46446" lon="-0.62473">
        <ele>73.8</ele>
        <time>2021-07-04T06:17:07Z</time>
      </trkpt>
      <trkpt lat="47.46443" lon="-0.6248">
        <ele>74</ele>
        <time>2021-07-04T06:17:08Z</time>
      </trkpt>
      <trkpt lat="47.46441" lon="-0.62488">
        <ele>73.8</ele>
        <time>2021-07-04T06:17:09Z</time>
      </trkpt>
      <trkpt lat="47.46435" lon="-0.62504">
        <ele>73.8</ele>
        <time>2021-07-04T06:17:11Z</time>
      </trkpt>
      <trkpt lat="47.46433" lon="-0.62511">
        <ele>74</ele>
        <time>2021-07-04T06:17:12Z</time>
      </trkpt>
      <trkpt lat="47.4643" lon="-0.62519">
        <ele>74.2</ele>
        <time>2021-07-04T06:17:13Z</time>
      </trkpt>
      <trkpt lat="47.46425" lon="-0.62534">
        <ele>74.4</ele>
        <time>2021-07-04T06:17:15Z</time>
      </trkpt>
      <trkpt lat="47.46419" lon="-0.62549">
        <ele>74.6</ele>
        <time>2021-07-04T06:17:17Z</time>
      </trkpt>
      <trkpt lat="47.46417" lon="-0.62557">
        <ele>75</ele>
        <time>2021-07-04T06:17:18Z</time>
      </trkpt>
      <trkpt lat="47.46414" lon="-0.62564">
        <ele>75</ele>
        <time>2021-07-04T06:17:19Z</time>
      </trkpt>
      <trkpt lat="47.46409" lon="-0.62578">
        <ele>74.8</ele>
        <time>2021-07-04T06:17:21Z</time>
      </trkpt>
      <trkpt lat="47.46404" lon="-0.62593">
        <ele>75.4</ele>
        <time>2021-07-04T06:17:23Z</time>
      </trkpt>
      <trkpt lat="47.46399" lon="-0.62608">
        <ele>75.6</ele>
        <time>2021-07-04T06:17:25Z</time>
      </trkpt>
      <trkpt lat="47.46393" lon="-0.62623">
        <ele>75.8</ele>
        <time>2021-07-04T06:17:27Z</time>
      </trkpt>
      <trkpt lat="47.46388" lon="-0.62637">
        <ele>75.8</ele>
        <time>2021-07-04T06:17:29Z</time>
      </trkpt>
      <trkpt lat="47.46384" lon="-0.62652">
        <ele>76</ele>
        <time>2021-07-04T06:17:31Z</time>
      </trkpt>
      <trkpt lat="47.46381" lon="-0.62659">
        <ele>76.2</ele>
        <time>2021-07-04T06:17:32Z</time>
      </trkpt>
      <trkpt lat="47.46378" lon="-0.62666">
        <ele>76.4</ele>
        <time>2021-07-04T06:17:33Z</time>
      </trkpt>
      <trkpt lat="47.46374" lon="-0.62681">
        <ele>76.6</ele>
        <time>2021-07-04T06:17:35Z</time>
      </trkpt>
      <trkpt lat="47.46368" lon="-0.62695">
        <ele>77</ele>
        <time>2021-07-04T06:17:37Z</time>
      </trkpt>
      <trkpt lat="47.46363" lon="-0.62709">
        <ele>77</ele>
        <time>2021-07-04T06:17:39Z</time>
      </trkpt>
      <trkpt lat="47.46361" lon="-0.62716">
        <ele>77.2</ele>
        <time>2021-07-04T06:17:40Z</time>
      </trkpt>
      <trkpt lat="47.46359" lon="-0.62723">
        <ele>77.4</ele>
        <time>2021-07-04T06:17:41Z</time>
      </trkpt>
      <trkpt lat="47.46354" lon="-0.62737">
        <ele>77.6</ele>
        <time>2021-07-04T06:17:43Z</time>
      </trkpt>
      <trkpt lat="47.46349" lon="-0.62751">
        <ele>77.8</ele>
        <time>2021-07-04T06:17:45Z</time>
      </trkpt>
      <trkpt lat="47.46344" lon="-0.62766">
        <ele>78</ele>
        <time>2021-07-04T06:17:47Z</time>
      </trkpt>
      <trkpt lat="47.46341" lon="-0.62773">
        <ele>78</ele>
        <time>2021-07-04T06:17:48Z</time>
      </trkpt>
      <trkpt lat="47.46339" lon="-0.6278">
        <ele>78</ele>
        <time>2021-07-04T06:17:49Z</time>
      </trkpt>
      <trkpt lat="47.46334" lon="-0.62794">
        <ele>78.2</ele>
        <time>2021-07-04T06:17:51Z</time>
      </trkpt>
      <trkpt lat="47.4633" lon="-0.62809">
        <ele>78.4</ele>
        <time>2021-07-04T06:17:53Z</time>
      </trkpt>
      <trkpt lat="47.46325" lon="-0.62824">
        <ele>78.6</ele>
        <time>2021-07-04T06:17:55Z</time>
      </trkpt>
      <trkpt lat="47.46322" lon="-0.6284">
        <ele>79</ele>
        <time>2021-07-04T06:17:57Z</time>
      </trkpt>
      <trkpt lat="47.4632" lon="-0.62848">
        <ele>79.2</ele>
        <time>2021-07-04T06:17:58Z</time>
      </trkpt>
      <trkpt lat="47.46318" lon="-0.62856">
        <ele>79.2</ele>
        <time>2021-07-04T06:17:59Z</time>
      </trkpt>
      <trkpt lat="47.46315" lon="-0.62871">
        <ele>79.4</ele>
        <time>2021-07-04T06:18:01Z</time>
      </trkpt>
      <trkpt lat="47.46312" lon="-0.62887">
        <ele>79.6</ele>
        <time>2021-07-04T06:18:03Z</time>
      </trkpt>
      <trkpt lat="47.4631" lon="-0.62903">
        <ele>79.6</ele>
        <time>2021-07-04T06:18:05Z</time>
      </trkpt>
      <trkpt lat="47.46308" lon="-0.6291">
        <ele>80</ele>
        <time>2021-07-04T06:18:06Z</time>
      </trkpt>
      <trkpt lat="47.46307" lon="-0.62918">
        <ele>80.2</ele>
        <time>2021-07-04T06:18:07Z</time>
      </trkpt>
      <trkpt lat="47.46305" lon="-0.62935">
        <ele>80</ele>
        <time>2021-07-04T06:18:09Z</time>
      </trkpt>
      <trkpt lat="47.46303" lon="-0.62952">
        <ele>80.2</ele>
        <time>2021-07-04T06:18:11Z</time>
      </trkpt>
      <trkpt lat="47.46302" lon="-0.6296">
        <ele>80.4</ele>
        <time>2021-07-04T06:18:12Z</time>
      </trkpt>
      <trkpt lat="47.46302" lon="-0.62968">
        <ele>80.6</ele>
        <time>2021-07-04T06:18:13Z</time>
      </trkpt>
      <trkpt lat="47.46302" lon="-0.62985">
        <ele>80.4</ele>
        <time>2021-07-04T06:18:15Z</time>
      </trkpt>
      <trkpt lat="47.46302" lon="-0.63002">
        <ele>80.6</ele>
        <time>2021-07-04T06:18:17Z</time>
      </trkpt>
      <trkpt lat="47.46302" lon="-0.63019">
        <ele>81</ele>
        <time>2021-07-04T06:18:19Z</time>
      </trkpt>
      <trkpt lat="47.46302" lon="-0.63036">
        <ele>80.6</ele>
        <time>2021-07-04T06:18:21Z</time>
      </trkpt>
      <trkpt lat="47.46303" lon="-0.63045">
        <ele>80.6</ele>
        <time>2021-07-04T06:18:22Z</time>
      </trkpt>
      <trkpt lat="47.46303" lon="-0.63053">
        <ele>80.6</ele>
        <time>2021-07-04T06:18:23Z</time>
      </trkpt>
      <trkpt lat="47.46304" lon="-0.63069">
        <ele>81</ele>
        <time>2021-07-04T06:18:25Z</time>
      </trkpt>
      <trkpt lat="47.46305" lon="-0.63086">
        <ele>81.2</ele>
        <time>2021-07-04T06:18:27Z</time>
      </trkpt>
      <trkpt lat="47.46306" lon="-0.63103">
        <ele>81.4</ele>
        <time>2021-07-04T06:18:29Z</time>
      </trkpt>
      <trkpt lat="47.46307" lon="-0.6312">
        <ele>82</ele>
        <time>2021-07-04T06:18:31Z</time>
      </trkpt>
      <trkpt lat="47.46308" lon="-0.63138">
        <ele>82</ele>
        <time>2021-07-04T06:18:33Z</time>
      </trkpt>
      <trkpt lat="47.46309" lon="-0.63154">
        <ele>82.2</ele>
        <time>2021-07-04T06:18:35Z</time>
      </trkpt>
      <trkpt lat="47.4631" lon="-0.63171">
        <ele>82.4</ele>
        <time>2021-07-04T06:18:37Z</time>
      </trkpt>
      <trkpt lat="47.46311" lon="-0.63179">
        <ele>82.4</ele>
        <time>2021-07-04T06:18:38Z</time>
      </trkpt>
      <trkpt lat="47.46311" lon="-0.63187">
        <ele>82.6</ele>
        <time>2021-07-04T06:18:39Z</time>
      </trkpt>
      <trkpt lat="47.46312" lon="-0.63196">
        <ele>82.6</ele>
        <time>2021-07-04T06:18:40Z</time>
      </trkpt>
      <trkpt lat="47.46313" lon="-0.63204">
        <ele>82.8</ele>
        <time>2021-07-04T06:18:41Z</time>
      </trkpt>
      <trkpt lat="47.46314" lon="-0.6322">
        <ele>83</ele>
        <time>2021-07-04T06:18:43Z</time>
      </trkpt>
      <trkpt lat="47.46315" lon="-0.63237">
        <ele>83.2</ele>
        <time>2021-07-04T06:18:45Z</time>
      </trkpt>
      <trkpt lat="47.46316" lon="-0.63254">
        <ele>83.4</ele>
        <time>2021-07-04T06:18:47Z</time>
      </trkpt>
      <trkpt lat="47.46316" lon="-0.63262">
        <ele>83.6</ele>
        <time>2021-07-04T06:18:48Z</time>
      </trkpt>
      <trkpt lat="47.46317" lon="-0.6327">
        <ele>83.6</ele>
        <time>2021-07-04T06:18:49Z</time>
      </trkpt>
      <trkpt lat="47.46318" lon="-0.63287">
        <ele>83.8</ele>
        <time>2021-07-04T06:18:51Z</time>
      </trkpt>
      <trkpt lat="47.46319" lon="-0.63304">
        <ele>84</ele>
        <time>2021-07-04T06:18:53Z</time>
      </trkpt>
      <trkpt lat="47.4632" lon="-0.63321">
        <ele>84.4</ele>
        <time>2021-07-04T06:18:55Z</time>
      </trkpt>
      <trkpt lat="47.46321" lon="-0.63338">
        <ele>84.6</ele>
        <time>2021-07-04T06:18:57Z</time>
      </trkpt>
      <trkpt lat="47.46324" lon="-0.63354">
        <ele>84.8</ele>
        <time>2021-07-04T06:18:59Z</time>
      </trkpt>
      <trkpt lat="47.46326" lon="-0.63371">
        <ele>85</ele>
        <time>2021-07-04T06:19:01Z</time>
      </trkpt>
      <trkpt lat="47.46327" lon="-0.63387">
        <ele>85</ele>
        <time>2021-07-04T06:19:03Z</time>
      </trkpt>
      <trkpt lat="47.46328" lon="-0.63404">
        <ele>85</ele>
        <time>2021-07-04T06:19:05Z</time>
      </trkpt>
      <trkpt lat="47.46328" lon="-0.63421">
        <ele>84.8</ele>
        <time>2021-07-04T06:19:07Z</time>
      </trkpt>
      <trkpt lat="47.46328" lon="-0.63439">
        <ele>84.8</ele>
        <time>2021-07-04T06:19:09Z</time>
      </trkpt>
      <trkpt lat="47.46327" lon="-0.63456">
        <ele>85.2</ele>
        <time>2021-07-04T06:19:11Z</time>
      </trkpt>
      <trkpt lat="47.46326" lon="-0.63473">
        <ele>85.2</ele>
        <time>2021-07-04T06:19:13Z</time>
      </trkpt>
      <trkpt lat="47.46325" lon="-0.63489">
        <ele>85.4</ele>
        <time>2021-07-04T06:19:15Z</time>
      </trkpt>
      <trkpt lat="47.46324" lon="-0.63505">
        <ele>85.8</ele>
        <time>2021-07-04T06:19:17Z</time>
      </trkpt>
      <trkpt lat="47.46323" lon="-0.63522">
        <ele>86.6</ele>
        <time>2021-07-04T06:19:19Z</time>
      </trkpt>
      <trkpt lat="47.46323" lon="-0.6353">
        <ele>86.8</ele>
        <time>2021-07-04T06:19:20Z</time>
      </trkpt>
      <trkpt lat="47.46322" lon="-0.63538">
        <ele>87</ele>
        <time>2021-07-04T06:19:21Z</time>
      </trkpt>
      <trkpt lat="47.46322" lon="-0.63546">
        <ele>87</ele>
        <time>2021-07-04T06:19:22Z</time>
      </trkpt>
      <trkpt lat="47.46322" lon="-0.63554">
        <ele>87.4</ele>
        <time>2021-07-04T06:19:23Z</time>
      </trkpt>
      <trkpt lat="47.46322" lon="-0.63569">
        <ele>87.6</ele>
        <time>2021-07-04T06:19:25Z</time>
      </trkpt>
      <trkpt lat="47.46323" lon="-0.63577">
        <ele>87.6</ele>
        <time>2021-07-04T06:19:26Z</time>
      </trkpt>
      <trkpt lat="47.46323" lon="-0.63584">
        <ele>87.8</ele>
        <time>2021-07-04T06:19:27Z</time>
      </trkpt>
      <trkpt lat="47.46324" lon="-0.63591">
        <ele>88</ele>
        <time>2021-07-04T06:19:28Z</time>
      </trkpt>
      <trkpt lat="47.46325" lon="-0.63598">
        <ele>88.4</ele>
        <time>2021-07-04T06:19:29Z</time>
      </trkpt>
      <trkpt lat="47.46327" lon="-0.63611">
        <ele>88.6</ele>
        <time>2021-07-04T06:19:31Z</time>
      </trkpt>
      <trkpt lat="47.46325" lon="-0.63617">
        <ele>88.2</ele>
        <time>2021-07-04T06:19:32Z</time>
      </trkpt>
      <trkpt lat="47.46323" lon="-0.63623">
        <ele>88</ele>
        <time>2021-07-04T06:19:33Z</time>
      </trkpt>
      <trkpt lat="47.46314" lon="-0.63626">
        <ele>88</ele>
        <time>2021-07-04T06:19:35Z</time>
      </trkpt>
      <trkpt lat="47.46305" lon="-0.63627">
        <ele>88.2</ele>
        <time>2021-07-04T06:19:37Z</time>
      </trkpt>
      <trkpt lat="47.46302" lon="-0.63628">
        <ele>88.2</ele>
        <time>2021-07-04T06:19:38Z</time>
      </trkpt>
      <trkpt lat="47.46298" lon="-0.63629">
        <ele>88.2</ele>
        <time>2021-07-04T06:19:39Z</time>
      </trkpt>
      <trkpt lat="47.46293" lon="-0.63629">
        <ele>88</ele>
        <time>2021-07-04T06:19:40Z</time>
      </trkpt>
      <trkpt lat="47.46288" lon="-0.63631">
        <ele>87.8</ele>
        <time>2021-07-04T06:19:41Z</time>
      </trkpt>
      <trkpt lat="47.46282" lon="-0.63632">
        <ele>86.8</ele>
        <time>2021-07-04T06:19:42Z</time>
      </trkpt>
      <trkpt lat="47.46276" lon="-0.63635">
        <ele>86</ele>
        <time>2021-07-04T06:19:43Z</time>
      </trkpt>
      <trkpt lat="47.4627" lon="-0.63638">
        <ele>85.2</ele>
        <time>2021-07-04T06:19:44Z</time>
      </trkpt>
      <trkpt lat="47.46263" lon="-0.63641">
        <ele>84.6</ele>
        <time>2021-07-04T06:19:45Z</time>
      </trkpt>
      <trkpt lat="47.46258" lon="-0.63646">
        <ele>84</ele>
        <time>2021-07-04T06:19:46Z</time>
      </trkpt>
      <trkpt lat="47.46251" lon="-0.63652">
        <ele>83.4</ele>
        <time>2021-07-04T06:19:47Z</time>
      </trkpt>
      <trkpt lat="47.46245" lon="-0.63658">
        <ele>83</ele>
        <time>2021-07-04T06:19:48Z</time>
      </trkpt>
      <trkpt lat="47.46238" lon="-0.63663">
        <ele>82.6</ele>
        <time>2021-07-04T06:19:49Z</time>
      </trkpt>
      <trkpt lat="47.46225" lon="-0.63675">
        <ele>81.6</ele>
        <time>2021-07-04T06:19:51Z</time>
      </trkpt>
      <trkpt lat="47.46219" lon="-0.63681">
        <ele>81.2</ele>
        <time>2021-07-04T06:19:52Z</time>
      </trkpt>
      <trkpt lat="47.46213" lon="-0.63688">
        <ele>80.6</ele>
        <time>2021-07-04T06:19:53Z</time>
      </trkpt>
      <trkpt lat="47.46207" lon="-0.63694">
        <ele>80.2</ele>
        <time>2021-07-04T06:19:54Z</time>
      </trkpt>
      <trkpt lat="47.46202" lon="-0.63701">
        <ele>79.8</ele>
        <time>2021-07-04T06:19:55Z</time>
      </trkpt>
      <trkpt lat="47.46189" lon="-0.63713">
        <ele>79</ele>
        <time>2021-07-04T06:19:57Z</time>
      </trkpt>
      <trkpt lat="47.46176" lon="-0.63724">
        <ele>78.2</ele>
        <time>2021-07-04T06:19:59Z</time>
      </trkpt>
      <trkpt lat="47.46171" lon="-0.63732">
        <ele>77.6</ele>
        <time>2021-07-04T06:20:00Z</time>
      </trkpt>
      <trkpt lat="47.46165" lon="-0.63738">
        <ele>77.2</ele>
        <time>2021-07-04T06:20:01Z</time>
      </trkpt>
      <trkpt lat="47.46154" lon="-0.6375">
        <ele>76.6</ele>
        <time>2021-07-04T06:20:03Z</time>
      </trkpt>
      <trkpt lat="47.46149" lon="-0.63756">
        <ele>76.6</ele>
        <time>2021-07-04T06:20:04Z</time>
      </trkpt>
      <trkpt lat="47.46144" lon="-0.63761">
        <ele>76.4</ele>
        <time>2021-07-04T06:20:05Z</time>
      </trkpt>
      <trkpt lat="47.46132" lon="-0.63773">
        <ele>75.8</ele>
        <time>2021-07-04T06:20:07Z</time>
      </trkpt>
      <trkpt lat="47.46122" lon="-0.63784">
        <ele>75.2</ele>
        <time>2021-07-04T06:20:09Z</time>
      </trkpt>
      <trkpt lat="47.46112" lon="-0.63796">
        <ele>74.8</ele>
        <time>2021-07-04T06:20:11Z</time>
      </trkpt>
      <trkpt lat="47.46101" lon="-0.63806">
        <ele>74.6</ele>
        <time>2021-07-04T06:20:13Z</time>
      </trkpt>
      <trkpt lat="47.46095" lon="-0.63811">
        <ele>74.4</ele>
        <time>2021-07-04T06:20:14Z</time>
      </trkpt>
      <trkpt lat="47.46089" lon="-0.63816">
        <ele>74.4</ele>
        <time>2021-07-04T06:20:15Z</time>
      </trkpt>
      <trkpt lat="47.46077" lon="-0.63825">
        <ele>74.2</ele>
        <time>2021-07-04T06:20:17Z</time>
      </trkpt>
      <trkpt lat="47.46065" lon="-0.63834">
        <ele>73.6</ele>
        <time>2021-07-04T06:20:19Z</time>
      </trkpt>
      <trkpt lat="47.46057" lon="-0.63836">
        <ele>73.6</ele>
        <time>2021-07-04T06:20:20Z</time>
      </trkpt>
      <trkpt lat="47.4605" lon="-0.63838">
        <ele>73.4</ele>
        <time>2021-07-04T06:20:21Z</time>
      </trkpt>
      <trkpt lat="47.46037" lon="-0.63841">
        <ele>73</ele>
        <time>2021-07-04T06:20:23Z</time>
      </trkpt>
      <trkpt lat="47.46023" lon="-0.63844">
        <ele>72.4</ele>
        <time>2021-07-04T06:20:25Z</time>
      </trkpt>
      <trkpt lat="47.46009" lon="-0.63851">
        <ele>72</ele>
        <time>2021-07-04T06:20:27Z</time>
      </trkpt>
      <trkpt lat="47.45994" lon="-0.63859">
        <ele>71.4</ele>
        <time>2021-07-04T06:20:29Z</time>
      </trkpt>
      <trkpt lat="47.45987" lon="-0.63864">
        <ele>70.8</ele>
        <time>2021-07-04T06:20:30Z</time>
      </trkpt>
      <trkpt lat="47.45981" lon="-0.6387">
        <ele>70.8</ele>
        <time>2021-07-04T06:20:31Z</time>
      </trkpt>
      <trkpt lat="47.45975" lon="-0.63877">
        <ele>70.8</ele>
        <time>2021-07-04T06:20:32Z</time>
      </trkpt>
      <trkpt lat="47.4597" lon="-0.63883">
        <ele>70.8</ele>
        <time>2021-07-04T06:20:33Z</time>
      </trkpt>
      <trkpt lat="47.45957" lon="-0.63896">
        <ele>70.6</ele>
        <time>2021-07-04T06:20:35Z</time>
      </trkpt>
      <trkpt lat="47.45946" lon="-0.63907">
        <ele>70.4</ele>
        <time>2021-07-04T06:20:37Z</time>
      </trkpt>
      <trkpt lat="47.45936" lon="-0.63921">
        <ele>70.6</ele>
        <time>2021-07-04T06:20:39Z</time>
      </trkpt>
      <trkpt lat="47.45924" lon="-0.63937">
        <ele>70.8</ele>
        <time>2021-07-04T06:20:41Z</time>
      </trkpt>
      <trkpt lat="47.45913" lon="-0.63951">
        <ele>70.8</ele>
        <time>2021-07-04T06:20:43Z</time>
      </trkpt>
      <trkpt lat="47.45902" lon="-0.63963">
        <ele>70.8</ele>
        <time>2021-07-04T06:20:45Z</time>
      </trkpt>
      <trkpt lat="47.45892" lon="-0.63975">
        <ele>71</ele>
        <time>2021-07-04T06:20:47Z</time>
      </trkpt>
      <trkpt lat="47.45881" lon="-0.63987">
        <ele>71.2</ele>
        <time>2021-07-04T06:20:49Z</time>
      </trkpt>
      <trkpt lat="47.45872" lon="-0.63998">
        <ele>71.4</ele>
        <time>2021-07-04T06:20:51Z</time>
      </trkpt>
      <trkpt lat="47.45863" lon="-0.64008">
        <ele>71.4</ele>
        <time>2021-07-04T06:20:53Z</time>
      </trkpt>
      <trkpt lat="47.45853" lon="-0.6402">
        <ele>71.6</ele>
        <time>2021-07-04T06:20:55Z</time>
      </trkpt>
      <trkpt lat="47.45843" lon="-0.64032">
        <ele>71.8</ele>
        <time>2021-07-04T06:20:57Z</time>
      </trkpt>
      <trkpt lat="47.45838" lon="-0.64036">
        <ele>71.8</ele>
        <time>2021-07-04T06:20:58Z</time>
      </trkpt>
      <trkpt lat="47.45833" lon="-0.64041">
        <ele>71.8</ele>
        <time>2021-07-04T06:20:59Z</time>
      </trkpt>
      <trkpt lat="47.45828" lon="-0.64047">
        <ele>72</ele>
        <time>2021-07-04T06:21:00Z</time>
      </trkpt>
      <trkpt lat="47.45823" lon="-0.64052">
        <ele>72</ele>
        <time>2021-07-04T06:21:01Z</time>
      </trkpt>
      <trkpt lat="47.45812" lon="-0.64064">
        <ele>72</ele>
        <time>2021-07-04T06:21:03Z</time>
      </trkpt>
      <trkpt lat="47.45802" lon="-0.64074">
        <ele>72.2</ele>
        <time>2021-07-04T06:21:05Z</time>
      </trkpt>
      <trkpt lat="47.45793" lon="-0.64083">
        <ele>72.4</ele>
        <time>2021-07-04T06:21:07Z</time>
      </trkpt>
      <trkpt lat="47.45788" lon="-0.64088">
        <ele>72.4</ele>
        <time>2021-07-04T06:21:08Z</time>
      </trkpt>
      <trkpt lat="47.45783" lon="-0.64093">
        <ele>72.6</ele>
        <time>2021-07-04T06:21:09Z</time>
      </trkpt>
      <trkpt lat="47.45778" lon="-0.64097">
        <ele>72.8</ele>
        <time>2021-07-04T06:21:10Z</time>
      </trkpt>
      <trkpt lat="47.45773" lon="-0.64103">
        <ele>72.8</ele>
        <time>2021-07-04T06:21:11Z</time>
      </trkpt>
      <trkpt lat="47.45762" lon="-0.64114">
        <ele>73</ele>
        <time>2021-07-04T06:21:13Z</time>
      </trkpt>
      <trkpt lat="47.45752" lon="-0.64125">
        <ele>73.4</ele>
        <time>2021-07-04T06:21:15Z</time>
      </trkpt>
      <trkpt lat="47.45748" lon="-0.6413">
        <ele>73.4</ele>
        <time>2021-07-04T06:21:16Z</time>
      </trkpt>
      <trkpt lat="47.45743" lon="-0.64134">
        <ele>73.6</ele>
        <time>2021-07-04T06:21:17Z</time>
      </trkpt>
      <trkpt lat="47.45739" lon="-0.64137">
        <ele>74.2</ele>
        <time>2021-07-04T06:21:18Z</time>
      </trkpt>
      <trkpt lat="47.45734" lon="-0.64139">
        <ele>74.2</ele>
        <time>2021-07-04T06:21:19Z</time>
      </trkpt>
      <trkpt lat="47.4573" lon="-0.6414">
        <ele>74</ele>
        <time>2021-07-04T06:21:20Z</time>
      </trkpt>
      <trkpt lat="47.45725" lon="-0.6414">
        <ele>74.2</ele>
        <time>2021-07-04T06:21:21Z</time>
      </trkpt>
      <trkpt lat="47.45716" lon="-0.64137">
        <ele>74.6</ele>
        <time>2021-07-04T06:21:23Z</time>
      </trkpt>
      <trkpt lat="47.45711" lon="-0.64135">
        <ele>74.6</ele>
        <time>2021-07-04T06:21:24Z</time>
      </trkpt>
      <trkpt lat="47.45707" lon="-0.64134">
        <ele>74.4</ele>
        <time>2021-07-04T06:21:25Z</time>
      </trkpt>
      <trkpt lat="47.457" lon="-0.6413">
        <ele>74.4</ele>
        <time>2021-07-04T06:21:27Z</time>
      </trkpt>
      <trkpt lat="47.45693" lon="-0.64125">
        <ele>74.6</ele>
        <time>2021-07-04T06:21:29Z</time>
      </trkpt>
      <trkpt lat="47.4569" lon="-0.6412">
        <ele>74.6</ele>
        <time>2021-07-04T06:21:30Z</time>
      </trkpt>
      <trkpt lat="47.45686" lon="-0.64116">
        <ele>74.6</ele>
        <time>2021-07-04T06:21:31Z</time>
      </trkpt>
      <trkpt lat="47.45677" lon="-0.64106">
        <ele>74</ele>
        <time>2021-07-04T06:21:33Z</time>
      </trkpt>
      <trkpt lat="47.45669" lon="-0.64092">
        <ele>73.8</ele>
        <time>2021-07-04T06:21:35Z</time>
      </trkpt>
      <trkpt lat="47.45661" lon="-0.64078">
        <ele>73.6</ele>
        <time>2021-07-04T06:21:37Z</time>
      </trkpt>
      <trkpt lat="47.45653" lon="-0.64062">
        <ele>73.6</ele>
        <time>2021-07-04T06:21:39Z</time>
      </trkpt>
      <trkpt lat="47.4565" lon="-0.64053">
        <ele>73.4</ele>
        <time>2021-07-04T06:21:40Z</time>
      </trkpt>
      <trkpt lat="47.45646" lon="-0.64044">
        <ele>73.4</ele>
        <time>2021-07-04T06:21:41Z</time>
      </trkpt>
      <trkpt lat="47.45643" lon="-0.64036">
        <ele>72.8</ele>
        <time>2021-07-04T06:21:42Z</time>
      </trkpt>
      <trkpt lat="47.45639" lon="-0.64026">
        <ele>72.6</ele>
        <time>2021-07-04T06:21:43Z</time>
      </trkpt>
      <trkpt lat="47.45629" lon="-0.64009">
        <ele>72.2</ele>
        <time>2021-07-04T06:21:45Z</time>
      </trkpt>
      <trkpt lat="47.45625" lon="-0.64">
        <ele>72</ele>
        <time>2021-07-04T06:21:46Z</time>
      </trkpt>
      <trkpt lat="47.45619" lon="-0.6399">
        <ele>72</ele>
        <time>2021-07-04T06:21:47Z</time>
      </trkpt>
      <trkpt lat="47.45611" lon="-0.63972">
        <ele>71.8</ele>
        <time>2021-07-04T06:21:49Z</time>
      </trkpt>
      <trkpt lat="47.45602" lon="-0.63953">
        <ele>71.6</ele>
        <time>2021-07-04T06:21:51Z</time>
      </trkpt>
      <trkpt lat="47.45597" lon="-0.63943">
        <ele>71.6</ele>
        <time>2021-07-04T06:21:52Z</time>
      </trkpt>
      <trkpt lat="47.45592" lon="-0.63932">
        <ele>71.6</ele>
        <time>2021-07-04T06:21:53Z</time>
      </trkpt>
      <trkpt lat="47.45583" lon="-0.63912">
        <ele>71.6</ele>
        <time>2021-07-04T06:21:55Z</time>
      </trkpt>
      <trkpt lat="47.45574" lon="-0.63891">
        <ele>71.2</ele>
        <time>2021-07-04T06:21:57Z</time>
      </trkpt>
      <trkpt lat="47.45566" lon="-0.63872">
        <ele>71.4</ele>
        <time>2021-07-04T06:21:59Z</time>
      </trkpt>
      <trkpt lat="47.45562" lon="-0.63862">
        <ele>71</ele>
        <time>2021-07-04T06:22:00Z</time>
      </trkpt>
      <trkpt lat="47.45558" lon="-0.63851">
        <ele>70.6</ele>
        <time>2021-07-04T06:22:01Z</time>
      </trkpt>
      <trkpt lat="47.45553" lon="-0.63831">
        <ele>70.4</ele>
        <time>2021-07-04T06:22:03Z</time>
      </trkpt>
      <trkpt lat="47.45547" lon="-0.63811">
        <ele>70.4</ele>
        <time>2021-07-04T06:22:05Z</time>
      </trkpt>
      <trkpt lat="47.45544" lon="-0.63801">
        <ele>70.2</ele>
        <time>2021-07-04T06:22:06Z</time>
      </trkpt>
      <trkpt lat="47.45541" lon="-0.63791">
        <ele>70.2</ele>
        <time>2021-07-04T06:22:07Z</time>
      </trkpt>
      <trkpt lat="47.45534" lon="-0.63772">
        <ele>70.2</ele>
        <time>2021-07-04T06:22:09Z</time>
      </trkpt>
      <trkpt lat="47.45527" lon="-0.63753">
        <ele>69.6</ele>
        <time>2021-07-04T06:22:11Z</time>
      </trkpt>
      <trkpt lat="47.45521" lon="-0.63734">
        <ele>69.6</ele>
        <time>2021-07-04T06:22:13Z</time>
      </trkpt>
      <trkpt lat="47.45519" lon="-0.63725">
        <ele>69.6</ele>
        <time>2021-07-04T06:22:14Z</time>
      </trkpt>
      <trkpt lat="47.45516" lon="-0.63716">
        <ele>69.4</ele>
        <time>2021-07-04T06:22:15Z</time>
      </trkpt>
      <trkpt lat="47.4551" lon="-0.63698">
        <ele>69.8</ele>
        <time>2021-07-04T06:22:17Z</time>
      </trkpt>
      <trkpt lat="47.45505" lon="-0.63681">
        <ele>70.2</ele>
        <time>2021-07-04T06:22:19Z</time>
      </trkpt>
      <trkpt lat="47.45499" lon="-0.63663">
        <ele>70.4</ele>
        <time>2021-07-04T06:22:21Z</time>
      </trkpt>
      <trkpt lat="47.45493" lon="-0.63647">
        <ele>69.8</ele>
        <time>2021-07-04T06:22:23Z</time>
      </trkpt>
      <trkpt lat="47.45487" lon="-0.63632">
        <ele>70.2</ele>
        <time>2021-07-04T06:22:25Z</time>
      </trkpt>
      <trkpt lat="47.45484" lon="-0.63625">
        <ele>70.2</ele>
        <time>2021-07-04T06:22:26Z</time>
      </trkpt>
      <trkpt lat="47.45481" lon="-0.63618">
        <ele>70.2</ele>
        <time>2021-07-04T06:22:27Z</time>
      </trkpt>
      <trkpt lat="47.45473" lon="-0.63605">
        <ele>70.4</ele>
        <time>2021-07-04T06:22:29Z</time>
      </trkpt>
      <trkpt lat="47.45469" lon="-0.63599">
        <ele>70.6</ele>
        <time>2021-07-04T06:22:30Z</time>
      </trkpt>
      <trkpt lat="47.45465" lon="-0.63595">
        <ele>70.6</ele>
        <time>2021-07-04T06:22:31Z</time>
      </trkpt>
      <trkpt lat="47.45457" lon="-0.63589">
        <ele>70.6</ele>
        <time>2021-07-04T06:22:33Z</time>
      </trkpt>
      <trkpt lat="47.45453" lon="-0.63586">
        <ele>70.6</ele>
        <time>2021-07-04T06:22:34Z</time>
      </trkpt>
      <trkpt lat="47.45448" lon="-0.63582">
        <ele>70.8</ele>
        <time>2021-07-04T06:22:35Z</time>
      </trkpt>
      <trkpt lat="47.45443" lon="-0.63577">
        <ele>70.8</ele>
        <time>2021-07-04T06:22:36Z</time>
      </trkpt>
      <trkpt lat="47.45439" lon="-0.63571">
        <ele>70.6</ele>
        <time>2021-07-04T06:22:37Z</time>
      </trkpt>
      <trkpt lat="47.45435" lon="-0.63565">
        <ele>70.6</ele>
        <time>2021-07-04T06:22:38Z</time>
      </trkpt>
      <trkpt lat="47.45431" lon="-0.63558">
        <ele>70.6</ele>
        <time>2021-07-04T06:22:39Z</time>
      </trkpt>
      <trkpt lat="47.45427" lon="-0.63551">
        <ele>70.8</ele>
        <time>2021-07-04T06:22:40Z</time>
      </trkpt>
      <trkpt lat="47.45424" lon="-0.63545">
        <ele>70.8</ele>
        <time>2021-07-04T06:22:41Z</time>
      </trkpt>
      <trkpt lat="47.45416" lon="-0.63533">
        <ele>71.2</ele>
        <time>2021-07-04T06:22:43Z</time>
      </trkpt>
      <trkpt lat="47.45411" lon="-0.63527">
        <ele>71.4</ele>
        <time>2021-07-04T06:22:44Z</time>
      </trkpt>
      <trkpt lat="47.45407" lon="-0.63521">
        <ele>71.6</ele>
        <time>2021-07-04T06:22:45Z</time>
      </trkpt>
      <trkpt lat="47.45397" lon="-0.6351">
        <ele>71.6</ele>
        <time>2021-07-04T06:22:47Z</time>
      </trkpt>
      <trkpt lat="47.45387" lon="-0.63499">
        <ele>71.4</ele>
        <time>2021-07-04T06:22:49Z</time>
      </trkpt>
      <trkpt lat="47.45382" lon="-0.63494">
        <ele>71.4</ele>
        <time>2021-07-04T06:22:50Z</time>
      </trkpt>
      <trkpt lat="47.45377" lon="-0.63489">
        <ele>71.4</ele>
        <time>2021-07-04T06:22:51Z</time>
      </trkpt>
      <trkpt lat="47.45368" lon="-0.63477">
        <ele>71.8</ele>
        <time>2021-07-04T06:22:53Z</time>
      </trkpt>
      <trkpt lat="47.45363" lon="-0.63471">
        <ele>72.2</ele>
        <time>2021-07-04T06:22:54Z</time>
      </trkpt>
      <trkpt lat="47.45359" lon="-0.63465">
        <ele>72</ele>
        <time>2021-07-04T06:22:55Z</time>
      </trkpt>
      <trkpt lat="47.45352" lon="-0.63451">
        <ele>72.2</ele>
        <time>2021-07-04T06:22:57Z</time>
      </trkpt>
      <trkpt lat="47.45346" lon="-0.63436">
        <ele>72</ele>
        <time>2021-07-04T06:22:59Z</time>
      </trkpt>
      <trkpt lat="47.45342" lon="-0.63428">
        <ele>72.2</ele>
        <time>2021-07-04T06:23:00Z</time>
      </trkpt>
      <trkpt lat="47.45339" lon="-0.63419">
        <ele>72.2</ele>
        <time>2021-07-04T06:23:01Z</time>
      </trkpt>
      <trkpt lat="47.45332" lon="-0.63402">
        <ele>72.2</ele>
        <time>2021-07-04T06:23:03Z</time>
      </trkpt>
      <trkpt lat="47.45329" lon="-0.63395">
        <ele>72</ele>
        <time>2021-07-04T06:23:04Z</time>
      </trkpt>
      <trkpt lat="47.45326" lon="-0.63386">
        <ele>72</ele>
        <time>2021-07-04T06:23:05Z</time>
      </trkpt>
      <trkpt lat="47.45318" lon="-0.63365">
        <ele>72</ele>
        <time>2021-07-04T06:23:07Z</time>
      </trkpt>
      <trkpt lat="47.4531" lon="-0.63346">
        <ele>71.2</ele>
        <time>2021-07-04T06:23:09Z</time>
      </trkpt>
      <trkpt lat="47.45303" lon="-0.6333">
        <ele>71</ele>
        <time>2021-07-04T06:23:11Z</time>
      </trkpt>
      <trkpt lat="47.45296" lon="-0.63314">
        <ele>71.4</ele>
        <time>2021-07-04T06:23:13Z</time>
      </trkpt>
      <trkpt lat="47.45289" lon="-0.63299">
        <ele>71.4</ele>
        <time>2021-07-04T06:23:15Z</time>
      </trkpt>
      <trkpt lat="47.45284" lon="-0.63291">
        <ele>71.2</ele>
        <time>2021-07-04T06:23:16Z</time>
      </trkpt>
      <trkpt lat="47.4528" lon="-0.63283">
        <ele>71.2</ele>
        <time>2021-07-04T06:23:17Z</time>
      </trkpt>
      <trkpt lat="47.45272" lon="-0.63267">
        <ele>71.2</ele>
        <time>2021-07-04T06:23:19Z</time>
      </trkpt>
      <trkpt lat="47.45263" lon="-0.63252">
        <ele>70.8</ele>
        <time>2021-07-04T06:23:21Z</time>
      </trkpt>
      <trkpt lat="47.45259" lon="-0.63245">
        <ele>70.8</ele>
        <time>2021-07-04T06:23:22Z</time>
      </trkpt>
      <trkpt lat="47.45254" lon="-0.63239">
        <ele>70.8</ele>
        <time>2021-07-04T06:23:23Z</time>
      </trkpt>
      <trkpt lat="47.45246" lon="-0.63228">
        <ele>70.8</ele>
        <time>2021-07-04T06:23:25Z</time>
      </trkpt>
      <trkpt lat="47.45238" lon="-0.63217">
        <ele>71.4</ele>
        <time>2021-07-04T06:23:27Z</time>
      </trkpt>
      <trkpt lat="47.45234" lon="-0.63212">
        <ele>71.4</ele>
        <time>2021-07-04T06:23:28Z</time>
      </trkpt>
      <trkpt lat="47.45231" lon="-0.63207">
        <ele>71.2</ele>
        <time>2021-07-04T06:23:29Z</time>
      </trkpt>
      <trkpt lat="47.45225" lon="-0.63199">
        <ele>71</ele>
        <time>2021-07-04T06:23:31Z</time>
      </trkpt>
      <trkpt lat="47.45222" lon="-0.63194">
        <ele>71</ele>
        <time>2021-07-04T06:23:32Z</time>
      </trkpt>
      <trkpt lat="47.45218" lon="-0.63189">
        <ele>71</ele>
        <time>2021-07-04T06:23:33Z</time>
      </trkpt>
      <trkpt lat="47.45215" lon="-0.63185">
        <ele>71</ele>
        <time>2021-07-04T06:23:34Z</time>
      </trkpt>
      <trkpt lat="47.45211" lon="-0.6318">
        <ele>70.6</ele>
        <time>2021-07-04T06:23:35Z</time>
      </trkpt>
      <trkpt lat="47.45204" lon="-0.6317">
        <ele>70.4</ele>
        <time>2021-07-04T06:23:37Z</time>
      </trkpt>
      <trkpt lat="47.45194" lon="-0.63158">
        <ele>70.6</ele>
        <time>2021-07-04T06:23:39Z</time>
      </trkpt>
      <trkpt lat="47.45185" lon="-0.63148">
        <ele>70.6</ele>
        <time>2021-07-04T06:23:41Z</time>
      </trkpt>
      <trkpt lat="47.45174" lon="-0.63137">
        <ele>70.4</ele>
        <time>2021-07-04T06:23:43Z</time>
      </trkpt>
      <trkpt lat="47.45162" lon="-0.63127">
        <ele>70</ele>
        <time>2021-07-04T06:23:45Z</time>
      </trkpt>
      <trkpt lat="47.45157" lon="-0.63121">
        <ele>69.8</ele>
        <time>2021-07-04T06:23:46Z</time>
      </trkpt>
      <trkpt lat="47.45151" lon="-0.63115">
        <ele>69.8</ele>
        <time>2021-07-04T06:23:47Z</time>
      </trkpt>
      <trkpt lat="47.45141" lon="-0.63102">
        <ele>69.8</ele>
        <time>2021-07-04T06:23:49Z</time>
      </trkpt>
      <trkpt lat="47.45131" lon="-0.6309">
        <ele>69.6</ele>
        <time>2021-07-04T06:23:51Z</time>
      </trkpt>
      <trkpt lat="47.45127" lon="-0.63083">
        <ele>69.8</ele>
        <time>2021-07-04T06:23:52Z</time>
      </trkpt>
      <trkpt lat="47.45124" lon="-0.63075">
        <ele>70.2</ele>
        <time>2021-07-04T06:23:53Z</time>
      </trkpt>
      <trkpt lat="47.4512" lon="-0.63056">
        <ele>70.2</ele>
        <time>2021-07-04T06:23:55Z</time>
      </trkpt>
      <trkpt lat="47.4512" lon="-0.63046">
        <ele>70</ele>
        <time>2021-07-04T06:23:56Z</time>
      </trkpt>
      <trkpt lat="47.45122" lon="-0.63038">
        <ele>70</ele>
        <time>2021-07-04T06:23:57Z</time>
      </trkpt>
      <trkpt lat="47.45124" lon="-0.6303">
        <ele>69.8</ele>
        <time>2021-07-04T06:23:58Z</time>
      </trkpt>
      <trkpt lat="47.45126" lon="-0.63023">
        <ele>69.6</ele>
        <time>2021-07-04T06:23:59Z</time>
      </trkpt>
      <trkpt lat="47.45131" lon="-0.63007">
        <ele>68.8</ele>
        <time>2021-07-04T06:24:01Z</time>
      </trkpt>
      <trkpt lat="47.45136" lon="-0.62993">
        <ele>68.4</ele>
        <time>2021-07-04T06:24:03Z</time>
      </trkpt>
      <trkpt lat="47.45142" lon="-0.62979">
        <ele>67.8</ele>
        <time>2021-07-04T06:24:05Z</time>
      </trkpt>
      <trkpt lat="47.45145" lon="-0.62972">
        <ele>67.8</ele>
        <time>2021-07-04T06:24:06Z</time>
      </trkpt>
      <trkpt lat="47.45149" lon="-0.62964">
        <ele>67.6</ele>
        <time>2021-07-04T06:24:07Z</time>
      </trkpt>
      <trkpt lat="47.45153" lon="-0.62957">
        <ele>67.4</ele>
        <time>2021-07-04T06:24:08Z</time>
      </trkpt>
      <trkpt lat="47.45157" lon="-0.6295">
        <ele>67.2</ele>
        <time>2021-07-04T06:24:09Z</time>
      </trkpt>
      <trkpt lat="47.45161" lon="-0.62942">
        <ele>67</ele>
        <time>2021-07-04T06:24:10Z</time>
      </trkpt>
      <trkpt lat="47.45165" lon="-0.62934">
        <ele>66.4</ele>
        <time>2021-07-04T06:24:11Z</time>
      </trkpt>
      <trkpt lat="47.45168" lon="-0.62926">
        <ele>66.2</ele>
        <time>2021-07-04T06:24:12Z</time>
      </trkpt>
      <trkpt lat="47.45173" lon="-0.62919">
        <ele>66</ele>
        <time>2021-07-04T06:24:13Z</time>
      </trkpt>
      <trkpt lat="47.45181" lon="-0.62907">
        <ele>65.8</ele>
        <time>2021-07-04T06:24:15Z</time>
      </trkpt>
      <trkpt lat="47.45185" lon="-0.62893">
        <ele>66</ele>
        <time>2021-07-04T06:24:17Z</time>
      </trkpt>
      <trkpt lat="47.45186" lon="-0.62884">
        <ele>65.8</ele>
        <time>2021-07-04T06:24:18Z</time>
      </trkpt>
      <trkpt lat="47.45186" lon="-0.62874">
        <ele>65.6</ele>
        <time>2021-07-04T06:24:19Z</time>
      </trkpt>
      <trkpt lat="47.45183" lon="-0.62855">
        <ele>65.6</ele>
        <time>2021-07-04T06:24:21Z</time>
      </trkpt>
      <trkpt lat="47.45181" lon="-0.62846">
        <ele>65.4</ele>
        <time>2021-07-04T06:24:22Z</time>
      </trkpt>
      <trkpt lat="47.45179" lon="-0.62838">
        <ele>65.4</ele>
        <time>2021-07-04T06:24:23Z</time>
      </trkpt>
      <trkpt lat="47.45175" lon="-0.62821">
        <ele>65.8</ele>
        <time>2021-07-04T06:24:25Z</time>
      </trkpt>
      <trkpt lat="47.4517" lon="-0.62804">
        <ele>65.8</ele>
        <time>2021-07-04T06:24:27Z</time>
      </trkpt>
      <trkpt lat="47.45169" lon="-0.62796">
        <ele>65.8</ele>
        <time>2021-07-04T06:24:28Z</time>
      </trkpt>
      <trkpt lat="47.45168" lon="-0.62788">
        <ele>66</ele>
        <time>2021-07-04T06:24:29Z</time>
      </trkpt>
      <trkpt lat="47.45163" lon="-0.6277">
        <ele>66.4</ele>
        <time>2021-07-04T06:24:31Z</time>
      </trkpt>
      <trkpt lat="47.45158" lon="-0.62753">
        <ele>66.4</ele>
        <time>2021-07-04T06:24:33Z</time>
      </trkpt>
      <trkpt lat="47.45156" lon="-0.62746">
        <ele>66.4</ele>
        <time>2021-07-04T06:24:34Z</time>
      </trkpt>
      <trkpt lat="47.45153" lon="-0.62738">
        <ele>66.6</ele>
        <time>2021-07-04T06:24:35Z</time>
      </trkpt>
      <trkpt lat="47.45149" lon="-0.62726">
        <ele>67.2</ele>
        <time>2021-07-04T06:24:37Z</time>
      </trkpt>
      <trkpt lat="47.45145" lon="-0.62715">
        <ele>67</ele>
        <time>2021-07-04T06:24:39Z</time>
      </trkpt>
      <trkpt lat="47.4514" lon="-0.62704">
        <ele>67.4</ele>
        <time>2021-07-04T06:24:41Z</time>
      </trkpt>
      <trkpt lat="47.45136" lon="-0.62693">
        <ele>67.6</ele>
        <time>2021-07-04T06:24:43Z</time>
      </trkpt>
      <trkpt lat="47.45134" lon="-0.62687">
        <ele>67.4</ele>
        <time>2021-07-04T06:24:44Z</time>
      </trkpt>
      <trkpt lat="47.45132" lon="-0.62682">
        <ele>67.6</ele>
        <time>2021-07-04T06:24:45Z</time>
      </trkpt>
      <trkpt lat="47.45129" lon="-0.62671">
        <ele>67.8</ele>
        <time>2021-07-04T06:24:47Z</time>
      </trkpt>
      <trkpt lat="47.45124" lon="-0.62658">
        <ele>68</ele>
        <time>2021-07-04T06:24:49Z</time>
      </trkpt>
      <trkpt lat="47.45118" lon="-0.62644">
        <ele>68.4</ele>
        <time>2021-07-04T06:24:51Z</time>
      </trkpt>
      <trkpt lat="47.45115" lon="-0.62637">
        <ele>68.6</ele>
        <time>2021-07-04T06:24:52Z</time>
      </trkpt>
      <trkpt lat="47.45113" lon="-0.62631">
        <ele>68.6</ele>
        <time>2021-07-04T06:24:53Z</time>
      </trkpt>
      <trkpt lat="47.45109" lon="-0.62618">
        <ele>68.8</ele>
        <time>2021-07-04T06:24:55Z</time>
      </trkpt>
      <trkpt lat="47.45105" lon="-0.62606">
        <ele>69</ele>
        <time>2021-07-04T06:24:57Z</time>
      </trkpt>
      <trkpt lat="47.45102" lon="-0.62594">
        <ele>69.2</ele>
        <time>2021-07-04T06:24:59Z</time>
      </trkpt>
      <trkpt lat="47.45097" lon="-0.6258">
        <ele>69.2</ele>
        <time>2021-07-04T06:25:01Z</time>
      </trkpt>
      <trkpt lat="47.45093" lon="-0.62568">
        <ele>69.6</ele>
        <time>2021-07-04T06:25:03Z</time>
      </trkpt>
      <trkpt lat="47.4509" lon="-0.62559">
        <ele>69.8</ele>
        <time>2021-07-04T06:25:04Z</time>
      </trkpt>
      <trkpt lat="47.45086" lon="-0.6255">
        <ele>70</ele>
        <time>2021-07-04T06:25:05Z</time>
      </trkpt>
      <trkpt lat="47.45081" lon="-0.62542">
        <ele>70</ele>
        <time>2021-07-04T06:25:06Z</time>
      </trkpt>
      <trkpt lat="47.45077" lon="-0.62533">
        <ele>70.2</ele>
        <time>2021-07-04T06:25:07Z</time>
      </trkpt>
      <trkpt lat="47.45071" lon="-0.62517">
        <ele>70</ele>
        <time>2021-07-04T06:25:09Z</time>
      </trkpt>
      <trkpt lat="47.45067" lon="-0.62502">
        <ele>70</ele>
        <time>2021-07-04T06:25:11Z</time>
      </trkpt>
      <trkpt lat="47.45064" lon="-0.62488">
        <ele>70</ele>
        <time>2021-07-04T06:25:13Z</time>
      </trkpt>
      <trkpt lat="47.4506" lon="-0.62475">
        <ele>70.2</ele>
        <time>2021-07-04T06:25:15Z</time>
      </trkpt>
      <trkpt lat="47.45059" lon="-0.62464">
        <ele>70.2</ele>
        <time>2021-07-04T06:25:17Z</time>
      </trkpt>
      <trkpt lat="47.45058" lon="-0.62459">
        <ele>70.8</ele>
        <time>2021-07-04T06:25:18Z</time>
      </trkpt>
      <trkpt lat="47.45057" lon="-0.62454">
        <ele>71.2</ele>
        <time>2021-07-04T06:25:19Z</time>
      </trkpt>
      <trkpt lat="47.45049" lon="-0.62439">
        <ele>71.4</ele>
        <time>2021-07-04T06:25:20Z</time>
      </trkpt>
      <trkpt lat="47.45041" lon="-0.62423">
        <ele>71.4</ele>
        <time>2021-07-04T06:26:47Z</time>
      </trkpt>
      <trkpt lat="47.45033" lon="-0.62408">
        <ele>71.2</ele>
        <time>2021-07-04T06:26:48Z</time>
      </trkpt>
      <trkpt lat="47.45033" lon="-0.62401">
        <ele>71.2</ele>
        <time>2021-07-04T06:26:49Z</time>
      </trkpt>
      <trkpt lat="47.45033" lon="-0.62395">
        <ele>70.8</ele>
        <time>2021-07-04T06:26:50Z</time>
      </trkpt>
      <trkpt lat="47.45036" lon="-0.62384">
        <ele>70.2</ele>
        <time>2021-07-04T06:26:52Z</time>
      </trkpt>
      <trkpt lat="47.45039" lon="-0.62373">
        <ele>69.8</ele>
        <time>2021-07-04T06:26:54Z</time>
      </trkpt>
      <trkpt lat="47.45041" lon="-0.62361">
        <ele>69.4</ele>
        <time>2021-07-04T06:26:56Z</time>
      </trkpt>
      <trkpt lat="47.45043" lon="-0.62356">
        <ele>69.4</ele>
        <time>2021-07-04T06:26:57Z</time>
      </trkpt>
      <trkpt lat="47.45044" lon="-0.62352">
        <ele>69.2</ele>
        <time>2021-07-04T06:26:58Z</time>
      </trkpt>
      <trkpt lat="47.45048" lon="-0.6234">
        <ele>69.2</ele>
        <time>2021-07-04T06:27:00Z</time>
      </trkpt>
      <trkpt lat="47.45049" lon="-0.62333">
        <ele>69.2</ele>
        <time>2021-07-04T06:27:01Z</time>
      </trkpt>
      <trkpt lat="47.45051" lon="-0.62325">
        <ele>69.4</ele>
        <time>2021-07-04T06:27:02Z</time>
      </trkpt>
      <trkpt lat="47.45055" lon="-0.62309">
        <ele>69.4</ele>
        <time>2021-07-04T06:27:04Z</time>
      </trkpt>
      <trkpt lat="47.4506" lon="-0.62293">
        <ele>69</ele>
        <time>2021-07-04T06:27:06Z</time>
      </trkpt>
      <trkpt lat="47.45062" lon="-0.62277">
        <ele>69</ele>
        <time>2021-07-04T06:27:08Z</time>
      </trkpt>
      <trkpt lat="47.45064" lon="-0.62262">
        <ele>69.2</ele>
        <time>2021-07-04T06:27:10Z</time>
      </trkpt>
      <trkpt lat="47.45066" lon="-0.62247">
        <ele>68.8</ele>
        <time>2021-07-04T06:27:12Z</time>
      </trkpt>
      <trkpt lat="47.45067" lon="-0.6223">
        <ele>68.8</ele>
        <time>2021-07-04T06:27:14Z</time>
      </trkpt>
      <trkpt lat="47.45068" lon="-0.62221">
        <ele>68.8</ele>
        <time>2021-07-04T06:27:15Z</time>
      </trkpt>
      <trkpt lat="47.45068" lon="-0.62212">
        <ele>68.8</ele>
        <time>2021-07-04T06:27:16Z</time>
      </trkpt>
      <trkpt lat="47.45068" lon="-0.62193">
        <ele>68</ele>
        <time>2021-07-04T06:27:18Z</time>
      </trkpt>
      <trkpt lat="47.45068" lon="-0.62173">
        <ele>68</ele>
        <time>2021-07-04T06:27:20Z</time>
      </trkpt>
      <trkpt lat="47.45067" lon="-0.62152">
        <ele>67.4</ele>
        <time>2021-07-04T06:27:22Z</time>
      </trkpt>
      <trkpt lat="47.45066" lon="-0.6213">
        <ele>66.8</ele>
        <time>2021-07-04T06:27:24Z</time>
      </trkpt>
      <trkpt lat="47.45064" lon="-0.62109">
        <ele>66.4</ele>
        <time>2021-07-04T06:27:26Z</time>
      </trkpt>
      <trkpt lat="47.45063" lon="-0.62098">
        <ele>66.2</ele>
        <time>2021-07-04T06:27:27Z</time>
      </trkpt>
      <trkpt lat="47.45062" lon="-0.62088">
        <ele>66</ele>
        <time>2021-07-04T06:27:28Z</time>
      </trkpt>
      <trkpt lat="47.45061" lon="-0.62066">
        <ele>66</ele>
        <time>2021-07-04T06:27:30Z</time>
      </trkpt>
      <trkpt lat="47.4506" lon="-0.62045">
        <ele>65.6</ele>
        <time>2021-07-04T06:27:32Z</time>
      </trkpt>
      <trkpt lat="47.4506" lon="-0.62035">
        <ele>65.4</ele>
        <time>2021-07-04T06:27:33Z</time>
      </trkpt>
      <trkpt lat="47.4506" lon="-0.62024">
        <ele>65</ele>
        <time>2021-07-04T06:27:34Z</time>
      </trkpt>
      <trkpt lat="47.45061" lon="-0.62003">
        <ele>64.8</ele>
        <time>2021-07-04T06:27:36Z</time>
      </trkpt>
      <trkpt lat="47.45063" lon="-0.61983">
        <ele>64.8</ele>
        <time>2021-07-04T06:27:38Z</time>
      </trkpt>
      <trkpt lat="47.45066" lon="-0.61963">
        <ele>64.8</ele>
        <time>2021-07-04T06:27:40Z</time>
      </trkpt>
      <trkpt lat="47.4507" lon="-0.61945">
        <ele>64.8</ele>
        <time>2021-07-04T06:27:42Z</time>
      </trkpt>
      <trkpt lat="47.45077" lon="-0.6193">
        <ele>65.2</ele>
        <time>2021-07-04T06:27:44Z</time>
      </trkpt>
      <trkpt lat="47.45086" lon="-0.61918">
        <ele>64.8</ele>
        <time>2021-07-04T06:27:46Z</time>
      </trkpt>
      <trkpt lat="47.45096" lon="-0.61905">
        <ele>64.8</ele>
        <time>2021-07-04T06:27:48Z</time>
      </trkpt>
      <trkpt lat="47.45107" lon="-0.61892">
        <ele>64.6</ele>
        <time>2021-07-04T06:27:50Z</time>
      </trkpt>
      <trkpt lat="47.45118" lon="-0.6188">
        <ele>64.2</ele>
        <time>2021-07-04T06:27:52Z</time>
      </trkpt>
      <trkpt lat="47.45124" lon="-0.61874">
        <ele>64</ele>
        <time>2021-07-04T06:27:53Z</time>
      </trkpt>
      <trkpt lat="47.4513" lon="-0.61868">
        <ele>64</ele>
        <time>2021-07-04T06:27:54Z</time>
      </trkpt>
      <trkpt lat="47.45136" lon="-0.61863">
        <ele>63.8</ele>
        <time>2021-07-04T06:27:55Z</time>
      </trkpt>
      <trkpt lat="47.45143" lon="-0.61858">
        <ele>63.8</ele>
        <time>2021-07-04T06:27:56Z</time>
      </trkpt>
      <trkpt lat="47.45159" lon="-0.61848">
        <ele>63</ele>
        <time>2021-07-04T06:27:58Z</time>
      </trkpt>
      <trkpt lat="47.45175" lon="-0.61839">
        <ele>62.2</ele>
        <time>2021-07-04T06:28:00Z</time>
      </trkpt>
      <trkpt lat="47.45183" lon="-0.61833">
        <ele>61.8</ele>
        <time>2021-07-04T06:28:01Z</time>
      </trkpt>
      <trkpt lat="47.45191" lon="-0.61828">
        <ele>61.2</ele>
        <time>2021-07-04T06:28:02Z</time>
      </trkpt>
      <trkpt lat="47.45199" lon="-0.61823">
        <ele>60.4</ele>
        <time>2021-07-04T06:28:03Z</time>
      </trkpt>
      <trkpt lat="47.45207" lon="-0.61817">
        <ele>60</ele>
        <time>2021-07-04T06:28:04Z</time>
      </trkpt>
      <trkpt lat="47.45216" lon="-0.61812">
        <ele>59.4</ele>
        <time>2021-07-04T06:28:05Z</time>
      </trkpt>
      <trkpt lat="47.45224" lon="-0.61806">
        <ele>58.8</ele>
        <time>2021-07-04T06:28:06Z</time>
      </trkpt>
      <trkpt lat="47.45231" lon="-0.618">
        <ele>57.6</ele>
        <time>2021-07-04T06:28:07Z</time>
      </trkpt>
      <trkpt lat="47.45239" lon="-0.61792">
        <ele>57.2</ele>
        <time>2021-07-04T06:28:08Z</time>
      </trkpt>
      <trkpt lat="47.45252" lon="-0.61774">
        <ele>56.6</ele>
        <time>2021-07-04T06:28:10Z</time>
      </trkpt>
      <trkpt lat="47.45258" lon="-0.61765">
        <ele>56.6</ele>
        <time>2021-07-04T06:28:11Z</time>
      </trkpt>
      <trkpt lat="47.45264" lon="-0.61756">
        <ele>56.4</ele>
        <time>2021-07-04T06:28:12Z</time>
      </trkpt>
      <trkpt lat="47.45271" lon="-0.61748">
        <ele>56.2</ele>
        <time>2021-07-04T06:28:13Z</time>
      </trkpt>
      <trkpt lat="47.45277" lon="-0.6174">
        <ele>55.8</ele>
        <time>2021-07-04T06:28:14Z</time>
      </trkpt>
      <trkpt lat="47.45291" lon="-0.61723">
        <ele>55.4</ele>
        <time>2021-07-04T06:28:16Z</time>
      </trkpt>
      <trkpt lat="47.45305" lon="-0.61707">
        <ele>54.2</ele>
        <time>2021-07-04T06:28:18Z</time>
      </trkpt>
      <trkpt lat="47.45319" lon="-0.6169">
        <ele>53.2</ele>
        <time>2021-07-04T06:28:20Z</time>
      </trkpt>
      <trkpt lat="47.45326" lon="-0.61682">
        <ele>53</ele>
        <time>2021-07-04T06:28:21Z</time>
      </trkpt>
      <trkpt lat="47.45334" lon="-0.61673">
        <ele>52.4</ele>
        <time>2021-07-04T06:28:22Z</time>
      </trkpt>
      <trkpt lat="47.45341" lon="-0.61664">
        <ele>51.8</ele>
        <time>2021-07-04T06:28:23Z</time>
      </trkpt>
      <trkpt lat="47.45349" lon="-0.61655">
        <ele>51.4</ele>
        <time>2021-07-04T06:28:24Z</time>
      </trkpt>
      <trkpt lat="47.45363" lon="-0.61637">
        <ele>50.2</ele>
        <time>2021-07-04T06:28:26Z</time>
      </trkpt>
      <trkpt lat="47.45377" lon="-0.61618">
        <ele>49.4</ele>
        <time>2021-07-04T06:28:28Z</time>
      </trkpt>
      <trkpt lat="47.45384" lon="-0.61609">
        <ele>49.2</ele>
        <time>2021-07-04T06:28:29Z</time>
      </trkpt>
      <trkpt lat="47.45391" lon="-0.616">
        <ele>48.4</ele>
        <time>2021-07-04T06:28:30Z</time>
      </trkpt>
      <trkpt lat="47.45397" lon="-0.6159">
        <ele>47.4</ele>
        <time>2021-07-04T06:28:31Z</time>
      </trkpt>
      <trkpt lat="47.45404" lon="-0.61581">
        <ele>47.6</ele>
        <time>2021-07-04T06:28:32Z</time>
      </trkpt>
      <trkpt lat="47.45415" lon="-0.61562">
        <ele>48</ele>
        <time>2021-07-04T06:28:34Z</time>
      </trkpt>
      <trkpt lat="47.45424" lon="-0.61543">
        <ele>48.6</ele>
        <time>2021-07-04T06:28:36Z</time>
      </trkpt>
      <trkpt lat="47.45433" lon="-0.61526">
        <ele>48.8</ele>
        <time>2021-07-04T06:28:38Z</time>
      </trkpt>
      <trkpt lat="47.45437" lon="-0.61518">
        <ele>48.8</ele>
        <time>2021-07-04T06:28:39Z</time>
      </trkpt>
      <trkpt lat="47.45441" lon="-0.61511">
        <ele>49</ele>
        <time>2021-07-04T06:28:40Z</time>
      </trkpt>
      <trkpt lat="47.45443" lon="-0.61504">
        <ele>49</ele>
        <time>2021-07-04T06:28:41Z</time>
      </trkpt>
      <trkpt lat="47.45442" lon="-0.61498">
        <ele>49.4</ele>
        <time>2021-07-04T06:28:42Z</time>
      </trkpt>
      <trkpt lat="47.45439" lon="-0.61494">
        <ele>50</ele>
        <time>2021-07-04T06:28:43Z</time>
      </trkpt>
      <trkpt lat="47.45434" lon="-0.61493">
        <ele>50</ele>
        <time>2021-07-04T06:28:44Z</time>
      </trkpt>
      <trkpt lat="47.45423" lon="-0.61493">
        <ele>49.4</ele>
        <time>2021-07-04T06:28:46Z</time>
      </trkpt>
      <trkpt lat="47.45413" lon="-0.61487">
        <ele>48.8</ele>
        <time>2021-07-04T06:28:48Z</time>
      </trkpt>
      <trkpt lat="47.45404" lon="-0.61472">
        <ele>47</ele>
        <time>2021-07-04T06:28:50Z</time>
      </trkpt>
      <trkpt lat="47.454" lon="-0.61462">
        <ele>46</ele>
        <time>2021-07-04T06:28:51Z</time>
      </trkpt>
      <trkpt lat="47.45397" lon="-0.61451">
        <ele>45.2</ele>
        <time>2021-07-04T06:28:52Z</time>
      </trkpt>
      <trkpt lat="47.45393" lon="-0.61441">
        <ele>44.8</ele>
        <time>2021-07-04T06:28:53Z</time>
      </trkpt>
      <trkpt lat="47.45389" lon="-0.61431">
        <ele>44.6</ele>
        <time>2021-07-04T06:28:54Z</time>
      </trkpt>
      <trkpt lat="47.45383" lon="-0.61413">
        <ele>45.2</ele>
        <time>2021-07-04T06:28:56Z</time>
      </trkpt>
      <trkpt lat="47.45379" lon="-0.61406">
        <ele>45.6</ele>
        <time>2021-07-04T06:28:57Z</time>
      </trkpt>
      <trkpt lat="47.45376" lon="-0.614">
        <ele>46.2</ele>
        <time>2021-07-04T06:28:58Z</time>
      </trkpt>
      <trkpt lat="47.45367" lon="-0.61392">
        <ele>47.6</ele>
        <time>2021-07-04T06:29:00Z</time>
      </trkpt>
      <trkpt lat="47.45362" lon="-0.6139">
        <ele>48.2</ele>
        <time>2021-07-04T06:29:01Z</time>
      </trkpt>
      <trkpt lat="47.45358" lon="-0.61389">
        <ele>48.6</ele>
        <time>2021-07-04T06:29:02Z</time>
      </trkpt>
      <trkpt lat="47.45354" lon="-0.61389">
        <ele>49</ele>
        <time>2021-07-04T06:29:03Z</time>
      </trkpt>
      <trkpt lat="47.45349" lon="-0.61389">
        <ele>49.4</ele>
        <time>2021-07-04T06:29:04Z</time>
      </trkpt>
      <trkpt lat="47.45345" lon="-0.61389">
        <ele>49.8</ele>
        <time>2021-07-04T06:29:05Z</time>
      </trkpt>
      <trkpt lat="47.45341" lon="-0.6139">
        <ele>50.2</ele>
        <time>2021-07-04T06:29:06Z</time>
      </trkpt>
      <trkpt lat="47.45337" lon="-0.6139">
        <ele>50.6</ele>
        <time>2021-07-04T06:29:07Z</time>
      </trkpt>
      <trkpt lat="47.45333" lon="-0.61389">
        <ele>51</ele>
        <time>2021-07-04T06:29:08Z</time>
      </trkpt>
      <trkpt lat="47.45329" lon="-0.61389">
        <ele>51.6</ele>
        <time>2021-07-04T06:29:09Z</time>
      </trkpt>
      <trkpt lat="47.45324" lon="-0.61388">
        <ele>52</ele>
        <time>2021-07-04T06:29:10Z</time>
      </trkpt>
      <trkpt lat="47.4532" lon="-0.61387">
        <ele>52.4</ele>
        <time>2021-07-04T06:29:11Z</time>
      </trkpt>
      <trkpt lat="47.45317" lon="-0.61386">
        <ele>52.6</ele>
        <time>2021-07-04T06:29:12Z</time>
      </trkpt>
      <trkpt lat="47.45309" lon="-0.61382">
        <ele>53.6</ele>
        <time>2021-07-04T06:29:14Z</time>
      </trkpt>
      <trkpt lat="47.45306" lon="-0.61379">
        <ele>54</ele>
        <time>2021-07-04T06:29:15Z</time>
      </trkpt>
      <trkpt lat="47.45303" lon="-0.61376">
        <ele>54.2</ele>
        <time>2021-07-04T06:29:16Z</time>
      </trkpt>
      <trkpt lat="47.45297" lon="-0.6137">
        <ele>54.8</ele>
        <time>2021-07-04T06:29:18Z</time>
      </trkpt>
      <trkpt lat="47.45295" lon="-0.61366">
        <ele>55.4</ele>
        <time>2021-07-04T06:29:19Z</time>
      </trkpt>
      <trkpt lat="47.45293" lon="-0.61363">
        <ele>55.8</ele>
        <time>2021-07-04T06:29:20Z</time>
      </trkpt>
      <trkpt lat="47.45289" lon="-0.61355">
        <ele>56.2</ele>
        <time>2021-07-04T06:29:22Z</time>
      </trkpt>
      <trkpt lat="47.45284" lon="-0.61345">
        <ele>56.4</ele>
        <time>2021-07-04T06:29:24Z</time>
      </trkpt>
      <trkpt lat="47.45279" lon="-0.61333">
        <ele>56.4</ele>
        <time>2021-07-04T06:29:26Z</time>
      </trkpt>
      <trkpt lat="47.45278" lon="-0.61327">
        <ele>56.4</ele>
        <time>2021-07-04T06:29:27Z</time>
      </trkpt>
      <trkpt lat="47.45276" lon="-0.6132">
        <ele>56.6</ele>
        <time>2021-07-04T06:29:28Z</time>
      </trkpt>
      <trkpt lat="47.45275" lon="-0.61308">
        <ele>57</ele>
        <time>2021-07-04T06:29:30Z</time>
      </trkpt>
      <trkpt lat="47.45273" lon="-0.61297">
        <ele>57.6</ele>
        <time>2021-07-04T06:29:32Z</time>
      </trkpt>
      <trkpt lat="47.45271" lon="-0.61286">
        <ele>58.2</ele>
        <time>2021-07-04T06:29:34Z</time>
      </trkpt>
      <trkpt lat="47.45268" lon="-0.61276">
        <ele>58.8</ele>
        <time>2021-07-04T06:29:36Z</time>
      </trkpt>
      <trkpt lat="47.45266" lon="-0.61265">
        <ele>59.2</ele>
        <time>2021-07-04T06:29:38Z</time>
      </trkpt>
      <trkpt lat="47.45263" lon="-0.61255">
        <ele>59.4</ele>
        <time>2021-07-04T06:29:40Z</time>
      </trkpt>
      <trkpt lat="47.4526" lon="-0.61244">
        <ele>60</ele>
        <time>2021-07-04T06:29:42Z</time>
      </trkpt>
      <trkpt lat="47.45257" lon="-0.61234">
        <ele>61</ele>
        <time>2021-07-04T06:29:44Z</time>
      </trkpt>
      <trkpt lat="47.45256" lon="-0.61229">
        <ele>61</ele>
        <time>2021-07-04T06:29:45Z</time>
      </trkpt>
      <trkpt lat="47.45254" lon="-0.61224">
        <ele>61.2</ele>
        <time>2021-07-04T06:29:46Z</time>
      </trkpt>
      <trkpt lat="47.45251" lon="-0.61215">
        <ele>61.6</ele>
        <time>2021-07-04T06:29:48Z</time>
      </trkpt>
      <trkpt lat="47.45248" lon="-0.61206">
        <ele>62.2</ele>
        <time>2021-07-04T06:29:50Z</time>
      </trkpt>
      <trkpt lat="47.45246" lon="-0.61196">
        <ele>62.6</ele>
        <time>2021-07-04T06:29:52Z</time>
      </trkpt>
      <trkpt lat="47.45243" lon="-0.61186">
        <ele>63.4</ele>
        <time>2021-07-04T06:29:54Z</time>
      </trkpt>
      <trkpt lat="47.4524" lon="-0.61176">
        <ele>64.2</ele>
        <time>2021-07-04T06:29:56Z</time>
      </trkpt>
      <trkpt lat="47.45239" lon="-0.61172">
        <ele>64.6</ele>
        <time>2021-07-04T06:29:57Z</time>
      </trkpt>
      <trkpt lat="47.45237" lon="-0.61167">
        <ele>64.8</ele>
        <time>2021-07-04T06:29:58Z</time>
      </trkpt>
      <trkpt lat="47.45235" lon="-0.61157">
        <ele>65.2</ele>
        <time>2021-07-04T06:30:00Z</time>
      </trkpt>
      <trkpt lat="47.45232" lon="-0.61148">
        <ele>65.6</ele>
        <time>2021-07-04T06:30:02Z</time>
      </trkpt>
      <trkpt lat="47.4523" lon="-0.61138">
        <ele>66</ele>
        <time>2021-07-04T06:30:04Z</time>
      </trkpt>
      <trkpt lat="47.45228" lon="-0.61129">
        <ele>66.6</ele>
        <time>2021-07-04T06:30:06Z</time>
      </trkpt>
      <trkpt lat="47.45227" lon="-0.61123">
        <ele>67</ele>
        <time>2021-07-04T06:30:07Z</time>
      </trkpt>
      <trkpt lat="47.45226" lon="-0.61118">
        <ele>67.2</ele>
        <time>2021-07-04T06:30:08Z</time>
      </trkpt>
      <trkpt lat="47.45223" lon="-0.61108">
        <ele>67.4</ele>
        <time>2021-07-04T06:30:10Z</time>
      </trkpt>
      <trkpt lat="47.4522" lon="-0.61098">
        <ele>67.8</ele>
        <time>2021-07-04T06:30:12Z</time>
      </trkpt>
      <trkpt lat="47.45219" lon="-0.61093">
        <ele>68</ele>
        <time>2021-07-04T06:30:13Z</time>
      </trkpt>
      <trkpt lat="47.45218" lon="-0.61089">
        <ele>68.2</ele>
        <time>2021-07-04T06:30:14Z</time>
      </trkpt>
      <trkpt lat="47.45214" lon="-0.61079">
        <ele>68.2</ele>
        <time>2021-07-04T06:30:16Z</time>
      </trkpt>
      <trkpt lat="47.4521" lon="-0.61069">
        <ele>68.8</ele>
        <time>2021-07-04T06:30:18Z</time>
      </trkpt>
      <trkpt lat="47.45208" lon="-0.61064">
        <ele>69</ele>
        <time>2021-07-04T06:30:19Z</time>
      </trkpt>
      <trkpt lat="47.45206" lon="-0.61059">
        <ele>69.2</ele>
        <time>2021-07-04T06:30:20Z</time>
      </trkpt>
      <trkpt lat="47.45202" lon="-0.61049">
        <ele>69.4</ele>
        <time>2021-07-04T06:30:22Z</time>
      </trkpt>
      <trkpt lat="47.45197" lon="-0.6104">
        <ele>69.8</ele>
        <time>2021-07-04T06:30:24Z</time>
      </trkpt>
      <trkpt lat="47.45195" lon="-0.61035">
        <ele>70</ele>
        <time>2021-07-04T06:30:25Z</time>
      </trkpt>
      <trkpt lat="47.45193" lon="-0.61031">
        <ele>70.2</ele>
        <time>2021-07-04T06:30:26Z</time>
      </trkpt>
      <trkpt lat="47.45189" lon="-0.61021">
        <ele>70.6</ele>
        <time>2021-07-04T06:30:28Z</time>
      </trkpt>
      <trkpt lat="47.45185" lon="-0.61012">
        <ele>70.8</ele>
        <time>2021-07-04T06:30:30Z</time>
      </trkpt>
      <trkpt lat="47.45181" lon="-0.61002">
        <ele>71.2</ele>
        <time>2021-07-04T06:30:32Z</time>
      </trkpt>
      <trkpt lat="47.45179" lon="-0.60998">
        <ele>71.4</ele>
        <time>2021-07-04T06:30:33Z</time>
      </trkpt>
      <trkpt lat="47.45177" lon="-0.60993">
        <ele>71.6</ele>
        <time>2021-07-04T06:30:34Z</time>
      </trkpt>
      <trkpt lat="47.45175" lon="-0.60989">
        <ele>71.8</ele>
        <time>2021-07-04T06:30:35Z</time>
      </trkpt>
      <trkpt lat="47.45173" lon="-0.60984">
        <ele>72</ele>
        <time>2021-07-04T06:30:36Z</time>
      </trkpt>
      <trkpt lat="47.45168" lon="-0.60975">
        <ele>72.6</ele>
        <time>2021-07-04T06:30:38Z</time>
      </trkpt>
      <trkpt lat="47.45164" lon="-0.60967">
        <ele>73</ele>
        <time>2021-07-04T06:30:40Z</time>
      </trkpt>
      <trkpt lat="47.45161" lon="-0.60963">
        <ele>73.2</ele>
        <time>2021-07-04T06:30:41Z</time>
      </trkpt>
      <trkpt lat="47.45158" lon="-0.60959">
        <ele>73.4</ele>
        <time>2021-07-04T06:30:42Z</time>
      </trkpt>
      <trkpt lat="47.45153" lon="-0.60952">
        <ele>73.6</ele>
        <time>2021-07-04T06:30:44Z</time>
      </trkpt>
      <trkpt lat="47.45148" lon="-0.60945">
        <ele>74</ele>
        <time>2021-07-04T06:30:46Z</time>
      </trkpt>
      <trkpt lat="47.45145" lon="-0.60943">
        <ele>74.2</ele>
        <time>2021-07-04T06:30:47Z</time>
      </trkpt>
      <trkpt lat="47.45143" lon="-0.6094">
        <ele>74.4</ele>
        <time>2021-07-04T06:30:48Z</time>
      </trkpt>
      <trkpt lat="47.45141" lon="-0.60936">
        <ele>74.6</ele>
        <time>2021-07-04T06:30:49Z</time>
      </trkpt>
      <trkpt lat="47.45138" lon="-0.60932">
        <ele>75</ele>
        <time>2021-07-04T06:30:50Z</time>
      </trkpt>
      <trkpt lat="47.45132" lon="-0.60924">
        <ele>75.4</ele>
        <time>2021-07-04T06:30:52Z</time>
      </trkpt>
      <trkpt lat="47.45129" lon="-0.6092">
        <ele>75.6</ele>
        <time>2021-07-04T06:30:53Z</time>
      </trkpt>
      <trkpt lat="47.45126" lon="-0.60916">
        <ele>75.6</ele>
        <time>2021-07-04T06:30:54Z</time>
      </trkpt>
      <trkpt lat="47.4512" lon="-0.60908">
        <ele>76</ele>
        <time>2021-07-04T06:30:56Z</time>
      </trkpt>
      <trkpt lat="47.45114" lon="-0.60899">
        <ele>76.2</ele>
        <time>2021-07-04T06:30:58Z</time>
      </trkpt>
      <trkpt lat="47.45111" lon="-0.60894">
        <ele>76.4</ele>
        <time>2021-07-04T06:30:59Z</time>
      </trkpt>
      <trkpt lat="47.45108" lon="-0.60889">
        <ele>76.4</ele>
        <time>2021-07-04T06:31:00Z</time>
      </trkpt>
      <trkpt lat="47.45103" lon="-0.6088">
        <ele>76.6</ele>
        <time>2021-07-04T06:31:02Z</time>
      </trkpt>
      <trkpt lat="47.45098" lon="-0.6087">
        <ele>76.8</ele>
        <time>2021-07-04T06:31:04Z</time>
      </trkpt>
      <trkpt lat="47.45092" lon="-0.60861">
        <ele>76.8</ele>
        <time>2021-07-04T06:31:06Z</time>
      </trkpt>
      <trkpt lat="47.45086" lon="-0.60854">
        <ele>76.4</ele>
        <time>2021-07-04T06:31:08Z</time>
      </trkpt>
      <trkpt lat="47.45083" lon="-0.60851">
        <ele>76.4</ele>
        <time>2021-07-04T06:31:09Z</time>
      </trkpt>
      <trkpt lat="47.45078" lon="-0.6085">
        <ele>76.4</ele>
        <time>2021-07-04T06:31:10Z</time>
      </trkpt>
      <trkpt lat="47.4507" lon="-0.60849">
        <ele>76</ele>
        <time>2021-07-04T06:31:12Z</time>
      </trkpt>
      <trkpt lat="47.45065" lon="-0.60852">
        <ele>75.2</ele>
        <time>2021-07-04T06:31:13Z</time>
      </trkpt>
      <trkpt lat="47.45061" lon="-0.60856">
        <ele>75</ele>
        <time>2021-07-04T06:31:14Z</time>
      </trkpt>
      <trkpt lat="47.45056" lon="-0.60869">
        <ele>74.6</ele>
        <time>2021-07-04T06:31:16Z</time>
      </trkpt>
      <trkpt lat="47.45053" lon="-0.60876">
        <ele>73.8</ele>
        <time>2021-07-04T06:31:17Z</time>
      </trkpt>
      <trkpt lat="47.4505" lon="-0.60884">
        <ele>73.2</ele>
        <time>2021-07-04T06:31:18Z</time>
      </trkpt>
      <trkpt lat="47.45046" lon="-0.60892">
        <ele>72.2</ele>
        <time>2021-07-04T06:31:19Z</time>
      </trkpt>
      <trkpt lat="47.45041" lon="-0.60899">
        <ele>72</ele>
        <time>2021-07-04T06:31:20Z</time>
      </trkpt>
      <trkpt lat="47.45036" lon="-0.60905">
        <ele>71.8</ele>
        <time>2021-07-04T06:31:21Z</time>
      </trkpt>
      <trkpt lat="47.4503" lon="-0.60911">
        <ele>71.6</ele>
        <time>2021-07-04T06:31:22Z</time>
      </trkpt>
      <trkpt lat="47.45024" lon="-0.60917">
        <ele>71</ele>
        <time>2021-07-04T06:31:23Z</time>
      </trkpt>
      <trkpt lat="47.45017" lon="-0.60923">
        <ele>70.6</ele>
        <time>2021-07-04T06:31:24Z</time>
      </trkpt>
      <trkpt lat="47.45011" lon="-0.60929">
        <ele>70</ele>
        <time>2021-07-04T06:31:25Z</time>
      </trkpt>
      <trkpt lat="47.45004" lon="-0.60935">
        <ele>69.2</ele>
        <time>2021-07-04T06:31:26Z</time>
      </trkpt>
      <trkpt lat="47.44997" lon="-0.60942">
        <ele>68.2</ele>
        <time>2021-07-04T06:31:27Z</time>
      </trkpt>
      <trkpt lat="47.44991" lon="-0.60949">
        <ele>67.4</ele>
        <time>2021-07-04T06:31:28Z</time>
      </trkpt>
      <trkpt lat="47.44985" lon="-0.60956">
        <ele>66.8</ele>
        <time>2021-07-04T06:31:29Z</time>
      </trkpt>
      <trkpt lat="47.44979" lon="-0.60962">
        <ele>66.4</ele>
        <time>2021-07-04T06:31:30Z</time>
      </trkpt>
      <trkpt lat="47.44972" lon="-0.60968">
        <ele>65.8</ele>
        <time>2021-07-04T06:31:31Z</time>
      </trkpt>
      <trkpt lat="47.44964" lon="-0.60972">
        <ele>65.8</ele>
        <time>2021-07-04T06:31:32Z</time>
      </trkpt>
      <trkpt lat="47.44949" lon="-0.60976">
        <ele>65.8</ele>
        <time>2021-07-04T06:31:34Z</time>
      </trkpt>
      <trkpt lat="47.44942" lon="-0.60978">
        <ele>66</ele>
        <time>2021-07-04T06:31:35Z</time>
      </trkpt>
      <trkpt lat="47.44935" lon="-0.6098">
        <ele>65.8</ele>
        <time>2021-07-04T06:31:36Z</time>
      </trkpt>
      <trkpt lat="47.44927" lon="-0.60983">
        <ele>65.6</ele>
        <time>2021-07-04T06:31:37Z</time>
      </trkpt>
      <trkpt lat="47.44921" lon="-0.60988">
        <ele>65.4</ele>
        <time>2021-07-04T06:31:38Z</time>
      </trkpt>
      <trkpt lat="47.44914" lon="-0.60993">
        <ele>64.8</ele>
        <time>2021-07-04T06:31:39Z</time>
      </trkpt>
      <trkpt lat="47.44908" lon="-0.60998">
        <ele>64.6</ele>
        <time>2021-07-04T06:31:40Z</time>
      </trkpt>
      <trkpt lat="47.44896" lon="-0.61009">
        <ele>64</ele>
        <time>2021-07-04T06:31:42Z</time>
      </trkpt>
      <trkpt lat="47.44883" lon="-0.61019">
        <ele>63.8</ele>
        <time>2021-07-04T06:31:44Z</time>
      </trkpt>
      <trkpt lat="47.44878" lon="-0.61024">
        <ele>63.4</ele>
        <time>2021-07-04T06:31:45Z</time>
      </trkpt>
      <trkpt lat="47.44872" lon="-0.61029">
        <ele>63.4</ele>
        <time>2021-07-04T06:31:46Z</time>
      </trkpt>
      <trkpt lat="47.44861" lon="-0.6104">
        <ele>63.2</ele>
        <time>2021-07-04T06:31:48Z</time>
      </trkpt>
      <trkpt lat="47.44849" lon="-0.61048">
        <ele>63.4</ele>
        <time>2021-07-04T06:31:50Z</time>
      </trkpt>
      <trkpt lat="47.44837" lon="-0.61053">
        <ele>63.4</ele>
        <time>2021-07-04T06:31:52Z</time>
      </trkpt>
      <trkpt lat="47.44824" lon="-0.61057">
        <ele>63</ele>
        <time>2021-07-04T06:31:54Z</time>
      </trkpt>
      <trkpt lat="47.44819" lon="-0.61057">
        <ele>62.8</ele>
        <time>2021-07-04T06:31:55Z</time>
      </trkpt>
      <trkpt lat="47.44814" lon="-0.61057">
        <ele>62.8</ele>
        <time>2021-07-04T06:31:56Z</time>
      </trkpt>
      <trkpt lat="47.44803" lon="-0.61061">
        <ele>63.2</ele>
        <time>2021-07-04T06:31:58Z</time>
      </trkpt>
      <trkpt lat="47.44797" lon="-0.61065">
        <ele>62.8</ele>
        <time>2021-07-04T06:31:59Z</time>
      </trkpt>
      <trkpt lat="47.44792" lon="-0.61068">
        <ele>62.6</ele>
        <time>2021-07-04T06:32:00Z</time>
      </trkpt>
      <trkpt lat="47.44788" lon="-0.61072">
        <ele>62.4</ele>
        <time>2021-07-04T06:32:01Z</time>
      </trkpt>
      <trkpt lat="47.44782" lon="-0.61075">
        <ele>62.2</ele>
        <time>2021-07-04T06:32:02Z</time>
      </trkpt>
      <trkpt lat="47.44773" lon="-0.61078">
        <ele>61.6</ele>
        <time>2021-07-04T06:32:04Z</time>
      </trkpt>
      <trkpt lat="47.44768" lon="-0.61079">
        <ele>61.2</ele>
        <time>2021-07-04T06:32:05Z</time>
      </trkpt>
      <trkpt lat="47.44766" lon="-0.61078">
        <ele>61.2</ele>
        <time>2021-07-04T06:32:06Z</time>
      </trkpt>
      <trkpt lat="47.44764" lon="-0.61077">
        <ele>60.6</ele>
        <time>2021-07-04T06:32:07Z</time>
      </trkpt>
      <trkpt lat="47.44761" lon="-0.61077">
        <ele>60.4</ele>
        <time>2021-07-04T06:32:08Z</time>
      </trkpt>
      <trkpt lat="47.44757" lon="-0.61078">
        <ele>60.2</ele>
        <time>2021-07-04T06:32:09Z</time>
      </trkpt>
      <trkpt lat="47.44752" lon="-0.61079">
        <ele>60.2</ele>
        <time>2021-07-04T06:32:10Z</time>
      </trkpt>
      <trkpt lat="47.44741" lon="-0.6108">
        <ele>59.6</ele>
        <time>2021-07-04T06:32:12Z</time>
      </trkpt>
      <trkpt lat="47.44735" lon="-0.61083">
        <ele>59</ele>
        <time>2021-07-04T06:32:13Z</time>
      </trkpt>
      <trkpt lat="47.44727" lon="-0.61087">
        <ele>58.6</ele>
        <time>2021-07-04T06:32:14Z</time>
      </trkpt>
      <trkpt lat="47.44721" lon="-0.6109">
        <ele>58.2</ele>
        <time>2021-07-04T06:32:15Z</time>
      </trkpt>
      <trkpt lat="47.44714" lon="-0.61094">
        <ele>58.2</ele>
        <time>2021-07-04T06:32:16Z</time>
      </trkpt>
      <trkpt lat="47.44707" lon="-0.61097">
        <ele>57.8</ele>
        <time>2021-07-04T06:32:17Z</time>
      </trkpt>
      <trkpt lat="47.44702" lon="-0.611">
        <ele>57.8</ele>
        <time>2021-07-04T06:32:18Z</time>
      </trkpt>
      <trkpt lat="47.44695" lon="-0.61105">
        <ele>58</ele>
        <time>2021-07-04T06:32:20Z</time>
      </trkpt>
      <trkpt lat="47.44694" lon="-0.61108">
        <ele>58.4</ele>
        <time>2021-07-04T06:32:21Z</time>
      </trkpt>
      <trkpt lat="47.44694" lon="-0.61111">
        <ele>58.4</ele>
        <time>2021-07-04T06:32:22Z</time>
      </trkpt>
      <trkpt lat="47.44695" lon="-0.61114">
        <ele>58.4</ele>
        <time>2021-07-04T06:32:23Z</time>
      </trkpt>
      <trkpt lat="47.44696" lon="-0.61118">
        <ele>58.2</ele>
        <time>2021-07-04T06:32:24Z</time>
      </trkpt>
      <trkpt lat="47.44701" lon="-0.61126">
        <ele>58.2</ele>
        <time>2021-07-04T06:32:26Z</time>
      </trkpt>
      <trkpt lat="47.44704" lon="-0.61129">
        <ele>58.4</ele>
        <time>2021-07-04T06:32:27Z</time>
      </trkpt>
      <trkpt lat="47.44707" lon="-0.61133">
        <ele>58.4</ele>
        <time>2021-07-04T06:32:28Z</time>
      </trkpt>
      <trkpt lat="47.44714" lon="-0.6114">
        <ele>59</ele>
        <time>2021-07-04T06:32:30Z</time>
      </trkpt>
      <trkpt lat="47.44718" lon="-0.61142">
        <ele>59.2</ele>
        <time>2021-07-04T06:32:31Z</time>
      </trkpt>
      <trkpt lat="47.44721" lon="-0.61145">
        <ele>59.2</ele>
        <time>2021-07-04T06:32:32Z</time>
      </trkpt>
      <trkpt lat="47.44724" lon="-0.61146">
        <ele>59.2</ele>
        <time>2021-07-04T06:32:33Z</time>
      </trkpt>
      <trkpt lat="47.44728" lon="-0.61148">
        <ele>59.6</ele>
        <time>2021-07-04T06:32:34Z</time>
      </trkpt>
      <trkpt lat="47.44735" lon="-0.61152">
        <ele>60</ele>
        <time>2021-07-04T06:32:36Z</time>
      </trkpt>
      <trkpt lat="47.44744" lon="-0.61157">
        <ele>59.8</ele>
        <time>2021-07-04T06:32:38Z</time>
      </trkpt>
      <trkpt lat="47.44752" lon="-0.61161">
        <ele>60.2</ele>
        <time>2021-07-04T06:32:40Z</time>
      </trkpt>
      <trkpt lat="47.44759" lon="-0.61164">
        <ele>61</ele>
        <time>2021-07-04T06:32:42Z</time>
      </trkpt>
      <trkpt lat="47.44763" lon="-0.61166">
        <ele>61.2</ele>
        <time>2021-07-04T06:32:43Z</time>
      </trkpt>
      <trkpt lat="47.44767" lon="-0.61169">
        <ele>61.2</ele>
        <time>2021-07-04T06:32:44Z</time>
      </trkpt>
      <trkpt lat="47.44775" lon="-0.61173">
        <ele>61.8</ele>
        <time>2021-07-04T06:32:46Z</time>
      </trkpt>
      <trkpt lat="47.44782" lon="-0.61178">
        <ele>62.4</ele>
        <time>2021-07-04T06:32:48Z</time>
      </trkpt>
      <trkpt lat="47.4479" lon="-0.61184">
        <ele>62.6</ele>
        <time>2021-07-04T06:32:50Z</time>
      </trkpt>
      <trkpt lat="47.44796" lon="-0.6119">
        <ele>62.8</ele>
        <time>2021-07-04T06:32:52Z</time>
      </trkpt>
      <trkpt lat="47.44799" lon="-0.61194">
        <ele>63</ele>
        <time>2021-07-04T06:32:53Z</time>
      </trkpt>
      <trkpt lat="47.44802" lon="-0.61198">
        <ele>63</ele>
        <time>2021-07-04T06:32:54Z</time>
      </trkpt>
      <trkpt lat="47.44805" lon="-0.61202">
        <ele>63.4</ele>
        <time>2021-07-04T06:32:55Z</time>
      </trkpt>
      <trkpt lat="47.44809" lon="-0.61206">
        <ele>63.4</ele>
        <time>2021-07-04T06:32:56Z</time>
      </trkpt>
      <trkpt lat="47.44812" lon="-0.6121">
        <ele>63.8</ele>
        <time>2021-07-04T06:32:57Z</time>
      </trkpt>
      <trkpt lat="47.44817" lon="-0.61214">
        <ele>63.8</ele>
        <time>2021-07-04T06:32:58Z</time>
      </trkpt>
      <trkpt lat="47.44825" lon="-0.61222">
        <ele>63.8</ele>
        <time>2021-07-04T06:33:00Z</time>
      </trkpt>
      <trkpt lat="47.44833" lon="-0.61228">
        <ele>64</ele>
        <time>2021-07-04T06:33:02Z</time>
      </trkpt>
      <trkpt lat="47.44841" lon="-0.61228">
        <ele>64.4</ele>
        <time>2021-07-04T06:33:04Z</time>
      </trkpt>
      <trkpt lat="47.44843" lon="-0.61226">
        <ele>64.6</ele>
        <time>2021-07-04T06:33:05Z</time>
      </trkpt>
      <trkpt lat="47.44846" lon="-0.61224">
        <ele>64.4</ele>
        <time>2021-07-04T06:33:06Z</time>
      </trkpt>
      <trkpt lat="47.44851" lon="-0.6122">
        <ele>64.6</ele>
        <time>2021-07-04T06:33:08Z</time>
      </trkpt>
      <trkpt lat="47.44855" lon="-0.61219">
        <ele>65</ele>
        <time>2021-07-04T06:33:10Z</time>
      </trkpt>
      <trkpt lat="47.44858" lon="-0.61219">
        <ele>64.8</ele>
        <time>2021-07-04T06:33:11Z</time>
      </trkpt>
      <trkpt lat="47.44861" lon="-0.61221">
        <ele>65</ele>
        <time>2021-07-04T06:33:12Z</time>
      </trkpt>
      <trkpt lat="47.44864" lon="-0.61223">
        <ele>64.6</ele>
        <time>2021-07-04T06:33:13Z</time>
      </trkpt>
      <trkpt lat="47.44869" lon="-0.61225">
        <ele>64.8</ele>
        <time>2021-07-04T06:33:14Z</time>
      </trkpt>
      <trkpt lat="47.44877" lon="-0.61233">
        <ele>64.6</ele>
        <time>2021-07-04T06:33:16Z</time>
      </trkpt>
      <trkpt lat="47.4488" lon="-0.61237">
        <ele>64.2</ele>
        <time>2021-07-04T06:33:17Z</time>
      </trkpt>
      <trkpt lat="47.44885" lon="-0.61242">
        <ele>64.4</ele>
        <time>2021-07-04T06:33:18Z</time>
      </trkpt>
      <trkpt lat="47.44895" lon="-0.61253">
        <ele>64.8</ele>
        <time>2021-07-04T06:33:20Z</time>
      </trkpt>
      <trkpt lat="47.44904" lon="-0.61267">
        <ele>64.6</ele>
        <time>2021-07-04T06:33:22Z</time>
      </trkpt>
      <trkpt lat="47.44912" lon="-0.61281">
        <ele>64.8</ele>
        <time>2021-07-04T06:33:24Z</time>
      </trkpt>
      <trkpt lat="47.44918" lon="-0.61295">
        <ele>65.2</ele>
        <time>2021-07-04T06:33:26Z</time>
      </trkpt>
      <trkpt lat="47.44921" lon="-0.61302">
        <ele>65.4</ele>
        <time>2021-07-04T06:33:27Z</time>
      </trkpt>
      <trkpt lat="47.44924" lon="-0.61309">
        <ele>66</ele>
        <time>2021-07-04T06:33:28Z</time>
      </trkpt>
      <trkpt lat="47.44931" lon="-0.61322">
        <ele>66.2</ele>
        <time>2021-07-04T06:33:30Z</time>
      </trkpt>
      <trkpt lat="47.44937" lon="-0.61334">
        <ele>66.2</ele>
        <time>2021-07-04T06:33:32Z</time>
      </trkpt>
      <trkpt lat="47.44943" lon="-0.61346">
        <ele>66</ele>
        <time>2021-07-04T06:33:34Z</time>
      </trkpt>
      <trkpt lat="47.44944" lon="-0.61357">
        <ele>66</ele>
        <time>2021-07-04T06:33:36Z</time>
      </trkpt>
      <trkpt lat="47.44943" lon="-0.61363">
        <ele>65.8</ele>
        <time>2021-07-04T06:33:37Z</time>
      </trkpt>
      <trkpt lat="47.4494" lon="-0.6137">
        <ele>65.6</ele>
        <time>2021-07-04T06:33:38Z</time>
      </trkpt>
      <trkpt lat="47.44936" lon="-0.61386">
        <ele>65</ele>
        <time>2021-07-04T06:33:40Z</time>
      </trkpt>
      <trkpt lat="47.44933" lon="-0.61395">
        <ele>65</ele>
        <time>2021-07-04T06:33:41Z</time>
      </trkpt>
      <trkpt lat="47.44931" lon="-0.61403">
        <ele>64.8</ele>
        <time>2021-07-04T06:33:42Z</time>
      </trkpt>
      <trkpt lat="47.44926" lon="-0.61419">
        <ele>64.6</ele>
        <time>2021-07-04T06:33:44Z</time>
      </trkpt>
      <trkpt lat="47.44922" lon="-0.61434">
        <ele>64.4</ele>
        <time>2021-07-04T06:33:46Z</time>
      </trkpt>
      <trkpt lat="47.44917" lon="-0.61451">
        <ele>64.4</ele>
        <time>2021-07-04T06:33:48Z</time>
      </trkpt>
      <trkpt lat="47.44914" lon="-0.61459">
        <ele>64.2</ele>
        <time>2021-07-04T06:33:49Z</time>
      </trkpt>
      <trkpt lat="47.44912" lon="-0.61468">
        <ele>64.2</ele>
        <time>2021-07-04T06:33:50Z</time>
      </trkpt>
      <trkpt lat="47.44907" lon="-0.61486">
        <ele>64.2</ele>
        <time>2021-07-04T06:33:52Z</time>
      </trkpt>
      <trkpt lat="47.44903" lon="-0.61503">
        <ele>64</ele>
        <time>2021-07-04T06:33:54Z</time>
      </trkpt>
      <trkpt lat="47.44897" lon="-0.61519">
        <ele>63.4</ele>
        <time>2021-07-04T06:33:56Z</time>
      </trkpt>
      <trkpt lat="47.44888" lon="-0.61531">
        <ele>63</ele>
        <time>2021-07-04T06:33:58Z</time>
      </trkpt>
      <trkpt lat="47.44883" lon="-0.61535">
        <ele>62.8</ele>
        <time>2021-07-04T06:33:59Z</time>
      </trkpt>
      <trkpt lat="47.4488" lon="-0.61538">
        <ele>62.6</ele>
        <time>2021-07-04T06:34:00Z</time>
      </trkpt>
      <trkpt lat="47.44875" lon="-0.61549">
        <ele>62.6</ele>
        <time>2021-07-04T06:34:02Z</time>
      </trkpt>
      <trkpt lat="47.44872" lon="-0.61555">
        <ele>62.6</ele>
        <time>2021-07-04T06:34:03Z</time>
      </trkpt>
      <trkpt lat="47.44868" lon="-0.61561">
        <ele>62.6</ele>
        <time>2021-07-04T06:34:04Z</time>
      </trkpt>
      <trkpt lat="47.44864" lon="-0.61567">
        <ele>62.2</ele>
        <time>2021-07-04T06:34:05Z</time>
      </trkpt>
      <trkpt lat="47.44859" lon="-0.61573">
        <ele>62</ele>
        <time>2021-07-04T06:34:06Z</time>
      </trkpt>
      <trkpt lat="47.44854" lon="-0.61577">
        <ele>61</ele>
        <time>2021-07-04T06:34:07Z</time>
      </trkpt>
      <trkpt lat="47.44849" lon="-0.61579">
        <ele>60.2</ele>
        <time>2021-07-04T06:34:08Z</time>
      </trkpt>
      <trkpt lat="47.44843" lon="-0.61581">
        <ele>59.8</ele>
        <time>2021-07-04T06:34:09Z</time>
      </trkpt>
      <trkpt lat="47.44837" lon="-0.61583">
        <ele>59.8</ele>
        <time>2021-07-04T06:34:10Z</time>
      </trkpt>
      <trkpt lat="47.44823" lon="-0.61588">
        <ele>58.8</ele>
        <time>2021-07-04T06:34:12Z</time>
      </trkpt>
      <trkpt lat="47.44808" lon="-0.6159">
        <ele>57.2</ele>
        <time>2021-07-04T06:34:14Z</time>
      </trkpt>
      <trkpt lat="47.44792" lon="-0.61592">
        <ele>56.2</ele>
        <time>2021-07-04T06:34:16Z</time>
      </trkpt>
      <trkpt lat="47.44776" lon="-0.61593">
        <ele>55.2</ele>
        <time>2021-07-04T06:34:18Z</time>
      </trkpt>
      <trkpt lat="47.44768" lon="-0.61594">
        <ele>55</ele>
        <time>2021-07-04T06:34:19Z</time>
      </trkpt>
      <trkpt lat="47.4476" lon="-0.61594">
        <ele>55</ele>
        <time>2021-07-04T06:34:20Z</time>
      </trkpt>
      <trkpt lat="47.44753" lon="-0.61594">
        <ele>55</ele>
        <time>2021-07-04T06:34:21Z</time>
      </trkpt>
      <trkpt lat="47.44746" lon="-0.61594">
        <ele>55.2</ele>
        <time>2021-07-04T06:34:22Z</time>
      </trkpt>
      <trkpt lat="47.44732" lon="-0.61594">
        <ele>55.8</ele>
        <time>2021-07-04T06:34:24Z</time>
      </trkpt>
      <trkpt lat="47.4472" lon="-0.61595">
        <ele>55.8</ele>
        <time>2021-07-04T06:34:26Z</time>
      </trkpt>
      <trkpt lat="47.44708" lon="-0.61597">
        <ele>55.8</ele>
        <time>2021-07-04T06:34:28Z</time>
      </trkpt>
      <trkpt lat="47.44695" lon="-0.61599">
        <ele>56</ele>
        <time>2021-07-04T06:34:30Z</time>
      </trkpt>
      <trkpt lat="47.44683" lon="-0.616">
        <ele>55.8</ele>
        <time>2021-07-04T06:34:32Z</time>
      </trkpt>
      <trkpt lat="47.44671" lon="-0.616">
        <ele>55.8</ele>
        <time>2021-07-04T06:34:34Z</time>
      </trkpt>
      <trkpt lat="47.4466" lon="-0.616">
        <ele>55.8</ele>
        <time>2021-07-04T06:34:36Z</time>
      </trkpt>
      <trkpt lat="47.44649" lon="-0.616">
        <ele>55.8</ele>
        <time>2021-07-04T06:34:38Z</time>
      </trkpt>
      <trkpt lat="47.44645" lon="-0.616">
        <ele>55.8</ele>
        <time>2021-07-04T06:34:39Z</time>
      </trkpt>
      <trkpt lat="47.44641" lon="-0.61602">
        <ele>55.8</ele>
        <time>2021-07-04T06:34:40Z</time>
      </trkpt>
      <trkpt lat="47.44634" lon="-0.61609">
        <ele>56.2</ele>
        <time>2021-07-04T06:34:42Z</time>
      </trkpt>
      <trkpt lat="47.44629" lon="-0.61619">
        <ele>56.4</ele>
        <time>2021-07-04T06:34:44Z</time>
      </trkpt>
      <trkpt lat="47.44628" lon="-0.6163">
        <ele>56.8</ele>
        <time>2021-07-04T06:34:46Z</time>
      </trkpt>
      <trkpt lat="47.44626" lon="-0.61642">
        <ele>57</ele>
        <time>2021-07-04T06:34:48Z</time>
      </trkpt>
      <trkpt lat="47.44621" lon="-0.61654">
        <ele>57.4</ele>
        <time>2021-07-04T06:34:50Z</time>
      </trkpt>
      <trkpt lat="47.44615" lon="-0.61661">
        <ele>57.8</ele>
        <time>2021-07-04T06:34:52Z</time>
      </trkpt>
      <trkpt lat="47.44612" lon="-0.61664">
        <ele>57.8</ele>
        <time>2021-07-04T06:34:53Z</time>
      </trkpt>
      <trkpt lat="47.44608" lon="-0.61666">
        <ele>58.4</ele>
        <time>2021-07-04T06:34:54Z</time>
      </trkpt>
      <trkpt lat="47.44601" lon="-0.61669">
        <ele>58.6</ele>
        <time>2021-07-04T06:34:56Z</time>
      </trkpt>
      <trkpt lat="47.44599" lon="-0.61667">
        <ele>58.6</ele>
        <time>2021-07-04T06:34:57Z</time>
      </trkpt>
      <trkpt lat="47.44596" lon="-0.61666">
        <ele>58.4</ele>
        <time>2021-07-04T06:34:58Z</time>
      </trkpt>
      <trkpt lat="47.44588" lon="-0.61667">
        <ele>58</ele>
        <time>2021-07-04T06:35:00Z</time>
      </trkpt>
      <trkpt lat="47.44584" lon="-0.61671">
        <ele>57.8</ele>
        <time>2021-07-04T06:35:01Z</time>
      </trkpt>
      <trkpt lat="47.4458" lon="-0.61675">
        <ele>57.8</ele>
        <time>2021-07-04T06:35:02Z</time>
      </trkpt>
      <trkpt lat="47.44573" lon="-0.61683">
        <ele>57.8</ele>
        <time>2021-07-04T06:35:04Z</time>
      </trkpt>
      <trkpt lat="47.44566" lon="-0.61689">
        <ele>58</ele>
        <time>2021-07-04T06:35:06Z</time>
      </trkpt>
      <trkpt lat="47.44562" lon="-0.61688">
        <ele>58</ele>
        <time>2021-07-04T06:35:07Z</time>
      </trkpt>
      <trkpt lat="47.44558" lon="-0.61685">
        <ele>58</ele>
        <time>2021-07-04T06:35:08Z</time>
      </trkpt>
      <trkpt lat="47.4455" lon="-0.61676">
        <ele>57.4</ele>
        <time>2021-07-04T06:35:10Z</time>
      </trkpt>
      <trkpt lat="47.44545" lon="-0.61672">
        <ele>57.2</ele>
        <time>2021-07-04T06:35:11Z</time>
      </trkpt>
      <trkpt lat="47.44541" lon="-0.61667">
        <ele>57</ele>
        <time>2021-07-04T06:35:12Z</time>
      </trkpt>
      <trkpt lat="47.44532" lon="-0.61661">
        <ele>56.6</ele>
        <time>2021-07-04T06:35:14Z</time>
      </trkpt>
      <trkpt lat="47.44528" lon="-0.61661">
        <ele>56.6</ele>
        <time>2021-07-04T06:35:15Z</time>
      </trkpt>
      <trkpt lat="47.44523" lon="-0.61664">
        <ele>56.6</ele>
        <time>2021-07-04T06:35:16Z</time>
      </trkpt>
      <trkpt lat="47.44514" lon="-0.61672">
        <ele>56.2</ele>
        <time>2021-07-04T06:35:18Z</time>
      </trkpt>
      <trkpt lat="47.44509" lon="-0.61675">
        <ele>56</ele>
        <time>2021-07-04T06:35:19Z</time>
      </trkpt>
      <trkpt lat="47.44504" lon="-0.61675">
        <ele>56</ele>
        <time>2021-07-04T06:35:20Z</time>
      </trkpt>
      <trkpt lat="47.44499" lon="-0.61672">
        <ele>55.8</ele>
        <time>2021-07-04T06:35:21Z</time>
      </trkpt>
      <trkpt lat="47.44495" lon="-0.61667">
        <ele>55.6</ele>
        <time>2021-07-04T06:35:22Z</time>
      </trkpt>
      <trkpt lat="47.44491" lon="-0.61663">
        <ele>55.2</ele>
        <time>2021-07-04T06:35:23Z</time>
      </trkpt>
      <trkpt lat="47.44487" lon="-0.61658">
        <ele>55.2</ele>
        <time>2021-07-04T06:35:24Z</time>
      </trkpt>
      <trkpt lat="47.44485" lon="-0.61657">
        <ele>55.4</ele>
        <time>2021-07-04T06:35:25Z</time>
      </trkpt>
      <trkpt lat="47.44482" lon="-0.61658">
        <ele>55.8</ele>
        <time>2021-07-04T06:35:26Z</time>
      </trkpt>
      <trkpt lat="47.44477" lon="-0.61662">
        <ele>56.6</ele>
        <time>2021-07-04T06:35:28Z</time>
      </trkpt>
      <trkpt lat="47.44473" lon="-0.61668">
        <ele>57</ele>
        <time>2021-07-04T06:35:30Z</time>
      </trkpt>
      <trkpt lat="47.44468" lon="-0.61676">
        <ele>56.4</ele>
        <time>2021-07-04T06:35:32Z</time>
      </trkpt>
      <trkpt lat="47.44466" lon="-0.6168">
        <ele>56.4</ele>
        <time>2021-07-04T06:35:33Z</time>
      </trkpt>
      <trkpt lat="47.44462" lon="-0.61684">
        <ele>56.6</ele>
        <time>2021-07-04T06:35:34Z</time>
      </trkpt>
      <trkpt lat="47.44456" lon="-0.6169">
        <ele>56.6</ele>
        <time>2021-07-04T06:35:36Z</time>
      </trkpt>
      <trkpt lat="47.4445" lon="-0.61697">
        <ele>56.8</ele>
        <time>2021-07-04T06:35:38Z</time>
      </trkpt>
      <trkpt lat="47.44447" lon="-0.61701">
        <ele>57</ele>
        <time>2021-07-04T06:35:39Z</time>
      </trkpt>
      <trkpt lat="47.44445" lon="-0.61705">
        <ele>57.2</ele>
        <time>2021-07-04T06:35:40Z</time>
      </trkpt>
      <trkpt lat="47.4444" lon="-0.61715">
        <ele>57.4</ele>
        <time>2021-07-04T06:35:42Z</time>
      </trkpt>
      <trkpt lat="47.44438" lon="-0.61726">
        <ele>57.4</ele>
        <time>2021-07-04T06:35:44Z</time>
      </trkpt>
      <trkpt lat="47.44435" lon="-0.61735">
        <ele>58.2</ele>
        <time>2021-07-04T06:35:46Z</time>
      </trkpt>
      <trkpt lat="47.44434" lon="-0.6174">
        <ele>58.4</ele>
        <time>2021-07-04T06:35:47Z</time>
      </trkpt>
      <trkpt lat="47.44431" lon="-0.61745">
        <ele>58.6</ele>
        <time>2021-07-04T06:35:48Z</time>
      </trkpt>
      <trkpt lat="47.44428" lon="-0.61747">
        <ele>58.6</ele>
        <time>2021-07-04T06:35:49Z</time>
      </trkpt>
      <trkpt lat="47.44424" lon="-0.61747">
        <ele>58.6</ele>
        <time>2021-07-04T06:35:50Z</time>
      </trkpt>
      <trkpt lat="47.44415" lon="-0.61746">
        <ele>59</ele>
        <time>2021-07-04T06:35:52Z</time>
      </trkpt>
      <trkpt lat="47.44406" lon="-0.61746">
        <ele>59.4</ele>
        <time>2021-07-04T06:35:54Z</time>
      </trkpt>
      <trkpt lat="47.44399" lon="-0.61746">
        <ele>59.6</ele>
        <time>2021-07-04T06:35:56Z</time>
      </trkpt>
      <trkpt lat="47.44396" lon="-0.6175">
        <ele>59.6</ele>
        <time>2021-07-04T06:35:57Z</time>
      </trkpt>
      <trkpt lat="47.44395" lon="-0.61754">
        <ele>59.8</ele>
        <time>2021-07-04T06:35:58Z</time>
      </trkpt>
      <trkpt lat="47.44395" lon="-0.61766">
        <ele>60.2</ele>
        <time>2021-07-04T06:36:00Z</time>
      </trkpt>
      <trkpt lat="47.44391" lon="-0.61775">
        <ele>60.6</ele>
        <time>2021-07-04T06:36:02Z</time>
      </trkpt>
      <trkpt lat="47.44386" lon="-0.61783">
        <ele>60.8</ele>
        <time>2021-07-04T06:36:04Z</time>
      </trkpt>
      <trkpt lat="47.44383" lon="-0.61786">
        <ele>60.8</ele>
        <time>2021-07-04T06:36:05Z</time>
      </trkpt>
      <trkpt lat="47.4438" lon="-0.6179">
        <ele>61.2</ele>
        <time>2021-07-04T06:36:06Z</time>
      </trkpt>
      <trkpt lat="47.44376" lon="-0.61792">
        <ele>62</ele>
        <time>2021-07-04T06:36:07Z</time>
      </trkpt>
      <trkpt lat="47.44373" lon="-0.61795">
        <ele>62.2</ele>
        <time>2021-07-04T06:36:08Z</time>
      </trkpt>
      <trkpt lat="47.44367" lon="-0.61801">
        <ele>62.6</ele>
        <time>2021-07-04T06:36:10Z</time>
      </trkpt>
      <trkpt lat="47.44364" lon="-0.61803">
        <ele>63</ele>
        <time>2021-07-04T06:36:11Z</time>
      </trkpt>
      <trkpt lat="47.44361" lon="-0.61806">
        <ele>63.2</ele>
        <time>2021-07-04T06:36:12Z</time>
      </trkpt>
      <trkpt lat="47.44355" lon="-0.61811">
        <ele>63.8</ele>
        <time>2021-07-04T06:36:14Z</time>
      </trkpt>
      <trkpt lat="47.44349" lon="-0.61815">
        <ele>64.2</ele>
        <time>2021-07-04T06:36:16Z</time>
      </trkpt>
      <trkpt lat="47.44346" lon="-0.61814">
        <ele>64.8</ele>
        <time>2021-07-04T06:36:17Z</time>
      </trkpt>
      <trkpt lat="47.44344" lon="-0.61813">
        <ele>65.2</ele>
        <time>2021-07-04T06:36:18Z</time>
      </trkpt>
      <trkpt lat="47.44342" lon="-0.6181">
        <ele>66</ele>
        <time>2021-07-04T06:36:19Z</time>
      </trkpt>
      <trkpt lat="47.44341" lon="-0.61806">
        <ele>66.2</ele>
        <time>2021-07-04T06:36:20Z</time>
      </trkpt>
      <trkpt lat="47.44336" lon="-0.61798">
        <ele>66.4</ele>
        <time>2021-07-04T06:36:22Z</time>
      </trkpt>
      <trkpt lat="47.44331" lon="-0.6179">
        <ele>66.6</ele>
        <time>2021-07-04T06:36:24Z</time>
      </trkpt>
      <trkpt lat="47.44328" lon="-0.61786">
        <ele>66.8</ele>
        <time>2021-07-04T06:36:25Z</time>
      </trkpt>
      <trkpt lat="47.44325" lon="-0.61783">
        <ele>66.8</ele>
        <time>2021-07-04T06:36:26Z</time>
      </trkpt>
      <trkpt lat="47.44319" lon="-0.61777">
        <ele>66.8</ele>
        <time>2021-07-04T06:36:28Z</time>
      </trkpt>
      <trkpt lat="47.44315" lon="-0.61775">
        <ele>66.8</ele>
        <time>2021-07-04T06:36:29Z</time>
      </trkpt>
      <trkpt lat="47.44312" lon="-0.61771">
        <ele>66.6</ele>
        <time>2021-07-04T06:36:30Z</time>
      </trkpt>
      <trkpt lat="47.44305" lon="-0.61766">
        <ele>66.8</ele>
        <time>2021-07-04T06:36:32Z</time>
      </trkpt>
      <trkpt lat="47.44297" lon="-0.61761">
        <ele>66.8</ele>
        <time>2021-07-04T06:36:34Z</time>
      </trkpt>
      <trkpt lat="47.44289" lon="-0.61756">
        <ele>66.4</ele>
        <time>2021-07-04T06:36:36Z</time>
      </trkpt>
      <trkpt lat="47.44284" lon="-0.61755">
        <ele>66.2</ele>
        <time>2021-07-04T06:36:37Z</time>
      </trkpt>
      <trkpt lat="47.4428" lon="-0.61756">
        <ele>66.2</ele>
        <time>2021-07-04T06:36:38Z</time>
      </trkpt>
      <trkpt lat="47.44276" lon="-0.61757">
        <ele>66.2</ele>
        <time>2021-07-04T06:36:39Z</time>
      </trkpt>
      <trkpt lat="47.44271" lon="-0.61758">
        <ele>66.2</ele>
        <time>2021-07-04T06:36:40Z</time>
      </trkpt>
      <trkpt lat="47.44262" lon="-0.6176">
        <ele>66.2</ele>
        <time>2021-07-04T06:36:42Z</time>
      </trkpt>
      <trkpt lat="47.44252" lon="-0.61761">
        <ele>66.4</ele>
        <time>2021-07-04T06:36:44Z</time>
      </trkpt>
      <trkpt lat="47.44248" lon="-0.61763">
        <ele>66.4</ele>
        <time>2021-07-04T06:36:45Z</time>
      </trkpt>
      <trkpt lat="47.44243" lon="-0.61764">
        <ele>66.4</ele>
        <time>2021-07-04T06:36:46Z</time>
      </trkpt>
      <trkpt lat="47.44233" lon="-0.61767">
        <ele>66.2</ele>
        <time>2021-07-04T06:36:48Z</time>
      </trkpt>
      <trkpt lat="47.44223" lon="-0.6177">
        <ele>66.2</ele>
        <time>2021-07-04T06:36:50Z</time>
      </trkpt>
      <trkpt lat="47.44214" lon="-0.61773">
        <ele>66.4</ele>
        <time>2021-07-04T06:36:52Z</time>
      </trkpt>
      <trkpt lat="47.44209" lon="-0.61775">
        <ele>66.6</ele>
        <time>2021-07-04T06:36:53Z</time>
      </trkpt>
      <trkpt lat="47.44204" lon="-0.61777">
        <ele>66.8</ele>
        <time>2021-07-04T06:36:54Z</time>
      </trkpt>
      <trkpt lat="47.442" lon="-0.61779">
        <ele>67.2</ele>
        <time>2021-07-04T06:36:55Z</time>
      </trkpt>
      <trkpt lat="47.44195" lon="-0.6178">
        <ele>67.2</ele>
        <time>2021-07-04T06:36:56Z</time>
      </trkpt>
      <trkpt lat="47.44187" lon="-0.61783">
        <ele>67.6</ele>
        <time>2021-07-04T06:36:58Z</time>
      </trkpt>
      <trkpt lat="47.44183" lon="-0.61786">
        <ele>67.6</ele>
        <time>2021-07-04T06:36:59Z</time>
      </trkpt>
      <trkpt lat="47.44179" lon="-0.61791">
        <ele>67.6</ele>
        <time>2021-07-04T06:37:00Z</time>
      </trkpt>
      <trkpt lat="47.44171" lon="-0.61799">
        <ele>67.6</ele>
        <time>2021-07-04T06:37:02Z</time>
      </trkpt>
      <trkpt lat="47.44163" lon="-0.61809">
        <ele>67.4</ele>
        <time>2021-07-04T06:37:04Z</time>
      </trkpt>
      <trkpt lat="47.44154" lon="-0.61818">
        <ele>67.2</ele>
        <time>2021-07-04T06:37:06Z</time>
      </trkpt>
      <trkpt lat="47.44145" lon="-0.61828">
        <ele>67.4</ele>
        <time>2021-07-04T06:37:08Z</time>
      </trkpt>
      <trkpt lat="47.44136" lon="-0.61838">
        <ele>67.6</ele>
        <time>2021-07-04T06:37:10Z</time>
      </trkpt>
      <trkpt lat="47.44127" lon="-0.61848">
        <ele>67.4</ele>
        <time>2021-07-04T06:37:12Z</time>
      </trkpt>
      <trkpt lat="47.44123" lon="-0.61852">
        <ele>67.6</ele>
        <time>2021-07-04T06:37:13Z</time>
      </trkpt>
      <trkpt lat="47.44119" lon="-0.61857">
        <ele>67.8</ele>
        <time>2021-07-04T06:37:14Z</time>
      </trkpt>
      <trkpt lat="47.44111" lon="-0.61867">
        <ele>68.2</ele>
        <time>2021-07-04T06:37:16Z</time>
      </trkpt>
      <trkpt lat="47.44103" lon="-0.61877">
        <ele>68.6</ele>
        <time>2021-07-04T06:37:18Z</time>
      </trkpt>
      <trkpt lat="47.44094" lon="-0.61886">
        <ele>68.6</ele>
        <time>2021-07-04T06:37:20Z</time>
      </trkpt>
      <trkpt lat="47.44086" lon="-0.61896">
        <ele>69</ele>
        <time>2021-07-04T06:37:22Z</time>
      </trkpt>
      <trkpt lat="47.44082" lon="-0.619">
        <ele>69.2</ele>
        <time>2021-07-04T06:37:23Z</time>
      </trkpt>
      <trkpt lat="47.44078" lon="-0.61905">
        <ele>69.4</ele>
        <time>2021-07-04T06:37:24Z</time>
      </trkpt>
      <trkpt lat="47.44071" lon="-0.61915">
        <ele>69.6</ele>
        <time>2021-07-04T06:37:26Z</time>
      </trkpt>
      <trkpt lat="47.44065" lon="-0.61925">
        <ele>70.2</ele>
        <time>2021-07-04T06:37:28Z</time>
      </trkpt>
      <trkpt lat="47.44062" lon="-0.61929">
        <ele>70.4</ele>
        <time>2021-07-04T06:37:29Z</time>
      </trkpt>
      <trkpt lat="47.44059" lon="-0.61934">
        <ele>70.4</ele>
        <time>2021-07-04T06:37:30Z</time>
      </trkpt>
      <trkpt lat="47.44053" lon="-0.61945">
        <ele>70.6</ele>
        <time>2021-07-04T06:37:32Z</time>
      </trkpt>
      <trkpt lat="47.44047" lon="-0.61955">
        <ele>70.8</ele>
        <time>2021-07-04T06:37:34Z</time>
      </trkpt>
      <trkpt lat="47.44045" lon="-0.6196">
        <ele>70.8</ele>
        <time>2021-07-04T06:37:35Z</time>
      </trkpt>
      <trkpt lat="47.44043" lon="-0.61964">
        <ele>71</ele>
        <time>2021-07-04T06:37:36Z</time>
      </trkpt>
      <trkpt lat="47.44038" lon="-0.61972">
        <ele>71.2</ele>
        <time>2021-07-04T06:37:38Z</time>
      </trkpt>
      <trkpt lat="47.44034" lon="-0.61982">
        <ele>71.2</ele>
        <time>2021-07-04T06:37:40Z</time>
      </trkpt>
      <trkpt lat="47.4403" lon="-0.61992">
        <ele>71.6</ele>
        <time>2021-07-04T06:37:42Z</time>
      </trkpt>
      <trkpt lat="47.44025" lon="-0.62004">
        <ele>72</ele>
        <time>2021-07-04T06:37:44Z</time>
      </trkpt>
      <trkpt lat="47.4402" lon="-0.62015">
        <ele>72.2</ele>
        <time>2021-07-04T06:37:46Z</time>
      </trkpt>
      <trkpt lat="47.44013" lon="-0.62027">
        <ele>72.2</ele>
        <time>2021-07-04T06:37:48Z</time>
      </trkpt>
      <trkpt lat="47.44007" lon="-0.62037">
        <ele>72.2</ele>
        <time>2021-07-04T06:37:50Z</time>
      </trkpt>
      <trkpt lat="47.44002" lon="-0.62047">
        <ele>72.8</ele>
        <time>2021-07-04T06:37:52Z</time>
      </trkpt>
      <trkpt lat="47.43995" lon="-0.62057">
        <ele>73.2</ele>
        <time>2021-07-04T06:37:54Z</time>
      </trkpt>
      <trkpt lat="47.43988" lon="-0.62067">
        <ele>73.4</ele>
        <time>2021-07-04T06:37:56Z</time>
      </trkpt>
      <trkpt lat="47.4398" lon="-0.62077">
        <ele>73.8</ele>
        <time>2021-07-04T06:37:58Z</time>
      </trkpt>
      <trkpt lat="47.43973" lon="-0.62088">
        <ele>74.4</ele>
        <time>2021-07-04T06:38:00Z</time>
      </trkpt>
      <trkpt lat="47.43965" lon="-0.62099">
        <ele>74.2</ele>
        <time>2021-07-04T06:38:02Z</time>
      </trkpt>
      <trkpt lat="47.43957" lon="-0.62109">
        <ele>74.8</ele>
        <time>2021-07-04T06:38:04Z</time>
      </trkpt>
      <trkpt lat="47.43953" lon="-0.62114">
        <ele>75.2</ele>
        <time>2021-07-04T06:38:05Z</time>
      </trkpt>
      <trkpt lat="47.43949" lon="-0.62119">
        <ele>75.2</ele>
        <time>2021-07-04T06:38:06Z</time>
      </trkpt>
      <trkpt lat="47.43946" lon="-0.62124">
        <ele>75.6</ele>
        <time>2021-07-04T06:38:07Z</time>
      </trkpt>
      <trkpt lat="47.43942" lon="-0.62129">
        <ele>76</ele>
        <time>2021-07-04T06:38:08Z</time>
      </trkpt>
      <trkpt lat="47.43939" lon="-0.62134">
        <ele>76</ele>
        <time>2021-07-04T06:38:09Z</time>
      </trkpt>
      <trkpt lat="47.43935" lon="-0.62139">
        <ele>76</ele>
        <time>2021-07-04T06:38:10Z</time>
      </trkpt>
      <trkpt lat="47.43929" lon="-0.62147">
        <ele>75.8</ele>
        <time>2021-07-04T06:38:12Z</time>
      </trkpt>
      <trkpt lat="47.43926" lon="-0.62152">
        <ele>75.8</ele>
        <time>2021-07-04T06:38:13Z</time>
      </trkpt>
      <trkpt lat="47.43923" lon="-0.62157">
        <ele>76</ele>
        <time>2021-07-04T06:38:14Z</time>
      </trkpt>
      <trkpt lat="47.43915" lon="-0.62166">
        <ele>76.2</ele>
        <time>2021-07-04T06:38:16Z</time>
      </trkpt>
      <trkpt lat="47.43907" lon="-0.62176">
        <ele>76</ele>
        <time>2021-07-04T06:38:18Z</time>
      </trkpt>
      <trkpt lat="47.43902" lon="-0.62182">
        <ele>75.8</ele>
        <time>2021-07-04T06:38:19Z</time>
      </trkpt>
      <trkpt lat="47.43898" lon="-0.62187">
        <ele>75.8</ele>
        <time>2021-07-04T06:38:20Z</time>
      </trkpt>
      <trkpt lat="47.43889" lon="-0.62197">
        <ele>76</ele>
        <time>2021-07-04T06:38:22Z</time>
      </trkpt>
      <trkpt lat="47.43881" lon="-0.62206">
        <ele>76.2</ele>
        <time>2021-07-04T06:38:24Z</time>
      </trkpt>
      <trkpt lat="47.43872" lon="-0.62215">
        <ele>77</ele>
        <time>2021-07-04T06:38:26Z</time>
      </trkpt>
      <trkpt lat="47.43868" lon="-0.62219">
        <ele>77</ele>
        <time>2021-07-04T06:38:27Z</time>
      </trkpt>
      <trkpt lat="47.43864" lon="-0.62224">
        <ele>77</ele>
        <time>2021-07-04T06:38:28Z</time>
      </trkpt>
      <trkpt lat="47.43856" lon="-0.62233">
        <ele>76.8</ele>
        <time>2021-07-04T06:38:30Z</time>
      </trkpt>
      <trkpt lat="47.43848" lon="-0.62243">
        <ele>76.8</ele>
        <time>2021-07-04T06:38:32Z</time>
      </trkpt>
      <trkpt lat="47.4384" lon="-0.62253">
        <ele>77.2</ele>
        <time>2021-07-04T06:38:34Z</time>
      </trkpt>
      <trkpt lat="47.43836" lon="-0.62258">
        <ele>77.4</ele>
        <time>2021-07-04T06:38:35Z</time>
      </trkpt>
      <trkpt lat="47.43832" lon="-0.62263">
        <ele>77.6</ele>
        <time>2021-07-04T06:38:36Z</time>
      </trkpt>
      <trkpt lat="47.43825" lon="-0.62273">
        <ele>78</ele>
        <time>2021-07-04T06:38:38Z</time>
      </trkpt>
      <trkpt lat="47.43817" lon="-0.62284">
        <ele>78.2</ele>
        <time>2021-07-04T06:38:40Z</time>
      </trkpt>
      <trkpt lat="47.43809" lon="-0.62294">
        <ele>78</ele>
        <time>2021-07-04T06:38:42Z</time>
      </trkpt>
      <trkpt lat="47.438" lon="-0.62305">
        <ele>77.6</ele>
        <time>2021-07-04T06:38:44Z</time>
      </trkpt>
      <trkpt lat="47.43793" lon="-0.62317">
        <ele>77.6</ele>
        <time>2021-07-04T06:38:46Z</time>
      </trkpt>
      <trkpt lat="47.43786" lon="-0.62329">
        <ele>77.4</ele>
        <time>2021-07-04T06:38:48Z</time>
      </trkpt>
      <trkpt lat="47.43782" lon="-0.62335">
        <ele>77.2</ele>
        <time>2021-07-04T06:38:49Z</time>
      </trkpt>
      <trkpt lat="47.43778" lon="-0.62341">
        <ele>77.2</ele>
        <time>2021-07-04T06:38:50Z</time>
      </trkpt>
      <trkpt lat="47.43768" lon="-0.62353">
        <ele>76.6</ele>
        <time>2021-07-04T06:38:52Z</time>
      </trkpt>
      <trkpt lat="47.43764" lon="-0.62359">
        <ele>76.2</ele>
        <time>2021-07-04T06:38:53Z</time>
      </trkpt>
      <trkpt lat="47.4376" lon="-0.62365">
        <ele>76.2</ele>
        <time>2021-07-04T06:38:54Z</time>
      </trkpt>
      <trkpt lat="47.43751" lon="-0.62379">
        <ele>75.8</ele>
        <time>2021-07-04T06:38:56Z</time>
      </trkpt>
      <trkpt lat="47.43747" lon="-0.62386">
        <ele>75.8</ele>
        <time>2021-07-04T06:38:57Z</time>
      </trkpt>
      <trkpt lat="47.43743" lon="-0.62394">
        <ele>75.4</ele>
        <time>2021-07-04T06:38:58Z</time>
      </trkpt>
      <trkpt lat="47.43739" lon="-0.624">
        <ele>75.2</ele>
        <time>2021-07-04T06:38:59Z</time>
      </trkpt>
      <trkpt lat="47.43734" lon="-0.62405">
        <ele>75</ele>
        <time>2021-07-04T06:39:00Z</time>
      </trkpt>
      <trkpt lat="47.43724" lon="-0.62418">
        <ele>75.2</ele>
        <time>2021-07-04T06:39:02Z</time>
      </trkpt>
      <trkpt lat="47.43715" lon="-0.62428">
        <ele>74.8</ele>
        <time>2021-07-04T06:39:04Z</time>
      </trkpt>
      <trkpt lat="47.43707" lon="-0.62439">
        <ele>74.6</ele>
        <time>2021-07-04T06:39:06Z</time>
      </trkpt>
      <trkpt lat="47.43703" lon="-0.62446">
        <ele>74</ele>
        <time>2021-07-04T06:39:07Z</time>
      </trkpt>
      <trkpt lat="47.43698" lon="-0.62452">
        <ele>73.8</ele>
        <time>2021-07-04T06:39:08Z</time>
      </trkpt>
      <trkpt lat="47.4369" lon="-0.62466">
        <ele>73.4</ele>
        <time>2021-07-04T06:39:10Z</time>
      </trkpt>
      <trkpt lat="47.4368" lon="-0.62481">
        <ele>72.4</ele>
        <time>2021-07-04T06:39:12Z</time>
      </trkpt>
      <trkpt lat="47.43675" lon="-0.62489">
        <ele>71.4</ele>
        <time>2021-07-04T06:39:13Z</time>
      </trkpt>
      <trkpt lat="47.43669" lon="-0.62496">
        <ele>71</ele>
        <time>2021-07-04T06:39:14Z</time>
      </trkpt>
      <trkpt lat="47.43657" lon="-0.62509">
        <ele>69.4</ele>
        <time>2021-07-04T06:39:16Z</time>
      </trkpt>
      <trkpt lat="47.4365" lon="-0.62516">
        <ele>69.2</ele>
        <time>2021-07-04T06:39:17Z</time>
      </trkpt>
      <trkpt lat="47.43643" lon="-0.62522">
        <ele>68.8</ele>
        <time>2021-07-04T06:39:18Z</time>
      </trkpt>
      <trkpt lat="47.43636" lon="-0.62527">
        <ele>68.2</ele>
        <time>2021-07-04T06:39:19Z</time>
      </trkpt>
      <trkpt lat="47.43629" lon="-0.62533">
        <ele>67.4</ele>
        <time>2021-07-04T06:39:20Z</time>
      </trkpt>
      <trkpt lat="47.43623" lon="-0.6254">
        <ele>66.2</ele>
        <time>2021-07-04T06:39:21Z</time>
      </trkpt>
      <trkpt lat="47.43617" lon="-0.62548">
        <ele>65.4</ele>
        <time>2021-07-04T06:39:22Z</time>
      </trkpt>
      <trkpt lat="47.4361" lon="-0.62556">
        <ele>64.4</ele>
        <time>2021-07-04T06:39:23Z</time>
      </trkpt>
      <trkpt lat="47.43605" lon="-0.62565">
        <ele>64.2</ele>
        <time>2021-07-04T06:39:24Z</time>
      </trkpt>
      <trkpt lat="47.43593" lon="-0.62582">
        <ele>64.2</ele>
        <time>2021-07-04T06:39:26Z</time>
      </trkpt>
      <trkpt lat="47.43588" lon="-0.6259">
        <ele>63.2</ele>
        <time>2021-07-04T06:39:27Z</time>
      </trkpt>
      <trkpt lat="47.43581" lon="-0.62598">
        <ele>62</ele>
        <time>2021-07-04T06:39:28Z</time>
      </trkpt>
      <trkpt lat="47.43569" lon="-0.62613">
        <ele>62</ele>
        <time>2021-07-04T06:39:30Z</time>
      </trkpt>
      <trkpt lat="47.43556" lon="-0.62626">
        <ele>62.4</ele>
        <time>2021-07-04T06:39:32Z</time>
      </trkpt>
      <trkpt lat="47.43544" lon="-0.62636">
        <ele>61.8</ele>
        <time>2021-07-04T06:39:34Z</time>
      </trkpt>
      <trkpt lat="47.43532" lon="-0.62647">
        <ele>61.2</ele>
        <time>2021-07-04T06:39:36Z</time>
      </trkpt>
      <trkpt lat="47.43527" lon="-0.62651">
        <ele>61.6</ele>
        <time>2021-07-04T06:39:37Z</time>
      </trkpt>
      <trkpt lat="47.43522" lon="-0.62656">
        <ele>62.2</ele>
        <time>2021-07-04T06:39:38Z</time>
      </trkpt>
      <trkpt lat="47.43519" lon="-0.62661">
        <ele>62.6</ele>
        <time>2021-07-04T06:39:39Z</time>
      </trkpt>
      <trkpt lat="47.43515" lon="-0.62665">
        <ele>63</ele>
        <time>2021-07-04T06:39:40Z</time>
      </trkpt>
      <trkpt lat="47.43511" lon="-0.6267">
        <ele>62.8</ele>
        <time>2021-07-04T06:39:41Z</time>
      </trkpt>
      <trkpt lat="47.43506" lon="-0.62677">
        <ele>62.4</ele>
        <time>2021-07-04T06:39:42Z</time>
      </trkpt>
      <trkpt lat="47.43502" lon="-0.62685">
        <ele>62.6</ele>
        <time>2021-07-04T06:39:43Z</time>
      </trkpt>
      <trkpt lat="47.43498" lon="-0.62692">
        <ele>62.6</ele>
        <time>2021-07-04T06:39:44Z</time>
      </trkpt>
      <trkpt lat="47.43494" lon="-0.62698">
        <ele>61.6</ele>
        <time>2021-07-04T06:39:45Z</time>
      </trkpt>
      <trkpt lat="47.43489" lon="-0.62704">
        <ele>61.2</ele>
        <time>2021-07-04T06:39:46Z</time>
      </trkpt>
      <trkpt lat="47.43484" lon="-0.62711">
        <ele>60.8</ele>
        <time>2021-07-04T06:39:47Z</time>
      </trkpt>
      <trkpt lat="47.43479" lon="-0.62717">
        <ele>60.8</ele>
        <time>2021-07-04T06:39:48Z</time>
      </trkpt>
      <trkpt lat="47.43466" lon="-0.62734">
        <ele>60.2</ele>
        <time>2021-07-04T06:39:50Z</time>
      </trkpt>
      <trkpt lat="47.43454" lon="-0.6275">
        <ele>60</ele>
        <time>2021-07-04T06:39:52Z</time>
      </trkpt>
      <trkpt lat="47.43442" lon="-0.62764">
        <ele>60</ele>
        <time>2021-07-04T06:39:54Z</time>
      </trkpt>
      <trkpt lat="47.4343" lon="-0.62778">
        <ele>59.6</ele>
        <time>2021-07-04T06:39:56Z</time>
      </trkpt>
      <trkpt lat="47.43418" lon="-0.62791">
        <ele>60.4</ele>
        <time>2021-07-04T06:39:58Z</time>
      </trkpt>
      <trkpt lat="47.43412" lon="-0.62797">
        <ele>60.8</ele>
        <time>2021-07-04T06:39:59Z</time>
      </trkpt>
      <trkpt lat="47.43406" lon="-0.62802">
        <ele>60.6</ele>
        <time>2021-07-04T06:40:00Z</time>
      </trkpt>
      <trkpt lat="47.43393" lon="-0.62812">
        <ele>59.8</ele>
        <time>2021-07-04T06:40:02Z</time>
      </trkpt>
      <trkpt lat="47.43386" lon="-0.62816">
        <ele>59.2</ele>
        <time>2021-07-04T06:40:03Z</time>
      </trkpt>
      <trkpt lat="47.43379" lon="-0.62819">
        <ele>59.2</ele>
        <time>2021-07-04T06:40:04Z</time>
      </trkpt>
      <trkpt lat="47.43364" lon="-0.62823">
        <ele>58.8</ele>
        <time>2021-07-04T06:40:06Z</time>
      </trkpt>
      <trkpt lat="47.43357" lon="-0.62824">
        <ele>58.8</ele>
        <time>2021-07-04T06:40:07Z</time>
      </trkpt>
      <trkpt lat="47.43349" lon="-0.62824">
        <ele>58.6</ele>
        <time>2021-07-04T06:40:08Z</time>
      </trkpt>
      <trkpt lat="47.43341" lon="-0.62825">
        <ele>57.6</ele>
        <time>2021-07-04T06:40:09Z</time>
      </trkpt>
      <trkpt lat="47.43334" lon="-0.62826">
        <ele>57</ele>
        <time>2021-07-04T06:40:10Z</time>
      </trkpt>
      <trkpt lat="47.43325" lon="-0.62826">
        <ele>56.4</ele>
        <time>2021-07-04T06:40:11Z</time>
      </trkpt>
      <trkpt lat="47.43318" lon="-0.62827">
        <ele>56</ele>
        <time>2021-07-04T06:40:12Z</time>
      </trkpt>
      <trkpt lat="47.4331" lon="-0.62829">
        <ele>55</ele>
        <time>2021-07-04T06:40:13Z</time>
      </trkpt>
      <trkpt lat="47.43301" lon="-0.6283">
        <ele>54</ele>
        <time>2021-07-04T06:40:14Z</time>
      </trkpt>
      <trkpt lat="47.43285" lon="-0.62835">
        <ele>52.4</ele>
        <time>2021-07-04T06:40:16Z</time>
      </trkpt>
      <trkpt lat="47.43269" lon="-0.62838">
        <ele>50</ele>
        <time>2021-07-04T06:40:18Z</time>
      </trkpt>
      <trkpt lat="47.43262" lon="-0.6284">
        <ele>49</ele>
        <time>2021-07-04T06:40:19Z</time>
      </trkpt>
      <trkpt lat="47.43254" lon="-0.62841">
        <ele>48</ele>
        <time>2021-07-04T06:40:20Z</time>
      </trkpt>
      <trkpt lat="47.43239" lon="-0.62842">
        <ele>47</ele>
        <time>2021-07-04T06:40:22Z</time>
      </trkpt>
      <trkpt lat="47.43232" lon="-0.62843">
        <ele>45.6</ele>
        <time>2021-07-04T06:40:23Z</time>
      </trkpt>
      <trkpt lat="47.43226" lon="-0.62844">
        <ele>44.4</ele>
        <time>2021-07-04T06:40:24Z</time>
      </trkpt>
      <trkpt lat="47.43213" lon="-0.62844">
        <ele>43.2</ele>
        <time>2021-07-04T06:40:26Z</time>
      </trkpt>
      <trkpt lat="47.43206" lon="-0.62845">
        <ele>42</ele>
        <time>2021-07-04T06:40:27Z</time>
      </trkpt>
      <trkpt lat="47.43198" lon="-0.62847">
        <ele>40.8</ele>
        <time>2021-07-04T06:40:28Z</time>
      </trkpt>
      <trkpt lat="47.4319" lon="-0.62848">
        <ele>39.4</ele>
        <time>2021-07-04T06:40:29Z</time>
      </trkpt>
      <trkpt lat="47.43182" lon="-0.62849">
        <ele>38.2</ele>
        <time>2021-07-04T06:40:30Z</time>
      </trkpt>
      <trkpt lat="47.43174" lon="-0.6285">
        <ele>36.2</ele>
        <time>2021-07-04T06:40:31Z</time>
      </trkpt>
      <trkpt lat="47.43167" lon="-0.62853">
        <ele>35.6</ele>
        <time>2021-07-04T06:40:32Z</time>
      </trkpt>
      <trkpt lat="47.43159" lon="-0.62856">
        <ele>34.6</ele>
        <time>2021-07-04T06:40:33Z</time>
      </trkpt>
      <trkpt lat="47.43152" lon="-0.62858">
        <ele>34</ele>
        <time>2021-07-04T06:40:34Z</time>
      </trkpt>
      <trkpt lat="47.43145" lon="-0.62861">
        <ele>33</ele>
        <time>2021-07-04T06:40:35Z</time>
      </trkpt>
      <trkpt lat="47.43139" lon="-0.62863">
        <ele>32.4</ele>
        <time>2021-07-04T06:40:36Z</time>
      </trkpt>
      <trkpt lat="47.43133" lon="-0.62864">
        <ele>31.4</ele>
        <time>2021-07-04T06:40:37Z</time>
      </trkpt>
      <trkpt lat="47.43127" lon="-0.62862">
        <ele>30.8</ele>
        <time>2021-07-04T06:40:38Z</time>
      </trkpt>
      <trkpt lat="47.43122" lon="-0.62861">
        <ele>29.8</ele>
        <time>2021-07-04T06:40:39Z</time>
      </trkpt>
      <trkpt lat="47.43117" lon="-0.62858">
        <ele>28.4</ele>
        <time>2021-07-04T06:40:40Z</time>
      </trkpt>
      <trkpt lat="47.43111" lon="-0.62857">
        <ele>27.6</ele>
        <time>2021-07-04T06:40:41Z</time>
      </trkpt>
      <trkpt lat="47.43106" lon="-0.62858">
        <ele>27</ele>
        <time>2021-07-04T06:40:42Z</time>
      </trkpt>
      <trkpt lat="47.431" lon="-0.62859">
        <ele>26.6</ele>
        <time>2021-07-04T06:40:43Z</time>
      </trkpt>
      <trkpt lat="47.43094" lon="-0.6286">
        <ele>26.2</ele>
        <time>2021-07-04T06:40:44Z</time>
      </trkpt>
      <trkpt lat="47.43089" lon="-0.62861">
        <ele>26</ele>
        <time>2021-07-04T06:40:45Z</time>
      </trkpt>
      <trkpt lat="47.43084" lon="-0.62862">
        <ele>26.2</ele>
        <time>2021-07-04T06:40:46Z</time>
      </trkpt>
      <trkpt lat="47.43075" lon="-0.62863">
        <ele>26.8</ele>
        <time>2021-07-04T06:40:48Z</time>
      </trkpt>
      <trkpt lat="47.43065" lon="-0.62863">
        <ele>26.4</ele>
        <time>2021-07-04T06:40:50Z</time>
      </trkpt>
      <trkpt lat="47.43055" lon="-0.62863">
        <ele>26.6</ele>
        <time>2021-07-04T06:40:52Z</time>
      </trkpt>
      <trkpt lat="47.43049" lon="-0.62863">
        <ele>27.2</ele>
        <time>2021-07-04T06:40:53Z</time>
      </trkpt>
      <trkpt lat="47.43043" lon="-0.62863">
        <ele>27.8</ele>
        <time>2021-07-04T06:40:54Z</time>
      </trkpt>
      <trkpt lat="47.43037" lon="-0.62863">
        <ele>28.6</ele>
        <time>2021-07-04T06:40:55Z</time>
      </trkpt>
      <trkpt lat="47.43033" lon="-0.62864">
        <ele>29.4</ele>
        <time>2021-07-04T06:40:56Z</time>
      </trkpt>
      <trkpt lat="47.43028" lon="-0.62865">
        <ele>30.4</ele>
        <time>2021-07-04T06:40:57Z</time>
      </trkpt>
      <trkpt lat="47.43024" lon="-0.62866">
        <ele>31.2</ele>
        <time>2021-07-04T06:40:58Z</time>
      </trkpt>
      <trkpt lat="47.4302" lon="-0.62868">
        <ele>31.6</ele>
        <time>2021-07-04T06:40:59Z</time>
      </trkpt>
      <trkpt lat="47.43015" lon="-0.62869">
        <ele>32</ele>
        <time>2021-07-04T06:41:00Z</time>
      </trkpt>
      <trkpt lat="47.4301" lon="-0.62869">
        <ele>32.8</ele>
        <time>2021-07-04T06:41:01Z</time>
      </trkpt>
      <trkpt lat="47.43006" lon="-0.62871">
        <ele>33.4</ele>
        <time>2021-07-04T06:41:02Z</time>
      </trkpt>
      <trkpt lat="47.42998" lon="-0.62874">
        <ele>33.6</ele>
        <time>2021-07-04T06:41:04Z</time>
      </trkpt>
      <trkpt lat="47.42989" lon="-0.62877">
        <ele>33.8</ele>
        <time>2021-07-04T06:41:06Z</time>
      </trkpt>
      <trkpt lat="47.42985" lon="-0.6288">
        <ele>34</ele>
        <time>2021-07-04T06:41:07Z</time>
      </trkpt>
      <trkpt lat="47.4298" lon="-0.62883">
        <ele>34</ele>
        <time>2021-07-04T06:41:08Z</time>
      </trkpt>
      <trkpt lat="47.42976" lon="-0.62886">
        <ele>34.2</ele>
        <time>2021-07-04T06:41:09Z</time>
      </trkpt>
      <trkpt lat="47.42971" lon="-0.62888">
        <ele>34.2</ele>
        <time>2021-07-04T06:41:10Z</time>
      </trkpt>
      <trkpt lat="47.42959" lon="-0.62895">
        <ele>34.4</ele>
        <time>2021-07-04T06:41:12Z</time>
      </trkpt>
      <trkpt lat="47.42948" lon="-0.62902">
        <ele>35</ele>
        <time>2021-07-04T06:41:14Z</time>
      </trkpt>
      <trkpt lat="47.42938" lon="-0.6291">
        <ele>35.4</ele>
        <time>2021-07-04T06:41:16Z</time>
      </trkpt>
      <trkpt lat="47.42927" lon="-0.62918">
        <ele>35.8</ele>
        <time>2021-07-04T06:41:18Z</time>
      </trkpt>
      <trkpt lat="47.42922" lon="-0.62923">
        <ele>35.8</ele>
        <time>2021-07-04T06:41:19Z</time>
      </trkpt>
      <trkpt lat="47.42916" lon="-0.62929">
        <ele>35.8</ele>
        <time>2021-07-04T06:41:20Z</time>
      </trkpt>
      <trkpt lat="47.42911" lon="-0.62934">
        <ele>35.8</ele>
        <time>2021-07-04T06:41:21Z</time>
      </trkpt>
      <trkpt lat="47.42906" lon="-0.6294">
        <ele>36</ele>
        <time>2021-07-04T06:41:22Z</time>
      </trkpt>
      <trkpt lat="47.42902" lon="-0.62946">
        <ele>36.2</ele>
        <time>2021-07-04T06:41:23Z</time>
      </trkpt>
      <trkpt lat="47.42899" lon="-0.62952">
        <ele>36.6</ele>
        <time>2021-07-04T06:41:24Z</time>
      </trkpt>
      <trkpt lat="47.42895" lon="-0.62959">
        <ele>36.8</ele>
        <time>2021-07-04T06:41:25Z</time>
      </trkpt>
      <trkpt lat="47.42891" lon="-0.62965">
        <ele>37</ele>
        <time>2021-07-04T06:41:26Z</time>
      </trkpt>
      <trkpt lat="47.42883" lon="-0.62978">
        <ele>37.2</ele>
        <time>2021-07-04T06:41:28Z</time>
      </trkpt>
      <trkpt lat="47.42873" lon="-0.62989">
        <ele>37.4</ele>
        <time>2021-07-04T06:41:30Z</time>
      </trkpt>
      <trkpt lat="47.42863" lon="-0.62999">
        <ele>37.2</ele>
        <time>2021-07-04T06:41:32Z</time>
      </trkpt>
      <trkpt lat="47.42858" lon="-0.63003">
        <ele>37</ele>
        <time>2021-07-04T06:41:33Z</time>
      </trkpt>
      <trkpt lat="47.42851" lon="-0.63006">
        <ele>37</ele>
        <time>2021-07-04T06:41:34Z</time>
      </trkpt>
      <trkpt lat="47.42845" lon="-0.6301">
        <ele>37.2</ele>
        <time>2021-07-04T06:41:35Z</time>
      </trkpt>
      <trkpt lat="47.42838" lon="-0.63012">
        <ele>37.4</ele>
        <time>2021-07-04T06:41:36Z</time>
      </trkpt>
      <trkpt lat="47.42824" lon="-0.63017">
        <ele>37.6</ele>
        <time>2021-07-04T06:41:38Z</time>
      </trkpt>
      <trkpt lat="47.42811" lon="-0.63019">
        <ele>37.4</ele>
        <time>2021-07-04T06:41:40Z</time>
      </trkpt>
      <trkpt lat="47.42798" lon="-0.63012">
        <ele>37.6</ele>
        <time>2021-07-04T06:41:42Z</time>
      </trkpt>
      <trkpt lat="47.42792" lon="-0.63007">
        <ele>37.8</ele>
        <time>2021-07-04T06:41:43Z</time>
      </trkpt>
      <trkpt lat="47.42787" lon="-0.63001">
        <ele>37.8</ele>
        <time>2021-07-04T06:41:44Z</time>
      </trkpt>
      <trkpt lat="47.42781" lon="-0.62995">
        <ele>37.6</ele>
        <time>2021-07-04T06:41:45Z</time>
      </trkpt>
      <trkpt lat="47.42776" lon="-0.62989">
        <ele>37.6</ele>
        <time>2021-07-04T06:41:46Z</time>
      </trkpt>
      <trkpt lat="47.42766" lon="-0.62977">
        <ele>37.8</ele>
        <time>2021-07-04T06:41:48Z</time>
      </trkpt>
      <trkpt lat="47.4276" lon="-0.62972">
        <ele>38</ele>
        <time>2021-07-04T06:41:49Z</time>
      </trkpt>
      <trkpt lat="47.42755" lon="-0.62967">
        <ele>38</ele>
        <time>2021-07-04T06:41:50Z</time>
      </trkpt>
      <trkpt lat="47.4275" lon="-0.62962">
        <ele>38.4</ele>
        <time>2021-07-04T06:41:51Z</time>
      </trkpt>
      <trkpt lat="47.42744" lon="-0.62958">
        <ele>38.6</ele>
        <time>2021-07-04T06:41:52Z</time>
      </trkpt>
      <trkpt lat="47.42732" lon="-0.62955">
        <ele>38</ele>
        <time>2021-07-04T06:41:54Z</time>
      </trkpt>
      <trkpt lat="47.4272" lon="-0.6296">
        <ele>38.4</ele>
        <time>2021-07-04T06:41:56Z</time>
      </trkpt>
      <trkpt lat="47.42714" lon="-0.62963">
        <ele>38.8</ele>
        <time>2021-07-04T06:41:57Z</time>
      </trkpt>
      <trkpt lat="47.42709" lon="-0.62967">
        <ele>39.2</ele>
        <time>2021-07-04T06:41:58Z</time>
      </trkpt>
      <trkpt lat="47.42703" lon="-0.62971">
        <ele>39.6</ele>
        <time>2021-07-04T06:41:59Z</time>
      </trkpt>
      <trkpt lat="47.42698" lon="-0.62975">
        <ele>40</ele>
        <time>2021-07-04T06:42:00Z</time>
      </trkpt>
      <trkpt lat="47.42687" lon="-0.62981">
        <ele>40</ele>
        <time>2021-07-04T06:42:02Z</time>
      </trkpt>
      <trkpt lat="47.42681" lon="-0.62984">
        <ele>40</ele>
        <time>2021-07-04T06:42:03Z</time>
      </trkpt>
      <trkpt lat="47.42676" lon="-0.62987">
        <ele>40.2</ele>
        <time>2021-07-04T06:42:04Z</time>
      </trkpt>
      <trkpt lat="47.42665" lon="-0.62992">
        <ele>40.4</ele>
        <time>2021-07-04T06:42:06Z</time>
      </trkpt>
      <trkpt lat="47.4266" lon="-0.62994">
        <ele>40.8</ele>
        <time>2021-07-04T06:42:07Z</time>
      </trkpt>
      <trkpt lat="47.42655" lon="-0.62997">
        <ele>40.8</ele>
        <time>2021-07-04T06:42:08Z</time>
      </trkpt>
      <trkpt lat="47.42652" lon="-0.63001">
        <ele>41.2</ele>
        <time>2021-07-04T06:42:09Z</time>
      </trkpt>
      <trkpt lat="47.4265" lon="-0.63007">
        <ele>41.8</ele>
        <time>2021-07-04T06:42:10Z</time>
      </trkpt>
      <trkpt lat="47.4265" lon="-0.63013">
        <ele>42.2</ele>
        <time>2021-07-04T06:42:11Z</time>
      </trkpt>
      <trkpt lat="47.42651" lon="-0.63018">
        <ele>42.8</ele>
        <time>2021-07-04T06:42:12Z</time>
      </trkpt>
      <trkpt lat="47.42652" lon="-0.63024">
        <ele>43</ele>
        <time>2021-07-04T06:42:13Z</time>
      </trkpt>
      <trkpt lat="47.42653" lon="-0.6303">
        <ele>43.2</ele>
        <time>2021-07-04T06:42:14Z</time>
      </trkpt>
      <trkpt lat="47.42656" lon="-0.63041">
        <ele>43.2</ele>
        <time>2021-07-04T06:42:17Z</time>
      </trkpt>
      <trkpt lat="47.42659" lon="-0.63057">
        <ele>43.8</ele>
        <time>2021-07-04T06:42:20Z</time>
      </trkpt>
      <trkpt lat="47.4266" lon="-0.63063">
        <ele>43.8</ele>
        <time>2021-07-04T06:42:21Z</time>
      </trkpt>
      <trkpt lat="47.42663" lon="-0.63074">
        <ele>43.8</ele>
        <time>2021-07-04T06:42:23Z</time>
      </trkpt>
      <trkpt lat="47.42665" lon="-0.63085">
        <ele>44</ele>
        <time>2021-07-04T06:42:25Z</time>
      </trkpt>
      <trkpt lat="47.42668" lon="-0.63097">
        <ele>44.2</ele>
        <time>2021-07-04T06:42:27Z</time>
      </trkpt>
      <trkpt lat="47.42669" lon="-0.63102">
        <ele>44.2</ele>
        <time>2021-07-04T06:42:28Z</time>
      </trkpt>
      <trkpt lat="47.4267" lon="-0.63108">
        <ele>44.2</ele>
        <time>2021-07-04T06:42:29Z</time>
      </trkpt>
      <trkpt lat="47.42672" lon="-0.63119">
        <ele>44.6</ele>
        <time>2021-07-04T06:42:31Z</time>
      </trkpt>
      <trkpt lat="47.42674" lon="-0.6313">
        <ele>45.2</ele>
        <time>2021-07-04T06:42:33Z</time>
      </trkpt>
      <trkpt lat="47.42677" lon="-0.63141">
        <ele>45.2</ele>
        <time>2021-07-04T06:42:35Z</time>
      </trkpt>
      <trkpt lat="47.42679" lon="-0.63153">
        <ele>45.2</ele>
        <time>2021-07-04T06:42:37Z</time>
      </trkpt>
      <trkpt lat="47.4268" lon="-0.63159">
        <ele>45</ele>
        <time>2021-07-04T06:42:38Z</time>
      </trkpt>
      <trkpt lat="47.42682" lon="-0.63165">
        <ele>45</ele>
        <time>2021-07-04T06:42:39Z</time>
      </trkpt>
      <trkpt lat="47.42684" lon="-0.63177">
        <ele>45.4</ele>
        <time>2021-07-04T06:42:41Z</time>
      </trkpt>
      <trkpt lat="47.42687" lon="-0.63188">
        <ele>46</ele>
        <time>2021-07-04T06:42:43Z</time>
      </trkpt>
      <trkpt lat="47.4269" lon="-0.63199">
        <ele>46</ele>
        <time>2021-07-04T06:42:45Z</time>
      </trkpt>
      <trkpt lat="47.42693" lon="-0.63211">
        <ele>46.4</ele>
        <time>2021-07-04T06:42:47Z</time>
      </trkpt>
      <trkpt lat="47.42695" lon="-0.63223">
        <ele>46.4</ele>
        <time>2021-07-04T06:42:49Z</time>
      </trkpt>
      <trkpt lat="47.42698" lon="-0.63235">
        <ele>46.6</ele>
        <time>2021-07-04T06:42:51Z</time>
      </trkpt>
      <trkpt lat="47.427" lon="-0.63242">
        <ele>46.8</ele>
        <time>2021-07-04T06:42:52Z</time>
      </trkpt>
      <trkpt lat="47.42702" lon="-0.63248">
        <ele>47.2</ele>
        <time>2021-07-04T06:42:53Z</time>
      </trkpt>
      <trkpt lat="47.42705" lon="-0.63261">
        <ele>47.6</ele>
        <time>2021-07-04T06:42:55Z</time>
      </trkpt>
      <trkpt lat="47.42708" lon="-0.63275">
        <ele>48.2</ele>
        <time>2021-07-04T06:42:57Z</time>
      </trkpt>
      <trkpt lat="47.42711" lon="-0.63289">
        <ele>48.4</ele>
        <time>2021-07-04T06:42:59Z</time>
      </trkpt>
      <trkpt lat="47.42714" lon="-0.63303">
        <ele>48.6</ele>
        <time>2021-07-04T06:43:01Z</time>
      </trkpt>
      <trkpt lat="47.42718" lon="-0.63316">
        <ele>48.8</ele>
        <time>2021-07-04T06:43:03Z</time>
      </trkpt>
      <trkpt lat="47.42722" lon="-0.63329">
        <ele>49</ele>
        <time>2021-07-04T06:43:05Z</time>
      </trkpt>
      <trkpt lat="47.42727" lon="-0.63341">
        <ele>49.2</ele>
        <time>2021-07-04T06:43:07Z</time>
      </trkpt>
      <trkpt lat="47.4273" lon="-0.63347">
        <ele>49.4</ele>
        <time>2021-07-04T06:43:08Z</time>
      </trkpt>
      <trkpt lat="47.42733" lon="-0.63352">
        <ele>49.8</ele>
        <time>2021-07-04T06:43:09Z</time>
      </trkpt>
      <trkpt lat="47.42736" lon="-0.63358">
        <ele>49.8</ele>
        <time>2021-07-04T06:43:10Z</time>
      </trkpt>
      <trkpt lat="47.42738" lon="-0.63364">
        <ele>50</ele>
        <time>2021-07-04T06:43:11Z</time>
      </trkpt>
      <trkpt lat="47.42745" lon="-0.63376">
        <ele>50</ele>
        <time>2021-07-04T06:43:13Z</time>
      </trkpt>
      <trkpt lat="47.42751" lon="-0.63388">
        <ele>50.2</ele>
        <time>2021-07-04T06:43:15Z</time>
      </trkpt>
      <trkpt lat="47.42758" lon="-0.634">
        <ele>50</ele>
        <time>2021-07-04T06:43:17Z</time>
      </trkpt>
      <trkpt lat="47.42764" lon="-0.63412">
        <ele>49.8</ele>
        <time>2021-07-04T06:43:19Z</time>
      </trkpt>
      <trkpt lat="47.4277" lon="-0.63424">
        <ele>50.2</ele>
        <time>2021-07-04T06:43:21Z</time>
      </trkpt>
      <trkpt lat="47.42777" lon="-0.63435">
        <ele>50</ele>
        <time>2021-07-04T06:43:23Z</time>
      </trkpt>
      <trkpt lat="47.4278" lon="-0.63441">
        <ele>49.8</ele>
        <time>2021-07-04T06:43:24Z</time>
      </trkpt>
      <trkpt lat="47.42783" lon="-0.63447">
        <ele>49.8</ele>
        <time>2021-07-04T06:43:25Z</time>
      </trkpt>
      <trkpt lat="47.42789" lon="-0.63457">
        <ele>49.8</ele>
        <time>2021-07-04T06:43:27Z</time>
      </trkpt>
      <trkpt lat="47.42793" lon="-0.63462">
        <ele>49.6</ele>
        <time>2021-07-04T06:43:28Z</time>
      </trkpt>
      <trkpt lat="47.42795" lon="-0.63467">
        <ele>49.6</ele>
        <time>2021-07-04T06:43:29Z</time>
      </trkpt>
      <trkpt lat="47.42797" lon="-0.63471">
        <ele>49.4</ele>
        <time>2021-07-04T06:43:30Z</time>
      </trkpt>
      <trkpt lat="47.42797" lon="-0.63474">
        <ele>49.8</ele>
        <time>2021-07-04T06:43:31Z</time>
      </trkpt>
      <trkpt lat="47.42794" lon="-0.63477">
        <ele>50</ele>
        <time>2021-07-04T06:43:32Z</time>
      </trkpt>
      <trkpt lat="47.4279" lon="-0.6348">
        <ele>50</ele>
        <time>2021-07-04T06:43:33Z</time>
      </trkpt>
      <trkpt lat="47.42782" lon="-0.63485">
        <ele>50</ele>
        <time>2021-07-04T06:43:35Z</time>
      </trkpt>
      <trkpt lat="47.42778" lon="-0.63487">
        <ele>49.8</ele>
        <time>2021-07-04T06:43:36Z</time>
      </trkpt>
      <trkpt lat="47.42774" lon="-0.63489">
        <ele>49.6</ele>
        <time>2021-07-04T06:43:37Z</time>
      </trkpt>
      <trkpt lat="47.42765" lon="-0.63494">
        <ele>50</ele>
        <time>2021-07-04T06:43:39Z</time>
      </trkpt>
      <trkpt lat="47.42757" lon="-0.63499">
        <ele>50.6</ele>
        <time>2021-07-04T06:43:41Z</time>
      </trkpt>
      <trkpt lat="47.42749" lon="-0.63505">
        <ele>50.8</ele>
        <time>2021-07-04T06:43:43Z</time>
      </trkpt>
      <trkpt lat="47.42741" lon="-0.6351">
        <ele>51.8</ele>
        <time>2021-07-04T06:43:45Z</time>
      </trkpt>
      <trkpt lat="47.42734" lon="-0.63514">
        <ele>51.8</ele>
        <time>2021-07-04T06:43:47Z</time>
      </trkpt>
      <trkpt lat="47.42731" lon="-0.63516">
        <ele>52</ele>
        <time>2021-07-04T06:43:48Z</time>
      </trkpt>
      <trkpt lat="47.42727" lon="-0.63519">
        <ele>52.2</ele>
        <time>2021-07-04T06:43:49Z</time>
      </trkpt>
      <trkpt lat="47.42721" lon="-0.63523">
        <ele>52.6</ele>
        <time>2021-07-04T06:43:51Z</time>
      </trkpt>
      <trkpt lat="47.42715" lon="-0.63527">
        <ele>53</ele>
        <time>2021-07-04T06:43:53Z</time>
      </trkpt>
      <trkpt lat="47.4271" lon="-0.63531">
        <ele>53.4</ele>
        <time>2021-07-04T06:43:55Z</time>
      </trkpt>
      <trkpt lat="47.42709" lon="-0.63534">
        <ele>53.4</ele>
        <time>2021-07-04T06:43:56Z</time>
      </trkpt>
      <trkpt lat="47.42708" lon="-0.63539">
        <ele>53.8</ele>
        <time>2021-07-04T06:43:57Z</time>
      </trkpt>
      <trkpt lat="47.42708" lon="-0.63544">
        <ele>54.2</ele>
        <time>2021-07-04T06:43:58Z</time>
      </trkpt>
      <trkpt lat="47.42709" lon="-0.6355">
        <ele>54.6</ele>
        <time>2021-07-04T06:43:59Z</time>
      </trkpt>
      <trkpt lat="47.4271" lon="-0.63561">
        <ele>54.6</ele>
        <time>2021-07-04T06:44:01Z</time>
      </trkpt>
      <trkpt lat="47.4271" lon="-0.63567">
        <ele>54.4</ele>
        <time>2021-07-04T06:44:02Z</time>
      </trkpt>
      <trkpt lat="47.4271" lon="-0.63572">
        <ele>54.6</ele>
        <time>2021-07-04T06:44:03Z</time>
      </trkpt>
      <trkpt lat="47.42709" lon="-0.63584">
        <ele>54.6</ele>
        <time>2021-07-04T06:44:05Z</time>
      </trkpt>
      <trkpt lat="47.42708" lon="-0.63597">
        <ele>54.8</ele>
        <time>2021-07-04T06:44:07Z</time>
      </trkpt>
      <trkpt lat="47.42707" lon="-0.63603">
        <ele>55</ele>
        <time>2021-07-04T06:44:08Z</time>
      </trkpt>
      <trkpt lat="47.42706" lon="-0.63609">
        <ele>55</ele>
        <time>2021-07-04T06:44:09Z</time>
      </trkpt>
      <trkpt lat="47.42704" lon="-0.63622">
        <ele>55</ele>
        <time>2021-07-04T06:44:11Z</time>
      </trkpt>
      <trkpt lat="47.42703" lon="-0.63634">
        <ele>55</ele>
        <time>2021-07-04T06:44:13Z</time>
      </trkpt>
      <trkpt lat="47.42701" lon="-0.63648">
        <ele>55.2</ele>
        <time>2021-07-04T06:44:15Z</time>
      </trkpt>
      <trkpt lat="47.42701" lon="-0.63654">
        <ele>55.2</ele>
        <time>2021-07-04T06:44:16Z</time>
      </trkpt>
      <trkpt lat="47.427" lon="-0.63662">
        <ele>55.4</ele>
        <time>2021-07-04T06:44:17Z</time>
      </trkpt>
      <trkpt lat="47.42698" lon="-0.63675">
        <ele>55.6</ele>
        <time>2021-07-04T06:44:19Z</time>
      </trkpt>
      <trkpt lat="47.42696" lon="-0.63688">
        <ele>55.8</ele>
        <time>2021-07-04T06:44:21Z</time>
      </trkpt>
      <trkpt lat="47.42694" lon="-0.63702">
        <ele>55.8</ele>
        <time>2021-07-04T06:44:23Z</time>
      </trkpt>
      <trkpt lat="47.42694" lon="-0.63709">
        <ele>55.8</ele>
        <time>2021-07-04T06:44:24Z</time>
      </trkpt>
      <trkpt lat="47.42694" lon="-0.63716">
        <ele>56</ele>
        <time>2021-07-04T06:44:25Z</time>
      </trkpt>
      <trkpt lat="47.42694" lon="-0.63729">
        <ele>56</ele>
        <time>2021-07-04T06:44:27Z</time>
      </trkpt>
      <trkpt lat="47.42692" lon="-0.63736">
        <ele>56.2</ele>
        <time>2021-07-04T06:44:28Z</time>
      </trkpt>
      <trkpt lat="47.42691" lon="-0.63744">
        <ele>56.2</ele>
        <time>2021-07-04T06:44:29Z</time>
      </trkpt>
      <trkpt lat="47.4269" lon="-0.63751">
        <ele>56.4</ele>
        <time>2021-07-04T06:44:30Z</time>
      </trkpt>
      <trkpt lat="47.42689" lon="-0.63759">
        <ele>56.8</ele>
        <time>2021-07-04T06:44:31Z</time>
      </trkpt>
      <trkpt lat="47.42687" lon="-0.63775">
        <ele>56.8</ele>
        <time>2021-07-04T06:44:33Z</time>
      </trkpt>
      <trkpt lat="47.42686" lon="-0.63793">
        <ele>56.8</ele>
        <time>2021-07-04T06:44:35Z</time>
      </trkpt>
      <trkpt lat="47.42687" lon="-0.6381">
        <ele>56.2</ele>
        <time>2021-07-04T06:44:37Z</time>
      </trkpt>
      <trkpt lat="47.42687" lon="-0.63827">
        <ele>56.2</ele>
        <time>2021-07-04T06:44:39Z</time>
      </trkpt>
      <trkpt lat="47.42687" lon="-0.63835">
        <ele>56.2</ele>
        <time>2021-07-04T06:44:40Z</time>
      </trkpt>
      <trkpt lat="47.42687" lon="-0.63843">
        <ele>55.8</ele>
        <time>2021-07-04T06:44:41Z</time>
      </trkpt>
      <trkpt lat="47.42686" lon="-0.63859">
        <ele>55.2</ele>
        <time>2021-07-04T06:44:43Z</time>
      </trkpt>
      <trkpt lat="47.42686" lon="-0.63877">
        <ele>55.6</ele>
        <time>2021-07-04T06:44:45Z</time>
      </trkpt>
      <trkpt lat="47.42686" lon="-0.63886">
        <ele>55.2</ele>
        <time>2021-07-04T06:44:46Z</time>
      </trkpt>
      <trkpt lat="47.42685" lon="-0.63894">
        <ele>54.8</ele>
        <time>2021-07-04T06:44:47Z</time>
      </trkpt>
      <trkpt lat="47.42684" lon="-0.63903">
        <ele>54.8</ele>
        <time>2021-07-04T06:44:48Z</time>
      </trkpt>
      <trkpt lat="47.42683" lon="-0.63912">
        <ele>54.6</ele>
        <time>2021-07-04T06:44:49Z</time>
      </trkpt>
      <trkpt lat="47.42681" lon="-0.6393">
        <ele>53.8</ele>
        <time>2021-07-04T06:44:51Z</time>
      </trkpt>
      <trkpt lat="47.4268" lon="-0.63948">
        <ele>53.4</ele>
        <time>2021-07-04T06:44:53Z</time>
      </trkpt>
      <trkpt lat="47.42678" lon="-0.63965">
        <ele>52.8</ele>
        <time>2021-07-04T06:44:55Z</time>
      </trkpt>
      <trkpt lat="47.42675" lon="-0.63981">
        <ele>53</ele>
        <time>2021-07-04T06:44:57Z</time>
      </trkpt>
      <trkpt lat="47.42673" lon="-0.63988">
        <ele>52.8</ele>
        <time>2021-07-04T06:44:58Z</time>
      </trkpt>
      <trkpt lat="47.42671" lon="-0.63994">
        <ele>53</ele>
        <time>2021-07-04T06:44:59Z</time>
      </trkpt>
      <trkpt lat="47.42667" lon="-0.64008">
        <ele>53.2</ele>
        <time>2021-07-04T06:45:01Z</time>
      </trkpt>
      <trkpt lat="47.42667" lon="-0.64018">
        <ele>53.2</ele>
        <time>2021-07-04T06:45:02Z</time>
      </trkpt>
      <trkpt lat="47.42666" lon="-0.64028">
        <ele>53.2</ele>
        <time>2021-07-04T06:45:03Z</time>
      </trkpt>
      <trkpt lat="47.42668" lon="-0.64047">
        <ele>52.6</ele>
        <time>2021-07-04T06:45:05Z</time>
      </trkpt>
      <trkpt lat="47.42668" lon="-0.64057">
        <ele>52.2</ele>
        <time>2021-07-04T06:45:06Z</time>
      </trkpt>
      <trkpt lat="47.42669" lon="-0.64066">
        <ele>52.2</ele>
        <time>2021-07-04T06:45:07Z</time>
      </trkpt>
      <trkpt lat="47.42669" lon="-0.64084">
        <ele>52.2</ele>
        <time>2021-07-04T06:45:09Z</time>
      </trkpt>
      <trkpt lat="47.42662" lon="-0.64099">
        <ele>52.2</ele>
        <time>2021-07-04T06:45:11Z</time>
      </trkpt>
      <trkpt lat="47.42653" lon="-0.64112">
        <ele>52.4</ele>
        <time>2021-07-04T06:45:13Z</time>
      </trkpt>
      <trkpt lat="47.42644" lon="-0.64125">
        <ele>52.8</ele>
        <time>2021-07-04T06:45:15Z</time>
      </trkpt>
      <trkpt lat="47.4264" lon="-0.64131">
        <ele>53.2</ele>
        <time>2021-07-04T06:45:16Z</time>
      </trkpt>
      <trkpt lat="47.42636" lon="-0.64137">
        <ele>53.6</ele>
        <time>2021-07-04T06:45:17Z</time>
      </trkpt>
      <trkpt lat="47.42628" lon="-0.6415">
        <ele>54</ele>
        <time>2021-07-04T06:45:19Z</time>
      </trkpt>
      <trkpt lat="47.4262" lon="-0.64163">
        <ele>54.6</ele>
        <time>2021-07-04T06:45:21Z</time>
      </trkpt>
      <trkpt lat="47.42611" lon="-0.64175">
        <ele>55</ele>
        <time>2021-07-04T06:45:23Z</time>
      </trkpt>
      <trkpt lat="47.42607" lon="-0.64181">
        <ele>55</ele>
        <time>2021-07-04T06:45:24Z</time>
      </trkpt>
      <trkpt lat="47.42603" lon="-0.64186">
        <ele>55.2</ele>
        <time>2021-07-04T06:45:25Z</time>
      </trkpt>
      <trkpt lat="47.42595" lon="-0.64199">
        <ele>55.8</ele>
        <time>2021-07-04T06:45:27Z</time>
      </trkpt>
      <trkpt lat="47.42587" lon="-0.6421">
        <ele>56</ele>
        <time>2021-07-04T06:45:29Z</time>
      </trkpt>
      <trkpt lat="47.42578" lon="-0.64222">
        <ele>56</ele>
        <time>2021-07-04T06:45:31Z</time>
      </trkpt>
      <trkpt lat="47.4257" lon="-0.64234">
        <ele>56.2</ele>
        <time>2021-07-04T06:45:33Z</time>
      </trkpt>
      <trkpt lat="47.42562" lon="-0.64245">
        <ele>56.4</ele>
        <time>2021-07-04T06:45:35Z</time>
      </trkpt>
      <trkpt lat="47.42558" lon="-0.64251">
        <ele>56.6</ele>
        <time>2021-07-04T06:45:36Z</time>
      </trkpt>
      <trkpt lat="47.42554" lon="-0.64256">
        <ele>57</ele>
        <time>2021-07-04T06:45:37Z</time>
      </trkpt>
      <trkpt lat="47.4255" lon="-0.64262">
        <ele>57</ele>
        <time>2021-07-04T06:45:38Z</time>
      </trkpt>
      <trkpt lat="47.42546" lon="-0.64268">
        <ele>57.2</ele>
        <time>2021-07-04T06:45:39Z</time>
      </trkpt>
      <trkpt lat="47.42538" lon="-0.64279">
        <ele>57.4</ele>
        <time>2021-07-04T06:45:41Z</time>
      </trkpt>
      <trkpt lat="47.42529" lon="-0.64291">
        <ele>57.4</ele>
        <time>2021-07-04T06:45:43Z</time>
      </trkpt>
      <trkpt lat="47.42525" lon="-0.64297">
        <ele>57.6</ele>
        <time>2021-07-04T06:45:44Z</time>
      </trkpt>
      <trkpt lat="47.42521" lon="-0.64303">
        <ele>57.6</ele>
        <time>2021-07-04T06:45:45Z</time>
      </trkpt>
      <trkpt lat="47.42512" lon="-0.64316">
        <ele>57.6</ele>
        <time>2021-07-04T06:45:47Z</time>
      </trkpt>
      <trkpt lat="47.42503" lon="-0.64328">
        <ele>57.2</ele>
        <time>2021-07-04T06:45:49Z</time>
      </trkpt>
      <trkpt lat="47.42495" lon="-0.6434">
        <ele>57.2</ele>
        <time>2021-07-04T06:45:51Z</time>
      </trkpt>
      <trkpt lat="47.42487" lon="-0.64352">
        <ele>57.2</ele>
        <time>2021-07-04T06:45:53Z</time>
      </trkpt>
      <trkpt lat="47.4248" lon="-0.64365">
        <ele>57.4</ele>
        <time>2021-07-04T06:45:55Z</time>
      </trkpt>
      <trkpt lat="47.42473" lon="-0.64378">
        <ele>58</ele>
        <time>2021-07-04T06:45:57Z</time>
      </trkpt>
      <trkpt lat="47.4247" lon="-0.64385">
        <ele>58</ele>
        <time>2021-07-04T06:45:58Z</time>
      </trkpt>
      <trkpt lat="47.42466" lon="-0.64391">
        <ele>58</ele>
        <time>2021-07-04T06:45:59Z</time>
      </trkpt>
      <trkpt lat="47.4246" lon="-0.64405">
        <ele>58.2</ele>
        <time>2021-07-04T06:46:01Z</time>
      </trkpt>
      <trkpt lat="47.42454" lon="-0.6442">
        <ele>58.4</ele>
        <time>2021-07-04T06:46:03Z</time>
      </trkpt>
      <trkpt lat="47.42448" lon="-0.64435">
        <ele>58.6</ele>
        <time>2021-07-04T06:46:05Z</time>
      </trkpt>
      <trkpt lat="47.42443" lon="-0.64451">
        <ele>58.6</ele>
        <time>2021-07-04T06:46:07Z</time>
      </trkpt>
      <trkpt lat="47.42438" lon="-0.64466">
        <ele>58.4</ele>
        <time>2021-07-04T06:46:09Z</time>
      </trkpt>
      <trkpt lat="47.42433" lon="-0.64481">
        <ele>58.8</ele>
        <time>2021-07-04T06:46:11Z</time>
      </trkpt>
      <trkpt lat="47.42428" lon="-0.64497">
        <ele>59</ele>
        <time>2021-07-04T06:46:13Z</time>
      </trkpt>
      <trkpt lat="47.42423" lon="-0.64513">
        <ele>59</ele>
        <time>2021-07-04T06:46:15Z</time>
      </trkpt>
      <trkpt lat="47.42418" lon="-0.64529">
        <ele>58.6</ele>
        <time>2021-07-04T06:46:17Z</time>
      </trkpt>
      <trkpt lat="47.42416" lon="-0.64537">
        <ele>58.6</ele>
        <time>2021-07-04T06:46:18Z</time>
      </trkpt>
      <trkpt lat="47.42413" lon="-0.64545">
        <ele>58.6</ele>
        <time>2021-07-04T06:46:19Z</time>
      </trkpt>
      <trkpt lat="47.42408" lon="-0.6456">
        <ele>58.8</ele>
        <time>2021-07-04T06:46:21Z</time>
      </trkpt>
      <trkpt lat="47.42404" lon="-0.64576">
        <ele>58.8</ele>
        <time>2021-07-04T06:46:23Z</time>
      </trkpt>
      <trkpt lat="47.42399" lon="-0.64591">
        <ele>59</ele>
        <time>2021-07-04T06:46:25Z</time>
      </trkpt>
      <trkpt lat="47.42396" lon="-0.64598">
        <ele>58.8</ele>
        <time>2021-07-04T06:46:26Z</time>
      </trkpt>
      <trkpt lat="47.42394" lon="-0.64604">
        <ele>59</ele>
        <time>2021-07-04T06:46:27Z</time>
      </trkpt>
      <trkpt lat="47.42389" lon="-0.64616">
        <ele>59</ele>
        <time>2021-07-04T06:46:29Z</time>
      </trkpt>
      <trkpt lat="47.42387" lon="-0.64621">
        <ele>59.2</ele>
        <time>2021-07-04T06:46:30Z</time>
      </trkpt>
      <trkpt lat="47.42387" lon="-0.64625">
        <ele>59.6</ele>
        <time>2021-07-04T06:46:31Z</time>
      </trkpt>
      <trkpt lat="47.42388" lon="-0.64632">
        <ele>60.2</ele>
        <time>2021-07-04T06:46:33Z</time>
      </trkpt>
      <trkpt lat="47.42389" lon="-0.64635">
        <ele>60.2</ele>
        <time>2021-07-04T06:46:34Z</time>
      </trkpt>
      <trkpt lat="47.42391" lon="-0.64638">
        <ele>60.4</ele>
        <time>2021-07-04T06:46:35Z</time>
      </trkpt>
      <trkpt lat="47.42395" lon="-0.64645">
        <ele>60.2</ele>
        <time>2021-07-04T06:46:37Z</time>
      </trkpt>
      <trkpt lat="47.42398" lon="-0.64652">
        <ele>59.8</ele>
        <time>2021-07-04T06:46:39Z</time>
      </trkpt>
      <trkpt lat="47.42402" lon="-0.64659">
        <ele>60</ele>
        <time>2021-07-04T06:46:41Z</time>
      </trkpt>
      <trkpt lat="47.42405" lon="-0.64667">
        <ele>60</ele>
        <time>2021-07-04T06:46:43Z</time>
      </trkpt>
      <trkpt lat="47.42406" lon="-0.6467">
        <ele>60.2</ele>
        <time>2021-07-04T06:46:44Z</time>
      </trkpt>
      <trkpt lat="47.42408" lon="-0.64673">
        <ele>60.4</ele>
        <time>2021-07-04T06:46:45Z</time>
      </trkpt>
      <trkpt lat="47.4241" lon="-0.64678">
        <ele>60.4</ele>
        <time>2021-07-04T06:46:47Z</time>
      </trkpt>
      <trkpt lat="47.42412" lon="-0.64684">
        <ele>60.2</ele>
        <time>2021-07-04T06:46:49Z</time>
      </trkpt>
      <trkpt lat="47.42414" lon="-0.64686">
        <ele>60.2</ele>
        <time>2021-07-04T06:46:50Z</time>
      </trkpt>
      <trkpt lat="47.42415" lon="-0.64688">
        <ele>60.2</ele>
        <time>2021-07-04T06:46:51Z</time>
      </trkpt>
      <trkpt lat="47.42418" lon="-0.64693">
        <ele>60</ele>
        <time>2021-07-04T06:46:53Z</time>
      </trkpt>
      <trkpt lat="47.4242" lon="-0.64698">
        <ele>60</ele>
        <time>2021-07-04T06:46:55Z</time>
      </trkpt>
      <trkpt lat="47.42421" lon="-0.647">
        <ele>60.2</ele>
        <time>2021-07-04T06:46:56Z</time>
      </trkpt>
      <trkpt lat="47.42423" lon="-0.64702">
        <ele>60.4</ele>
        <time>2021-07-04T06:46:57Z</time>
      </trkpt>
      <trkpt lat="47.42425" lon="-0.64707">
        <ele>60.6</ele>
        <time>2021-07-04T06:46:59Z</time>
      </trkpt>
      <trkpt lat="47.42427" lon="-0.64711">
        <ele>60.6</ele>
        <time>2021-07-04T06:47:01Z</time>
      </trkpt>
      <trkpt lat="47.42429" lon="-0.64715">
        <ele>61</ele>
        <time>2021-07-04T06:47:03Z</time>
      </trkpt>
      <trkpt lat="47.42431" lon="-0.6472">
        <ele>61</ele>
        <time>2021-07-04T06:47:05Z</time>
      </trkpt>
      <trkpt lat="47.42434" lon="-0.64726">
        <ele>60.6</ele>
        <time>2021-07-04T06:47:07Z</time>
      </trkpt>
      <trkpt lat="47.42436" lon="-0.64728">
        <ele>60.6</ele>
        <time>2021-07-04T06:47:08Z</time>
      </trkpt>
      <trkpt lat="47.42436" lon="-0.6473">
        <ele>60.8</ele>
        <time>2021-07-04T06:47:09Z</time>
      </trkpt>
      <trkpt lat="47.42439" lon="-0.64734">
        <ele>60.8</ele>
        <time>2021-07-04T06:47:11Z</time>
      </trkpt>
      <trkpt lat="47.4244" lon="-0.64736">
        <ele>61</ele>
        <time>2021-07-04T06:47:13Z</time>
      </trkpt>
      <trkpt lat="47.42442" lon="-0.64739">
        <ele>61</ele>
        <time>2021-07-04T06:47:15Z</time>
      </trkpt>
      <trkpt lat="47.4245" lon="-0.6475">
        <ele>61.2</ele>
        <time>2021-07-04T06:47:36Z</time>
      </trkpt>
      <trkpt lat="47.42453" lon="-0.64755">
        <ele>61</ele>
        <time>2021-07-04T06:47:38Z</time>
      </trkpt>
      <trkpt lat="47.42456" lon="-0.6476">
        <ele>60.8</ele>
        <time>2021-07-04T06:47:40Z</time>
      </trkpt>
      <trkpt lat="47.42458" lon="-0.64764">
        <ele>61.2</ele>
        <time>2021-07-04T06:47:42Z</time>
      </trkpt>
      <trkpt lat="47.42461" lon="-0.64766">
        <ele>61.4</ele>
        <time>2021-07-04T06:47:43Z</time>
      </trkpt>
      <trkpt lat="47.42463" lon="-0.6477">
        <ele>61.4</ele>
        <time>2021-07-04T06:47:44Z</time>
      </trkpt>
      <trkpt lat="47.42466" lon="-0.64774">
        <ele>61</ele>
        <time>2021-07-04T06:47:45Z</time>
      </trkpt>
      <trkpt lat="47.42469" lon="-0.64777">
        <ele>60.8</ele>
        <time>2021-07-04T06:47:46Z</time>
      </trkpt>
      <trkpt lat="47.42477" lon="-0.64784">
        <ele>60.8</ele>
        <time>2021-07-04T06:47:48Z</time>
      </trkpt>
      <trkpt lat="47.42483" lon="-0.64791">
        <ele>61.2</ele>
        <time>2021-07-04T06:47:50Z</time>
      </trkpt>
      <trkpt lat="47.42487" lon="-0.648">
        <ele>61.2</ele>
        <time>2021-07-04T06:47:52Z</time>
      </trkpt>
      <trkpt lat="47.42489" lon="-0.64804">
        <ele>61</ele>
        <time>2021-07-04T06:47:53Z</time>
      </trkpt>
      <trkpt lat="47.42491" lon="-0.64807">
        <ele>61.4</ele>
        <time>2021-07-04T06:47:54Z</time>
      </trkpt>
      <trkpt lat="47.42491" lon="-0.64816">
        <ele>61.8</ele>
        <time>2021-07-04T06:47:56Z</time>
      </trkpt>
      <trkpt lat="47.42492" lon="-0.64822">
        <ele>61.8</ele>
        <time>2021-07-04T06:47:58Z</time>
      </trkpt>
      <trkpt lat="47.42495" lon="-0.64829">
        <ele>61.8</ele>
        <time>2021-07-04T06:48:00Z</time>
      </trkpt>
      <trkpt lat="47.42497" lon="-0.64835">
        <ele>61.6</ele>
        <time>2021-07-04T06:48:02Z</time>
      </trkpt>
      <trkpt lat="47.42501" lon="-0.64841">
        <ele>61.6</ele>
        <time>2021-07-04T06:48:04Z</time>
      </trkpt>
      <trkpt lat="47.42505" lon="-0.64847">
        <ele>61.4</ele>
        <time>2021-07-04T06:48:06Z</time>
      </trkpt>
      <trkpt lat="47.42509" lon="-0.64853">
        <ele>61.6</ele>
        <time>2021-07-04T06:48:08Z</time>
      </trkpt>
      <trkpt lat="47.42514" lon="-0.64857">
        <ele>61.4</ele>
        <time>2021-07-04T06:48:10Z</time>
      </trkpt>
      <trkpt lat="47.4252" lon="-0.64862">
        <ele>61.6</ele>
        <time>2021-07-04T06:48:12Z</time>
      </trkpt>
      <trkpt lat="47.42526" lon="-0.64865">
        <ele>61.4</ele>
        <time>2021-07-04T06:48:14Z</time>
      </trkpt>
      <trkpt lat="47.42528" lon="-0.64866">
        <ele>61.6</ele>
        <time>2021-07-04T06:48:15Z</time>
      </trkpt>
      <trkpt lat="47.42531" lon="-0.64867">
        <ele>61.6</ele>
        <time>2021-07-04T06:48:16Z</time>
      </trkpt>
      <trkpt lat="47.42536" lon="-0.6487">
        <ele>61.4</ele>
        <time>2021-07-04T06:48:18Z</time>
      </trkpt>
      <trkpt lat="47.42541" lon="-0.64874">
        <ele>61.6</ele>
        <time>2021-07-04T06:48:20Z</time>
      </trkpt>
      <trkpt lat="47.42546" lon="-0.64881">
        <ele>61.4</ele>
        <time>2021-07-04T06:48:22Z</time>
      </trkpt>
      <trkpt lat="47.42552" lon="-0.64888">
        <ele>61</ele>
        <time>2021-07-04T06:48:24Z</time>
      </trkpt>
      <trkpt lat="47.42556" lon="-0.64891">
        <ele>61</ele>
        <time>2021-07-04T06:48:25Z</time>
      </trkpt>
      <trkpt lat="47.42559" lon="-0.64894">
        <ele>61.2</ele>
        <time>2021-07-04T06:48:26Z</time>
      </trkpt>
      <trkpt lat="47.42568" lon="-0.649">
        <ele>61.2</ele>
        <time>2021-07-04T06:48:28Z</time>
      </trkpt>
      <trkpt lat="47.42574" lon="-0.64906">
        <ele>61.2</ele>
        <time>2021-07-04T06:48:30Z</time>
      </trkpt>
      <trkpt lat="47.42582" lon="-0.64916">
        <ele>61.4</ele>
        <time>2021-07-04T06:48:32Z</time>
      </trkpt>
      <trkpt lat="47.42589" lon="-0.64925">
        <ele>61</ele>
        <time>2021-07-04T06:48:34Z</time>
      </trkpt>
      <trkpt lat="47.42593" lon="-0.64934">
        <ele>61</ele>
        <time>2021-07-04T06:48:36Z</time>
      </trkpt>
      <trkpt lat="47.42597" lon="-0.64941">
        <ele>61.4</ele>
        <time>2021-07-04T06:48:38Z</time>
      </trkpt>
      <trkpt lat="47.42599" lon="-0.64944">
        <ele>61</ele>
        <time>2021-07-04T06:48:39Z</time>
      </trkpt>
      <trkpt lat="47.42601" lon="-0.64947">
        <ele>60.8</ele>
        <time>2021-07-04T06:48:40Z</time>
      </trkpt>
      <trkpt lat="47.42605" lon="-0.64954">
        <ele>61.8</ele>
        <time>2021-07-04T06:48:42Z</time>
      </trkpt>
      <trkpt lat="47.42612" lon="-0.64963">
        <ele>62</ele>
        <time>2021-07-04T06:48:44Z</time>
      </trkpt>
      <trkpt lat="47.42614" lon="-0.64967">
        <ele>62.2</ele>
        <time>2021-07-04T06:48:45Z</time>
      </trkpt>
      <trkpt lat="47.42622" lon="-0.6497">
        <ele>62</ele>
        <time>2021-07-04T06:48:46Z</time>
      </trkpt>
      <trkpt lat="47.42627" lon="-0.64981">
        <ele>61.6</ele>
        <time>2021-07-04T06:48:48Z</time>
      </trkpt>
      <trkpt lat="47.42629" lon="-0.64987">
        <ele>61.4</ele>
        <time>2021-07-04T06:48:49Z</time>
      </trkpt>
      <trkpt lat="47.42631" lon="-0.64995">
        <ele>61.2</ele>
        <time>2021-07-04T06:48:50Z</time>
      </trkpt>
      <trkpt lat="47.42632" lon="-0.65002">
        <ele>61.2</ele>
        <time>2021-07-04T06:48:51Z</time>
      </trkpt>
      <trkpt lat="47.42631" lon="-0.65009">
        <ele>61.2</ele>
        <time>2021-07-04T06:48:52Z</time>
      </trkpt>
      <trkpt lat="47.42632" lon="-0.65025">
        <ele>61</ele>
        <time>2021-07-04T06:48:54Z</time>
      </trkpt>
      <trkpt lat="47.42634" lon="-0.65041">
        <ele>60.8</ele>
        <time>2021-07-04T06:48:56Z</time>
      </trkpt>
      <trkpt lat="47.42639" lon="-0.65055">
        <ele>60.6</ele>
        <time>2021-07-04T06:48:58Z</time>
      </trkpt>
      <trkpt lat="47.42641" lon="-0.65061">
        <ele>60.6</ele>
        <time>2021-07-04T06:48:59Z</time>
      </trkpt>
      <trkpt lat="47.42644" lon="-0.65068">
        <ele>60.6</ele>
        <time>2021-07-04T06:49:00Z</time>
      </trkpt>
      <trkpt lat="47.42647" lon="-0.65075">
        <ele>60.4</ele>
        <time>2021-07-04T06:49:01Z</time>
      </trkpt>
      <trkpt lat="47.42649" lon="-0.65082">
        <ele>60.4</ele>
        <time>2021-07-04T06:49:02Z</time>
      </trkpt>
      <trkpt lat="47.42654" lon="-0.65096">
        <ele>60.4</ele>
        <time>2021-07-04T06:49:04Z</time>
      </trkpt>
      <trkpt lat="47.42656" lon="-0.65104">
        <ele>60.6</ele>
        <time>2021-07-04T06:49:05Z</time>
      </trkpt>
      <trkpt lat="47.42657" lon="-0.65111">
        <ele>60.6</ele>
        <time>2021-07-04T06:49:06Z</time>
      </trkpt>
      <trkpt lat="47.42657" lon="-0.65127">
        <ele>60.6</ele>
        <time>2021-07-04T06:49:08Z</time>
      </trkpt>
      <trkpt lat="47.42658" lon="-0.65136">
        <ele>60.4</ele>
        <time>2021-07-04T06:49:09Z</time>
      </trkpt>
      <trkpt lat="47.42658" lon="-0.65144">
        <ele>60.4</ele>
        <time>2021-07-04T06:49:10Z</time>
      </trkpt>
      <trkpt lat="47.42659" lon="-0.65153">
        <ele>60.2</ele>
        <time>2021-07-04T06:49:11Z</time>
      </trkpt>
      <trkpt lat="47.42659" lon="-0.65159">
        <ele>60.4</ele>
        <time>2021-07-04T06:49:12Z</time>
      </trkpt>
      <trkpt lat="47.42659" lon="-0.65166">
        <ele>60.2</ele>
        <time>2021-07-04T06:49:13Z</time>
      </trkpt>
      <trkpt lat="47.42657" lon="-0.65174">
        <ele>60</ele>
        <time>2021-07-04T06:49:14Z</time>
      </trkpt>
      <trkpt lat="47.42653" lon="-0.65191">
        <ele>60</ele>
        <time>2021-07-04T06:49:16Z</time>
      </trkpt>
      <trkpt lat="47.42652" lon="-0.65199">
        <ele>60</ele>
        <time>2021-07-04T06:49:17Z</time>
      </trkpt>
      <trkpt lat="47.42651" lon="-0.65208">
        <ele>60</ele>
        <time>2021-07-04T06:49:18Z</time>
      </trkpt>
      <trkpt lat="47.42648" lon="-0.65221">
        <ele>60</ele>
        <time>2021-07-04T06:49:20Z</time>
      </trkpt>
      <trkpt lat="47.42646" lon="-0.65228">
        <ele>59.8</ele>
        <time>2021-07-04T06:49:21Z</time>
      </trkpt>
      <trkpt lat="47.42644" lon="-0.65234">
        <ele>60</ele>
        <time>2021-07-04T06:49:22Z</time>
      </trkpt>
      <trkpt lat="47.42639" lon="-0.65245">
        <ele>59.8</ele>
        <time>2021-07-04T06:49:24Z</time>
      </trkpt>
      <trkpt lat="47.42637" lon="-0.65251">
        <ele>59.6</ele>
        <time>2021-07-04T06:49:25Z</time>
      </trkpt>
      <trkpt lat="47.42634" lon="-0.65257">
        <ele>59.6</ele>
        <time>2021-07-04T06:49:26Z</time>
      </trkpt>
      <trkpt lat="47.42628" lon="-0.6527">
        <ele>59.8</ele>
        <time>2021-07-04T06:49:28Z</time>
      </trkpt>
      <trkpt lat="47.42622" lon="-0.65284">
        <ele>60.2</ele>
        <time>2021-07-04T06:49:30Z</time>
      </trkpt>
      <trkpt lat="47.42618" lon="-0.65297">
        <ele>60</ele>
        <time>2021-07-04T06:49:32Z</time>
      </trkpt>
      <trkpt lat="47.42612" lon="-0.6531">
        <ele>60.2</ele>
        <time>2021-07-04T06:49:34Z</time>
      </trkpt>
      <trkpt lat="47.4261" lon="-0.65316">
        <ele>60.8</ele>
        <time>2021-07-04T06:49:35Z</time>
      </trkpt>
      <trkpt lat="47.42607" lon="-0.65321">
        <ele>60.8</ele>
        <time>2021-07-04T06:49:36Z</time>
      </trkpt>
      <trkpt lat="47.42605" lon="-0.65327">
        <ele>60.6</ele>
        <time>2021-07-04T06:49:37Z</time>
      </trkpt>
      <trkpt lat="47.42604" lon="-0.65333">
        <ele>60.6</ele>
        <time>2021-07-04T06:49:38Z</time>
      </trkpt>
      <trkpt lat="47.42602" lon="-0.65338">
        <ele>61</ele>
        <time>2021-07-04T06:49:39Z</time>
      </trkpt>
      <trkpt lat="47.42599" lon="-0.65344">
        <ele>61.2</ele>
        <time>2021-07-04T06:49:40Z</time>
      </trkpt>
      <trkpt lat="47.42594" lon="-0.65357">
        <ele>60.6</ele>
        <time>2021-07-04T06:49:42Z</time>
      </trkpt>
      <trkpt lat="47.42591" lon="-0.65364">
        <ele>60.8</ele>
        <time>2021-07-04T06:49:43Z</time>
      </trkpt>
      <trkpt lat="47.42589" lon="-0.6537">
        <ele>60.6</ele>
        <time>2021-07-04T06:49:44Z</time>
      </trkpt>
      <trkpt lat="47.42584" lon="-0.65385">
        <ele>60.6</ele>
        <time>2021-07-04T06:49:46Z</time>
      </trkpt>
      <trkpt lat="47.42581" lon="-0.654">
        <ele>60.6</ele>
        <time>2021-07-04T06:49:48Z</time>
      </trkpt>
      <trkpt lat="47.42581" lon="-0.65415">
        <ele>60.8</ele>
        <time>2021-07-04T06:49:50Z</time>
      </trkpt>
      <trkpt lat="47.42581" lon="-0.65423">
        <ele>61</ele>
        <time>2021-07-04T06:49:51Z</time>
      </trkpt>
      <trkpt lat="47.4258" lon="-0.65431">
        <ele>61.2</ele>
        <time>2021-07-04T06:49:52Z</time>
      </trkpt>
      <trkpt lat="47.4258" lon="-0.65439">
        <ele>61</ele>
        <time>2021-07-04T06:49:53Z</time>
      </trkpt>
      <trkpt lat="47.4258" lon="-0.65448">
        <ele>61.2</ele>
        <time>2021-07-04T06:49:54Z</time>
      </trkpt>
      <trkpt lat="47.42581" lon="-0.65463">
        <ele>61.4</ele>
        <time>2021-07-04T06:49:56Z</time>
      </trkpt>
      <trkpt lat="47.4258" lon="-0.6547">
        <ele>61.4</ele>
        <time>2021-07-04T06:49:57Z</time>
      </trkpt>
      <trkpt lat="47.4258" lon="-0.65478">
        <ele>61.4</ele>
        <time>2021-07-04T06:49:58Z</time>
      </trkpt>
      <trkpt lat="47.4258" lon="-0.65495">
        <ele>61.2</ele>
        <time>2021-07-04T06:50:00Z</time>
      </trkpt>
      <trkpt lat="47.42582" lon="-0.6551">
        <ele>61.2</ele>
        <time>2021-07-04T06:50:02Z</time>
      </trkpt>
      <trkpt lat="47.42584" lon="-0.65518">
        <ele>61.4</ele>
        <time>2021-07-04T06:50:03Z</time>
      </trkpt>
      <trkpt lat="47.42586" lon="-0.65525">
        <ele>61.6</ele>
        <time>2021-07-04T06:50:04Z</time>
      </trkpt>
      <trkpt lat="47.4259" lon="-0.65539">
        <ele>62</ele>
        <time>2021-07-04T06:50:06Z</time>
      </trkpt>
      <trkpt lat="47.42595" lon="-0.65553">
        <ele>62.2</ele>
        <time>2021-07-04T06:50:08Z</time>
      </trkpt>
      <trkpt lat="47.42597" lon="-0.65559">
        <ele>62.4</ele>
        <time>2021-07-04T06:50:09Z</time>
      </trkpt>
      <trkpt lat="47.42601" lon="-0.65565">
        <ele>62.4</ele>
        <time>2021-07-04T06:50:10Z</time>
      </trkpt>
      <trkpt lat="47.42607" lon="-0.65579">
        <ele>62.2</ele>
        <time>2021-07-04T06:50:12Z</time>
      </trkpt>
      <trkpt lat="47.42612" lon="-0.65595">
        <ele>62.2</ele>
        <time>2021-07-04T06:50:14Z</time>
      </trkpt>
      <trkpt lat="47.42617" lon="-0.65609">
        <ele>62.2</ele>
        <time>2021-07-04T06:50:16Z</time>
      </trkpt>
      <trkpt lat="47.42621" lon="-0.65623">
        <ele>62.4</ele>
        <time>2021-07-04T06:50:18Z</time>
      </trkpt>
      <trkpt lat="47.42624" lon="-0.65629">
        <ele>62.4</ele>
        <time>2021-07-04T06:50:19Z</time>
      </trkpt>
      <trkpt lat="47.42627" lon="-0.65637">
        <ele>62.4</ele>
        <time>2021-07-04T06:50:20Z</time>
      </trkpt>
      <trkpt lat="47.42629" lon="-0.65644">
        <ele>62.6</ele>
        <time>2021-07-04T06:50:21Z</time>
      </trkpt>
      <trkpt lat="47.42629" lon="-0.65652">
        <ele>62.8</ele>
        <time>2021-07-04T06:50:22Z</time>
      </trkpt>
      <trkpt lat="47.42629" lon="-0.65667">
        <ele>62.8</ele>
        <time>2021-07-04T06:50:24Z</time>
      </trkpt>
      <trkpt lat="47.42627" lon="-0.65683">
        <ele>62.8</ele>
        <time>2021-07-04T06:50:26Z</time>
      </trkpt>
      <trkpt lat="47.42625" lon="-0.65698">
        <ele>63.2</ele>
        <time>2021-07-04T06:50:28Z</time>
      </trkpt>
      <trkpt lat="47.42623" lon="-0.65706">
        <ele>63.4</ele>
        <time>2021-07-04T06:50:29Z</time>
      </trkpt>
      <trkpt lat="47.42622" lon="-0.65715">
        <ele>63.4</ele>
        <time>2021-07-04T06:50:30Z</time>
      </trkpt>
      <trkpt lat="47.4262" lon="-0.65731">
        <ele>63.2</ele>
        <time>2021-07-04T06:50:32Z</time>
      </trkpt>
      <trkpt lat="47.42619" lon="-0.65749">
        <ele>63.6</ele>
        <time>2021-07-04T06:50:34Z</time>
      </trkpt>
      <trkpt lat="47.42618" lon="-0.65757">
        <ele>63.4</ele>
        <time>2021-07-04T06:50:35Z</time>
      </trkpt>
      <trkpt lat="47.42617" lon="-0.65766">
        <ele>63.4</ele>
        <time>2021-07-04T06:50:36Z</time>
      </trkpt>
      <trkpt lat="47.42615" lon="-0.65781">
        <ele>63.4</ele>
        <time>2021-07-04T06:50:38Z</time>
      </trkpt>
      <trkpt lat="47.42614" lon="-0.65789">
        <ele>63.4</ele>
        <time>2021-07-04T06:50:39Z</time>
      </trkpt>
      <trkpt lat="47.42613" lon="-0.65797">
        <ele>63.4</ele>
        <time>2021-07-04T06:50:40Z</time>
      </trkpt>
      <trkpt lat="47.42611" lon="-0.65804">
        <ele>63.2</ele>
        <time>2021-07-04T06:50:41Z</time>
      </trkpt>
      <trkpt lat="47.4261" lon="-0.65813">
        <ele>63.2</ele>
        <time>2021-07-04T06:50:42Z</time>
      </trkpt>
      <trkpt lat="47.42606" lon="-0.65829">
        <ele>63.4</ele>
        <time>2021-07-04T06:50:44Z</time>
      </trkpt>
      <trkpt lat="47.42603" lon="-0.65844">
        <ele>63.2</ele>
        <time>2021-07-04T06:50:46Z</time>
      </trkpt>
      <trkpt lat="47.426" lon="-0.65859">
        <ele>63</ele>
        <time>2021-07-04T06:50:48Z</time>
      </trkpt>
      <trkpt lat="47.42598" lon="-0.65868">
        <ele>62.8</ele>
        <time>2021-07-04T06:50:49Z</time>
      </trkpt>
      <trkpt lat="47.42597" lon="-0.65877">
        <ele>63</ele>
        <time>2021-07-04T06:50:50Z</time>
      </trkpt>
      <trkpt lat="47.42596" lon="-0.65896">
        <ele>63</ele>
        <time>2021-07-04T06:50:52Z</time>
      </trkpt>
      <trkpt lat="47.42595" lon="-0.65915">
        <ele>63</ele>
        <time>2021-07-04T06:50:54Z</time>
      </trkpt>
      <trkpt lat="47.42595" lon="-0.65934">
        <ele>63</ele>
        <time>2021-07-04T06:50:56Z</time>
      </trkpt>
      <trkpt lat="47.42594" lon="-0.65951">
        <ele>62.6</ele>
        <time>2021-07-04T06:50:58Z</time>
      </trkpt>
      <trkpt lat="47.42596" lon="-0.65968">
        <ele>62.6</ele>
        <time>2021-07-04T06:51:00Z</time>
      </trkpt>
      <trkpt lat="47.42597" lon="-0.6598">
        <ele>63.2</ele>
        <time>2021-07-04T06:51:02Z</time>
      </trkpt>
      <trkpt lat="47.42597" lon="-0.65985">
        <ele>63.4</ele>
        <time>2021-07-04T06:51:03Z</time>
      </trkpt>
      <trkpt lat="47.42597" lon="-0.6599">
        <ele>63.8</ele>
        <time>2021-07-04T06:51:04Z</time>
      </trkpt>
      <trkpt lat="47.42599" lon="-0.66002">
        <ele>64</ele>
        <time>2021-07-04T06:51:06Z</time>
      </trkpt>
      <trkpt lat="47.426" lon="-0.66014">
        <ele>63.8</ele>
        <time>2021-07-04T06:51:08Z</time>
      </trkpt>
      <trkpt lat="47.42602" lon="-0.66026">
        <ele>63.8</ele>
        <time>2021-07-04T06:51:10Z</time>
      </trkpt>
      <trkpt lat="47.42603" lon="-0.66041">
        <ele>63.2</ele>
        <time>2021-07-04T06:51:12Z</time>
      </trkpt>
      <trkpt lat="47.42604" lon="-0.66056">
        <ele>63.2</ele>
        <time>2021-07-04T06:51:14Z</time>
      </trkpt>
      <trkpt lat="47.42605" lon="-0.6607">
        <ele>62.8</ele>
        <time>2021-07-04T06:51:16Z</time>
      </trkpt>
      <trkpt lat="47.42605" lon="-0.66087">
        <ele>63</ele>
        <time>2021-07-04T06:51:18Z</time>
      </trkpt>
      <trkpt lat="47.42605" lon="-0.66101">
        <ele>63.2</ele>
        <time>2021-07-04T06:51:20Z</time>
      </trkpt>
      <trkpt lat="47.42605" lon="-0.66114">
        <ele>63.8</ele>
        <time>2021-07-04T06:51:22Z</time>
      </trkpt>
      <trkpt lat="47.42605" lon="-0.66119">
        <ele>63.6</ele>
        <time>2021-07-04T06:51:23Z</time>
      </trkpt>
      <trkpt lat="47.42606" lon="-0.66125">
        <ele>64</ele>
        <time>2021-07-04T06:51:24Z</time>
      </trkpt>
      <trkpt lat="47.42607" lon="-0.66138">
        <ele>64.2</ele>
        <time>2021-07-04T06:51:26Z</time>
      </trkpt>
      <trkpt lat="47.42608" lon="-0.66145">
        <ele>64.2</ele>
        <time>2021-07-04T06:51:27Z</time>
      </trkpt>
      <trkpt lat="47.42609" lon="-0.66151">
        <ele>64.4</ele>
        <time>2021-07-04T06:51:28Z</time>
      </trkpt>
      <trkpt lat="47.42612" lon="-0.66164">
        <ele>63.8</ele>
        <time>2021-07-04T06:51:30Z</time>
      </trkpt>
      <trkpt lat="47.42615" lon="-0.66177">
        <ele>63.8</ele>
        <time>2021-07-04T06:51:32Z</time>
      </trkpt>
      <trkpt lat="47.42616" lon="-0.66183">
        <ele>63.8</ele>
        <time>2021-07-04T06:51:33Z</time>
      </trkpt>
      <trkpt lat="47.42617" lon="-0.6619">
        <ele>64.2</ele>
        <time>2021-07-04T06:51:34Z</time>
      </trkpt>
      <trkpt lat="47.4262" lon="-0.66202">
        <ele>64.4</ele>
        <time>2021-07-04T06:51:36Z</time>
      </trkpt>
      <trkpt lat="47.42625" lon="-0.66214">
        <ele>64.2</ele>
        <time>2021-07-04T06:51:38Z</time>
      </trkpt>
      <trkpt lat="47.42629" lon="-0.66227">
        <ele>64.2</ele>
        <time>2021-07-04T06:51:40Z</time>
      </trkpt>
      <trkpt lat="47.42633" lon="-0.66242">
        <ele>63.8</ele>
        <time>2021-07-04T06:51:42Z</time>
      </trkpt>
      <trkpt lat="47.42636" lon="-0.66256">
        <ele>63.8</ele>
        <time>2021-07-04T06:51:44Z</time>
      </trkpt>
      <trkpt lat="47.42639" lon="-0.66262">
        <ele>63.8</ele>
        <time>2021-07-04T06:51:45Z</time>
      </trkpt>
      <trkpt lat="47.42641" lon="-0.66269">
        <ele>64</ele>
        <time>2021-07-04T06:51:46Z</time>
      </trkpt>
      <trkpt lat="47.42644" lon="-0.66275">
        <ele>63.8</ele>
        <time>2021-07-04T06:51:47Z</time>
      </trkpt>
      <trkpt lat="47.42647" lon="-0.66281">
        <ele>64</ele>
        <time>2021-07-04T06:51:48Z</time>
      </trkpt>
      <trkpt lat="47.42652" lon="-0.66293">
        <ele>64.2</ele>
        <time>2021-07-04T06:51:50Z</time>
      </trkpt>
      <trkpt lat="47.42655" lon="-0.66308">
        <ele>64.6</ele>
        <time>2021-07-04T06:51:52Z</time>
      </trkpt>
      <trkpt lat="47.42659" lon="-0.66318">
        <ele>64.8</ele>
        <time>2021-07-04T06:51:54Z</time>
      </trkpt>
      <trkpt lat="47.4266" lon="-0.66321">
        <ele>65</ele>
        <time>2021-07-04T06:51:55Z</time>
      </trkpt>
      <trkpt lat="47.4266" lon="-0.66323">
        <ele>65.2</ele>
        <time>2021-07-04T06:51:56Z</time>
      </trkpt>
      <trkpt lat="47.42659" lon="-0.66325">
        <ele>64.8</ele>
        <time>2021-07-04T06:51:58Z</time>
      </trkpt>
      <trkpt lat="47.42656" lon="-0.66327">
        <ele>64.6</ele>
        <time>2021-07-04T06:51:59Z</time>
      </trkpt>
      <trkpt lat="47.42652" lon="-0.6633">
        <ele>64.2</ele>
        <time>2021-07-04T06:52:00Z</time>
      </trkpt>
      <trkpt lat="47.42648" lon="-0.66331">
        <ele>64</ele>
        <time>2021-07-04T06:52:01Z</time>
      </trkpt>
      <trkpt lat="47.42643" lon="-0.66332">
        <ele>64.2</ele>
        <time>2021-07-04T06:52:02Z</time>
      </trkpt>
      <trkpt lat="47.42635" lon="-0.66336">
        <ele>64.2</ele>
        <time>2021-07-04T06:52:04Z</time>
      </trkpt>
      <trkpt lat="47.4263" lon="-0.66339">
        <ele>64.2</ele>
        <time>2021-07-04T06:52:05Z</time>
      </trkpt>
      <trkpt lat="47.42625" lon="-0.66342">
        <ele>64</ele>
        <time>2021-07-04T06:52:06Z</time>
      </trkpt>
      <trkpt lat="47.42615" lon="-0.66347">
        <ele>63.6</ele>
        <time>2021-07-04T06:52:08Z</time>
      </trkpt>
      <trkpt lat="47.42605" lon="-0.66351">
        <ele>63.4</ele>
        <time>2021-07-04T06:52:10Z</time>
      </trkpt>
      <trkpt lat="47.426" lon="-0.66353">
        <ele>63.4</ele>
        <time>2021-07-04T06:52:11Z</time>
      </trkpt>
      <trkpt lat="47.42594" lon="-0.66355">
        <ele>63.4</ele>
        <time>2021-07-04T06:52:12Z</time>
      </trkpt>
      <trkpt lat="47.42584" lon="-0.66356">
        <ele>64</ele>
        <time>2021-07-04T06:52:14Z</time>
      </trkpt>
      <trkpt lat="47.42572" lon="-0.66358">
        <ele>63.4</ele>
        <time>2021-07-04T06:52:16Z</time>
      </trkpt>
      <trkpt lat="47.42566" lon="-0.66359">
        <ele>63.2</ele>
        <time>2021-07-04T06:52:17Z</time>
      </trkpt>
      <trkpt lat="47.42559" lon="-0.66359">
        <ele>62.8</ele>
        <time>2021-07-04T06:52:18Z</time>
      </trkpt>
      <trkpt lat="47.42548" lon="-0.6636">
        <ele>62.6</ele>
        <time>2021-07-04T06:52:20Z</time>
      </trkpt>
      <trkpt lat="47.42535" lon="-0.66361">
        <ele>62.8</ele>
        <time>2021-07-04T06:52:22Z</time>
      </trkpt>
      <trkpt lat="47.42529" lon="-0.66362">
        <ele>62.6</ele>
        <time>2021-07-04T06:52:23Z</time>
      </trkpt>
      <trkpt lat="47.42522" lon="-0.66363">
        <ele>62.8</ele>
        <time>2021-07-04T06:52:24Z</time>
      </trkpt>
      <trkpt lat="47.42509" lon="-0.66365">
        <ele>63.2</ele>
        <time>2021-07-04T06:52:26Z</time>
      </trkpt>
      <trkpt lat="47.42496" lon="-0.66366">
        <ele>63.2</ele>
        <time>2021-07-04T06:52:28Z</time>
      </trkpt>
      <trkpt lat="47.42483" lon="-0.66368">
        <ele>63.4</ele>
        <time>2021-07-04T06:52:30Z</time>
      </trkpt>
      <trkpt lat="47.42471" lon="-0.6637">
        <ele>63.2</ele>
        <time>2021-07-04T06:52:32Z</time>
      </trkpt>
      <trkpt lat="47.42459" lon="-0.66372">
        <ele>63</ele>
        <time>2021-07-04T06:52:34Z</time>
      </trkpt>
      <trkpt lat="47.42447" lon="-0.66373">
        <ele>62.8</ele>
        <time>2021-07-04T06:52:36Z</time>
      </trkpt>
      <trkpt lat="47.42435" lon="-0.66374">
        <ele>63.2</ele>
        <time>2021-07-04T06:52:38Z</time>
      </trkpt>
      <trkpt lat="47.42423" lon="-0.66374">
        <ele>63.8</ele>
        <time>2021-07-04T06:52:40Z</time>
      </trkpt>
      <trkpt lat="47.42417" lon="-0.66375">
        <ele>63.6</ele>
        <time>2021-07-04T06:52:41Z</time>
      </trkpt>
      <trkpt lat="47.4241" lon="-0.66377">
        <ele>63.6</ele>
        <time>2021-07-04T06:52:42Z</time>
      </trkpt>
      <trkpt lat="47.42398" lon="-0.66379">
        <ele>63.6</ele>
        <time>2021-07-04T06:52:44Z</time>
      </trkpt>
      <trkpt lat="47.42393" lon="-0.66381">
        <ele>63.6</ele>
        <time>2021-07-04T06:52:45Z</time>
      </trkpt>
      <trkpt lat="47.42387" lon="-0.66382">
        <ele>63.8</ele>
        <time>2021-07-04T06:52:46Z</time>
      </trkpt>
      <trkpt lat="47.42376" lon="-0.66385">
        <ele>63.8</ele>
        <time>2021-07-04T06:52:48Z</time>
      </trkpt>
      <trkpt lat="47.42365" lon="-0.66388">
        <ele>63.8</ele>
        <time>2021-07-04T06:52:50Z</time>
      </trkpt>
      <trkpt lat="47.42354" lon="-0.66391">
        <ele>64</ele>
        <time>2021-07-04T06:52:52Z</time>
      </trkpt>
      <trkpt lat="47.42344" lon="-0.66394">
        <ele>64.4</ele>
        <time>2021-07-04T06:52:54Z</time>
      </trkpt>
      <trkpt lat="47.42334" lon="-0.66397">
        <ele>64.6</ele>
        <time>2021-07-04T06:52:56Z</time>
      </trkpt>
      <trkpt lat="47.42329" lon="-0.66398">
        <ele>65</ele>
        <time>2021-07-04T06:52:57Z</time>
      </trkpt>
      <trkpt lat="47.42323" lon="-0.664">
        <ele>65</ele>
        <time>2021-07-04T06:52:58Z</time>
      </trkpt>
      <trkpt lat="47.42314" lon="-0.66401">
        <ele>65</ele>
        <time>2021-07-04T06:53:00Z</time>
      </trkpt>
      <trkpt lat="47.42304" lon="-0.66405">
        <ele>65.2</ele>
        <time>2021-07-04T06:53:02Z</time>
      </trkpt>
      <trkpt lat="47.42295" lon="-0.66407">
        <ele>65.4</ele>
        <time>2021-07-04T06:53:04Z</time>
      </trkpt>
      <trkpt lat="47.42285" lon="-0.66409">
        <ele>66</ele>
        <time>2021-07-04T06:53:06Z</time>
      </trkpt>
      <trkpt lat="47.4228" lon="-0.6641">
        <ele>66</ele>
        <time>2021-07-04T06:53:07Z</time>
      </trkpt>
      <trkpt lat="47.42274" lon="-0.66411">
        <ele>66.2</ele>
        <time>2021-07-04T06:53:08Z</time>
      </trkpt>
      <trkpt lat="47.42264" lon="-0.66413">
        <ele>66</ele>
        <time>2021-07-04T06:53:10Z</time>
      </trkpt>
      <trkpt lat="47.42258" lon="-0.66413">
        <ele>65.8</ele>
        <time>2021-07-04T06:53:11Z</time>
      </trkpt>
      <trkpt lat="47.42252" lon="-0.66414">
        <ele>66</ele>
        <time>2021-07-04T06:53:12Z</time>
      </trkpt>
      <trkpt lat="47.42241" lon="-0.66415">
        <ele>66.4</ele>
        <time>2021-07-04T06:53:14Z</time>
      </trkpt>
      <trkpt lat="47.42229" lon="-0.66417">
        <ele>66.6</ele>
        <time>2021-07-04T06:53:16Z</time>
      </trkpt>
      <trkpt lat="47.42218" lon="-0.66418">
        <ele>66.4</ele>
        <time>2021-07-04T06:53:18Z</time>
      </trkpt>
      <trkpt lat="47.42206" lon="-0.66418">
        <ele>66.6</ele>
        <time>2021-07-04T06:53:20Z</time>
      </trkpt>
      <trkpt lat="47.42195" lon="-0.6642">
        <ele>66.6</ele>
        <time>2021-07-04T06:53:22Z</time>
      </trkpt>
      <trkpt lat="47.42184" lon="-0.66422">
        <ele>66.2</ele>
        <time>2021-07-04T06:53:24Z</time>
      </trkpt>
      <trkpt lat="47.42179" lon="-0.66422">
        <ele>66.2</ele>
        <time>2021-07-04T06:53:25Z</time>
      </trkpt>
      <trkpt lat="47.42174" lon="-0.66423">
        <ele>65.8</ele>
        <time>2021-07-04T06:53:26Z</time>
      </trkpt>
      <trkpt lat="47.42163" lon="-0.66424">
        <ele>66</ele>
        <time>2021-07-04T06:53:28Z</time>
      </trkpt>
      <trkpt lat="47.4215" lon="-0.66425">
        <ele>66.6</ele>
        <time>2021-07-04T06:53:30Z</time>
      </trkpt>
      <trkpt lat="47.42144" lon="-0.66426">
        <ele>66.6</ele>
        <time>2021-07-04T06:53:31Z</time>
      </trkpt>
      <trkpt lat="47.42138" lon="-0.66427">
        <ele>66.6</ele>
        <time>2021-07-04T06:53:32Z</time>
      </trkpt>
      <trkpt lat="47.42127" lon="-0.66428">
        <ele>66.4</ele>
        <time>2021-07-04T06:53:34Z</time>
      </trkpt>
      <trkpt lat="47.42117" lon="-0.66429">
        <ele>66.2</ele>
        <time>2021-07-04T06:53:36Z</time>
      </trkpt>
      <trkpt lat="47.42107" lon="-0.66431">
        <ele>66.4</ele>
        <time>2021-07-04T06:53:38Z</time>
      </trkpt>
      <trkpt lat="47.42103" lon="-0.66431">
        <ele>66.6</ele>
        <time>2021-07-04T06:53:39Z</time>
      </trkpt>
      <trkpt lat="47.42099" lon="-0.66429">
        <ele>66.6</ele>
        <time>2021-07-04T06:53:40Z</time>
      </trkpt>
      <trkpt lat="47.42095" lon="-0.66424">
        <ele>67.2</ele>
        <time>2021-07-04T06:53:42Z</time>
      </trkpt>
      <trkpt lat="47.42093" lon="-0.66415">
        <ele>67.4</ele>
        <time>2021-07-04T06:53:44Z</time>
      </trkpt>
      <trkpt lat="47.42093" lon="-0.66402">
        <ele>66.8</ele>
        <time>2021-07-04T06:53:46Z</time>
      </trkpt>
      <trkpt lat="47.42094" lon="-0.66395">
        <ele>66.6</ele>
        <time>2021-07-04T06:53:47Z</time>
      </trkpt>
      <trkpt lat="47.42096" lon="-0.66387">
        <ele>66.2</ele>
        <time>2021-07-04T06:53:48Z</time>
      </trkpt>
      <trkpt lat="47.42097" lon="-0.66378">
        <ele>66</ele>
        <time>2021-07-04T06:53:49Z</time>
      </trkpt>
      <trkpt lat="47.42099" lon="-0.6637">
        <ele>65.8</ele>
        <time>2021-07-04T06:53:50Z</time>
      </trkpt>
      <trkpt lat="47.42102" lon="-0.66351">
        <ele>65.2</ele>
        <time>2021-07-04T06:53:52Z</time>
      </trkpt>
      <trkpt lat="47.42104" lon="-0.66332">
        <ele>64.8</ele>
        <time>2021-07-04T06:53:54Z</time>
      </trkpt>
      <trkpt lat="47.42107" lon="-0.66314">
        <ele>64.8</ele>
        <time>2021-07-04T06:53:56Z</time>
      </trkpt>
      <trkpt lat="47.4211" lon="-0.66294">
        <ele>64.4</ele>
        <time>2021-07-04T06:53:58Z</time>
      </trkpt>
      <trkpt lat="47.42111" lon="-0.66284">
        <ele>64.2</ele>
        <time>2021-07-04T06:53:59Z</time>
      </trkpt>
      <trkpt lat="47.42111" lon="-0.66275">
        <ele>64</ele>
        <time>2021-07-04T06:54:00Z</time>
      </trkpt>
      <trkpt lat="47.42112" lon="-0.66265">
        <ele>63.8</ele>
        <time>2021-07-04T06:54:01Z</time>
      </trkpt>
      <trkpt lat="47.42112" lon="-0.66255">
        <ele>63.6</ele>
        <time>2021-07-04T06:54:02Z</time>
      </trkpt>
      <trkpt lat="47.42111" lon="-0.66245">
        <ele>63.6</ele>
        <time>2021-07-04T06:54:03Z</time>
      </trkpt>
      <trkpt lat="47.42111" lon="-0.66235">
        <ele>63.6</ele>
        <time>2021-07-04T06:54:04Z</time>
      </trkpt>
      <trkpt lat="47.42107" lon="-0.66216">
        <ele>63</ele>
        <time>2021-07-04T06:54:06Z</time>
      </trkpt>
      <trkpt lat="47.42104" lon="-0.66206">
        <ele>62.4</ele>
        <time>2021-07-04T06:54:07Z</time>
      </trkpt>
      <trkpt lat="47.421" lon="-0.66197">
        <ele>62.2</ele>
        <time>2021-07-04T06:54:08Z</time>
      </trkpt>
      <trkpt lat="47.42095" lon="-0.66189">
        <ele>61.4</ele>
        <time>2021-07-04T06:54:09Z</time>
      </trkpt>
      <trkpt lat="47.42091" lon="-0.66181">
        <ele>61.2</ele>
        <time>2021-07-04T06:54:10Z</time>
      </trkpt>
      <trkpt lat="47.4208" lon="-0.66168">
        <ele>61.4</ele>
        <time>2021-07-04T06:54:12Z</time>
      </trkpt>
      <trkpt lat="47.42074" lon="-0.66161">
        <ele>61.4</ele>
        <time>2021-07-04T06:54:13Z</time>
      </trkpt>
      <trkpt lat="47.42069" lon="-0.66155">
        <ele>61.2</ele>
        <time>2021-07-04T06:54:14Z</time>
      </trkpt>
      <trkpt lat="47.42058" lon="-0.66144">
        <ele>61</ele>
        <time>2021-07-04T06:54:16Z</time>
      </trkpt>
      <trkpt lat="47.42048" lon="-0.66133">
        <ele>60.8</ele>
        <time>2021-07-04T06:54:18Z</time>
      </trkpt>
      <trkpt lat="47.42037" lon="-0.66122">
        <ele>60.8</ele>
        <time>2021-07-04T06:54:20Z</time>
      </trkpt>
      <trkpt lat="47.42027" lon="-0.66111">
        <ele>61</ele>
        <time>2021-07-04T06:54:22Z</time>
      </trkpt>
      <trkpt lat="47.42017" lon="-0.66099">
        <ele>61.2</ele>
        <time>2021-07-04T06:54:24Z</time>
      </trkpt>
      <trkpt lat="47.42006" lon="-0.66088">
        <ele>61</ele>
        <time>2021-07-04T06:54:26Z</time>
      </trkpt>
      <trkpt lat="47.41996" lon="-0.66078">
        <ele>60.6</ele>
        <time>2021-07-04T06:54:28Z</time>
      </trkpt>
      <trkpt lat="47.41985" lon="-0.66066">
        <ele>60.4</ele>
        <time>2021-07-04T06:54:30Z</time>
      </trkpt>
      <trkpt lat="47.41975" lon="-0.66055">
        <ele>60.6</ele>
        <time>2021-07-04T06:54:32Z</time>
      </trkpt>
      <trkpt lat="47.4197" lon="-0.66049">
        <ele>60.4</ele>
        <time>2021-07-04T06:54:33Z</time>
      </trkpt>
      <trkpt lat="47.41965" lon="-0.66042">
        <ele>59.8</ele>
        <time>2021-07-04T06:54:34Z</time>
      </trkpt>
      <trkpt lat="47.41956" lon="-0.66027">
        <ele>59.4</ele>
        <time>2021-07-04T06:54:36Z</time>
      </trkpt>
      <trkpt lat="47.41951" lon="-0.66019">
        <ele>59</ele>
        <time>2021-07-04T06:54:37Z</time>
      </trkpt>
      <trkpt lat="47.41947" lon="-0.6601">
        <ele>58.8</ele>
        <time>2021-07-04T06:54:38Z</time>
      </trkpt>
      <trkpt lat="47.4194" lon="-0.65991">
        <ele>58.4</ele>
        <time>2021-07-04T06:54:40Z</time>
      </trkpt>
      <trkpt lat="47.41934" lon="-0.6597">
        <ele>57.8</ele>
        <time>2021-07-04T06:54:42Z</time>
      </trkpt>
      <trkpt lat="47.41928" lon="-0.65949">
        <ele>57.2</ele>
        <time>2021-07-04T06:54:44Z</time>
      </trkpt>
      <trkpt lat="47.41924" lon="-0.65927">
        <ele>56.6</ele>
        <time>2021-07-04T06:54:46Z</time>
      </trkpt>
      <trkpt lat="47.4192" lon="-0.65905">
        <ele>55.8</ele>
        <time>2021-07-04T06:54:48Z</time>
      </trkpt>
      <trkpt lat="47.41917" lon="-0.65894">
        <ele>55.6</ele>
        <time>2021-07-04T06:54:49Z</time>
      </trkpt>
      <trkpt lat="47.41915" lon="-0.65882">
        <ele>55.4</ele>
        <time>2021-07-04T06:54:50Z</time>
      </trkpt>
      <trkpt lat="47.41911" lon="-0.65861">
        <ele>54.8</ele>
        <time>2021-07-04T06:54:52Z</time>
      </trkpt>
      <trkpt lat="47.41909" lon="-0.6585">
        <ele>54.6</ele>
        <time>2021-07-04T06:54:53Z</time>
      </trkpt>
      <trkpt lat="47.41907" lon="-0.6584">
        <ele>54.4</ele>
        <time>2021-07-04T06:54:54Z</time>
      </trkpt>
      <trkpt lat="47.41906" lon="-0.6583">
        <ele>54.2</ele>
        <time>2021-07-04T06:54:55Z</time>
      </trkpt>
      <trkpt lat="47.41904" lon="-0.6582">
        <ele>54.4</ele>
        <time>2021-07-04T06:54:56Z</time>
      </trkpt>
      <trkpt lat="47.419" lon="-0.65801">
        <ele>54.8</ele>
        <time>2021-07-04T06:54:58Z</time>
      </trkpt>
      <trkpt lat="47.41896" lon="-0.65781">
        <ele>55</ele>
        <time>2021-07-04T06:55:00Z</time>
      </trkpt>
      <trkpt lat="47.41894" lon="-0.65772">
        <ele>55</ele>
        <time>2021-07-04T06:55:01Z</time>
      </trkpt>
      <trkpt lat="47.41892" lon="-0.65762">
        <ele>55</ele>
        <time>2021-07-04T06:55:02Z</time>
      </trkpt>
      <trkpt lat="47.41888" lon="-0.65743">
        <ele>54.8</ele>
        <time>2021-07-04T06:55:04Z</time>
      </trkpt>
      <trkpt lat="47.41884" lon="-0.65724">
        <ele>55</ele>
        <time>2021-07-04T06:55:06Z</time>
      </trkpt>
      <trkpt lat="47.4188" lon="-0.65706">
        <ele>55</ele>
        <time>2021-07-04T06:55:08Z</time>
      </trkpt>
      <trkpt lat="47.41877" lon="-0.65686">
        <ele>55.4</ele>
        <time>2021-07-04T06:55:10Z</time>
      </trkpt>
      <trkpt lat="47.41875" lon="-0.65676">
        <ele>55.8</ele>
        <time>2021-07-04T06:55:11Z</time>
      </trkpt>
      <trkpt lat="47.41874" lon="-0.65667">
        <ele>55.8</ele>
        <time>2021-07-04T06:55:12Z</time>
      </trkpt>
      <trkpt lat="47.41869" lon="-0.65648">
        <ele>55.8</ele>
        <time>2021-07-04T06:55:14Z</time>
      </trkpt>
      <trkpt lat="47.41864" lon="-0.65629">
        <ele>56.2</ele>
        <time>2021-07-04T06:55:16Z</time>
      </trkpt>
      <trkpt lat="47.41859" lon="-0.65612">
        <ele>56</ele>
        <time>2021-07-04T06:55:18Z</time>
      </trkpt>
      <trkpt lat="47.41854" lon="-0.65597">
        <ele>56.2</ele>
        <time>2021-07-04T06:55:20Z</time>
      </trkpt>
      <trkpt lat="47.41848" lon="-0.65582">
        <ele>57</ele>
        <time>2021-07-04T06:55:22Z</time>
      </trkpt>
      <trkpt lat="47.41843" lon="-0.65568">
        <ele>57.2</ele>
        <time>2021-07-04T06:55:24Z</time>
      </trkpt>
      <trkpt lat="47.41837" lon="-0.65553">
        <ele>58</ele>
        <time>2021-07-04T06:55:26Z</time>
      </trkpt>
      <trkpt lat="47.41834" lon="-0.65547">
        <ele>58</ele>
        <time>2021-07-04T06:55:27Z</time>
      </trkpt>
      <trkpt lat="47.41831" lon="-0.6554">
        <ele>57.6</ele>
        <time>2021-07-04T06:55:28Z</time>
      </trkpt>
      <trkpt lat="47.41824" lon="-0.65526">
        <ele>57.8</ele>
        <time>2021-07-04T06:55:30Z</time>
      </trkpt>
      <trkpt lat="47.4182" lon="-0.65518">
        <ele>58</ele>
        <time>2021-07-04T06:55:31Z</time>
      </trkpt>
      <trkpt lat="47.41817" lon="-0.65511">
        <ele>58</ele>
        <time>2021-07-04T06:55:32Z</time>
      </trkpt>
      <trkpt lat="47.41809" lon="-0.65495">
        <ele>57.8</ele>
        <time>2021-07-04T06:55:34Z</time>
      </trkpt>
      <trkpt lat="47.41806" lon="-0.65489">
        <ele>57.8</ele>
        <time>2021-07-04T06:55:35Z</time>
      </trkpt>
      <trkpt lat="47.41803" lon="-0.65481">
        <ele>58</ele>
        <time>2021-07-04T06:55:36Z</time>
      </trkpt>
      <trkpt lat="47.41797" lon="-0.65468">
        <ele>57.8</ele>
        <time>2021-07-04T06:55:38Z</time>
      </trkpt>
      <trkpt lat="47.41791" lon="-0.65455">
        <ele>57.8</ele>
        <time>2021-07-04T06:55:40Z</time>
      </trkpt>
      <trkpt lat="47.41788" lon="-0.65448">
        <ele>58</ele>
        <time>2021-07-04T06:55:41Z</time>
      </trkpt>
      <trkpt lat="47.41784" lon="-0.65442">
        <ele>58.2</ele>
        <time>2021-07-04T06:55:42Z</time>
      </trkpt>
      <trkpt lat="47.41776" lon="-0.65427">
        <ele>58.6</ele>
        <time>2021-07-04T06:55:44Z</time>
      </trkpt>
      <trkpt lat="47.41768" lon="-0.65413">
        <ele>58.4</ele>
        <time>2021-07-04T06:55:46Z</time>
      </trkpt>
      <trkpt lat="47.41765" lon="-0.65406">
        <ele>58.2</ele>
        <time>2021-07-04T06:55:47Z</time>
      </trkpt>
      <trkpt lat="47.41761" lon="-0.65398">
        <ele>58</ele>
        <time>2021-07-04T06:55:48Z</time>
      </trkpt>
      <trkpt lat="47.41754" lon="-0.65382">
        <ele>57.8</ele>
        <time>2021-07-04T06:55:50Z</time>
      </trkpt>
      <trkpt lat="47.41747" lon="-0.65364">
        <ele>57.6</ele>
        <time>2021-07-04T06:55:52Z</time>
      </trkpt>
      <trkpt lat="47.41741" lon="-0.65347">
        <ele>57.8</ele>
        <time>2021-07-04T06:55:54Z</time>
      </trkpt>
      <trkpt lat="47.41735" lon="-0.6533">
        <ele>57.8</ele>
        <time>2021-07-04T06:55:56Z</time>
      </trkpt>
      <trkpt lat="47.4173" lon="-0.65314">
        <ele>58</ele>
        <time>2021-07-04T06:55:58Z</time>
      </trkpt>
      <trkpt lat="47.41725" lon="-0.65299">
        <ele>58.6</ele>
        <time>2021-07-04T06:56:00Z</time>
      </trkpt>
      <trkpt lat="47.41723" lon="-0.65292">
        <ele>58.8</ele>
        <time>2021-07-04T06:56:01Z</time>
      </trkpt>
      <trkpt lat="47.41721" lon="-0.65285">
        <ele>58.8</ele>
        <time>2021-07-04T06:56:02Z</time>
      </trkpt>
      <trkpt lat="47.41714" lon="-0.65272">
        <ele>59</ele>
        <time>2021-07-04T06:56:04Z</time>
      </trkpt>
      <trkpt lat="47.41709" lon="-0.65257">
        <ele>59</ele>
        <time>2021-07-04T06:56:06Z</time>
      </trkpt>
      <trkpt lat="47.41707" lon="-0.65249">
        <ele>59.2</ele>
        <time>2021-07-04T06:56:07Z</time>
      </trkpt>
      <trkpt lat="47.41705" lon="-0.65241">
        <ele>59.4</ele>
        <time>2021-07-04T06:56:08Z</time>
      </trkpt>
      <trkpt lat="47.41701" lon="-0.65226">
        <ele>59.6</ele>
        <time>2021-07-04T06:56:10Z</time>
      </trkpt>
      <trkpt lat="47.41698" lon="-0.65212">
        <ele>59.6</ele>
        <time>2021-07-04T06:56:12Z</time>
      </trkpt>
      <trkpt lat="47.41697" lon="-0.65201">
        <ele>60.2</ele>
        <time>2021-07-04T06:56:14Z</time>
      </trkpt>
      <trkpt lat="47.41695" lon="-0.65197">
        <ele>61</ele>
        <time>2021-07-04T06:56:16Z</time>
      </trkpt>
      <trkpt lat="47.41694" lon="-0.65197">
        <ele>61</ele>
        <time>2021-07-04T06:56:17Z</time>
      </trkpt>
      <trkpt lat="47.41693" lon="-0.65197">
        <ele>61</ele>
        <time>2021-07-04T06:56:18Z</time>
      </trkpt>
      <trkpt lat="47.41691" lon="-0.65196">
        <ele>61</ele>
        <time>2021-07-04T06:56:19Z</time>
      </trkpt>
      <trkpt lat="47.4169" lon="-0.65195">
        <ele>60.8</ele>
        <time>2021-07-04T06:56:20Z</time>
      </trkpt>
      <trkpt lat="47.41685" lon="-0.65193">
        <ele>60.6</ele>
        <time>2021-07-04T06:56:22Z</time>
      </trkpt>
      <trkpt lat="47.41679" lon="-0.65194">
        <ele>60.6</ele>
        <time>2021-07-04T06:56:24Z</time>
      </trkpt>
      <trkpt lat="47.41674" lon="-0.65197">
        <ele>60.6</ele>
        <time>2021-07-04T06:56:26Z</time>
      </trkpt>
      <trkpt lat="47.41671" lon="-0.65199">
        <ele>60.6</ele>
        <time>2021-07-04T06:56:27Z</time>
      </trkpt>
      <trkpt lat="47.41668" lon="-0.65202">
        <ele>60.4</ele>
        <time>2021-07-04T06:56:28Z</time>
      </trkpt>
      <trkpt lat="47.41661" lon="-0.65206">
        <ele>60.2</ele>
        <time>2021-07-04T06:56:30Z</time>
      </trkpt>
      <trkpt lat="47.41655" lon="-0.6521">
        <ele>60.2</ele>
        <time>2021-07-04T06:56:32Z</time>
      </trkpt>
      <trkpt lat="47.41648" lon="-0.65215">
        <ele>61</ele>
        <time>2021-07-04T06:56:34Z</time>
      </trkpt>
      <trkpt lat="47.41643" lon="-0.65219">
        <ele>61</ele>
        <time>2021-07-04T06:56:36Z</time>
      </trkpt>
      <trkpt lat="47.41637" lon="-0.65224">
        <ele>61.2</ele>
        <time>2021-07-04T06:56:38Z</time>
      </trkpt>
      <trkpt lat="47.41634" lon="-0.65226">
        <ele>61.4</ele>
        <time>2021-07-04T06:56:39Z</time>
      </trkpt>
      <trkpt lat="47.41631" lon="-0.65228">
        <ele>61.4</ele>
        <time>2021-07-04T06:56:40Z</time>
      </trkpt>
      <trkpt lat="47.41624" lon="-0.65231">
        <ele>61</ele>
        <time>2021-07-04T06:56:42Z</time>
      </trkpt>
      <trkpt lat="47.41616" lon="-0.65236">
        <ele>60.8</ele>
        <time>2021-07-04T06:56:44Z</time>
      </trkpt>
      <trkpt lat="47.41606" lon="-0.6524">
        <ele>60.6</ele>
        <time>2021-07-04T06:56:46Z</time>
      </trkpt>
      <trkpt lat="47.41597" lon="-0.65244">
        <ele>60.6</ele>
        <time>2021-07-04T06:56:48Z</time>
      </trkpt>
      <trkpt lat="47.41588" lon="-0.65246">
        <ele>60.4</ele>
        <time>2021-07-04T06:56:50Z</time>
      </trkpt>
      <trkpt lat="47.41585" lon="-0.65247">
        <ele>60.2</ele>
        <time>2021-07-04T06:56:51Z</time>
      </trkpt>
      <trkpt lat="47.41581" lon="-0.65249">
        <ele>60.2</ele>
        <time>2021-07-04T06:56:52Z</time>
      </trkpt>
      <trkpt lat="47.41574" lon="-0.65253">
        <ele>60.8</ele>
        <time>2021-07-04T06:56:54Z</time>
      </trkpt>
      <trkpt lat="47.41568" lon="-0.6526">
        <ele>61.2</ele>
        <time>2021-07-04T06:56:56Z</time>
      </trkpt>
      <trkpt lat="47.41565" lon="-0.65261">
        <ele>61.2</ele>
        <time>2021-07-04T06:56:57Z</time>
      </trkpt>
      <trkpt lat="47.41562" lon="-0.65261">
        <ele>61</ele>
        <time>2021-07-04T06:56:58Z</time>
      </trkpt>
      <trkpt lat="47.41556" lon="-0.65263">
        <ele>61</ele>
        <time>2021-07-04T06:57:00Z</time>
      </trkpt>
      <trkpt lat="47.41551" lon="-0.65264">
        <ele>60.8</ele>
        <time>2021-07-04T06:57:02Z</time>
      </trkpt>
      <trkpt lat="47.41545" lon="-0.6526">
        <ele>60.4</ele>
        <time>2021-07-04T06:57:04Z</time>
      </trkpt>
      <trkpt lat="47.41537" lon="-0.65258">
        <ele>60.2</ele>
        <time>2021-07-04T06:57:05Z</time>
      </trkpt>
      <trkpt lat="47.4153" lon="-0.65256">
        <ele>60</ele>
        <time>2021-07-04T06:57:06Z</time>
      </trkpt>
      <trkpt lat="47.41521" lon="-0.65252">
        <ele>59.8</ele>
        <time>2021-07-04T06:57:08Z</time>
      </trkpt>
      <trkpt lat="47.41516" lon="-0.6525">
        <ele>59.8</ele>
        <time>2021-07-04T06:57:09Z</time>
      </trkpt>
      <trkpt lat="47.41513" lon="-0.65247">
        <ele>59.8</ele>
        <time>2021-07-04T06:57:10Z</time>
      </trkpt>
      <trkpt lat="47.41508" lon="-0.65246">
        <ele>60.4</ele>
        <time>2021-07-04T06:57:12Z</time>
      </trkpt>
      <trkpt lat="47.41503" lon="-0.65246">
        <ele>60.8</ele>
        <time>2021-07-04T06:57:14Z</time>
      </trkpt>
      <trkpt lat="47.41499" lon="-0.65246">
        <ele>60.8</ele>
        <time>2021-07-04T06:57:16Z</time>
      </trkpt>
      <trkpt lat="47.41492" lon="-0.65246">
        <ele>60.8</ele>
        <time>2021-07-04T06:57:18Z</time>
      </trkpt>
      <trkpt lat="47.41486" lon="-0.65247">
        <ele>60.8</ele>
        <time>2021-07-04T06:57:20Z</time>
      </trkpt>
      <trkpt lat="47.41481" lon="-0.65246">
        <ele>60.6</ele>
        <time>2021-07-04T06:57:22Z</time>
      </trkpt>
      <trkpt lat="47.41479" lon="-0.65249">
        <ele>60.6</ele>
        <time>2021-07-04T06:57:23Z</time>
      </trkpt>
      <trkpt lat="47.41477" lon="-0.65252">
        <ele>60.4</ele>
        <time>2021-07-04T06:57:24Z</time>
      </trkpt>
      <trkpt lat="47.41472" lon="-0.65258">
        <ele>60.2</ele>
        <time>2021-07-04T06:57:26Z</time>
      </trkpt>
      <trkpt lat="47.4147" lon="-0.6526">
        <ele>60.4</ele>
        <time>2021-07-04T06:57:27Z</time>
      </trkpt>
      <trkpt lat="47.41469" lon="-0.65262">
        <ele>60.2</ele>
        <time>2021-07-04T06:57:28Z</time>
      </trkpt>
      <trkpt lat="47.4146" lon="-0.65258">
        <ele>60.6</ele>
        <time>2021-07-04T06:57:33Z</time>
      </trkpt>
      <trkpt lat="47.41454" lon="-0.65253">
        <ele>60.4</ele>
        <time>2021-07-04T06:57:35Z</time>
      </trkpt>
      <trkpt lat="47.41447" lon="-0.65246">
        <ele>60.6</ele>
        <time>2021-07-04T06:57:37Z</time>
      </trkpt>
      <trkpt lat="47.41439" lon="-0.6524">
        <ele>61</ele>
        <time>2021-07-04T06:57:39Z</time>
      </trkpt>
      <trkpt lat="47.41431" lon="-0.65235">
        <ele>61</ele>
        <time>2021-07-04T06:57:41Z</time>
      </trkpt>
      <trkpt lat="47.41424" lon="-0.6523">
        <ele>61.4</ele>
        <time>2021-07-04T06:57:43Z</time>
      </trkpt>
      <trkpt lat="47.41416" lon="-0.65224">
        <ele>61.8</ele>
        <time>2021-07-04T06:57:45Z</time>
      </trkpt>
      <trkpt lat="47.41409" lon="-0.65218">
        <ele>62.2</ele>
        <time>2021-07-04T06:57:47Z</time>
      </trkpt>
      <trkpt lat="47.41405" lon="-0.65215">
        <ele>62.2</ele>
        <time>2021-07-04T06:57:48Z</time>
      </trkpt>
      <trkpt lat="47.414" lon="-0.65211">
        <ele>62.4</ele>
        <time>2021-07-04T06:57:49Z</time>
      </trkpt>
      <trkpt lat="47.41397" lon="-0.65208">
        <ele>62.8</ele>
        <time>2021-07-04T06:57:50Z</time>
      </trkpt>
      <trkpt lat="47.41393" lon="-0.65205">
        <ele>63</ele>
        <time>2021-07-04T06:57:51Z</time>
      </trkpt>
      <trkpt lat="47.41382" lon="-0.652">
        <ele>63.2</ele>
        <time>2021-07-04T06:57:53Z</time>
      </trkpt>
      <trkpt lat="47.41372" lon="-0.65195">
        <ele>63.6</ele>
        <time>2021-07-04T06:57:55Z</time>
      </trkpt>
      <trkpt lat="47.41363" lon="-0.65189">
        <ele>63.8</ele>
        <time>2021-07-04T06:57:57Z</time>
      </trkpt>
      <trkpt lat="47.41353" lon="-0.65183">
        <ele>64.4</ele>
        <time>2021-07-04T06:57:59Z</time>
      </trkpt>
      <trkpt lat="47.41343" lon="-0.6518">
        <ele>65</ele>
        <time>2021-07-04T06:58:01Z</time>
      </trkpt>
      <trkpt lat="47.41336" lon="-0.65177">
        <ele>65.2</ele>
        <time>2021-07-04T06:58:03Z</time>
      </trkpt>
      <trkpt lat="47.41327" lon="-0.65172">
        <ele>65.6</ele>
        <time>2021-07-04T06:58:05Z</time>
      </trkpt>
      <trkpt lat="47.41318" lon="-0.65165">
        <ele>65.8</ele>
        <time>2021-07-04T06:58:07Z</time>
      </trkpt>
      <trkpt lat="47.41313" lon="-0.65162">
        <ele>66</ele>
        <time>2021-07-04T06:58:08Z</time>
      </trkpt>
      <trkpt lat="47.41309" lon="-0.6516">
        <ele>65.8</ele>
        <time>2021-07-04T06:58:09Z</time>
      </trkpt>
      <trkpt lat="47.41301" lon="-0.65156">
        <ele>66.4</ele>
        <time>2021-07-04T06:58:11Z</time>
      </trkpt>
      <trkpt lat="47.41293" lon="-0.65152">
        <ele>67</ele>
        <time>2021-07-04T06:58:13Z</time>
      </trkpt>
      <trkpt lat="47.41287" lon="-0.65149">
        <ele>67</ele>
        <time>2021-07-04T06:58:14Z</time>
      </trkpt>
      <trkpt lat="47.41282" lon="-0.65146">
        <ele>67</ele>
        <time>2021-07-04T06:58:15Z</time>
      </trkpt>
      <trkpt lat="47.41272" lon="-0.6514">
        <ele>67.2</ele>
        <time>2021-07-04T06:58:17Z</time>
      </trkpt>
      <trkpt lat="47.41261" lon="-0.6513">
        <ele>67.2</ele>
        <time>2021-07-04T06:58:19Z</time>
      </trkpt>
      <trkpt lat="47.41257" lon="-0.65127">
        <ele>66.6</ele>
        <time>2021-07-04T06:58:20Z</time>
      </trkpt>
      <trkpt lat="47.41253" lon="-0.65124">
        <ele>66.8</ele>
        <time>2021-07-04T06:58:21Z</time>
      </trkpt>
      <trkpt lat="47.41244" lon="-0.65119">
        <ele>67</ele>
        <time>2021-07-04T06:58:23Z</time>
      </trkpt>
      <trkpt lat="47.41235" lon="-0.6511">
        <ele>67.4</ele>
        <time>2021-07-04T06:58:25Z</time>
      </trkpt>
      <trkpt lat="47.41229" lon="-0.65102">
        <ele>67.8</ele>
        <time>2021-07-04T06:58:27Z</time>
      </trkpt>
      <trkpt lat="47.41225" lon="-0.65098">
        <ele>68</ele>
        <time>2021-07-04T06:58:28Z</time>
      </trkpt>
      <trkpt lat="47.41221" lon="-0.65092">
        <ele>68.2</ele>
        <time>2021-07-04T06:58:29Z</time>
      </trkpt>
      <trkpt lat="47.41208" lon="-0.65083">
        <ele>68.4</ele>
        <time>2021-07-04T06:58:31Z</time>
      </trkpt>
      <trkpt lat="47.41203" lon="-0.65077">
        <ele>68.4</ele>
        <time>2021-07-04T06:58:32Z</time>
      </trkpt>
      <trkpt lat="47.41198" lon="-0.65071">
        <ele>68</ele>
        <time>2021-07-04T06:58:33Z</time>
      </trkpt>
      <trkpt lat="47.41191" lon="-0.65061">
        <ele>68</ele>
        <time>2021-07-04T06:58:35Z</time>
      </trkpt>
      <trkpt lat="47.41187" lon="-0.65056">
        <ele>68.2</ele>
        <time>2021-07-04T06:58:36Z</time>
      </trkpt>
      <trkpt lat="47.41182" lon="-0.65052">
        <ele>68.2</ele>
        <time>2021-07-04T06:58:37Z</time>
      </trkpt>
      <trkpt lat="47.41176" lon="-0.65049">
        <ele>68.4</ele>
        <time>2021-07-04T06:58:38Z</time>
      </trkpt>
      <trkpt lat="47.41171" lon="-0.65045">
        <ele>68.2</ele>
        <time>2021-07-04T06:58:39Z</time>
      </trkpt>
      <trkpt lat="47.41163" lon="-0.65038">
        <ele>68.2</ele>
        <time>2021-07-04T06:58:41Z</time>
      </trkpt>
      <trkpt lat="47.41155" lon="-0.65029">
        <ele>68.4</ele>
        <time>2021-07-04T06:58:43Z</time>
      </trkpt>
      <trkpt lat="47.41151" lon="-0.65024">
        <ele>68.6</ele>
        <time>2021-07-04T06:58:44Z</time>
      </trkpt>
      <trkpt lat="47.41146" lon="-0.6502">
        <ele>68.8</ele>
        <time>2021-07-04T06:58:45Z</time>
      </trkpt>
      <trkpt lat="47.4114" lon="-0.65015">
        <ele>69</ele>
        <time>2021-07-04T06:58:47Z</time>
      </trkpt>
      <trkpt lat="47.41136" lon="-0.65013">
        <ele>69.4</ele>
        <time>2021-07-04T06:58:48Z</time>
      </trkpt>
      <trkpt lat="47.41133" lon="-0.65012">
        <ele>69.2</ele>
        <time>2021-07-04T06:58:49Z</time>
      </trkpt>
      <trkpt lat="47.41125" lon="-0.6501">
        <ele>69.2</ele>
        <time>2021-07-04T06:58:51Z</time>
      </trkpt>
      <trkpt lat="47.41116" lon="-0.65007">
        <ele>69.2</ele>
        <time>2021-07-04T06:58:53Z</time>
      </trkpt>
      <trkpt lat="47.41106" lon="-0.65006">
        <ele>69.6</ele>
        <time>2021-07-04T06:58:55Z</time>
      </trkpt>
      <trkpt lat="47.41097" lon="-0.6501">
        <ele>70</ele>
        <time>2021-07-04T06:58:57Z</time>
      </trkpt>
      <trkpt lat="47.41089" lon="-0.65007">
        <ele>69.8</ele>
        <time>2021-07-04T06:58:59Z</time>
      </trkpt>
      <trkpt lat="47.41086" lon="-0.65005">
        <ele>70.2</ele>
        <time>2021-07-04T06:59:00Z</time>
      </trkpt>
      <trkpt lat="47.41083" lon="-0.65004">
        <ele>70.4</ele>
        <time>2021-07-04T06:59:01Z</time>
      </trkpt>
      <trkpt lat="47.41076" lon="-0.65005">
        <ele>71</ele>
        <time>2021-07-04T06:59:03Z</time>
      </trkpt>
      <trkpt lat="47.41072" lon="-0.65007">
        <ele>71.2</ele>
        <time>2021-07-04T06:59:04Z</time>
      </trkpt>
      <trkpt lat="47.41068" lon="-0.65008">
        <ele>71.4</ele>
        <time>2021-07-04T06:59:05Z</time>
      </trkpt>
      <trkpt lat="47.4106" lon="-0.65007">
        <ele>71.4</ele>
        <time>2021-07-04T06:59:07Z</time>
      </trkpt>
      <trkpt lat="47.41056" lon="-0.65006">
        <ele>71.6</ele>
        <time>2021-07-04T06:59:08Z</time>
      </trkpt>
      <trkpt lat="47.41052" lon="-0.65006">
        <ele>71.8</ele>
        <time>2021-07-04T06:59:09Z</time>
      </trkpt>
      <trkpt lat="47.41046" lon="-0.65005">
        <ele>72.4</ele>
        <time>2021-07-04T06:59:11Z</time>
      </trkpt>
      <trkpt lat="47.41038" lon="-0.65005">
        <ele>72.6</ele>
        <time>2021-07-04T06:59:13Z</time>
      </trkpt>
      <trkpt lat="47.4103" lon="-0.65002">
        <ele>72.6</ele>
        <time>2021-07-04T06:59:15Z</time>
      </trkpt>
      <trkpt lat="47.41023" lon="-0.65001">
        <ele>73</ele>
        <time>2021-07-04T06:59:17Z</time>
      </trkpt>
      <trkpt lat="47.41019" lon="-0.65">
        <ele>73.4</ele>
        <time>2021-07-04T06:59:18Z</time>
      </trkpt>
      <trkpt lat="47.41017" lon="-0.64998">
        <ele>73.6</ele>
        <time>2021-07-04T06:59:19Z</time>
      </trkpt>
      <trkpt lat="47.41012" lon="-0.64995">
        <ele>73.8</ele>
        <time>2021-07-04T06:59:21Z</time>
      </trkpt>
      <trkpt lat="47.41007" lon="-0.64991">
        <ele>74.4</ele>
        <time>2021-07-04T06:59:23Z</time>
      </trkpt>
      <trkpt lat="47.41001" lon="-0.64988">
        <ele>74.4</ele>
        <time>2021-07-04T06:59:25Z</time>
      </trkpt>
      <trkpt lat="47.40998" lon="-0.64986">
        <ele>74.4</ele>
        <time>2021-07-04T06:59:26Z</time>
      </trkpt>
      <trkpt lat="47.40995" lon="-0.64984">
        <ele>74.4</ele>
        <time>2021-07-04T06:59:27Z</time>
      </trkpt>
      <trkpt lat="47.40988" lon="-0.64981">
        <ele>74.6</ele>
        <time>2021-07-04T06:59:29Z</time>
      </trkpt>
      <trkpt lat="47.40982" lon="-0.64977">
        <ele>74.8</ele>
        <time>2021-07-04T06:59:31Z</time>
      </trkpt>
      <trkpt lat="47.40975" lon="-0.64971">
        <ele>75.2</ele>
        <time>2021-07-04T06:59:33Z</time>
      </trkpt>
      <trkpt lat="47.40966" lon="-0.64967">
        <ele>75</ele>
        <time>2021-07-04T06:59:35Z</time>
      </trkpt>
      <trkpt lat="47.40956" lon="-0.64963">
        <ele>74.8</ele>
        <time>2021-07-04T06:59:37Z</time>
      </trkpt>
      <trkpt lat="47.4095" lon="-0.64963">
        <ele>75</ele>
        <time>2021-07-04T06:59:38Z</time>
      </trkpt>
      <trkpt lat="47.40945" lon="-0.64963">
        <ele>75</ele>
        <time>2021-07-04T06:59:39Z</time>
      </trkpt>
      <trkpt lat="47.4094" lon="-0.64964">
        <ele>75</ele>
        <time>2021-07-04T06:59:40Z</time>
      </trkpt>
      <trkpt lat="47.40934" lon="-0.64963">
        <ele>74.8</ele>
        <time>2021-07-04T06:59:41Z</time>
      </trkpt>
      <trkpt lat="47.40924" lon="-0.64959">
        <ele>74.6</ele>
        <time>2021-07-04T06:59:43Z</time>
      </trkpt>
      <trkpt lat="47.40915" lon="-0.64957">
        <ele>74.6</ele>
        <time>2021-07-04T06:59:44Z</time>
      </trkpt>
      <trkpt lat="47.40908" lon="-0.64956">
        <ele>74.2</ele>
        <time>2021-07-04T06:59:45Z</time>
      </trkpt>
      <trkpt lat="47.40901" lon="-0.64954">
        <ele>74</ele>
        <time>2021-07-04T06:59:46Z</time>
      </trkpt>
      <trkpt lat="47.40895" lon="-0.64952">
        <ele>74.2</ele>
        <time>2021-07-04T06:59:47Z</time>
      </trkpt>
      <trkpt lat="47.40888" lon="-0.64946">
        <ele>74.4</ele>
        <time>2021-07-04T06:59:49Z</time>
      </trkpt>
      <trkpt lat="47.40886" lon="-0.64934">
        <ele>74.8</ele>
        <time>2021-07-04T06:59:51Z</time>
      </trkpt>
      <trkpt lat="47.40884" lon="-0.64929">
        <ele>74.8</ele>
        <time>2021-07-04T06:59:52Z</time>
      </trkpt>
      <trkpt lat="47.40883" lon="-0.64924">
        <ele>74.4</ele>
        <time>2021-07-04T06:59:53Z</time>
      </trkpt>
      <trkpt lat="47.40879" lon="-0.64915">
        <ele>74.2</ele>
        <time>2021-07-04T06:59:55Z</time>
      </trkpt>
      <trkpt lat="47.40874" lon="-0.649">
        <ele>73.6</ele>
        <time>2021-07-04T06:59:57Z</time>
      </trkpt>
      <trkpt lat="47.40871" lon="-0.64892">
        <ele>73.4</ele>
        <time>2021-07-04T06:59:58Z</time>
      </trkpt>
      <trkpt lat="47.40868" lon="-0.64883">
        <ele>73.4</ele>
        <time>2021-07-04T06:59:59Z</time>
      </trkpt>
      <trkpt lat="47.40865" lon="-0.64869">
        <ele>73.8</ele>
        <time>2021-07-04T07:00:01Z</time>
      </trkpt>
      <trkpt lat="47.40864" lon="-0.6486">
        <ele>73.8</ele>
        <time>2021-07-04T07:00:02Z</time>
      </trkpt>
      <trkpt lat="47.40863" lon="-0.64852">
        <ele>73.8</ele>
        <time>2021-07-04T07:00:03Z</time>
      </trkpt>
      <trkpt lat="47.40861" lon="-0.64837">
        <ele>73.6</ele>
        <time>2021-07-04T07:00:05Z</time>
      </trkpt>
      <trkpt lat="47.40859" lon="-0.64823">
        <ele>73.8</ele>
        <time>2021-07-04T07:00:07Z</time>
      </trkpt>
      <trkpt lat="47.40857" lon="-0.64808">
        <ele>73.2</ele>
        <time>2021-07-04T07:00:09Z</time>
      </trkpt>
      <trkpt lat="47.40854" lon="-0.6479">
        <ele>73</ele>
        <time>2021-07-04T07:00:11Z</time>
      </trkpt>
      <trkpt lat="47.40853" lon="-0.64772">
        <ele>73</ele>
        <time>2021-07-04T07:00:13Z</time>
      </trkpt>
      <trkpt lat="47.40851" lon="-0.64755">
        <ele>73.2</ele>
        <time>2021-07-04T07:00:15Z</time>
      </trkpt>
      <trkpt lat="47.40849" lon="-0.64737">
        <ele>72.8</ele>
        <time>2021-07-04T07:00:17Z</time>
      </trkpt>
      <trkpt lat="47.40847" lon="-0.64727">
        <ele>72.6</ele>
        <time>2021-07-04T07:00:18Z</time>
      </trkpt>
      <trkpt lat="47.40846" lon="-0.64718">
        <ele>72.8</ele>
        <time>2021-07-04T07:00:19Z</time>
      </trkpt>
      <trkpt lat="47.40844" lon="-0.64697">
        <ele>72.6</ele>
        <time>2021-07-04T07:00:21Z</time>
      </trkpt>
      <trkpt lat="47.40843" lon="-0.64688">
        <ele>72.2</ele>
        <time>2021-07-04T07:00:22Z</time>
      </trkpt>
      <trkpt lat="47.40843" lon="-0.64677">
        <ele>72.4</ele>
        <time>2021-07-04T07:00:23Z</time>
      </trkpt>
      <trkpt lat="47.40841" lon="-0.64657">
        <ele>72.2</ele>
        <time>2021-07-04T07:00:25Z</time>
      </trkpt>
      <trkpt lat="47.4084" lon="-0.64637">
        <ele>72</ele>
        <time>2021-07-04T07:00:27Z</time>
      </trkpt>
      <trkpt lat="47.40838" lon="-0.64619">
        <ele>71.8</ele>
        <time>2021-07-04T07:00:29Z</time>
      </trkpt>
      <trkpt lat="47.40837" lon="-0.6461">
        <ele>71.8</ele>
        <time>2021-07-04T07:00:30Z</time>
      </trkpt>
      <trkpt lat="47.40837" lon="-0.646">
        <ele>72.2</ele>
        <time>2021-07-04T07:00:31Z</time>
      </trkpt>
      <trkpt lat="47.40836" lon="-0.64581">
        <ele>72</ele>
        <time>2021-07-04T07:00:33Z</time>
      </trkpt>
      <trkpt lat="47.40835" lon="-0.64561">
        <ele>71.6</ele>
        <time>2021-07-04T07:00:35Z</time>
      </trkpt>
      <trkpt lat="47.40834" lon="-0.64542">
        <ele>71.8</ele>
        <time>2021-07-04T07:00:37Z</time>
      </trkpt>
      <trkpt lat="47.40834" lon="-0.64533">
        <ele>72</ele>
        <time>2021-07-04T07:00:38Z</time>
      </trkpt>
      <trkpt lat="47.40834" lon="-0.64524">
        <ele>72</ele>
        <time>2021-07-04T07:00:39Z</time>
      </trkpt>
      <trkpt lat="47.40835" lon="-0.64514">
        <ele>71.8</ele>
        <time>2021-07-04T07:00:40Z</time>
      </trkpt>
      <trkpt lat="47.40835" lon="-0.64504">
        <ele>71.4</ele>
        <time>2021-07-04T07:00:41Z</time>
      </trkpt>
      <trkpt lat="47.40834" lon="-0.64494">
        <ele>71.2</ele>
        <time>2021-07-04T07:00:42Z</time>
      </trkpt>
      <trkpt lat="47.40834" lon="-0.64484">
        <ele>71</ele>
        <time>2021-07-04T07:00:43Z</time>
      </trkpt>
      <trkpt lat="47.40834" lon="-0.64465">
        <ele>71.2</ele>
        <time>2021-07-04T07:00:45Z</time>
      </trkpt>
      <trkpt lat="47.40833" lon="-0.64456">
        <ele>71.4</ele>
        <time>2021-07-04T07:00:46Z</time>
      </trkpt>
      <trkpt lat="47.40832" lon="-0.64447">
        <ele>71.4</ele>
        <time>2021-07-04T07:00:47Z</time>
      </trkpt>
      <trkpt lat="47.4083" lon="-0.64429">
        <ele>71.4</ele>
        <time>2021-07-04T07:00:49Z</time>
      </trkpt>
      <trkpt lat="47.40828" lon="-0.6442">
        <ele>71.8</ele>
        <time>2021-07-04T07:00:50Z</time>
      </trkpt>
      <trkpt lat="47.40826" lon="-0.6441">
        <ele>71.4</ele>
        <time>2021-07-04T07:00:51Z</time>
      </trkpt>
      <trkpt lat="47.40824" lon="-0.6439">
        <ele>71.6</ele>
        <time>2021-07-04T07:00:53Z</time>
      </trkpt>
      <trkpt lat="47.40824" lon="-0.64381">
        <ele>71.4</ele>
        <time>2021-07-04T07:00:54Z</time>
      </trkpt>
      <trkpt lat="47.40823" lon="-0.64372">
        <ele>71</ele>
        <time>2021-07-04T07:00:55Z</time>
      </trkpt>
      <trkpt lat="47.4082" lon="-0.64354">
        <ele>70.6</ele>
        <time>2021-07-04T07:00:57Z</time>
      </trkpt>
      <trkpt lat="47.40818" lon="-0.64338">
        <ele>71.8</ele>
        <time>2021-07-04T07:00:59Z</time>
      </trkpt>
      <trkpt lat="47.40817" lon="-0.64329">
        <ele>71.6</ele>
        <time>2021-07-04T07:01:00Z</time>
      </trkpt>
      <trkpt lat="47.40817" lon="-0.6432">
        <ele>71.4</ele>
        <time>2021-07-04T07:01:01Z</time>
      </trkpt>
      <trkpt lat="47.40815" lon="-0.643">
        <ele>71.4</ele>
        <time>2021-07-04T07:01:03Z</time>
      </trkpt>
      <trkpt lat="47.40813" lon="-0.64282">
        <ele>71.6</ele>
        <time>2021-07-04T07:01:05Z</time>
      </trkpt>
      <trkpt lat="47.40811" lon="-0.64263">
        <ele>71.4</ele>
        <time>2021-07-04T07:01:07Z</time>
      </trkpt>
      <trkpt lat="47.40807" lon="-0.64245">
        <ele>71.4</ele>
        <time>2021-07-04T07:01:09Z</time>
      </trkpt>
      <trkpt lat="47.40802" lon="-0.64229">
        <ele>71.6</ele>
        <time>2021-07-04T07:01:11Z</time>
      </trkpt>
      <trkpt lat="47.40795" lon="-0.64214">
        <ele>71.8</ele>
        <time>2021-07-04T07:01:13Z</time>
      </trkpt>
      <trkpt lat="47.40789" lon="-0.64199">
        <ele>72</ele>
        <time>2021-07-04T07:01:15Z</time>
      </trkpt>
      <trkpt lat="47.40785" lon="-0.64192">
        <ele>72.4</ele>
        <time>2021-07-04T07:01:16Z</time>
      </trkpt>
      <trkpt lat="47.40781" lon="-0.64185">
        <ele>72.6</ele>
        <time>2021-07-04T07:01:17Z</time>
      </trkpt>
      <trkpt lat="47.40775" lon="-0.64171">
        <ele>73</ele>
        <time>2021-07-04T07:01:19Z</time>
      </trkpt>
      <trkpt lat="47.40768" lon="-0.64157">
        <ele>73</ele>
        <time>2021-07-04T07:01:21Z</time>
      </trkpt>
      <trkpt lat="47.40761" lon="-0.64143">
        <ele>73</ele>
        <time>2021-07-04T07:01:23Z</time>
      </trkpt>
      <trkpt lat="47.40757" lon="-0.64135">
        <ele>73.2</ele>
        <time>2021-07-04T07:01:24Z</time>
      </trkpt>
      <trkpt lat="47.40754" lon="-0.64128">
        <ele>73.4</ele>
        <time>2021-07-04T07:01:25Z</time>
      </trkpt>
      <trkpt lat="47.40748" lon="-0.64114">
        <ele>72.8</ele>
        <time>2021-07-04T07:01:27Z</time>
      </trkpt>
      <trkpt lat="47.4074" lon="-0.641">
        <ele>72.6</ele>
        <time>2021-07-04T07:01:29Z</time>
      </trkpt>
      <trkpt lat="47.40734" lon="-0.64086">
        <ele>72.4</ele>
        <time>2021-07-04T07:01:31Z</time>
      </trkpt>
      <trkpt lat="47.40727" lon="-0.64072">
        <ele>72.8</ele>
        <time>2021-07-04T07:01:33Z</time>
      </trkpt>
      <trkpt lat="47.4072" lon="-0.64058">
        <ele>72.6</ele>
        <time>2021-07-04T07:01:35Z</time>
      </trkpt>
      <trkpt lat="47.40713" lon="-0.64044">
        <ele>72.4</ele>
        <time>2021-07-04T07:01:37Z</time>
      </trkpt>
      <trkpt lat="47.40706" lon="-0.64029">
        <ele>72</ele>
        <time>2021-07-04T07:01:39Z</time>
      </trkpt>
      <trkpt lat="47.40699" lon="-0.64015">
        <ele>71.4</ele>
        <time>2021-07-04T07:01:41Z</time>
      </trkpt>
      <trkpt lat="47.40696" lon="-0.64007">
        <ele>71</ele>
        <time>2021-07-04T07:01:42Z</time>
      </trkpt>
      <trkpt lat="47.40692" lon="-0.63999">
        <ele>70.4</ele>
        <time>2021-07-04T07:01:43Z</time>
      </trkpt>
      <trkpt lat="47.40686" lon="-0.63981">
        <ele>70.4</ele>
        <time>2021-07-04T07:01:45Z</time>
      </trkpt>
      <trkpt lat="47.40681" lon="-0.63962">
        <ele>70.6</ele>
        <time>2021-07-04T07:01:47Z</time>
      </trkpt>
      <trkpt lat="47.40679" lon="-0.63952">
        <ele>70</ele>
        <time>2021-07-04T07:01:48Z</time>
      </trkpt>
      <trkpt lat="47.40678" lon="-0.63942">
        <ele>69.2</ele>
        <time>2021-07-04T07:01:49Z</time>
      </trkpt>
      <trkpt lat="47.40678" lon="-0.63931">
        <ele>68.6</ele>
        <time>2021-07-04T07:01:50Z</time>
      </trkpt>
      <trkpt lat="47.40678" lon="-0.6392">
        <ele>68.2</ele>
        <time>2021-07-04T07:01:51Z</time>
      </trkpt>
      <trkpt lat="47.4068" lon="-0.63897">
        <ele>67.6</ele>
        <time>2021-07-04T07:01:53Z</time>
      </trkpt>
      <trkpt lat="47.40682" lon="-0.63886">
        <ele>67.2</ele>
        <time>2021-07-04T07:01:54Z</time>
      </trkpt>
      <trkpt lat="47.40684" lon="-0.63875">
        <ele>66.8</ele>
        <time>2021-07-04T07:01:55Z</time>
      </trkpt>
      <trkpt lat="47.40686" lon="-0.63864">
        <ele>66.4</ele>
        <time>2021-07-04T07:01:56Z</time>
      </trkpt>
      <trkpt lat="47.40689" lon="-0.63854">
        <ele>66.2</ele>
        <time>2021-07-04T07:01:57Z</time>
      </trkpt>
      <trkpt lat="47.40691" lon="-0.63838">
        <ele>66.4</ele>
        <time>2021-07-04T07:01:59Z</time>
      </trkpt>
      <trkpt lat="47.40684" lon="-0.63831">
        <ele>66.4</ele>
        <time>2021-07-04T07:02:01Z</time>
      </trkpt>
      <trkpt lat="47.40675" lon="-0.63832">
        <ele>67</ele>
        <time>2021-07-04T07:02:03Z</time>
      </trkpt>
      <trkpt lat="47.40671" lon="-0.63833">
        <ele>67.2</ele>
        <time>2021-07-04T07:02:04Z</time>
      </trkpt>
      <trkpt lat="47.40666" lon="-0.63835">
        <ele>67.6</ele>
        <time>2021-07-04T07:02:05Z</time>
      </trkpt>
      <trkpt lat="47.40657" lon="-0.63837">
        <ele>68</ele>
        <time>2021-07-04T07:02:07Z</time>
      </trkpt>
      <trkpt lat="47.40647" lon="-0.6384">
        <ele>68.2</ele>
        <time>2021-07-04T07:02:09Z</time>
      </trkpt>
      <trkpt lat="47.40642" lon="-0.63841">
        <ele>68.8</ele>
        <time>2021-07-04T07:02:10Z</time>
      </trkpt>
      <trkpt lat="47.40637" lon="-0.63841">
        <ele>68.8</ele>
        <time>2021-07-04T07:02:11Z</time>
      </trkpt>
      <trkpt lat="47.40627" lon="-0.6384">
        <ele>69</ele>
        <time>2021-07-04T07:02:13Z</time>
      </trkpt>
      <trkpt lat="47.40618" lon="-0.63839">
        <ele>69.2</ele>
        <time>2021-07-04T07:02:15Z</time>
      </trkpt>
      <trkpt lat="47.40613" lon="-0.6384">
        <ele>69.8</ele>
        <time>2021-07-04T07:02:16Z</time>
      </trkpt>
      <trkpt lat="47.4061" lon="-0.63842">
        <ele>69.8</ele>
        <time>2021-07-04T07:02:17Z</time>
      </trkpt>
      <trkpt lat="47.40601" lon="-0.63847">
        <ele>70.2</ele>
        <time>2021-07-04T07:02:19Z</time>
      </trkpt>
      <trkpt lat="47.40593" lon="-0.63848">
        <ele>70.4</ele>
        <time>2021-07-04T07:02:21Z</time>
      </trkpt>
      <trkpt lat="47.40589" lon="-0.6385">
        <ele>70.2</ele>
        <time>2021-07-04T07:02:22Z</time>
      </trkpt>
      <trkpt lat="47.40585" lon="-0.6385">
        <ele>70.4</ele>
        <time>2021-07-04T07:02:23Z</time>
      </trkpt>
      <trkpt lat="47.40578" lon="-0.63851">
        <ele>70.6</ele>
        <time>2021-07-04T07:02:25Z</time>
      </trkpt>
      <trkpt lat="47.40569" lon="-0.63851">
        <ele>70.2</ele>
        <time>2021-07-04T07:02:27Z</time>
      </trkpt>
      <trkpt lat="47.40562" lon="-0.63854">
        <ele>70</ele>
        <time>2021-07-04T07:02:29Z</time>
      </trkpt>
      <trkpt lat="47.40557" lon="-0.63854">
        <ele>70.2</ele>
        <time>2021-07-04T07:02:30Z</time>
      </trkpt>
      <trkpt lat="47.40553" lon="-0.63854">
        <ele>70.2</ele>
        <time>2021-07-04T07:02:31Z</time>
      </trkpt>
      <trkpt lat="47.40543" lon="-0.63855">
        <ele>70</ele>
        <time>2021-07-04T07:02:33Z</time>
      </trkpt>
      <trkpt lat="47.40538" lon="-0.63857">
        <ele>70</ele>
        <time>2021-07-04T07:02:34Z</time>
      </trkpt>
      <trkpt lat="47.40533" lon="-0.6386">
        <ele>69.8</ele>
        <time>2021-07-04T07:02:35Z</time>
      </trkpt>
      <trkpt lat="47.40524" lon="-0.63865">
        <ele>69.6</ele>
        <time>2021-07-04T07:02:37Z</time>
      </trkpt>
      <trkpt lat="47.40514" lon="-0.63869">
        <ele>68.8</ele>
        <time>2021-07-04T07:02:39Z</time>
      </trkpt>
      <trkpt lat="47.40508" lon="-0.63872">
        <ele>68</ele>
        <time>2021-07-04T07:02:40Z</time>
      </trkpt>
      <trkpt lat="47.40503" lon="-0.63876">
        <ele>67.6</ele>
        <time>2021-07-04T07:02:41Z</time>
      </trkpt>
      <trkpt lat="47.40498" lon="-0.63878">
        <ele>67</ele>
        <time>2021-07-04T07:02:42Z</time>
      </trkpt>
      <trkpt lat="47.40494" lon="-0.6388">
        <ele>66.4</ele>
        <time>2021-07-04T07:02:43Z</time>
      </trkpt>
      <trkpt lat="47.40489" lon="-0.63882">
        <ele>65</ele>
        <time>2021-07-04T07:02:44Z</time>
      </trkpt>
      <trkpt lat="47.40485" lon="-0.63882">
        <ele>63.6</ele>
        <time>2021-07-04T07:02:45Z</time>
      </trkpt>
      <trkpt lat="47.4048" lon="-0.63883">
        <ele>62.4</ele>
        <time>2021-07-04T07:02:46Z</time>
      </trkpt>
      <trkpt lat="47.40475" lon="-0.63884">
        <ele>61</ele>
        <time>2021-07-04T07:02:47Z</time>
      </trkpt>
      <trkpt lat="47.4047" lon="-0.63886">
        <ele>60.6</ele>
        <time>2021-07-04T07:02:48Z</time>
      </trkpt>
      <trkpt lat="47.40465" lon="-0.63887">
        <ele>60</ele>
        <time>2021-07-04T07:02:49Z</time>
      </trkpt>
      <trkpt lat="47.40454" lon="-0.63887">
        <ele>58.4</ele>
        <time>2021-07-04T07:02:51Z</time>
      </trkpt>
      <trkpt lat="47.40445" lon="-0.63885">
        <ele>57</ele>
        <time>2021-07-04T07:02:53Z</time>
      </trkpt>
      <trkpt lat="47.40436" lon="-0.6388">
        <ele>55.6</ele>
        <time>2021-07-04T07:02:55Z</time>
      </trkpt>
      <trkpt lat="47.40431" lon="-0.63877">
        <ele>55.4</ele>
        <time>2021-07-04T07:02:56Z</time>
      </trkpt>
      <trkpt lat="47.40427" lon="-0.63874">
        <ele>55.4</ele>
        <time>2021-07-04T07:02:57Z</time>
      </trkpt>
      <trkpt lat="47.40423" lon="-0.63871">
        <ele>56</ele>
        <time>2021-07-04T07:02:58Z</time>
      </trkpt>
      <trkpt lat="47.40418" lon="-0.63868">
        <ele>56.2</ele>
        <time>2021-07-04T07:02:59Z</time>
      </trkpt>
      <trkpt lat="47.40413" lon="-0.63866">
        <ele>56.6</ele>
        <time>2021-07-04T07:03:00Z</time>
      </trkpt>
      <trkpt lat="47.40407" lon="-0.63864">
        <ele>56.8</ele>
        <time>2021-07-04T07:03:01Z</time>
      </trkpt>
      <trkpt lat="47.40392" lon="-0.63861">
        <ele>56.8</ele>
        <time>2021-07-04T07:03:03Z</time>
      </trkpt>
      <trkpt lat="47.40385" lon="-0.63858">
        <ele>57.2</ele>
        <time>2021-07-04T07:03:04Z</time>
      </trkpt>
      <trkpt lat="47.40379" lon="-0.63855">
        <ele>57.4</ele>
        <time>2021-07-04T07:03:05Z</time>
      </trkpt>
      <trkpt lat="47.40373" lon="-0.63854">
        <ele>57.8</ele>
        <time>2021-07-04T07:03:06Z</time>
      </trkpt>
      <trkpt lat="47.40366" lon="-0.63851">
        <ele>58</ele>
        <time>2021-07-04T07:03:07Z</time>
      </trkpt>
      <trkpt lat="47.40355" lon="-0.63847">
        <ele>58.4</ele>
        <time>2021-07-04T07:03:09Z</time>
      </trkpt>
      <trkpt lat="47.40344" lon="-0.63842">
        <ele>58.2</ele>
        <time>2021-07-04T07:03:11Z</time>
      </trkpt>
      <trkpt lat="47.40332" lon="-0.63837">
        <ele>58.4</ele>
        <time>2021-07-04T07:03:13Z</time>
      </trkpt>
      <trkpt lat="47.40319" lon="-0.63832">
        <ele>58.4</ele>
        <time>2021-07-04T07:03:15Z</time>
      </trkpt>
      <trkpt lat="47.40307" lon="-0.6383">
        <ele>58.4</ele>
        <time>2021-07-04T07:03:17Z</time>
      </trkpt>
      <trkpt lat="47.40297" lon="-0.63837">
        <ele>58.8</ele>
        <time>2021-07-04T07:03:19Z</time>
      </trkpt>
      <trkpt lat="47.40293" lon="-0.63842">
        <ele>58.8</ele>
        <time>2021-07-04T07:03:20Z</time>
      </trkpt>
      <trkpt lat="47.40289" lon="-0.63845">
        <ele>59.2</ele>
        <time>2021-07-04T07:03:21Z</time>
      </trkpt>
      <trkpt lat="47.40281" lon="-0.63854">
        <ele>58.8</ele>
        <time>2021-07-04T07:03:23Z</time>
      </trkpt>
      <trkpt lat="47.40272" lon="-0.63861">
        <ele>58.8</ele>
        <time>2021-07-04T07:03:25Z</time>
      </trkpt>
      <trkpt lat="47.40264" lon="-0.63868">
        <ele>59.2</ele>
        <time>2021-07-04T07:03:27Z</time>
      </trkpt>
      <trkpt lat="47.40261" lon="-0.63871">
        <ele>59</ele>
        <time>2021-07-04T07:03:28Z</time>
      </trkpt>
      <trkpt lat="47.40259" lon="-0.63874">
        <ele>59</ele>
        <time>2021-07-04T07:03:29Z</time>
      </trkpt>
      <trkpt lat="47.40257" lon="-0.63878">
        <ele>59.2</ele>
        <time>2021-07-04T07:03:30Z</time>
      </trkpt>
      <trkpt lat="47.40256" lon="-0.63882">
        <ele>59.6</ele>
        <time>2021-07-04T07:03:31Z</time>
      </trkpt>
      <trkpt lat="47.40256" lon="-0.63887">
        <ele>60</ele>
        <time>2021-07-04T07:03:32Z</time>
      </trkpt>
      <trkpt lat="47.40257" lon="-0.63891">
        <ele>60.4</ele>
        <time>2021-07-04T07:03:33Z</time>
      </trkpt>
      <trkpt lat="47.40259" lon="-0.63898">
        <ele>60.8</ele>
        <time>2021-07-04T07:03:35Z</time>
      </trkpt>
      <trkpt lat="47.4026" lon="-0.63903">
        <ele>61</ele>
        <time>2021-07-04T07:03:36Z</time>
      </trkpt>
      <trkpt lat="47.40262" lon="-0.63907">
        <ele>61</ele>
        <time>2021-07-04T07:03:37Z</time>
      </trkpt>
      <trkpt lat="47.40267" lon="-0.63916">
        <ele>61.4</ele>
        <time>2021-07-04T07:03:39Z</time>
      </trkpt>
      <trkpt lat="47.40272" lon="-0.63924">
        <ele>62</ele>
        <time>2021-07-04T07:03:41Z</time>
      </trkpt>
      <trkpt lat="47.40276" lon="-0.63933">
        <ele>62.8</ele>
        <time>2021-07-04T07:03:43Z</time>
      </trkpt>
      <trkpt lat="47.40277" lon="-0.63938">
        <ele>63.2</ele>
        <time>2021-07-04T07:03:44Z</time>
      </trkpt>
      <trkpt lat="47.40279" lon="-0.63943">
        <ele>63.4</ele>
        <time>2021-07-04T07:03:45Z</time>
      </trkpt>
      <trkpt lat="47.40284" lon="-0.63954">
        <ele>63.8</ele>
        <time>2021-07-04T07:03:47Z</time>
      </trkpt>
      <trkpt lat="47.40288" lon="-0.63964">
        <ele>64.2</ele>
        <time>2021-07-04T07:03:49Z</time>
      </trkpt>
      <trkpt lat="47.40292" lon="-0.63974">
        <ele>64.4</ele>
        <time>2021-07-04T07:03:51Z</time>
      </trkpt>
      <trkpt lat="47.40297" lon="-0.63985">
        <ele>64.6</ele>
        <time>2021-07-04T07:03:53Z</time>
      </trkpt>
      <trkpt lat="47.40303" lon="-0.63997">
        <ele>64.8</ele>
        <time>2021-07-04T07:03:55Z</time>
      </trkpt>
      <trkpt lat="47.40309" lon="-0.64008">
        <ele>64.8</ele>
        <time>2021-07-04T07:03:57Z</time>
      </trkpt>
      <trkpt lat="47.40314" lon="-0.6402">
        <ele>65</ele>
        <time>2021-07-04T07:03:59Z</time>
      </trkpt>
      <trkpt lat="47.40317" lon="-0.64025">
        <ele>65</ele>
        <time>2021-07-04T07:04:00Z</time>
      </trkpt>
      <trkpt lat="47.40319" lon="-0.64031">
        <ele>65</ele>
        <time>2021-07-04T07:04:01Z</time>
      </trkpt>
      <trkpt lat="47.40323" lon="-0.64043">
        <ele>65</ele>
        <time>2021-07-04T07:04:03Z</time>
      </trkpt>
      <trkpt lat="47.40328" lon="-0.64056">
        <ele>65.2</ele>
        <time>2021-07-04T07:04:05Z</time>
      </trkpt>
      <trkpt lat="47.40329" lon="-0.64063">
        <ele>65.2</ele>
        <time>2021-07-04T07:04:06Z</time>
      </trkpt>
      <trkpt lat="47.40332" lon="-0.64071">
        <ele>65.2</ele>
        <time>2021-07-04T07:04:07Z</time>
      </trkpt>
      <trkpt lat="47.40339" lon="-0.64085">
        <ele>65</ele>
        <time>2021-07-04T07:04:09Z</time>
      </trkpt>
      <trkpt lat="47.40345" lon="-0.64102">
        <ele>64.8</ele>
        <time>2021-07-04T07:04:11Z</time>
      </trkpt>
      <trkpt lat="47.40352" lon="-0.64117">
        <ele>64.6</ele>
        <time>2021-07-04T07:04:13Z</time>
      </trkpt>
      <trkpt lat="47.40359" lon="-0.64132">
        <ele>64.8</ele>
        <time>2021-07-04T07:04:15Z</time>
      </trkpt>
      <trkpt lat="47.40367" lon="-0.64148">
        <ele>64.8</ele>
        <time>2021-07-04T07:04:17Z</time>
      </trkpt>
      <trkpt lat="47.4037" lon="-0.64156">
        <ele>65</ele>
        <time>2021-07-04T07:04:18Z</time>
      </trkpt>
      <trkpt lat="47.40373" lon="-0.64163">
        <ele>65.2</ele>
        <time>2021-07-04T07:04:19Z</time>
      </trkpt>
      <trkpt lat="47.4038" lon="-0.64177">
        <ele>65.2</ele>
        <time>2021-07-04T07:04:21Z</time>
      </trkpt>
      <trkpt lat="47.40386" lon="-0.64191">
        <ele>65.2</ele>
        <time>2021-07-04T07:04:23Z</time>
      </trkpt>
      <trkpt lat="47.40391" lon="-0.64206">
        <ele>65.2</ele>
        <time>2021-07-04T07:04:25Z</time>
      </trkpt>
      <trkpt lat="47.40396" lon="-0.64221">
        <ele>65.4</ele>
        <time>2021-07-04T07:04:27Z</time>
      </trkpt>
      <trkpt lat="47.40401" lon="-0.64236">
        <ele>65.6</ele>
        <time>2021-07-04T07:04:29Z</time>
      </trkpt>
      <trkpt lat="47.40406" lon="-0.64251">
        <ele>65.2</ele>
        <time>2021-07-04T07:04:31Z</time>
      </trkpt>
      <trkpt lat="47.40411" lon="-0.64265">
        <ele>65.2</ele>
        <time>2021-07-04T07:04:33Z</time>
      </trkpt>
      <trkpt lat="47.40413" lon="-0.64272">
        <ele>65.2</ele>
        <time>2021-07-04T07:04:34Z</time>
      </trkpt>
      <trkpt lat="47.40415" lon="-0.6428">
        <ele>64.8</ele>
        <time>2021-07-04T07:04:35Z</time>
      </trkpt>
      <trkpt lat="47.40421" lon="-0.64293">
        <ele>64.4</ele>
        <time>2021-07-04T07:04:37Z</time>
      </trkpt>
      <trkpt lat="47.40426" lon="-0.64307">
        <ele>64</ele>
        <time>2021-07-04T07:04:39Z</time>
      </trkpt>
      <trkpt lat="47.40431" lon="-0.6432">
        <ele>63.8</ele>
        <time>2021-07-04T07:04:41Z</time>
      </trkpt>
      <trkpt lat="47.40434" lon="-0.64327">
        <ele>63.8</ele>
        <time>2021-07-04T07:04:42Z</time>
      </trkpt>
      <trkpt lat="47.40436" lon="-0.64333">
        <ele>64</ele>
        <time>2021-07-04T07:04:43Z</time>
      </trkpt>
      <trkpt lat="47.40441" lon="-0.64346">
        <ele>64</ele>
        <time>2021-07-04T07:04:45Z</time>
      </trkpt>
      <trkpt lat="47.40446" lon="-0.6436">
        <ele>63.8</ele>
        <time>2021-07-04T07:04:47Z</time>
      </trkpt>
      <trkpt lat="47.40449" lon="-0.64367">
        <ele>63.6</ele>
        <time>2021-07-04T07:04:48Z</time>
      </trkpt>
      <trkpt lat="47.40453" lon="-0.64375">
        <ele>63.4</ele>
        <time>2021-07-04T07:04:49Z</time>
      </trkpt>
      <trkpt lat="47.40456" lon="-0.64382">
        <ele>63.4</ele>
        <time>2021-07-04T07:04:50Z</time>
      </trkpt>
      <trkpt lat="47.40459" lon="-0.64389">
        <ele>63.2</ele>
        <time>2021-07-04T07:04:51Z</time>
      </trkpt>
      <trkpt lat="47.40464" lon="-0.64403">
        <ele>63.4</ele>
        <time>2021-07-04T07:04:53Z</time>
      </trkpt>
      <trkpt lat="47.4047" lon="-0.64416">
        <ele>63.6</ele>
        <time>2021-07-04T07:04:55Z</time>
      </trkpt>
      <trkpt lat="47.40473" lon="-0.64422">
        <ele>63.6</ele>
        <time>2021-07-04T07:04:56Z</time>
      </trkpt>
      <trkpt lat="47.40472" lon="-0.6443">
        <ele>63.8</ele>
        <time>2021-07-04T07:04:57Z</time>
      </trkpt>
      <trkpt lat="47.40464" lon="-0.64441">
        <ele>63.6</ele>
        <time>2021-07-04T07:04:59Z</time>
      </trkpt>
      <trkpt lat="47.40454" lon="-0.64445">
        <ele>63.8</ele>
        <time>2021-07-04T07:05:01Z</time>
      </trkpt>
      <trkpt lat="47.40448" lon="-0.64446">
        <ele>64</ele>
        <time>2021-07-04T07:05:02Z</time>
      </trkpt>
      <trkpt lat="47.40443" lon="-0.64449">
        <ele>64</ele>
        <time>2021-07-04T07:05:03Z</time>
      </trkpt>
      <trkpt lat="47.40438" lon="-0.64452">
        <ele>64</ele>
        <time>2021-07-04T07:05:04Z</time>
      </trkpt>
      <trkpt lat="47.40433" lon="-0.64454">
        <ele>64</ele>
        <time>2021-07-04T07:05:05Z</time>
      </trkpt>
      <trkpt lat="47.40423" lon="-0.64458">
        <ele>64.2</ele>
        <time>2021-07-04T07:05:07Z</time>
      </trkpt>
      <trkpt lat="47.40418" lon="-0.64461">
        <ele>64.4</ele>
        <time>2021-07-04T07:05:08Z</time>
      </trkpt>
      <trkpt lat="47.40412" lon="-0.64463">
        <ele>64.6</ele>
        <time>2021-07-04T07:05:09Z</time>
      </trkpt>
      <trkpt lat="47.40402" lon="-0.64468">
        <ele>64.8</ele>
        <time>2021-07-04T07:05:11Z</time>
      </trkpt>
      <trkpt lat="47.40391" lon="-0.64473">
        <ele>65</ele>
        <time>2021-07-04T07:05:13Z</time>
      </trkpt>
      <trkpt lat="47.4038" lon="-0.64478">
        <ele>65</ele>
        <time>2021-07-04T07:05:15Z</time>
      </trkpt>
      <trkpt lat="47.4037" lon="-0.64482">
        <ele>65</ele>
        <time>2021-07-04T07:05:17Z</time>
      </trkpt>
      <trkpt lat="47.40365" lon="-0.64485">
        <ele>65</ele>
        <time>2021-07-04T07:05:18Z</time>
      </trkpt>
      <trkpt lat="47.4036" lon="-0.64487">
        <ele>65</ele>
        <time>2021-07-04T07:05:19Z</time>
      </trkpt>
      <trkpt lat="47.4035" lon="-0.64492">
        <ele>65.2</ele>
        <time>2021-07-04T07:05:21Z</time>
      </trkpt>
      <trkpt lat="47.40345" lon="-0.64495">
        <ele>65.6</ele>
        <time>2021-07-04T07:05:22Z</time>
      </trkpt>
      <trkpt lat="47.40341" lon="-0.64498">
        <ele>65.8</ele>
        <time>2021-07-04T07:05:23Z</time>
      </trkpt>
      <trkpt lat="47.40332" lon="-0.64503">
        <ele>66.2</ele>
        <time>2021-07-04T07:05:25Z</time>
      </trkpt>
      <trkpt lat="47.40327" lon="-0.64506">
        <ele>66.4</ele>
        <time>2021-07-04T07:05:26Z</time>
      </trkpt>
      <trkpt lat="47.40322" lon="-0.64509">
        <ele>66.6</ele>
        <time>2021-07-04T07:05:27Z</time>
      </trkpt>
      <trkpt lat="47.40313" lon="-0.64515">
        <ele>66.8</ele>
        <time>2021-07-04T07:05:29Z</time>
      </trkpt>
      <trkpt lat="47.40304" lon="-0.64522">
        <ele>67</ele>
        <time>2021-07-04T07:05:31Z</time>
      </trkpt>
      <trkpt lat="47.40295" lon="-0.64528">
        <ele>67.6</ele>
        <time>2021-07-04T07:05:33Z</time>
      </trkpt>
      <trkpt lat="47.40285" lon="-0.64535">
        <ele>67</ele>
        <time>2021-07-04T07:05:35Z</time>
      </trkpt>
      <trkpt lat="47.40276" lon="-0.6454">
        <ele>67.4</ele>
        <time>2021-07-04T07:05:37Z</time>
      </trkpt>
      <trkpt lat="47.40271" lon="-0.64543">
        <ele>67.8</ele>
        <time>2021-07-04T07:05:38Z</time>
      </trkpt>
      <trkpt lat="47.40266" lon="-0.64545">
        <ele>68.2</ele>
        <time>2021-07-04T07:05:39Z</time>
      </trkpt>
      <trkpt lat="47.40257" lon="-0.64551">
        <ele>68.2</ele>
        <time>2021-07-04T07:05:41Z</time>
      </trkpt>
      <trkpt lat="47.40248" lon="-0.64557">
        <ele>68.4</ele>
        <time>2021-07-04T07:05:43Z</time>
      </trkpt>
      <trkpt lat="47.40238" lon="-0.64562">
        <ele>68.8</ele>
        <time>2021-07-04T07:05:45Z</time>
      </trkpt>
      <trkpt lat="47.40234" lon="-0.64566">
        <ele>69.2</ele>
        <time>2021-07-04T07:05:46Z</time>
      </trkpt>
      <trkpt lat="47.40229" lon="-0.64568">
        <ele>69.4</ele>
        <time>2021-07-04T07:05:47Z</time>
      </trkpt>
      <trkpt lat="47.40219" lon="-0.64573">
        <ele>69.4</ele>
        <time>2021-07-04T07:05:49Z</time>
      </trkpt>
      <trkpt lat="47.40209" lon="-0.64578">
        <ele>69.8</ele>
        <time>2021-07-04T07:05:51Z</time>
      </trkpt>
      <trkpt lat="47.40199" lon="-0.64582">
        <ele>70</ele>
        <time>2021-07-04T07:05:53Z</time>
      </trkpt>
      <trkpt lat="47.40194" lon="-0.64584">
        <ele>70.2</ele>
        <time>2021-07-04T07:05:54Z</time>
      </trkpt>
      <trkpt lat="47.40189" lon="-0.64586">
        <ele>70.8</ele>
        <time>2021-07-04T07:05:55Z</time>
      </trkpt>
      <trkpt lat="47.40178" lon="-0.64589">
        <ele>71</ele>
        <time>2021-07-04T07:05:57Z</time>
      </trkpt>
      <trkpt lat="47.40168" lon="-0.64592">
        <ele>71</ele>
        <time>2021-07-04T07:05:59Z</time>
      </trkpt>
      <trkpt lat="47.40158" lon="-0.64595">
        <ele>71.2</ele>
        <time>2021-07-04T07:06:01Z</time>
      </trkpt>
      <trkpt lat="47.40152" lon="-0.64597">
        <ele>71.2</ele>
        <time>2021-07-04T07:06:02Z</time>
      </trkpt>
      <trkpt lat="47.40147" lon="-0.64599">
        <ele>71.4</ele>
        <time>2021-07-04T07:06:03Z</time>
      </trkpt>
      <trkpt lat="47.40137" lon="-0.64603">
        <ele>71.2</ele>
        <time>2021-07-04T07:06:05Z</time>
      </trkpt>
      <trkpt lat="47.40126" lon="-0.64607">
        <ele>70.6</ele>
        <time>2021-07-04T07:06:07Z</time>
      </trkpt>
      <trkpt lat="47.40121" lon="-0.64608">
        <ele>70.4</ele>
        <time>2021-07-04T07:06:08Z</time>
      </trkpt>
      <trkpt lat="47.40115" lon="-0.6461">
        <ele>70.4</ele>
        <time>2021-07-04T07:06:09Z</time>
      </trkpt>
      <trkpt lat="47.4011" lon="-0.64611">
        <ele>70.6</ele>
        <time>2021-07-04T07:06:10Z</time>
      </trkpt>
      <trkpt lat="47.40105" lon="-0.64611">
        <ele>70.6</ele>
        <time>2021-07-04T07:06:11Z</time>
      </trkpt>
      <trkpt lat="47.40095" lon="-0.64611">
        <ele>70.8</ele>
        <time>2021-07-04T07:06:13Z</time>
      </trkpt>
      <trkpt lat="47.40085" lon="-0.64613">
        <ele>70.8</ele>
        <time>2021-07-04T07:06:15Z</time>
      </trkpt>
      <trkpt lat="47.40074" lon="-0.64614">
        <ele>70.6</ele>
        <time>2021-07-04T07:06:17Z</time>
      </trkpt>
      <trkpt lat="47.40069" lon="-0.64616">
        <ele>70.6</ele>
        <time>2021-07-04T07:06:18Z</time>
      </trkpt>
      <trkpt lat="47.40064" lon="-0.64618">
        <ele>70.6</ele>
        <time>2021-07-04T07:06:19Z</time>
      </trkpt>
      <trkpt lat="47.40056" lon="-0.6462">
        <ele>70.8</ele>
        <time>2021-07-04T07:06:21Z</time>
      </trkpt>
      <trkpt lat="47.40052" lon="-0.64621">
        <ele>70.8</ele>
        <time>2021-07-04T07:06:22Z</time>
      </trkpt>
      <trkpt lat="47.40047" lon="-0.64622">
        <ele>71</ele>
        <time>2021-07-04T07:06:23Z</time>
      </trkpt>
      <trkpt lat="47.40036" lon="-0.64625">
        <ele>70.8</ele>
        <time>2021-07-04T07:06:25Z</time>
      </trkpt>
      <trkpt lat="47.40026" lon="-0.64627">
        <ele>71</ele>
        <time>2021-07-04T07:06:27Z</time>
      </trkpt>
      <trkpt lat="47.40016" lon="-0.64631">
        <ele>71.4</ele>
        <time>2021-07-04T07:06:29Z</time>
      </trkpt>
      <trkpt lat="47.40007" lon="-0.64634">
        <ele>71.4</ele>
        <time>2021-07-04T07:06:31Z</time>
      </trkpt>
      <trkpt lat="47.39999" lon="-0.64638">
        <ele>71.6</ele>
        <time>2021-07-04T07:06:33Z</time>
      </trkpt>
      <trkpt lat="47.3999" lon="-0.64641">
        <ele>72</ele>
        <time>2021-07-04T07:06:35Z</time>
      </trkpt>
      <trkpt lat="47.39984" lon="-0.64642">
        <ele>72.8</ele>
        <time>2021-07-04T07:06:37Z</time>
      </trkpt>
      <trkpt lat="47.39979" lon="-0.64645">
        <ele>73.4</ele>
        <time>2021-07-04T07:06:39Z</time>
      </trkpt>
      <trkpt lat="47.39972" lon="-0.64647">
        <ele>73.4</ele>
        <time>2021-07-04T07:06:41Z</time>
      </trkpt>
      <trkpt lat="47.39965" lon="-0.64649">
        <ele>73.2</ele>
        <time>2021-07-04T07:06:43Z</time>
      </trkpt>
      <trkpt lat="47.39957" lon="-0.64654">
        <ele>73</ele>
        <time>2021-07-04T07:06:45Z</time>
      </trkpt>
      <trkpt lat="47.39948" lon="-0.64657">
        <ele>73.2</ele>
        <time>2021-07-04T07:06:47Z</time>
      </trkpt>
      <trkpt lat="47.39944" lon="-0.6466">
        <ele>73.4</ele>
        <time>2021-07-04T07:06:48Z</time>
      </trkpt>
      <trkpt lat="47.39939" lon="-0.64661">
        <ele>73.6</ele>
        <time>2021-07-04T07:06:49Z</time>
      </trkpt>
      <trkpt lat="47.39935" lon="-0.64663">
        <ele>74</ele>
        <time>2021-07-04T07:06:50Z</time>
      </trkpt>
      <trkpt lat="47.39931" lon="-0.64664">
        <ele>74.2</ele>
        <time>2021-07-04T07:06:51Z</time>
      </trkpt>
      <trkpt lat="47.39922" lon="-0.64668">
        <ele>74.6</ele>
        <time>2021-07-04T07:06:53Z</time>
      </trkpt>
      <trkpt lat="47.39917" lon="-0.6467">
        <ele>74.6</ele>
        <time>2021-07-04T07:06:54Z</time>
      </trkpt>
      <trkpt lat="47.39912" lon="-0.64673">
        <ele>74.8</ele>
        <time>2021-07-04T07:06:55Z</time>
      </trkpt>
      <trkpt lat="47.39903" lon="-0.64677">
        <ele>74.8</ele>
        <time>2021-07-04T07:06:57Z</time>
      </trkpt>
      <trkpt lat="47.39897" lon="-0.64679">
        <ele>74.6</ele>
        <time>2021-07-04T07:06:58Z</time>
      </trkpt>
      <trkpt lat="47.39893" lon="-0.6468">
        <ele>74.6</ele>
        <time>2021-07-04T07:06:59Z</time>
      </trkpt>
      <trkpt lat="47.39887" lon="-0.64682">
        <ele>74.8</ele>
        <time>2021-07-04T07:07:00Z</time>
      </trkpt>
      <trkpt lat="47.39882" lon="-0.64683">
        <ele>75</ele>
        <time>2021-07-04T07:07:01Z</time>
      </trkpt>
      <trkpt lat="47.3987" lon="-0.64687">
        <ele>75.2</ele>
        <time>2021-07-04T07:07:03Z</time>
      </trkpt>
      <trkpt lat="47.39865" lon="-0.64686">
        <ele>75</ele>
        <time>2021-07-04T07:07:04Z</time>
      </trkpt>
      <trkpt lat="47.39858" lon="-0.64684">
        <ele>74.6</ele>
        <time>2021-07-04T07:07:05Z</time>
      </trkpt>
      <trkpt lat="47.39841" lon="-0.64688">
        <ele>74</ele>
        <time>2021-07-04T07:07:07Z</time>
      </trkpt>
      <trkpt lat="47.39826" lon="-0.64693">
        <ele>74</ele>
        <time>2021-07-04T07:07:09Z</time>
      </trkpt>
      <trkpt lat="47.39812" lon="-0.64696">
        <ele>73.2</ele>
        <time>2021-07-04T07:07:11Z</time>
      </trkpt>
      <trkpt lat="47.39805" lon="-0.64697">
        <ele>72.8</ele>
        <time>2021-07-04T07:07:12Z</time>
      </trkpt>
      <trkpt lat="47.39797" lon="-0.64698">
        <ele>72.8</ele>
        <time>2021-07-04T07:07:13Z</time>
      </trkpt>
      <trkpt lat="47.3979" lon="-0.64698">
        <ele>72.2</ele>
        <time>2021-07-04T07:07:14Z</time>
      </trkpt>
      <trkpt lat="47.39783" lon="-0.64698">
        <ele>71.6</ele>
        <time>2021-07-04T07:07:15Z</time>
      </trkpt>
      <trkpt lat="47.39768" lon="-0.64698">
        <ele>70.6</ele>
        <time>2021-07-04T07:07:17Z</time>
      </trkpt>
      <trkpt lat="47.3976" lon="-0.64698">
        <ele>70.4</ele>
        <time>2021-07-04T07:07:18Z</time>
      </trkpt>
      <trkpt lat="47.39752" lon="-0.64699">
        <ele>70.6</ele>
        <time>2021-07-04T07:07:19Z</time>
      </trkpt>
      <trkpt lat="47.39737" lon="-0.64699">
        <ele>70.6</ele>
        <time>2021-07-04T07:07:21Z</time>
      </trkpt>
      <trkpt lat="47.3973" lon="-0.64699">
        <ele>70.2</ele>
        <time>2021-07-04T07:07:22Z</time>
      </trkpt>
      <trkpt lat="47.39722" lon="-0.64698">
        <ele>70.4</ele>
        <time>2021-07-04T07:07:23Z</time>
      </trkpt>
      <trkpt lat="47.39708" lon="-0.64698">
        <ele>70.6</ele>
        <time>2021-07-04T07:07:25Z</time>
      </trkpt>
      <trkpt lat="47.39696" lon="-0.64701">
        <ele>70</ele>
        <time>2021-07-04T07:07:27Z</time>
      </trkpt>
      <trkpt lat="47.39688" lon="-0.64707">
        <ele>71</ele>
        <time>2021-07-04T07:07:29Z</time>
      </trkpt>
      <trkpt lat="47.39686" lon="-0.6471">
        <ele>71.6</ele>
        <time>2021-07-04T07:07:30Z</time>
      </trkpt>
      <trkpt lat="47.39685" lon="-0.64713">
        <ele>71.8</ele>
        <time>2021-07-04T07:07:31Z</time>
      </trkpt>
      <trkpt lat="47.39687" lon="-0.64714">
        <ele>71.8</ele>
        <time>2021-07-04T07:07:32Z</time>
      </trkpt>
      <trkpt lat="47.3969" lon="-0.64715">
        <ele>71.8</ele>
        <time>2021-07-04T07:07:33Z</time>
      </trkpt>
      <trkpt lat="47.39698" lon="-0.64719">
        <ele>71.8</ele>
        <time>2021-07-04T07:07:35Z</time>
      </trkpt>
      <trkpt lat="47.39702" lon="-0.64721">
        <ele>72</ele>
        <time>2021-07-04T07:07:36Z</time>
      </trkpt>
      <trkpt lat="47.39706" lon="-0.64723">
        <ele>72</ele>
        <time>2021-07-04T07:07:37Z</time>
      </trkpt>
      <trkpt lat="47.39714" lon="-0.6473">
        <ele>72.2</ele>
        <time>2021-07-04T07:07:39Z</time>
      </trkpt>
      <trkpt lat="47.39722" lon="-0.64736">
        <ele>72.6</ele>
        <time>2021-07-04T07:07:41Z</time>
      </trkpt>
      <trkpt lat="47.39725" lon="-0.6474">
        <ele>72.6</ele>
        <time>2021-07-04T07:07:42Z</time>
      </trkpt>
      <trkpt lat="47.39729" lon="-0.64744">
        <ele>72.8</ele>
        <time>2021-07-04T07:07:43Z</time>
      </trkpt>
      <trkpt lat="47.39736" lon="-0.64753">
        <ele>73</ele>
        <time>2021-07-04T07:07:45Z</time>
      </trkpt>
      <trkpt lat="47.39742" lon="-0.64764">
        <ele>73.4</ele>
        <time>2021-07-04T07:07:47Z</time>
      </trkpt>
      <trkpt lat="47.39745" lon="-0.64769">
        <ele>73.4</ele>
        <time>2021-07-04T07:07:48Z</time>
      </trkpt>
      <trkpt lat="47.39748" lon="-0.64775">
        <ele>73.4</ele>
        <time>2021-07-04T07:07:49Z</time>
      </trkpt>
      <trkpt lat="47.39752" lon="-0.64787">
        <ele>73.6</ele>
        <time>2021-07-04T07:07:51Z</time>
      </trkpt>
      <trkpt lat="47.39757" lon="-0.64798">
        <ele>74</ele>
        <time>2021-07-04T07:07:53Z</time>
      </trkpt>
      <trkpt lat="47.39758" lon="-0.64804">
        <ele>74</ele>
        <time>2021-07-04T07:07:54Z</time>
      </trkpt>
      <trkpt lat="47.39759" lon="-0.6481">
        <ele>74</ele>
        <time>2021-07-04T07:07:55Z</time>
      </trkpt>
      <trkpt lat="47.39753" lon="-0.6482">
        <ele>73.8</ele>
        <time>2021-07-04T07:07:57Z</time>
      </trkpt>
      <trkpt lat="47.39747" lon="-0.6483">
        <ele>73.8</ele>
        <time>2021-07-04T07:07:59Z</time>
      </trkpt>
      <trkpt lat="47.3974" lon="-0.64841">
        <ele>73.4</ele>
        <time>2021-07-04T07:08:01Z</time>
      </trkpt>
      <trkpt lat="47.39736" lon="-0.64847">
        <ele>73</ele>
        <time>2021-07-04T07:08:02Z</time>
      </trkpt>
      <trkpt lat="47.39732" lon="-0.64852">
        <ele>72.6</ele>
        <time>2021-07-04T07:08:03Z</time>
      </trkpt>
      <trkpt lat="47.39724" lon="-0.64863">
        <ele>72.4</ele>
        <time>2021-07-04T07:08:05Z</time>
      </trkpt>
      <trkpt lat="47.3972" lon="-0.6487">
        <ele>72.2</ele>
        <time>2021-07-04T07:08:06Z</time>
      </trkpt>
      <trkpt lat="47.39716" lon="-0.64877">
        <ele>71.8</ele>
        <time>2021-07-04T07:08:07Z</time>
      </trkpt>
      <trkpt lat="47.39708" lon="-0.6489">
        <ele>71.2</ele>
        <time>2021-07-04T07:08:09Z</time>
      </trkpt>
      <trkpt lat="47.39704" lon="-0.64897">
        <ele>71</ele>
        <time>2021-07-04T07:08:10Z</time>
      </trkpt>
      <trkpt lat="47.397" lon="-0.64903">
        <ele>71.2</ele>
        <time>2021-07-04T07:08:11Z</time>
      </trkpt>
      <trkpt lat="47.39696" lon="-0.6491">
        <ele>70.8</ele>
        <time>2021-07-04T07:08:12Z</time>
      </trkpt>
      <trkpt lat="47.39692" lon="-0.64917">
        <ele>70.8</ele>
        <time>2021-07-04T07:08:13Z</time>
      </trkpt>
      <trkpt lat="47.39688" lon="-0.64923">
        <ele>70.2</ele>
        <time>2021-07-04T07:08:14Z</time>
      </trkpt>
      <trkpt lat="47.39685" lon="-0.64929">
        <ele>70.2</ele>
        <time>2021-07-04T07:08:15Z</time>
      </trkpt>
      <trkpt lat="47.39678" lon="-0.64941">
        <ele>70</ele>
        <time>2021-07-04T07:08:17Z</time>
      </trkpt>
      <trkpt lat="47.39675" lon="-0.64948">
        <ele>69.6</ele>
        <time>2021-07-04T07:08:18Z</time>
      </trkpt>
      <trkpt lat="47.39672" lon="-0.64954">
        <ele>69.4</ele>
        <time>2021-07-04T07:08:19Z</time>
      </trkpt>
      <trkpt lat="47.39669" lon="-0.64961">
        <ele>69.2</ele>
        <time>2021-07-04T07:08:20Z</time>
      </trkpt>
      <trkpt lat="47.39665" lon="-0.64968">
        <ele>68.8</ele>
        <time>2021-07-04T07:08:21Z</time>
      </trkpt>
      <trkpt lat="47.39662" lon="-0.64974">
        <ele>69</ele>
        <time>2021-07-04T07:08:22Z</time>
      </trkpt>
      <trkpt lat="47.39658" lon="-0.64981">
        <ele>69.2</ele>
        <time>2021-07-04T07:08:23Z</time>
      </trkpt>
      <trkpt lat="47.39652" lon="-0.64993">
        <ele>69.4</ele>
        <time>2021-07-04T07:08:25Z</time>
      </trkpt>
      <trkpt lat="47.39646" lon="-0.65004">
        <ele>68.6</ele>
        <time>2021-07-04T07:08:27Z</time>
      </trkpt>
      <trkpt lat="47.39642" lon="-0.65011">
        <ele>67.6</ele>
        <time>2021-07-04T07:08:28Z</time>
      </trkpt>
      <trkpt lat="47.39638" lon="-0.65017">
        <ele>66.8</ele>
        <time>2021-07-04T07:08:29Z</time>
      </trkpt>
      <trkpt lat="47.39634" lon="-0.65023">
        <ele>66.2</ele>
        <time>2021-07-04T07:08:30Z</time>
      </trkpt>
      <trkpt lat="47.3963" lon="-0.65029">
        <ele>66.2</ele>
        <time>2021-07-04T07:08:31Z</time>
      </trkpt>
      <trkpt lat="47.39625" lon="-0.65036">
        <ele>66.4</ele>
        <time>2021-07-04T07:08:33Z</time>
      </trkpt>
      <trkpt lat="47.39619" lon="-0.65044">
        <ele>66.4</ele>
        <time>2021-07-04T07:08:35Z</time>
      </trkpt>
      <trkpt lat="47.39615" lon="-0.65051">
        <ele>65.8</ele>
        <time>2021-07-04T07:08:37Z</time>
      </trkpt>
      <trkpt lat="47.39613" lon="-0.65054">
        <ele>64.6</ele>
        <time>2021-07-04T07:08:38Z</time>
      </trkpt>
      <trkpt lat="47.39611" lon="-0.65057">
        <ele>64.4</ele>
        <time>2021-07-04T07:08:39Z</time>
      </trkpt>
      <trkpt lat="47.39608" lon="-0.65062">
        <ele>64.6</ele>
        <time>2021-07-04T07:08:41Z</time>
      </trkpt>
      <trkpt lat="47.39604" lon="-0.65067">
        <ele>63.6</ele>
        <time>2021-07-04T07:08:43Z</time>
      </trkpt>
      <trkpt lat="47.396" lon="-0.6507">
        <ele>63.4</ele>
        <time>2021-07-04T07:08:45Z</time>
      </trkpt>
      <trkpt lat="47.39596" lon="-0.65075">
        <ele>62.8</ele>
        <time>2021-07-04T07:08:47Z</time>
      </trkpt>
      <trkpt lat="47.39592" lon="-0.65078">
        <ele>62.2</ele>
        <time>2021-07-04T07:08:48Z</time>
      </trkpt>
      <trkpt lat="47.3959" lon="-0.65081">
        <ele>61.8</ele>
        <time>2021-07-04T07:08:49Z</time>
      </trkpt>
      <trkpt lat="47.39588" lon="-0.65084">
        <ele>60.8</ele>
        <time>2021-07-04T07:08:50Z</time>
      </trkpt>
      <trkpt lat="47.39585" lon="-0.65086">
        <ele>60.4</ele>
        <time>2021-07-04T07:08:51Z</time>
      </trkpt>
      <trkpt lat="47.39579" lon="-0.6509">
        <ele>60</ele>
        <time>2021-07-04T07:08:53Z</time>
      </trkpt>
      <trkpt lat="47.39576" lon="-0.65091">
        <ele>60</ele>
        <time>2021-07-04T07:08:54Z</time>
      </trkpt>
      <trkpt lat="47.39573" lon="-0.65092">
        <ele>60.2</ele>
        <time>2021-07-04T07:08:55Z</time>
      </trkpt>
      <trkpt lat="47.39569" lon="-0.65094">
        <ele>60</ele>
        <time>2021-07-04T07:08:57Z</time>
      </trkpt>
      <trkpt lat="47.39567" lon="-0.65095">
        <ele>59.6</ele>
        <time>2021-07-04T07:08:58Z</time>
      </trkpt>
      <trkpt lat="47.39564" lon="-0.65097">
        <ele>59.2</ele>
        <time>2021-07-04T07:08:59Z</time>
      </trkpt>
      <trkpt lat="47.39559" lon="-0.65102">
        <ele>58.8</ele>
        <time>2021-07-04T07:09:01Z</time>
      </trkpt>
      <trkpt lat="47.39557" lon="-0.65104">
        <ele>58.4</ele>
        <time>2021-07-04T07:09:02Z</time>
      </trkpt>
      <trkpt lat="47.39554" lon="-0.65106">
        <ele>58.2</ele>
        <time>2021-07-04T07:09:03Z</time>
      </trkpt>
      <trkpt lat="47.39547" lon="-0.65111">
        <ele>57.4</ele>
        <time>2021-07-04T07:09:05Z</time>
      </trkpt>
      <trkpt lat="47.39544" lon="-0.65113">
        <ele>56.8</ele>
        <time>2021-07-04T07:09:06Z</time>
      </trkpt>
      <trkpt lat="47.39541" lon="-0.65116">
        <ele>56.6</ele>
        <time>2021-07-04T07:09:07Z</time>
      </trkpt>
      <trkpt lat="47.39538" lon="-0.65119">
        <ele>55.8</ele>
        <time>2021-07-04T07:09:08Z</time>
      </trkpt>
      <trkpt lat="47.39534" lon="-0.65123">
        <ele>55.4</ele>
        <time>2021-07-04T07:09:09Z</time>
      </trkpt>
      <trkpt lat="47.3953" lon="-0.65126">
        <ele>54.6</ele>
        <time>2021-07-04T07:09:10Z</time>
      </trkpt>
      <trkpt lat="47.39525" lon="-0.65129">
        <ele>54.2</ele>
        <time>2021-07-04T07:09:11Z</time>
      </trkpt>
      <trkpt lat="47.39521" lon="-0.65132">
        <ele>53.4</ele>
        <time>2021-07-04T07:09:12Z</time>
      </trkpt>
      <trkpt lat="47.39517" lon="-0.65136">
        <ele>53.2</ele>
        <time>2021-07-04T07:09:13Z</time>
      </trkpt>
      <trkpt lat="47.3951" lon="-0.65143">
        <ele>52.8</ele>
        <time>2021-07-04T07:09:15Z</time>
      </trkpt>
      <trkpt lat="47.39508" lon="-0.65145">
        <ele>52.8</ele>
        <time>2021-07-04T07:09:16Z</time>
      </trkpt>
      <trkpt lat="47.39505" lon="-0.65147">
        <ele>53.2</ele>
        <time>2021-07-04T07:09:17Z</time>
      </trkpt>
      <trkpt lat="47.395" lon="-0.65149">
        <ele>53.4</ele>
        <time>2021-07-04T07:09:19Z</time>
      </trkpt>
      <trkpt lat="47.39494" lon="-0.65152">
        <ele>53</ele>
        <time>2021-07-04T07:09:21Z</time>
      </trkpt>
      <trkpt lat="47.39488" lon="-0.65153">
        <ele>53</ele>
        <time>2021-07-04T07:09:23Z</time>
      </trkpt>
      <trkpt lat="47.39485" lon="-0.65152">
        <ele>53.8</ele>
        <time>2021-07-04T07:09:24Z</time>
      </trkpt>
      <trkpt lat="47.39483" lon="-0.65152">
        <ele>54.2</ele>
        <time>2021-07-04T07:09:25Z</time>
      </trkpt>
      <trkpt lat="47.3948" lon="-0.65153">
        <ele>54.4</ele>
        <time>2021-07-04T07:09:26Z</time>
      </trkpt>
      <trkpt lat="47.39477" lon="-0.65154">
        <ele>54.4</ele>
        <time>2021-07-04T07:09:27Z</time>
      </trkpt>
      <trkpt lat="47.39472" lon="-0.65156">
        <ele>56</ele>
        <time>2021-07-04T07:09:29Z</time>
      </trkpt>
      <trkpt lat="47.39466" lon="-0.6516">
        <ele>56.4</ele>
        <time>2021-07-04T07:09:31Z</time>
      </trkpt>
      <trkpt lat="47.3946" lon="-0.65166">
        <ele>57.2</ele>
        <time>2021-07-04T07:09:33Z</time>
      </trkpt>
      <trkpt lat="47.39457" lon="-0.65169">
        <ele>57.6</ele>
        <time>2021-07-04T07:09:34Z</time>
      </trkpt>
      <trkpt lat="47.39453" lon="-0.65172">
        <ele>57.8</ele>
        <time>2021-07-04T07:09:35Z</time>
      </trkpt>
      <trkpt lat="47.39446" lon="-0.65179">
        <ele>58</ele>
        <time>2021-07-04T07:09:37Z</time>
      </trkpt>
      <trkpt lat="47.39438" lon="-0.65186">
        <ele>58.4</ele>
        <time>2021-07-04T07:09:39Z</time>
      </trkpt>
      <trkpt lat="47.39435" lon="-0.65189">
        <ele>58.4</ele>
        <time>2021-07-04T07:09:40Z</time>
      </trkpt>
      <trkpt lat="47.39432" lon="-0.65191">
        <ele>58.6</ele>
        <time>2021-07-04T07:09:41Z</time>
      </trkpt>
      <trkpt lat="47.39427" lon="-0.65197">
        <ele>59</ele>
        <time>2021-07-04T07:09:43Z</time>
      </trkpt>
      <trkpt lat="47.39421" lon="-0.65201">
        <ele>59.2</ele>
        <time>2021-07-04T07:09:45Z</time>
      </trkpt>
      <trkpt lat="47.39415" lon="-0.65206">
        <ele>59.2</ele>
        <time>2021-07-04T07:09:47Z</time>
      </trkpt>
      <trkpt lat="47.39409" lon="-0.65212">
        <ele>59.2</ele>
        <time>2021-07-04T07:09:49Z</time>
      </trkpt>
      <trkpt lat="47.39405" lon="-0.65215">
        <ele>59.4</ele>
        <time>2021-07-04T07:09:50Z</time>
      </trkpt>
      <trkpt lat="47.39401" lon="-0.65218">
        <ele>59.4</ele>
        <time>2021-07-04T07:09:51Z</time>
      </trkpt>
      <trkpt lat="47.39393" lon="-0.65223">
        <ele>59.6</ele>
        <time>2021-07-04T07:09:53Z</time>
      </trkpt>
      <trkpt lat="47.39385" lon="-0.65229">
        <ele>60</ele>
        <time>2021-07-04T07:09:55Z</time>
      </trkpt>
      <trkpt lat="47.39377" lon="-0.65234">
        <ele>60</ele>
        <time>2021-07-04T07:09:57Z</time>
      </trkpt>
      <trkpt lat="47.39373" lon="-0.65237">
        <ele>60.4</ele>
        <time>2021-07-04T07:09:58Z</time>
      </trkpt>
      <trkpt lat="47.39369" lon="-0.65239">
        <ele>60.4</ele>
        <time>2021-07-04T07:09:59Z</time>
      </trkpt>
      <trkpt lat="47.39361" lon="-0.65243">
        <ele>60.4</ele>
        <time>2021-07-04T07:10:01Z</time>
      </trkpt>
      <trkpt lat="47.39353" lon="-0.65246">
        <ele>60.8</ele>
        <time>2021-07-04T07:10:03Z</time>
      </trkpt>
      <trkpt lat="47.39349" lon="-0.65247">
        <ele>61</ele>
        <time>2021-07-04T07:10:04Z</time>
      </trkpt>
      <trkpt lat="47.39344" lon="-0.65248">
        <ele>61.2</ele>
        <time>2021-07-04T07:10:05Z</time>
      </trkpt>
      <trkpt lat="47.3934" lon="-0.65248">
        <ele>61.6</ele>
        <time>2021-07-04T07:10:06Z</time>
      </trkpt>
      <trkpt lat="47.39335" lon="-0.65248">
        <ele>61.8</ele>
        <time>2021-07-04T07:10:07Z</time>
      </trkpt>
      <trkpt lat="47.39325" lon="-0.65249">
        <ele>62</ele>
        <time>2021-07-04T07:10:09Z</time>
      </trkpt>
      <trkpt lat="47.39318" lon="-0.6525">
        <ele>61.8</ele>
        <time>2021-07-04T07:10:10Z</time>
      </trkpt>
      <trkpt lat="47.39312" lon="-0.65251">
        <ele>61.2</ele>
        <time>2021-07-04T07:10:11Z</time>
      </trkpt>
      <trkpt lat="47.39305" lon="-0.65252">
        <ele>60.6</ele>
        <time>2021-07-04T07:10:12Z</time>
      </trkpt>
      <trkpt lat="47.39299" lon="-0.65253">
        <ele>60</ele>
        <time>2021-07-04T07:10:13Z</time>
      </trkpt>
      <trkpt lat="47.39287" lon="-0.65258">
        <ele>59.2</ele>
        <time>2021-07-04T07:10:15Z</time>
      </trkpt>
      <trkpt lat="47.39277" lon="-0.65264">
        <ele>59</ele>
        <time>2021-07-04T07:10:17Z</time>
      </trkpt>
      <trkpt lat="47.39272" lon="-0.65267">
        <ele>59.2</ele>
        <time>2021-07-04T07:10:18Z</time>
      </trkpt>
      <trkpt lat="47.39268" lon="-0.6527">
        <ele>59.4</ele>
        <time>2021-07-04T07:10:19Z</time>
      </trkpt>
      <trkpt lat="47.39259" lon="-0.65278">
        <ele>60.4</ele>
        <time>2021-07-04T07:10:21Z</time>
      </trkpt>
      <trkpt lat="47.3925" lon="-0.65285">
        <ele>60.8</ele>
        <time>2021-07-04T07:10:23Z</time>
      </trkpt>
      <trkpt lat="47.39242" lon="-0.65292">
        <ele>61.2</ele>
        <time>2021-07-04T07:10:25Z</time>
      </trkpt>
      <trkpt lat="47.39238" lon="-0.65295">
        <ele>61.6</ele>
        <time>2021-07-04T07:10:26Z</time>
      </trkpt>
      <trkpt lat="47.39233" lon="-0.65299">
        <ele>61.6</ele>
        <time>2021-07-04T07:10:27Z</time>
      </trkpt>
      <trkpt lat="47.39225" lon="-0.65305">
        <ele>61.8</ele>
        <time>2021-07-04T07:10:29Z</time>
      </trkpt>
      <trkpt lat="47.39218" lon="-0.65313">
        <ele>62.2</ele>
        <time>2021-07-04T07:10:31Z</time>
      </trkpt>
      <trkpt lat="47.3921" lon="-0.65322">
        <ele>62.8</ele>
        <time>2021-07-04T07:10:33Z</time>
      </trkpt>
      <trkpt lat="47.39207" lon="-0.65327">
        <ele>62.8</ele>
        <time>2021-07-04T07:10:34Z</time>
      </trkpt>
      <trkpt lat="47.39204" lon="-0.65332">
        <ele>63.2</ele>
        <time>2021-07-04T07:10:35Z</time>
      </trkpt>
      <trkpt lat="47.39197" lon="-0.65342">
        <ele>63.8</ele>
        <time>2021-07-04T07:10:37Z</time>
      </trkpt>
      <trkpt lat="47.39191" lon="-0.65352">
        <ele>64.4</ele>
        <time>2021-07-04T07:10:39Z</time>
      </trkpt>
      <trkpt lat="47.39185" lon="-0.65362">
        <ele>64.8</ele>
        <time>2021-07-04T07:10:41Z</time>
      </trkpt>
      <trkpt lat="47.39179" lon="-0.65373">
        <ele>64.4</ele>
        <time>2021-07-04T07:10:43Z</time>
      </trkpt>
      <trkpt lat="47.39173" lon="-0.65384">
        <ele>64.8</ele>
        <time>2021-07-04T07:10:45Z</time>
      </trkpt>
      <trkpt lat="47.39167" lon="-0.65393">
        <ele>65.8</ele>
        <time>2021-07-04T07:10:47Z</time>
      </trkpt>
      <trkpt lat="47.39165" lon="-0.65398">
        <ele>66</ele>
        <time>2021-07-04T07:10:48Z</time>
      </trkpt>
      <trkpt lat="47.39162" lon="-0.65402">
        <ele>66.2</ele>
        <time>2021-07-04T07:10:49Z</time>
      </trkpt>
      <trkpt lat="47.39156" lon="-0.65412">
        <ele>66.6</ele>
        <time>2021-07-04T07:10:51Z</time>
      </trkpt>
      <trkpt lat="47.39151" lon="-0.65421">
        <ele>67</ele>
        <time>2021-07-04T07:10:53Z</time>
      </trkpt>
      <trkpt lat="47.39148" lon="-0.65426">
        <ele>67.4</ele>
        <time>2021-07-04T07:10:54Z</time>
      </trkpt>
      <trkpt lat="47.39145" lon="-0.6543">
        <ele>68</ele>
        <time>2021-07-04T07:10:55Z</time>
      </trkpt>
      <trkpt lat="47.39142" lon="-0.65435">
        <ele>68.4</ele>
        <time>2021-07-04T07:10:56Z</time>
      </trkpt>
      <trkpt lat="47.3914" lon="-0.65441">
        <ele>68.4</ele>
        <time>2021-07-04T07:10:57Z</time>
      </trkpt>
      <trkpt lat="47.39134" lon="-0.65451">
        <ele>68.6</ele>
        <time>2021-07-04T07:10:59Z</time>
      </trkpt>
      <trkpt lat="47.39132" lon="-0.65456">
        <ele>68.8</ele>
        <time>2021-07-04T07:11:00Z</time>
      </trkpt>
      <trkpt lat="47.39129" lon="-0.65461">
        <ele>69</ele>
        <time>2021-07-04T07:11:01Z</time>
      </trkpt>
      <trkpt lat="47.39127" lon="-0.65465">
        <ele>69.4</ele>
        <time>2021-07-04T07:11:02Z</time>
      </trkpt>
      <trkpt lat="47.39125" lon="-0.65469">
        <ele>69.6</ele>
        <time>2021-07-04T07:11:03Z</time>
      </trkpt>
      <trkpt lat="47.3912" lon="-0.65479">
        <ele>69.6</ele>
        <time>2021-07-04T07:11:05Z</time>
      </trkpt>
      <trkpt lat="47.39118" lon="-0.65484">
        <ele>69.4</ele>
        <time>2021-07-04T07:11:06Z</time>
      </trkpt>
      <trkpt lat="47.39116" lon="-0.6549">
        <ele>69.2</ele>
        <time>2021-07-04T07:11:07Z</time>
      </trkpt>
      <trkpt lat="47.39111" lon="-0.65502">
        <ele>69</ele>
        <time>2021-07-04T07:11:09Z</time>
      </trkpt>
      <trkpt lat="47.39106" lon="-0.65515">
        <ele>68.6</ele>
        <time>2021-07-04T07:11:11Z</time>
      </trkpt>
      <trkpt lat="47.391" lon="-0.6553">
        <ele>68.4</ele>
        <time>2021-07-04T07:11:13Z</time>
      </trkpt>
      <trkpt lat="47.39097" lon="-0.65538">
        <ele>67.8</ele>
        <time>2021-07-04T07:11:14Z</time>
      </trkpt>
      <trkpt lat="47.39095" lon="-0.65546">
        <ele>67.6</ele>
        <time>2021-07-04T07:11:15Z</time>
      </trkpt>
      <trkpt lat="47.3909" lon="-0.65561">
        <ele>67.2</ele>
        <time>2021-07-04T07:11:17Z</time>
      </trkpt>
      <trkpt lat="47.39084" lon="-0.65576">
        <ele>67.6</ele>
        <time>2021-07-04T07:11:19Z</time>
      </trkpt>
      <trkpt lat="47.39079" lon="-0.65591">
        <ele>67.4</ele>
        <time>2021-07-04T07:11:21Z</time>
      </trkpt>
      <trkpt lat="47.39074" lon="-0.65606">
        <ele>67.2</ele>
        <time>2021-07-04T07:11:23Z</time>
      </trkpt>
      <trkpt lat="47.39068" lon="-0.65621">
        <ele>67.8</ele>
        <time>2021-07-04T07:11:25Z</time>
      </trkpt>
      <trkpt lat="47.39063" lon="-0.65636">
        <ele>67.8</ele>
        <time>2021-07-04T07:11:27Z</time>
      </trkpt>
      <trkpt lat="47.39061" lon="-0.65643">
        <ele>68</ele>
        <time>2021-07-04T07:11:28Z</time>
      </trkpt>
      <trkpt lat="47.39058" lon="-0.6565">
        <ele>68.2</ele>
        <time>2021-07-04T07:11:29Z</time>
      </trkpt>
      <trkpt lat="47.39056" lon="-0.65657">
        <ele>68.4</ele>
        <time>2021-07-04T07:11:30Z</time>
      </trkpt>
      <trkpt lat="47.39054" lon="-0.65665">
        <ele>68.4</ele>
        <time>2021-07-04T07:11:31Z</time>
      </trkpt>
      <trkpt lat="47.39051" lon="-0.65678">
        <ele>68.8</ele>
        <time>2021-07-04T07:11:33Z</time>
      </trkpt>
      <trkpt lat="47.3905" lon="-0.65684">
        <ele>69.2</ele>
        <time>2021-07-04T07:11:34Z</time>
      </trkpt>
      <trkpt lat="47.39049" lon="-0.65691">
        <ele>69.4</ele>
        <time>2021-07-04T07:11:35Z</time>
      </trkpt>
      <trkpt lat="47.39045" lon="-0.65702">
        <ele>69.6</ele>
        <time>2021-07-04T07:11:37Z</time>
      </trkpt>
      <trkpt lat="47.39043" lon="-0.65709">
        <ele>70</ele>
        <time>2021-07-04T07:11:38Z</time>
      </trkpt>
      <trkpt lat="47.39041" lon="-0.65715">
        <ele>70.4</ele>
        <time>2021-07-04T07:11:39Z</time>
      </trkpt>
      <trkpt lat="47.39039" lon="-0.65722">
        <ele>70.6</ele>
        <time>2021-07-04T07:11:40Z</time>
      </trkpt>
      <trkpt lat="47.39037" lon="-0.65728">
        <ele>70.6</ele>
        <time>2021-07-04T07:11:41Z</time>
      </trkpt>
      <trkpt lat="47.39034" lon="-0.6574">
        <ele>70.4</ele>
        <time>2021-07-04T07:11:43Z</time>
      </trkpt>
      <trkpt lat="47.39029" lon="-0.65753">
        <ele>70.6</ele>
        <time>2021-07-04T07:11:45Z</time>
      </trkpt>
      <trkpt lat="47.39027" lon="-0.6576">
        <ele>70.8</ele>
        <time>2021-07-04T07:11:46Z</time>
      </trkpt>
      <trkpt lat="47.39024" lon="-0.65766">
        <ele>71.2</ele>
        <time>2021-07-04T07:11:47Z</time>
      </trkpt>
      <trkpt lat="47.39019" lon="-0.65779">
        <ele>71</ele>
        <time>2021-07-04T07:11:49Z</time>
      </trkpt>
      <trkpt lat="47.39014" lon="-0.6579">
        <ele>70.8</ele>
        <time>2021-07-04T07:11:51Z</time>
      </trkpt>
      <trkpt lat="47.39011" lon="-0.65796">
        <ele>70.6</ele>
        <time>2021-07-04T07:11:52Z</time>
      </trkpt>
      <trkpt lat="47.39008" lon="-0.65803">
        <ele>70.8</ele>
        <time>2021-07-04T07:11:53Z</time>
      </trkpt>
      <trkpt lat="47.39002" lon="-0.65816">
        <ele>71</ele>
        <time>2021-07-04T07:11:55Z</time>
      </trkpt>
      <trkpt lat="47.38996" lon="-0.65828">
        <ele>70.4</ele>
        <time>2021-07-04T07:11:57Z</time>
      </trkpt>
      <trkpt lat="47.38989" lon="-0.6584">
        <ele>70.4</ele>
        <time>2021-07-04T07:11:59Z</time>
      </trkpt>
      <trkpt lat="47.38982" lon="-0.65849">
        <ele>70.4</ele>
        <time>2021-07-04T07:12:01Z</time>
      </trkpt>
      <trkpt lat="47.38975" lon="-0.65859">
        <ele>70.6</ele>
        <time>2021-07-04T07:12:03Z</time>
      </trkpt>
      <trkpt lat="47.38971" lon="-0.65862">
        <ele>71</ele>
        <time>2021-07-04T07:12:04Z</time>
      </trkpt>
      <trkpt lat="47.38967" lon="-0.65865">
        <ele>71</ele>
        <time>2021-07-04T07:12:05Z</time>
      </trkpt>
      <trkpt lat="47.38958" lon="-0.65868">
        <ele>70</ele>
        <time>2021-07-04T07:12:07Z</time>
      </trkpt>
      <trkpt lat="47.38953" lon="-0.65869">
        <ele>69.8</ele>
        <time>2021-07-04T07:12:08Z</time>
      </trkpt>
      <trkpt lat="47.38947" lon="-0.65869">
        <ele>69.4</ele>
        <time>2021-07-04T07:12:09Z</time>
      </trkpt>
      <trkpt lat="47.38942" lon="-0.65868">
        <ele>69.4</ele>
        <time>2021-07-04T07:12:10Z</time>
      </trkpt>
      <trkpt lat="47.38937" lon="-0.65866">
        <ele>68.4</ele>
        <time>2021-07-04T07:12:11Z</time>
      </trkpt>
      <trkpt lat="47.38932" lon="-0.65864">
        <ele>68</ele>
        <time>2021-07-04T07:12:12Z</time>
      </trkpt>
      <trkpt lat="47.38927" lon="-0.65862">
        <ele>68</ele>
        <time>2021-07-04T07:12:13Z</time>
      </trkpt>
      <trkpt lat="47.38918" lon="-0.65857">
        <ele>67.6</ele>
        <time>2021-07-04T07:12:15Z</time>
      </trkpt>
      <trkpt lat="47.38913" lon="-0.65855">
        <ele>67.4</ele>
        <time>2021-07-04T07:12:16Z</time>
      </trkpt>
      <trkpt lat="47.38908" lon="-0.65853">
        <ele>67.4</ele>
        <time>2021-07-04T07:12:17Z</time>
      </trkpt>
      <trkpt lat="47.38897" lon="-0.65851">
        <ele>67.4</ele>
        <time>2021-07-04T07:12:19Z</time>
      </trkpt>
      <trkpt lat="47.38886" lon="-0.6585">
        <ele>67.4</ele>
        <time>2021-07-04T07:12:21Z</time>
      </trkpt>
      <trkpt lat="47.38881" lon="-0.65849">
        <ele>66.8</ele>
        <time>2021-07-04T07:12:22Z</time>
      </trkpt>
      <trkpt lat="47.38876" lon="-0.65848">
        <ele>66.6</ele>
        <time>2021-07-04T07:12:23Z</time>
      </trkpt>
      <trkpt lat="47.38865" lon="-0.65845">
        <ele>66.8</ele>
        <time>2021-07-04T07:12:25Z</time>
      </trkpt>
      <trkpt lat="47.38853" lon="-0.65842">
        <ele>65.2</ele>
        <time>2021-07-04T07:12:27Z</time>
      </trkpt>
      <trkpt lat="47.38841" lon="-0.6584">
        <ele>64.8</ele>
        <time>2021-07-04T07:12:29Z</time>
      </trkpt>
      <trkpt lat="47.38835" lon="-0.65839">
        <ele>65</ele>
        <time>2021-07-04T07:12:30Z</time>
      </trkpt>
      <trkpt lat="47.38829" lon="-0.65839">
        <ele>64.6</ele>
        <time>2021-07-04T07:12:31Z</time>
      </trkpt>
      <trkpt lat="47.38822" lon="-0.65838">
        <ele>64.2</ele>
        <time>2021-07-04T07:12:32Z</time>
      </trkpt>
      <trkpt lat="47.38816" lon="-0.65837">
        <ele>63.6</ele>
        <time>2021-07-04T07:12:33Z</time>
      </trkpt>
      <trkpt lat="47.38804" lon="-0.65837">
        <ele>61.6</ele>
        <time>2021-07-04T07:12:35Z</time>
      </trkpt>
      <trkpt lat="47.38797" lon="-0.65837">
        <ele>60.2</ele>
        <time>2021-07-04T07:12:36Z</time>
      </trkpt>
      <trkpt lat="47.38791" lon="-0.65837">
        <ele>59.6</ele>
        <time>2021-07-04T07:12:37Z</time>
      </trkpt>
      <trkpt lat="47.38784" lon="-0.65837">
        <ele>58.8</ele>
        <time>2021-07-04T07:12:38Z</time>
      </trkpt>
      <trkpt lat="47.38778" lon="-0.65836">
        <ele>58.4</ele>
        <time>2021-07-04T07:12:39Z</time>
      </trkpt>
      <trkpt lat="47.38771" lon="-0.65835">
        <ele>56.4</ele>
        <time>2021-07-04T07:12:40Z</time>
      </trkpt>
      <trkpt lat="47.38765" lon="-0.65834">
        <ele>56</ele>
        <time>2021-07-04T07:12:41Z</time>
      </trkpt>
      <trkpt lat="47.38759" lon="-0.65834">
        <ele>55</ele>
        <time>2021-07-04T07:12:42Z</time>
      </trkpt>
      <trkpt lat="47.38753" lon="-0.65832">
        <ele>55.4</ele>
        <time>2021-07-04T07:12:43Z</time>
      </trkpt>
      <trkpt lat="47.38746" lon="-0.6583">
        <ele>54.8</ele>
        <time>2021-07-04T07:12:44Z</time>
      </trkpt>
      <trkpt lat="47.3874" lon="-0.65827">
        <ele>53.8</ele>
        <time>2021-07-04T07:12:45Z</time>
      </trkpt>
      <trkpt lat="47.38728" lon="-0.65821">
        <ele>52.4</ele>
        <time>2021-07-04T07:12:47Z</time>
      </trkpt>
      <trkpt lat="47.38717" lon="-0.65813">
        <ele>50</ele>
        <time>2021-07-04T07:12:49Z</time>
      </trkpt>
      <trkpt lat="47.38712" lon="-0.65808">
        <ele>48.6</ele>
        <time>2021-07-04T07:12:50Z</time>
      </trkpt>
      <trkpt lat="47.38707" lon="-0.65803">
        <ele>46.8</ele>
        <time>2021-07-04T07:12:51Z</time>
      </trkpt>
      <trkpt lat="47.38703" lon="-0.65798">
        <ele>45.6</ele>
        <time>2021-07-04T07:12:52Z</time>
      </trkpt>
      <trkpt lat="47.38698" lon="-0.65792">
        <ele>45.2</ele>
        <time>2021-07-04T07:12:53Z</time>
      </trkpt>
      <trkpt lat="47.38693" lon="-0.65787">
        <ele>44.8</ele>
        <time>2021-07-04T07:12:54Z</time>
      </trkpt>
      <trkpt lat="47.38689" lon="-0.65783">
        <ele>44.4</ele>
        <time>2021-07-04T07:12:55Z</time>
      </trkpt>
      <trkpt lat="47.38684" lon="-0.65779">
        <ele>43.2</ele>
        <time>2021-07-04T07:12:56Z</time>
      </trkpt>
      <trkpt lat="47.3868" lon="-0.65775">
        <ele>42.8</ele>
        <time>2021-07-04T07:12:57Z</time>
      </trkpt>
      <trkpt lat="47.38674" lon="-0.65772">
        <ele>41.8</ele>
        <time>2021-07-04T07:12:58Z</time>
      </trkpt>
      <trkpt lat="47.38669" lon="-0.65768">
        <ele>39.4</ele>
        <time>2021-07-04T07:12:59Z</time>
      </trkpt>
      <trkpt lat="47.38659" lon="-0.65764">
        <ele>37.8</ele>
        <time>2021-07-04T07:13:01Z</time>
      </trkpt>
      <trkpt lat="47.38656" lon="-0.65764">
        <ele>37.6</ele>
        <time>2021-07-04T07:13:02Z</time>
      </trkpt>
      <trkpt lat="47.38653" lon="-0.65767">
        <ele>37.8</ele>
        <time>2021-07-04T07:13:03Z</time>
      </trkpt>
      <trkpt lat="47.38648" lon="-0.65769">
        <ele>37.8</ele>
        <time>2021-07-04T07:13:05Z</time>
      </trkpt>
      <trkpt lat="47.38646" lon="-0.6577">
        <ele>37.8</ele>
        <time>2021-07-04T07:13:06Z</time>
      </trkpt>
      <trkpt lat="47.38645" lon="-0.6577">
        <ele>37.8</ele>
        <time>2021-07-04T07:13:07Z</time>
      </trkpt>
      <trkpt lat="47.38641" lon="-0.6577">
        <ele>38</ele>
        <time>2021-07-04T07:13:09Z</time>
      </trkpt>
      <trkpt lat="47.38636" lon="-0.65772">
        <ele>37.8</ele>
        <time>2021-07-04T07:13:11Z</time>
      </trkpt>
      <trkpt lat="47.38632" lon="-0.65774">
        <ele>37.4</ele>
        <time>2021-07-04T07:13:12Z</time>
      </trkpt>
      <trkpt lat="47.38628" lon="-0.65776">
        <ele>36.8</ele>
        <time>2021-07-04T07:13:13Z</time>
      </trkpt>
      <trkpt lat="47.38617" lon="-0.65779">
        <ele>35.6</ele>
        <time>2021-07-04T07:13:15Z</time>
      </trkpt>
      <trkpt lat="47.38611" lon="-0.6578">
        <ele>35.2</ele>
        <time>2021-07-04T07:13:16Z</time>
      </trkpt>
      <trkpt lat="47.38605" lon="-0.65781">
        <ele>34.4</ele>
        <time>2021-07-04T07:13:17Z</time>
      </trkpt>
      <trkpt lat="47.38593" lon="-0.65782">
        <ele>33.6</ele>
        <time>2021-07-04T07:13:19Z</time>
      </trkpt>
      <trkpt lat="47.38582" lon="-0.65785">
        <ele>34.4</ele>
        <time>2021-07-04T07:13:21Z</time>
      </trkpt>
      <trkpt lat="47.38571" lon="-0.65789">
        <ele>35.4</ele>
        <time>2021-07-04T07:13:23Z</time>
      </trkpt>
      <trkpt lat="47.38567" lon="-0.65791">
        <ele>36.4</ele>
        <time>2021-07-04T07:13:24Z</time>
      </trkpt>
      <trkpt lat="47.38562" lon="-0.65794">
        <ele>37.2</ele>
        <time>2021-07-04T07:13:25Z</time>
      </trkpt>
      <trkpt lat="47.38558" lon="-0.65796">
        <ele>38</ele>
        <time>2021-07-04T07:13:26Z</time>
      </trkpt>
      <trkpt lat="47.38554" lon="-0.65799">
        <ele>38</ele>
        <time>2021-07-04T07:13:27Z</time>
      </trkpt>
      <trkpt lat="47.38546" lon="-0.65803">
        <ele>37.8</ele>
        <time>2021-07-04T07:13:29Z</time>
      </trkpt>
      <trkpt lat="47.38538" lon="-0.65807">
        <ele>38.4</ele>
        <time>2021-07-04T07:13:31Z</time>
      </trkpt>
      <trkpt lat="47.3853" lon="-0.6581">
        <ele>39.2</ele>
        <time>2021-07-04T07:13:33Z</time>
      </trkpt>
      <trkpt lat="47.38526" lon="-0.65812">
        <ele>39.4</ele>
        <time>2021-07-04T07:13:34Z</time>
      </trkpt>
      <trkpt lat="47.38521" lon="-0.65813">
        <ele>39.8</ele>
        <time>2021-07-04T07:13:35Z</time>
      </trkpt>
      <trkpt lat="47.38512" lon="-0.65816">
        <ele>40</ele>
        <time>2021-07-04T07:13:37Z</time>
      </trkpt>
      <trkpt lat="47.38502" lon="-0.65819">
        <ele>40</ele>
        <time>2021-07-04T07:13:39Z</time>
      </trkpt>
      <trkpt lat="47.38498" lon="-0.6582">
        <ele>40</ele>
        <time>2021-07-04T07:13:40Z</time>
      </trkpt>
      <trkpt lat="47.38492" lon="-0.65821">
        <ele>39.8</ele>
        <time>2021-07-04T07:13:41Z</time>
      </trkpt>
      <trkpt lat="47.38482" lon="-0.65824">
        <ele>39.6</ele>
        <time>2021-07-04T07:13:43Z</time>
      </trkpt>
      <trkpt lat="47.38472" lon="-0.65826">
        <ele>39.8</ele>
        <time>2021-07-04T07:13:45Z</time>
      </trkpt>
      <trkpt lat="47.38462" lon="-0.65828">
        <ele>39.8</ele>
        <time>2021-07-04T07:13:47Z</time>
      </trkpt>
      <trkpt lat="47.38453" lon="-0.65832">
        <ele>39.8</ele>
        <time>2021-07-04T07:13:49Z</time>
      </trkpt>
      <trkpt lat="47.38444" lon="-0.65835">
        <ele>39.8</ele>
        <time>2021-07-04T07:13:51Z</time>
      </trkpt>
      <trkpt lat="47.38436" lon="-0.65839">
        <ele>40</ele>
        <time>2021-07-04T07:13:53Z</time>
      </trkpt>
      <trkpt lat="47.38428" lon="-0.65844">
        <ele>40.2</ele>
        <time>2021-07-04T07:13:55Z</time>
      </trkpt>
      <trkpt lat="47.38424" lon="-0.65848">
        <ele>40.2</ele>
        <time>2021-07-04T07:13:56Z</time>
      </trkpt>
      <trkpt lat="47.38421" lon="-0.65853">
        <ele>40.4</ele>
        <time>2021-07-04T07:13:57Z</time>
      </trkpt>
      <trkpt lat="47.38419" lon="-0.65858">
        <ele>40.4</ele>
        <time>2021-07-04T07:13:58Z</time>
      </trkpt>
      <trkpt lat="47.38416" lon="-0.65863">
        <ele>40.4</ele>
        <time>2021-07-04T07:13:59Z</time>
      </trkpt>
      <trkpt lat="47.38413" lon="-0.65873">
        <ele>40.6</ele>
        <time>2021-07-04T07:14:01Z</time>
      </trkpt>
      <trkpt lat="47.38408" lon="-0.65876">
        <ele>41</ele>
        <time>2021-07-04T07:14:03Z</time>
      </trkpt>
      <trkpt lat="47.38401" lon="-0.65873">
        <ele>40.8</ele>
        <time>2021-07-04T07:14:05Z</time>
      </trkpt>
      <trkpt lat="47.38394" lon="-0.65867">
        <ele>40.4</ele>
        <time>2021-07-04T07:14:07Z</time>
      </trkpt>
      <trkpt lat="47.38386" lon="-0.65861">
        <ele>40</ele>
        <time>2021-07-04T07:14:09Z</time>
      </trkpt>
      <trkpt lat="47.38379" lon="-0.65855">
        <ele>40.6</ele>
        <time>2021-07-04T07:14:11Z</time>
      </trkpt>
      <trkpt lat="47.38376" lon="-0.65852">
        <ele>40.8</ele>
        <time>2021-07-04T07:14:12Z</time>
      </trkpt>
      <trkpt lat="47.38372" lon="-0.65849">
        <ele>40.6</ele>
        <time>2021-07-04T07:14:13Z</time>
      </trkpt>
      <trkpt lat="47.38368" lon="-0.65847">
        <ele>40.4</ele>
        <time>2021-07-04T07:14:14Z</time>
      </trkpt>
      <trkpt lat="47.38365" lon="-0.65844">
        <ele>40.2</ele>
        <time>2021-07-04T07:14:15Z</time>
      </trkpt>
      <trkpt lat="47.38357" lon="-0.65839">
        <ele>39.6</ele>
        <time>2021-07-04T07:14:17Z</time>
      </trkpt>
      <trkpt lat="47.38354" lon="-0.65836">
        <ele>39.6</ele>
        <time>2021-07-04T07:14:18Z</time>
      </trkpt>
      <trkpt lat="47.3835" lon="-0.65833">
        <ele>39.6</ele>
        <time>2021-07-04T07:14:19Z</time>
      </trkpt>
      <trkpt lat="47.38342" lon="-0.65827">
        <ele>39.6</ele>
        <time>2021-07-04T07:14:21Z</time>
      </trkpt>
      <trkpt lat="47.38336" lon="-0.65821">
        <ele>39.4</ele>
        <time>2021-07-04T07:14:23Z</time>
      </trkpt>
      <trkpt lat="47.38335" lon="-0.65816">
        <ele>39.4</ele>
        <time>2021-07-04T07:14:24Z</time>
      </trkpt>
      <trkpt lat="47.38335" lon="-0.65812">
        <ele>39.2</ele>
        <time>2021-07-04T07:14:25Z</time>
      </trkpt>
      <trkpt lat="47.38336" lon="-0.65807">
        <ele>39.2</ele>
        <time>2021-07-04T07:14:26Z</time>
      </trkpt>
      <trkpt lat="47.38337" lon="-0.65802">
        <ele>39.2</ele>
        <time>2021-07-04T07:14:27Z</time>
      </trkpt>
      <trkpt lat="47.38338" lon="-0.65796">
        <ele>39</ele>
        <time>2021-07-04T07:14:28Z</time>
      </trkpt>
      <trkpt lat="47.3834" lon="-0.65791">
        <ele>38.8</ele>
        <time>2021-07-04T07:14:29Z</time>
      </trkpt>
      <trkpt lat="47.38343" lon="-0.65779">
        <ele>38.4</ele>
        <time>2021-07-04T07:14:31Z</time>
      </trkpt>
      <trkpt lat="47.38345" lon="-0.65774">
        <ele>38.2</ele>
        <time>2021-07-04T07:14:32Z</time>
      </trkpt>
      <trkpt lat="47.38347" lon="-0.65769">
        <ele>38</ele>
        <time>2021-07-04T07:14:33Z</time>
      </trkpt>
      <trkpt lat="47.38349" lon="-0.65764">
        <ele>38</ele>
        <time>2021-07-04T07:14:34Z</time>
      </trkpt>
      <trkpt lat="47.3835" lon="-0.6576">
        <ele>38</ele>
        <time>2021-07-04T07:14:35Z</time>
      </trkpt>
      <trkpt lat="47.3835" lon="-0.65755">
        <ele>38</ele>
        <time>2021-07-04T07:14:36Z</time>
      </trkpt>
      <trkpt lat="47.38349" lon="-0.65751">
        <ele>38</ele>
        <time>2021-07-04T07:14:37Z</time>
      </trkpt>
      <trkpt lat="47.38348" lon="-0.65747">
        <ele>37.8</ele>
        <time>2021-07-04T07:14:38Z</time>
      </trkpt>
      <trkpt lat="47.38346" lon="-0.65743">
        <ele>37.6</ele>
        <time>2021-07-04T07:14:39Z</time>
      </trkpt>
      <trkpt lat="47.3834" lon="-0.65737">
        <ele>37.2</ele>
        <time>2021-07-04T07:14:41Z</time>
      </trkpt>
      <trkpt lat="47.38334" lon="-0.65733">
        <ele>37.2</ele>
        <time>2021-07-04T07:14:43Z</time>
      </trkpt>
      <trkpt lat="47.3833" lon="-0.65731">
        <ele>37.2</ele>
        <time>2021-07-04T07:14:44Z</time>
      </trkpt>
      <trkpt lat="47.38327" lon="-0.6573">
        <ele>37.2</ele>
        <time>2021-07-04T07:14:45Z</time>
      </trkpt>
      <trkpt lat="47.38319" lon="-0.65726">
        <ele>37</ele>
        <time>2021-07-04T07:14:47Z</time>
      </trkpt>
      <trkpt lat="47.38312" lon="-0.65721">
        <ele>36.4</ele>
        <time>2021-07-04T07:14:49Z</time>
      </trkpt>
      <trkpt lat="47.38308" lon="-0.65718">
        <ele>36.4</ele>
        <time>2021-07-04T07:14:50Z</time>
      </trkpt>
      <trkpt lat="47.38306" lon="-0.65716">
        <ele>36.4</ele>
        <time>2021-07-04T07:14:51Z</time>
      </trkpt>
      <trkpt lat="47.38304" lon="-0.65713">
        <ele>36.6</ele>
        <time>2021-07-04T07:14:52Z</time>
      </trkpt>
      <trkpt lat="47.38302" lon="-0.6571">
        <ele>36.6</ele>
        <time>2021-07-04T07:14:53Z</time>
      </trkpt>
      <trkpt lat="47.38299" lon="-0.65709">
        <ele>36.4</ele>
        <time>2021-07-04T07:14:54Z</time>
      </trkpt>
      <trkpt lat="47.38297" lon="-0.65708">
        <ele>36.4</ele>
        <time>2021-07-04T07:14:55Z</time>
      </trkpt>
      <trkpt lat="47.38294" lon="-0.65708">
        <ele>36.2</ele>
        <time>2021-07-04T07:14:56Z</time>
      </trkpt>
      <trkpt lat="47.38291" lon="-0.65707">
        <ele>36</ele>
        <time>2021-07-04T07:14:57Z</time>
      </trkpt>
      <trkpt lat="47.38288" lon="-0.65705">
        <ele>36.2</ele>
        <time>2021-07-04T07:14:59Z</time>
      </trkpt>
      <trkpt lat="47.38281" lon="-0.65701">
        <ele>36.2</ele>
        <time>2021-07-04T07:15:01Z</time>
      </trkpt>
      <trkpt lat="47.38276" lon="-0.65696">
        <ele>35.8</ele>
        <time>2021-07-04T07:15:03Z</time>
      </trkpt>
      <trkpt lat="47.3827" lon="-0.65689">
        <ele>35</ele>
        <time>2021-07-04T07:15:05Z</time>
      </trkpt>
      <trkpt lat="47.38263" lon="-0.6568">
        <ele>33.8</ele>
        <time>2021-07-04T07:15:07Z</time>
      </trkpt>
      <trkpt lat="47.38254" lon="-0.6567">
        <ele>32.8</ele>
        <time>2021-07-04T07:15:09Z</time>
      </trkpt>
      <trkpt lat="47.38245" lon="-0.65659">
        <ele>32.4</ele>
        <time>2021-07-04T07:15:11Z</time>
      </trkpt>
      <trkpt lat="47.3824" lon="-0.65654">
        <ele>32</ele>
        <time>2021-07-04T07:15:12Z</time>
      </trkpt>
      <trkpt lat="47.38236" lon="-0.6565">
        <ele>31.2</ele>
        <time>2021-07-04T07:15:13Z</time>
      </trkpt>
      <trkpt lat="47.38227" lon="-0.65639">
        <ele>29.8</ele>
        <time>2021-07-04T07:15:15Z</time>
      </trkpt>
      <trkpt lat="47.38217" lon="-0.65627">
        <ele>28.6</ele>
        <time>2021-07-04T07:15:17Z</time>
      </trkpt>
      <trkpt lat="47.38207" lon="-0.65615">
        <ele>28</ele>
        <time>2021-07-04T07:15:19Z</time>
      </trkpt>
      <trkpt lat="47.38197" lon="-0.65606">
        <ele>27.6</ele>
        <time>2021-07-04T07:15:21Z</time>
      </trkpt>
      <trkpt lat="47.38193" lon="-0.65602">
        <ele>27.4</ele>
        <time>2021-07-04T07:15:22Z</time>
      </trkpt>
      <trkpt lat="47.38188" lon="-0.65597">
        <ele>27</ele>
        <time>2021-07-04T07:15:23Z</time>
      </trkpt>
      <trkpt lat="47.38177" lon="-0.65587">
        <ele>26.6</ele>
        <time>2021-07-04T07:15:25Z</time>
      </trkpt>
      <trkpt lat="47.38171" lon="-0.65581">
        <ele>25.8</ele>
        <time>2021-07-04T07:15:26Z</time>
      </trkpt>
      <trkpt lat="47.38165" lon="-0.65575">
        <ele>25</ele>
        <time>2021-07-04T07:15:27Z</time>
      </trkpt>
      <trkpt lat="47.38158" lon="-0.65569">
        <ele>23.8</ele>
        <time>2021-07-04T07:15:28Z</time>
      </trkpt>
      <trkpt lat="47.38151" lon="-0.65563">
        <ele>22.8</ele>
        <time>2021-07-04T07:15:29Z</time>
      </trkpt>
      <trkpt lat="47.38144" lon="-0.65558">
        <ele>22.2</ele>
        <time>2021-07-04T07:15:30Z</time>
      </trkpt>
      <trkpt lat="47.38137" lon="-0.65552">
        <ele>21.8</ele>
        <time>2021-07-04T07:15:31Z</time>
      </trkpt>
      <trkpt lat="47.38123" lon="-0.65542">
        <ele>21.2</ele>
        <time>2021-07-04T07:15:33Z</time>
      </trkpt>
      <trkpt lat="47.3811" lon="-0.65533">
        <ele>20.8</ele>
        <time>2021-07-04T07:15:35Z</time>
      </trkpt>
      <trkpt lat="47.38097" lon="-0.65523">
        <ele>21.2</ele>
        <time>2021-07-04T07:15:37Z</time>
      </trkpt>
      <trkpt lat="47.38091" lon="-0.65519">
        <ele>21.8</ele>
        <time>2021-07-04T07:15:38Z</time>
      </trkpt>
      <trkpt lat="47.38086" lon="-0.65514">
        <ele>22.2</ele>
        <time>2021-07-04T07:15:39Z</time>
      </trkpt>
      <trkpt lat="47.38076" lon="-0.65506">
        <ele>23</ele>
        <time>2021-07-04T07:15:41Z</time>
      </trkpt>
      <trkpt lat="47.38072" lon="-0.65501">
        <ele>23.4</ele>
        <time>2021-07-04T07:15:42Z</time>
      </trkpt>
      <trkpt lat="47.38068" lon="-0.65497">
        <ele>24</ele>
        <time>2021-07-04T07:15:43Z</time>
      </trkpt>
      <trkpt lat="47.38064" lon="-0.65493">
        <ele>24.6</ele>
        <time>2021-07-04T07:15:44Z</time>
      </trkpt>
      <trkpt lat="47.3806" lon="-0.65489">
        <ele>25</ele>
        <time>2021-07-04T07:15:45Z</time>
      </trkpt>
      <trkpt lat="47.38052" lon="-0.65479">
        <ele>26.2</ele>
        <time>2021-07-04T07:15:47Z</time>
      </trkpt>
      <trkpt lat="47.38044" lon="-0.6547">
        <ele>26.6</ele>
        <time>2021-07-04T07:15:49Z</time>
      </trkpt>
      <trkpt lat="47.38034" lon="-0.65461">
        <ele>27.2</ele>
        <time>2021-07-04T07:15:51Z</time>
      </trkpt>
      <trkpt lat="47.3803" lon="-0.65456">
        <ele>27.6</ele>
        <time>2021-07-04T07:15:52Z</time>
      </trkpt>
      <trkpt lat="47.38024" lon="-0.65451">
        <ele>27.6</ele>
        <time>2021-07-04T07:15:53Z</time>
      </trkpt>
      <trkpt lat="47.38014" lon="-0.6544">
        <ele>27.2</ele>
        <time>2021-07-04T07:15:55Z</time>
      </trkpt>
      <trkpt lat="47.38002" lon="-0.6543">
        <ele>27.4</ele>
        <time>2021-07-04T07:15:57Z</time>
      </trkpt>
      <trkpt lat="47.37991" lon="-0.6542">
        <ele>26.8</ele>
        <time>2021-07-04T07:15:59Z</time>
      </trkpt>
      <trkpt lat="47.37979" lon="-0.6541">
        <ele>26</ele>
        <time>2021-07-04T07:16:01Z</time>
      </trkpt>
      <trkpt lat="47.37967" lon="-0.65401">
        <ele>26</ele>
        <time>2021-07-04T07:16:03Z</time>
      </trkpt>
      <trkpt lat="47.37954" lon="-0.65393">
        <ele>26.4</ele>
        <time>2021-07-04T07:16:05Z</time>
      </trkpt>
      <trkpt lat="47.37948" lon="-0.65388">
        <ele>26.4</ele>
        <time>2021-07-04T07:16:06Z</time>
      </trkpt>
      <trkpt lat="47.37941" lon="-0.65384">
        <ele>26.2</ele>
        <time>2021-07-04T07:16:07Z</time>
      </trkpt>
      <trkpt lat="47.37929" lon="-0.65374">
        <ele>25.6</ele>
        <time>2021-07-04T07:16:09Z</time>
      </trkpt>
      <trkpt lat="47.37917" lon="-0.65365">
        <ele>25.6</ele>
        <time>2021-07-04T07:16:11Z</time>
      </trkpt>
      <trkpt lat="47.37907" lon="-0.65356">
        <ele>25</ele>
        <time>2021-07-04T07:16:13Z</time>
      </trkpt>
      <trkpt lat="47.37901" lon="-0.65351">
        <ele>24.8</ele>
        <time>2021-07-04T07:16:14Z</time>
      </trkpt>
      <trkpt lat="47.37896" lon="-0.65347">
        <ele>25</ele>
        <time>2021-07-04T07:16:15Z</time>
      </trkpt>
      <trkpt lat="47.37885" lon="-0.65338">
        <ele>25.4</ele>
        <time>2021-07-04T07:16:17Z</time>
      </trkpt>
      <trkpt lat="47.37874" lon="-0.65329">
        <ele>25.4</ele>
        <time>2021-07-04T07:16:19Z</time>
      </trkpt>
      <trkpt lat="47.37863" lon="-0.65319">
        <ele>25.4</ele>
        <time>2021-07-04T07:16:21Z</time>
      </trkpt>
      <trkpt lat="47.37852" lon="-0.6531">
        <ele>25.8</ele>
        <time>2021-07-04T07:16:23Z</time>
      </trkpt>
      <trkpt lat="47.37841" lon="-0.65301">
        <ele>25.8</ele>
        <time>2021-07-04T07:16:25Z</time>
      </trkpt>
      <trkpt lat="47.3783" lon="-0.65291">
        <ele>25.6</ele>
        <time>2021-07-04T07:16:27Z</time>
      </trkpt>
      <trkpt lat="47.37819" lon="-0.65282">
        <ele>25.4</ele>
        <time>2021-07-04T07:16:29Z</time>
      </trkpt>
      <trkpt lat="47.37808" lon="-0.65273">
        <ele>25.6</ele>
        <time>2021-07-04T07:16:31Z</time>
      </trkpt>
      <trkpt lat="47.37797" lon="-0.65263">
        <ele>25.6</ele>
        <time>2021-07-04T07:16:33Z</time>
      </trkpt>
      <trkpt lat="47.37785" lon="-0.65255">
        <ele>26.4</ele>
        <time>2021-07-04T07:16:35Z</time>
      </trkpt>
      <trkpt lat="47.37775" lon="-0.65245">
        <ele>26.6</ele>
        <time>2021-07-04T07:16:37Z</time>
      </trkpt>
      <trkpt lat="47.37764" lon="-0.65236">
        <ele>26.6</ele>
        <time>2021-07-04T07:16:39Z</time>
      </trkpt>
      <trkpt lat="47.37754" lon="-0.65227">
        <ele>27</ele>
        <time>2021-07-04T07:16:41Z</time>
      </trkpt>
      <trkpt lat="47.37743" lon="-0.65219">
        <ele>27.4</ele>
        <time>2021-07-04T07:16:43Z</time>
      </trkpt>
      <trkpt lat="47.37731" lon="-0.65211">
        <ele>27.6</ele>
        <time>2021-07-04T07:16:45Z</time>
      </trkpt>
      <trkpt lat="47.3772" lon="-0.65202">
        <ele>28</ele>
        <time>2021-07-04T07:16:47Z</time>
      </trkpt>
      <trkpt lat="47.37714" lon="-0.65197">
        <ele>28.6</ele>
        <time>2021-07-04T07:16:48Z</time>
      </trkpt>
      <trkpt lat="47.37709" lon="-0.65193">
        <ele>28.8</ele>
        <time>2021-07-04T07:16:49Z</time>
      </trkpt>
      <trkpt lat="47.377" lon="-0.65186">
        <ele>29.4</ele>
        <time>2021-07-04T07:16:51Z</time>
      </trkpt>
      <trkpt lat="47.37695" lon="-0.65183">
        <ele>29.6</ele>
        <time>2021-07-04T07:16:52Z</time>
      </trkpt>
      <trkpt lat="47.37691" lon="-0.65179">
        <ele>30</ele>
        <time>2021-07-04T07:16:53Z</time>
      </trkpt>
      <trkpt lat="47.37682" lon="-0.65171">
        <ele>30.4</ele>
        <time>2021-07-04T07:16:55Z</time>
      </trkpt>
      <trkpt lat="47.37672" lon="-0.65163">
        <ele>30.4</ele>
        <time>2021-07-04T07:16:57Z</time>
      </trkpt>
      <trkpt lat="47.37667" lon="-0.65159">
        <ele>30.2</ele>
        <time>2021-07-04T07:16:58Z</time>
      </trkpt>
      <trkpt lat="47.37662" lon="-0.65155">
        <ele>29.2</ele>
        <time>2021-07-04T07:16:59Z</time>
      </trkpt>
      <trkpt lat="47.37652" lon="-0.65146">
        <ele>28.8</ele>
        <time>2021-07-04T07:17:01Z</time>
      </trkpt>
      <trkpt lat="47.37647" lon="-0.65141">
        <ele>28.4</ele>
        <time>2021-07-04T07:17:02Z</time>
      </trkpt>
      <trkpt lat="47.37641" lon="-0.65136">
        <ele>28.2</ele>
        <time>2021-07-04T07:17:03Z</time>
      </trkpt>
      <trkpt lat="47.37635" lon="-0.65131">
        <ele>28</ele>
        <time>2021-07-04T07:17:04Z</time>
      </trkpt>
      <trkpt lat="47.37629" lon="-0.65127">
        <ele>27.6</ele>
        <time>2021-07-04T07:17:05Z</time>
      </trkpt>
      <trkpt lat="47.37617" lon="-0.65117">
        <ele>27.2</ele>
        <time>2021-07-04T07:17:07Z</time>
      </trkpt>
      <trkpt lat="47.37605" lon="-0.65108">
        <ele>26.4</ele>
        <time>2021-07-04T07:17:09Z</time>
      </trkpt>
      <trkpt lat="47.37594" lon="-0.65098">
        <ele>26.6</ele>
        <time>2021-07-04T07:17:11Z</time>
      </trkpt>
      <trkpt lat="47.37583" lon="-0.65088">
        <ele>26.8</ele>
        <time>2021-07-04T07:17:13Z</time>
      </trkpt>
      <trkpt lat="47.37572" lon="-0.65077">
        <ele>26.8</ele>
        <time>2021-07-04T07:17:15Z</time>
      </trkpt>
      <trkpt lat="47.37561" lon="-0.65067">
        <ele>27</ele>
        <time>2021-07-04T07:17:17Z</time>
      </trkpt>
      <trkpt lat="47.3755" lon="-0.65058">
        <ele>27.2</ele>
        <time>2021-07-04T07:17:19Z</time>
      </trkpt>
      <trkpt lat="47.37544" lon="-0.65053">
        <ele>27.6</ele>
        <time>2021-07-04T07:17:20Z</time>
      </trkpt>
      <trkpt lat="47.37539" lon="-0.65049">
        <ele>27.6</ele>
        <time>2021-07-04T07:17:21Z</time>
      </trkpt>
      <trkpt lat="47.37528" lon="-0.6504">
        <ele>26.8</ele>
        <time>2021-07-04T07:17:23Z</time>
      </trkpt>
      <trkpt lat="47.37517" lon="-0.65031">
        <ele>27.4</ele>
        <time>2021-07-04T07:17:25Z</time>
      </trkpt>
      <trkpt lat="47.37507" lon="-0.65022">
        <ele>28.6</ele>
        <time>2021-07-04T07:17:27Z</time>
      </trkpt>
      <trkpt lat="47.37497" lon="-0.65014">
        <ele>28.8</ele>
        <time>2021-07-04T07:17:29Z</time>
      </trkpt>
      <trkpt lat="47.37487" lon="-0.65006">
        <ele>28.6</ele>
        <time>2021-07-04T07:17:31Z</time>
      </trkpt>
      <trkpt lat="47.37478" lon="-0.64999">
        <ele>28.4</ele>
        <time>2021-07-04T07:17:33Z</time>
      </trkpt>
      <trkpt lat="47.37468" lon="-0.64992">
        <ele>28.4</ele>
        <time>2021-07-04T07:17:35Z</time>
      </trkpt>
      <trkpt lat="47.37464" lon="-0.64988">
        <ele>28.4</ele>
        <time>2021-07-04T07:17:36Z</time>
      </trkpt>
      <trkpt lat="47.37459" lon="-0.64984">
        <ele>28.4</ele>
        <time>2021-07-04T07:17:37Z</time>
      </trkpt>
      <trkpt lat="47.37449" lon="-0.64977">
        <ele>28.6</ele>
        <time>2021-07-04T07:17:39Z</time>
      </trkpt>
      <trkpt lat="47.3744" lon="-0.64971">
        <ele>29</ele>
        <time>2021-07-04T07:17:41Z</time>
      </trkpt>
      <trkpt lat="47.37435" lon="-0.64967">
        <ele>29.2</ele>
        <time>2021-07-04T07:17:42Z</time>
      </trkpt>
      <trkpt lat="47.3743" lon="-0.64963">
        <ele>29.4</ele>
        <time>2021-07-04T07:17:43Z</time>
      </trkpt>
      <trkpt lat="47.3742" lon="-0.64955">
        <ele>29.4</ele>
        <time>2021-07-04T07:17:45Z</time>
      </trkpt>
      <trkpt lat="47.3741" lon="-0.64947">
        <ele>29.4</ele>
        <time>2021-07-04T07:17:47Z</time>
      </trkpt>
      <trkpt lat="47.374" lon="-0.64938">
        <ele>29.2</ele>
        <time>2021-07-04T07:17:49Z</time>
      </trkpt>
      <trkpt lat="47.3739" lon="-0.64929">
        <ele>29.2</ele>
        <time>2021-07-04T07:17:51Z</time>
      </trkpt>
      <trkpt lat="47.3738" lon="-0.64921">
        <ele>29.4</ele>
        <time>2021-07-04T07:17:53Z</time>
      </trkpt>
      <trkpt lat="47.37375" lon="-0.64917">
        <ele>29.6</ele>
        <time>2021-07-04T07:17:54Z</time>
      </trkpt>
      <trkpt lat="47.3737" lon="-0.64913">
        <ele>29.6</ele>
        <time>2021-07-04T07:17:55Z</time>
      </trkpt>
      <trkpt lat="47.37359" lon="-0.64904">
        <ele>29.4</ele>
        <time>2021-07-04T07:17:57Z</time>
      </trkpt>
      <trkpt lat="47.37349" lon="-0.64896">
        <ele>29.4</ele>
        <time>2021-07-04T07:17:59Z</time>
      </trkpt>
      <trkpt lat="47.37339" lon="-0.64888">
        <ele>29.6</ele>
        <time>2021-07-04T07:18:01Z</time>
      </trkpt>
      <trkpt lat="47.37329" lon="-0.64878">
        <ele>29.4</ele>
        <time>2021-07-04T07:18:03Z</time>
      </trkpt>
      <trkpt lat="47.37317" lon="-0.6487">
        <ele>29.4</ele>
        <time>2021-07-04T07:18:05Z</time>
      </trkpt>
      <trkpt lat="47.37306" lon="-0.64861">
        <ele>30</ele>
        <time>2021-07-04T07:18:07Z</time>
      </trkpt>
      <trkpt lat="47.37295" lon="-0.64852">
        <ele>30.2</ele>
        <time>2021-07-04T07:18:09Z</time>
      </trkpt>
      <trkpt lat="47.37283" lon="-0.64843">
        <ele>29.4</ele>
        <time>2021-07-04T07:18:11Z</time>
      </trkpt>
      <trkpt lat="47.37272" lon="-0.64833">
        <ele>28.6</ele>
        <time>2021-07-04T07:18:13Z</time>
      </trkpt>
      <trkpt lat="47.37266" lon="-0.64828">
        <ele>28.4</ele>
        <time>2021-07-04T07:18:14Z</time>
      </trkpt>
      <trkpt lat="47.37261" lon="-0.64823">
        <ele>28.4</ele>
        <time>2021-07-04T07:18:15Z</time>
      </trkpt>
      <trkpt lat="47.37249" lon="-0.64815">
        <ele>28.4</ele>
        <time>2021-07-04T07:18:17Z</time>
      </trkpt>
      <trkpt lat="47.37243" lon="-0.64811">
        <ele>28.2</ele>
        <time>2021-07-04T07:18:18Z</time>
      </trkpt>
      <trkpt lat="47.37237" lon="-0.64809">
        <ele>28</ele>
        <time>2021-07-04T07:18:19Z</time>
      </trkpt>
      <trkpt lat="47.3723" lon="-0.64807">
        <ele>28</ele>
        <time>2021-07-04T07:18:20Z</time>
      </trkpt>
      <trkpt lat="47.37224" lon="-0.64806">
        <ele>28</ele>
        <time>2021-07-04T07:18:21Z</time>
      </trkpt>
      <trkpt lat="47.37211" lon="-0.64801">
        <ele>27.6</ele>
        <time>2021-07-04T07:18:23Z</time>
      </trkpt>
      <trkpt lat="47.37204" lon="-0.64786">
        <ele>27.4</ele>
        <time>2021-07-04T07:18:25Z</time>
      </trkpt>
      <trkpt lat="47.37205" lon="-0.64765">
        <ele>27.2</ele>
        <time>2021-07-04T07:18:27Z</time>
      </trkpt>
      <trkpt lat="47.37205" lon="-0.64753">
        <ele>26.4</ele>
        <time>2021-07-04T07:18:28Z</time>
      </trkpt>
      <trkpt lat="47.37207" lon="-0.64742">
        <ele>25.2</ele>
        <time>2021-07-04T07:18:29Z</time>
      </trkpt>
      <trkpt lat="47.37213" lon="-0.64723">
        <ele>24.2</ele>
        <time>2021-07-04T07:18:31Z</time>
      </trkpt>
      <trkpt lat="47.37217" lon="-0.64714">
        <ele>24.2</ele>
        <time>2021-07-04T07:18:32Z</time>
      </trkpt>
      <trkpt lat="47.37221" lon="-0.64705">
        <ele>24.6</ele>
        <time>2021-07-04T07:18:33Z</time>
      </trkpt>
      <trkpt lat="47.37228" lon="-0.64688">
        <ele>24.6</ele>
        <time>2021-07-04T07:18:35Z</time>
      </trkpt>
      <trkpt lat="47.37234" lon="-0.6467">
        <ele>24.8</ele>
        <time>2021-07-04T07:18:37Z</time>
      </trkpt>
      <trkpt lat="47.3724" lon="-0.64653">
        <ele>24.8</ele>
        <time>2021-07-04T07:18:39Z</time>
      </trkpt>
      <trkpt lat="47.37247" lon="-0.64635">
        <ele>24.6</ele>
        <time>2021-07-04T07:18:41Z</time>
      </trkpt>
      <trkpt lat="47.37253" lon="-0.64618">
        <ele>25.2</ele>
        <time>2021-07-04T07:18:43Z</time>
      </trkpt>
      <trkpt lat="47.37259" lon="-0.646">
        <ele>25.6</ele>
        <time>2021-07-04T07:18:45Z</time>
      </trkpt>
      <trkpt lat="47.37265" lon="-0.64582">
        <ele>25.4</ele>
        <time>2021-07-04T07:18:47Z</time>
      </trkpt>
      <trkpt lat="47.37271" lon="-0.64565">
        <ele>25.2</ele>
        <time>2021-07-04T07:18:49Z</time>
      </trkpt>
      <trkpt lat="47.37276" lon="-0.64548">
        <ele>24.4</ele>
        <time>2021-07-04T07:18:51Z</time>
      </trkpt>
      <trkpt lat="47.37278" lon="-0.6454">
        <ele>24</ele>
        <time>2021-07-04T07:18:52Z</time>
      </trkpt>
      <trkpt lat="47.37281" lon="-0.64532">
        <ele>24</ele>
        <time>2021-07-04T07:18:53Z</time>
      </trkpt>
      <trkpt lat="47.37283" lon="-0.64525">
        <ele>24.4</ele>
        <time>2021-07-04T07:18:54Z</time>
      </trkpt>
      <trkpt lat="47.37286" lon="-0.64518">
        <ele>24.8</ele>
        <time>2021-07-04T07:18:55Z</time>
      </trkpt>
      <trkpt lat="47.37287" lon="-0.6451">
        <ele>25</ele>
        <time>2021-07-04T07:18:56Z</time>
      </trkpt>
      <trkpt lat="47.37286" lon="-0.64503">
        <ele>25.4</ele>
        <time>2021-07-04T07:18:57Z</time>
      </trkpt>
      <trkpt lat="47.37277" lon="-0.64494">
        <ele>25.4</ele>
        <time>2021-07-04T07:18:59Z</time>
      </trkpt>
      <trkpt lat="47.37272" lon="-0.64491">
        <ele>24</ele>
        <time>2021-07-04T07:19:00Z</time>
      </trkpt>
      <trkpt lat="47.37266" lon="-0.64489">
        <ele>23.6</ele>
        <time>2021-07-04T07:19:01Z</time>
      </trkpt>
      <trkpt lat="47.37256" lon="-0.64483">
        <ele>23.4</ele>
        <time>2021-07-04T07:19:03Z</time>
      </trkpt>
      <trkpt lat="47.37243" lon="-0.64477">
        <ele>23.4</ele>
        <time>2021-07-04T07:19:05Z</time>
      </trkpt>
      <trkpt lat="47.37237" lon="-0.64474">
        <ele>23.4</ele>
        <time>2021-07-04T07:19:06Z</time>
      </trkpt>
      <trkpt lat="47.37231" lon="-0.64471">
        <ele>23.4</ele>
        <time>2021-07-04T07:19:07Z</time>
      </trkpt>
      <trkpt lat="47.37219" lon="-0.64466">
        <ele>23.4</ele>
        <time>2021-07-04T07:19:09Z</time>
      </trkpt>
      <trkpt lat="47.37207" lon="-0.6446">
        <ele>23.8</ele>
        <time>2021-07-04T07:19:11Z</time>
      </trkpt>
      <trkpt lat="47.37196" lon="-0.64454">
        <ele>23.4</ele>
        <time>2021-07-04T07:19:13Z</time>
      </trkpt>
      <trkpt lat="47.3719" lon="-0.64451">
        <ele>23</ele>
        <time>2021-07-04T07:19:14Z</time>
      </trkpt>
      <trkpt lat="47.37184" lon="-0.64447">
        <ele>22.6</ele>
        <time>2021-07-04T07:19:15Z</time>
      </trkpt>
      <trkpt lat="47.37172" lon="-0.64441">
        <ele>22.8</ele>
        <time>2021-07-04T07:19:17Z</time>
      </trkpt>
      <trkpt lat="47.3716" lon="-0.64435">
        <ele>23.2</ele>
        <time>2021-07-04T07:19:19Z</time>
      </trkpt>
      <trkpt lat="47.37154" lon="-0.64431">
        <ele>23.2</ele>
        <time>2021-07-04T07:19:20Z</time>
      </trkpt>
      <trkpt lat="47.37148" lon="-0.64428">
        <ele>23.6</ele>
        <time>2021-07-04T07:19:21Z</time>
      </trkpt>
      <trkpt lat="47.37136" lon="-0.64423">
        <ele>23.6</ele>
        <time>2021-07-04T07:19:23Z</time>
      </trkpt>
      <trkpt lat="47.37123" lon="-0.64418">
        <ele>23.2</ele>
        <time>2021-07-04T07:19:25Z</time>
      </trkpt>
      <trkpt lat="47.37117" lon="-0.64415">
        <ele>23.2</ele>
        <time>2021-07-04T07:19:26Z</time>
      </trkpt>
      <trkpt lat="47.37111" lon="-0.64412">
        <ele>23</ele>
        <time>2021-07-04T07:19:27Z</time>
      </trkpt>
      <trkpt lat="47.37099" lon="-0.64406">
        <ele>23</ele>
        <time>2021-07-04T07:19:29Z</time>
      </trkpt>
      <trkpt lat="47.37087" lon="-0.64398">
        <ele>23.4</ele>
        <time>2021-07-04T07:19:31Z</time>
      </trkpt>
      <trkpt lat="47.37081" lon="-0.64395">
        <ele>23.4</ele>
        <time>2021-07-04T07:19:32Z</time>
      </trkpt>
      <trkpt lat="47.37076" lon="-0.64391">
        <ele>23.2</ele>
        <time>2021-07-04T07:19:33Z</time>
      </trkpt>
      <trkpt lat="47.37071" lon="-0.64385">
        <ele>23</ele>
        <time>2021-07-04T07:19:34Z</time>
      </trkpt>
      <trkpt lat="47.37066" lon="-0.64379">
        <ele>23</ele>
        <time>2021-07-04T07:19:35Z</time>
      </trkpt>
      <trkpt lat="47.37062" lon="-0.64373">
        <ele>22.8</ele>
        <time>2021-07-04T07:19:36Z</time>
      </trkpt>
      <trkpt lat="47.37058" lon="-0.64367">
        <ele>22.8</ele>
        <time>2021-07-04T07:19:37Z</time>
      </trkpt>
      <trkpt lat="47.37051" lon="-0.64353">
        <ele>23.2</ele>
        <time>2021-07-04T07:19:39Z</time>
      </trkpt>
      <trkpt lat="47.37048" lon="-0.64345">
        <ele>23</ele>
        <time>2021-07-04T07:19:40Z</time>
      </trkpt>
      <trkpt lat="47.37045" lon="-0.64337">
        <ele>23.2</ele>
        <time>2021-07-04T07:19:41Z</time>
      </trkpt>
      <trkpt lat="47.37039" lon="-0.64322">
        <ele>23.4</ele>
        <time>2021-07-04T07:19:43Z</time>
      </trkpt>
      <trkpt lat="47.37034" lon="-0.64306">
        <ele>23</ele>
        <time>2021-07-04T07:19:45Z</time>
      </trkpt>
      <trkpt lat="47.37028" lon="-0.6429">
        <ele>23</ele>
        <time>2021-07-04T07:19:47Z</time>
      </trkpt>
      <trkpt lat="47.37022" lon="-0.64275">
        <ele>23.8</ele>
        <time>2021-07-04T07:19:49Z</time>
      </trkpt>
      <trkpt lat="47.37016" lon="-0.6426">
        <ele>23.8</ele>
        <time>2021-07-04T07:19:51Z</time>
      </trkpt>
      <trkpt lat="47.37012" lon="-0.64254">
        <ele>24</ele>
        <time>2021-07-04T07:19:52Z</time>
      </trkpt>
      <trkpt lat="47.37007" lon="-0.64248">
        <ele>24</ele>
        <time>2021-07-04T07:19:53Z</time>
      </trkpt>
      <trkpt lat="47.37001" lon="-0.64245">
        <ele>24</ele>
        <time>2021-07-04T07:19:54Z</time>
      </trkpt>
      <trkpt lat="47.36996" lon="-0.64244">
        <ele>23.6</ele>
        <time>2021-07-04T07:19:55Z</time>
      </trkpt>
      <trkpt lat="47.36984" lon="-0.64245">
        <ele>23.4</ele>
        <time>2021-07-04T07:19:57Z</time>
      </trkpt>
      <trkpt lat="47.36978" lon="-0.64246">
        <ele>23.4</ele>
        <time>2021-07-04T07:19:58Z</time>
      </trkpt>
      <trkpt lat="47.36972" lon="-0.64249">
        <ele>23.6</ele>
        <time>2021-07-04T07:19:59Z</time>
      </trkpt>
      <trkpt lat="47.3696" lon="-0.64253">
        <ele>23.6</ele>
        <time>2021-07-04T07:20:01Z</time>
      </trkpt>
      <trkpt lat="47.36954" lon="-0.64254">
        <ele>23.4</ele>
        <time>2021-07-04T07:20:02Z</time>
      </trkpt>
      <trkpt lat="47.36948" lon="-0.64256">
        <ele>23.4</ele>
        <time>2021-07-04T07:20:03Z</time>
      </trkpt>
      <trkpt lat="47.36936" lon="-0.64259">
        <ele>23.6</ele>
        <time>2021-07-04T07:20:05Z</time>
      </trkpt>
      <trkpt lat="47.36923" lon="-0.64264">
        <ele>23.8</ele>
        <time>2021-07-04T07:20:07Z</time>
      </trkpt>
      <trkpt lat="47.36911" lon="-0.64267">
        <ele>24</ele>
        <time>2021-07-04T07:20:09Z</time>
      </trkpt>
      <trkpt lat="47.36899" lon="-0.64271">
        <ele>24.2</ele>
        <time>2021-07-04T07:20:11Z</time>
      </trkpt>
      <trkpt lat="47.36886" lon="-0.64275">
        <ele>23.4</ele>
        <time>2021-07-04T07:20:13Z</time>
      </trkpt>
      <trkpt lat="47.36873" lon="-0.64278">
        <ele>23.6</ele>
        <time>2021-07-04T07:20:15Z</time>
      </trkpt>
      <trkpt lat="47.3686" lon="-0.64282">
        <ele>23.2</ele>
        <time>2021-07-04T07:20:17Z</time>
      </trkpt>
      <trkpt lat="47.36854" lon="-0.64284">
        <ele>22.8</ele>
        <time>2021-07-04T07:20:18Z</time>
      </trkpt>
      <trkpt lat="47.36847" lon="-0.64286">
        <ele>23</ele>
        <time>2021-07-04T07:20:19Z</time>
      </trkpt>
      <trkpt lat="47.36836" lon="-0.64291">
        <ele>23.4</ele>
        <time>2021-07-04T07:20:21Z</time>
      </trkpt>
      <trkpt lat="47.36826" lon="-0.64296">
        <ele>23.6</ele>
        <time>2021-07-04T07:20:23Z</time>
      </trkpt>
      <trkpt lat="47.36815" lon="-0.643">
        <ele>23.8</ele>
        <time>2021-07-04T07:20:25Z</time>
      </trkpt>
      <trkpt lat="47.36803" lon="-0.64302">
        <ele>23.6</ele>
        <time>2021-07-04T07:20:27Z</time>
      </trkpt>
      <trkpt lat="47.36791" lon="-0.64304">
        <ele>22.8</ele>
        <time>2021-07-04T07:20:29Z</time>
      </trkpt>
      <trkpt lat="47.36779" lon="-0.64308">
        <ele>22.6</ele>
        <time>2021-07-04T07:20:31Z</time>
      </trkpt>
      <trkpt lat="47.36766" lon="-0.64312">
        <ele>23.2</ele>
        <time>2021-07-04T07:20:33Z</time>
      </trkpt>
      <trkpt lat="47.36753" lon="-0.64316">
        <ele>23.8</ele>
        <time>2021-07-04T07:20:35Z</time>
      </trkpt>
      <trkpt lat="47.36747" lon="-0.64318">
        <ele>24</ele>
        <time>2021-07-04T07:20:36Z</time>
      </trkpt>
      <trkpt lat="47.36741" lon="-0.6432">
        <ele>24.2</ele>
        <time>2021-07-04T07:20:37Z</time>
      </trkpt>
      <trkpt lat="47.36728" lon="-0.64325">
        <ele>24</ele>
        <time>2021-07-04T07:20:39Z</time>
      </trkpt>
      <trkpt lat="47.36716" lon="-0.6433">
        <ele>24.2</ele>
        <time>2021-07-04T07:20:41Z</time>
      </trkpt>
      <trkpt lat="47.36704" lon="-0.64333">
        <ele>24.4</ele>
        <time>2021-07-04T07:20:43Z</time>
      </trkpt>
      <trkpt lat="47.36698" lon="-0.64336">
        <ele>24.4</ele>
        <time>2021-07-04T07:20:44Z</time>
      </trkpt>
      <trkpt lat="47.36692" lon="-0.64338">
        <ele>24.2</ele>
        <time>2021-07-04T07:20:45Z</time>
      </trkpt>
      <trkpt lat="47.36679" lon="-0.64343">
        <ele>24.2</ele>
        <time>2021-07-04T07:20:47Z</time>
      </trkpt>
      <trkpt lat="47.36668" lon="-0.64347">
        <ele>24</ele>
        <time>2021-07-04T07:20:49Z</time>
      </trkpt>
      <trkpt lat="47.36662" lon="-0.6435">
        <ele>23.8</ele>
        <time>2021-07-04T07:20:50Z</time>
      </trkpt>
      <trkpt lat="47.36656" lon="-0.64354">
        <ele>23.8</ele>
        <time>2021-07-04T07:20:51Z</time>
      </trkpt>
      <trkpt lat="47.36645" lon="-0.64362">
        <ele>24</ele>
        <time>2021-07-04T07:20:53Z</time>
      </trkpt>
      <trkpt lat="47.36635" lon="-0.64374">
        <ele>24.2</ele>
        <time>2021-07-04T07:20:55Z</time>
      </trkpt>
      <trkpt lat="47.36626" lon="-0.64388">
        <ele>24.2</ele>
        <time>2021-07-04T07:20:57Z</time>
      </trkpt>
      <trkpt lat="47.36617" lon="-0.64401">
        <ele>24.4</ele>
        <time>2021-07-04T07:20:59Z</time>
      </trkpt>
      <trkpt lat="47.36607" lon="-0.64414">
        <ele>24.4</ele>
        <time>2021-07-04T07:21:01Z</time>
      </trkpt>
      <trkpt lat="47.36602" lon="-0.64421">
        <ele>23.8</ele>
        <time>2021-07-04T07:21:02Z</time>
      </trkpt>
      <trkpt lat="47.36597" lon="-0.64428">
        <ele>23.8</ele>
        <time>2021-07-04T07:21:03Z</time>
      </trkpt>
      <trkpt lat="47.36588" lon="-0.64442">
        <ele>23.6</ele>
        <time>2021-07-04T07:21:05Z</time>
      </trkpt>
      <trkpt lat="47.36579" lon="-0.64456">
        <ele>23.2</ele>
        <time>2021-07-04T07:21:07Z</time>
      </trkpt>
      <trkpt lat="47.3657" lon="-0.64469">
        <ele>23.6</ele>
        <time>2021-07-04T07:21:09Z</time>
      </trkpt>
      <trkpt lat="47.36561" lon="-0.64483">
        <ele>23.6</ele>
        <time>2021-07-04T07:21:11Z</time>
      </trkpt>
      <trkpt lat="47.36552" lon="-0.64497">
        <ele>23.8</ele>
        <time>2021-07-04T07:21:13Z</time>
      </trkpt>
      <trkpt lat="47.36542" lon="-0.64511">
        <ele>23.8</ele>
        <time>2021-07-04T07:21:15Z</time>
      </trkpt>
      <trkpt lat="47.36533" lon="-0.64524">
        <ele>23.6</ele>
        <time>2021-07-04T07:21:17Z</time>
      </trkpt>
      <trkpt lat="47.36524" lon="-0.64537">
        <ele>24</ele>
        <time>2021-07-04T07:21:19Z</time>
      </trkpt>
      <trkpt lat="47.36515" lon="-0.6455">
        <ele>23.8</ele>
        <time>2021-07-04T07:21:21Z</time>
      </trkpt>
      <trkpt lat="47.36505" lon="-0.64562">
        <ele>24.2</ele>
        <time>2021-07-04T07:21:23Z</time>
      </trkpt>
      <trkpt lat="47.36497" lon="-0.64575">
        <ele>24.6</ele>
        <time>2021-07-04T07:21:25Z</time>
      </trkpt>
      <trkpt lat="47.36492" lon="-0.64582">
        <ele>24.4</ele>
        <time>2021-07-04T07:21:26Z</time>
      </trkpt>
      <trkpt lat="47.36487" lon="-0.64588">
        <ele>24.4</ele>
        <time>2021-07-04T07:21:27Z</time>
      </trkpt>
      <trkpt lat="47.36477" lon="-0.64601">
        <ele>23.8</ele>
        <time>2021-07-04T07:21:29Z</time>
      </trkpt>
      <trkpt lat="47.36473" lon="-0.64608">
        <ele>23.4</ele>
        <time>2021-07-04T07:21:30Z</time>
      </trkpt>
      <trkpt lat="47.36468" lon="-0.64614">
        <ele>23.6</ele>
        <time>2021-07-04T07:21:31Z</time>
      </trkpt>
      <trkpt lat="47.36459" lon="-0.64626">
        <ele>23.8</ele>
        <time>2021-07-04T07:21:33Z</time>
      </trkpt>
      <trkpt lat="47.3645" lon="-0.64639">
        <ele>23.6</ele>
        <time>2021-07-04T07:21:35Z</time>
      </trkpt>
      <trkpt lat="47.36441" lon="-0.64652">
        <ele>23.2</ele>
        <time>2021-07-04T07:21:37Z</time>
      </trkpt>
      <trkpt lat="47.36432" lon="-0.64664">
        <ele>23.4</ele>
        <time>2021-07-04T07:21:39Z</time>
      </trkpt>
      <trkpt lat="47.36424" lon="-0.64677">
        <ele>24</ele>
        <time>2021-07-04T07:21:41Z</time>
      </trkpt>
      <trkpt lat="47.36415" lon="-0.64689">
        <ele>23.4</ele>
        <time>2021-07-04T07:21:43Z</time>
      </trkpt>
      <trkpt lat="47.36407" lon="-0.647">
        <ele>23.2</ele>
        <time>2021-07-04T07:21:45Z</time>
      </trkpt>
      <trkpt lat="47.36398" lon="-0.64713">
        <ele>24</ele>
        <time>2021-07-04T07:21:47Z</time>
      </trkpt>
      <trkpt lat="47.36394" lon="-0.64719">
        <ele>23.8</ele>
        <time>2021-07-04T07:21:48Z</time>
      </trkpt>
      <trkpt lat="47.3639" lon="-0.64725">
        <ele>23.6</ele>
        <time>2021-07-04T07:21:49Z</time>
      </trkpt>
      <trkpt lat="47.36382" lon="-0.64736">
        <ele>24</ele>
        <time>2021-07-04T07:21:51Z</time>
      </trkpt>
      <trkpt lat="47.36373" lon="-0.64748">
        <ele>24.2</ele>
        <time>2021-07-04T07:21:53Z</time>
      </trkpt>
      <trkpt lat="47.36365" lon="-0.6476">
        <ele>23.6</ele>
        <time>2021-07-04T07:21:55Z</time>
      </trkpt>
      <trkpt lat="47.36356" lon="-0.64773">
        <ele>24</ele>
        <time>2021-07-04T07:21:57Z</time>
      </trkpt>
      <trkpt lat="47.36347" lon="-0.64785">
        <ele>24.4</ele>
        <time>2021-07-04T07:21:59Z</time>
      </trkpt>
      <trkpt lat="47.36339" lon="-0.64797">
        <ele>24.2</ele>
        <time>2021-07-04T07:22:01Z</time>
      </trkpt>
      <trkpt lat="47.3633" lon="-0.6481">
        <ele>24</ele>
        <time>2021-07-04T07:22:03Z</time>
      </trkpt>
      <trkpt lat="47.36321" lon="-0.64822">
        <ele>23.8</ele>
        <time>2021-07-04T07:22:05Z</time>
      </trkpt>
      <trkpt lat="47.36312" lon="-0.64835">
        <ele>24.2</ele>
        <time>2021-07-04T07:22:07Z</time>
      </trkpt>
      <trkpt lat="47.36308" lon="-0.64841">
        <ele>24</ele>
        <time>2021-07-04T07:22:08Z</time>
      </trkpt>
      <trkpt lat="47.36304" lon="-0.64847">
        <ele>24.2</ele>
        <time>2021-07-04T07:22:09Z</time>
      </trkpt>
      <trkpt lat="47.36295" lon="-0.64859">
        <ele>24.8</ele>
        <time>2021-07-04T07:22:11Z</time>
      </trkpt>
      <trkpt lat="47.36286" lon="-0.64872">
        <ele>24.4</ele>
        <time>2021-07-04T07:22:13Z</time>
      </trkpt>
      <trkpt lat="47.36277" lon="-0.64884">
        <ele>24.6</ele>
        <time>2021-07-04T07:22:15Z</time>
      </trkpt>
      <trkpt lat="47.36268" lon="-0.64898">
        <ele>24.8</ele>
        <time>2021-07-04T07:22:17Z</time>
      </trkpt>
      <trkpt lat="47.36264" lon="-0.64904">
        <ele>24.6</ele>
        <time>2021-07-04T07:22:18Z</time>
      </trkpt>
      <trkpt lat="47.36259" lon="-0.64911">
        <ele>24.6</ele>
        <time>2021-07-04T07:22:19Z</time>
      </trkpt>
      <trkpt lat="47.3625" lon="-0.64925">
        <ele>24.6</ele>
        <time>2021-07-04T07:22:21Z</time>
      </trkpt>
      <trkpt lat="47.36242" lon="-0.64939">
        <ele>25.2</ele>
        <time>2021-07-04T07:22:23Z</time>
      </trkpt>
      <trkpt lat="47.36234" lon="-0.64953">
        <ele>25.2</ele>
        <time>2021-07-04T07:22:25Z</time>
      </trkpt>
      <trkpt lat="47.3623" lon="-0.6496">
        <ele>25.2</ele>
        <time>2021-07-04T07:22:26Z</time>
      </trkpt>
      <trkpt lat="47.36226" lon="-0.64968">
        <ele>25.2</ele>
        <time>2021-07-04T07:22:27Z</time>
      </trkpt>
      <trkpt lat="47.36219" lon="-0.64982">
        <ele>25.2</ele>
        <time>2021-07-04T07:22:29Z</time>
      </trkpt>
      <trkpt lat="47.36212" lon="-0.64996">
        <ele>24.8</ele>
        <time>2021-07-04T07:22:31Z</time>
      </trkpt>
      <trkpt lat="47.36204" lon="-0.6501">
        <ele>25</ele>
        <time>2021-07-04T07:22:33Z</time>
      </trkpt>
      <trkpt lat="47.362" lon="-0.65017">
        <ele>25</ele>
        <time>2021-07-04T07:22:34Z</time>
      </trkpt>
      <trkpt lat="47.36196" lon="-0.65024">
        <ele>24.8</ele>
        <time>2021-07-04T07:22:35Z</time>
      </trkpt>
      <trkpt lat="47.36188" lon="-0.65037">
        <ele>24.6</ele>
        <time>2021-07-04T07:22:37Z</time>
      </trkpt>
      <trkpt lat="47.3618" lon="-0.65051">
        <ele>24</ele>
        <time>2021-07-04T07:22:39Z</time>
      </trkpt>
      <trkpt lat="47.36171" lon="-0.65063">
        <ele>24.6</ele>
        <time>2021-07-04T07:22:41Z</time>
      </trkpt>
      <trkpt lat="47.36167" lon="-0.65069">
        <ele>25</ele>
        <time>2021-07-04T07:22:42Z</time>
      </trkpt>
      <trkpt lat="47.36162" lon="-0.65075">
        <ele>25.2</ele>
        <time>2021-07-04T07:22:43Z</time>
      </trkpt>
      <trkpt lat="47.36153" lon="-0.65087">
        <ele>24.8</ele>
        <time>2021-07-04T07:22:45Z</time>
      </trkpt>
      <trkpt lat="47.36143" lon="-0.65098">
        <ele>25.2</ele>
        <time>2021-07-04T07:22:47Z</time>
      </trkpt>
      <trkpt lat="47.36134" lon="-0.65109">
        <ele>25.2</ele>
        <time>2021-07-04T07:22:49Z</time>
      </trkpt>
      <trkpt lat="47.36129" lon="-0.65115">
        <ele>25</ele>
        <time>2021-07-04T07:22:50Z</time>
      </trkpt>
      <trkpt lat="47.36125" lon="-0.65121">
        <ele>25</ele>
        <time>2021-07-04T07:22:51Z</time>
      </trkpt>
      <trkpt lat="47.36121" lon="-0.65128">
        <ele>24.8</ele>
        <time>2021-07-04T07:22:52Z</time>
      </trkpt>
      <trkpt lat="47.36117" lon="-0.65135">
        <ele>25</ele>
        <time>2021-07-04T07:22:53Z</time>
      </trkpt>
      <trkpt lat="47.36111" lon="-0.65152">
        <ele>25.2</ele>
        <time>2021-07-04T07:22:55Z</time>
      </trkpt>
      <trkpt lat="47.36106" lon="-0.65169">
        <ele>25</ele>
        <time>2021-07-04T07:22:57Z</time>
      </trkpt>
      <trkpt lat="47.36101" lon="-0.65187">
        <ele>25.2</ele>
        <time>2021-07-04T07:22:59Z</time>
      </trkpt>
      <trkpt lat="47.36097" lon="-0.65205">
        <ele>25.2</ele>
        <time>2021-07-04T07:23:01Z</time>
      </trkpt>
      <trkpt lat="47.36093" lon="-0.65223">
        <ele>25</ele>
        <time>2021-07-04T07:23:03Z</time>
      </trkpt>
      <trkpt lat="47.36089" lon="-0.65242">
        <ele>25</ele>
        <time>2021-07-04T07:23:05Z</time>
      </trkpt>
      <trkpt lat="47.36085" lon="-0.6526">
        <ele>25</ele>
        <time>2021-07-04T07:23:07Z</time>
      </trkpt>
      <trkpt lat="47.36082" lon="-0.65279">
        <ele>24.6</ele>
        <time>2021-07-04T07:23:09Z</time>
      </trkpt>
      <trkpt lat="47.36077" lon="-0.65297">
        <ele>24.6</ele>
        <time>2021-07-04T07:23:11Z</time>
      </trkpt>
      <trkpt lat="47.36073" lon="-0.65316">
        <ele>25.2</ele>
        <time>2021-07-04T07:23:13Z</time>
      </trkpt>
      <trkpt lat="47.36069" lon="-0.65334">
        <ele>24.8</ele>
        <time>2021-07-04T07:23:15Z</time>
      </trkpt>
      <trkpt lat="47.36065" lon="-0.65352">
        <ele>24.8</ele>
        <time>2021-07-04T07:23:17Z</time>
      </trkpt>
      <trkpt lat="47.36063" lon="-0.65361">
        <ele>24.8</ele>
        <time>2021-07-04T07:23:18Z</time>
      </trkpt>
      <trkpt lat="47.36062" lon="-0.6537">
        <ele>24.8</ele>
        <time>2021-07-04T07:23:19Z</time>
      </trkpt>
      <trkpt lat="47.36059" lon="-0.65388">
        <ele>24.4</ele>
        <time>2021-07-04T07:23:21Z</time>
      </trkpt>
      <trkpt lat="47.36056" lon="-0.65406">
        <ele>24.2</ele>
        <time>2021-07-04T07:23:23Z</time>
      </trkpt>
      <trkpt lat="47.36054" lon="-0.65422">
        <ele>25</ele>
        <time>2021-07-04T07:23:25Z</time>
      </trkpt>
      <trkpt lat="47.36053" lon="-0.65437">
        <ele>26</ele>
        <time>2021-07-04T07:23:27Z</time>
      </trkpt>
      <trkpt lat="47.36052" lon="-0.65453">
        <ele>26.2</ele>
        <time>2021-07-04T07:23:29Z</time>
      </trkpt>
      <trkpt lat="47.36051" lon="-0.65468">
        <ele>26.2</ele>
        <time>2021-07-04T07:23:31Z</time>
      </trkpt>
      <trkpt lat="47.36049" lon="-0.65481">
        <ele>26.4</ele>
        <time>2021-07-04T07:23:33Z</time>
      </trkpt>
      <trkpt lat="47.36043" lon="-0.6549">
        <ele>26.4</ele>
        <time>2021-07-04T07:23:35Z</time>
      </trkpt>
      <trkpt lat="47.36041" lon="-0.65493">
        <ele>26.8</ele>
        <time>2021-07-04T07:23:36Z</time>
      </trkpt>
      <trkpt lat="47.36038" lon="-0.65497">
        <ele>27.6</ele>
        <time>2021-07-04T07:23:37Z</time>
      </trkpt>
      <trkpt lat="47.36033" lon="-0.65506">
        <ele>28</ele>
        <time>2021-07-04T07:23:39Z</time>
      </trkpt>
      <trkpt lat="47.36029" lon="-0.65511">
        <ele>27.8</ele>
        <time>2021-07-04T07:23:40Z</time>
      </trkpt>
      <trkpt lat="47.36025" lon="-0.65515">
        <ele>27.6</ele>
        <time>2021-07-04T07:23:41Z</time>
      </trkpt>
      <trkpt lat="47.36016" lon="-0.65517">
        <ele>27.6</ele>
        <time>2021-07-04T07:23:43Z</time>
      </trkpt>
      <trkpt lat="47.36012" lon="-0.65518">
        <ele>27.4</ele>
        <time>2021-07-04T07:23:44Z</time>
      </trkpt>
      <trkpt lat="47.36008" lon="-0.65518">
        <ele>27.2</ele>
        <time>2021-07-04T07:23:45Z</time>
      </trkpt>
      <trkpt lat="47.35999" lon="-0.65517">
        <ele>27.4</ele>
        <time>2021-07-04T07:23:47Z</time>
      </trkpt>
      <trkpt lat="47.35995" lon="-0.65518">
        <ele>26.4</ele>
        <time>2021-07-04T07:23:48Z</time>
      </trkpt>
      <trkpt lat="47.35991" lon="-0.65518">
        <ele>26.4</ele>
        <time>2021-07-04T07:23:49Z</time>
      </trkpt>
      <trkpt lat="47.35982" lon="-0.6552">
        <ele>26.6</ele>
        <time>2021-07-04T07:23:51Z</time>
      </trkpt>
      <trkpt lat="47.35978" lon="-0.65522">
        <ele>27</ele>
        <time>2021-07-04T07:23:52Z</time>
      </trkpt>
      <trkpt lat="47.35974" lon="-0.65524">
        <ele>27.4</ele>
        <time>2021-07-04T07:23:53Z</time>
      </trkpt>
      <trkpt lat="47.35972" lon="-0.65526">
        <ele>27.8</ele>
        <time>2021-07-04T07:23:54Z</time>
      </trkpt>
      <trkpt lat="47.35969" lon="-0.65527">
        <ele>28.2</ele>
        <time>2021-07-04T07:23:55Z</time>
      </trkpt>
      <trkpt lat="47.35966" lon="-0.65527">
        <ele>28.6</ele>
        <time>2021-07-04T07:23:56Z</time>
      </trkpt>
      <trkpt lat="47.35962" lon="-0.65527">
        <ele>29</ele>
        <time>2021-07-04T07:23:57Z</time>
      </trkpt>
      <trkpt lat="47.35959" lon="-0.65527">
        <ele>29</ele>
        <time>2021-07-04T07:23:58Z</time>
      </trkpt>
      <trkpt lat="47.35955" lon="-0.65528">
        <ele>29</ele>
        <time>2021-07-04T07:23:59Z</time>
      </trkpt>
      <trkpt lat="47.35947" lon="-0.65525">
        <ele>29.2</ele>
        <time>2021-07-04T07:24:01Z</time>
      </trkpt>
      <trkpt lat="47.35939" lon="-0.65523">
        <ele>29.4</ele>
        <time>2021-07-04T07:24:03Z</time>
      </trkpt>
      <trkpt lat="47.35931" lon="-0.6552">
        <ele>29.4</ele>
        <time>2021-07-04T07:24:05Z</time>
      </trkpt>
      <trkpt lat="47.35923" lon="-0.65517">
        <ele>30.2</ele>
        <time>2021-07-04T07:24:07Z</time>
      </trkpt>
      <trkpt lat="47.35914" lon="-0.65514">
        <ele>30.2</ele>
        <time>2021-07-04T07:24:09Z</time>
      </trkpt>
      <trkpt lat="47.35905" lon="-0.6551">
        <ele>29.4</ele>
        <time>2021-07-04T07:24:11Z</time>
      </trkpt>
      <trkpt lat="47.35901" lon="-0.65507">
        <ele>29</ele>
        <time>2021-07-04T07:24:12Z</time>
      </trkpt>
      <trkpt lat="47.35896" lon="-0.65506">
        <ele>28.8</ele>
        <time>2021-07-04T07:24:13Z</time>
      </trkpt>
      <trkpt lat="47.35891" lon="-0.65505">
        <ele>28.6</ele>
        <time>2021-07-04T07:24:14Z</time>
      </trkpt>
      <trkpt lat="47.35886" lon="-0.65507">
        <ele>28.4</ele>
        <time>2021-07-04T07:24:15Z</time>
      </trkpt>
      <trkpt lat="47.35882" lon="-0.65511">
        <ele>28.2</ele>
        <time>2021-07-04T07:24:16Z</time>
      </trkpt>
      <trkpt lat="47.3588" lon="-0.65518">
        <ele>28</ele>
        <time>2021-07-04T07:24:17Z</time>
      </trkpt>
      <trkpt lat="47.35878" lon="-0.65527">
        <ele>27.8</ele>
        <time>2021-07-04T07:24:18Z</time>
      </trkpt>
      <trkpt lat="47.35878" lon="-0.65535">
        <ele>27.6</ele>
        <time>2021-07-04T07:24:19Z</time>
      </trkpt>
      <trkpt lat="47.35878" lon="-0.65543">
        <ele>27.2</ele>
        <time>2021-07-04T07:24:20Z</time>
      </trkpt>
      <trkpt lat="47.35878" lon="-0.65551">
        <ele>27</ele>
        <time>2021-07-04T07:24:21Z</time>
      </trkpt>
      <trkpt lat="47.35877" lon="-0.65559">
        <ele>27</ele>
        <time>2021-07-04T07:24:22Z</time>
      </trkpt>
      <trkpt lat="47.35875" lon="-0.65567">
        <ele>26.8</ele>
        <time>2021-07-04T07:24:23Z</time>
      </trkpt>
      <trkpt lat="47.35873" lon="-0.65573">
        <ele>26.2</ele>
        <time>2021-07-04T07:24:24Z</time>
      </trkpt>
      <trkpt lat="47.35872" lon="-0.6558">
        <ele>25.6</ele>
        <time>2021-07-04T07:24:25Z</time>
      </trkpt>
      <trkpt lat="47.35868" lon="-0.65592">
        <ele>26.2</ele>
        <time>2021-07-04T07:24:27Z</time>
      </trkpt>
      <trkpt lat="47.35866" lon="-0.65599">
        <ele>26.8</ele>
        <time>2021-07-04T07:24:28Z</time>
      </trkpt>
      <trkpt lat="47.35864" lon="-0.65605">
        <ele>27</ele>
        <time>2021-07-04T07:24:29Z</time>
      </trkpt>
      <trkpt lat="47.3586" lon="-0.65618">
        <ele>26.4</ele>
        <time>2021-07-04T07:24:31Z</time>
      </trkpt>
      <trkpt lat="47.35859" lon="-0.65625">
        <ele>26.2</ele>
        <time>2021-07-04T07:24:32Z</time>
      </trkpt>
      <trkpt lat="47.35857" lon="-0.65632">
        <ele>26.4</ele>
        <time>2021-07-04T07:24:33Z</time>
      </trkpt>
      <trkpt lat="47.35856" lon="-0.65638">
        <ele>26.6</ele>
        <time>2021-07-04T07:24:34Z</time>
      </trkpt>
      <trkpt lat="47.35854" lon="-0.65646">
        <ele>26.6</ele>
        <time>2021-07-04T07:24:35Z</time>
      </trkpt>
      <trkpt lat="47.35851" lon="-0.6566">
        <ele>26.2</ele>
        <time>2021-07-04T07:24:37Z</time>
      </trkpt>
      <trkpt lat="47.35848" lon="-0.65673">
        <ele>26.8</ele>
        <time>2021-07-04T07:24:39Z</time>
      </trkpt>
      <trkpt lat="47.35847" lon="-0.6568">
        <ele>27</ele>
        <time>2021-07-04T07:24:40Z</time>
      </trkpt>
      <trkpt lat="47.35846" lon="-0.65686">
        <ele>27</ele>
        <time>2021-07-04T07:24:41Z</time>
      </trkpt>
      <trkpt lat="47.35844" lon="-0.65698">
        <ele>27.2</ele>
        <time>2021-07-04T07:24:43Z</time>
      </trkpt>
      <trkpt lat="47.3584" lon="-0.65711">
        <ele>27.4</ele>
        <time>2021-07-04T07:24:45Z</time>
      </trkpt>
      <trkpt lat="47.35837" lon="-0.65724">
        <ele>27</ele>
        <time>2021-07-04T07:24:47Z</time>
      </trkpt>
      <trkpt lat="47.35835" lon="-0.65731">
        <ele>26.8</ele>
        <time>2021-07-04T07:24:48Z</time>
      </trkpt>
      <trkpt lat="47.35832" lon="-0.65737">
        <ele>26.6</ele>
        <time>2021-07-04T07:24:49Z</time>
      </trkpt>
      <trkpt lat="47.35827" lon="-0.65752">
        <ele>26.8</ele>
        <time>2021-07-04T07:24:51Z</time>
      </trkpt>
      <trkpt lat="47.35825" lon="-0.6576">
        <ele>26.8</ele>
        <time>2021-07-04T07:24:52Z</time>
      </trkpt>
      <trkpt lat="47.35823" lon="-0.65768">
        <ele>26.8</ele>
        <time>2021-07-04T07:24:53Z</time>
      </trkpt>
      <trkpt lat="47.3582" lon="-0.65783">
        <ele>27</ele>
        <time>2021-07-04T07:24:55Z</time>
      </trkpt>
      <trkpt lat="47.35816" lon="-0.65797">
        <ele>27</ele>
        <time>2021-07-04T07:24:57Z</time>
      </trkpt>
      <trkpt lat="47.35813" lon="-0.65804">
        <ele>27</ele>
        <time>2021-07-04T07:24:58Z</time>
      </trkpt>
      <trkpt lat="47.3581" lon="-0.65811">
        <ele>27.2</ele>
        <time>2021-07-04T07:24:59Z</time>
      </trkpt>
      <trkpt lat="47.35805" lon="-0.65825">
        <ele>27.6</ele>
        <time>2021-07-04T07:25:01Z</time>
      </trkpt>
      <trkpt lat="47.35803" lon="-0.65832">
        <ele>27.8</ele>
        <time>2021-07-04T07:25:02Z</time>
      </trkpt>
      <trkpt lat="47.35801" lon="-0.6584">
        <ele>27.8</ele>
        <time>2021-07-04T07:25:03Z</time>
      </trkpt>
      <trkpt lat="47.35797" lon="-0.65855">
        <ele>27.8</ele>
        <time>2021-07-04T07:25:05Z</time>
      </trkpt>
      <trkpt lat="47.35794" lon="-0.65869">
        <ele>28.2</ele>
        <time>2021-07-04T07:25:07Z</time>
      </trkpt>
      <trkpt lat="47.35791" lon="-0.65882">
        <ele>27.8</ele>
        <time>2021-07-04T07:25:09Z</time>
      </trkpt>
      <trkpt lat="47.35789" lon="-0.65892">
        <ele>27</ele>
        <time>2021-07-04T07:25:11Z</time>
      </trkpt>
      <trkpt lat="47.35785" lon="-0.65892">
        <ele>27</ele>
        <time>2021-07-04T07:25:12Z</time>
      </trkpt>
      <trkpt lat="47.35781" lon="-0.65892">
        <ele>27</ele>
        <time>2021-07-04T07:25:13Z</time>
      </trkpt>
      <trkpt lat="47.35772" lon="-0.65891">
        <ele>27.2</ele>
        <time>2021-07-04T07:25:15Z</time>
      </trkpt>
      <trkpt lat="47.35765" lon="-0.65893">
        <ele>27.6</ele>
        <time>2021-07-04T07:25:17Z</time>
      </trkpt>
      <trkpt lat="47.35758" lon="-0.65894">
        <ele>28.6</ele>
        <time>2021-07-04T07:25:19Z</time>
      </trkpt>
      <trkpt lat="47.35755" lon="-0.65894">
        <ele>29.6</ele>
        <time>2021-07-04T07:25:20Z</time>
      </trkpt>
      <trkpt lat="47.35751" lon="-0.65893">
        <ele>30</ele>
        <time>2021-07-04T07:25:21Z</time>
      </trkpt>
      <trkpt lat="47.35744" lon="-0.6589">
        <ele>30.4</ele>
        <time>2021-07-04T07:25:23Z</time>
      </trkpt>
      <trkpt lat="47.3574" lon="-0.65889">
        <ele>30.8</ele>
        <time>2021-07-04T07:25:24Z</time>
      </trkpt>
      <trkpt lat="47.35737" lon="-0.65887">
        <ele>31.2</ele>
        <time>2021-07-04T07:25:25Z</time>
      </trkpt>
      <trkpt lat="47.35734" lon="-0.65888">
        <ele>31.2</ele>
        <time>2021-07-04T07:25:26Z</time>
      </trkpt>
      <trkpt lat="47.35731" lon="-0.65891">
        <ele>31.2</ele>
        <time>2021-07-04T07:25:27Z</time>
      </trkpt>
      <trkpt lat="47.3573" lon="-0.65896">
        <ele>30.8</ele>
        <time>2021-07-04T07:25:28Z</time>
      </trkpt>
      <trkpt lat="47.35728" lon="-0.65902">
        <ele>30.4</ele>
        <time>2021-07-04T07:25:29Z</time>
      </trkpt>
      <trkpt lat="47.35725" lon="-0.65914">
        <ele>29.8</ele>
        <time>2021-07-04T07:25:31Z</time>
      </trkpt>
      <trkpt lat="47.35722" lon="-0.65927">
        <ele>30</ele>
        <time>2021-07-04T07:25:33Z</time>
      </trkpt>
      <trkpt lat="47.35719" lon="-0.65942">
        <ele>30</ele>
        <time>2021-07-04T07:25:35Z</time>
      </trkpt>
      <trkpt lat="47.35715" lon="-0.65956">
        <ele>29.4</ele>
        <time>2021-07-04T07:25:37Z</time>
      </trkpt>
      <trkpt lat="47.35711" lon="-0.65971">
        <ele>28.6</ele>
        <time>2021-07-04T07:25:39Z</time>
      </trkpt>
      <trkpt lat="47.35707" lon="-0.65986">
        <ele>29.4</ele>
        <time>2021-07-04T07:25:41Z</time>
      </trkpt>
      <trkpt lat="47.35707" lon="-0.65994">
        <ele>29.2</ele>
        <time>2021-07-04T07:25:42Z</time>
      </trkpt>
      <trkpt lat="47.35705" lon="-0.66002">
        <ele>28.6</ele>
        <time>2021-07-04T07:25:43Z</time>
      </trkpt>
      <trkpt lat="47.35703" lon="-0.6601">
        <ele>28.4</ele>
        <time>2021-07-04T07:25:44Z</time>
      </trkpt>
      <trkpt lat="47.35701" lon="-0.66018">
        <ele>28.6</ele>
        <time>2021-07-04T07:25:45Z</time>
      </trkpt>
      <trkpt lat="47.35696" lon="-0.66036">
        <ele>29.2</ele>
        <time>2021-07-04T07:25:47Z</time>
      </trkpt>
      <trkpt lat="47.35692" lon="-0.66054">
        <ele>27.2</ele>
        <time>2021-07-04T07:25:49Z</time>
      </trkpt>
      <trkpt lat="47.35688" lon="-0.66073">
        <ele>26.2</ele>
        <time>2021-07-04T07:25:51Z</time>
      </trkpt>
      <trkpt lat="47.35685" lon="-0.66092">
        <ele>25.6</ele>
        <time>2021-07-04T07:25:53Z</time>
      </trkpt>
      <trkpt lat="47.35682" lon="-0.6611">
        <ele>25.6</ele>
        <time>2021-07-04T07:25:55Z</time>
      </trkpt>
      <trkpt lat="47.35678" lon="-0.66126">
        <ele>25.8</ele>
        <time>2021-07-04T07:25:57Z</time>
      </trkpt>
      <trkpt lat="47.35674" lon="-0.66143">
        <ele>26.4</ele>
        <time>2021-07-04T07:25:59Z</time>
      </trkpt>
      <trkpt lat="47.35672" lon="-0.66151">
        <ele>26.6</ele>
        <time>2021-07-04T07:26:00Z</time>
      </trkpt>
      <trkpt lat="47.3567" lon="-0.66159">
        <ele>26.8</ele>
        <time>2021-07-04T07:26:01Z</time>
      </trkpt>
      <trkpt lat="47.35667" lon="-0.66176">
        <ele>26.2</ele>
        <time>2021-07-04T07:26:03Z</time>
      </trkpt>
      <trkpt lat="47.35664" lon="-0.66193">
        <ele>25.8</ele>
        <time>2021-07-04T07:26:05Z</time>
      </trkpt>
      <trkpt lat="47.35661" lon="-0.6621">
        <ele>25.8</ele>
        <time>2021-07-04T07:26:07Z</time>
      </trkpt>
      <trkpt lat="47.35657" lon="-0.66227">
        <ele>26</ele>
        <time>2021-07-04T07:26:09Z</time>
      </trkpt>
      <trkpt lat="47.35655" lon="-0.66235">
        <ele>26.4</ele>
        <time>2021-07-04T07:26:10Z</time>
      </trkpt>
      <trkpt lat="47.35653" lon="-0.66242">
        <ele>26.6</ele>
        <time>2021-07-04T07:26:11Z</time>
      </trkpt>
      <trkpt lat="47.35652" lon="-0.66247">
        <ele>27</ele>
        <time>2021-07-04T07:26:12Z</time>
      </trkpt>
      <trkpt lat="47.35651" lon="-0.6625">
        <ele>27.4</ele>
        <time>2021-07-04T07:26:13Z</time>
      </trkpt>
      <trkpt lat="47.3565" lon="-0.66256">
        <ele>27.8</ele>
        <time>2021-07-04T07:26:15Z</time>
      </trkpt>
      <trkpt lat="47.35649" lon="-0.66259">
        <ele>27.8</ele>
        <time>2021-07-04T07:26:16Z</time>
      </trkpt>
      <trkpt lat="47.35648" lon="-0.66263">
        <ele>27.6</ele>
        <time>2021-07-04T07:26:17Z</time>
      </trkpt>
      <trkpt lat="47.35645" lon="-0.66273">
        <ele>26.8</ele>
        <time>2021-07-04T07:26:19Z</time>
      </trkpt>
      <trkpt lat="47.35643" lon="-0.6628">
        <ele>26.6</ele>
        <time>2021-07-04T07:26:20Z</time>
      </trkpt>
      <trkpt lat="47.35642" lon="-0.66287">
        <ele>26</ele>
        <time>2021-07-04T07:26:21Z</time>
      </trkpt>
      <trkpt lat="47.35639" lon="-0.66303">
        <ele>25.6</ele>
        <time>2021-07-04T07:26:23Z</time>
      </trkpt>
      <trkpt lat="47.35636" lon="-0.6632">
        <ele>25.2</ele>
        <time>2021-07-04T07:26:25Z</time>
      </trkpt>
      <trkpt lat="47.35634" lon="-0.66329">
        <ele>25</ele>
        <time>2021-07-04T07:26:26Z</time>
      </trkpt>
      <trkpt lat="47.35632" lon="-0.66338">
        <ele>25</ele>
        <time>2021-07-04T07:26:27Z</time>
      </trkpt>
      <trkpt lat="47.35628" lon="-0.66355">
        <ele>25</ele>
        <time>2021-07-04T07:26:29Z</time>
      </trkpt>
      <trkpt lat="47.35625" lon="-0.66373">
        <ele>24.8</ele>
        <time>2021-07-04T07:26:31Z</time>
      </trkpt>
      <trkpt lat="47.3562" lon="-0.6639">
        <ele>24.8</ele>
        <time>2021-07-04T07:26:33Z</time>
      </trkpt>
      <trkpt lat="47.35616" lon="-0.66407">
        <ele>24.4</ele>
        <time>2021-07-04T07:26:35Z</time>
      </trkpt>
      <trkpt lat="47.35612" lon="-0.66423">
        <ele>24.6</ele>
        <time>2021-07-04T07:26:37Z</time>
      </trkpt>
      <trkpt lat="47.35608" lon="-0.66439">
        <ele>24.8</ele>
        <time>2021-07-04T07:26:39Z</time>
      </trkpt>
      <trkpt lat="47.35605" lon="-0.66447">
        <ele>25.6</ele>
        <time>2021-07-04T07:26:41Z</time>
      </trkpt>
      <trkpt lat="47.35604" lon="-0.66445">
        <ele>26.2</ele>
        <time>2021-07-04T07:26:42Z</time>
      </trkpt>
      <trkpt lat="47.35604" lon="-0.66442">
        <ele>26.6</ele>
        <time>2021-07-04T07:26:43Z</time>
      </trkpt>
      <trkpt lat="47.35607" lon="-0.66435">
        <ele>27</ele>
        <time>2021-07-04T07:26:45Z</time>
      </trkpt>
      <trkpt lat="47.35608" lon="-0.6643">
        <ele>26.8</ele>
        <time>2021-07-04T07:26:46Z</time>
      </trkpt>
      <trkpt lat="47.35609" lon="-0.66425">
        <ele>26.8</ele>
        <time>2021-07-04T07:26:47Z</time>
      </trkpt>
      <trkpt lat="47.35612" lon="-0.66415">
        <ele>26.8</ele>
        <time>2021-07-04T07:26:49Z</time>
      </trkpt>
      <trkpt lat="47.35615" lon="-0.66406">
        <ele>26.4</ele>
        <time>2021-07-04T07:26:51Z</time>
      </trkpt>
      <trkpt lat="47.35616" lon="-0.66396">
        <ele>26.4</ele>
        <time>2021-07-04T07:26:53Z</time>
      </trkpt>
      <trkpt lat="47.35618" lon="-0.66393">
        <ele>26.2</ele>
        <time>2021-07-04T07:26:54Z</time>
      </trkpt>
      <trkpt lat="47.3562" lon="-0.66393">
        <ele>26.4</ele>
        <time>2021-07-04T07:26:55Z</time>
      </trkpt>
      <trkpt lat="47.35621" lon="-0.66393">
        <ele>26.8</ele>
        <time>2021-07-04T07:26:57Z</time>
      </trkpt>
      <trkpt lat="47.35578" lon="-0.66552">
        <ele>17.1</ele>
      </trkpt>
      <trkpt lat="47.35491" lon="-0.666">
        <ele>19.1</ele>
      </trkpt>
      <trkpt lat="47.35456" lon="-0.66768">
        <ele>18.1</ele>
      </trkpt>
      <trkpt lat="47.35133" lon="-0.67317">
        <ele>14.7</ele>
      </trkpt>
      <trkpt lat="47.35073" lon="-0.67353">
        <ele>15</ele>
      </trkpt>
      <trkpt lat="47.35033" lon="-0.67485">
        <ele>13.8</ele>
      </trkpt>
      <trkpt lat="47.34867" lon="-0.67569">
        <ele>18.6</ele>
      </trkpt>
      <trkpt lat="47.34835" lon="-0.67561">
        <ele>19.8</ele>
      </trkpt>
      <trkpt lat="47.34821" lon="-0.67653">
        <ele>19.4</ele>
      </trkpt>
      <trkpt lat="47.34802" lon="-0.67529">
        <ele>22.6</ele>
      </trkpt>
      <trkpt lat="47.34829" lon="-0.67389">
        <ele>19.6</ele>
      </trkpt>
      <trkpt lat="47.34783" lon="-0.67341">
        <ele>23.8</ele>
      </trkpt>
      <trkpt lat="47.34713" lon="-0.67481">
        <ele>26.5</ele>
      </trkpt>
      <trkpt lat="47.34615" lon="-0.67573">
        <ele>38.2</ele>
      </trkpt>
      <trkpt lat="47.34533" lon="-0.67573">
        <ele>47.8</ele>
      </trkpt>
      <trkpt lat="47.34414" lon="-0.67517">
        <ele>54.8</ele>
      </trkpt>
      <trkpt lat="47.34338" lon="-0.67557">
        <ele>61.8</ele>
      </trkpt>
      <trkpt lat="47.34178" lon="-0.67517">
        <ele>70</ele>
      </trkpt>
      <trkpt lat="47.34059" lon="-0.67541">
        <ele>78.1</ele>
      </trkpt>
      <trkpt lat="47.3395" lon="-0.67441">
        <ele>82.3</ele>
      </trkpt>
      <trkpt lat="47.33912" lon="-0.67429">
        <ele>81.9</ele>
      </trkpt>
      <trkpt lat="47.33966" lon="-0.67665">
        <ele>82.8</ele>
      </trkpt>
      <trkpt lat="47.3389" lon="-0.67709">
        <ele>86</ele>
      </trkpt>
      <trkpt lat="47.33831" lon="-0.67745">
        <ele>88.9</ele>
      </trkpt>
      <trkpt lat="47.33766" lon="-0.67737">
        <ele>90.4</ele>
      </trkpt>
      <trkpt lat="47.33738" lon="-0.67777">
        <ele>89.8</ele>
      </trkpt>
      <trkpt lat="47.33871" lon="-0.68089">
        <ele>88.4</ele>
      </trkpt>
      <trkpt lat="47.33842" lon="-0.68117">
        <ele>87.4</ele>
      </trkpt>
      <trkpt lat="47.33877" lon="-0.68185">
        <ele>87.2</ele>
      </trkpt>
      <trkpt lat="47.33603" lon="-0.68414">
        <ele>72.7</ele>
      </trkpt>
      <trkpt lat="47.33627" lon="-0.68458">
        <ele>71.4</ele>
      </trkpt>
      <trkpt lat="47.33489" lon="-0.68594">
        <ele>59.5</ele>
      </trkpt>
      <trkpt lat="47.33378" lon="-0.68658">
        <ele>47.8</ele>
      </trkpt>
      <trkpt lat="47.33169" lon="-0.68894">
        <ele>21.2</ele>
      </trkpt>
      <trkpt lat="47.32951" lon="-0.68762">
        <ele>25.1</ele>
      </trkpt>
      <trkpt lat="47.32894" lon="-0.68702">
        <ele>25.5</ele>
      </trkpt>
      <trkpt lat="47.32968" lon="-0.68626">
        <ele>36.5</ele>
      </trkpt>
      <trkpt lat="47.33003" lon="-0.68594">
        <ele>42.3</ele>
      </trkpt>
      <trkpt lat="47.32951" lon="-0.68374">
        <ele>50.3</ele>
      </trkpt>
      <trkpt lat="47.32894" lon="-0.68422">
        <ele>42.5</ele>
      </trkpt>
      <trkpt lat="47.32889" lon="-0.68318">
        <ele>45.1</ele>
      </trkpt>
      <trkpt lat="47.32856" lon="-0.68226">
        <ele>43.8</ele>
      </trkpt>
      <trkpt lat="47.32835" lon="-0.68181">
        <ele>42</ele>
      </trkpt>
      <trkpt lat="47.32805" lon="-0.67993">
        <ele>38.7</ele>
      </trkpt>
      <trkpt lat="47.3278" lon="-0.67973">
        <ele>35.7</ele>
      </trkpt>
      <trkpt lat="47.32791" lon="-0.67857">
        <ele>30.4</ele>
      </trkpt>
      <trkpt lat="47.32808" lon="-0.67801">
        <ele>29.7</ele>
      </trkpt>
      <trkpt lat="47.32827" lon="-0.67701">
        <ele>29.2</ele>
      </trkpt>
      <trkpt lat="47.32865" lon="-0.67473">
        <ele>35.7</ele>
      </trkpt>
      <trkpt lat="47.32851" lon="-0.67321">
        <ele>27.8</ele>
      </trkpt>
      <trkpt lat="47.32821" lon="-0.6716">
        <ele>19.4</ele>
      </trkpt>
      <trkpt lat="47.32745" lon="-0.67112">
        <ele>16</ele>
      </trkpt>
      <trkpt lat="47.32721" lon="-0.67096">
        <ele>16.3</ele>
      </trkpt>
      <trkpt lat="47.32634" lon="-0.6704">
        <ele>18.6</ele>
      </trkpt>
      <trkpt lat="47.32558" lon="-0.66916">
        <ele>21.1</ele>
      </trkpt>
      <trkpt lat="47.32509" lon="-0.66856">
        <ele>20.5</ele>
      </trkpt>
      <trkpt lat="47.32458" lon="-0.66768">
        <ele>22.9</ele>
      </trkpt>
      <trkpt lat="47.32422" lon="-0.66688">
        <ele>20.5</ele>
      </trkpt>
      <trkpt lat="47.32403" lon="-0.66636">
        <ele>21</ele>
      </trkpt>
      <trkpt lat="47.32485" lon="-0.66524">
        <ele>19.5</ele>
      </trkpt>
      <trkpt lat="47.3246" lon="-0.66404">
        <ele>19.2</ele>
      </trkpt>
      <trkpt lat="47.32525" lon="-0.66404">
        <ele>20.8</ele>
      </trkpt>
      <trkpt lat="47.32433" lon="-0.66187">
        <ele>19.9</ele>
      </trkpt>
      <trkpt lat="47.32449" lon="-0.65939">
        <ele>23.7</ele>
      </trkpt>
      <trkpt lat="47.32414" lon="-0.65731">
        <ele>20.5</ele>
      </trkpt>
      <trkpt lat="47.3236" lon="-0.65611">
        <ele>26.1</ele>
      </trkpt>
      <trkpt lat="47.32045" lon="-0.65202">
        <ele>24.1</ele>
      </trkpt>
      <trkpt lat="47.32069" lon="-0.65094">
        <ele>30.4</ele>
      </trkpt>
      <trkpt lat="47.32078" lon="-0.65034">
        <ele>34</ele>
      </trkpt>
      <trkpt lat="47.32053" lon="-0.64942">
        <ele>40.7</ele>
      </trkpt>
      <trkpt lat="47.32048" lon="-0.64882">
        <ele>42.7</ele>
      </trkpt>
      <trkpt lat="47.3204" lon="-0.64786">
        <ele>44.3</ele>
      </trkpt>
      <trkpt lat="47.32088" lon="-0.6475">
        <ele>48.4</ele>
      </trkpt>
      <trkpt lat="47.32148" lon="-0.64702">
        <ele>54.9</ele>
      </trkpt>
      <trkpt lat="47.32143" lon="-0.64654">
        <ele>55.4</ele>
      </trkpt>
      <trkpt lat="47.32135" lon="-0.64622">
        <ele>54.3</ele>
      </trkpt>
      <trkpt lat="47.32156" lon="-0.64566">
        <ele>56.7</ele>
      </trkpt>
      <trkpt lat="47.32202" lon="-0.64518">
        <ele>59.8</ele>
      </trkpt>
      <trkpt lat="47.32132" lon="-0.64462">
        <ele>57.9</ele>
      </trkpt>
      <trkpt lat="47.32072" lon="-0.64458">
        <ele>57.8</ele>
      </trkpt>
      <trkpt lat="47.32042" lon="-0.64398">
        <ele>60.2</ele>
      </trkpt>
      <trkpt lat="47.32042" lon="-0.64378">
        <ele>60.5</ele>
      </trkpt>
      <trkpt lat="47.32059" lon="-0.64329">
        <ele>62.2</ele>
      </trkpt>
      <trkpt lat="47.3208" lon="-0.64281">
        <ele>63.7</ele>
      </trkpt>
      <trkpt lat="47.32474" lon="-0.64017">
        <ele>78.6</ele>
      </trkpt>
      <trkpt lat="47.32501" lon="-0.63969">
        <ele>79.7</ele>
      </trkpt>
      <trkpt lat="47.3249" lon="-0.63889">
        <ele>77.3</ele>
      </trkpt>
      <trkpt lat="47.3252" lon="-0.63813">
        <ele>75.4</ele>
      </trkpt>
      <trkpt lat="47.32729" lon="-0.63661">
        <ele>79.4</ele>
      </trkpt>
      <trkpt lat="47.32794" lon="-0.63625">
        <ele>80.8</ele>
      </trkpt>
      <trkpt lat="47.32786" lon="-0.63529">
        <ele>81.6</ele>
      </trkpt>
      <trkpt lat="47.3274" lon="-0.63336">
        <ele>84.5</ele>
      </trkpt>
      <trkpt lat="47.3274" lon="-0.6326">
        <ele>87.9</ele>
      </trkpt>
      <trkpt lat="47.32778" lon="-0.63256">
        <ele>90.4</ele>
      </trkpt>
      <trkpt lat="47.32642" lon="-0.63168">
        <ele>85.1</ele>
      </trkpt>
      <trkpt lat="47.32338" lon="-0.63168">
        <ele>73.2</ele>
      </trkpt>
      <trkpt lat="47.32249" lon="-0.63112">
        <ele>70.3</ele>
      </trkpt>
      <trkpt lat="47.32151" lon="-0.63096">
        <ele>68.8</ele>
      </trkpt>
      <trkpt lat="47.32075" lon="-0.63112">
        <ele>67.1</ele>
      </trkpt>
      <trkpt lat="47.32004" lon="-0.6314">
        <ele>59.5</ele>
      </trkpt>
      <trkpt lat="47.31945" lon="-0.6312">
        <ele>50.4</ele>
      </trkpt>
      <trkpt lat="47.31817" lon="-0.63204">
        <ele>29.7</ele>
      </trkpt>
      <trkpt lat="47.31727" lon="-0.63204">
        <ele>21.1</ele>
      </trkpt>
      <trkpt lat="47.31708" lon="-0.62836">
        <ele>25.4</ele>
      </trkpt>
      <trkpt lat="47.3167" lon="-0.62668">
        <ele>21.6</ele>
      </trkpt>
      <trkpt lat="47.3173" lon="-0.62548">
        <ele>29.3</ele>
      </trkpt>
      <trkpt lat="47.31695" lon="-0.62391">
        <ele>24.5</ele>
      </trkpt>
      <trkpt lat="47.31708" lon="-0.62315">
        <ele>27.1</ele>
      </trkpt>
      <trkpt lat="47.31692" lon="-0.62183">
        <ele>28.5</ele>
      </trkpt>
      <trkpt lat="47.31643" lon="-0.62039">
        <ele>23.7</ele>
      </trkpt>
      <trkpt lat="47.31632" lon="-0.61871">
        <ele>29.9</ele>
      </trkpt>
      <trkpt lat="47.31608" lon="-0.61815">
        <ele>28</ele>
      </trkpt>
      <trkpt lat="47.31583" lon="-0.61655">
        <ele>25.6</ele>
      </trkpt>
      <trkpt lat="47.31564" lon="-0.61559">
        <ele>29.2</ele>
      </trkpt>
      <trkpt lat="47.31554" lon="-0.61475">
        <ele>32.3</ele>
      </trkpt>
      <trkpt lat="47.31388" lon="-0.61278">
        <ele>22</ele>
      </trkpt>
      <trkpt lat="47.31263" lon="-0.61102">
        <ele>22.2</ele>
      </trkpt>
      <trkpt lat="47.31241" lon="-0.60994">
        <ele>26.7</ele>
      </trkpt>
      <trkpt lat="47.31176" lon="-0.60902">
        <ele>25.4</ele>
      </trkpt>
      <trkpt lat="47.31146" lon="-0.6079">
        <ele>29.5</ele>
      </trkpt>
      <trkpt lat="47.31136" lon="-0.60626">
        <ele>31.8</ele>
      </trkpt>
      <trkpt lat="47.31165" lon="-0.60502">
        <ele>29.9</ele>
      </trkpt>
      <trkpt lat="47.31195" lon="-0.60413">
        <ele>37.4</ele>
      </trkpt>
      <trkpt lat="47.31187" lon="-0.60317">
        <ele>45.9</ele>
      </trkpt>
      <trkpt lat="47.31201" lon="-0.60261">
        <ele>53.2</ele>
      </trkpt>
      <trkpt lat="47.31239" lon="-0.60141">
        <ele>57.1</ele>
      </trkpt>
      <trkpt lat="47.31263" lon="-0.60105">
        <ele>59</ele>
      </trkpt>
      <trkpt lat="47.31193" lon="-0.59913">
        <ele>67.7</ele>
      </trkpt>
      <trkpt lat="47.31144" lon="-0.59805">
        <ele>71.1</ele>
      </trkpt>
      <trkpt lat="47.31073" lon="-0.5942">
        <ele>82.8</ele>
      </trkpt>
      <trkpt lat="47.31111" lon="-0.5926">
        <ele>83.9</ele>
      </trkpt>
      <trkpt lat="47.3116" lon="-0.59264">
        <ele>84</ele>
      </trkpt>
      <trkpt lat="47.31315" lon="-0.59092">
        <ele>85.7</ele>
      </trkpt>
      <trkpt lat="47.31453" lon="-0.58896">
        <ele>89.7</ele>
      </trkpt>
      <trkpt lat="47.31597" lon="-0.58692">
        <ele>100.5</ele>
      </trkpt>
      <trkpt lat="47.31594" lon="-0.58648">
        <ele>101.3</ele>
      </trkpt>
      <trkpt lat="47.31727" lon="-0.58624">
        <ele>106.1</ele>
      </trkpt>
      <trkpt lat="47.31798" lon="-0.58588">
        <ele>109.3</ele>
      </trkpt>
    </trkseg>
  </trk>
</gpx>